<?xml version='1.0' encoding='UTF-8'?><gpx version="1.1" creator="JPX - https://github.com/jenetics/jpx" xmlns="http://www.topografix.com/GPX/1/1"><trk><trkseg><trkpt lat="36.92379629443078" lon="15.156938974268101"><ele>21.0</ele><time>2026-04-15T08:01:58.999Z</time></trkpt><trkpt lat="36.923752039541995" lon="15.156847885328872"><ele>21.0</ele><time>2026-04-15T08:03:12Z</time></trkpt><trkpt lat="36.92385117629224" lon="15.156785711278168"><ele>21.0</ele><time>2026-04-15T08:03:15Z</time></trkpt><trkpt lat="36.923919364502574" lon="15.156823896620336"><ele>21.0</ele><time>2026-04-15T08:03:16Z</time></trkpt><trkpt lat="36.92398915169428" lon="15.156849422964376"><ele>21.0</ele><time>2026-04-15T08:03:18Z</time></trkpt><trkpt lat="36.92404333012328" lon="15.1568991802819"><ele>21.0</ele><time>2026-04-15T08:03:21Z</time></trkpt><trkpt lat="36.92411381330824" lon="15.156956417215396"><ele>21.0</ele><time>2026-04-15T08:03:31Z</time></trkpt><trkpt lat="36.924178361241026" lon="15.157020326521774"><ele>21.0</ele><time>2026-04-15T08:03:32Z</time></trkpt><trkpt lat="36.924234112447145" lon="15.157122852134018"><ele>21.0</ele><time>2026-04-15T08:03:33Z</time></trkpt><trkpt lat="36.92428913096146" lon="15.157220178985547"><ele>21.0</ele><time>2026-04-15T08:03:34Z</time></trkpt><trkpt lat="36.924358480433675" lon="15.157339873489944"><ele>21.0</ele><time>2026-04-15T08:03:35Z</time></trkpt><trkpt lat="36.924435866496225" lon="15.157471805147862"><ele>21.200000000000003</ele><time>2026-04-15T08:03:36Z</time></trkpt><trkpt lat="36.924504129947785" lon="15.157592301085892"><ele>21.400000000000002</ele><time>2026-04-15T08:03:37Z</time></trkpt><trkpt lat="36.92456073154164" lon="15.157697964840946"><ele>21.6</ele><time>2026-04-15T08:03:38Z</time></trkpt><trkpt lat="36.924606453220235" lon="15.157791883796284"><ele>21.8</ele><time>2026-04-15T08:03:39Z</time></trkpt><trkpt lat="36.92465008990183" lon="15.15787690256242"><ele>22.0</ele><time>2026-04-15T08:03:40Z</time></trkpt><trkpt lat="36.92468801707001" lon="15.157953384884694"><ele>22.0</ele><time>2026-04-15T08:03:41Z</time></trkpt><trkpt lat="36.924751411373016" lon="15.158089778946739"><ele>22.0</ele><time>2026-04-15T08:03:43Z</time></trkpt><trkpt lat="36.92479892955898" lon="15.158173188694846"><ele>22.0</ele><time>2026-04-15T08:03:44Z</time></trkpt><trkpt lat="36.92485214965656" lon="15.158265937217367"><ele>22.0</ele><time>2026-04-15T08:03:45Z</time></trkpt><trkpt lat="36.92490285737261" lon="15.15837725415134"><ele>22.0</ele><time>2026-04-15T08:03:45.999Z</time></trkpt><trkpt lat="36.924956628929635" lon="15.158498511879282"><ele>21.8</ele><time>2026-04-15T08:03:46.999Z</time></trkpt><trkpt lat="36.925019113754594" lon="15.158633926492175"><ele>21.6</ele><time>2026-04-15T08:03:47.999Z</time></trkpt><trkpt lat="36.92507863443609" lon="15.158755892936725"><ele>21.400000000000002</ele><time>2026-04-15T08:03:48.999Z</time></trkpt><trkpt lat="36.92512540967439" lon="15.158856005875284"><ele>21.200000000000003</ele><time>2026-04-15T08:03:49.999Z</time></trkpt><trkpt lat="36.9251716975105" lon="15.158949548062356"><ele>21.0</ele><time>2026-04-15T08:03:50.999Z</time></trkpt><trkpt lat="36.92521080004096" lon="15.159034374455219"><ele>22.0</ele><time>2026-04-15T08:03:51.999Z</time></trkpt><trkpt lat="36.925254796427666" lon="15.15911413554312"><ele>23.0</ele><time>2026-04-15T08:03:52.999Z</time></trkpt><trkpt lat="36.92530331729038" lon="15.159212819162478"><ele>24.0</ele><time>2026-04-15T08:03:53.999Z</time></trkpt><trkpt lat="36.925382200132184" lon="15.159369711427365"><ele>25.0</ele><time>2026-04-15T08:03:54.999Z</time></trkpt><trkpt lat="36.92545612294406" lon="15.159507861410294"><ele>25.000000000000004</ele><time>2026-04-15T08:03:55.999Z</time></trkpt><trkpt lat="36.92551453642397" lon="15.15964149431373"><ele>25.0</ele><time>2026-04-15T08:03:56.999Z</time></trkpt><trkpt lat="36.92552697151325" lon="15.159733284742439"><ele>25.0</ele><time>2026-04-15T08:03:57.999Z</time></trkpt><trkpt lat="36.92554711528927" lon="15.159841109092262"><ele>25.0</ele><time>2026-04-15T08:03:58.999Z</time></trkpt><trkpt lat="36.92556533346466" lon="15.159937366747378"><ele>25.000000000000004</ele><time>2026-04-15T08:03:59.999Z</time></trkpt><trkpt lat="36.92559664482063" lon="15.16003697757363"><ele>25.0</ele><time>2026-04-15T08:04:00.999Z</time></trkpt><trkpt lat="36.92564761926649" lon="15.160124988623355"><ele>24.5</ele><time>2026-04-15T08:04:01.999Z</time></trkpt><trkpt lat="36.92573697769901" lon="15.160196480974323"><ele>24.0</ele><time>2026-04-15T08:04:02.999Z</time></trkpt><trkpt lat="36.925821075299325" lon="15.160292892836868"><ele>23.5</ele><time>2026-04-15T08:04:03.999Z</time></trkpt><trkpt lat="36.92589856419191" lon="15.160413139850728"><ele>23.0</ele><time>2026-04-15T08:04:04.999Z</time></trkpt><trkpt lat="36.9259809046629" lon="15.160576160529683"><ele>22.333333333333336</ele><time>2026-04-15T08:04:05.999Z</time></trkpt><trkpt lat="36.92606667902302" lon="15.160744881974255"><ele>21.666666666666668</ele><time>2026-04-15T08:04:06.999Z</time></trkpt><trkpt lat="36.92617163592906" lon="15.16091893133317"><ele>21.0</ele><time>2026-04-15T08:04:07.999Z</time></trkpt><trkpt lat="36.92629009493445" lon="15.161090678813292"><ele>21.0</ele><time>2026-04-15T08:04:08.999Z</time></trkpt><trkpt lat="36.92640316333169" lon="15.161254717857615"><ele>21.0</ele><time>2026-04-15T08:04:09.999Z</time></trkpt><trkpt lat="36.92651503874001" lon="15.161421779850006"><ele>21.0</ele><time>2026-04-15T08:04:10.999Z</time></trkpt><trkpt lat="36.92663042895578" lon="15.161591687984757"><ele>21.666666666666668</ele><time>2026-04-15T08:04:11.999Z</time></trkpt><trkpt lat="36.92674878472523" lon="15.161766356964106"><ele>22.333333333333336</ele><time>2026-04-15T08:04:12.999Z</time></trkpt><trkpt lat="36.92687248565724" lon="15.161949301908669"><ele>23.0</ele><time>2026-04-15T08:04:13.999Z</time></trkpt><trkpt lat="36.926999952975684" lon="15.162137434932596"><ele>23.0</ele><time>2026-04-15T08:04:14.999Z</time></trkpt><trkpt lat="36.92712349855138" lon="15.162320720826092"><ele>23.0</ele><time>2026-04-15T08:04:15.999Z</time></trkpt><trkpt lat="36.92725055469156" lon="15.162503239142902"><ele>23.0</ele><time>2026-04-15T08:04:16.999Z</time></trkpt><trkpt lat="36.92737527752304" lon="15.162686627843115"><ele>23.0</ele><time>2026-04-15T08:04:17.999Z</time></trkpt><trkpt lat="36.927498900294154" lon="15.162868505192817"><ele>23.0</ele><time>2026-04-15T08:04:18.999Z</time></trkpt><trkpt lat="36.92762378648755" lon="15.163051785319402"><ele>23.0</ele><time>2026-04-15T08:04:19.999Z</time></trkpt><trkpt lat="36.92774633323573" lon="15.163233823358398"><ele>23.0</ele><time>2026-04-15T08:04:20.999Z</time></trkpt><trkpt lat="36.927869371543686" lon="15.163417750558672"><ele>23.0</ele><time>2026-04-15T08:04:21.999Z</time></trkpt><trkpt lat="36.92798967611193" lon="15.163606917852913"><ele>23.0</ele><time>2026-04-15T08:04:22.999Z</time></trkpt><trkpt lat="36.92811156484702" lon="15.16379756012895"><ele>23.0</ele><time>2026-04-15T08:04:23.999Z</time></trkpt><trkpt lat="36.92824442118055" lon="15.163991799778263"><ele>23.0</ele><time>2026-04-15T08:04:24.999Z</time></trkpt><trkpt lat="36.92839242337715" lon="15.164175935240424"><ele>23.0</ele><time>2026-04-15T08:04:25.999Z</time></trkpt><trkpt lat="36.92855203071329" lon="15.16435058160494"><ele>23.0</ele><time>2026-04-15T08:04:26.999Z</time></trkpt><trkpt lat="36.92872042451718" lon="15.164500839518206"><ele>23.0</ele><time>2026-04-15T08:04:27.999Z</time></trkpt><trkpt lat="36.928894371493925" lon="15.164643842705525"><ele>23.0</ele><time>2026-04-15T08:04:28.999Z</time></trkpt><trkpt lat="36.9290676842104" lon="15.164782278021798"><ele>23.0</ele><time>2026-04-15T08:04:29.999Z</time></trkpt><trkpt lat="36.92922830175625" lon="15.164914653387443"><ele>23.0</ele><time>2026-04-15T08:04:30.999Z</time></trkpt><trkpt lat="36.92937912262873" lon="15.165038057935263"><ele>23.0</ele><time>2026-04-15T08:04:31.999Z</time></trkpt><trkpt lat="36.92952479805849" lon="15.165153472659968"><ele>23.0</ele><time>2026-04-15T08:04:32.999Z</time></trkpt><trkpt lat="36.92966314792249" lon="15.16526268989864"><ele>23.0</ele><time>2026-04-15T08:04:33.999Z</time></trkpt><trkpt lat="36.92980525814851" lon="15.165372214821955"><ele>23.0</ele><time>2026-04-15T08:04:34.999Z</time></trkpt><trkpt lat="36.92994778874914" lon="15.165492414507714"><ele>22.666666666666668</ele><time>2026-04-15T08:04:35.999Z</time></trkpt><trkpt lat="36.93009940810777" lon="15.165608054586516"><ele>22.333333333333332</ele><time>2026-04-15T08:04:36.999Z</time></trkpt><trkpt lat="36.930261275705845" lon="15.165726748082777"><ele>22.0</ele><time>2026-04-15T08:04:37.999Z</time></trkpt><trkpt lat="36.93043645636501" lon="15.165859799561716"><ele>20.0</ele><time>2026-04-15T08:04:38.999Z</time></trkpt><trkpt lat="36.930631828176374" lon="15.165997999429868"><ele>18.0</ele><time>2026-04-15T08:04:39.999Z</time></trkpt><trkpt lat="36.93083082998227" lon="15.166142166926441"><ele>18.0</ele><time>2026-04-15T08:04:40.999Z</time></trkpt><trkpt lat="36.931033261860065" lon="15.166288612818525"><ele>18.0</ele><time>2026-04-15T08:04:41.999Z</time></trkpt><trkpt lat="36.93124058739943" lon="15.166444288116889"><ele>17.0</ele><time>2026-04-15T08:04:42.999Z</time></trkpt><trkpt lat="36.93145219422449" lon="15.16659286190235"><ele>16.0</ele><time>2026-04-15T08:04:43.999Z</time></trkpt><trkpt lat="36.93166416003702" lon="15.166755315110228"><ele>16.0</ele><time>2026-04-15T08:04:44.999Z</time></trkpt><trkpt lat="36.93188073210885" lon="15.166916501446869"><ele>16.0</ele><time>2026-04-15T08:04:45.999Z</time></trkpt><trkpt lat="36.93210055525753" lon="15.167071737386038"><ele>16.0</ele><time>2026-04-15T08:04:46.999Z</time></trkpt><trkpt lat="36.93231590679211" lon="15.167229132595374"><ele>16.0</ele><time>2026-04-15T08:04:47.999Z</time></trkpt><trkpt lat="36.93253139236079" lon="15.167386769055716"><ele>15.5</ele><time>2026-04-15T08:04:48.999Z</time></trkpt><trkpt lat="36.93274676868823" lon="15.167545074484453"><ele>15.0</ele><time>2026-04-15T08:04:49.999Z</time></trkpt><trkpt lat="36.93296157095026" lon="15.167697180510741"><ele>15.0</ele><time>2026-04-15T08:04:50.998Z</time></trkpt><trkpt lat="36.933178554943176" lon="15.167851715019056"><ele>15.0</ele><time>2026-04-15T08:04:51.998Z</time></trkpt><trkpt lat="36.9333923758442" lon="15.168006274122945"><ele>17.0</ele><time>2026-04-15T08:04:52.998Z</time></trkpt><trkpt lat="36.93360191943818" lon="15.168166573396356"><ele>19.0</ele><time>2026-04-15T08:04:53.998Z</time></trkpt><trkpt lat="36.93379937222947" lon="15.168305798668563"><ele>19.0</ele><time>2026-04-15T08:04:54.998Z</time></trkpt><trkpt lat="36.933986276676364" lon="15.168442263686334"><ele>19.0</ele><time>2026-04-15T08:04:55.998Z</time></trkpt><trkpt lat="36.93416331819804" lon="15.168565846266059"><ele>19.0</ele><time>2026-04-15T08:04:56.998Z</time></trkpt><trkpt lat="36.93433893846506" lon="15.168690871246344"><ele>19.333333333333332</ele><time>2026-04-15T08:04:57.998Z</time></trkpt><trkpt lat="36.93451699487545" lon="15.168824824620005"><ele>19.666666666666668</ele><time>2026-04-15T08:04:58.998Z</time></trkpt><trkpt lat="36.93469236775884" lon="15.168966305196234"><ele>20.0</ele><time>2026-04-15T08:04:59.998Z</time></trkpt><trkpt lat="36.93485964550193" lon="15.16909944900103"><ele>20.0</ele><time>2026-04-15T08:05:00.998Z</time></trkpt><trkpt lat="36.9350258173695" lon="15.16921076545213"><ele>20.0</ele><time>2026-04-15T08:05:01.998Z</time></trkpt><trkpt lat="36.935187128337944" lon="15.169320380473158"><ele>20.0</ele><time>2026-04-15T08:05:02.998Z</time></trkpt><trkpt lat="36.93533755801595" lon="15.169422187769525"><ele>20.0</ele><time>2026-04-15T08:05:03.998Z</time></trkpt><trkpt lat="36.935465169889426" lon="15.169523305497924"><ele>20.0</ele><time>2026-04-15T08:05:05Z</time></trkpt><trkpt lat="36.93559704813396" lon="15.169605941451005"><ele>20.0</ele><time>2026-04-15T08:05:06Z</time></trkpt><trkpt lat="36.935718808916775" lon="15.169693718809976"><ele>20.0</ele><time>2026-04-15T08:05:07Z</time></trkpt><trkpt lat="36.93584609239287" lon="15.169787221065413"><ele>19.333333333333336</ele><time>2026-04-15T08:05:08Z</time></trkpt><trkpt lat="36.935990899469125" lon="15.169893319037396"><ele>18.666666666666668</ele><time>2026-04-15T08:05:09Z</time></trkpt><trkpt lat="36.93614670689977" lon="15.17000331204303"><ele>18.0</ele><time>2026-04-15T08:05:10Z</time></trkpt><trkpt lat="36.936298119229846" lon="15.170120458070784"><ele>18.0</ele><time>2026-04-15T08:05:11Z</time></trkpt><trkpt lat="36.93645492558262" lon="15.170222651856843"><ele>18.0</ele><time>2026-04-15T08:05:12Z</time></trkpt><trkpt lat="36.93659171303607" lon="15.170322465996687"><ele>18.0</ele><time>2026-04-15T08:05:13Z</time></trkpt><trkpt lat="36.93671450517433" lon="15.170415911832869"><ele>18.25</ele><time>2026-04-15T08:05:14Z</time></trkpt><trkpt lat="36.93683014385237" lon="15.17051007873101"><ele>18.5</ele><time>2026-04-15T08:05:15Z</time></trkpt><trkpt lat="36.93694559370822" lon="15.170602497841442"><ele>18.75</ele><time>2026-04-15T08:05:16Z</time></trkpt><trkpt lat="36.93706176000459" lon="15.170691595221758"><ele>19.0</ele><time>2026-04-15T08:05:17Z</time></trkpt><trkpt lat="36.937181503011466" lon="15.170779390673513"><ele>19.0</ele><time>2026-04-15T08:05:18Z</time></trkpt><trkpt lat="36.93731080390934" lon="15.17087293591653"><ele>19.0</ele><time>2026-04-15T08:05:19Z</time></trkpt><trkpt lat="36.937449909571555" lon="15.170971114984054"><ele>19.0</ele><time>2026-04-15T08:05:20Z</time></trkpt><trkpt lat="36.937592713424905" lon="15.171069574643541"><ele>19.0</ele><time>2026-04-15T08:05:21Z</time></trkpt><trkpt lat="36.93774307753325" lon="15.171171559878358"><ele>19.0</ele><time>2026-04-15T08:05:22Z</time></trkpt><trkpt lat="36.93791524995064" lon="15.171280031769742"><ele>19.0</ele><time>2026-04-15T08:05:23Z</time></trkpt><trkpt lat="36.938107528267736" lon="15.171403476514833"><ele>17.0</ele><time>2026-04-15T08:05:24Z</time></trkpt><trkpt lat="36.93831229290686" lon="15.171554809272815"><ele>15.0</ele><time>2026-04-15T08:05:25Z</time></trkpt><trkpt lat="36.93853424381122" lon="15.171725266250927"><ele>15.0</ele><time>2026-04-15T08:05:26Z</time></trkpt><trkpt lat="36.93876772954147" lon="15.171910910693216"><ele>15.0</ele><time>2026-04-15T08:05:27Z</time></trkpt><trkpt lat="36.93899817401217" lon="15.172115543151477"><ele>16.0</ele><time>2026-04-15T08:05:28Z</time></trkpt><trkpt lat="36.93922929334634" lon="15.172330261009138"><ele>17.0</ele><time>2026-04-15T08:05:29Z</time></trkpt><trkpt lat="36.9394556644258" lon="15.172517223983844"><ele>17.0</ele><time>2026-04-15T08:05:30Z</time></trkpt><trkpt lat="36.93968128102647" lon="15.172693930507942"><ele>17.0</ele><time>2026-04-15T08:05:31Z</time></trkpt><trkpt lat="36.93990272949729" lon="15.172875148494091"><ele>20.5</ele><time>2026-04-15T08:05:32Z</time></trkpt><trkpt lat="36.940123848311174" lon="15.173064582293183"><ele>24.0</ele><time>2026-04-15T08:05:33Z</time></trkpt><trkpt lat="36.94034140267727" lon="15.173246750470161"><ele>24.0</ele><time>2026-04-15T08:05:34Z</time></trkpt><trkpt lat="36.94055495060134" lon="15.173426411118887"><ele>24.0</ele><time>2026-04-15T08:05:35Z</time></trkpt><trkpt lat="36.940767998676044" lon="15.173604986805882"><ele>26.0</ele><time>2026-04-15T08:05:36Z</time></trkpt><trkpt lat="36.940980012243" lon="15.173785572889237"><ele>28.0</ele><time>2026-04-15T08:05:37Z</time></trkpt><trkpt lat="36.94119602306259" lon="15.1739698961001"><ele>26.0</ele><time>2026-04-15T08:05:38Z</time></trkpt><trkpt lat="36.94140540750998" lon="15.174165198369895"><ele>24.0</ele><time>2026-04-15T08:05:39Z</time></trkpt><trkpt lat="36.941617631098374" lon="15.174364436524208"><ele>24.0</ele><time>2026-04-15T08:05:40Z</time></trkpt><trkpt lat="36.941829579757226" lon="15.174564802645788"><ele>24.0</ele><time>2026-04-15T08:05:41Z</time></trkpt><trkpt lat="36.94204616499251" lon="15.174768704854243"><ele>22.5</ele><time>2026-04-15T08:05:42Z</time></trkpt><trkpt lat="36.94226386928034" lon="15.174979748737966"><ele>21.0</ele><time>2026-04-15T08:05:43Z</time></trkpt><trkpt lat="36.94247837423664" lon="15.175193109219084"><ele>23.0</ele><time>2026-04-15T08:05:44Z</time></trkpt><trkpt lat="36.942698195822175" lon="15.175409631160148"><ele>25.0</ele><time>2026-04-15T08:05:45Z</time></trkpt><trkpt lat="36.942925077379684" lon="15.17564916092103"><ele>24.5</ele><time>2026-04-15T08:05:46Z</time></trkpt><trkpt lat="36.943124695150445" lon="15.175918508317507"><ele>24.0</ele><time>2026-04-15T08:05:47Z</time></trkpt><trkpt lat="36.943312458868085" lon="15.176191620884786"><ele>24.5</ele><time>2026-04-15T08:05:48Z</time></trkpt><trkpt lat="36.943513964465446" lon="15.176451591033446"><ele>25.0</ele><time>2026-04-15T08:05:49Z</time></trkpt><trkpt lat="36.9437161699714" lon="15.176705965038806"><ele>25.0</ele><time>2026-04-15T08:05:49.999Z</time></trkpt><trkpt lat="36.943921504687594" lon="15.176955182557203"><ele>25.0</ele><time>2026-04-15T08:05:50.999Z</time></trkpt><trkpt lat="36.94412152938098" lon="15.17720968002763"><ele>26.0</ele><time>2026-04-15T08:05:51.999Z</time></trkpt><trkpt lat="36.94432031994093" lon="15.177460675979082"><ele>27.0</ele><time>2026-04-15T08:05:52.999Z</time></trkpt><trkpt lat="36.94451706030635" lon="15.17771684764174"><ele>27.0</ele><time>2026-04-15T08:05:53.999Z</time></trkpt><trkpt lat="36.94471185076749" lon="15.177973703439056"><ele>27.0</ele><time>2026-04-15T08:05:54.999Z</time></trkpt><trkpt lat="36.944906545269134" lon="15.178229731157113"><ele>27.5</ele><time>2026-04-15T08:05:55.999Z</time></trkpt><trkpt lat="36.94509686264888" lon="15.178479574855286"><ele>28.0</ele><time>2026-04-15T08:05:56.999Z</time></trkpt><trkpt lat="36.94528609948862" lon="15.178723632681727"><ele>28.0</ele><time>2026-04-15T08:05:57.999Z</time></trkpt><trkpt lat="36.94547418631372" lon="15.178964144741096"><ele>28.0</ele><time>2026-04-15T08:05:58.999Z</time></trkpt><trkpt lat="36.94566254663712" lon="15.17921104912147"><ele>28.0</ele><time>2026-04-15T08:05:59.999Z</time></trkpt><trkpt lat="36.94584013246969" lon="15.179456518868557"><ele>28.0</ele><time>2026-04-15T08:06:00.999Z</time></trkpt><trkpt lat="36.94600547406887" lon="15.179726411639843"><ele>27.0</ele><time>2026-04-15T08:06:01.999Z</time></trkpt><trkpt lat="36.94615609832315" lon="15.180009163785613"><ele>26.0</ele><time>2026-04-15T08:06:02.999Z</time></trkpt><trkpt lat="36.94630659733981" lon="15.18029765704678"><ele>26.0</ele><time>2026-04-15T08:06:03.999Z</time></trkpt><trkpt lat="36.94644878286565" lon="15.18060182955303"><ele>26.0</ele><time>2026-04-15T08:06:04.999Z</time></trkpt><trkpt lat="36.946581165279966" lon="15.180911421854729"><ele>24.5</ele><time>2026-04-15T08:06:05.999Z</time></trkpt><trkpt lat="36.94670728347908" lon="15.181216675415035"><ele>23.0</ele><time>2026-04-15T08:06:06.999Z</time></trkpt><trkpt lat="36.94682145037099" lon="15.1815371218782"><ele>21.0</ele><time>2026-04-15T08:06:07.999Z</time></trkpt><trkpt lat="36.94692445147028" lon="15.181857238252265"><ele>19.0</ele><time>2026-04-15T08:06:08.999Z</time></trkpt><trkpt lat="36.94701753050393" lon="15.182187425563827"><ele>17.0</ele><time>2026-04-15T08:06:09.999Z</time></trkpt><trkpt lat="36.94710996552052" lon="15.182514887135303"><ele>15.0</ele><time>2026-04-15T08:06:10.999Z</time></trkpt><trkpt lat="36.94719875648894" lon="15.182845678066263"><ele>13.5</ele><time>2026-04-15T08:06:11.999Z</time></trkpt><trkpt lat="36.947286087438094" lon="15.183185643169985"><ele>12.0</ele><time>2026-04-15T08:06:12.999Z</time></trkpt><trkpt lat="36.947374411373474" lon="15.183519380559922"><ele>12.0</ele><time>2026-04-15T08:06:13.999Z</time></trkpt><trkpt lat="36.94746666525878" lon="15.183847980814315"><ele>12.0</ele><time>2026-04-15T08:06:14.999Z</time></trkpt><trkpt lat="36.94755957121541" lon="15.184179028595539"><ele>9.5</ele><time>2026-04-15T08:06:15.999Z</time></trkpt><trkpt lat="36.94765021159569" lon="15.184504242472622"><ele>7.0</ele><time>2026-04-15T08:06:16.999Z</time></trkpt><trkpt lat="36.94774343355264" lon="15.18482275531842"><ele>6.5</ele><time>2026-04-15T08:06:17.999Z</time></trkpt><trkpt lat="36.94784085492415" lon="15.185134959710371"><ele>6.0</ele><time>2026-04-15T08:06:18.999Z</time></trkpt><trkpt lat="36.947940805343386" lon="15.185424445364982"><ele>6.0</ele><time>2026-04-15T08:06:19.999Z</time></trkpt><trkpt lat="36.94804698705141" lon="15.185696356719987"><ele>6.0</ele><time>2026-04-15T08:06:20.999Z</time></trkpt><trkpt lat="36.9481531912493" lon="15.185953921006675"><ele>6.0</ele><time>2026-04-15T08:06:21.999Z</time></trkpt><trkpt lat="36.94825596429107" lon="15.186197009784697"><ele>6.0</ele><time>2026-04-15T08:06:22.999Z</time></trkpt><trkpt lat="36.948356480849725" lon="15.186426563266114"><ele>6.0</ele><time>2026-04-15T08:06:23.999Z</time></trkpt><trkpt lat="36.94845481704253" lon="15.186631859740032"><ele>6.0</ele><time>2026-04-15T08:06:24.999Z</time></trkpt><trkpt lat="36.94854756530576" lon="15.186820578740134"><ele>6.0</ele><time>2026-04-15T08:06:25.999Z</time></trkpt><trkpt lat="36.94863138559671" lon="15.186982420455276"><ele>6.0</ele><time>2026-04-15T08:06:26.999Z</time></trkpt><trkpt lat="36.94870209239006" lon="15.187114861704032"><ele>6.0</ele><time>2026-04-15T08:06:27.999Z</time></trkpt><trkpt lat="36.948754404557285" lon="15.18721112764388"><ele>6.0</ele><time>2026-04-15T08:06:28.999Z</time></trkpt><trkpt lat="36.94880156540683" lon="15.187298445001185"><ele>6.0</ele><time>2026-04-15T08:06:29.999Z</time></trkpt><trkpt lat="36.94884849773984" lon="15.187386413521052"><ele>6.0</ele><time>2026-04-15T08:06:30.999Z</time></trkpt><trkpt lat="36.948899036621924" lon="15.187474454515538"><ele>6.0</ele><time>2026-04-15T08:06:31.999Z</time></trkpt><trkpt lat="36.94894989037212" lon="15.187563283048446"><ele>6.0</ele><time>2026-04-15T08:06:32.999Z</time></trkpt><trkpt lat="36.9490013467056" lon="15.187655751147654"><ele>5.833333333333333</ele><time>2026-04-15T08:06:33.999Z</time></trkpt><trkpt lat="36.949048514545815" lon="15.187741856490755"><ele>5.666666666666667</ele><time>2026-04-15T08:06:34.999Z</time></trkpt><trkpt lat="36.94908719822153" lon="15.187824839720934"><ele>5.5</ele><time>2026-04-15T08:06:35.999Z</time></trkpt><trkpt lat="36.94912534160985" lon="15.187904494474362"><ele>5.333333333333334</ele><time>2026-04-15T08:06:36.999Z</time></trkpt><trkpt lat="36.949161496734334" lon="15.187976601573"><ele>5.166666666666667</ele><time>2026-04-15T08:06:37.999Z</time></trkpt><trkpt lat="36.94919750215289" lon="15.188043791054307"><ele>5.0</ele><time>2026-04-15T08:06:38.999Z</time></trkpt><trkpt lat="36.94927455115925" lon="15.188177889699388"><ele>5.0</ele><time>2026-04-15T08:06:40.999Z</time></trkpt><trkpt lat="36.949324273087505" lon="15.188269197731929"><ele>5.0</ele><time>2026-04-15T08:06:41.999Z</time></trkpt><trkpt lat="36.949385970025965" lon="15.188372223129626"><ele>5.0</ele><time>2026-04-15T08:06:42.999Z</time></trkpt><trkpt lat="36.94945127488844" lon="15.188482665579997"><ele>5.0</ele><time>2026-04-15T08:06:43.999Z</time></trkpt><trkpt lat="36.94952849278423" lon="15.18862093492673"><ele>5.0</ele><time>2026-04-15T08:06:44.999Z</time></trkpt><trkpt lat="36.949619476090994" lon="15.188777876495626"><ele>5.0</ele><time>2026-04-15T08:06:45.999Z</time></trkpt><trkpt lat="36.949705123931764" lon="15.188931129665706"><ele>5.0</ele><time>2026-04-15T08:06:46.999Z</time></trkpt><trkpt lat="36.94978841503958" lon="15.189078286783923"><ele>5.0</ele><time>2026-04-15T08:06:47.999Z</time></trkpt><trkpt lat="36.94986475107199" lon="15.189205230803902"><ele>5.0</ele><time>2026-04-15T08:06:48.999Z</time></trkpt><trkpt lat="36.94993054107535" lon="15.189320935920888"><ele>5.8</ele><time>2026-04-15T08:06:49.999Z</time></trkpt><trkpt lat="36.94998846051951" lon="15.189424103063478"><ele>6.6</ele><time>2026-04-15T08:06:50.999Z</time></trkpt><trkpt lat="36.950041039146825" lon="15.189514217158887"><ele>7.4</ele><time>2026-04-15T08:06:51.999Z</time></trkpt><trkpt lat="36.95009104449029" lon="15.189602088898107"><ele>8.2</ele><time>2026-04-15T08:06:52.999Z</time></trkpt><trkpt lat="36.9501404120278" lon="15.189688220339523"><ele>9.0</ele><time>2026-04-15T08:06:53.999Z</time></trkpt><trkpt lat="36.95019667362536" lon="15.189778493726514"><ele>10.25</ele><time>2026-04-15T08:06:54.998Z</time></trkpt><trkpt lat="36.95025847174076" lon="15.189869375893142"><ele>11.5</ele><time>2026-04-15T08:06:55.998Z</time></trkpt><trkpt lat="36.9503373550624" lon="15.18995779920594"><ele>12.75</ele><time>2026-04-15T08:06:56.998Z</time></trkpt><trkpt lat="36.95044780264826" lon="15.190055299674366"><ele>14.0</ele><time>2026-04-15T08:06:57.998Z</time></trkpt><trkpt lat="36.95056143323129" lon="15.19014967630213"><ele>14.0</ele><time>2026-04-15T08:06:58.998Z</time></trkpt><trkpt lat="36.95068202731605" lon="15.190242376885427"><ele>14.0</ele><time>2026-04-15T08:06:59.998Z</time></trkpt><trkpt lat="36.95081156681734" lon="15.190321645144179"><ele>14.0</ele><time>2026-04-15T08:07:00.998Z</time></trkpt><trkpt lat="36.95094536677329" lon="15.190378994336688"><ele>14.0</ele><time>2026-04-15T08:07:01.998Z</time></trkpt><trkpt lat="36.95106705505855" lon="15.190416246666697"><ele>14.799999999999999</ele><time>2026-04-15T08:07:02.998Z</time></trkpt><trkpt lat="36.95117597757121" lon="15.190433336145592"><ele>15.599999999999998</ele><time>2026-04-15T08:07:03.998Z</time></trkpt><trkpt lat="36.95127864210174" lon="15.190432648152857"><ele>16.4</ele><time>2026-04-15T08:07:04.998Z</time></trkpt><trkpt lat="36.95138047068044" lon="15.190424125432951"><ele>17.2</ele><time>2026-04-15T08:07:05.998Z</time></trkpt><trkpt lat="36.951498448337965" lon="15.190413400760933"><ele>18.0</ele><time>2026-04-15T08:07:06.998Z</time></trkpt><trkpt lat="36.95163379132671" lon="15.190402255216416"><ele>18.4</ele><time>2026-04-15T08:07:07.998Z</time></trkpt><trkpt lat="36.95175512908487" lon="15.19039854612675"><ele>18.8</ele><time>2026-04-15T08:07:08.998Z</time></trkpt><trkpt lat="36.951856166652206" lon="15.190396414282878"><ele>19.2</ele><time>2026-04-15T08:07:09.998Z</time></trkpt><trkpt lat="36.95193479525867" lon="15.19039975149667"><ele>19.6</ele><time>2026-04-15T08:07:11Z</time></trkpt><trkpt lat="36.95203191226725" lon="15.190429582282384"><ele>20.0</ele><time>2026-04-15T08:07:13Z</time></trkpt><trkpt lat="36.95209180120583" lon="15.190471536174316"><ele>20.0</ele><time>2026-04-15T08:07:15Z</time></trkpt><trkpt lat="36.95214998330795" lon="15.190510538824887"><ele>20.0</ele><time>2026-04-15T08:07:17Z</time></trkpt><trkpt lat="36.95222043934873" lon="15.190528811318678"><ele>20.0</ele><time>2026-04-15T08:07:19Z</time></trkpt><trkpt lat="36.95232173157151" lon="15.190497937741128"><ele>20.0</ele><time>2026-04-15T08:07:21Z</time></trkpt><trkpt lat="36.952404669991914" lon="15.190425750360829"><ele>20.0</ele><time>2026-04-15T08:07:23Z</time></trkpt><trkpt lat="36.95252177346012" lon="15.190379492292527"><ele>20.0</ele><time>2026-04-15T08:07:25Z</time></trkpt><trkpt lat="36.95258785079509" lon="15.190367261079038"><ele>20.0</ele><time>2026-04-15T08:07:26Z</time></trkpt><trkpt lat="36.95265397674514" lon="15.190362467636554"><ele>20.0</ele><time>2026-04-15T08:07:27Z</time></trkpt><trkpt lat="36.952728371776956" lon="15.190358135046663"><ele>20.0</ele><time>2026-04-15T08:07:28Z</time></trkpt><trkpt lat="36.952813848471365" lon="15.19035581181621"><ele>20.0</ele><time>2026-04-15T08:07:29Z</time></trkpt><trkpt lat="36.95289715193" lon="15.190353649702091"><ele>20.0</ele><time>2026-04-15T08:07:30Z</time></trkpt><trkpt lat="36.95298613831749" lon="15.190349424512727"><ele>20.0</ele><time>2026-04-15T08:07:31Z</time></trkpt><trkpt lat="36.95308154766512" lon="15.190345550186212"><ele>20.0</ele><time>2026-04-15T08:07:32Z</time></trkpt><trkpt lat="36.953178764463686" lon="15.19034501691674"><ele>20.0</ele><time>2026-04-15T08:07:33Z</time></trkpt><trkpt lat="36.95327745927196" lon="15.190344380143097"><ele>20.0</ele><time>2026-04-15T08:07:34Z</time></trkpt><trkpt lat="36.953377776636735" lon="15.190343195707237"><ele>20.0</ele><time>2026-04-15T08:07:35Z</time></trkpt><trkpt lat="36.95347766423046" lon="15.190341960857435"><ele>20.4</ele><time>2026-04-15T08:07:36Z</time></trkpt><trkpt lat="36.95358202574196" lon="15.19033653230756"><ele>20.8</ele><time>2026-04-15T08:07:37Z</time></trkpt><trkpt lat="36.9536834662927" lon="15.190333115014662"><ele>21.200000000000003</ele><time>2026-04-15T08:07:38Z</time></trkpt><trkpt lat="36.95378316424525" lon="15.190328406706161"><ele>21.6</ele><time>2026-04-15T08:07:39Z</time></trkpt><trkpt lat="36.95387995080081" lon="15.190322534015968"><ele>22.0</ele><time>2026-04-15T08:07:40Z</time></trkpt><trkpt lat="36.95397647048017" lon="15.190316993619874"><ele>22.0</ele><time>2026-04-15T08:07:41Z</time></trkpt><trkpt lat="36.95407554761173" lon="15.190311302152203"><ele>22.0</ele><time>2026-04-15T08:07:42Z</time></trkpt><trkpt lat="36.95417339159398" lon="15.190307652737527"><ele>22.0</ele><time>2026-04-15T08:07:43Z</time></trkpt><trkpt lat="36.95427136587414" lon="15.190306277607013"><ele>22.0</ele><time>2026-04-15T08:07:44Z</time></trkpt><trkpt lat="36.954370408067014" lon="15.190303072785781"><ele>22.0</ele><time>2026-04-15T08:07:45Z</time></trkpt><trkpt lat="36.95446985418333" lon="15.190299352897837"><ele>22.400000000000002</ele><time>2026-04-15T08:07:46Z</time></trkpt><trkpt lat="36.954570985650115" lon="15.190294933180835"><ele>22.8</ele><time>2026-04-15T08:07:47Z</time></trkpt><trkpt lat="36.954671050295076" lon="15.190289362476078"><ele>23.2</ele><time>2026-04-15T08:07:48Z</time></trkpt><trkpt lat="36.95477258765111" lon="15.190284932466017"><ele>23.6</ele><time>2026-04-15T08:07:49Z</time></trkpt><trkpt lat="36.95487356773091" lon="15.190280966903044"><ele>24.0</ele><time>2026-04-15T08:07:50Z</time></trkpt><trkpt lat="36.954977038773904" lon="15.190274154126145"><ele>23.799999999999997</ele><time>2026-04-15T08:07:51Z</time></trkpt><trkpt lat="36.95508225298096" lon="15.190268056791513"><ele>23.599999999999998</ele><time>2026-04-15T08:07:52Z</time></trkpt><trkpt lat="36.95518700090793" lon="15.19026331053093"><ele>23.4</ele><time>2026-04-15T08:07:53Z</time></trkpt><trkpt lat="36.95529324517026" lon="15.190258929877917"><ele>23.2</ele><time>2026-04-15T08:07:54Z</time></trkpt><trkpt lat="36.95540012916359" lon="15.190253129912188"><ele>23.0</ele><time>2026-04-15T08:07:54.999Z</time></trkpt><trkpt lat="36.95551127739915" lon="15.190241598960384"><ele>23.0</ele><time>2026-04-15T08:07:55.999Z</time></trkpt><trkpt lat="36.955627949339664" lon="15.190228984968618"><ele>23.0</ele><time>2026-04-15T08:07:56.999Z</time></trkpt><trkpt lat="36.95574563444598" lon="15.190221363120784"><ele>23.0</ele><time>2026-04-15T08:07:57.999Z</time></trkpt><trkpt lat="36.955858321637045" lon="15.190213673355887"><ele>23.0</ele><time>2026-04-15T08:07:58.999Z</time></trkpt><trkpt lat="36.955962526462876" lon="15.190206392250557"><ele>23.2</ele><time>2026-04-15T08:07:59.999Z</time></trkpt><trkpt lat="36.95606409855341" lon="15.19020024143038"><ele>23.4</ele><time>2026-04-15T08:08:00.999Z</time></trkpt><trkpt lat="36.95616510708941" lon="15.190195623021257"><ele>23.599999999999998</ele><time>2026-04-15T08:08:01.999Z</time></trkpt><trkpt lat="36.95625810991021" lon="15.190194543882265"><ele>23.799999999999997</ele><time>2026-04-15T08:08:02.999Z</time></trkpt><trkpt lat="36.956347238454754" lon="15.190192023325237"><ele>24.0</ele><time>2026-04-15T08:08:03.999Z</time></trkpt><trkpt lat="36.956435588401035" lon="15.190188414013734"><ele>24.0</ele><time>2026-04-15T08:08:04.999Z</time></trkpt><trkpt lat="36.95652625436699" lon="15.190186511312511"><ele>24.0</ele><time>2026-04-15T08:08:05.999Z</time></trkpt><trkpt lat="36.956622904899106" lon="15.190181452885145"><ele>24.0</ele><time>2026-04-15T08:08:06.999Z</time></trkpt><trkpt lat="36.956723205127936" lon="15.190176429076491"><ele>24.0</ele><time>2026-04-15T08:08:07.999Z</time></trkpt><trkpt lat="36.956826057893615" lon="15.19017250321843"><ele>24.0</ele><time>2026-04-15T08:08:08.999Z</time></trkpt><trkpt lat="36.956933188156526" lon="15.190167268665231"><ele>24.0</ele><time>2026-04-15T08:08:09.999Z</time></trkpt><trkpt lat="36.95703991386581" lon="15.190162188354638"><ele>24.0</ele><time>2026-04-15T08:08:10.999Z</time></trkpt><trkpt lat="36.95714793840913" lon="15.190156794149823"><ele>24.0</ele><time>2026-04-15T08:08:11.999Z</time></trkpt><trkpt lat="36.957257871572125" lon="15.190151211757449"><ele>24.0</ele><time>2026-04-15T08:08:12.999Z</time></trkpt><trkpt lat="36.95736202816407" lon="15.190147219835366"><ele>24.0</ele><time>2026-04-15T08:08:13.999Z</time></trkpt><trkpt lat="36.957466223968154" lon="15.19014346023663"><ele>24.2</ele><time>2026-04-15T08:08:14.999Z</time></trkpt><trkpt lat="36.95757119011081" lon="15.190139776148373"><ele>24.4</ele><time>2026-04-15T08:08:15.999Z</time></trkpt><trkpt lat="36.95767716665761" lon="15.190136884131547"><ele>24.6</ele><time>2026-04-15T08:08:16.999Z</time></trkpt><trkpt lat="36.9577835826722" lon="15.19013119487221"><ele>24.8</ele><time>2026-04-15T08:08:17.999Z</time></trkpt><trkpt lat="36.957891151542846" lon="15.190125808756031"><ele>25.0</ele><time>2026-04-15T08:08:18.999Z</time></trkpt><trkpt lat="36.95800077103343" lon="15.190119078216181"><ele>25.0</ele><time>2026-04-15T08:08:19.999Z</time></trkpt><trkpt lat="36.95811504507939" lon="15.19010920314048"><ele>25.0</ele><time>2026-04-15T08:08:20.999Z</time></trkpt><trkpt lat="36.958234996950736" lon="15.190100600507897"><ele>25.0</ele><time>2026-04-15T08:08:21.999Z</time></trkpt><trkpt lat="36.95836543780816" lon="15.190092064948814"><ele>25.0</ele><time>2026-04-15T08:08:22.999Z</time></trkpt><trkpt lat="36.95851190747719" lon="15.19008229919933"><ele>26.0</ele><time>2026-04-15T08:08:23.999Z</time></trkpt><trkpt lat="36.95867964006813" lon="15.190069137294959"><ele>27.0</ele><time>2026-04-15T08:08:24.999Z</time></trkpt><trkpt lat="36.9588569598312" lon="15.190053833639414"><ele>28.0</ele><time>2026-04-15T08:08:25.999Z</time></trkpt><trkpt lat="36.95903025540852" lon="15.190036624207085"><ele>28.666666666666668</ele><time>2026-04-15T08:08:26.999Z</time></trkpt><trkpt lat="36.959228677874094" lon="15.190019076464992"><ele>29.333333333333336</ele><time>2026-04-15T08:08:27.999Z</time></trkpt><trkpt lat="36.95946304768421" lon="15.19000037234142"><ele>30.0</ele><time>2026-04-15T08:08:28.999Z</time></trkpt><trkpt lat="36.959705698658595" lon="15.189985763903787"><ele>30.0</ele><time>2026-04-15T08:08:29.999Z</time></trkpt><trkpt lat="36.959994626512206" lon="15.189976457553872"><ele>30.0</ele><time>2026-04-15T08:08:30.999Z</time></trkpt><trkpt lat="36.96027257306718" lon="15.189966318982083"><ele>30.0</ele><time>2026-04-15T08:08:31.999Z</time></trkpt><trkpt lat="36.96052830218533" lon="15.189970900016098"><ele>30.0</ele><time>2026-04-15T08:08:32.999Z</time></trkpt><trkpt lat="36.96076340808016" lon="15.189969718773575"><ele>30.0</ele><time>2026-04-15T08:08:33.999Z</time></trkpt><trkpt lat="36.96099222929561" lon="15.189960880512624"><ele>30.0</ele><time>2026-04-15T08:08:34.999Z</time></trkpt><trkpt lat="36.961219071896004" lon="15.189949572851464"><ele>30.0</ele><time>2026-04-15T08:08:35.999Z</time></trkpt><trkpt lat="36.96144427395527" lon="15.189938813500813"><ele>30.0</ele><time>2026-04-15T08:08:36.999Z</time></trkpt><trkpt lat="36.961682208974565" lon="15.189930083811944"><ele>31.0</ele><time>2026-04-15T08:08:37.999Z</time></trkpt><trkpt lat="36.96194150571961" lon="15.189912132265194"><ele>32.0</ele><time>2026-04-15T08:08:38.999Z</time></trkpt><trkpt lat="36.9622212715125" lon="15.189884619416144"><ele>32.0</ele><time>2026-04-15T08:08:39.999Z</time></trkpt><trkpt lat="36.96252570060339" lon="15.189874626092355"><ele>32.0</ele><time>2026-04-15T08:08:40.999Z</time></trkpt><trkpt lat="36.96283501437402" lon="15.189884303768906"><ele>33.0</ele><time>2026-04-15T08:08:41.999Z</time></trkpt><trkpt lat="36.963135452936015" lon="15.189879356792982"><ele>34.0</ele><time>2026-04-15T08:08:42.999Z</time></trkpt><trkpt lat="36.96344209290318" lon="15.189860090412852"><ele>35.0</ele><time>2026-04-15T08:08:43.999Z</time></trkpt><trkpt lat="36.96375821027379" lon="15.189844499861724"><ele>36.0</ele><time>2026-04-15T08:08:44.999Z</time></trkpt><trkpt lat="36.96407475840488" lon="15.189830491259452"><ele>37.5</ele><time>2026-04-15T08:08:45.999Z</time></trkpt><trkpt lat="36.964392549515146" lon="15.189815419785608"><ele>39.0</ele><time>2026-04-15T08:08:46.999Z</time></trkpt><trkpt lat="36.964706109586245" lon="15.189804025374507"><ele>39.0</ele><time>2026-04-15T08:08:47.999Z</time></trkpt><trkpt lat="36.965023273634856" lon="15.189794991234653"><ele>39.0</ele><time>2026-04-15T08:08:48.999Z</time></trkpt><trkpt lat="36.96534166847133" lon="15.189783949004918"><ele>40.5</ele><time>2026-04-15T08:08:49.999Z</time></trkpt><trkpt lat="36.96566217462704" lon="15.189767339068876"><ele>42.0</ele><time>2026-04-15T08:08:50.999Z</time></trkpt><trkpt lat="36.96598365745638" lon="15.189749273348312"><ele>42.5</ele><time>2026-04-15T08:08:51.999Z</time></trkpt><trkpt lat="36.96630191222902" lon="15.189731893886218"><ele>43.0</ele><time>2026-04-15T08:08:52.999Z</time></trkpt><trkpt lat="36.96661181963222" lon="15.189718577711924"><ele>45.0</ele><time>2026-04-15T08:08:53.999Z</time></trkpt><trkpt lat="36.96692080470664" lon="15.189704935787661"><ele>47.0</ele><time>2026-04-15T08:08:54.999Z</time></trkpt><trkpt lat="36.96722099331617" lon="15.189692010657994"><ele>47.0</ele><time>2026-04-15T08:08:55.999Z</time></trkpt><trkpt lat="36.967513794184086" lon="15.189675531605898"><ele>47.0</ele><time>2026-04-15T08:08:56.999Z</time></trkpt><trkpt lat="36.96780508215021" lon="15.189657306769087"><ele>48.0</ele><time>2026-04-15T08:08:57.999Z</time></trkpt><trkpt lat="36.968090649588326" lon="15.189640471067031"><ele>49.0</ele><time>2026-04-15T08:08:58.999Z</time></trkpt><trkpt lat="36.96837321627297" lon="15.189624540215783"><ele>49.0</ele><time>2026-04-15T08:08:59.999Z</time></trkpt><trkpt lat="36.96864275568941" lon="15.189609447200107"><ele>49.0</ele><time>2026-04-15T08:09:00.998Z</time></trkpt><trkpt lat="36.96890886509253" lon="15.189596400951002"><ele>49.0</ele><time>2026-04-15T08:09:01.998Z</time></trkpt><trkpt lat="36.969162179043515" lon="15.189581851527421"><ele>49.0</ele><time>2026-04-15T08:09:02.998Z</time></trkpt><trkpt lat="36.969397180358236" lon="15.189572457338153"><ele>50.33333333333333</ele><time>2026-04-15T08:09:03.998Z</time></trkpt><trkpt lat="36.969614745621996" lon="15.189571753855851"><ele>51.66666666666667</ele><time>2026-04-15T08:09:04.998Z</time></trkpt><trkpt lat="36.96981714004379" lon="15.18961250344438"><ele>53.0</ele><time>2026-04-15T08:09:05.998Z</time></trkpt><trkpt lat="36.96998224300103" lon="15.18972546321994"><ele>51.333333333333336</ele><time>2026-04-15T08:09:06.998Z</time></trkpt><trkpt lat="36.9701115073206" lon="15.189899850128963"><ele>49.66666666666667</ele><time>2026-04-15T08:09:07.998Z</time></trkpt><trkpt lat="36.97024652974585" lon="15.19008589980398"><ele>48.0</ele><time>2026-04-15T08:09:08.998Z</time></trkpt><trkpt lat="36.97040906839359" lon="15.190273690032548"><ele>48.0</ele><time>2026-04-15T08:09:09.998Z</time></trkpt><trkpt lat="36.97057081440898" lon="15.190466724258483"><ele>48.0</ele><time>2026-04-15T08:09:10.998Z</time></trkpt><trkpt lat="36.97073201949095" lon="15.190656710997525"><ele>48.0</ele><time>2026-04-15T08:09:11.998Z</time></trkpt><trkpt lat="36.97087886600119" lon="15.190834759824414"><ele>49.0</ele><time>2026-04-15T08:09:12.998Z</time></trkpt><trkpt lat="36.971023376500234" lon="15.191001368477476"><ele>50.0</ele><time>2026-04-15T08:09:13.998Z</time></trkpt><trkpt lat="36.971156946625115" lon="15.191151858752924"><ele>51.0</ele><time>2026-04-15T08:09:14.998Z</time></trkpt><trkpt lat="36.97127995908748" lon="15.191285302047602"><ele>51.0</ele><time>2026-04-15T08:09:15.998Z</time></trkpt><trkpt lat="36.971390228741754" lon="15.191406467865388"><ele>51.0</ele><time>2026-04-15T08:09:17Z</time></trkpt><trkpt lat="36.971490126430254" lon="15.191500528373533"><ele>51.0</ele><time>2026-04-15T08:09:18Z</time></trkpt><trkpt lat="36.97158529605061" lon="15.191563774340327"><ele>51.0</ele><time>2026-04-15T08:09:19Z</time></trkpt><trkpt lat="36.9716770886484" lon="15.191566097645913"><ele>50.5</ele><time>2026-04-15T08:09:20Z</time></trkpt><trkpt lat="36.971763354620734" lon="15.191525430387188"><ele>50.0</ele><time>2026-04-15T08:09:21Z</time></trkpt><trkpt lat="36.971840167239115" lon="15.191447008327703"><ele>49.5</ele><time>2026-04-15T08:09:22Z</time></trkpt><trkpt lat="36.9719099358967" lon="15.191325958645765"><ele>49.0</ele><time>2026-04-15T08:09:23Z</time></trkpt><trkpt lat="36.97199249505245" lon="15.191182247487138"><ele>50.33333333333333</ele><time>2026-04-15T08:09:24Z</time></trkpt><trkpt lat="36.97210231962761" lon="15.191037201027855"><ele>51.66666666666667</ele><time>2026-04-15T08:09:25Z</time></trkpt><trkpt lat="36.97221614641764" lon="15.190891783491688"><ele>53.0</ele><time>2026-04-15T08:09:26Z</time></trkpt><trkpt lat="36.97233230655652" lon="15.190732854447676"><ele>53.0</ele><time>2026-04-15T08:09:27Z</time></trkpt><trkpt lat="36.97244880519931" lon="15.190567034071336"><ele>53.0</ele><time>2026-04-15T08:09:28Z</time></trkpt><trkpt lat="36.97256917773587" lon="15.190403101745334"><ele>53.0</ele><time>2026-04-15T08:09:29Z</time></trkpt><trkpt lat="36.97269077750758" lon="15.190239744404934"><ele>53.66666666666667</ele><time>2026-04-15T08:09:30Z</time></trkpt><trkpt lat="36.972806837598306" lon="15.190083622457244"><ele>54.33333333333333</ele><time>2026-04-15T08:09:31Z</time></trkpt><trkpt lat="36.97291174692775" lon="15.189939240569727"><ele>55.0</ele><time>2026-04-15T08:09:32Z</time></trkpt><trkpt lat="36.973017380225194" lon="15.189797400240758"><ele>55.0</ele><time>2026-04-15T08:09:33Z</time></trkpt><trkpt lat="36.97313033967915" lon="15.189660564582171"><ele>55.0</ele><time>2026-04-15T08:09:34Z</time></trkpt><trkpt lat="36.9732508230122" lon="15.189552023788899"><ele>55.0</ele><time>2026-04-15T08:09:35Z</time></trkpt><trkpt lat="36.97337552007963" lon="15.18947819400963"><ele>55.0</ele><time>2026-04-15T08:09:36Z</time></trkpt><trkpt lat="36.97350155737331" lon="15.189392769406936"><ele>55.33333333333333</ele><time>2026-04-15T08:09:37Z</time></trkpt><trkpt lat="36.97364364676329" lon="15.189357511144888"><ele>55.66666666666667</ele><time>2026-04-15T08:09:38Z</time></trkpt><trkpt lat="36.97381125790011" lon="15.189370465554305"><ele>56.0</ele><time>2026-04-15T08:09:39Z</time></trkpt><trkpt lat="36.97399569500812" lon="15.189406264368406"><ele>56.0</ele><time>2026-04-15T08:09:40Z</time></trkpt><trkpt lat="36.974175195939004" lon="15.189448296425137"><ele>56.0</ele><time>2026-04-15T08:09:41Z</time></trkpt><trkpt lat="36.974352009975846" lon="15.189501971309785"><ele>56.0</ele><time>2026-04-15T08:09:42Z</time></trkpt><trkpt lat="36.97453052568818" lon="15.18958285356117"><ele>56.0</ele><time>2026-04-15T08:09:43Z</time></trkpt><trkpt lat="36.974700990288355" lon="15.189681041873651"><ele>56.0</ele><time>2026-04-15T08:09:44Z</time></trkpt><trkpt lat="36.974866388878" lon="15.189790648173593"><ele>56.0</ele><time>2026-04-15T08:09:45Z</time></trkpt><trkpt lat="36.97502315321142" lon="15.189917899484215"><ele>57.0</ele><time>2026-04-15T08:09:46Z</time></trkpt><trkpt lat="36.975155729001415" lon="15.190060920388916"><ele>58.0</ele><time>2026-04-15T08:09:47Z</time></trkpt><trkpt lat="36.975259845772534" lon="15.190190603609896"><ele>59.0</ele><time>2026-04-15T08:09:48Z</time></trkpt><trkpt lat="36.975341879142775" lon="15.190286006076496"><ele>60.0</ele><time>2026-04-15T08:09:49Z</time></trkpt><trkpt lat="36.97542564417392" lon="15.190341436511503"><ele>60.0</ele><time>2026-04-15T08:09:50Z</time></trkpt><trkpt lat="36.9755131437773" lon="15.190355062423837"><ele>60.0</ele><time>2026-04-15T08:09:51Z</time></trkpt><trkpt lat="36.97560661549896" lon="15.190328569214218"><ele>60.0</ele><time>2026-04-15T08:09:52Z</time></trkpt><trkpt lat="36.97570775412995" lon="15.190252760435024"><ele>60.0</ele><time>2026-04-15T08:09:53Z</time></trkpt><trkpt lat="36.97582551195626" lon="15.19013169881567"><ele>60.0</ele><time>2026-04-15T08:09:54Z</time></trkpt><trkpt lat="36.97597355254428" lon="15.190007799438824"><ele>60.0</ele><time>2026-04-15T08:09:55Z</time></trkpt><trkpt lat="36.976122072547476" lon="15.189894434721516"><ele>60.0</ele><time>2026-04-15T08:09:56Z</time></trkpt><trkpt lat="36.976293780104214" lon="15.189756669922728"><ele>60.5</ele><time>2026-04-15T08:09:57Z</time></trkpt><trkpt lat="36.97648074694859" lon="15.189604660343088"><ele>61.0</ele><time>2026-04-15T08:09:58Z</time></trkpt><trkpt lat="36.9766705769598" lon="15.189449417926866"><ele>61.5</ele><time>2026-04-15T08:09:59Z</time></trkpt><trkpt lat="36.97686431679238" lon="15.189291054409747"><ele>62.0</ele><time>2026-04-15T08:10:00Z</time></trkpt><trkpt lat="36.97708115121743" lon="15.189119901464373"><ele>63.0</ele><time>2026-04-15T08:10:00.999Z</time></trkpt><trkpt lat="36.97730765850474" lon="15.188935844767578"><ele>64.0</ele><time>2026-04-15T08:10:01.999Z</time></trkpt><trkpt lat="36.977542635695066" lon="15.188743804139209"><ele>65.0</ele><time>2026-04-15T08:10:02.999Z</time></trkpt><trkpt lat="36.97776695722458" lon="15.188559409343018"><ele>66.0</ele><time>2026-04-15T08:10:03.999Z</time></trkpt><trkpt lat="36.97799643734195" lon="15.188374671977993"><ele>66.0</ele><time>2026-04-15T08:10:04.999Z</time></trkpt><trkpt lat="36.97823297473574" lon="15.188184020846663"><ele>66.0</ele><time>2026-04-15T08:10:05.999Z</time></trkpt><trkpt lat="36.97848151893003" lon="15.187986126932703"><ele>65.0</ele><time>2026-04-15T08:10:06.999Z</time></trkpt><trkpt lat="36.97874217332376" lon="15.187774808035815"><ele>64.0</ele><time>2026-04-15T08:10:07.999Z</time></trkpt><trkpt lat="36.9790121998345" lon="15.18755562845192"><ele>63.5</ele><time>2026-04-15T08:10:08.999Z</time></trkpt><trkpt lat="36.97928017048315" lon="15.18734550884434"><ele>63.0</ele><time>2026-04-15T08:10:09.999Z</time></trkpt><trkpt lat="36.97953564826368" lon="15.187134008257228"><ele>63.0</ele><time>2026-04-15T08:10:10.999Z</time></trkpt><trkpt lat="36.97978945982378" lon="15.18692382714903"><ele>63.0</ele><time>2026-04-15T08:10:11.999Z</time></trkpt><trkpt lat="36.98003792132038" lon="15.186720164101127"><ele>63.0</ele><time>2026-04-15T08:10:12.999Z</time></trkpt><trkpt lat="36.98028045633128" lon="15.186524536412842"><ele>63.0</ele><time>2026-04-15T08:10:13.999Z</time></trkpt><trkpt lat="36.9805205175212" lon="15.186330036580115"><ele>63.0</ele><time>2026-04-15T08:10:14.999Z</time></trkpt><trkpt lat="36.980758460300315" lon="15.186137157593677"><ele>63.0</ele><time>2026-04-15T08:10:15.999Z</time></trkpt><trkpt lat="36.9809956576227" lon="15.185941796860504"><ele>62.0</ele><time>2026-04-15T08:10:16.999Z</time></trkpt><trkpt lat="36.98123508752128" lon="15.18574405305781"><ele>61.0</ele><time>2026-04-15T08:10:17.999Z</time></trkpt><trkpt lat="36.98147252317041" lon="15.185552534833095"><ele>61.0</ele><time>2026-04-15T08:10:18.999Z</time></trkpt><trkpt lat="36.981712685375356" lon="15.185357320500131"><ele>61.0</ele><time>2026-04-15T08:10:19.999Z</time></trkpt><trkpt lat="36.981955665105566" lon="15.185159695511194"><ele>61.0</ele><time>2026-04-15T08:10:20.999Z</time></trkpt><trkpt lat="36.98219921831226" lon="15.18496107247828"><ele>61.0</ele><time>2026-04-15T08:10:21.999Z</time></trkpt><trkpt lat="36.98244353740073" lon="15.184760703869488"><ele>62.5</ele><time>2026-04-15T08:10:22.999Z</time></trkpt><trkpt lat="36.98268403324775" lon="15.184563240508522"><ele>64.0</ele><time>2026-04-15T08:10:23.999Z</time></trkpt><trkpt lat="36.98291298140501" lon="15.184374662272834"><ele>64.0</ele><time>2026-04-15T08:10:24.999Z</time></trkpt><trkpt lat="36.98313127905372" lon="15.184194544537261"><ele>64.0</ele><time>2026-04-15T08:10:25.999Z</time></trkpt><trkpt lat="36.9833341532287" lon="15.184024854857713"><ele>64.0</ele><time>2026-04-15T08:10:26.999Z</time></trkpt><trkpt lat="36.98353331742031" lon="15.183853851917691"><ele>64.0</ele><time>2026-04-15T08:10:27.999Z</time></trkpt><trkpt lat="36.98374208999217" lon="15.183677251812657"><ele>64.0</ele><time>2026-04-15T08:10:28.999Z</time></trkpt><trkpt lat="36.983966091813386" lon="15.183508146081413"><ele>64.0</ele><time>2026-04-15T08:10:29.999Z</time></trkpt><trkpt lat="36.98419596270162" lon="15.183341214531549"><ele>64.0</ele><time>2026-04-15T08:10:30.999Z</time></trkpt><trkpt lat="36.984416257280955" lon="15.183175063991289"><ele>64.0</ele><time>2026-04-15T08:10:31.999Z</time></trkpt><trkpt lat="36.984607465596255" lon="15.1830230789262"><ele>64.0</ele><time>2026-04-15T08:10:32.999Z</time></trkpt><trkpt lat="36.98477125712585" lon="15.182892153320934"><ele>64.0</ele><time>2026-04-15T08:10:33.999Z</time></trkpt><trkpt lat="36.98490397840535" lon="15.182789688595859"><ele>64.0</ele><time>2026-04-15T08:10:34.999Z</time></trkpt><trkpt lat="36.98502661915575" lon="15.182690685260757"><ele>64.0</ele><time>2026-04-15T08:10:35.999Z</time></trkpt><trkpt lat="36.98513354621241" lon="15.182603931634146"><ele>64.0</ele><time>2026-04-15T08:10:36.999Z</time></trkpt><trkpt lat="36.98522627300553" lon="15.182529651386307"><ele>64.0</ele><time>2026-04-15T08:10:37.999Z</time></trkpt><trkpt lat="36.985302795291354" lon="15.18246399536878"><ele>64.0</ele><time>2026-04-15T08:10:38.999Z</time></trkpt><trkpt lat="36.98536764959198" lon="15.182412146213895"><ele>64.0</ele><time>2026-04-15T08:10:39.999Z</time></trkpt><trkpt lat="36.98545855935069" lon="15.182347281204638"><ele>64.2</ele><time>2026-04-15T08:10:41.999Z</time></trkpt><trkpt lat="36.985538927325834" lon="15.182283656211455"><ele>64.4</ele><time>2026-04-15T08:10:43.999Z</time></trkpt><trkpt lat="36.985593098743685" lon="15.18223830276078"><ele>64.6</ele><time>2026-04-15T08:10:44.999Z</time></trkpt><trkpt lat="36.98566605513297" lon="15.18218221780092"><ele>64.8</ele><time>2026-04-15T08:10:45.999Z</time></trkpt><trkpt lat="36.98575077773193" lon="15.182110704567767"><ele>65.0</ele><time>2026-04-15T08:10:46.999Z</time></trkpt><trkpt lat="36.98585357054445" lon="15.18202290605599"><ele>65.0</ele><time>2026-04-15T08:10:47.999Z</time></trkpt><trkpt lat="36.98596878630634" lon="15.181921829988095"><ele>65.0</ele><time>2026-04-15T08:10:48.999Z</time></trkpt><trkpt lat="36.986097473741914" lon="15.181815300487049"><ele>65.0</ele><time>2026-04-15T08:10:49.999Z</time></trkpt><trkpt lat="36.98624164798368" lon="15.18169883822346"><ele>65.0</ele><time>2026-04-15T08:10:50.999Z</time></trkpt><trkpt lat="36.98640639684036" lon="15.181567045642893"><ele>65.0</ele><time>2026-04-15T08:10:51.999Z</time></trkpt><trkpt lat="36.986576192696404" lon="15.181432786498188"><ele>65.0</ele><time>2026-04-15T08:10:52.999Z</time></trkpt><trkpt lat="36.98674468147065" lon="15.181300772553769"><ele>65.0</ele><time>2026-04-15T08:10:53.999Z</time></trkpt><trkpt lat="36.98690969882396" lon="15.181165002660055"><ele>65.0</ele><time>2026-04-15T08:10:54.999Z</time></trkpt><trkpt lat="36.98707369875594" lon="15.181029420152658"><ele>65.0</ele><time>2026-04-15T08:10:55.999Z</time></trkpt><trkpt lat="36.98724164877497" lon="15.180898931684146"><ele>65.0</ele><time>2026-04-15T08:10:56.999Z</time></trkpt><trkpt lat="36.98740523371813" lon="15.180764921765626"><ele>65.0</ele><time>2026-04-15T08:10:57.999Z</time></trkpt><trkpt lat="36.987571258282884" lon="15.180632014828715"><ele>65.0</ele><time>2026-04-15T08:10:58.999Z</time></trkpt><trkpt lat="36.98774150554268" lon="15.180495798352219"><ele>65.66666666666667</ele><time>2026-04-15T08:10:59.999Z</time></trkpt><trkpt lat="36.9879179251282" lon="15.18035390198616"><ele>66.33333333333333</ele><time>2026-04-15T08:11:00.999Z</time></trkpt><trkpt lat="36.988101220915794" lon="15.180200781107741"><ele>67.0</ele><time>2026-04-15T08:11:01.999Z</time></trkpt><trkpt lat="36.988285050152484" lon="15.180047405830086"><ele>66.5</ele><time>2026-04-15T08:11:02.999Z</time></trkpt><trkpt lat="36.9884885111699" lon="15.17988414998584"><ele>66.0</ele><time>2026-04-15T08:11:03.999Z</time></trkpt><trkpt lat="36.98870194153005" lon="15.179711645924792"><ele>67.0</ele><time>2026-04-15T08:11:04.999Z</time></trkpt><trkpt lat="36.988922159209736" lon="15.179536602391254"><ele>68.0</ele><time>2026-04-15T08:11:05.999Z</time></trkpt><trkpt lat="36.989148359947116" lon="15.179353588165243"><ele>68.0</ele><time>2026-04-15T08:11:06.999Z</time></trkpt><trkpt lat="36.98937201113307" lon="15.17917214617749"><ele>68.0</ele><time>2026-04-15T08:11:07.998Z</time></trkpt><trkpt lat="36.989598241392066" lon="15.178987435050313"><ele>68.0</ele><time>2026-04-15T08:11:08.998Z</time></trkpt><trkpt lat="36.989822559988454" lon="15.178803567285444"><ele>68.0</ele><time>2026-04-15T08:11:09.998Z</time></trkpt><trkpt lat="36.9900546140982" lon="15.178610589973482"><ele>68.5</ele><time>2026-04-15T08:11:10.998Z</time></trkpt><trkpt lat="36.99028865035468" lon="15.178421129576952"><ele>69.0</ele><time>2026-04-15T08:11:11.998Z</time></trkpt><trkpt lat="36.99051327911374" lon="15.178243157598905"><ele>69.5</ele><time>2026-04-15T08:11:12.998Z</time></trkpt><trkpt lat="36.99073279826264" lon="15.17806818284335"><ele>70.0</ele><time>2026-04-15T08:11:13.998Z</time></trkpt><trkpt lat="36.990958003055425" lon="15.177888332672065"><ele>70.5</ele><time>2026-04-15T08:11:14.998Z</time></trkpt><trkpt lat="36.991177602077165" lon="15.177707433442457"><ele>71.0</ele><time>2026-04-15T08:11:15.998Z</time></trkpt><trkpt lat="36.99139078187438" lon="15.177520227404125"><ele>72.0</ele><time>2026-04-15T08:11:16.998Z</time></trkpt><trkpt lat="36.991591776111584" lon="15.177320895982124"><ele>73.0</ele><time>2026-04-15T08:11:17.998Z</time></trkpt><trkpt lat="36.9917659279782" lon="15.177080042292829"><ele>73.0</ele><time>2026-04-15T08:11:18.998Z</time></trkpt><trkpt lat="36.991941028935" lon="15.176857111430952"><ele>73.0</ele><time>2026-04-15T08:11:19.998Z</time></trkpt><trkpt lat="36.992120667049356" lon="15.176647078476302"><ele>74.0</ele><time>2026-04-15T08:11:20.998Z</time></trkpt><trkpt lat="36.99228917846006" lon="15.176474457934843"><ele>75.0</ele><time>2026-04-15T08:11:21.998Z</time></trkpt><trkpt lat="36.992455666808524" lon="15.176322035452866"><ele>76.0</ele><time>2026-04-15T08:11:23Z</time></trkpt><trkpt lat="36.99259451860323" lon="15.176197009272158"><ele>76.0</ele><time>2026-04-15T08:11:24Z</time></trkpt><trkpt lat="36.99269831014222" lon="15.176094107869202"><ele>76.0</ele><time>2026-04-15T08:11:25Z</time></trkpt><trkpt lat="36.99279123030673" lon="15.176024194694682"><ele>76.0</ele><time>2026-04-15T08:11:26Z</time></trkpt><trkpt lat="36.99290559334522" lon="15.176015866288855"><ele>76.0</ele><time>2026-04-15T08:11:27Z</time></trkpt><trkpt lat="36.99303305568781" lon="15.176067136407761"><ele>76.0</ele><time>2026-04-15T08:11:28Z</time></trkpt><trkpt lat="36.99316988837981" lon="15.176133332315624"><ele>76.0</ele><time>2026-04-15T08:11:29Z</time></trkpt><trkpt lat="36.993306589804355" lon="15.176167322207707"><ele>76.0</ele><time>2026-04-15T08:11:30Z</time></trkpt><trkpt lat="36.993464741152955" lon="15.176146434100149"><ele>76.0</ele><time>2026-04-15T08:11:31Z</time></trkpt><trkpt lat="36.9936378213907" lon="15.17610270260426"><ele>76.66666666666666</ele><time>2026-04-15T08:11:32Z</time></trkpt><trkpt lat="36.99382276179841" lon="15.17606385901569"><ele>77.33333333333333</ele><time>2026-04-15T08:11:33Z</time></trkpt><trkpt lat="36.99400073552509" lon="15.176029009788397"><ele>78.0</ele><time>2026-04-15T08:11:34Z</time></trkpt><trkpt lat="36.99416708384701" lon="15.175980702390877"><ele>78.33333333333333</ele><time>2026-04-15T08:11:35Z</time></trkpt><trkpt lat="36.994314798837294" lon="15.17589985389373"><ele>78.66666666666666</ele><time>2026-04-15T08:11:36Z</time></trkpt><trkpt lat="36.99443781551249" lon="15.17577347519998"><ele>79.0</ele><time>2026-04-15T08:11:37Z</time></trkpt><trkpt lat="36.99452935378263" lon="15.175588493687044"><ele>79.66666666666666</ele><time>2026-04-15T08:11:38Z</time></trkpt><trkpt lat="36.99461701106145" lon="15.175367976653074"><ele>80.33333333333333</ele><time>2026-04-15T08:11:39Z</time></trkpt><trkpt lat="36.99471753332536" lon="15.175127536529782"><ele>81.0</ele><time>2026-04-15T08:11:40Z</time></trkpt><trkpt lat="36.99482827493061" lon="15.17488212175324"><ele>82.0</ele><time>2026-04-15T08:11:41Z</time></trkpt><trkpt lat="36.9949410677351" lon="15.174625932900593"><ele>83.0</ele><time>2026-04-15T08:11:42Z</time></trkpt><trkpt lat="36.995052396752186" lon="15.174365839921144"><ele>83.0</ele><time>2026-04-15T08:11:43Z</time></trkpt><trkpt lat="36.99516746975375" lon="15.174100877996096"><ele>83.0</ele><time>2026-04-15T08:11:44Z</time></trkpt><trkpt lat="36.99528518053429" lon="15.173841310773293"><ele>85.0</ele><time>2026-04-15T08:11:45Z</time></trkpt><trkpt lat="36.99540065592894" lon="15.173579663910223"><ele>87.0</ele><time>2026-04-15T08:11:46Z</time></trkpt><trkpt lat="36.995510510159264" lon="15.173328675464607"><ele>89.33333333333333</ele><time>2026-04-15T08:11:47Z</time></trkpt><trkpt lat="36.995622170611966" lon="15.17308445673301"><ele>91.66666666666666</ele><time>2026-04-15T08:11:48Z</time></trkpt><trkpt lat="36.995745672610425" lon="15.172850935852718"><ele>94.0</ele><time>2026-04-15T08:11:49Z</time></trkpt><trkpt lat="36.995895937342084" lon="15.172628931302457"><ele>94.0</ele><time>2026-04-15T08:11:50Z</time></trkpt><trkpt lat="36.99605376113873" lon="15.172430291285217"><ele>94.0</ele><time>2026-04-15T08:11:51Z</time></trkpt><trkpt lat="36.9962150519946" lon="15.172254960595877"><ele>94.0</ele><time>2026-04-15T08:11:52Z</time></trkpt><trkpt lat="36.99638471057893" lon="15.172103768691711"><ele>97.66666666666666</ele><time>2026-04-15T08:11:53Z</time></trkpt><trkpt lat="36.99657827126229" lon="15.171986666536029"><ele>101.33333333333333</ele><time>2026-04-15T08:11:54Z</time></trkpt><trkpt lat="36.99676083888978" lon="15.17188208209037"><ele>105.0</ele><time>2026-04-15T08:11:55Z</time></trkpt><trkpt lat="36.99692486148144" lon="15.171781582888162"><ele>105.5</ele><time>2026-04-15T08:11:56Z</time></trkpt><trkpt lat="36.997068525509036" lon="15.171705641513721"><ele>106.0</ele><time>2026-04-15T08:11:57Z</time></trkpt><trkpt lat="36.99720378798154" lon="15.171679782426816"><ele>106.5</ele><time>2026-04-15T08:11:58Z</time></trkpt><trkpt lat="36.997330026601894" lon="15.171728990438991"><ele>107.0</ele><time>2026-04-15T08:11:59Z</time></trkpt><trkpt lat="36.99744655033056" lon="15.17180048580294"><ele>109.0</ele><time>2026-04-15T08:12:00Z</time></trkpt><trkpt lat="36.99755630774842" lon="15.171878065878065"><ele>110.99999999999999</ele><time>2026-04-15T08:12:01Z</time></trkpt><trkpt lat="36.997634977130176" lon="15.171988000396595"><ele>112.99999999999999</ele><time>2026-04-15T08:12:02Z</time></trkpt><trkpt lat="36.997691162549884" lon="15.172087472127163"><ele>115.0</ele><time>2026-04-15T08:12:03Z</time></trkpt><trkpt lat="36.99776471664787" lon="15.172105179366676"><ele>117.0</ele><time>2026-04-15T08:12:04Z</time></trkpt><trkpt lat="36.99783772924833" lon="15.172040946014256"><ele>117.0</ele><time>2026-04-15T08:12:05Z</time></trkpt><trkpt lat="36.997879110262986" lon="15.171952110889839"><ele>116.99999999999999</ele><time>2026-04-15T08:12:05.999Z</time></trkpt><trkpt lat="36.997890608462974" lon="15.171844938010414"><ele>116.99999999999999</ele><time>2026-04-15T08:12:06.999Z</time></trkpt><trkpt lat="36.9978599061863" lon="15.171718026964262"><ele>117.0</ele><time>2026-04-15T08:12:07.999Z</time></trkpt><trkpt lat="36.997776722501335" lon="15.171625523948963"><ele>117.0</ele><time>2026-04-15T08:12:08.999Z</time></trkpt><trkpt lat="36.997671602615924" lon="15.171591879111205"><ele>117.0</ele><time>2026-04-15T08:12:09.999Z</time></trkpt><trkpt lat="36.997567290724575" lon="15.171611657521531"><ele>116.99999999999999</ele><time>2026-04-15T08:12:10.999Z</time></trkpt><trkpt lat="36.997498252838064" lon="15.171644172370092"><ele>116.99999999999999</ele><time>2026-04-15T08:12:11.999Z</time></trkpt><trkpt lat="36.997475434059794" lon="15.171553661449309"><ele>117.0</ele><time>2026-04-15T08:12:13.999Z</time></trkpt><trkpt lat="36.99759140751039" lon="15.171486045837396"><ele>117.0</ele><time>2026-04-15T08:12:15.999Z</time></trkpt><trkpt lat="36.99764724492944" lon="15.171439335583287"><ele>117.8</ele><time>2026-04-15T08:12:16.999Z</time></trkpt><trkpt lat="36.99767840355349" lon="15.171349786569598"><ele>118.6</ele><time>2026-04-15T08:12:17.999Z</time></trkpt><trkpt lat="36.99769993754572" lon="15.171221409721738"><ele>119.39999999999999</ele><time>2026-04-15T08:12:18.999Z</time></trkpt><trkpt lat="36.99769910107431" lon="15.171085572076022"><ele>120.19999999999999</ele><time>2026-04-15T08:12:19.999Z</time></trkpt><trkpt lat="36.99771953064769" lon="15.170945498181666"><ele>121.0</ele><time>2026-04-15T08:12:20.999Z</time></trkpt><trkpt lat="36.997768308919355" lon="15.170783783242785"><ele>122.0</ele><time>2026-04-15T08:12:21.999Z</time></trkpt><trkpt lat="36.99782390057831" lon="15.17063743004349"><ele>123.0</ele><time>2026-04-15T08:12:22.999Z</time></trkpt><trkpt lat="36.99783591376436" lon="15.170476838528867"><ele>124.0</ele><time>2026-04-15T08:12:23.999Z</time></trkpt><trkpt lat="36.997829678836354" lon="15.170279398776144"><ele>125.0</ele><time>2026-04-15T08:12:24.999Z</time></trkpt><trkpt lat="36.99784848993273" lon="15.170081314459088"><ele>125.0</ele><time>2026-04-15T08:12:25.999Z</time></trkpt><trkpt lat="36.99791108780333" lon="15.169886885446079"><ele>125.0</ele><time>2026-04-15T08:12:26.999Z</time></trkpt><trkpt lat="36.997965641732996" lon="15.169719292448049"><ele>125.0</ele><time>2026-04-15T08:12:27.999Z</time></trkpt><trkpt lat="36.998043074149855" lon="15.169560225426174"><ele>126.0</ele><time>2026-04-15T08:12:28.999Z</time></trkpt><trkpt lat="36.99816120720662" lon="15.169418829613768"><ele>127.0</ele><time>2026-04-15T08:12:29.999Z</time></trkpt><trkpt lat="36.99828165786508" lon="15.169246257519882"><ele>128.0</ele><time>2026-04-15T08:12:30.999Z</time></trkpt><trkpt lat="36.9984197423209" lon="15.169056085582"><ele>129.33333333333331</ele><time>2026-04-15T08:12:31.999Z</time></trkpt><trkpt lat="36.99857037690243" lon="15.168855381440201"><ele>130.66666666666666</ele><time>2026-04-15T08:12:32.999Z</time></trkpt><trkpt lat="36.99872119878968" lon="15.168654040636095"><ele>132.0</ele><time>2026-04-15T08:12:33.999Z</time></trkpt><trkpt lat="36.99887958330739" lon="15.16843552376078"><ele>132.0</ele><time>2026-04-15T08:12:34.999Z</time></trkpt><trkpt lat="36.99904310652786" lon="15.168202863597305"><ele>132.0</ele><time>2026-04-15T08:12:35.999Z</time></trkpt><trkpt lat="36.999216961261524" lon="15.167966840219972"><ele>133.0</ele><time>2026-04-15T08:12:36.999Z</time></trkpt><trkpt lat="36.999390839754014" lon="15.167722907941037"><ele>134.0</ele><time>2026-04-15T08:12:37.999Z</time></trkpt><trkpt lat="36.999579681332804" lon="15.167462771447731"><ele>135.5</ele><time>2026-04-15T08:12:38.999Z</time></trkpt><trkpt lat="36.999757357503874" lon="15.167210619878094"><ele>137.0</ele><time>2026-04-15T08:12:39.999Z</time></trkpt><trkpt lat="36.99993341036029" lon="15.166958791990387"><ele>137.0</ele><time>2026-04-15T08:12:40.999Z</time></trkpt><trkpt lat="37.00011611261569" lon="15.166701245039897"><ele>137.0</ele><time>2026-04-15T08:12:41.999Z</time></trkpt><trkpt lat="37.0002980921052" lon="15.16645003784287"><ele>137.5</ele><time>2026-04-15T08:12:42.999Z</time></trkpt><trkpt lat="37.000479753443436" lon="15.166206841007382"><ele>138.0</ele><time>2026-04-15T08:12:43.999Z</time></trkpt><trkpt lat="37.00063328005093" lon="15.165976026709604"><ele>138.0</ele><time>2026-04-15T08:12:44.999Z</time></trkpt><trkpt lat="37.00076187595295" lon="15.165758940594248"><ele>138.0</ele><time>2026-04-15T08:12:45.999Z</time></trkpt><trkpt lat="37.000874380815944" lon="15.165555648200922"><ele>138.0</ele><time>2026-04-15T08:12:46.999Z</time></trkpt><trkpt lat="37.001005550316265" lon="15.165384750419687"><ele>139.66666666666666</ele><time>2026-04-15T08:12:47.999Z</time></trkpt><trkpt lat="37.001157399852666" lon="15.16522107463621"><ele>141.33333333333331</ele><time>2026-04-15T08:12:48.999Z</time></trkpt><trkpt lat="37.00132838623365" lon="15.165043821397733"><ele>143.0</ele><time>2026-04-15T08:12:49.999Z</time></trkpt><trkpt lat="37.001498806462095" lon="15.164846979036964"><ele>143.0</ele><time>2026-04-15T08:12:50.999Z</time></trkpt><trkpt lat="37.00167719894126" lon="15.16464412739277"><ele>143.0</ele><time>2026-04-15T08:12:51.999Z</time></trkpt><trkpt lat="37.001868445454456" lon="15.164431222250816"><ele>143.0</ele><time>2026-04-15T08:12:52.999Z</time></trkpt><trkpt lat="37.002055444454626" lon="15.164219820538374"><ele>143.0</ele><time>2026-04-15T08:12:53.999Z</time></trkpt><trkpt lat="37.00224877511798" lon="15.164002807837116"><ele>143.0</ele><time>2026-04-15T08:12:54.999Z</time></trkpt><trkpt lat="37.002446205567345" lon="15.163789129362474"><ele>143.0</ele><time>2026-04-15T08:12:55.999Z</time></trkpt><trkpt lat="37.00263882447684" lon="15.16357243930701"><ele>144.0</ele><time>2026-04-15T08:12:56.999Z</time></trkpt><trkpt lat="37.002829957184396" lon="15.163359107457703"><ele>145.0</ele><time>2026-04-15T08:12:57.999Z</time></trkpt><trkpt lat="37.0030154546344" lon="15.163144652885334"><ele>145.5</ele><time>2026-04-15T08:12:58.999Z</time></trkpt><trkpt lat="37.003209113756505" lon="15.162918429394109"><ele>146.0</ele><time>2026-04-15T08:12:59.999Z</time></trkpt><trkpt lat="37.00341300506128" lon="15.162692519528436"><ele>146.0</ele><time>2026-04-15T08:13:00.999Z</time></trkpt><trkpt lat="37.00362481166127" lon="15.162464389142563"><ele>146.0</ele><time>2026-04-15T08:13:01.999Z</time></trkpt><trkpt lat="37.00382869435418" lon="15.16223140483795"><ele>146.0</ele><time>2026-04-15T08:13:02.999Z</time></trkpt><trkpt lat="37.00403319924401" lon="15.16200699464476"><ele>146.0</ele><time>2026-04-15T08:13:03.999Z</time></trkpt><trkpt lat="37.00424038649027" lon="15.161781423360837"><ele>146.0</ele><time>2026-04-15T08:13:04.999Z</time></trkpt><trkpt lat="37.00444968921398" lon="15.16155307075665"><ele>146.0</ele><time>2026-04-15T08:13:05.999Z</time></trkpt><trkpt lat="37.0046609948977" lon="15.161320463727886"><ele>146.0</ele><time>2026-04-15T08:13:06.999Z</time></trkpt><trkpt lat="37.0048752689326" lon="15.16108168746916"><ele>146.0</ele><time>2026-04-15T08:13:07.999Z</time></trkpt><trkpt lat="37.0050857060195" lon="15.160846543690901"><ele>146.5</ele><time>2026-04-15T08:13:08.999Z</time></trkpt><trkpt lat="37.005286483980385" lon="15.16062149532055"><ele>147.0</ele><time>2026-04-15T08:13:09.999Z</time></trkpt><trkpt lat="37.005486953940064" lon="15.160398986861882"><ele>147.0</ele><time>2026-04-15T08:13:10.999Z</time></trkpt><trkpt lat="37.00568423144826" lon="15.160177637576965"><ele>147.0</ele><time>2026-04-15T08:13:11.999Z</time></trkpt><trkpt lat="37.00588549115388" lon="15.159958086259385"><ele>149.0</ele><time>2026-04-15T08:13:12.999Z</time></trkpt><trkpt lat="37.00607583492136" lon="15.159738171587982"><ele>151.0</ele><time>2026-04-15T08:13:13.999Z</time></trkpt><trkpt lat="37.006280696175054" lon="15.159513071818175"><ele>151.0</ele><time>2026-04-15T08:13:14.999Z</time></trkpt><trkpt lat="37.00647318184226" lon="15.159294035389268"><ele>151.0</ele><time>2026-04-15T08:13:15.999Z</time></trkpt><trkpt lat="37.00667792200991" lon="15.159071972479442"><ele>152.5</ele><time>2026-04-15T08:13:16.998Z</time></trkpt><trkpt lat="37.006879886261494" lon="15.158851260102681"><ele>154.0</ele><time>2026-04-15T08:13:17.998Z</time></trkpt><trkpt lat="37.00708088829868" lon="15.158630902832892"><ele>154.0</ele><time>2026-04-15T08:13:18.998Z</time></trkpt><trkpt lat="37.00728216840591" lon="15.158406299690776"><ele>154.0</ele><time>2026-04-15T08:13:19.998Z</time></trkpt><trkpt lat="37.007485161700856" lon="15.15818131102163"><ele>155.5</ele><time>2026-04-15T08:13:20.998Z</time></trkpt><trkpt lat="37.007684574582896" lon="15.157957533222785"><ele>157.0</ele><time>2026-04-15T08:13:21.998Z</time></trkpt><trkpt lat="37.00788107113771" lon="15.15773644227967"><ele>157.0</ele><time>2026-04-15T08:13:22.998Z</time></trkpt><trkpt lat="37.008079378183126" lon="15.157518757260544"><ele>157.0</ele><time>2026-04-15T08:13:23.998Z</time></trkpt><trkpt lat="37.008274512750674" lon="15.157301462760573"><ele>160.5</ele><time>2026-04-15T08:13:24.998Z</time></trkpt><trkpt lat="37.00846962126961" lon="15.157082873079517"><ele>164.0</ele><time>2026-04-15T08:13:25.998Z</time></trkpt><trkpt lat="37.00866093407683" lon="15.156866539738992"><ele>164.0</ele><time>2026-04-15T08:13:26.998Z</time></trkpt><trkpt lat="37.008850557962155" lon="15.156652758236941"><ele>164.0</ele><time>2026-04-15T08:13:27.998Z</time></trkpt><trkpt lat="37.00904103931429" lon="15.156439217863243"><ele>166.5</ele><time>2026-04-15T08:13:29Z</time></trkpt><trkpt lat="37.00923348710979" lon="15.156223818473"><ele>169.0</ele><time>2026-04-15T08:13:30Z</time></trkpt><trkpt lat="37.00942988343595" lon="15.15600375592504"><ele>169.0</ele><time>2026-04-15T08:13:31Z</time></trkpt><trkpt lat="37.00962728419412" lon="15.15578388007829"><ele>169.0</ele><time>2026-04-15T08:13:32Z</time></trkpt><trkpt lat="37.0098240411678" lon="15.155563992541735"><ele>170.0</ele><time>2026-04-15T08:13:33Z</time></trkpt><trkpt lat="37.01002517541166" lon="15.15534408722204"><ele>171.0</ele><time>2026-04-15T08:13:34Z</time></trkpt><trkpt lat="37.01022322882715" lon="15.155123720439935"><ele>171.0</ele><time>2026-04-15T08:13:35Z</time></trkpt><trkpt lat="37.010420389711086" lon="15.154904038298685"><ele>171.0</ele><time>2026-04-15T08:13:36Z</time></trkpt><trkpt lat="37.010615127696724" lon="15.15468569851872"><ele>172.5</ele><time>2026-04-15T08:13:37Z</time></trkpt><trkpt lat="37.010811075306" lon="15.154470944133156"><ele>174.0</ele><time>2026-04-15T08:13:38Z</time></trkpt><trkpt lat="37.01100549765299" lon="15.154258076289972"><ele>174.0</ele><time>2026-04-15T08:13:39Z</time></trkpt><trkpt lat="37.01118067808486" lon="15.154064236519067"><ele>174.0</ele><time>2026-04-15T08:13:40Z</time></trkpt><trkpt lat="37.011346904390905" lon="15.153886983527483"><ele>174.66666666666666</ele><time>2026-04-15T08:13:41Z</time></trkpt><trkpt lat="37.01149751520321" lon="15.153721467595107"><ele>175.33333333333331</ele><time>2026-04-15T08:13:42Z</time></trkpt><trkpt lat="37.01163017460752" lon="15.15356735898888"><ele>176.0</ele><time>2026-04-15T08:13:43Z</time></trkpt><trkpt lat="37.011731484336025" lon="15.153400191793368"><ele>177.33333333333331</ele><time>2026-04-15T08:13:44Z</time></trkpt><trkpt lat="37.01179512586771" lon="15.153210044608457"><ele>178.66666666666666</ele><time>2026-04-15T08:13:45Z</time></trkpt><trkpt lat="37.01180916270544" lon="15.153008319616438"><ele>180.0</ele><time>2026-04-15T08:13:46Z</time></trkpt><trkpt lat="37.01181196088987" lon="15.152797858295033"><ele>181.66666666666666</ele><time>2026-04-15T08:13:47Z</time></trkpt><trkpt lat="37.01178268116091" lon="15.152599529213234"><ele>183.33333333333331</ele><time>2026-04-15T08:13:48Z</time></trkpt><trkpt lat="37.011718502487746" lon="15.152417792490953"><ele>185.0</ele><time>2026-04-15T08:13:49Z</time></trkpt><trkpt lat="37.011605266966725" lon="15.152251067490184"><ele>185.33333333333331</ele><time>2026-04-15T08:13:50Z</time></trkpt><trkpt lat="37.01148093087128" lon="15.15208574553122"><ele>185.66666666666666</ele><time>2026-04-15T08:13:51Z</time></trkpt><trkpt lat="37.011361634073396" lon="15.151891925597022"><ele>186.0</ele><time>2026-04-15T08:13:52Z</time></trkpt><trkpt lat="37.01127070357969" lon="15.15167800082715"><ele>189.0</ele><time>2026-04-15T08:13:53Z</time></trkpt><trkpt lat="37.011216201585796" lon="15.151464270145048"><ele>192.0</ele><time>2026-04-15T08:13:54Z</time></trkpt><trkpt lat="37.01113507047064" lon="15.151278926890013"><ele>195.0</ele><time>2026-04-15T08:13:55Z</time></trkpt><trkpt lat="37.01101203513815" lon="15.151122293148296"><ele>195.0</ele><time>2026-04-15T08:13:56Z</time></trkpt><trkpt lat="37.010883942780495" lon="15.150991248528118"><ele>195.0</ele><time>2026-04-15T08:13:57Z</time></trkpt><trkpt lat="37.01080744964198" lon="15.150834903441806"><ele>195.0</ele><time>2026-04-15T08:13:58Z</time></trkpt><trkpt lat="37.01074922580467" lon="15.150647362379217"><ele>196.66666666666669</ele><time>2026-04-15T08:13:59Z</time></trkpt><trkpt lat="37.01065322307705" lon="15.15048727589576"><ele>198.33333333333334</ele><time>2026-04-15T08:14:00Z</time></trkpt><trkpt lat="37.01051964823332" lon="15.150375548685547"><ele>200.0</ele><time>2026-04-15T08:14:01Z</time></trkpt><trkpt lat="37.010383631602885" lon="15.150313369489448"><ele>200.0</ele><time>2026-04-15T08:14:02Z</time></trkpt><trkpt lat="37.01028736702906" lon="15.1502617364035"><ele>200.0</ele><time>2026-04-15T08:14:03Z</time></trkpt><trkpt lat="37.010230992665925" lon="15.150166960248265"><ele>200.0</ele><time>2026-04-15T08:14:04Z</time></trkpt><trkpt lat="37.0102091515186" lon="15.150047736910683"><ele>200.0</ele><time>2026-04-15T08:14:05Z</time></trkpt><trkpt lat="37.01022107046428" lon="15.149923774632924"><ele>200.0</ele><time>2026-04-15T08:14:06Z</time></trkpt><trkpt lat="37.010274275286434" lon="15.149782179128572"><ele>201.33333333333334</ele><time>2026-04-15T08:14:07Z</time></trkpt><trkpt lat="37.01033132674228" lon="15.149617893073934"><ele>202.66666666666669</ele><time>2026-04-15T08:14:08Z</time></trkpt><trkpt lat="37.01038481022177" lon="15.149429888511385"><ele>204.0</ele><time>2026-04-15T08:14:09Z</time></trkpt><trkpt lat="37.01044680768558" lon="15.149211797584215"><ele>206.0</ele><time>2026-04-15T08:14:10Z</time></trkpt><trkpt lat="37.01051180650191" lon="15.148994338046972"><ele>208.0</ele><time>2026-04-15T08:14:10.999Z</time></trkpt><trkpt lat="37.01057600953558" lon="15.14876530811927"><ele>210.0</ele><time>2026-04-15T08:14:11.999Z</time></trkpt><trkpt lat="37.010635706651854" lon="15.148521195329433"><ele>210.0</ele><time>2026-04-15T08:14:12.999Z</time></trkpt><trkpt lat="37.01067797641503" lon="15.148258528854223"><ele>210.0</ele><time>2026-04-15T08:14:13.999Z</time></trkpt><trkpt lat="37.01070232393574" lon="15.147980319377098"><ele>210.0</ele><time>2026-04-15T08:14:14.999Z</time></trkpt><trkpt lat="37.010717447944785" lon="15.147689003728102"><ele>211.0</ele><time>2026-04-15T08:14:15.999Z</time></trkpt><trkpt lat="37.01073853080323" lon="15.14741095993217"><ele>212.0</ele><time>2026-04-15T08:14:16.999Z</time></trkpt><trkpt lat="37.01076698106929" lon="15.147127646915557"><ele>212.66666666666669</ele><time>2026-04-15T08:14:17.999Z</time></trkpt><trkpt lat="37.010786542066086" lon="15.146847272255435"><ele>213.33333333333331</ele><time>2026-04-15T08:14:18.999Z</time></trkpt><trkpt lat="37.010789524021234" lon="15.146569080477745"><ele>214.0</ele><time>2026-04-15T08:14:19.999Z</time></trkpt><trkpt lat="37.010780192807225" lon="15.146292417071958"><ele>214.66666666666666</ele><time>2026-04-15T08:14:20.999Z</time></trkpt><trkpt lat="37.01077418915646" lon="15.146018867665747"><ele>215.33333333333331</ele><time>2026-04-15T08:14:21.999Z</time></trkpt><trkpt lat="37.01077265581433" lon="15.14575068366848"><ele>216.0</ele><time>2026-04-15T08:14:22.999Z</time></trkpt><trkpt lat="37.01076892240626" lon="15.145489472760156"><ele>216.0</ele><time>2026-04-15T08:14:23.999Z</time></trkpt><trkpt lat="37.01076231555191" lon="15.145229455324177"><ele>216.0</ele><time>2026-04-15T08:14:24.999Z</time></trkpt><trkpt lat="37.01075898872486" lon="15.144974217601066"><ele>216.0</ele><time>2026-04-15T08:14:25.999Z</time></trkpt><trkpt lat="37.01075981057923" lon="15.144740181008057"><ele>216.0</ele><time>2026-04-15T08:14:26.999Z</time></trkpt><trkpt lat="37.010757471304316" lon="15.14451312453047"><ele>216.0</ele><time>2026-04-15T08:14:27.999Z</time></trkpt><trkpt lat="37.01075208983551" lon="15.144278530828906"><ele>216.0</ele><time>2026-04-15T08:14:28.999Z</time></trkpt><trkpt lat="37.0107437479916" lon="15.144049094213436"><ele>216.66666666666669</ele><time>2026-04-15T08:14:29.999Z</time></trkpt><trkpt lat="37.01074484025289" lon="15.143820973952923"><ele>217.33333333333334</ele><time>2026-04-15T08:14:30.999Z</time></trkpt><trkpt lat="37.010739482082876" lon="15.143593227443185"><ele>218.0</ele><time>2026-04-15T08:14:31.999Z</time></trkpt><trkpt lat="37.01073642836008" lon="15.143373434119017"><ele>217.33333333333334</ele><time>2026-04-15T08:14:32.999Z</time></trkpt><trkpt lat="37.0107431389243" lon="15.143166484789301"><ele>216.66666666666669</ele><time>2026-04-15T08:14:33.999Z</time></trkpt><trkpt lat="37.01074746162265" lon="15.142964919605998"><ele>216.0</ele><time>2026-04-15T08:14:34.999Z</time></trkpt><trkpt lat="37.01076178583396" lon="15.142771130528812"><ele>216.0</ele><time>2026-04-15T08:14:35.999Z</time></trkpt><trkpt lat="37.010789054515186" lon="15.142572915844974"><ele>216.0</ele><time>2026-04-15T08:14:36.999Z</time></trkpt><trkpt lat="37.010821634354066" lon="15.14236963151363"><ele>216.0</ele><time>2026-04-15T08:14:37.999Z</time></trkpt><trkpt lat="37.010857620076735" lon="15.142145785922903"><ele>214.66666666666669</ele><time>2026-04-15T08:14:38.999Z</time></trkpt><trkpt lat="37.010891476655864" lon="15.141891637025669"><ele>213.33333333333334</ele><time>2026-04-15T08:14:39.999Z</time></trkpt><trkpt lat="37.01092826154205" lon="15.141632370672745"><ele>212.0</ele><time>2026-04-15T08:14:40.999Z</time></trkpt><trkpt lat="37.010967602636214" lon="15.141360279512067"><ele>212.0</ele><time>2026-04-15T08:14:41.999Z</time></trkpt><trkpt lat="37.01100983398509" lon="15.141090112489222"><ele>212.0</ele><time>2026-04-15T08:14:42.999Z</time></trkpt><trkpt lat="37.01105338245673" lon="15.14082208926683"><ele>212.0</ele><time>2026-04-15T08:14:43.999Z</time></trkpt><trkpt lat="37.0110950141184" lon="15.140555952046062"><ele>212.0</ele><time>2026-04-15T08:14:44.999Z</time></trkpt><trkpt lat="37.01113251511095" lon="15.140293109951076"><ele>212.0</ele><time>2026-04-15T08:14:45.999Z</time></trkpt><trkpt lat="37.01116674966608" lon="15.140045103214664"><ele>212.0</ele><time>2026-04-15T08:14:46.999Z</time></trkpt><trkpt lat="37.01119741149305" lon="15.139820385797101"><ele>211.75</ele><time>2026-04-15T08:14:47.999Z</time></trkpt><trkpt lat="37.011229567424905" lon="15.13962369470468"><ele>211.5</ele><time>2026-04-15T08:14:48.999Z</time></trkpt><trkpt lat="37.011276858933286" lon="15.139457966645201"><ele>211.25</ele><time>2026-04-15T08:14:49.999Z</time></trkpt><trkpt lat="37.01136666110307" lon="15.139325412562002"><ele>211.0</ele><time>2026-04-15T08:14:50.999Z</time></trkpt><trkpt lat="37.01146862412755" lon="15.139204148291858"><ele>211.0</ele><time>2026-04-15T08:14:51.999Z</time></trkpt><trkpt lat="37.01158463901377" lon="15.139057887787983"><ele>211.0</ele><time>2026-04-15T08:14:52.999Z</time></trkpt><trkpt lat="37.01170706434044" lon="15.138908153420735"><ele>211.0</ele><time>2026-04-15T08:14:53.999Z</time></trkpt><trkpt lat="37.01184110917541" lon="15.138744426213151"><ele>211.0</ele><time>2026-04-15T08:14:54.999Z</time></trkpt><trkpt lat="37.01198660487426" lon="15.13855880830547"><ele>211.0</ele><time>2026-04-15T08:14:55.999Z</time></trkpt><trkpt lat="37.012139494814654" lon="15.138364932494255"><ele>211.0</ele><time>2026-04-15T08:14:56.999Z</time></trkpt><trkpt lat="37.012295250237955" lon="15.138168884651071"><ele>211.0</ele><time>2026-04-15T08:14:57.999Z</time></trkpt><trkpt lat="37.01245711229766" lon="15.137972510799008"><ele>211.0</ele><time>2026-04-15T08:14:58.999Z</time></trkpt><trkpt lat="37.01262238704034" lon="15.137760876119321"><ele>211.0</ele><time>2026-04-15T08:14:59.999Z</time></trkpt><trkpt lat="37.01279075584469" lon="15.137537369557325"><ele>211.0</ele><time>2026-04-15T08:15:00.999Z</time></trkpt><trkpt lat="37.0129647449585" lon="15.137307375368126"><ele>211.0</ele><time>2026-04-15T08:15:01.999Z</time></trkpt><trkpt lat="37.013146632922" lon="15.137074025569733"><ele>211.0</ele><time>2026-04-15T08:15:02.999Z</time></trkpt><trkpt lat="37.01332959410772" lon="15.136849497882874"><ele>210.5</ele><time>2026-04-15T08:15:03.999Z</time></trkpt><trkpt lat="37.01351552816027" lon="15.13662484331415"><ele>210.0</ele><time>2026-04-15T08:15:04.999Z</time></trkpt><trkpt lat="37.013700586794954" lon="15.136396011901049"><ele>210.0</ele><time>2026-04-15T08:15:05.999Z</time></trkpt><trkpt lat="37.01387300338873" lon="15.136185759711713"><ele>210.0</ele><time>2026-04-15T08:15:06.999Z</time></trkpt><trkpt lat="37.01402965883543" lon="15.135986907861751"><ele>210.0</ele><time>2026-04-15T08:15:07.999Z</time></trkpt><trkpt lat="37.01416639390216" lon="15.135813134747556"><ele>210.0</ele><time>2026-04-15T08:15:08.999Z</time></trkpt><trkpt lat="37.014272298345" lon="15.13566908040034"><ele>210.0</ele><time>2026-04-15T08:15:09.999Z</time></trkpt><trkpt lat="37.01435495424468" lon="15.135519175966323"><ele>210.33333333333331</ele><time>2026-04-15T08:15:10.999Z</time></trkpt><trkpt lat="37.01440308127489" lon="15.13532727877119"><ele>210.66666666666666</ele><time>2026-04-15T08:15:11.999Z</time></trkpt><trkpt lat="37.014425634152" lon="15.135072744961423"><ele>211.0</ele><time>2026-04-15T08:15:12.999Z</time></trkpt><trkpt lat="37.01447291525813" lon="15.13483813492887"><ele>211.0</ele><time>2026-04-15T08:15:13.999Z</time></trkpt><trkpt lat="37.01452938697422" lon="15.134583278992123"><ele>211.0</ele><time>2026-04-15T08:15:14.999Z</time></trkpt><trkpt lat="37.014589826703244" lon="15.134313514287385"><ele>211.0</ele><time>2026-04-15T08:15:15.999Z</time></trkpt><trkpt lat="37.01464890922428" lon="15.134036163450018"><ele>211.0</ele><time>2026-04-15T08:15:16.999Z</time></trkpt><trkpt lat="37.014708871542396" lon="15.133751348177169"><ele>211.0</ele><time>2026-04-15T08:15:17.999Z</time></trkpt><trkpt lat="37.014771727019884" lon="15.13345215728207"><ele>211.5</ele><time>2026-04-15T08:15:18.999Z</time></trkpt><trkpt lat="37.01483591730024" lon="15.1331436948532"><ele>212.0</ele><time>2026-04-15T08:15:19.999Z</time></trkpt><trkpt lat="37.01490422788153" lon="15.132830544428261"><ele>212.0</ele><time>2026-04-15T08:15:20.999Z</time></trkpt><trkpt lat="37.0149740141051" lon="15.13251290738085"><ele>212.0</ele><time>2026-04-15T08:15:21.999Z</time></trkpt><trkpt lat="37.015044816948325" lon="15.132192099405591"><ele>213.5</ele><time>2026-04-15T08:15:22.999Z</time></trkpt><trkpt lat="37.01511391725306" lon="15.13186736344601"><ele>215.0</ele><time>2026-04-15T08:15:23.999Z</time></trkpt><trkpt lat="37.01518032962873" lon="15.131537327942874"><ele>215.5</ele><time>2026-04-15T08:15:24.999Z</time></trkpt><trkpt lat="37.0152485142541" lon="15.131203887588848"><ele>216.0</ele><time>2026-04-15T08:15:25.999Z</time></trkpt><trkpt lat="37.01531936315334" lon="15.130872243277253"><ele>216.0</ele><time>2026-04-15T08:15:26.998Z</time></trkpt><trkpt lat="37.01538871682944" lon="15.13055843070116"><ele>216.0</ele><time>2026-04-15T08:15:27.998Z</time></trkpt><trkpt lat="37.01545583578854" lon="15.130262087995249"><ele>216.0</ele><time>2026-04-15T08:15:28.998Z</time></trkpt><trkpt lat="37.01550921932939" lon="15.129990091604922"><ele>216.0</ele><time>2026-04-15T08:15:29.998Z</time></trkpt><trkpt lat="37.01555603793772" lon="15.129755113562057"><ele>216.0</ele><time>2026-04-15T08:15:30.998Z</time></trkpt><trkpt lat="37.01559418024827" lon="15.12958063894673"><ele>216.25</ele><time>2026-04-15T08:15:31.998Z</time></trkpt><trkpt lat="37.01563726307485" lon="15.129435805371484"><ele>216.5</ele><time>2026-04-15T08:15:32.998Z</time></trkpt><trkpt lat="37.01570916850085" lon="15.129323511758002"><ele>216.75</ele><time>2026-04-15T08:15:33.998Z</time></trkpt><trkpt lat="37.01580023709332" lon="15.129218262413591"><ele>217.0</ele><time>2026-04-15T08:15:35Z</time></trkpt><trkpt lat="37.01590528760947" lon="15.129106736131295"><ele>216.66666666666666</ele><time>2026-04-15T08:15:36Z</time></trkpt><trkpt lat="37.01602441397145" lon="15.128981890247097"><ele>216.33333333333331</ele><time>2026-04-15T08:15:37Z</time></trkpt><trkpt lat="37.01614757591424" lon="15.128839635448893"><ele>216.0</ele><time>2026-04-15T08:15:38Z</time></trkpt><trkpt lat="37.01628345052588" lon="15.128690136768595"><ele>216.0</ele><time>2026-04-15T08:15:39Z</time></trkpt><trkpt lat="37.01642903749898" lon="15.12852764343734"><ele>216.0</ele><time>2026-04-15T08:15:40Z</time></trkpt><trkpt lat="37.016589908249166" lon="15.128351678285588"><ele>216.0</ele><time>2026-04-15T08:15:41Z</time></trkpt><trkpt lat="37.01674728054384" lon="15.12817815913858"><ele>215.33333333333331</ele><time>2026-04-15T08:15:42Z</time></trkpt><trkpt lat="37.01691060300503" lon="15.128004567221444"><ele>214.66666666666666</ele><time>2026-04-15T08:15:43Z</time></trkpt><trkpt lat="37.0170796937646" lon="15.12781680416609"><ele>214.0</ele><time>2026-04-15T08:15:44Z</time></trkpt><trkpt lat="37.01724984914766" lon="15.127630573371858"><ele>214.0</ele><time>2026-04-15T08:15:45Z</time></trkpt><trkpt lat="37.017430140767615" lon="15.127431355244502"><ele>214.0</ele><time>2026-04-15T08:15:46Z</time></trkpt><trkpt lat="37.01760782333514" lon="15.127240318736371"><ele>215.5</ele><time>2026-04-15T08:15:47Z</time></trkpt><trkpt lat="37.017791905096466" lon="15.12704130235742"><ele>217.0</ele><time>2026-04-15T08:15:48Z</time></trkpt><trkpt lat="37.01798283329609" lon="15.12684412040342"><ele>217.0</ele><time>2026-04-15T08:15:49Z</time></trkpt><trkpt lat="37.01817191045506" lon="15.126635748501894"><ele>217.0</ele><time>2026-04-15T08:15:50Z</time></trkpt><trkpt lat="37.0183639936792" lon="15.12642973482025"><ele>217.0</ele><time>2026-04-15T08:15:51Z</time></trkpt><trkpt lat="37.01855736720247" lon="15.126212514139072"><ele>217.0</ele><time>2026-04-15T08:15:52Z</time></trkpt><trkpt lat="37.018751645298146" lon="15.125996046656226"><ele>217.0</ele><time>2026-04-15T08:15:53Z</time></trkpt><trkpt lat="37.01894943875275" lon="15.125779868155124"><ele>217.0</ele><time>2026-04-15T08:15:54Z</time></trkpt><trkpt lat="37.01914536811438" lon="15.12556123549016"><ele>219.0</ele><time>2026-04-15T08:15:55Z</time></trkpt><trkpt lat="37.01934283291941" lon="15.12533711455987"><ele>221.0</ele><time>2026-04-15T08:15:56Z</time></trkpt><trkpt lat="37.019536480898815" lon="15.125123775778944"><ele>221.0</ele><time>2026-04-15T08:15:57Z</time></trkpt><trkpt lat="37.019726899102814" lon="15.124912174168465"><ele>221.0</ele><time>2026-04-15T08:15:58Z</time></trkpt><trkpt lat="37.019909932884104" lon="15.124713284969213"><ele>221.66666666666669</ele><time>2026-04-15T08:15:59Z</time></trkpt><trkpt lat="37.02008789278402" lon="15.124521222582098"><ele>222.33333333333331</ele><time>2026-04-15T08:16:00Z</time></trkpt><trkpt lat="37.02024923680372" lon="15.124346293715101"><ele>223.0</ele><time>2026-04-15T08:16:01Z</time></trkpt><trkpt lat="37.02039814534997" lon="15.12418332682847"><ele>223.66666666666666</ele><time>2026-04-15T08:16:02Z</time></trkpt><trkpt lat="37.02053947074076" lon="15.124031772599881"><ele>224.33333333333331</ele><time>2026-04-15T08:16:03Z</time></trkpt><trkpt lat="37.02066631333645" lon="15.123889874926707"><ele>225.0</ele><time>2026-04-15T08:16:04Z</time></trkpt><trkpt lat="37.0207824065279" lon="15.12375754668822"><ele>226.0</ele><time>2026-04-15T08:16:05Z</time></trkpt><trkpt lat="37.02088474302528" lon="15.123647230325597"><ele>227.0</ele><time>2026-04-15T08:16:06Z</time></trkpt><trkpt lat="37.02097424287794" lon="15.123555519097511"><ele>228.0</ele><time>2026-04-15T08:16:07Z</time></trkpt><trkpt lat="37.02105606263079" lon="15.123496204313096"><ele>229.0</ele><time>2026-04-15T08:16:08Z</time></trkpt><trkpt lat="37.02113563779833" lon="15.123478001095341"><ele>230.0</ele><time>2026-04-15T08:16:09Z</time></trkpt><trkpt lat="37.02121768552899" lon="15.12346188540912"><ele>230.0</ele><time>2026-04-15T08:16:11Z</time></trkpt><trkpt lat="37.02128230714343" lon="15.123354131638663"><ele>230.0</ele><time>2026-04-15T08:16:17.999Z</time></trkpt><trkpt lat="37.02130582136041" lon="15.123211855325579"><ele>230.0</ele><time>2026-04-15T08:16:18.999Z</time></trkpt><trkpt lat="37.021332594974616" lon="15.12305068777304"><ele>230.0</ele><time>2026-04-15T08:16:19.999Z</time></trkpt><trkpt lat="37.02134930684384" lon="15.122886050146883"><ele>230.33333333333334</ele><time>2026-04-15T08:16:20.999Z</time></trkpt><trkpt lat="37.02136814350395" lon="15.122677915965697"><ele>230.66666666666669</ele><time>2026-04-15T08:16:21.999Z</time></trkpt><trkpt lat="37.021388160108444" lon="15.122449764218318"><ele>231.0</ele><time>2026-04-15T08:16:22.999Z</time></trkpt><trkpt lat="37.02140622410627" lon="15.122218786557713"><ele>231.5</ele><time>2026-04-15T08:16:23.999Z</time></trkpt><trkpt lat="37.02142754074818" lon="15.121951306227869"><ele>232.0</ele><time>2026-04-15T08:16:24.999Z</time></trkpt><trkpt lat="37.02145096802906" lon="15.121657093501588"><ele>233.0</ele><time>2026-04-15T08:16:25.999Z</time></trkpt><trkpt lat="37.02147199123472" lon="15.121367571362816"><ele>234.0</ele><time>2026-04-15T08:16:26.999Z</time></trkpt><trkpt lat="37.021486907516206" lon="15.12105777852071"><ele>234.5</ele><time>2026-04-15T08:16:27.999Z</time></trkpt><trkpt lat="37.021489417320254" lon="15.120726255070236"><ele>235.0</ele><time>2026-04-15T08:16:28.999Z</time></trkpt><trkpt lat="37.021478734728504" lon="15.120376240640477"><ele>235.0</ele><time>2026-04-15T08:16:29.999Z</time></trkpt><trkpt lat="37.021449654592494" lon="15.120013730034515"><ele>235.0</ele><time>2026-04-15T08:16:30.999Z</time></trkpt><trkpt lat="37.02141130119054" lon="15.119652052653068"><ele>235.0</ele><time>2026-04-15T08:16:31.999Z</time></trkpt><trkpt lat="37.021366135772105" lon="15.119278106759054"><ele>235.0</ele><time>2026-04-15T08:16:32.999Z</time></trkpt><trkpt lat="37.02131531330914" lon="15.118904332786869"><ele>235.0</ele><time>2026-04-15T08:16:33.999Z</time></trkpt><trkpt lat="37.021263433095434" lon="15.118537882787322"><ele>235.0</ele><time>2026-04-15T08:16:34.999Z</time></trkpt><trkpt lat="37.021208017999726" lon="15.11817340798542"><ele>234.0</ele><time>2026-04-15T08:16:35.999Z</time></trkpt><trkpt lat="37.02115112934178" lon="15.117811249587241"><ele>233.0</ele><time>2026-04-15T08:16:36.999Z</time></trkpt><trkpt lat="37.021093678851365" lon="15.11745000419193"><ele>234.0</ele><time>2026-04-15T08:16:37.999Z</time></trkpt><trkpt lat="37.02103544055959" lon="15.117095183793833"><ele>235.0</ele><time>2026-04-15T08:16:38.999Z</time></trkpt><trkpt lat="37.020981477982446" lon="15.116743817634696"><ele>235.0</ele><time>2026-04-15T08:16:39.999Z</time></trkpt><trkpt lat="37.02092893377381" lon="15.116394548868055"><ele>235.0</ele><time>2026-04-15T08:16:40.999Z</time></trkpt><trkpt lat="37.02087555474419" lon="15.116048396141721"><ele>235.5</ele><time>2026-04-15T08:16:41.999Z</time></trkpt><trkpt lat="37.020819114475515" lon="15.115706192889805"><ele>236.0</ele><time>2026-04-15T08:16:42.999Z</time></trkpt><trkpt lat="37.02076138844687" lon="15.115365830748784"><ele>236.0</ele><time>2026-04-15T08:16:43.999Z</time></trkpt><trkpt lat="37.020706131971004" lon="15.115024765198847"><ele>236.0</ele><time>2026-04-15T08:16:44.999Z</time></trkpt><trkpt lat="37.020652071405145" lon="15.114684500210387"><ele>237.0</ele><time>2026-04-15T08:16:45.999Z</time></trkpt><trkpt lat="37.02059526743461" lon="15.114340243554972"><ele>238.0</ele><time>2026-04-15T08:16:46.999Z</time></trkpt><trkpt lat="37.020534677623054" lon="15.113980448672672"><ele>239.0</ele><time>2026-04-15T08:16:47.999Z</time></trkpt><trkpt lat="37.0204775479377" lon="15.113619642132097"><ele>240.0</ele><time>2026-04-15T08:16:48.999Z</time></trkpt><trkpt lat="37.02042297476704" lon="15.113250369799797"><ele>240.0</ele><time>2026-04-15T08:16:49.999Z</time></trkpt><trkpt lat="37.020365889023225" lon="15.112880803056607"><ele>240.0</ele><time>2026-04-15T08:16:50.999Z</time></trkpt><trkpt lat="37.02031069354298" lon="15.112526394457076"><ele>240.5</ele><time>2026-04-15T08:16:51.999Z</time></trkpt><trkpt lat="37.02025992678459" lon="15.11218333843824"><ele>241.0</ele><time>2026-04-15T08:16:52.999Z</time></trkpt><trkpt lat="37.020214655250946" lon="15.111862230643"><ele>242.5</ele><time>2026-04-15T08:16:53.999Z</time></trkpt><trkpt lat="37.02017294637206" lon="15.111558665514465"><ele>244.0</ele><time>2026-04-15T08:16:54.999Z</time></trkpt><trkpt lat="37.020135042454534" lon="15.111272926424668"><ele>244.0</ele><time>2026-04-15T08:16:55.999Z</time></trkpt><trkpt lat="37.02010145522207" lon="15.110998860012343"><ele>244.0</ele><time>2026-04-15T08:16:56.999Z</time></trkpt><trkpt lat="37.02007347148127" lon="15.110733119916752"><ele>244.0</ele><time>2026-04-15T08:16:57.999Z</time></trkpt><trkpt lat="37.020050457401325" lon="15.110471916299296"><ele>244.0</ele><time>2026-04-15T08:16:58.999Z</time></trkpt><trkpt lat="37.02003866092917" lon="15.110207694231304"><ele>244.0</ele><time>2026-04-15T08:16:59.999Z</time></trkpt><trkpt lat="37.020040928088775" lon="15.109953068758529"><ele>244.0</ele><time>2026-04-15T08:17:00.999Z</time></trkpt><trkpt lat="37.020061166817264" lon="15.109703928610374"><ele>244.0</ele><time>2026-04-15T08:17:01.999Z</time></trkpt><trkpt lat="37.02008469783186" lon="15.109459131681147"><ele>244.0</ele><time>2026-04-15T08:17:02.999Z</time></trkpt><trkpt lat="37.020116673365315" lon="15.109213018631387"><ele>244.0</ele><time>2026-04-15T08:17:03.999Z</time></trkpt><trkpt lat="37.020156860903455" lon="15.108969896167357"><ele>244.66666666666666</ele><time>2026-04-15T08:17:04.999Z</time></trkpt><trkpt lat="37.02020640742454" lon="15.108727016422222"><ele>245.33333333333331</ele><time>2026-04-15T08:17:05.999Z</time></trkpt><trkpt lat="37.020264054784214" lon="15.108481703948891"><ele>246.0</ele><time>2026-04-15T08:17:06.999Z</time></trkpt><trkpt lat="37.0203324418012" lon="15.108239068310306"><ele>247.33333333333331</ele><time>2026-04-15T08:17:07.999Z</time></trkpt><trkpt lat="37.02040875340026" lon="15.108004257985481"><ele>248.66666666666666</ele><time>2026-04-15T08:17:08.999Z</time></trkpt><trkpt lat="37.020493315706894" lon="15.107776933412444"><ele>250.0</ele><time>2026-04-15T08:17:09.999Z</time></trkpt><trkpt lat="37.020585866389794" lon="15.10755957719359"><ele>250.66666666666666</ele><time>2026-04-15T08:17:10.999Z</time></trkpt><trkpt lat="37.020684642214306" lon="15.107348632458663"><ele>251.33333333333331</ele><time>2026-04-15T08:17:11.999Z</time></trkpt><trkpt lat="37.020789111911995" lon="15.107143015229207"><ele>252.0</ele><time>2026-04-15T08:17:12.999Z</time></trkpt><trkpt lat="37.02090124617022" lon="15.106944692330536"><ele>252.0</ele><time>2026-04-15T08:17:13.999Z</time></trkpt><trkpt lat="37.02101826055119" lon="15.106752348942313"><ele>252.0</ele><time>2026-04-15T08:17:14.999Z</time></trkpt><trkpt lat="37.021139730970035" lon="15.106568359197928"><ele>252.0</ele><time>2026-04-15T08:17:15.999Z</time></trkpt><trkpt lat="37.02126564361002" lon="15.10638823251572"><ele>253.33333333333331</ele><time>2026-04-15T08:17:16.999Z</time></trkpt><trkpt lat="37.0213909584735" lon="15.10620977337628"><ele>254.66666666666666</ele><time>2026-04-15T08:17:17.999Z</time></trkpt><trkpt lat="37.02151776946661" lon="15.106034280808755"><ele>256.0</ele><time>2026-04-15T08:17:18.999Z</time></trkpt><trkpt lat="37.02164702876493" lon="15.105865124969503"><ele>256.66666666666663</ele><time>2026-04-15T08:17:19.999Z</time></trkpt><trkpt lat="37.02177558041756" lon="15.1056959316607"><ele>257.3333333333333</ele><time>2026-04-15T08:17:20.999Z</time></trkpt><trkpt lat="37.0218992019283" lon="15.105522735012633"><ele>258.0</ele><time>2026-04-15T08:17:21.999Z</time></trkpt><trkpt lat="37.02202136790989" lon="15.105345578889713"><ele>258.0</ele><time>2026-04-15T08:17:22.999Z</time></trkpt><trkpt lat="37.02214443114134" lon="15.105168938829014"><ele>258.0</ele><time>2026-04-15T08:17:23.999Z</time></trkpt><trkpt lat="37.0222685322908" lon="15.10499178047506"><ele>258.0</ele><time>2026-04-15T08:17:24.999Z</time></trkpt><trkpt lat="37.02239324808633" lon="15.104810757858171"><ele>258.6666666666667</ele><time>2026-04-15T08:17:25.999Z</time></trkpt><trkpt lat="37.02251818149006" lon="15.104625268854788"><ele>259.33333333333337</ele><time>2026-04-15T08:17:26.999Z</time></trkpt><trkpt lat="37.0226531335963" lon="15.104427038762783"><ele>260.0</ele><time>2026-04-15T08:17:27.999Z</time></trkpt><trkpt lat="37.02279893297757" lon="15.104211944942518"><ele>262.5</ele><time>2026-04-15T08:17:28.999Z</time></trkpt><trkpt lat="37.02295378667696" lon="15.103985888886864"><ele>265.0</ele><time>2026-04-15T08:17:29.999Z</time></trkpt><trkpt lat="37.023121509210085" lon="15.103742537426427"><ele>265.0</ele><time>2026-04-15T08:17:30.999Z</time></trkpt><trkpt lat="37.023295428345925" lon="15.103491197880212"><ele>265.0</ele><time>2026-04-15T08:17:31.999Z</time></trkpt><trkpt lat="37.02348198735063" lon="15.103232893689542"><ele>268.5</ele><time>2026-04-15T08:17:32.999Z</time></trkpt><trkpt lat="37.02368633766645" lon="15.102974727262268"><ele>272.0</ele><time>2026-04-15T08:17:33.999Z</time></trkpt><trkpt lat="37.02390158748964" lon="15.102710754618082"><ele>272.0</ele><time>2026-04-15T08:17:34.999Z</time></trkpt><trkpt lat="37.02411493999965" lon="15.102433229929531"><ele>272.0</ele><time>2026-04-15T08:17:35.999Z</time></trkpt><trkpt lat="37.024322859684084" lon="15.102139560634544"><ele>274.5</ele><time>2026-04-15T08:17:36.999Z</time></trkpt><trkpt lat="37.02452441828429" lon="15.101838804700847"><ele>277.0</ele><time>2026-04-15T08:17:37.998Z</time></trkpt><trkpt lat="37.02471978648981" lon="15.101529569370935"><ele>277.5</ele><time>2026-04-15T08:17:38.998Z</time></trkpt><trkpt lat="37.024899297597955" lon="15.101199579543296"><ele>278.0</ele><time>2026-04-15T08:17:39.998Z</time></trkpt><trkpt lat="37.025059986173176" lon="15.100858745159519"><ele>280.0</ele><time>2026-04-15T08:17:41Z</time></trkpt><trkpt lat="37.025203062355395" lon="15.10051335577557"><ele>282.0</ele><time>2026-04-15T08:17:42Z</time></trkpt><trkpt lat="37.025322723329914" lon="15.100163133414966"><ele>281.5</ele><time>2026-04-15T08:17:43Z</time></trkpt><trkpt lat="37.02542621339271" lon="15.099813199399927"><ele>281.0</ele><time>2026-04-15T08:17:44Z</time></trkpt><trkpt lat="37.025513275452475" lon="15.099461378368899"><ele>281.0</ele><time>2026-04-15T08:17:45Z</time></trkpt><trkpt lat="37.02557619429782" lon="15.099100301508116"><ele>281.0</ele><time>2026-04-15T08:17:46Z</time></trkpt><trkpt lat="37.02562879150985" lon="15.098743247670102"><ele>283.0</ele><time>2026-04-15T08:17:47Z</time></trkpt><trkpt lat="37.025667016065626" lon="15.098393869832048"><ele>285.0</ele><time>2026-04-15T08:17:48Z</time></trkpt><trkpt lat="37.02570412811604" lon="15.098054876711073"><ele>287.5</ele><time>2026-04-15T08:17:49Z</time></trkpt><trkpt lat="37.025742956233124" lon="15.097734669712725"><ele>290.0</ele><time>2026-04-15T08:17:50Z</time></trkpt><trkpt lat="37.025782038732174" lon="15.097432913114181"><ele>286.5</ele><time>2026-04-15T08:17:51Z</time></trkpt><trkpt lat="37.02581847783605" lon="15.097146697868379"><ele>283.0</ele><time>2026-04-15T08:17:52Z</time></trkpt><trkpt lat="37.02585021623107" lon="15.096873476060725"><ele>283.0</ele><time>2026-04-15T08:17:53Z</time></trkpt><trkpt lat="37.025876763807084" lon="15.09661020758743"><ele>283.0</ele><time>2026-04-15T08:17:54Z</time></trkpt><trkpt lat="37.02589664259702" lon="15.096342061929354"><ele>283.0</ele><time>2026-04-15T08:17:55Z</time></trkpt><trkpt lat="37.025917478935725" lon="15.09606701587508"><ele>283.0</ele><time>2026-04-15T08:17:56Z</time></trkpt><trkpt lat="37.02593736993285" lon="15.095780456285802"><ele>283.0</ele><time>2026-04-15T08:17:57Z</time></trkpt><trkpt lat="37.02595143609151" lon="15.095497978566703"><ele>283.5</ele><time>2026-04-15T08:17:58Z</time></trkpt><trkpt lat="37.025942283688636" lon="15.095211777592027"><ele>284.0</ele><time>2026-04-15T08:17:59Z</time></trkpt><trkpt lat="37.02590913472943" lon="15.094900546498845"><ele>284.6666666666667</ele><time>2026-04-15T08:18:00Z</time></trkpt><trkpt lat="37.025895159505644" lon="15.094759626693808"><ele>285.3333333333333</ele><time>2026-04-15T08:18:01Z</time></trkpt><trkpt lat="37.02584038688714" lon="15.094469190666688"><ele>286.0</ele><time>2026-04-15T08:18:02Z</time></trkpt><trkpt lat="37.02580013894093" lon="15.094158224897804"><ele>293.0</ele><time>2026-04-15T08:18:03Z</time></trkpt><trkpt lat="37.025777158817505" lon="15.093830566211508"><ele>300.0</ele><time>2026-04-15T08:18:04Z</time></trkpt><trkpt lat="37.02574948192435" lon="15.093498027089302"><ele>300.5</ele><time>2026-04-15T08:18:05Z</time></trkpt><trkpt lat="37.02571243025003" lon="15.09316101421371"><ele>301.0</ele><time>2026-04-15T08:18:06Z</time></trkpt><trkpt lat="37.025672499622786" lon="15.09282175127058"><ele>301.0</ele><time>2026-04-15T08:18:07Z</time></trkpt><trkpt lat="37.025642431209036" lon="15.092473269457427"><ele>301.0</ele><time>2026-04-15T08:18:08Z</time></trkpt><trkpt lat="37.025625049036755" lon="15.09211850064221"><ele>303.0</ele><time>2026-04-15T08:18:09Z</time></trkpt><trkpt lat="37.02563626374618" lon="15.091765825947146"><ele>305.0</ele><time>2026-04-15T08:18:10Z</time></trkpt><trkpt lat="37.025649610222544" lon="15.091415016185168"><ele>308.5</ele><time>2026-04-15T08:18:11Z</time></trkpt><trkpt lat="37.025667025390675" lon="15.091068474078584"><ele>312.0</ele><time>2026-04-15T08:18:12Z</time></trkpt><trkpt lat="37.025684430991205" lon="15.090735079424372"><ele>314.0</ele><time>2026-04-15T08:18:13Z</time></trkpt><trkpt lat="37.02569315190001" lon="15.090400751444843"><ele>316.0</ele><time>2026-04-15T08:18:14Z</time></trkpt><trkpt lat="37.02570821002819" lon="15.090070183275968"><ele>316.0</ele><time>2026-04-15T08:18:15Z</time></trkpt><trkpt lat="37.025721167830156" lon="15.089739934727074"><ele>316.0</ele><time>2026-04-15T08:18:16Z</time></trkpt><trkpt lat="37.025732890570765" lon="15.089410658713142"><ele>316.5</ele><time>2026-04-15T08:18:17Z</time></trkpt><trkpt lat="37.02574260008203" lon="15.08908258774909"><ele>317.0</ele><time>2026-04-15T08:18:18Z</time></trkpt><trkpt lat="37.025760115277826" lon="15.088753839409872"><ele>317.0</ele><time>2026-04-15T08:18:19Z</time></trkpt><trkpt lat="37.025782072968056" lon="15.08842045846589"><ele>317.0</ele><time>2026-04-15T08:18:20Z</time></trkpt><trkpt lat="37.025812531639794" lon="15.088085266087912"><ele>313.0</ele><time>2026-04-15T08:18:21Z</time></trkpt><trkpt lat="37.025852486135925" lon="15.087751237837319"><ele>309.0</ele><time>2026-04-15T08:18:22Z</time></trkpt><trkpt lat="37.025901341654354" lon="15.087414512643512"><ele>309.0</ele><time>2026-04-15T08:18:23Z</time></trkpt><trkpt lat="37.025954851669105" lon="15.087081521015"><ele>309.0</ele><time>2026-04-15T08:18:24Z</time></trkpt><trkpt lat="37.02598072546956" lon="15.086743112535498"><ele>309.0</ele><time>2026-04-15T08:18:25Z</time></trkpt><trkpt lat="37.02597171019635" lon="15.086404081135608"><ele>309.0</ele><time>2026-04-15T08:18:26Z</time></trkpt><trkpt lat="37.0259317650958" lon="15.086058546192968"><ele>310.5</ele><time>2026-04-15T08:18:27Z</time></trkpt><trkpt lat="37.025873314205725" lon="15.085706730084409"><ele>312.0</ele><time>2026-04-15T08:18:28Z</time></trkpt><trkpt lat="37.02582493189316" lon="15.085355885569996"><ele>320.5</ele><time>2026-04-15T08:18:29Z</time></trkpt><trkpt lat="37.02578399237331" lon="15.085003607294773"><ele>329.0</ele><time>2026-04-15T08:18:29.999Z</time></trkpt><trkpt lat="37.025750535603386" lon="15.08465031848157"><ele>329.0</ele><time>2026-04-15T08:18:30.999Z</time></trkpt><trkpt lat="37.025729635017804" lon="15.084292266489284"><ele>329.0</ele><time>2026-04-15T08:18:31.999Z</time></trkpt><trkpt lat="37.0257326397973" lon="15.083916154346731"><ele>329.0</ele><time>2026-04-15T08:18:32.999Z</time></trkpt><trkpt lat="37.02575260267891" lon="15.08352728753807"><ele>329.0</ele><time>2026-04-15T08:18:33.999Z</time></trkpt><trkpt lat="37.02577527357949" lon="15.083136278032642"><ele>328.0</ele><time>2026-04-15T08:18:34.999Z</time></trkpt><trkpt lat="37.025791314551164" lon="15.082751164693136"><ele>327.0</ele><time>2026-04-15T08:18:35.999Z</time></trkpt><trkpt lat="37.025800051642776" lon="15.082367843516208"><ele>327.0</ele><time>2026-04-15T08:18:36.999Z</time></trkpt><trkpt lat="37.025810861756554" lon="15.081993274067546"><ele>327.0</ele><time>2026-04-15T08:18:37.999Z</time></trkpt><trkpt lat="37.02582029378726" lon="15.081616180404678"><ele>322.0</ele><time>2026-04-15T08:18:38.999Z</time></trkpt><trkpt lat="37.02583430040606" lon="15.081242157486036"><ele>317.0</ele><time>2026-04-15T08:18:39.999Z</time></trkpt><trkpt lat="37.02584576243894" lon="15.080874393960102"><ele>318.0</ele><time>2026-04-15T08:18:40.999Z</time></trkpt><trkpt lat="37.025858121602866" lon="15.08050418074757"><ele>319.0</ele><time>2026-04-15T08:18:41.999Z</time></trkpt><trkpt lat="37.02587153755799" lon="15.08013716376431"><ele>321.0</ele><time>2026-04-15T08:18:42.999Z</time></trkpt><trkpt lat="37.02587905476464" lon="15.079771821112754"><ele>323.0</ele><time>2026-04-15T08:18:43.999Z</time></trkpt><trkpt lat="37.02589109028407" lon="15.079409142629082"><ele>325.5</ele><time>2026-04-15T08:18:44.999Z</time></trkpt><trkpt lat="37.02590199910582" lon="15.079048909459114"><ele>328.0</ele><time>2026-04-15T08:18:45.999Z</time></trkpt><trkpt lat="37.025914913751826" lon="15.078692378981165"><ele>328.0</ele><time>2026-04-15T08:18:46.999Z</time></trkpt><trkpt lat="37.0259280360556" lon="15.078339018550245"><ele>328.0</ele><time>2026-04-15T08:18:47.999Z</time></trkpt><trkpt lat="37.02594486409977" lon="15.077985382831567"><ele>329.5</ele><time>2026-04-15T08:18:48.999Z</time></trkpt><trkpt lat="37.02595620182858" lon="15.077635586823902"><ele>331.0</ele><time>2026-04-15T08:18:49.999Z</time></trkpt><trkpt lat="37.025966167289695" lon="15.077296248089812"><ele>333.5</ele><time>2026-04-15T08:18:50.999Z</time></trkpt><trkpt lat="37.025975273716085" lon="15.076980200162627"><ele>336.0</ele><time>2026-04-15T08:18:51.999Z</time></trkpt><trkpt lat="37.02598376178968" lon="15.076689841973632"><ele>337.6666666666667</ele><time>2026-04-15T08:18:52.999Z</time></trkpt><trkpt lat="37.025993115911504" lon="15.076420495535816"><ele>339.33333333333337</ele><time>2026-04-15T08:18:53.999Z</time></trkpt><trkpt lat="37.025998753978634" lon="15.076160661511302"><ele>341.0</ele><time>2026-04-15T08:18:54.999Z</time></trkpt><trkpt lat="37.02601086456724" lon="15.075915024370948"><ele>344.0</ele><time>2026-04-15T08:18:55.999Z</time></trkpt><trkpt lat="37.026029342310665" lon="15.075689558686658"><ele>347.0</ele><time>2026-04-15T08:18:56.999Z</time></trkpt><trkpt lat="37.02606274707667" lon="15.075501087713018"><ele>350.0</ele><time>2026-04-15T08:18:57.999Z</time></trkpt><trkpt lat="37.02610473937629" lon="15.075345189991273"><ele>350.0</ele><time>2026-04-15T08:18:58.999Z</time></trkpt><trkpt lat="37.026160378895284" lon="15.075234103994562"><ele>350.0</ele><time>2026-04-15T08:18:59.999Z</time></trkpt><trkpt lat="37.02622757506433" lon="15.075169289213267"><ele>350.0</ele><time>2026-04-15T08:19:00.999Z</time></trkpt><trkpt lat="37.02622589897555" lon="15.075013272153647"><ele>350.0</ele><time>2026-04-15T08:19:02.999Z</time></trkpt><trkpt lat="37.02617854060872" lon="15.074937182542408"><ele>350.0</ele><time>2026-04-15T08:19:03.999Z</time></trkpt><trkpt lat="37.026126133088994" lon="15.074851075133267"><ele>351.5</ele><time>2026-04-15T08:19:04.999Z</time></trkpt><trkpt lat="37.02610197539976" lon="15.074736321646139"><ele>353.0</ele><time>2026-04-15T08:19:05.999Z</time></trkpt><trkpt lat="37.02610504971063" lon="15.074594131123785"><ele>354.5</ele><time>2026-04-15T08:19:06.999Z</time></trkpt><trkpt lat="37.02611940977209" lon="15.074444599398442"><ele>356.0</ele><time>2026-04-15T08:19:07.999Z</time></trkpt><trkpt lat="37.02613535846359" lon="15.074282130546976"><ele>357.6666666666667</ele><time>2026-04-15T08:19:08.999Z</time></trkpt><trkpt lat="37.02615515618318" lon="15.074099691821297"><ele>359.3333333333333</ele><time>2026-04-15T08:19:09.999Z</time></trkpt><trkpt lat="37.026183751682076" lon="15.073897111396109"><ele>361.0</ele><time>2026-04-15T08:19:10.999Z</time></trkpt><trkpt lat="37.0262091103279" lon="15.07366653255572"><ele>361.0</ele><time>2026-04-15T08:19:11.999Z</time></trkpt><trkpt lat="37.026234423858526" lon="15.073417947072327"><ele>361.0</ele><time>2026-04-15T08:19:12.999Z</time></trkpt><trkpt lat="37.026268298873624" lon="15.0731505540611"><ele>361.0</ele><time>2026-04-15T08:19:13.999Z</time></trkpt><trkpt lat="37.026301778713176" lon="15.072902053206217"><ele>361.66666666666663</ele><time>2026-04-15T08:19:14.999Z</time></trkpt><trkpt lat="37.026337537639755" lon="15.072666734813511"><ele>362.3333333333333</ele><time>2026-04-15T08:19:15.999Z</time></trkpt><trkpt lat="37.026377447273376" lon="15.072432522347"><ele>363.0</ele><time>2026-04-15T08:19:16.999Z</time></trkpt><trkpt lat="37.026421257096935" lon="15.072192042828874"><ele>363.0</ele><time>2026-04-15T08:19:17.999Z</time></trkpt><trkpt lat="37.026467342626304" lon="15.071949063425064"><ele>363.0</ele><time>2026-04-15T08:19:18.999Z</time></trkpt><trkpt lat="37.02651557597782" lon="15.071702582962953"><ele>363.0</ele><time>2026-04-15T08:19:19.999Z</time></trkpt><trkpt lat="37.02655977842513" lon="15.071453003458181"><ele>363.0</ele><time>2026-04-15T08:19:20.999Z</time></trkpt><trkpt lat="37.02660382720516" lon="15.07120237621396"><ele>363.0</ele><time>2026-04-15T08:19:21.999Z</time></trkpt><trkpt lat="37.02665139082576" lon="15.07093781417243"><ele>363.0</ele><time>2026-04-15T08:19:22.999Z</time></trkpt><trkpt lat="37.02670349085529" lon="15.070663302205357"><ele>364.0</ele><time>2026-04-15T08:19:23.999Z</time></trkpt><trkpt lat="37.02675784449316" lon="15.07038822854587"><ele>365.0</ele><time>2026-04-15T08:19:24.999Z</time></trkpt><trkpt lat="37.02681329486306" lon="15.070113604480472"><ele>366.0</ele><time>2026-04-15T08:19:25.999Z</time></trkpt><trkpt lat="37.02686609887054" lon="15.06983399959738"><ele>367.0</ele><time>2026-04-15T08:19:26.999Z</time></trkpt><trkpt lat="37.02692663876718" lon="15.069555224434172"><ele>367.0</ele><time>2026-04-15T08:19:27.999Z</time></trkpt><trkpt lat="37.02698613495724" lon="15.069274826538377"><ele>367.0</ele><time>2026-04-15T08:19:28.999Z</time></trkpt><trkpt lat="37.0270418341112" lon="15.068992220070655"><ele>367.5</ele><time>2026-04-15T08:19:29.999Z</time></trkpt><trkpt lat="37.027099536206634" lon="15.068710584416916"><ele>368.0</ele><time>2026-04-15T08:19:30.999Z</time></trkpt><trkpt lat="37.027158911429154" lon="15.068422668260704"><ele>367.5</ele><time>2026-04-15T08:19:31.999Z</time></trkpt><trkpt lat="37.02722225772065" lon="15.068134472087138"><ele>367.0</ele><time>2026-04-15T08:19:32.999Z</time></trkpt><trkpt lat="37.02729032142776" lon="15.06785308750264"><ele>367.0</ele><time>2026-04-15T08:19:33.999Z</time></trkpt><trkpt lat="37.02737241494687" lon="15.06756781098453"><ele>367.0</ele><time>2026-04-15T08:19:34.999Z</time></trkpt><trkpt lat="37.02748374707854" lon="15.06726783773317"><ele>370.0</ele><time>2026-04-15T08:19:35.999Z</time></trkpt><trkpt lat="37.02759204159538" lon="15.0669695879764"><ele>373.0</ele><time>2026-04-15T08:19:36.999Z</time></trkpt><trkpt lat="37.0277185815083" lon="15.066665070727954"><ele>373.0</ele><time>2026-04-15T08:19:37.999Z</time></trkpt><trkpt lat="37.02784518903366" lon="15.06636489781967"><ele>373.0</ele><time>2026-04-15T08:19:38.999Z</time></trkpt><trkpt lat="37.02796779459856" lon="15.066067111949383"><ele>373.5</ele><time>2026-04-15T08:19:39.999Z</time></trkpt><trkpt lat="37.02809276438047" lon="15.065769487781887"><ele>374.0</ele><time>2026-04-15T08:19:40.999Z</time></trkpt><trkpt lat="37.02821735849452" lon="15.06547388831809"><ele>376.5</ele><time>2026-04-15T08:19:41.999Z</time></trkpt><trkpt lat="37.02833665908404" lon="15.065189701711354"><ele>379.0</ele><time>2026-04-15T08:19:42.999Z</time></trkpt><trkpt lat="37.028457951669445" lon="15.064917461720132"><ele>379.0</ele><time>2026-04-15T08:19:43.999Z</time></trkpt><trkpt lat="37.02859163400008" lon="15.064652284874471"><ele>379.0</ele><time>2026-04-15T08:19:44.999Z</time></trkpt><trkpt lat="37.02875009839923" lon="15.064409057062823"><ele>379.0</ele><time>2026-04-15T08:19:45.999Z</time></trkpt><trkpt lat="37.02893697888286" lon="15.064198258097319"><ele>379.0</ele><time>2026-04-15T08:19:47Z</time></trkpt><trkpt lat="37.02914283116568" lon="15.064013407653976"><ele>381.5</ele><time>2026-04-15T08:19:48Z</time></trkpt><trkpt lat="37.02934619831569" lon="15.063818755734626"><ele>384.0</ele><time>2026-04-15T08:19:49Z</time></trkpt><trkpt lat="37.0295544384248" lon="15.063597452248246"><ele>384.0</ele><time>2026-04-15T08:19:50Z</time></trkpt><trkpt lat="37.02976390843522" lon="15.06336787535215"><ele>384.0</ele><time>2026-04-15T08:19:51Z</time></trkpt><trkpt lat="37.02996114260435" lon="15.06312941449754"><ele>386.5</ele><time>2026-04-15T08:19:52Z</time></trkpt><trkpt lat="37.030140483814534" lon="15.062866172961341"><ele>389.0</ele><time>2026-04-15T08:19:53Z</time></trkpt><trkpt lat="37.030308881113505" lon="15.062594807153408"><ele>388.0</ele><time>2026-04-15T08:19:54Z</time></trkpt><trkpt lat="37.03048643386108" lon="15.062331603209072"><ele>387.0</ele><time>2026-04-15T08:19:55Z</time></trkpt><trkpt lat="37.03067559995611" lon="15.062063855948256"><ele>394.5</ele><time>2026-04-15T08:19:56Z</time></trkpt><trkpt lat="37.03084213751999" lon="15.061777227688745"><ele>402.0</ele><time>2026-04-15T08:19:57Z</time></trkpt><trkpt lat="37.03098335432512" lon="15.0614651742061"><ele>402.5</ele><time>2026-04-15T08:19:58Z</time></trkpt><trkpt lat="37.03110368387574" lon="15.061145480944479"><ele>403.0</ele><time>2026-04-15T08:19:59Z</time></trkpt><trkpt lat="37.03121648614797" lon="15.060818927030143"><ele>404.0</ele><time>2026-04-15T08:20:00Z</time></trkpt><trkpt lat="37.031333608772556" lon="15.060496479695342"><ele>405.0</ele><time>2026-04-15T08:20:01Z</time></trkpt><trkpt lat="37.031450911305726" lon="15.06017579223255"><ele>406.5</ele><time>2026-04-15T08:20:02Z</time></trkpt><trkpt lat="37.03156723552881" lon="15.059851117363493"><ele>408.0</ele><time>2026-04-15T08:20:03Z</time></trkpt><trkpt lat="37.0316851546064" lon="15.059527876417164"><ele>415.0</ele><time>2026-04-15T08:20:04Z</time></trkpt><trkpt lat="37.03180585853209" lon="15.059205270786396"><ele>422.0</ele><time>2026-04-15T08:20:05Z</time></trkpt><trkpt lat="37.03192688132362" lon="15.058888040631189"><ele>424.5</ele><time>2026-04-15T08:20:06Z</time></trkpt><trkpt lat="37.03204808757067" lon="15.058570554897097"><ele>427.0</ele><time>2026-04-15T08:20:07Z</time></trkpt><trkpt lat="37.03216925896415" lon="15.058255200632937"><ele>429.5</ele><time>2026-04-15T08:20:08Z</time></trkpt><trkpt lat="37.03229075196705" lon="15.057940551661137"><ele>432.0</ele><time>2026-04-15T08:20:09Z</time></trkpt><trkpt lat="37.032411605751" lon="15.05762421263457"><ele>434.5</ele><time>2026-04-15T08:20:10Z</time></trkpt><trkpt lat="37.03252980937596" lon="15.057306065144619"><ele>437.0</ele><time>2026-04-15T08:20:11Z</time></trkpt><trkpt lat="37.03264464219273" lon="15.056989126128153"><ele>437.0</ele><time>2026-04-15T08:20:12Z</time></trkpt><trkpt lat="37.03276232750592" lon="15.056664588521471"><ele>437.0</ele><time>2026-04-15T08:20:13Z</time></trkpt><trkpt lat="37.03288388368684" lon="15.056344301298285"><ele>438.5</ele><time>2026-04-15T08:20:14Z</time></trkpt><trkpt lat="37.033011600817034" lon="15.056020802886218"><ele>440.0</ele><time>2026-04-15T08:20:15Z</time></trkpt><trkpt lat="37.03314144375618" lon="15.055700276110889"><ele>440.0</ele><time>2026-04-15T08:20:16Z</time></trkpt><trkpt lat="37.03328148741318" lon="15.055383526255905"><ele>440.0</ele><time>2026-04-15T08:20:17Z</time></trkpt><trkpt lat="37.03342694567042" lon="15.055068181119733"><ele>442.0</ele><time>2026-04-15T08:20:18Z</time></trkpt><trkpt lat="37.033570673882195" lon="15.054745612411327"><ele>444.0</ele><time>2026-04-15T08:20:19Z</time></trkpt><trkpt lat="37.033718363891374" lon="15.05441644247082"><ele>446.5</ele><time>2026-04-15T08:20:20Z</time></trkpt><trkpt lat="37.033862712395376" lon="15.054091741318468"><ele>449.0</ele><time>2026-04-15T08:20:21Z</time></trkpt><trkpt lat="37.03400988865056" lon="15.053766720663496"><ele>446.0</ele><time>2026-04-15T08:20:22Z</time></trkpt><trkpt lat="37.0341526767728" lon="15.05345250893548"><ele>443.0</ele><time>2026-04-15T08:20:23Z</time></trkpt><trkpt lat="37.03429157644626" lon="15.053162755249799"><ele>443.0</ele><time>2026-04-15T08:20:24Z</time></trkpt><trkpt lat="37.03442658183446" lon="15.052887298248914"><ele>443.0</ele><time>2026-04-15T08:20:25Z</time></trkpt><trkpt lat="37.03454140708931" lon="15.052649295796842"><ele>441.66666666666663</ele><time>2026-04-15T08:20:26Z</time></trkpt><trkpt lat="37.03461075885995" lon="15.05244851315442"><ele>440.33333333333337</ele><time>2026-04-15T08:20:27Z</time></trkpt><trkpt lat="37.03464294796758" lon="15.052250706938944"><ele>439.0</ele><time>2026-04-15T08:20:28Z</time></trkpt><trkpt lat="37.034657945715196" lon="15.052065649715447"><ele>439.0</ele><time>2026-04-15T08:20:29Z</time></trkpt><trkpt lat="37.03470519944308" lon="15.051908822369736"><ele>439.0</ele><time>2026-04-15T08:20:30Z</time></trkpt><trkpt lat="37.034751628641374" lon="15.051755203204918"><ele>439.0</ele><time>2026-04-15T08:20:31Z</time></trkpt><trkpt lat="37.03476573884832" lon="15.051594883670449"><ele>439.0</ele><time>2026-04-15T08:20:32Z</time></trkpt><trkpt lat="37.034760250846155" lon="15.051436077870203"><ele>437.75</ele><time>2026-04-15T08:20:33Z</time></trkpt><trkpt lat="37.034748522708576" lon="15.051276423568254"><ele>436.5</ele><time>2026-04-15T08:20:34Z</time></trkpt><trkpt lat="37.034735942592185" lon="15.051111516264996"><ele>435.25</ele><time>2026-04-15T08:20:35Z</time></trkpt><trkpt lat="37.034719746509005" lon="15.050943528960898"><ele>434.0</ele><time>2026-04-15T08:20:36Z</time></trkpt><trkpt lat="37.03469561815416" lon="15.050773764148861"><ele>432.75</ele><time>2026-04-15T08:20:37Z</time></trkpt><trkpt lat="37.034657108378155" lon="15.05060224202567"><ele>431.5</ele><time>2026-04-15T08:20:38Z</time></trkpt><trkpt lat="37.034603679090004" lon="15.050428958929608"><ele>430.25</ele><time>2026-04-15T08:20:39Z</time></trkpt><trkpt lat="37.034545969365546" lon="15.050252532749976"><ele>429.0</ele><time>2026-04-15T08:20:40Z</time></trkpt><trkpt lat="37.03447726109741" lon="15.050077610106198"><ele>429.66666666666663</ele><time>2026-04-15T08:20:41Z</time></trkpt><trkpt lat="37.034390059768846" lon="15.049907086693645"><ele>430.3333333333333</ele><time>2026-04-15T08:20:42Z</time></trkpt><trkpt lat="37.034298725136146" lon="15.049734011352573"><ele>431.0</ele><time>2026-04-15T08:20:43Z</time></trkpt><trkpt lat="37.03419414411218" lon="15.049552926427157"><ele>433.3333333333333</ele><time>2026-04-15T08:20:44Z</time></trkpt><trkpt lat="37.034079903948104" lon="15.049373101029852"><ele>435.66666666666663</ele><time>2026-04-15T08:20:45Z</time></trkpt><trkpt lat="37.033963927973716" lon="15.049186347761365"><ele>438.0</ele><time>2026-04-15T08:20:46Z</time></trkpt><trkpt lat="37.03385138083327" lon="15.048992144770537"><ele>440.66666666666663</ele><time>2026-04-15T08:20:46.999Z</time></trkpt><trkpt lat="37.03373510556441" lon="15.048795311874196"><ele>443.3333333333333</ele><time>2026-04-15T08:20:47.999Z</time></trkpt><trkpt lat="37.03361233345058" lon="15.0485875180366"><ele>446.0</ele><time>2026-04-15T08:20:48.999Z</time></trkpt><trkpt lat="37.033476744910864" lon="15.048389289924451"><ele>444.0</ele><time>2026-04-15T08:20:49.999Z</time></trkpt><trkpt lat="37.03333771849817" lon="15.048165248485606"><ele>442.0</ele><time>2026-04-15T08:20:50.999Z</time></trkpt><trkpt lat="37.03319819483449" lon="15.047933493290923"><ele>446.5</ele><time>2026-04-15T08:20:51.999Z</time></trkpt><trkpt lat="37.03305079871481" lon="15.047700058562619"><ele>451.0</ele><time>2026-04-15T08:20:52.999Z</time></trkpt><trkpt lat="37.0329004946473" lon="15.04744338943788"><ele>452.0</ele><time>2026-04-15T08:20:53.999Z</time></trkpt><trkpt lat="37.03274884475105" lon="15.047175007396305"><ele>453.0</ele><time>2026-04-15T08:20:54.999Z</time></trkpt><trkpt lat="37.03258176268397" lon="15.046900483353811"><ele>451.0</ele><time>2026-04-15T08:20:55.999Z</time></trkpt><trkpt lat="37.03240658614032" lon="15.046609928808158"><ele>449.0</ele><time>2026-04-15T08:20:56.999Z</time></trkpt><trkpt lat="37.0322200643564" lon="15.046313899472288"><ele>449.0</ele><time>2026-04-15T08:20:57.999Z</time></trkpt><trkpt lat="37.03204524996251" lon="15.046032771912198"><ele>449.0</ele><time>2026-04-15T08:20:58.999Z</time></trkpt><trkpt lat="37.03186647832049" lon="15.045741594186744"><ele>447.0</ele><time>2026-04-15T08:20:59.999Z</time></trkpt><trkpt lat="37.031688985384605" lon="15.045449106963154"><ele>445.0</ele><time>2026-04-15T08:21:00.999Z</time></trkpt><trkpt lat="37.031513701909226" lon="15.045150790968783"><ele>450.0</ele><time>2026-04-15T08:21:01.999Z</time></trkpt><trkpt lat="37.03133452363254" lon="15.044857252274657"><ele>455.0</ele><time>2026-04-15T08:21:02.999Z</time></trkpt><trkpt lat="37.0311573294356" lon="15.044565125796927"><ele>455.0</ele><time>2026-04-15T08:21:03.999Z</time></trkpt><trkpt lat="37.03097809424" lon="15.044275173169966"><ele>455.0</ele><time>2026-04-15T08:21:04.999Z</time></trkpt><trkpt lat="37.03079816910626" lon="15.043983626944742"><ele>459.5</ele><time>2026-04-15T08:21:05.999Z</time></trkpt><trkpt lat="37.030618353463495" lon="15.043689409428758"><ele>464.0</ele><time>2026-04-15T08:21:06.999Z</time></trkpt><trkpt lat="37.03044391511779" lon="15.04339174302468"><ele>466.5</ele><time>2026-04-15T08:21:07.999Z</time></trkpt><trkpt lat="37.03026642091596" lon="15.043089452718865"><ele>469.0</ele><time>2026-04-15T08:21:08.999Z</time></trkpt><trkpt lat="37.030089990698656" lon="15.042791375286116"><ele>474.5</ele><time>2026-04-15T08:21:09.999Z</time></trkpt><trkpt lat="37.029911517749866" lon="15.042497654507503"><ele>480.0</ele><time>2026-04-15T08:21:10.999Z</time></trkpt><trkpt lat="37.029731558128326" lon="15.042201002328786"><ele>480.0</ele><time>2026-04-15T08:21:11.999Z</time></trkpt><trkpt lat="37.0295442006059" lon="15.041915491580216"><ele>480.0</ele><time>2026-04-15T08:21:12.999Z</time></trkpt><trkpt lat="37.02936391993837" lon="15.041620655548073"><ele>483.5</ele><time>2026-04-15T08:21:13.999Z</time></trkpt><trkpt lat="37.02917274975411" lon="15.041332602614787"><ele>487.0</ele><time>2026-04-15T08:21:14.999Z</time></trkpt><trkpt lat="37.02896044455648" lon="15.04106274061023"><ele>487.0</ele><time>2026-04-15T08:21:15.999Z</time></trkpt><trkpt lat="37.028728808565894" lon="15.040823707772011"><ele>487.0</ele><time>2026-04-15T08:21:16.999Z</time></trkpt><trkpt lat="37.02847488959642" lon="15.040620964774327"><ele>487.5</ele><time>2026-04-15T08:21:17.999Z</time></trkpt><trkpt lat="37.02819459314943" lon="15.040454059271946"><ele>488.0</ele><time>2026-04-15T08:21:18.999Z</time></trkpt><trkpt lat="37.02790930842954" lon="15.040313762155645"><ele>488.0</ele><time>2026-04-15T08:21:19.999Z</time></trkpt><trkpt lat="37.027622360452845" lon="15.040178803700119"><ele>488.0</ele><time>2026-04-15T08:21:20.999Z</time></trkpt><trkpt lat="37.0273457165259" lon="15.040034337348084"><ele>488.0</ele><time>2026-04-15T08:21:21.999Z</time></trkpt><trkpt lat="37.027078963560896" lon="15.039863398641314"><ele>488.0</ele><time>2026-04-15T08:21:22.999Z</time></trkpt><trkpt lat="37.02682248202208" lon="15.039660560483872"><ele>484.5</ele><time>2026-04-15T08:21:23.999Z</time></trkpt><trkpt lat="37.02657337868454" lon="15.039445791172563"><ele>481.0</ele><time>2026-04-15T08:21:24.999Z</time></trkpt><trkpt lat="37.02632300603921" lon="15.039239512164809"><ele>482.5</ele><time>2026-04-15T08:21:25.999Z</time></trkpt><trkpt lat="37.02606679701439" lon="15.039049603678189"><ele>484.0</ele><time>2026-04-15T08:21:26.999Z</time></trkpt><trkpt lat="37.02580534478946" lon="15.03888063321441"><ele>477.5</ele><time>2026-04-15T08:21:27.999Z</time></trkpt><trkpt lat="37.02553585825231" lon="15.038731615330105"><ele>471.0</ele><time>2026-04-15T08:21:28.999Z</time></trkpt><trkpt lat="37.02525750080364" lon="15.038604538163542"><ele>469.0</ele><time>2026-04-15T08:21:29.999Z</time></trkpt><trkpt lat="37.02497668251205" lon="15.03849899273198"><ele>467.0</ele><time>2026-04-15T08:21:30.999Z</time></trkpt><trkpt lat="37.02469479520407" lon="15.038412656841711"><ele>467.0</ele><time>2026-04-15T08:21:31.999Z</time></trkpt><trkpt lat="37.024412581445134" lon="15.038318348265324"><ele>467.0</ele><time>2026-04-15T08:21:32.999Z</time></trkpt><trkpt lat="37.02413193057682" lon="15.038212079244442"><ele>468.5</ele><time>2026-04-15T08:21:33.999Z</time></trkpt><trkpt lat="37.023859748845666" lon="15.038105610886975"><ele>470.0</ele><time>2026-04-15T08:21:34.999Z</time></trkpt><trkpt lat="37.02360312008062" lon="15.038008009725145"><ele>470.0</ele><time>2026-04-15T08:21:35.999Z</time></trkpt><trkpt lat="37.023357679370754" lon="15.037918333277688"><ele>470.0</ele><time>2026-04-15T08:21:36.999Z</time></trkpt><trkpt lat="37.0231276692324" lon="15.037830824919254"><ele>469.5</ele><time>2026-04-15T08:21:37.999Z</time></trkpt><trkpt lat="37.022903365890286" lon="15.037738501518955"><ele>469.0</ele><time>2026-04-15T08:21:38.999Z</time></trkpt><trkpt lat="37.022683328296715" lon="15.037640990218689"><ele>468.5</ele><time>2026-04-15T08:21:39.999Z</time></trkpt><trkpt lat="37.022463513741116" lon="15.037533109719254"><ele>468.0</ele><time>2026-04-15T08:21:40.999Z</time></trkpt><trkpt lat="37.02223559931213" lon="15.037409987436735"><ele>468.0</ele><time>2026-04-15T08:21:41.999Z</time></trkpt><trkpt lat="37.022005099625666" lon="15.03727294023842"><ele>468.0</ele><time>2026-04-15T08:21:42.999Z</time></trkpt><trkpt lat="37.02176922934347" lon="15.037133388698098"><ele>466.0</ele><time>2026-04-15T08:21:43.999Z</time></trkpt><trkpt lat="37.02153011394425" lon="15.036986621158732"><ele>464.0</ele><time>2026-04-15T08:21:44.999Z</time></trkpt><trkpt lat="37.02128426934702" lon="15.036848533589879"><ele>464.0</ele><time>2026-04-15T08:21:45.999Z</time></trkpt><trkpt lat="37.02104447339805" lon="15.03669774844675"><ele>464.0</ele><time>2026-04-15T08:21:46.999Z</time></trkpt><trkpt lat="37.02079990564935" lon="15.036526549707842"><ele>461.0</ele><time>2026-04-15T08:21:47.999Z</time></trkpt><trkpt lat="37.02055971417786" lon="15.036332234779373"><ele>458.0</ele><time>2026-04-15T08:21:48.999Z</time></trkpt><trkpt lat="37.020324410158956" lon="15.03610000139941"><ele>458.0</ele><time>2026-04-15T08:21:49.999Z</time></trkpt><trkpt lat="37.020087192197145" lon="15.035881319364776"><ele>458.0</ele><time>2026-04-15T08:21:50.999Z</time></trkpt><trkpt lat="37.019850282673026" lon="15.035653510660886"><ele>456.0</ele><time>2026-04-15T08:21:51.999Z</time></trkpt><trkpt lat="37.01961100101902" lon="15.035432264245603"><ele>454.0</ele><time>2026-04-15T08:21:53Z</time></trkpt><trkpt lat="37.019371414280705" lon="15.035207592180786"><ele>453.0</ele><time>2026-04-15T08:21:54Z</time></trkpt><trkpt lat="37.019133619379936" lon="15.034986989925551"><ele>452.0</ele><time>2026-04-15T08:21:55Z</time></trkpt><trkpt lat="37.01889685588594" lon="15.03476796546717"><ele>452.0</ele><time>2026-04-15T08:21:56Z</time></trkpt><trkpt lat="37.01865951324125" lon="15.034551903141455"><ele>452.0</ele><time>2026-04-15T08:21:57Z</time></trkpt><trkpt lat="37.018427251451755" lon="15.034333744126078"><ele>453.5</ele><time>2026-04-15T08:21:58Z</time></trkpt><trkpt lat="37.01819564947532" lon="15.034114843764664"><ele>455.0</ele><time>2026-04-15T08:21:59Z</time></trkpt><trkpt lat="37.01796574347966" lon="15.033895828854414"><ele>455.0</ele><time>2026-04-15T08:22:00Z</time></trkpt><trkpt lat="37.017740938898974" lon="15.033679725417622"><ele>455.0</ele><time>2026-04-15T08:22:01Z</time></trkpt><trkpt lat="37.01751521830203" lon="15.033461071426098"><ele>458.0</ele><time>2026-04-15T08:22:02Z</time></trkpt><trkpt lat="37.017291510476184" lon="15.03324758457588"><ele>461.0</ele><time>2026-04-15T08:22:03Z</time></trkpt><trkpt lat="37.01706512082771" lon="15.033036866610898"><ele>461.0</ele><time>2026-04-15T08:22:04Z</time></trkpt><trkpt lat="37.016842232099414" lon="15.03282852240012"><ele>461.0</ele><time>2026-04-15T08:22:05Z</time></trkpt><trkpt lat="37.0166176877801" lon="15.03262309327293"><ele>463.0</ele><time>2026-04-15T08:22:06Z</time></trkpt><trkpt lat="37.016398527430326" lon="15.032413211999936"><ele>465.0</ele><time>2026-04-15T08:22:07Z</time></trkpt><trkpt lat="37.016175469289095" lon="15.032206043525346"><ele>465.0</ele><time>2026-04-15T08:22:08Z</time></trkpt><trkpt lat="37.015956642262864" lon="15.032000455828829"><ele>465.0</ele><time>2026-04-15T08:22:09Z</time></trkpt><trkpt lat="37.01573860649043" lon="15.031783666824445"><ele>467.0</ele><time>2026-04-15T08:22:10Z</time></trkpt><trkpt lat="37.01552700068612" lon="15.031556954146536"><ele>469.0</ele><time>2026-04-15T08:22:11Z</time></trkpt><trkpt lat="37.01532847138673" lon="15.031312563875565"><ele>469.0</ele><time>2026-04-15T08:22:12Z</time></trkpt><trkpt lat="37.015136642741744" lon="15.03105111953108"><ele>469.0</ele><time>2026-04-15T08:22:13Z</time></trkpt><trkpt lat="37.014961643457916" lon="15.030773847012604"><ele>470.0</ele><time>2026-04-15T08:22:14Z</time></trkpt><trkpt lat="37.01479648443081" lon="15.030483780288273"><ele>471.0</ele><time>2026-04-15T08:22:15Z</time></trkpt><trkpt lat="37.01463950417542" lon="15.03018357783653"><ele>474.0</ele><time>2026-04-15T08:22:16Z</time></trkpt><trkpt lat="37.01449407051002" lon="15.029876049308056"><ele>477.0</ele><time>2026-04-15T08:22:17Z</time></trkpt><trkpt lat="37.01435827760156" lon="15.02955351097681"><ele>477.0</ele><time>2026-04-15T08:22:18Z</time></trkpt><trkpt lat="37.01423911731757" lon="15.029222521520328"><ele>477.0</ele><time>2026-04-15T08:22:19Z</time></trkpt><trkpt lat="37.014133172230736" lon="15.02887717899289"><ele>482.5</ele><time>2026-04-15T08:22:20Z</time></trkpt><trkpt lat="37.014045486259924" lon="15.028522043302447"><ele>488.0</ele><time>2026-04-15T08:22:21Z</time></trkpt><trkpt lat="37.013967406932395" lon="15.028162084853614"><ele>488.0</ele><time>2026-04-15T08:22:22Z</time></trkpt><trkpt lat="37.013903530670085" lon="15.027791480638571"><ele>488.0</ele><time>2026-04-15T08:22:23Z</time></trkpt><trkpt lat="37.01386320382077" lon="15.027414338085151"><ele>488.0</ele><time>2026-04-15T08:22:24Z</time></trkpt><trkpt lat="37.01383809432752" lon="15.027029663723699"><ele>488.0</ele><time>2026-04-15T08:22:25Z</time></trkpt><trkpt lat="37.01382894546844" lon="15.026638457483767"><ele>486.5</ele><time>2026-04-15T08:22:26Z</time></trkpt><trkpt lat="37.01383931479338" lon="15.026246191221647"><ele>485.0</ele><time>2026-04-15T08:22:27Z</time></trkpt><trkpt lat="37.01385842317858" lon="15.025853592869373"><ele>484.5</ele><time>2026-04-15T08:22:28Z</time></trkpt><trkpt lat="37.01388045011499" lon="15.02546033850661"><ele>484.0</ele><time>2026-04-15T08:22:29Z</time></trkpt><trkpt lat="37.01391213479476" lon="15.025072480946106"><ele>486.0</ele><time>2026-04-15T08:22:30Z</time></trkpt><trkpt lat="37.01393928681572" lon="15.02467919196603"><ele>488.0</ele><time>2026-04-15T08:22:31Z</time></trkpt><trkpt lat="37.013966420626154" lon="15.02428726164153"><ele>489.5</ele><time>2026-04-15T08:22:32Z</time></trkpt><trkpt lat="37.01398982634158" lon="15.023898877801793"><ele>491.0</ele><time>2026-04-15T08:22:33Z</time></trkpt><trkpt lat="37.014007141594846" lon="15.023505983492845"><ele>485.0</ele><time>2026-04-15T08:22:34Z</time></trkpt><trkpt lat="37.014021197409114" lon="15.023114710681815"><ele>479.0</ele><time>2026-04-15T08:22:35Z</time></trkpt><trkpt lat="37.01403584496617" lon="15.022720216391328"><ele>475.0</ele><time>2026-04-15T08:22:36Z</time></trkpt><trkpt lat="37.01405360735638" lon="15.022324780324986"><ele>471.0</ele><time>2026-04-15T08:22:37Z</time></trkpt><trkpt lat="37.01407668948774" lon="15.021929930998848"><ele>473.0</ele><time>2026-04-15T08:22:38Z</time></trkpt><trkpt lat="37.014099438880216" lon="15.021535403530278"><ele>475.0</ele><time>2026-04-15T08:22:39Z</time></trkpt><trkpt lat="37.01412689301191" lon="15.021141331371407"><ele>472.0</ele><time>2026-04-15T08:22:40Z</time></trkpt><trkpt lat="37.01415578389654" lon="15.02075114094229"><ele>469.0</ele><time>2026-04-15T08:22:41Z</time></trkpt><trkpt lat="37.01418333468782" lon="15.020355010510844"><ele>468.5</ele><time>2026-04-15T08:22:42Z</time></trkpt><trkpt lat="37.014208066456746" lon="15.019957010091305"><ele>468.0</ele><time>2026-04-15T08:22:43Z</time></trkpt><trkpt lat="37.01422809921806" lon="15.019556809679397"><ele>468.0</ele><time>2026-04-15T08:22:44Z</time></trkpt><trkpt lat="37.01425248547169" lon="15.019161419678975"><ele>468.0</ele><time>2026-04-15T08:22:45Z</time></trkpt><trkpt lat="37.014271478389716" lon="15.018782239834563"><ele>465.0</ele><time>2026-04-15T08:22:46Z</time></trkpt><trkpt lat="37.014292732344344" lon="15.018422238940435"><ele>462.0</ele><time>2026-04-15T08:22:47Z</time></trkpt><trkpt lat="37.014313753515246" lon="15.018079970953474"><ele>460.5</ele><time>2026-04-15T08:22:48Z</time></trkpt><trkpt lat="37.01433561871864" lon="15.017750808341608"><ele>459.0</ele><time>2026-04-15T08:22:49Z</time></trkpt><trkpt lat="37.0143582101228" lon="15.017438306121713"><ele>457.5</ele><time>2026-04-15T08:22:50Z</time></trkpt><trkpt lat="37.01438033908455" lon="15.017134763351473"><ele>456.0</ele><time>2026-04-15T08:22:51Z</time></trkpt><trkpt lat="37.014396760913655" lon="15.016847115349044"><ele>455.0</ele><time>2026-04-15T08:22:52Z</time></trkpt><trkpt lat="37.01441608705207" lon="15.016567524328652"><ele>454.0</ele><time>2026-04-15T08:22:53Z</time></trkpt><trkpt lat="37.01443256933993" lon="15.016300418500942"><ele>453.0</ele><time>2026-04-15T08:22:54Z</time></trkpt><trkpt lat="37.01444903816457" lon="15.016044212772268"><ele>452.66666666666663</ele><time>2026-04-15T08:22:54.999Z</time></trkpt><trkpt lat="37.014465051999935" lon="15.015798775241189"><ele>452.3333333333333</ele><time>2026-04-15T08:22:55.999Z</time></trkpt><trkpt lat="37.01448536015659" lon="15.01556348363878"><ele>452.0</ele><time>2026-04-15T08:22:56.999Z</time></trkpt><trkpt lat="37.01450461039442" lon="15.015335705399956"><ele>452.0</ele><time>2026-04-15T08:22:57.999Z</time></trkpt><trkpt lat="37.0145245702722" lon="15.015108107311592"><ele>452.0</ele><time>2026-04-15T08:22:58.999Z</time></trkpt><trkpt lat="37.014557425848814" lon="15.014891509006356"><ele>452.0</ele><time>2026-04-15T08:22:59.999Z</time></trkpt><trkpt lat="37.01461876685753" lon="15.01468741675773"><ele>452.0</ele><time>2026-04-15T08:23:00.999Z</time></trkpt><trkpt lat="37.014703430877915" lon="15.014481453890957"><ele>452.0</ele><time>2026-04-15T08:23:01.999Z</time></trkpt><trkpt lat="37.014777056815234" lon="15.014277837084059"><ele>452.0</ele><time>2026-04-15T08:23:02.999Z</time></trkpt><trkpt lat="37.0148467199973" lon="15.014085244271264"><ele>452.0</ele><time>2026-04-15T08:23:03.999Z</time></trkpt><trkpt lat="37.0149349450852" lon="15.013922980488681"><ele>452.0</ele><time>2026-04-15T08:23:04.999Z</time></trkpt><trkpt lat="37.01505109424202" lon="15.013808786240682"><ele>452.0</ele><time>2026-04-15T08:23:05.999Z</time></trkpt><trkpt lat="37.01518960450619" lon="15.013760980130929"><ele>452.0</ele><time>2026-04-15T08:23:06.999Z</time></trkpt><trkpt lat="37.015337239559635" lon="15.013751814854967"><ele>452.66666666666663</ele><time>2026-04-15T08:23:07.999Z</time></trkpt><trkpt lat="37.01549891274195" lon="15.013757806005485"><ele>453.33333333333337</ele><time>2026-04-15T08:23:08.999Z</time></trkpt><trkpt lat="37.01567298705148" lon="15.013735023999704"><ele>454.0</ele><time>2026-04-15T08:23:09.999Z</time></trkpt><trkpt lat="37.015866858737944" lon="15.013695367375567"><ele>454.33333333333337</ele><time>2026-04-15T08:23:10.999Z</time></trkpt><trkpt lat="37.01607140345925" lon="15.013633962650205"><ele>454.66666666666663</ele><time>2026-04-15T08:23:11.999Z</time></trkpt><trkpt lat="37.01628472565522" lon="15.01354302409862"><ele>455.0</ele><time>2026-04-15T08:23:12.999Z</time></trkpt><trkpt lat="37.016512606933574" lon="15.013428229581631"><ele>455.0</ele><time>2026-04-15T08:23:13.999Z</time></trkpt><trkpt lat="37.016749707765534" lon="15.013290483901079"><ele>455.0</ele><time>2026-04-15T08:23:14.999Z</time></trkpt><trkpt lat="37.0169889396236" lon="15.013126843957066"><ele>455.0</ele><time>2026-04-15T08:23:15.999Z</time></trkpt><trkpt lat="37.01721434168377" lon="15.012935368325184"><ele>455.0</ele><time>2026-04-15T08:23:16.999Z</time></trkpt><trkpt lat="37.01743772179738" lon="15.012731841924028"><ele>455.0</ele><time>2026-04-15T08:23:17.999Z</time></trkpt><trkpt lat="37.01766321440999" lon="15.012518733198986"><ele>455.0</ele><time>2026-04-15T08:23:18.999Z</time></trkpt><trkpt lat="37.01789151106574" lon="15.012297744195399"><ele>455.0</ele><time>2026-04-15T08:23:19.999Z</time></trkpt><trkpt lat="37.018116375486116" lon="15.012074127405574"><ele>455.0</ele><time>2026-04-15T08:23:20.999Z</time></trkpt><trkpt lat="37.01834044735318" lon="15.011845533024005"><ele>454.0</ele><time>2026-04-15T08:23:21.999Z</time></trkpt><trkpt lat="37.01856544393079" lon="15.011615258917288"><ele>453.0</ele><time>2026-04-15T08:23:22.999Z</time></trkpt><trkpt lat="37.0187922825757" lon="15.011385256035775"><ele>453.0</ele><time>2026-04-15T08:23:23.999Z</time></trkpt><trkpt lat="37.019015147326044" lon="15.011157683191726"><ele>453.0</ele><time>2026-04-15T08:23:24.999Z</time></trkpt><trkpt lat="37.01924690870159" lon="15.010928604604075"><ele>453.5</ele><time>2026-04-15T08:23:25.999Z</time></trkpt><trkpt lat="37.01947126923905" lon="15.01070146218742"><ele>454.0</ele><time>2026-04-15T08:23:26.999Z</time></trkpt><trkpt lat="37.01969641010668" lon="15.0104733947029"><ele>454.0</ele><time>2026-04-15T08:23:27.999Z</time></trkpt><trkpt lat="37.01992612100272" lon="15.010244768527315"><ele>454.0</ele><time>2026-04-15T08:23:28.999Z</time></trkpt><trkpt lat="37.0201569314077" lon="15.01001354982161"><ele>455.5</ele><time>2026-04-15T08:23:29.999Z</time></trkpt><trkpt lat="37.02038969494446" lon="15.009782222076927"><ele>457.0</ele><time>2026-04-15T08:23:30.999Z</time></trkpt><trkpt lat="37.020616666112694" lon="15.00955173431162"><ele>457.0</ele><time>2026-04-15T08:23:31.999Z</time></trkpt><trkpt lat="37.02084071245063" lon="15.009323176947674"><ele>457.0</ele><time>2026-04-15T08:23:32.999Z</time></trkpt><trkpt lat="37.02106879750661" lon="15.009090855020816"><ele>458.0</ele><time>2026-04-15T08:23:33.999Z</time></trkpt><trkpt lat="37.0212968634197" lon="15.008864854315451"><ele>459.0</ele><time>2026-04-15T08:23:34.999Z</time></trkpt><trkpt lat="37.02152845929657" lon="15.00863779830222"><ele>458.5</ele><time>2026-04-15T08:23:35.999Z</time></trkpt><trkpt lat="37.02176193322988" lon="15.00841587980823"><ele>458.0</ele><time>2026-04-15T08:23:36.999Z</time></trkpt><trkpt lat="37.02200399559473" lon="15.0081969457144"><ele>458.0</ele><time>2026-04-15T08:23:37.999Z</time></trkpt><trkpt lat="37.02225083962283" lon="15.007989344828498"><ele>458.0</ele><time>2026-04-15T08:23:38.999Z</time></trkpt><trkpt lat="37.02250790869109" lon="15.00779406956963"><ele>458.5</ele><time>2026-04-15T08:23:39.999Z</time></trkpt><trkpt lat="37.02276844165332" lon="15.007609042412607"><ele>459.0</ele><time>2026-04-15T08:23:40.999Z</time></trkpt><trkpt lat="37.0230413082987" lon="15.007424328833245"><ele>461.0</ele><time>2026-04-15T08:23:41.999Z</time></trkpt><trkpt lat="37.023319997311354" lon="15.007247008796059"><ele>463.0</ele><time>2026-04-15T08:23:42.999Z</time></trkpt><trkpt lat="37.02359528164057" lon="15.007070401424235"><ele>463.0</ele><time>2026-04-15T08:23:43.999Z</time></trkpt><trkpt lat="37.023867751825904" lon="15.006894644359441"><ele>463.0</ele><time>2026-04-15T08:23:44.999Z</time></trkpt><trkpt lat="37.02413576218126" lon="15.00671905021117"><ele>464.0</ele><time>2026-04-15T08:23:45.999Z</time></trkpt><trkpt lat="37.02440187438764" lon="15.006539797585436"><ele>465.0</ele><time>2026-04-15T08:23:46.999Z</time></trkpt><trkpt lat="37.02466984982" lon="15.006360098062284"><ele>465.0</ele><time>2026-04-15T08:23:47.999Z</time></trkpt><trkpt lat="37.02493401990403" lon="15.00618453885539"><ele>465.0</ele><time>2026-04-15T08:23:48.999Z</time></trkpt><trkpt lat="37.025200690038645" lon="15.006008096851462"><ele>465.5</ele><time>2026-04-15T08:23:49.999Z</time></trkpt><trkpt lat="37.02546195617009" lon="15.005824691446866"><ele>466.0</ele><time>2026-04-15T08:23:50.999Z</time></trkpt><trkpt lat="37.02571836694887" lon="15.005629094081772"><ele>467.5</ele><time>2026-04-15T08:23:51.999Z</time></trkpt><trkpt lat="37.025974157482494" lon="15.005419721008682"><ele>469.0</ele><time>2026-04-15T08:23:52.999Z</time></trkpt><trkpt lat="37.02622054551706" lon="15.00519991760186"><ele>470.0</ele><time>2026-04-15T08:23:53.999Z</time></trkpt><trkpt lat="37.026462008965495" lon="15.004972491142427"><ele>471.0</ele><time>2026-04-15T08:23:54.999Z</time></trkpt><trkpt lat="37.02669801610832" lon="15.004741877575272"><ele>471.0</ele><time>2026-04-15T08:23:55.999Z</time></trkpt><trkpt lat="37.02693452755148" lon="15.004513037717127"><ele>471.0</ele><time>2026-04-15T08:23:56.999Z</time></trkpt><trkpt lat="37.02717309591088" lon="15.004286445386589"><ele>472.0</ele><time>2026-04-15T08:23:57.999Z</time></trkpt><trkpt lat="37.027409072566975" lon="15.004059208548394"><ele>473.0</ele><time>2026-04-15T08:23:59Z</time></trkpt><trkpt lat="37.02764122827696" lon="15.003830524846617"><ele>473.0</ele><time>2026-04-15T08:24:00Z</time></trkpt><trkpt lat="37.02786739656659" lon="15.003598973319786"><ele>473.0</ele><time>2026-04-15T08:24:01Z</time></trkpt><trkpt lat="37.02808874433758" lon="15.003355977074497"><ele>472.0</ele><time>2026-04-15T08:24:02Z</time></trkpt><trkpt lat="37.028300958669675" lon="15.003107740072252"><ele>471.0</ele><time>2026-04-15T08:24:03Z</time></trkpt><trkpt lat="37.028508253979425" lon="15.002848255596856"><ele>472.5</ele><time>2026-04-15T08:24:04Z</time></trkpt><trkpt lat="37.02871221123978" lon="15.002578142631636"><ele>474.0</ele><time>2026-04-15T08:24:05Z</time></trkpt><trkpt lat="37.02889731557693" lon="15.002301969140516"><ele>474.0</ele><time>2026-04-15T08:24:06Z</time></trkpt><trkpt lat="37.029068524293535" lon="15.00201354274997"><ele>474.0</ele><time>2026-04-15T08:24:07Z</time></trkpt><trkpt lat="37.02923475650069" lon="15.001723971576412"><ele>477.0</ele><time>2026-04-15T08:24:08Z</time></trkpt><trkpt lat="37.02939660234314" lon="15.001428471623099"><ele>480.0</ele><time>2026-04-15T08:24:09Z</time></trkpt><trkpt lat="37.02956726964517" lon="15.001133735915461"><ele>480.0</ele><time>2026-04-15T08:24:10Z</time></trkpt><trkpt lat="37.029741827532476" lon="15.000843240580018"><ele>480.0</ele><time>2026-04-15T08:24:11Z</time></trkpt><trkpt lat="37.02992228762779" lon="15.000544566335146"><ele>481.5</ele><time>2026-04-15T08:24:12Z</time></trkpt><trkpt lat="37.030097584042224" lon="15.000247392712694"><ele>483.0</ele><time>2026-04-15T08:24:13Z</time></trkpt><trkpt lat="37.03026910248014" lon="14.999947945786419"><ele>483.0</ele><time>2026-04-15T08:24:14Z</time></trkpt><trkpt lat="37.03044268319684" lon="14.999648184024629"><ele>483.0</ele><time>2026-04-15T08:24:15Z</time></trkpt><trkpt lat="37.03062096068172" lon="14.999344050125673"><ele>482.5</ele><time>2026-04-15T08:24:16Z</time></trkpt><trkpt lat="37.03079970624863" lon="14.999045344084468"><ele>482.0</ele><time>2026-04-15T08:24:17Z</time></trkpt><trkpt lat="37.03096842266228" lon="14.998741488500695"><ele>486.0</ele><time>2026-04-15T08:24:18Z</time></trkpt><trkpt lat="37.03112150612091" lon="14.9984343863131"><ele>490.0</ele><time>2026-04-15T08:24:19Z</time></trkpt><trkpt lat="37.03125692612959" lon="14.99813201647813"><ele>490.0</ele><time>2026-04-15T08:24:20Z</time></trkpt><trkpt lat="37.03137921016617" lon="14.997843004513335"><ele>490.0</ele><time>2026-04-15T08:24:21Z</time></trkpt><trkpt lat="37.03149706338563" lon="14.997564751966328"><ele>490.0</ele><time>2026-04-15T08:24:22Z</time></trkpt><trkpt lat="37.03160818635587" lon="14.99730436623034"><ele>490.0</ele><time>2026-04-15T08:24:23Z</time></trkpt><trkpt lat="37.0317140289959" lon="14.997056153035723"><ele>491.33333333333337</ele><time>2026-04-15T08:24:24Z</time></trkpt><trkpt lat="37.03181147882758" lon="14.996817073742031"><ele>492.66666666666663</ele><time>2026-04-15T08:24:25Z</time></trkpt><trkpt lat="37.03190125841673" lon="14.996581416935987"><ele>494.0</ele><time>2026-04-15T08:24:26Z</time></trkpt><trkpt lat="37.03198571100504" lon="14.996359539425573"><ele>494.0</ele><time>2026-04-15T08:24:27Z</time></trkpt><trkpt lat="37.03206197511441" lon="14.996147458560687"><ele>494.0</ele><time>2026-04-15T08:24:28Z</time></trkpt><trkpt lat="37.03213081830317" lon="14.995932222219421"><ele>494.0</ele><time>2026-04-15T08:24:29Z</time></trkpt><trkpt lat="37.032192652736576" lon="14.995710212197908"><ele>494.3333333333333</ele><time>2026-04-15T08:24:30Z</time></trkpt><trkpt lat="37.03224214449206" lon="14.995481114869081"><ele>494.66666666666663</ele><time>2026-04-15T08:24:31Z</time></trkpt><trkpt lat="37.0322804673188" lon="14.995243743496529"><ele>495.0</ele><time>2026-04-15T08:24:32Z</time></trkpt><trkpt lat="37.03230774689048" lon="14.99500363072663"><ele>496.0</ele><time>2026-04-15T08:24:33Z</time></trkpt><trkpt lat="37.03231881965486" lon="14.994754737894628"><ele>497.0</ele><time>2026-04-15T08:24:34Z</time></trkpt><trkpt lat="37.03232247683622" lon="14.994517056308188"><ele>498.0</ele><time>2026-04-15T08:24:35Z</time></trkpt><trkpt lat="37.03233383932824" lon="14.994288599323177"><ele>497.66666666666663</ele><time>2026-04-15T08:24:36Z</time></trkpt><trkpt lat="37.03233809879146" lon="14.994058071016044"><ele>497.3333333333333</ele><time>2026-04-15T08:24:37Z</time></trkpt><trkpt lat="37.032331717950974" lon="14.993825350351043"><ele>497.0</ele><time>2026-04-15T08:24:38Z</time></trkpt><trkpt lat="37.032317109397255" lon="14.99360152495704"><ele>497.0</ele><time>2026-04-15T08:24:39Z</time></trkpt><trkpt lat="37.032303815867486" lon="14.993378335056908"><ele>497.0</ele><time>2026-04-15T08:24:40Z</time></trkpt><trkpt lat="37.03229152889544" lon="14.993151496311405"><ele>497.0</ele><time>2026-04-15T08:24:41Z</time></trkpt><trkpt lat="37.03227865430468" lon="14.992923132960454"><ele>496.66666666666663</ele><time>2026-04-15T08:24:42Z</time></trkpt><trkpt lat="37.03226464274631" lon="14.992690880964131"><ele>496.33333333333337</ele><time>2026-04-15T08:24:43Z</time></trkpt><trkpt lat="37.03225270147752" lon="14.99245441278399"><ele>496.0</ele><time>2026-04-15T08:24:44Z</time></trkpt><trkpt lat="37.032241333233166" lon="14.992213740055016"><ele>495.33333333333337</ele><time>2026-04-15T08:24:45Z</time></trkpt><trkpt lat="37.03222879909093" lon="14.991978901691065"><ele>494.66666666666663</ele><time>2026-04-15T08:24:46Z</time></trkpt><trkpt lat="37.03220942552024" lon="14.99173153027769"><ele>494.0</ele><time>2026-04-15T08:24:47Z</time></trkpt><trkpt lat="37.03219311827547" lon="14.99148312647502"><ele>493.3333333333333</ele><time>2026-04-15T08:24:48Z</time></trkpt><trkpt lat="37.03218568934878" lon="14.991247326727276"><ele>492.66666666666663</ele><time>2026-04-15T08:24:49Z</time></trkpt><trkpt lat="37.03217831366952" lon="14.991012941830464"><ele>492.0</ele><time>2026-04-15T08:24:50Z</time></trkpt><trkpt lat="37.03217420349225" lon="14.9907752060756"><ele>491.66666666666663</ele><time>2026-04-15T08:24:51Z</time></trkpt><trkpt lat="37.03217343238306" lon="14.990537307688559"><ele>491.3333333333333</ele><time>2026-04-15T08:24:52Z</time></trkpt><trkpt lat="37.032185764831645" lon="14.99029593804976"><ele>491.0</ele><time>2026-04-15T08:24:53Z</time></trkpt><trkpt lat="37.03221154812387" lon="14.990053237303645"><ele>491.0</ele><time>2026-04-15T08:24:54Z</time></trkpt><trkpt lat="37.03224319386077" lon="14.98981452829405"><ele>491.0</ele><time>2026-04-15T08:24:55Z</time></trkpt><trkpt lat="37.03228393741052" lon="14.989581379059379"><ele>491.0</ele><time>2026-04-15T08:24:56Z</time></trkpt><trkpt lat="37.03233962645998" lon="14.989354449572126"><ele>491.66666666666663</ele><time>2026-04-15T08:24:57Z</time></trkpt><trkpt lat="37.0324063988888" lon="14.989131146056012"><ele>492.33333333333337</ele><time>2026-04-15T08:24:58Z</time></trkpt><trkpt lat="37.03248312973125" lon="14.988909702979766"><ele>493.0</ele><time>2026-04-15T08:24:58.999Z</time></trkpt><trkpt lat="37.03256900905142" lon="14.988694177158003"><ele>494.33333333333337</ele><time>2026-04-15T08:24:59.999Z</time></trkpt><trkpt lat="37.032659825088295" lon="14.988480670705849"><ele>495.66666666666663</ele><time>2026-04-15T08:25:00.999Z</time></trkpt><trkpt lat="37.0327515893805" lon="14.988267493539553"><ele>497.0</ele><time>2026-04-15T08:25:01.999Z</time></trkpt><trkpt lat="37.03284885671949" lon="14.988059680040086"><ele>497.0</ele><time>2026-04-15T08:25:02.999Z</time></trkpt><trkpt lat="37.0329456703325" lon="14.987856711392384"><ele>497.0</ele><time>2026-04-15T08:25:03.999Z</time></trkpt><trkpt lat="37.033041076113896" lon="14.987657530315456"><ele>497.0</ele><time>2026-04-15T08:25:04.999Z</time></trkpt><trkpt lat="37.033131151409194" lon="14.987456521818189"><ele>497.0</ele><time>2026-04-15T08:25:05.999Z</time></trkpt><trkpt lat="37.03321507873252" lon="14.98724854839548"><ele>497.0</ele><time>2026-04-15T08:25:06.999Z</time></trkpt><trkpt lat="37.033292749799365" lon="14.98703336678615"><ele>497.0</ele><time>2026-04-15T08:25:07.999Z</time></trkpt><trkpt lat="37.033363991835124" lon="14.986798154159791"><ele>498.0</ele><time>2026-04-15T08:25:08.999Z</time></trkpt><trkpt lat="37.03343962421483" lon="14.986537194786509"><ele>499.0</ele><time>2026-04-15T08:25:09.999Z</time></trkpt><trkpt lat="37.03351630882187" lon="14.986257150989845"><ele>499.0</ele><time>2026-04-15T08:25:10.999Z</time></trkpt><trkpt lat="37.03360077467369" lon="14.985946551210402"><ele>499.0</ele><time>2026-04-15T08:25:11.999Z</time></trkpt><trkpt lat="37.033704760463" lon="14.985619677056574"><ele>498.5</ele><time>2026-04-15T08:25:12.999Z</time></trkpt><trkpt lat="37.03381671373042" lon="14.985278139122222"><ele>498.0</ele><time>2026-04-15T08:25:13.999Z</time></trkpt><trkpt lat="37.03392053301457" lon="14.984906153791224"><ele>498.0</ele><time>2026-04-15T08:25:14.999Z</time></trkpt><trkpt lat="37.03401287505589" lon="14.984539977946705"><ele>498.0</ele><time>2026-04-15T08:25:15.999Z</time></trkpt><trkpt lat="37.03410642585227" lon="14.984176291203326"><ele>497.5</ele><time>2026-04-15T08:25:16.999Z</time></trkpt><trkpt lat="37.0342053412071" lon="14.98379914744306"><ele>497.0</ele><time>2026-04-15T08:25:17.999Z</time></trkpt><trkpt lat="37.03430896630883" lon="14.983418412935347"><ele>497.5</ele><time>2026-04-15T08:25:18.999Z</time></trkpt><trkpt lat="37.03440432706892" lon="14.983068939501818"><ele>498.0</ele><time>2026-04-15T08:25:19.999Z</time></trkpt><trkpt lat="37.034492202520426" lon="14.98277633876676"><ele>501.0</ele><time>2026-04-15T08:25:20.999Z</time></trkpt><trkpt lat="37.03461942586766" lon="14.982252738330486"><ele>504.0</ele><time>2026-04-15T08:25:21.999Z</time></trkpt><trkpt lat="37.03472606300982" lon="14.98185158441478"><ele>505.5</ele><time>2026-04-15T08:25:22.999Z</time></trkpt><trkpt lat="37.0348351774527" lon="14.981450703722766"><ele>507.0</ele><time>2026-04-15T08:25:23.999Z</time></trkpt><trkpt lat="37.0349381131059" lon="14.981044969617173"><ele>505.0</ele><time>2026-04-15T08:25:24.999Z</time></trkpt><trkpt lat="37.035028769695835" lon="14.980633568144443"><ele>503.0</ele><time>2026-04-15T08:25:25.999Z</time></trkpt><trkpt lat="37.035107856439645" lon="14.980218929130647"><ele>503.0</ele><time>2026-04-15T08:25:26.999Z</time></trkpt><trkpt lat="37.035180928034265" lon="14.979799942128983"><ele>503.0</ele><time>2026-04-15T08:25:27.999Z</time></trkpt><trkpt lat="37.03524165922328" lon="14.979391891606685"><ele>503.0</ele><time>2026-04-15T08:25:28.999Z</time></trkpt><trkpt lat="37.03529697371668" lon="14.978986866019149"><ele>503.0</ele><time>2026-04-15T08:25:29.999Z</time></trkpt><trkpt lat="37.035350578918155" lon="14.978588462290034"><ele>502.5</ele><time>2026-04-15T08:25:30.999Z</time></trkpt><trkpt lat="37.035399154979665" lon="14.978195229976231"><ele>502.0</ele><time>2026-04-15T08:25:31.999Z</time></trkpt><trkpt lat="37.03544587228057" lon="14.977800761202305"><ele>501.5</ele><time>2026-04-15T08:25:32.999Z</time></trkpt><trkpt lat="37.03549454866878" lon="14.977411880854843"><ele>501.0</ele><time>2026-04-15T08:25:33.999Z</time></trkpt><trkpt lat="37.03554585249812" lon="14.977024940146823"><ele>502.0</ele><time>2026-04-15T08:25:34.999Z</time></trkpt><trkpt lat="37.03560350689535" lon="14.976635231071768"><ele>503.0</ele><time>2026-04-15T08:25:35.999Z</time></trkpt><trkpt lat="37.03565649053116" lon="14.976250389061736"><ele>503.0</ele><time>2026-04-15T08:25:36.999Z</time></trkpt><trkpt lat="37.035708531662344" lon="14.975867578798002"><ele>503.0</ele><time>2026-04-15T08:25:37.999Z</time></trkpt><trkpt lat="37.035761117473214" lon="14.975485357313227"><ele>504.5</ele><time>2026-04-15T08:25:38.999Z</time></trkpt><trkpt lat="37.035812548349135" lon="14.975105908983755"><ele>506.0</ele><time>2026-04-15T08:25:39.999Z</time></trkpt><trkpt lat="37.035861965313536" lon="14.974721199032208"><ele>506.5</ele><time>2026-04-15T08:25:40.999Z</time></trkpt><trkpt lat="37.03591770326352" lon="14.97434047629067"><ele>507.0</ele><time>2026-04-15T08:25:41.999Z</time></trkpt><trkpt lat="37.03596729137229" lon="14.973960558499165"><ele>507.0</ele><time>2026-04-15T08:25:42.999Z</time></trkpt><trkpt lat="37.03602230881455" lon="14.973578309625351"><ele>507.0</ele><time>2026-04-15T08:25:43.999Z</time></trkpt><trkpt lat="37.036068631395544" lon="14.973196021790189"><ele>507.0</ele><time>2026-04-15T08:25:44.999Z</time></trkpt><trkpt lat="37.03612431655703" lon="14.972812441516812"><ele>507.0</ele><time>2026-04-15T08:25:45.999Z</time></trkpt><trkpt lat="37.03618432416018" lon="14.972432545589328"><ele>508.0</ele><time>2026-04-15T08:25:46.999Z</time></trkpt><trkpt lat="37.036250301588154" lon="14.972057283950884"><ele>509.0</ele><time>2026-04-15T08:25:47.999Z</time></trkpt><trkpt lat="37.03632107088159" lon="14.971694613635922"><ele>509.0</ele><time>2026-04-15T08:25:48.999Z</time></trkpt><trkpt lat="37.03640452499651" lon="14.971338536484003"><ele>509.0</ele><time>2026-04-15T08:25:49.999Z</time></trkpt><trkpt lat="37.0364950386439" lon="14.970986292117756"><ele>509.5</ele><time>2026-04-15T08:25:50.999Z</time></trkpt><trkpt lat="37.03659208043883" lon="14.970642626712975"><ele>510.0</ele><time>2026-04-15T08:25:51.999Z</time></trkpt><trkpt lat="37.03670010882178" lon="14.970307265265381"><ele>510.5</ele><time>2026-04-15T08:25:52.999Z</time></trkpt><trkpt lat="37.03680919355154" lon="14.969977734969397"><ele>511.0</ele><time>2026-04-15T08:25:53.999Z</time></trkpt><trkpt lat="37.03691627346969" lon="14.969648867941668"><ele>511.0</ele><time>2026-04-15T08:25:54.999Z</time></trkpt><trkpt lat="37.03701870896537" lon="14.969323922367066"><ele>511.0</ele><time>2026-04-15T08:25:55.999Z</time></trkpt><trkpt lat="37.03712501897332" lon="14.969000122244282"><ele>511.5</ele><time>2026-04-15T08:25:56.999Z</time></trkpt><trkpt lat="37.037219482053075" lon="14.968678932733756"><ele>512.0</ele><time>2026-04-15T08:25:57.999Z</time></trkpt><trkpt lat="37.03731002542406" lon="14.968361485569812"><ele>512.5</ele><time>2026-04-15T08:25:58.999Z</time></trkpt><trkpt lat="37.0374135737333" lon="14.968058530279551"><ele>513.0</ele><time>2026-04-15T08:25:59.999Z</time></trkpt><trkpt lat="37.03751459300438" lon="14.967770521351653"><ele>513.0</ele><time>2026-04-15T08:26:00.999Z</time></trkpt><trkpt lat="37.03760019970738" lon="14.96749693604113"><ele>513.0</ele><time>2026-04-15T08:26:01.999Z</time></trkpt><trkpt lat="37.03768550271047" lon="14.967234812406652"><ele>513.0</ele><time>2026-04-15T08:26:02.999Z</time></trkpt><trkpt lat="37.03776654292399" lon="14.966985325434113"><ele>513.0</ele><time>2026-04-15T08:26:03.999Z</time></trkpt><trkpt lat="37.037846968087045" lon="14.9667443583035"><ele>513.0</ele><time>2026-04-15T08:26:05Z</time></trkpt><trkpt lat="37.037921495276336" lon="14.966510118763793"><ele>512.5</ele><time>2026-04-15T08:26:06Z</time></trkpt><trkpt lat="37.03800929041532" lon="14.966245753502628"><ele>512.0</ele><time>2026-04-15T08:26:07Z</time></trkpt><trkpt lat="37.03810029609011" lon="14.965952480585003"><ele>512.5</ele><time>2026-04-15T08:26:08Z</time></trkpt><trkpt lat="37.03818043706958" lon="14.965613835292908"><ele>513.0</ele><time>2026-04-15T08:26:09Z</time></trkpt><trkpt lat="37.0382825921985" lon="14.965269815183873"><ele>514.5</ele><time>2026-04-15T08:26:10Z</time></trkpt><trkpt lat="37.038380775062926" lon="14.964955791783883"><ele>516.0</ele><time>2026-04-15T08:26:11Z</time></trkpt><trkpt lat="37.038500113905755" lon="14.964611407504725"><ele>516.0</ele><time>2026-04-15T08:26:12Z</time></trkpt><trkpt lat="37.038625563715286" lon="14.964258662074199"><ele>516.0</ele><time>2026-04-15T08:26:13Z</time></trkpt><trkpt lat="37.03876638711512" lon="14.963896850827686"><ele>516.0</ele><time>2026-04-15T08:26:14Z</time></trkpt><trkpt lat="37.03889619827862" lon="14.963529284980545"><ele>516.0</ele><time>2026-04-15T08:26:15Z</time></trkpt><trkpt lat="37.03901495670557" lon="14.963159595850911"><ele>516.0</ele><time>2026-04-15T08:26:16Z</time></trkpt><trkpt lat="37.039127851016886" lon="14.96278921683372"><ele>516.0</ele><time>2026-04-15T08:26:17Z</time></trkpt><trkpt lat="37.03924778659903" lon="14.962424308302564"><ele>519.0</ele><time>2026-04-15T08:26:18Z</time></trkpt><trkpt lat="37.03936733720091" lon="14.962058987721004"><ele>522.0</ele><time>2026-04-15T08:26:19Z</time></trkpt><trkpt lat="37.03948649509307" lon="14.961703669599505"><ele>521.0</ele><time>2026-04-15T08:26:20Z</time></trkpt><trkpt lat="37.03960352787145" lon="14.961349726432696"><ele>520.0</ele><time>2026-04-15T08:26:21Z</time></trkpt><trkpt lat="37.03971758420247" lon="14.960997747475071"><ele>521.0</ele><time>2026-04-15T08:26:22Z</time></trkpt><trkpt lat="37.039827825455426" lon="14.960650720312653"><ele>522.0</ele><time>2026-04-15T08:26:23Z</time></trkpt><trkpt lat="37.0399383692689" lon="14.960301885500327"><ele>523.0</ele><time>2026-04-15T08:26:24Z</time></trkpt><trkpt lat="37.04005000359812" lon="14.95995618406387"><ele>524.0</ele><time>2026-04-15T08:26:25Z</time></trkpt><trkpt lat="37.040156916806104" lon="14.959619536766683"><ele>524.0</ele><time>2026-04-15T08:26:26Z</time></trkpt><trkpt lat="37.040265294543076" lon="14.959278331984812"><ele>524.0</ele><time>2026-04-15T08:26:27Z</time></trkpt><trkpt lat="37.04037483468179" lon="14.95893777688292"><ele>526.5</ele><time>2026-04-15T08:26:28Z</time></trkpt><trkpt lat="37.04048424357995" lon="14.958600306777745"><ele>529.0</ele><time>2026-04-15T08:26:29Z</time></trkpt><trkpt lat="37.0405927336361" lon="14.958267538798173"><ele>530.0</ele><time>2026-04-15T08:26:30Z</time></trkpt><trkpt lat="37.04069859694169" lon="14.957934767793025"><ele>531.0</ele><time>2026-04-15T08:26:31Z</time></trkpt><trkpt lat="37.04080250661079" lon="14.957603046458624"><ele>532.0</ele><time>2026-04-15T08:26:32Z</time></trkpt><trkpt lat="37.04090775425518" lon="14.957268488105205"><ele>533.0</ele><time>2026-04-15T08:26:33Z</time></trkpt><trkpt lat="37.041014568821694" lon="14.956938716197634"><ele>533.5</ele><time>2026-04-15T08:26:34Z</time></trkpt><trkpt lat="37.0411215269858" lon="14.956608220388288"><ele>534.0</ele><time>2026-04-15T08:26:35Z</time></trkpt><trkpt lat="37.041230719367555" lon="14.956276597997052"><ele>534.0</ele><time>2026-04-15T08:26:36Z</time></trkpt><trkpt lat="37.04133930714785" lon="14.955947134875199"><ele>534.0</ele><time>2026-04-15T08:26:37Z</time></trkpt><trkpt lat="37.041445947621476" lon="14.955609430956885"><ele>535.0</ele><time>2026-04-15T08:26:38Z</time></trkpt><trkpt lat="37.04155166804883" lon="14.955274598537466"><ele>536.0</ele><time>2026-04-15T08:26:39Z</time></trkpt><trkpt lat="37.041661259880954" lon="14.954937067529706"><ele>537.0</ele><time>2026-04-15T08:26:40Z</time></trkpt><trkpt lat="37.0417725362811" lon="14.954603223890885"><ele>538.0</ele><time>2026-04-15T08:26:41Z</time></trkpt><trkpt lat="37.04187894481765" lon="14.954269500765813"><ele>539.5</ele><time>2026-04-15T08:26:42Z</time></trkpt><trkpt lat="37.04198871023809" lon="14.953930298423701"><ele>541.0</ele><time>2026-04-15T08:26:43Z</time></trkpt><trkpt lat="37.04209918514986" lon="14.95359293401179"><ele>542.5</ele><time>2026-04-15T08:26:44Z</time></trkpt><trkpt lat="37.042212607616335" lon="14.953247888930065"><ele>544.0</ele><time>2026-04-15T08:26:45Z</time></trkpt><trkpt lat="37.04231864833437" lon="14.952909716601892"><ele>544.0</ele><time>2026-04-15T08:26:46Z</time></trkpt><trkpt lat="37.0424249994561" lon="14.952570398248888"><ele>544.0</ele><time>2026-04-15T08:26:47Z</time></trkpt><trkpt lat="37.04253349984499" lon="14.95222361165385"><ele>545.0</ele><time>2026-04-15T08:26:48Z</time></trkpt><trkpt lat="37.042640571748244" lon="14.951881170578895"><ele>546.0</ele><time>2026-04-15T08:26:49Z</time></trkpt><trkpt lat="37.04274702256561" lon="14.951540635460045"><ele>546.5</ele><time>2026-04-15T08:26:50Z</time></trkpt><trkpt lat="37.04285538473175" lon="14.951199369366623"><ele>547.0</ele><time>2026-04-15T08:26:51Z</time></trkpt><trkpt lat="37.04296360582231" lon="14.950857204869019"><ele>547.0</ele><time>2026-04-15T08:26:52Z</time></trkpt><trkpt lat="37.04306816222483" lon="14.950520209182146"><ele>547.0</ele><time>2026-04-15T08:26:53Z</time></trkpt><trkpt lat="37.0431786348214" lon="14.95016934465299"><ele>548.0</ele><time>2026-04-15T08:26:54Z</time></trkpt><trkpt lat="37.043283553950474" lon="14.949838874332508"><ele>549.0</ele><time>2026-04-15T08:26:55Z</time></trkpt><trkpt lat="37.04339324357215" lon="14.94948797527272"><ele>549.5</ele><time>2026-04-15T08:26:56Z</time></trkpt><trkpt lat="37.04350107638646" lon="14.949147430003844"><ele>550.0</ele><time>2026-04-15T08:26:57Z</time></trkpt><trkpt lat="37.0436105345497" lon="14.948800949236922"><ele>550.0</ele><time>2026-04-15T08:26:58Z</time></trkpt><trkpt lat="37.043719803121924" lon="14.948459287203834"><ele>550.0</ele><time>2026-04-15T08:26:59Z</time></trkpt><trkpt lat="37.04383141331587" lon="14.948116589186151"><ele>550.5</ele><time>2026-04-15T08:26:59.999Z</time></trkpt><trkpt lat="37.04394430480661" lon="14.947774841883449"><ele>551.0</ele><time>2026-04-15T08:27:00.999Z</time></trkpt><trkpt lat="37.04406341842392" lon="14.947432202267258"><ele>552.0</ele><time>2026-04-15T08:27:01.999Z</time></trkpt><trkpt lat="37.04420221333788" lon="14.947089401814008"><ele>553.0</ele><time>2026-04-15T08:27:02.999Z</time></trkpt><trkpt lat="37.044356902006825" lon="14.946746432991187"><ele>553.5</ele><time>2026-04-15T08:27:03.999Z</time></trkpt><trkpt lat="37.04452898492876" lon="14.946410178630137"><ele>554.0</ele><time>2026-04-15T08:27:04.999Z</time></trkpt><trkpt lat="37.04470862122954" lon="14.946081297574489"><ele>554.5</ele><time>2026-04-15T08:27:05.999Z</time></trkpt><trkpt lat="37.04489929149841" lon="14.945767687365903"><ele>555.0</ele><time>2026-04-15T08:27:06.999Z</time></trkpt><trkpt lat="37.04510119633447" lon="14.945454469406648"><ele>555.0</ele><time>2026-04-15T08:27:07.999Z</time></trkpt><trkpt lat="37.04531518725543" lon="14.945152080089168"><ele>555.0</ele><time>2026-04-15T08:27:08.999Z</time></trkpt><trkpt lat="37.04552905689975" lon="14.944844862346201"><ele>555.0</ele><time>2026-04-15T08:27:09.999Z</time></trkpt><trkpt lat="37.04573091246631" lon="14.94453699622661"><ele>555.0</ele><time>2026-04-15T08:27:10.999Z</time></trkpt><trkpt lat="37.04595133419157" lon="14.944217812418797"><ele>556.5</ele><time>2026-04-15T08:27:11.999Z</time></trkpt><trkpt lat="37.046174197489044" lon="14.94391056273805"><ele>558.0</ele><time>2026-04-15T08:27:12.999Z</time></trkpt><trkpt lat="37.04645428657173" lon="14.943600376935564"><ele>559.0</ele><time>2026-04-15T08:27:13.999Z</time></trkpt><trkpt lat="37.04664814311764" lon="14.943290967622753"><ele>560.0</ele><time>2026-04-15T08:27:14.999Z</time></trkpt><trkpt lat="37.0468006945444" lon="14.94297649894175"><ele>560.0</ele><time>2026-04-15T08:27:15.999Z</time></trkpt><trkpt lat="37.04699912152295" lon="14.94266701756966"><ele>560.0</ele><time>2026-04-15T08:27:16.999Z</time></trkpt><trkpt lat="37.04719660300973" lon="14.942352388047349"><ele>559.5</ele><time>2026-04-15T08:27:17.999Z</time></trkpt><trkpt lat="37.04738928961425" lon="14.942029214172535"><ele>559.0</ele><time>2026-04-15T08:27:18.999Z</time></trkpt><trkpt lat="37.0475619163036" lon="14.94169842636218"><ele>563.5</ele><time>2026-04-15T08:27:19.999Z</time></trkpt><trkpt lat="37.0477353797483" lon="14.941351787006925"><ele>568.0</ele><time>2026-04-15T08:27:20.999Z</time></trkpt><trkpt lat="37.04787741053352" lon="14.940998243142605"><ele>568.0</ele><time>2026-04-15T08:27:21.999Z</time></trkpt><trkpt lat="37.048026136451554" lon="14.94064441581317"><ele>568.0</ele><time>2026-04-15T08:27:22.999Z</time></trkpt><trkpt lat="37.048157389213436" lon="14.940281882066445"><ele>568.0</ele><time>2026-04-15T08:27:23.999Z</time></trkpt><trkpt lat="37.04828234302827" lon="14.939917137572776"><ele>568.0</ele><time>2026-04-15T08:27:24.999Z</time></trkpt><trkpt lat="37.048393521209036" lon="14.939550079525032"><ele>570.5</ele><time>2026-04-15T08:27:25.999Z</time></trkpt><trkpt lat="37.04851293157949" lon="14.939185594999913"><ele>573.0</ele><time>2026-04-15T08:27:26.999Z</time></trkpt><trkpt lat="37.04862984333727" lon="14.938823268029312"><ele>573.0</ele><time>2026-04-15T08:27:27.999Z</time></trkpt><trkpt lat="37.048747911819405" lon="14.93846418710245"><ele>573.0</ele><time>2026-04-15T08:27:28.999Z</time></trkpt><trkpt lat="37.04886649330343" lon="14.938106213421555"><ele>574.0</ele><time>2026-04-15T08:27:29.999Z</time></trkpt><trkpt lat="37.048985274834344" lon="14.937746338059945"><ele>575.0</ele><time>2026-04-15T08:27:30.999Z</time></trkpt><trkpt lat="37.04910294572051" lon="14.937387603628181"><ele>577.0</ele><time>2026-04-15T08:27:31.999Z</time></trkpt><trkpt lat="37.0492206093653" lon="14.937032062709916"><ele>579.0</ele><time>2026-04-15T08:27:32.999Z</time></trkpt><trkpt lat="37.04933696066871" lon="14.936673008432502"><ele>580.0</ele><time>2026-04-15T08:27:33.999Z</time></trkpt><trkpt lat="37.049454440061716" lon="14.936316717254803"><ele>581.0</ele><time>2026-04-15T08:27:34.999Z</time></trkpt><trkpt lat="37.0495710020852" lon="14.935960996781965"><ele>581.0</ele><time>2026-04-15T08:27:35.999Z</time></trkpt><trkpt lat="37.04968528158343" lon="14.935602271431677"><ele>581.0</ele><time>2026-04-15T08:27:36.999Z</time></trkpt><trkpt lat="37.0498026436483" lon="14.935243309863425"><ele>582.5</ele><time>2026-04-15T08:27:37.999Z</time></trkpt><trkpt lat="37.049918682097015" lon="14.934882671353977"><ele>584.0</ele><time>2026-04-15T08:27:38.999Z</time></trkpt><trkpt lat="37.05003653282744" lon="14.934522827978622"><ele>586.5</ele><time>2026-04-15T08:27:39.999Z</time></trkpt><trkpt lat="37.050154572307385" lon="14.93416097675998"><ele>589.0</ele><time>2026-04-15T08:27:40.999Z</time></trkpt><trkpt lat="37.050270291753414" lon="14.933796429030785"><ele>589.0</ele><time>2026-04-15T08:27:41.999Z</time></trkpt><trkpt lat="37.05037895028891" lon="14.93342874653253"><ele>589.0</ele><time>2026-04-15T08:27:42.999Z</time></trkpt><trkpt lat="37.05048086566087" lon="14.933055187051872"><ele>591.5</ele><time>2026-04-15T08:27:43.999Z</time></trkpt><trkpt lat="37.05057325249864" lon="14.932676834547507"><ele>594.0</ele><time>2026-04-15T08:27:44.999Z</time></trkpt><trkpt lat="37.05065145518254" lon="14.93228754959597"><ele>596.5</ele><time>2026-04-15T08:27:45.999Z</time></trkpt><trkpt lat="37.05071918212086" lon="14.931892005701478"><ele>599.0</ele><time>2026-04-15T08:27:46.999Z</time></trkpt><trkpt lat="37.05075773224281" lon="14.931489346622604"><ele>602.0</ele><time>2026-04-15T08:27:47.999Z</time></trkpt><trkpt lat="37.050786437937106" lon="14.931079970465523"><ele>605.0</ele><time>2026-04-15T08:27:48.999Z</time></trkpt><trkpt lat="37.050819395632274" lon="14.930669152319195"><ele>608.0</ele><time>2026-04-15T08:27:49.999Z</time></trkpt><trkpt lat="37.050855989046994" lon="14.930257627990542"><ele>611.0</ele><time>2026-04-15T08:27:50.999Z</time></trkpt><trkpt lat="37.05089032751525" lon="14.929859453189609"><ele>614.0</ele><time>2026-04-15T08:27:51.999Z</time></trkpt><trkpt lat="37.05091809277018" lon="14.929458043844116"><ele>617.0</ele><time>2026-04-15T08:27:52.999Z</time></trkpt><trkpt lat="37.05093987376263" lon="14.929073370001786"><ele>619.0</ele><time>2026-04-15T08:27:53.999Z</time></trkpt><trkpt lat="37.05096955892855" lon="14.928683942646225"><ele>621.0</ele><time>2026-04-15T08:27:54.999Z</time></trkpt><trkpt lat="37.051008555127886" lon="14.928292284805124"><ele>622.0</ele><time>2026-04-15T08:27:55.999Z</time></trkpt><trkpt lat="37.05103989826023" lon="14.927907666770917"><ele>623.0</ele><time>2026-04-15T08:27:56.999Z</time></trkpt><trkpt lat="37.051071331258186" lon="14.927529056379047"><ele>624.5</ele><time>2026-04-15T08:27:57.999Z</time></trkpt><trkpt lat="37.05110450135158" lon="14.927143799638573"><ele>626.0</ele><time>2026-04-15T08:27:58.999Z</time></trkpt><trkpt lat="37.05113374165456" lon="14.926764518602676"><ele>628.5</ele><time>2026-04-15T08:27:59.999Z</time></trkpt><trkpt lat="37.051165540674944" lon="14.926382180837882"><ele>631.0</ele><time>2026-04-15T08:28:00.999Z</time></trkpt><trkpt lat="37.05119719415619" lon="14.925997296370833"><ele>634.0</ele><time>2026-04-15T08:28:01.999Z</time></trkpt><trkpt lat="37.05122916923187" lon="14.925611809163192"><ele>637.0</ele><time>2026-04-15T08:28:02.999Z</time></trkpt><trkpt lat="37.05126058451879" lon="14.925227258902982"><ele>638.5</ele><time>2026-04-15T08:28:03.999Z</time></trkpt><trkpt lat="37.05128977168288" lon="14.924849141147869"><ele>640.0</ele><time>2026-04-15T08:28:04.999Z</time></trkpt><trkpt lat="37.05131879134375" lon="14.924469466011878"><ele>640.0</ele><time>2026-04-15T08:28:05.999Z</time></trkpt><trkpt lat="37.05134376371272" lon="14.924091186852687"><ele>640.0</ele><time>2026-04-15T08:28:06.999Z</time></trkpt><trkpt lat="37.0513747460554" lon="14.923708093950566"><ele>639.0</ele><time>2026-04-15T08:28:07.999Z</time></trkpt><trkpt lat="37.05140383351507" lon="14.923323092894353"><ele>638.0</ele><time>2026-04-15T08:28:08.999Z</time></trkpt><trkpt lat="37.05143499628929" lon="14.922938765365345"><ele>637.0</ele><time>2026-04-15T08:28:09.998Z</time></trkpt><trkpt lat="37.05145981552643" lon="14.922548483177335"><ele>636.0</ele><time>2026-04-15T08:28:11Z</time></trkpt><trkpt lat="37.05148448091346" lon="14.922150664116531"><ele>636.0</ele><time>2026-04-15T08:28:12Z</time></trkpt><trkpt lat="37.05150043320315" lon="14.921751084267244"><ele>636.0</ele><time>2026-04-15T08:28:13Z</time></trkpt><trkpt lat="37.051522615882774" lon="14.921351728902568"><ele>634.0</ele><time>2026-04-15T08:28:14Z</time></trkpt><trkpt lat="37.05154485445799" lon="14.920951814667053"><ele>632.0</ele><time>2026-04-15T08:28:15Z</time></trkpt><trkpt lat="37.05158903677463" lon="14.920548869045424"><ele>629.5</ele><time>2026-04-15T08:28:16Z</time></trkpt><trkpt lat="37.05165236382501" lon="14.92015632926164"><ele>627.0</ele><time>2026-04-15T08:28:17Z</time></trkpt><trkpt lat="37.05172120552308" lon="14.919773124396922"><ele>627.0</ele><time>2026-04-15T08:28:18Z</time></trkpt><trkpt lat="37.05182064324309" lon="14.919397083737909"><ele>627.0</ele><time>2026-04-15T08:28:19Z</time></trkpt><trkpt lat="37.05192049975769" lon="14.919036794906635"><ele>632.0</ele><time>2026-04-15T08:28:20Z</time></trkpt><trkpt lat="37.05205294441395" lon="14.918693503850513"><ele>637.0</ele><time>2026-04-15T08:28:21Z</time></trkpt><trkpt lat="37.05221266065508" lon="14.9183544808738"><ele>636.0</ele><time>2026-04-15T08:28:22Z</time></trkpt><trkpt lat="37.05239759622196" lon="14.91804379243268"><ele>635.0</ele><time>2026-04-15T08:28:23Z</time></trkpt><trkpt lat="37.05259382732665" lon="14.917746226112031"><ele>635.5</ele><time>2026-04-15T08:28:24Z</time></trkpt><trkpt lat="37.05281168886534" lon="14.91747042940511"><ele>636.0</ele><time>2026-04-15T08:28:25Z</time></trkpt><trkpt lat="37.0530452949621" lon="14.91721396288555"><ele>632.5</ele><time>2026-04-15T08:28:26Z</time></trkpt><trkpt lat="37.053294917083406" lon="14.916982101914746"><ele>629.0</ele><time>2026-04-15T08:28:27Z</time></trkpt><trkpt lat="37.05356120698951" lon="14.916774619787919"><ele>629.0</ele><time>2026-04-15T08:28:28Z</time></trkpt><trkpt lat="37.053835552678734" lon="14.916598428531021"><ele>629.0</ele><time>2026-04-15T08:28:29Z</time></trkpt><trkpt lat="37.05411084212104" lon="14.916446688755299"><ele>626.5</ele><time>2026-04-15T08:28:30Z</time></trkpt><trkpt lat="37.05438614342718" lon="14.916331909134282"><ele>624.0</ele><time>2026-04-15T08:28:31Z</time></trkpt><trkpt lat="37.054669360177485" lon="14.916243270719319"><ele>623.0</ele><time>2026-04-15T08:28:32Z</time></trkpt><trkpt lat="37.054957046950314" lon="14.916174587713513"><ele>622.0</ele><time>2026-04-15T08:28:33Z</time></trkpt><trkpt lat="37.055251409785164" lon="14.916112888502154"><ele>622.0</ele><time>2026-04-15T08:28:34Z</time></trkpt><trkpt lat="37.05554606742841" lon="14.916057799982777"><ele>622.0</ele><time>2026-04-15T08:28:35Z</time></trkpt><trkpt lat="37.05583604962868" lon="14.916002882035677"><ele>616.5</ele><time>2026-04-15T08:28:36Z</time></trkpt><trkpt lat="37.056118877415884" lon="14.915946430199178"><ele>611.0</ele><time>2026-04-15T08:28:37Z</time></trkpt><trkpt lat="37.05640252380683" lon="14.915890550588234"><ele>603.0</ele><time>2026-04-15T08:28:38Z</time></trkpt><trkpt lat="37.056678266084006" lon="14.915829983993993"><ele>595.0</ele><time>2026-04-15T08:28:39Z</time></trkpt><trkpt lat="37.05695302685047" lon="14.915771775962524"><ele>595.0</ele><time>2026-04-15T08:28:40Z</time></trkpt><trkpt lat="37.05723013912541" lon="14.915710849581775"><ele>595.0</ele><time>2026-04-15T08:28:41Z</time></trkpt><trkpt lat="37.05750413568601" lon="14.915646766815415"><ele>597.0</ele><time>2026-04-15T08:28:42Z</time></trkpt><trkpt lat="37.057776517545896" lon="14.915561724588239"><ele>599.0</ele><time>2026-04-15T08:28:43Z</time></trkpt><trkpt lat="37.058046459712564" lon="14.91547595002308"><ele>607.0</ele><time>2026-04-15T08:28:44Z</time></trkpt><trkpt lat="37.05831156753319" lon="14.915366095128034"><ele>615.0</ele><time>2026-04-15T08:28:45Z</time></trkpt><trkpt lat="37.058569971134276" lon="14.915232930761173"><ele>622.0</ele><time>2026-04-15T08:28:46Z</time></trkpt><trkpt lat="37.0588154845328" lon="14.915070607813727"><ele>629.0</ele><time>2026-04-15T08:28:47Z</time></trkpt><trkpt lat="37.05905391262063" lon="14.914897474634767"><ele>630.0</ele><time>2026-04-15T08:28:48Z</time></trkpt><trkpt lat="37.059304375834266" lon="14.914694753601507"><ele>631.0</ele><time>2026-04-15T08:28:49Z</time></trkpt><trkpt lat="37.05950782339637" lon="14.914463593872815"><ele>633.5</ele><time>2026-04-15T08:28:50Z</time></trkpt><trkpt lat="37.05969977562451" lon="14.914224174548169"><ele>636.0</ele><time>2026-04-15T08:28:51Z</time></trkpt><trkpt lat="37.05989220423082" lon="14.91399724914853"><ele>635.5</ele><time>2026-04-15T08:28:52Z</time></trkpt><trkpt lat="37.06008341869775" lon="14.913750907315753"><ele>635.0</ele><time>2026-04-15T08:28:53Z</time></trkpt><trkpt lat="37.0602655922021" lon="14.91350524313924"><ele>638.0</ele><time>2026-04-15T08:28:54Z</time></trkpt><trkpt lat="37.06043015299024" lon="14.913262838249498"><ele>641.0</ele><time>2026-04-15T08:28:55Z</time></trkpt><trkpt lat="37.06059073739041" lon="14.913057885000704"><ele>641.0</ele><time>2026-04-15T08:28:56Z</time></trkpt><trkpt lat="37.060748866212165" lon="14.912856093736337"><ele>641.0</ele><time>2026-04-15T08:28:57Z</time></trkpt><trkpt lat="37.06089733624238" lon="14.912654192535923"><ele>641.0</ele><time>2026-04-15T08:28:58Z</time></trkpt><trkpt lat="37.06103964380289" lon="14.912470541575463"><ele>638.0</ele><time>2026-04-15T08:28:59Z</time></trkpt><trkpt lat="37.061169386047865" lon="14.912292717422691"><ele>635.0</ele><time>2026-04-15T08:29:00Z</time></trkpt><trkpt lat="37.06129687849556" lon="14.912129083174921"><ele>632.0</ele><time>2026-04-15T08:29:01Z</time></trkpt><trkpt lat="37.06142612655658" lon="14.91198412416631"><ele>632.0</ele><time>2026-04-15T08:29:02Z</time></trkpt><trkpt lat="37.06155489200809" lon="14.911854075569574"><ele>632.0</ele><time>2026-04-15T08:29:03Z</time></trkpt><trkpt lat="37.061706118691355" lon="14.911770814937737"><ele>632.0</ele><time>2026-04-15T08:29:04Z</time></trkpt><trkpt lat="37.06186155337409" lon="14.91171857741465"><ele>630.3333333333333</ele><time>2026-04-15T08:29:04.999Z</time></trkpt><trkpt lat="37.062017545398106" lon="14.911675146129586"><ele>628.6666666666666</ele><time>2026-04-15T08:29:05.999Z</time></trkpt><trkpt lat="37.062183523706615" lon="14.91164144263327"><ele>627.0</ele><time>2026-04-15T08:29:06.999Z</time></trkpt><trkpt lat="37.062356016661575" lon="14.911608358467173"><ele>619.0</ele><time>2026-04-15T08:29:07.999Z</time></trkpt><trkpt lat="37.06253409534627" lon="14.911571915600367"><ele>611.0</ele><time>2026-04-15T08:29:08.999Z</time></trkpt><trkpt lat="37.0627100310543" lon="14.911535581369378"><ele>603.0</ele><time>2026-04-15T08:29:09.999Z</time></trkpt><trkpt lat="37.06288290808613" lon="14.911498135903088"><ele>603.0</ele><time>2026-04-15T08:29:10.999Z</time></trkpt><trkpt lat="37.06305725087184" lon="14.911461028378056"><ele>603.0</ele><time>2026-04-15T08:29:11.999Z</time></trkpt><trkpt lat="37.063230814232725" lon="14.911425869835186"><ele>603.0</ele><time>2026-04-15T08:29:12.999Z</time></trkpt><trkpt lat="37.0634006641791" lon="14.911391408969218"><ele>604.6666666666666</ele><time>2026-04-15T08:29:13.999Z</time></trkpt><trkpt lat="37.063563988356485" lon="14.91135524752384"><ele>606.3333333333333</ele><time>2026-04-15T08:29:14.999Z</time></trkpt><trkpt lat="37.06371796472245" lon="14.911324699453802"><ele>608.0</ele><time>2026-04-15T08:29:15.999Z</time></trkpt><trkpt lat="37.063859588444664" lon="14.911293573290353"><ele>608.0</ele><time>2026-04-15T08:29:16.999Z</time></trkpt><trkpt lat="37.06399560007392" lon="14.911263122509336"><ele>608.0</ele><time>2026-04-15T08:29:17.999Z</time></trkpt><trkpt lat="37.06413737318398" lon="14.911234434842028"><ele>608.0</ele><time>2026-04-15T08:29:18.999Z</time></trkpt><trkpt lat="37.064293900908126" lon="14.911205300124966"><ele>608.0</ele><time>2026-04-15T08:29:19.999Z</time></trkpt><trkpt lat="37.06445473865495" lon="14.91117663021313"><ele>613.0</ele><time>2026-04-15T08:29:20.999Z</time></trkpt><trkpt lat="37.06462435729049" lon="14.911143286858382"><ele>618.0</ele><time>2026-04-15T08:29:21.999Z</time></trkpt><trkpt lat="37.06478062014026" lon="14.911111475648653"><ele>623.0</ele><time>2026-04-15T08:29:22.999Z</time></trkpt><trkpt lat="37.06493074765231" lon="14.911077387244632"><ele>624.25</ele><time>2026-04-15T08:29:23.999Z</time></trkpt><trkpt lat="37.065072941809625" lon="14.911043899747632"><ele>625.5</ele><time>2026-04-15T08:29:24.999Z</time></trkpt><trkpt lat="37.06520707229761" lon="14.911013871711113"><ele>626.75</ele><time>2026-04-15T08:29:25.999Z</time></trkpt><trkpt lat="37.065331733511236" lon="14.910977544781442"><ele>628.0</ele><time>2026-04-15T08:29:26.999Z</time></trkpt><trkpt lat="37.065449084025374" lon="14.910931944615628"><ele>627.6666666666667</ele><time>2026-04-15T08:29:27.999Z</time></trkpt><trkpt lat="37.065559083174016" lon="14.91087679662005"><ele>627.3333333333334</ele><time>2026-04-15T08:29:28.999Z</time></trkpt><trkpt lat="37.06565401731867" lon="14.91082317415488"><ele>627.0</ele><time>2026-04-15T08:29:29.999Z</time></trkpt><trkpt lat="37.065730634619484" lon="14.910779996415668"><ele>626.6666666666666</ele><time>2026-04-15T08:29:30.999Z</time></trkpt><trkpt lat="37.06579881407708" lon="14.910748538786292"><ele>626.3333333333333</ele><time>2026-04-15T08:29:31.999Z</time></trkpt><trkpt lat="37.06586123803562" lon="14.910712022780814"><ele>626.0</ele><time>2026-04-15T08:29:32.999Z</time></trkpt><trkpt lat="37.06591095296568" lon="14.910650446688974"><ele>626.0</ele><time>2026-04-15T08:29:33.999Z</time></trkpt><trkpt lat="37.065956967631635" lon="14.910558354125989"><ele>626.0</ele><time>2026-04-15T08:29:34.999Z</time></trkpt><trkpt lat="37.06601598081182" lon="14.91048330540358"><ele>626.0</ele><time>2026-04-15T08:29:35.999Z</time></trkpt><trkpt lat="37.06609926742065" lon="14.910427069291352"><ele>626.0</ele><time>2026-04-15T08:29:36.999Z</time></trkpt><trkpt lat="37.06618999335176" lon="14.91036444471101"><ele>626.0</ele><time>2026-04-15T08:29:37.999Z</time></trkpt><trkpt lat="37.06628229514748" lon="14.910290433281729"><ele>626.0</ele><time>2026-04-15T08:29:38.999Z</time></trkpt><trkpt lat="37.066369212425165" lon="14.910208085530547"><ele>626.0</ele><time>2026-04-15T08:29:39.999Z</time></trkpt><trkpt lat="37.06646613173313" lon="14.910123925125056"><ele>626.0</ele><time>2026-04-15T08:29:40.999Z</time></trkpt><trkpt lat="37.06655398048831" lon="14.910057325644486"><ele>626.0</ele><time>2026-04-15T08:29:41.999Z</time></trkpt><trkpt lat="37.06663349135649" lon="14.910003231414011"><ele>626.0</ele><time>2026-04-15T08:29:42.999Z</time></trkpt><trkpt lat="37.06669952526723" lon="14.909956249358766"><ele>626.4</ele><time>2026-04-15T08:29:43.999Z</time></trkpt><trkpt lat="37.06675621306586" lon="14.909910367039924"><ele>626.8</ele><time>2026-04-15T08:29:44.999Z</time></trkpt><trkpt lat="37.066814356951184" lon="14.909858646742222"><ele>627.1999999999999</ele><time>2026-04-15T08:29:45.999Z</time></trkpt><trkpt lat="37.066903877166766" lon="14.909776777262687"><ele>627.6</ele><time>2026-04-15T08:29:46.999Z</time></trkpt><trkpt lat="37.06702221035535" lon="14.909685103417523"><ele>628.0</ele><time>2026-04-15T08:29:47.999Z</time></trkpt><trkpt lat="37.067155237449676" lon="14.909587151917066"><ele>628.0</ele><time>2026-04-15T08:29:48.999Z</time></trkpt><trkpt lat="37.067300096178286" lon="14.909473834903215"><ele>628.0</ele><time>2026-04-15T08:29:49.999Z</time></trkpt><trkpt lat="37.067438934438265" lon="14.909344983440493"><ele>628.0</ele><time>2026-04-15T08:29:50.999Z</time></trkpt><trkpt lat="37.0675674305543" lon="14.90920670408066"><ele>628.75</ele><time>2026-04-15T08:29:51.999Z</time></trkpt><trkpt lat="37.06766798560745" lon="14.909053496620679"><ele>629.5</ele><time>2026-04-15T08:29:52.999Z</time></trkpt><trkpt lat="37.06775346033342" lon="14.90888964882338"><ele>630.25</ele><time>2026-04-15T08:29:53.999Z</time></trkpt><trkpt lat="37.06780631224471" lon="14.908735608654673"><ele>631.0</ele><time>2026-04-15T08:29:54.999Z</time></trkpt><trkpt lat="37.06784674269085" lon="14.90859164542225"><ele>631.0</ele><time>2026-04-15T08:29:55.999Z</time></trkpt><trkpt lat="37.0678773091739" lon="14.90845923951511"><ele>631.0</ele><time>2026-04-15T08:29:56.999Z</time></trkpt><trkpt lat="37.0679035721006" lon="14.908340272245335"><ele>631.0</ele><time>2026-04-15T08:29:57.999Z</time></trkpt><trkpt lat="37.06792784237324" lon="14.908229047153856"><ele>631.0</ele><time>2026-04-15T08:29:58.999Z</time></trkpt><trkpt lat="37.067955662027764" lon="14.908124096850635"><ele>631.0</ele><time>2026-04-15T08:29:59.999Z</time></trkpt><trkpt lat="37.06798981220278" lon="14.908021023271916"><ele>632.0</ele><time>2026-04-15T08:30:00.999Z</time></trkpt><trkpt lat="37.06801695882791" lon="14.907913826429036"><ele>633.0</ele><time>2026-04-15T08:30:01.999Z</time></trkpt><trkpt lat="37.0680078113827" lon="14.907795529000733"><ele>634.0</ele><time>2026-04-15T08:30:02.999Z</time></trkpt><trkpt lat="37.06796047700435" lon="14.907672999250822"><ele>635.0</ele><time>2026-04-15T08:30:03.999Z</time></trkpt><trkpt lat="37.06792330804403" lon="14.907549265186542"><ele>636.0</ele><time>2026-04-15T08:30:04.999Z</time></trkpt><trkpt lat="37.067900873973436" lon="14.907409739933835"><ele>636.75</ele><time>2026-04-15T08:30:05.999Z</time></trkpt><trkpt lat="37.06788277882475" lon="14.907257338341127"><ele>637.5</ele><time>2026-04-15T08:30:06.999Z</time></trkpt><trkpt lat="37.06783918974737" lon="14.907113176563403"><ele>638.25</ele><time>2026-04-15T08:30:07.999Z</time></trkpt><trkpt lat="37.067785014896174" lon="14.906961833946582"><ele>639.0</ele><time>2026-04-15T08:30:08.999Z</time></trkpt><trkpt lat="37.0677328345219" lon="14.906806220699798"><ele>639.25</ele><time>2026-04-15T08:30:09.999Z</time></trkpt><trkpt lat="37.0676799129426" lon="14.906643571266573"><ele>639.5</ele><time>2026-04-15T08:30:10.999Z</time></trkpt><trkpt lat="37.067625789131604" lon="14.90648369345802"><ele>639.75</ele><time>2026-04-15T08:30:11.999Z</time></trkpt><trkpt lat="37.06756101920623" lon="14.906301722939137"><ele>640.0</ele><time>2026-04-15T08:30:12.998Z</time></trkpt><trkpt lat="37.06748796357545" lon="14.906088930218914"><ele>642.0</ele><time>2026-04-15T08:30:13.998Z</time></trkpt><trkpt lat="37.067408492860764" lon="14.905868078078335"><ele>644.0</ele><time>2026-04-15T08:30:14.998Z</time></trkpt><trkpt lat="37.067336358769374" lon="14.905645092496682"><ele>646.0</ele><time>2026-04-15T08:30:15.998Z</time></trkpt><trkpt lat="37.06727106985214" lon="14.905425563792985"><ele>646.0</ele><time>2026-04-15T08:30:17Z</time></trkpt><trkpt lat="37.06720225226402" lon="14.905207934188786"><ele>646.0</ele><time>2026-04-15T08:30:18Z</time></trkpt><trkpt lat="37.067127090911406" lon="14.904997002190221"><ele>646.0</ele><time>2026-04-15T08:30:19Z</time></trkpt><trkpt lat="37.06703674463763" lon="14.9047946489902"><ele>646.6666666666667</ele><time>2026-04-15T08:30:20Z</time></trkpt><trkpt lat="37.06692620652111" lon="14.904608902808329"><ele>647.3333333333334</ele><time>2026-04-15T08:30:21Z</time></trkpt><trkpt lat="37.06679788089881" lon="14.904448076781259"><ele>648.0</ele><time>2026-04-15T08:30:22Z</time></trkpt><trkpt lat="37.06667005188005" lon="14.904309380992505"><ele>649.0</ele><time>2026-04-15T08:30:23Z</time></trkpt><trkpt lat="37.06655533733729" lon="14.904160482751378"><ele>650.0</ele><time>2026-04-15T08:30:24Z</time></trkpt><trkpt lat="37.06647123241607" lon="14.903997100834532"><ele>651.0</ele><time>2026-04-15T08:30:25Z</time></trkpt><trkpt lat="37.06639679564313" lon="14.903805936900769"><ele>651.0</ele><time>2026-04-15T08:30:26Z</time></trkpt><trkpt lat="37.066348319654615" lon="14.903594183240427"><ele>651.0</ele><time>2026-04-15T08:30:27Z</time></trkpt><trkpt lat="37.06630859232233" lon="14.903385889222937"><ele>651.0</ele><time>2026-04-15T08:30:28Z</time></trkpt><trkpt lat="37.066265051793955" lon="14.903174716708957"><ele>652.6666666666666</ele><time>2026-04-15T08:30:29Z</time></trkpt><trkpt lat="37.06621490747539" lon="14.902985123585479"><ele>654.3333333333333</ele><time>2026-04-15T08:30:30Z</time></trkpt><trkpt lat="37.06616806098453" lon="14.90279143859522"><ele>656.0</ele><time>2026-04-15T08:30:31Z</time></trkpt><trkpt lat="37.06611436227081" lon="14.902588195142375"><ele>656.0</ele><time>2026-04-15T08:30:32Z</time></trkpt><trkpt lat="37.06605993731269" lon="14.902407680974905"><ele>656.0</ele><time>2026-04-15T08:30:33Z</time></trkpt><trkpt lat="37.06600201893655" lon="14.902236424049818"><ele>656.0</ele><time>2026-04-15T08:30:34Z</time></trkpt><trkpt lat="37.065949923400666" lon="14.902070232833136"><ele>656.0</ele><time>2026-04-15T08:30:35Z</time></trkpt><trkpt lat="37.06589313854665" lon="14.901907145289021"><ele>656.0</ele><time>2026-04-15T08:30:36Z</time></trkpt><trkpt lat="37.06582969576649" lon="14.901748934885834"><ele>656.0</ele><time>2026-04-15T08:30:37Z</time></trkpt><trkpt lat="37.065748910829356" lon="14.901594294338759"><ele>656.0</ele><time>2026-04-15T08:30:38Z</time></trkpt><trkpt lat="37.0656549078447" lon="14.901445184435135"><ele>656.0</ele><time>2026-04-15T08:30:39Z</time></trkpt><trkpt lat="37.065549250428795" lon="14.901313699819214"><ele>657.0</ele><time>2026-04-15T08:30:40Z</time></trkpt><trkpt lat="37.06543798101727" lon="14.901183123684339"><ele>658.0</ele><time>2026-04-15T08:30:41Z</time></trkpt><trkpt lat="37.06533004045668" lon="14.9010608564476"><ele>659.0</ele><time>2026-04-15T08:30:42Z</time></trkpt><trkpt lat="37.06521743037049" lon="14.900946403687614"><ele>660.0</ele><time>2026-04-15T08:30:43Z</time></trkpt><trkpt lat="37.06510559275727" lon="14.90084028872296"><ele>656.75</ele><time>2026-04-15T08:30:44Z</time></trkpt><trkpt lat="37.06498298667407" lon="14.90076345812552"><ele>653.5</ele><time>2026-04-15T08:30:45Z</time></trkpt><trkpt lat="37.06485588504975" lon="14.900736318121536"><ele>650.25</ele><time>2026-04-15T08:30:46Z</time></trkpt><trkpt lat="37.06471879550716" lon="14.900732713411433"><ele>647.0</ele><time>2026-04-15T08:30:47Z</time></trkpt><trkpt lat="37.06457532851077" lon="14.900739634983488"><ele>647.0</ele><time>2026-04-15T08:30:48Z</time></trkpt><trkpt lat="37.06443858558765" lon="14.900722047924363"><ele>647.0</ele><time>2026-04-15T08:30:49Z</time></trkpt><trkpt lat="37.06430079136485" lon="14.900692584186432"><ele>647.0</ele><time>2026-04-15T08:30:50Z</time></trkpt><trkpt lat="37.0641624996688" lon="14.900639950319883"><ele>647.0</ele><time>2026-04-15T08:30:51Z</time></trkpt><trkpt lat="37.064019422745304" lon="14.9005353774086"><ele>651.0</ele><time>2026-04-15T08:30:52Z</time></trkpt><trkpt lat="37.0638709889981" lon="14.900400022692166"><ele>655.0</ele><time>2026-04-15T08:30:53Z</time></trkpt><trkpt lat="37.06374004619995" lon="14.900244752305227"><ele>659.0</ele><time>2026-04-15T08:30:54Z</time></trkpt><trkpt lat="37.06363358168471" lon="14.900040280971776"><ele>659.0</ele><time>2026-04-15T08:30:55Z</time></trkpt><trkpt lat="37.063549450252054" lon="14.899849876244913"><ele>659.0</ele><time>2026-04-15T08:30:56Z</time></trkpt><trkpt lat="37.06346552873199" lon="14.899707311786816"><ele>659.0</ele><time>2026-04-15T08:30:57Z</time></trkpt><trkpt lat="37.06340557428963" lon="14.899616754067456"><ele>659.0</ele><time>2026-04-15T08:30:58Z</time></trkpt><trkpt lat="37.063353846215534" lon="14.899566349285863"><ele>664.1666666666666</ele><time>2026-04-15T08:30:59Z</time></trkpt><trkpt lat="37.06327568327133" lon="14.899509766062666"><ele>669.3333333333333</ele><time>2026-04-15T08:31:01Z</time></trkpt><trkpt lat="37.06321059761665" lon="14.899459255057788"><ele>674.5</ele><time>2026-04-15T08:31:03Z</time></trkpt><trkpt lat="37.06314746596161" lon="14.899415392533319"><ele>679.6666666666666</ele><time>2026-04-15T08:31:04Z</time></trkpt><trkpt lat="37.06309023009599" lon="14.899367266402626"><ele>684.8333333333334</ele><time>2026-04-15T08:31:05Z</time></trkpt><trkpt lat="37.0630321267949" lon="14.899318373712658"><ele>690.0</ele><time>2026-04-15T08:31:06Z</time></trkpt><trkpt lat="37.062955818947074" lon="14.899256294898914"><ele>684.0</ele><time>2026-04-15T08:31:07Z</time></trkpt><trkpt lat="37.062862467924006" lon="14.89918832809531"><ele>678.0</ele><time>2026-04-15T08:31:08Z</time></trkpt><trkpt lat="37.06276635767973" lon="14.899110560667534"><ele>672.0</ele><time>2026-04-15T08:31:08.999Z</time></trkpt><trkpt lat="37.06266202498526" lon="14.898994131513437"><ele>666.0</ele><time>2026-04-15T08:31:09.999Z</time></trkpt><trkpt lat="37.06257029798904" lon="14.898844647293144"><ele>666.0</ele><time>2026-04-15T08:31:10.999Z</time></trkpt><trkpt lat="37.06249484712308" lon="14.898683601274879"><ele>666.0</ele><time>2026-04-15T08:31:11.999Z</time></trkpt><trkpt lat="37.062416779388975" lon="14.898516660180126"><ele>666.0</ele><time>2026-04-15T08:31:12.999Z</time></trkpt><trkpt lat="37.0623304962987" lon="14.898343354933639"><ele>671.3333333333334</ele><time>2026-04-15T08:31:13.999Z</time></trkpt><trkpt lat="37.06223681138304" lon="14.898161844472831"><ele>676.6666666666667</ele><time>2026-04-15T08:31:14.999Z</time></trkpt><trkpt lat="37.06214141900609" lon="14.897974627237124"><ele>682.0</ele><time>2026-04-15T08:31:15.999Z</time></trkpt><trkpt lat="37.06205344881132" lon="14.897787480017268"><ele>682.0</ele><time>2026-04-15T08:31:16.999Z</time></trkpt><trkpt lat="37.06197913911708" lon="14.897607267023114"><ele>682.0</ele><time>2026-04-15T08:31:17.999Z</time></trkpt><trkpt lat="37.06192355955741" lon="14.897422276467148"><ele>682.0</ele><time>2026-04-15T08:31:18.999Z</time></trkpt><trkpt lat="37.061891986548" lon="14.89723483180927"><ele>677.0</ele><time>2026-04-15T08:31:19.999Z</time></trkpt><trkpt lat="37.061886058691" lon="14.89705244193813"><ele>672.0</ele><time>2026-04-15T08:31:20.999Z</time></trkpt><trkpt lat="37.06189641358617" lon="14.896879982420927"><ele>667.0</ele><time>2026-04-15T08:31:21.999Z</time></trkpt><trkpt lat="37.06193018786033" lon="14.89671754832656"><ele>662.0</ele><time>2026-04-15T08:31:22.999Z</time></trkpt><trkpt lat="37.06200086098167" lon="14.896570291169548"><ele>661.5</ele><time>2026-04-15T08:31:23.999Z</time></trkpt><trkpt lat="37.06208858206409" lon="14.896429732172212"><ele>661.0</ele><time>2026-04-15T08:31:24.999Z</time></trkpt><trkpt lat="37.06218716274739" lon="14.896293919543554"><ele>660.5</ele><time>2026-04-15T08:31:25.999Z</time></trkpt><trkpt lat="37.06229689240587" lon="14.896171191766399"><ele>660.0</ele><time>2026-04-15T08:31:26.999Z</time></trkpt><trkpt lat="37.06240624598704" lon="14.896049984922572"><ele>654.0</ele><time>2026-04-15T08:31:27.999Z</time></trkpt><trkpt lat="37.06250424363096" lon="14.895916414147301"><ele>648.0</ele><time>2026-04-15T08:31:28.999Z</time></trkpt><trkpt lat="37.06259721778911" lon="14.89578526049457"><ele>642.0</ele><time>2026-04-15T08:31:29.999Z</time></trkpt><trkpt lat="37.06268812505756" lon="14.895645348681047"><ele>636.0</ele><time>2026-04-15T08:31:30.999Z</time></trkpt><trkpt lat="37.06278159158452" lon="14.895489102808023"><ele>636.0</ele><time>2026-04-15T08:31:31.999Z</time></trkpt><trkpt lat="37.06289088366767" lon="14.895330945965487"><ele>636.0</ele><time>2026-04-15T08:31:32.999Z</time></trkpt><trkpt lat="37.06302556332386" lon="14.895193860881056"><ele>636.0</ele><time>2026-04-15T08:31:33.999Z</time></trkpt><trkpt lat="37.063183882304216" lon="14.895122241143754"><ele>627.0</ele><time>2026-04-15T08:31:34.999Z</time></trkpt><trkpt lat="37.06335030528626" lon="14.89511727742815"><ele>618.0</ele><time>2026-04-15T08:31:35.999Z</time></trkpt><trkpt lat="37.063524251861125" lon="14.895172158896903"><ele>609.0</ele><time>2026-04-15T08:31:36.999Z</time></trkpt><trkpt lat="37.06367838759444" lon="14.895249191018523"><ele>609.0</ele><time>2026-04-15T08:31:37.999Z</time></trkpt><trkpt lat="37.06383523816763" lon="14.895263598697412"><ele>609.0</ele><time>2026-04-15T08:31:38.999Z</time></trkpt><trkpt lat="37.06398551981002" lon="14.895270287873103"><ele>609.0</ele><time>2026-04-15T08:31:39.999Z</time></trkpt><trkpt lat="37.06413692135793" lon="14.895229069757438"><ele>608.3333333333334</ele><time>2026-04-15T08:31:40.999Z</time></trkpt><trkpt lat="37.06428430673102" lon="14.89512650222419"><ele>607.6666666666667</ele><time>2026-04-15T08:31:41.999Z</time></trkpt><trkpt lat="37.06441206210878" lon="14.894980922906806"><ele>607.0</ele><time>2026-04-15T08:31:42.999Z</time></trkpt><trkpt lat="37.064499018689766" lon="14.894799164104233"><ele>613.3333333333334</ele><time>2026-04-15T08:31:43.999Z</time></trkpt><trkpt lat="37.06453032665635" lon="14.894595087484214"><ele>619.6666666666666</ele><time>2026-04-15T08:31:44.999Z</time></trkpt><trkpt lat="37.064530934088715" lon="14.89438140091758"><ele>626.0</ele><time>2026-04-15T08:31:45.999Z</time></trkpt><trkpt lat="37.06452821784479" lon="14.894169475148292"><ele>629.0</ele><time>2026-04-15T08:31:46.999Z</time></trkpt><trkpt lat="37.064534134634215" lon="14.89396712321529"><ele>632.0</ele><time>2026-04-15T08:31:47.999Z</time></trkpt><trkpt lat="37.06455191749458" lon="14.893767764428555"><ele>635.0</ele><time>2026-04-15T08:31:48.999Z</time></trkpt><trkpt lat="37.064579811240996" lon="14.89356358800486"><ele>635.3333333333333</ele><time>2026-04-15T08:31:49.999Z</time></trkpt><trkpt lat="37.06462411696573" lon="14.89336270390911"><ele>635.6666666666666</ele><time>2026-04-15T08:31:50.999Z</time></trkpt><trkpt lat="37.064682839443094" lon="14.893161516446435"><ele>636.0</ele><time>2026-04-15T08:31:51.999Z</time></trkpt><trkpt lat="37.06473621948237" lon="14.892956941298337"><ele>636.0</ele><time>2026-04-15T08:31:52.999Z</time></trkpt><trkpt lat="37.06477338956376" lon="14.892745656183253"><ele>636.0</ele><time>2026-04-15T08:31:53.999Z</time></trkpt><trkpt lat="37.06479500825707" lon="14.892529907767617"><ele>636.0</ele><time>2026-04-15T08:31:54.999Z</time></trkpt><trkpt lat="37.06480489321883" lon="14.892312165006809"><ele>634.6666666666666</ele><time>2026-04-15T08:31:55.999Z</time></trkpt><trkpt lat="37.064810125711006" lon="14.89210135716929"><ele>633.3333333333333</ele><time>2026-04-15T08:31:56.999Z</time></trkpt><trkpt lat="37.06483814582543" lon="14.891899168845708"><ele>632.0</ele><time>2026-04-15T08:31:57.999Z</time></trkpt><trkpt lat="37.06491766893452" lon="14.891729545711001"><ele>626.0</ele><time>2026-04-15T08:31:58.999Z</time></trkpt><trkpt lat="37.06502343457816" lon="14.891612627775338"><ele>620.0</ele><time>2026-04-15T08:31:59.999Z</time></trkpt><trkpt lat="37.06514927001543" lon="14.891558908936451"><ele>614.0</ele><time>2026-04-15T08:32:00.999Z</time></trkpt><trkpt lat="37.06527806500799" lon="14.891544060866709"><ele>608.0</ele><time>2026-04-15T08:32:01.999Z</time></trkpt><trkpt lat="37.06540385116756" lon="14.891566035724008"><ele>608.0</ele><time>2026-04-15T08:32:02.999Z</time></trkpt><trkpt lat="37.06552484405153" lon="14.891610564671042"><ele>608.0</ele><time>2026-04-15T08:32:03.999Z</time></trkpt><trkpt lat="37.06564101715659" lon="14.891667477699137"><ele>608.0</ele><time>2026-04-15T08:32:04.999Z</time></trkpt><trkpt lat="37.06575528619318" lon="14.891729494844062"><ele>608.0</ele><time>2026-04-15T08:32:05.999Z</time></trkpt><trkpt lat="37.06587329981409" lon="14.891777145373682"><ele>606.75</ele><time>2026-04-15T08:32:06.999Z</time></trkpt><trkpt lat="37.06600020244475" lon="14.891797931403547"><ele>605.5</ele><time>2026-04-15T08:32:07.999Z</time></trkpt><trkpt lat="37.066129929698135" lon="14.891793163610572"><ele>604.25</ele><time>2026-04-15T08:32:08.999Z</time></trkpt><trkpt lat="37.066256881363564" lon="14.891762022406825"><ele>603.0</ele><time>2026-04-15T08:32:09.999Z</time></trkpt><trkpt lat="37.0663774079518" lon="14.8917159023745"><ele>603.0</ele><time>2026-04-15T08:32:10.999Z</time></trkpt><trkpt lat="37.0664991714004" lon="14.89163900776628"><ele>603.0</ele><time>2026-04-15T08:32:11.999Z</time></trkpt><trkpt lat="37.06661383582016" lon="14.891521372090333"><ele>603.0</ele><time>2026-04-15T08:32:12.999Z</time></trkpt><trkpt lat="37.066703624326585" lon="14.89138399182733"><ele>603.0</ele><time>2026-04-15T08:32:13.999Z</time></trkpt><trkpt lat="37.0667735074736" lon="14.89123412013627"><ele>602.6666666666666</ele><time>2026-04-15T08:32:14.999Z</time></trkpt><trkpt lat="37.066813698717496" lon="14.891064451456222"><ele>602.3333333333333</ele><time>2026-04-15T08:32:15.998Z</time></trkpt><trkpt lat="37.066832503952824" lon="14.890879954393565"><ele>602.0</ele><time>2026-04-15T08:32:16.998Z</time></trkpt><trkpt lat="37.06681888416142" lon="14.890679776402063"><ele>602.0</ele><time>2026-04-15T08:32:17.998Z</time></trkpt><trkpt lat="37.06679686409803" lon="14.890504462960967"><ele>602.0</ele><time>2026-04-15T08:32:18.998Z</time></trkpt><trkpt lat="37.06673793582722" lon="14.890339694075738"><ele>602.0</ele><time>2026-04-15T08:32:19.998Z</time></trkpt><trkpt lat="37.0666521385822" lon="14.890185462278248"><ele>602.0</ele><time>2026-04-15T08:32:20.998Z</time></trkpt><trkpt lat="37.066540778257" lon="14.890055734045676"><ele>602.0</ele><time>2026-04-15T08:32:21.998Z</time></trkpt><trkpt lat="37.06641201590959" lon="14.889959381910968"><ele>602.0</ele><time>2026-04-15T08:32:23Z</time></trkpt><trkpt lat="37.06626629246545" lon="14.889875518768532"><ele>602.0</ele><time>2026-04-15T08:32:24Z</time></trkpt><trkpt lat="37.06611291070376" lon="14.889813690106356"><ele>602.0</ele><time>2026-04-15T08:32:25Z</time></trkpt><trkpt lat="37.0659621739685" lon="14.889735990282606"><ele>602.0</ele><time>2026-04-15T08:32:26Z</time></trkpt><trkpt lat="37.065810055429374" lon="14.889655551905562"><ele>602.0</ele><time>2026-04-15T08:32:27Z</time></trkpt><trkpt lat="37.06565727204263" lon="14.889576943167324"><ele>600.3333333333333</ele><time>2026-04-15T08:32:28Z</time></trkpt><trkpt lat="37.065503441596455" lon="14.889486924522137"><ele>598.6666666666666</ele><time>2026-04-15T08:32:29Z</time></trkpt><trkpt lat="37.06535530769321" lon="14.889381347634867"><ele>597.0</ele><time>2026-04-15T08:32:30Z</time></trkpt><trkpt lat="37.06521543138323" lon="14.889253450969633"><ele>597.0</ele><time>2026-04-15T08:32:31Z</time></trkpt><trkpt lat="37.06508819293061" lon="14.889106156646584"><ele>597.0</ele><time>2026-04-15T08:32:32Z</time></trkpt><trkpt lat="37.06496256692403" lon="14.888945330257384"><ele>597.0</ele><time>2026-04-15T08:32:33Z</time></trkpt><trkpt lat="37.06482815804131" lon="14.88877690357796"><ele>595.3333333333334</ele><time>2026-04-15T08:32:34Z</time></trkpt><trkpt lat="37.064690357056115" lon="14.888607246284836"><ele>593.6666666666667</ele><time>2026-04-15T08:32:35Z</time></trkpt><trkpt lat="37.06455183763077" lon="14.888438540656638"><ele>592.0</ele><time>2026-04-15T08:32:36Z</time></trkpt><trkpt lat="37.064407665608364" lon="14.888263899454907"><ele>592.0</ele><time>2026-04-15T08:32:37Z</time></trkpt><trkpt lat="37.064270456256864" lon="14.888084914755213"><ele>592.0</ele><time>2026-04-15T08:32:38Z</time></trkpt><trkpt lat="37.06414737049379" lon="14.887904787958018"><ele>592.0</ele><time>2026-04-15T08:32:39Z</time></trkpt><trkpt lat="37.06402897285914" lon="14.887683742821512"><ele>594.5</ele><time>2026-04-15T08:32:40Z</time></trkpt><trkpt lat="37.06391773479787" lon="14.887421407437953"><ele>597.0</ele><time>2026-04-15T08:32:41Z</time></trkpt><trkpt lat="37.063805571476976" lon="14.887134817598955"><ele>597.0</ele><time>2026-04-15T08:32:42Z</time></trkpt><trkpt lat="37.063697320427046" lon="14.886837247812348"><ele>597.0</ele><time>2026-04-15T08:32:43Z</time></trkpt><trkpt lat="37.06358955210362" lon="14.886554515590781"><ele>594.0</ele><time>2026-04-15T08:32:44Z</time></trkpt><trkpt lat="37.063485485434256" lon="14.886265097351522"><ele>591.0</ele><time>2026-04-15T08:32:45Z</time></trkpt><trkpt lat="37.06338265197323" lon="14.885989295996806"><ele>591.0</ele><time>2026-04-15T08:32:46Z</time></trkpt><trkpt lat="37.06328036946854" lon="14.885725274596716"><ele>591.0</ele><time>2026-04-15T08:32:47Z</time></trkpt><trkpt lat="37.06318271679454" lon="14.885469244433697"><ele>591.0</ele><time>2026-04-15T08:32:48Z</time></trkpt><trkpt lat="37.063087503012355" lon="14.885220578715119"><ele>591.0</ele><time>2026-04-15T08:32:49Z</time></trkpt><trkpt lat="37.06299704853789" lon="14.884978916197676"><ele>591.0</ele><time>2026-04-15T08:32:50Z</time></trkpt><trkpt lat="37.06292326962465" lon="14.88475462402545"><ele>588.6666666666666</ele><time>2026-04-15T08:32:51Z</time></trkpt><trkpt lat="37.06285798046374" lon="14.88453141577157"><ele>586.3333333333333</ele><time>2026-04-15T08:32:52Z</time></trkpt><trkpt lat="37.06282324923092" lon="14.884304463028187"><ele>584.0</ele><time>2026-04-15T08:32:53Z</time></trkpt><trkpt lat="37.06283053275959" lon="14.884066843006005"><ele>582.3333333333333</ele><time>2026-04-15T08:32:54Z</time></trkpt><trkpt lat="37.062871119531366" lon="14.883816284109784"><ele>580.6666666666666</ele><time>2026-04-15T08:32:55Z</time></trkpt><trkpt lat="37.062950434496656" lon="14.883582164671909"><ele>579.0</ele><time>2026-04-15T08:32:56Z</time></trkpt><trkpt lat="37.06305572277529" lon="14.88337513035902"><ele>579.0</ele><time>2026-04-15T08:32:57Z</time></trkpt><trkpt lat="37.06314720374195" lon="14.883155731077643"><ele>579.0</ele><time>2026-04-15T08:32:58Z</time></trkpt><trkpt lat="37.06326254486661" lon="14.882910668235711"><ele>579.0</ele><time>2026-04-15T08:32:59Z</time></trkpt><trkpt lat="37.063396572381535" lon="14.88264842269863"><ele>574.0</ele><time>2026-04-15T08:33:00Z</time></trkpt><trkpt lat="37.06354146862155" lon="14.88237868585002"><ele>569.0</ele><time>2026-04-15T08:33:01Z</time></trkpt><trkpt lat="37.06369596213864" lon="14.882099180452508"><ele>569.0</ele><time>2026-04-15T08:33:02Z</time></trkpt><trkpt lat="37.063858893720614" lon="14.88180925424247"><ele>569.0</ele><time>2026-04-15T08:33:03Z</time></trkpt><trkpt lat="37.064024577958186" lon="14.881514020006453"><ele>562.5</ele><time>2026-04-15T08:33:04Z</time></trkpt><trkpt lat="37.06417721634058" lon="14.881227492219205"><ele>556.0</ele><time>2026-04-15T08:33:05Z</time></trkpt><trkpt lat="37.06432149229463" lon="14.880941235527363"><ele>556.5</ele><time>2026-04-15T08:33:06Z</time></trkpt><trkpt lat="37.064463171093536" lon="14.880653991364467"><ele>557.0</ele><time>2026-04-15T08:33:07Z</time></trkpt><trkpt lat="37.06460455506307" lon="14.88037038197464"><ele>555.0</ele><time>2026-04-15T08:33:08Z</time></trkpt><trkpt lat="37.064741407292786" lon="14.88009588458057"><ele>553.0</ele><time>2026-04-15T08:33:09Z</time></trkpt><trkpt lat="37.0648770569977" lon="14.879818918896664"><ele>548.5</ele><time>2026-04-15T08:33:10Z</time></trkpt><trkpt lat="37.06500358176092" lon="14.879548828469844"><ele>544.0</ele><time>2026-04-15T08:33:11Z</time></trkpt><trkpt lat="37.065137038700804" lon="14.879284277788921"><ele>545.5</ele><time>2026-04-15T08:33:12Z</time></trkpt><trkpt lat="37.06526887963477" lon="14.87902668325169"><ele>547.0</ele><time>2026-04-15T08:33:12.999Z</time></trkpt><trkpt lat="37.06539794335762" lon="14.878773386021999"><ele>547.0</ele><time>2026-04-15T08:33:13.999Z</time></trkpt><trkpt lat="37.0655312506325" lon="14.878527358221035"><ele>547.0</ele><time>2026-04-15T08:33:14.999Z</time></trkpt><trkpt lat="37.06567519221066" lon="14.87828420515998"><ele>544.5</ele><time>2026-04-15T08:33:15.999Z</time></trkpt><trkpt lat="37.06583239561026" lon="14.878041980558159"><ele>542.0</ele><time>2026-04-15T08:33:16.999Z</time></trkpt><trkpt lat="37.06600528676894" lon="14.877802548822503"><ele>541.5</ele><time>2026-04-15T08:33:17.999Z</time></trkpt><trkpt lat="37.06619501203955" lon="14.877577490710653"><ele>541.0</ele><time>2026-04-15T08:33:18.999Z</time></trkpt><trkpt lat="37.066395433301956" lon="14.87736975208733"><ele>541.0</ele><time>2026-04-15T08:33:19.999Z</time></trkpt><trkpt lat="37.06661028688957" lon="14.87718001615338"><ele>541.0</ele><time>2026-04-15T08:33:20.999Z</time></trkpt><trkpt lat="37.06683902289472" lon="14.8770089901359"><ele>538.5</ele><time>2026-04-15T08:33:21.999Z</time></trkpt><trkpt lat="37.067081162236434" lon="14.876871768395088"><ele>536.0</ele><time>2026-04-15T08:33:22.999Z</time></trkpt><trkpt lat="37.06733384819327" lon="14.876763595378867"><ele>530.0</ele><time>2026-04-15T08:33:23.999Z</time></trkpt><trkpt lat="37.06759512326064" lon="14.876687501264007"><ele>524.0</ele><time>2026-04-15T08:33:24.999Z</time></trkpt><trkpt lat="37.0678653891744" lon="14.876644870010082"><ele>524.0</ele><time>2026-04-15T08:33:25.999Z</time></trkpt><trkpt lat="37.068141173058535" lon="14.876644189891712"><ele>524.0</ele><time>2026-04-15T08:33:26.999Z</time></trkpt><trkpt lat="37.06841723729066" lon="14.876672837858791"><ele>525.0</ele><time>2026-04-15T08:33:27.999Z</time></trkpt><trkpt lat="37.068694355256945" lon="14.876732122389523"><ele>526.0</ele><time>2026-04-15T08:33:28.999Z</time></trkpt><trkpt lat="37.06896891640802" lon="14.876827274064311"><ele>520.0</ele><time>2026-04-15T08:33:29.999Z</time></trkpt><trkpt lat="37.069228092685876" lon="14.876963697505888"><ele>514.0</ele><time>2026-04-15T08:33:30.999Z</time></trkpt><trkpt lat="37.06947257286446" lon="14.87713356137474"><ele>514.0</ele><time>2026-04-15T08:33:31.999Z</time></trkpt><trkpt lat="37.06970358788776" lon="14.877336239876703"><ele>514.0</ele><time>2026-04-15T08:33:32.999Z</time></trkpt><trkpt lat="37.06992528316267" lon="14.877571781522997"><ele>510.5</ele><time>2026-04-15T08:33:33.999Z</time></trkpt><trkpt lat="37.070128714142115" lon="14.877841197620148"><ele>507.0</ele><time>2026-04-15T08:33:34.999Z</time></trkpt><trkpt lat="37.070306431693915" lon="14.878138311521681"><ele>504.5</ele><time>2026-04-15T08:33:35.999Z</time></trkpt><trkpt lat="37.07046137483766" lon="14.878457133279394"><ele>502.0</ele><time>2026-04-15T08:33:36.999Z</time></trkpt><trkpt lat="37.07059315738272" lon="14.878798102356193"><ele>502.0</ele><time>2026-04-15T08:33:37.999Z</time></trkpt><trkpt lat="37.07069538944728" lon="14.879171528785054"><ele>502.0</ele><time>2026-04-15T08:33:38.999Z</time></trkpt><trkpt lat="37.07078677894835" lon="14.879547770157096"><ele>508.0</ele><time>2026-04-15T08:33:39.999Z</time></trkpt><trkpt lat="37.07085236352833" lon="14.879931952982295"><ele>514.0</ele><time>2026-04-15T08:33:40.999Z</time></trkpt><trkpt lat="37.070892006198996" lon="14.880317038269544"><ele>515.5</ele><time>2026-04-15T08:33:41.999Z</time></trkpt><trkpt lat="37.07092900405766" lon="14.880685428857722"><ele>517.0</ele><time>2026-04-15T08:33:42.999Z</time></trkpt><trkpt lat="37.07097070641229" lon="14.881030065869064"><ele>519.0</ele><time>2026-04-15T08:33:43.999Z</time></trkpt><trkpt lat="37.07098892494813" lon="14.881386116607725"><ele>521.0</ele><time>2026-04-15T08:33:44.999Z</time></trkpt><trkpt lat="37.071000084225055" lon="14.881724895120838"><ele>519.5</ele><time>2026-04-15T08:33:45.999Z</time></trkpt><trkpt lat="37.071021493297486" lon="14.88204990914756"><ele>518.0</ele><time>2026-04-15T08:33:46.999Z</time></trkpt><trkpt lat="37.07104682806782" lon="14.882350019685475"><ele>516.5</ele><time>2026-04-15T08:33:47.999Z</time></trkpt><trkpt lat="37.0711177366078" lon="14.882686355324006"><ele>515.0</ele><time>2026-04-15T08:33:48.999Z</time></trkpt><trkpt lat="37.07122389056151" lon="14.883038533116157"><ele>515.0</ele><time>2026-04-15T08:33:49.999Z</time></trkpt><trkpt lat="37.07132651417914" lon="14.883385490324752"><ele>515.0</ele><time>2026-04-15T08:33:50.999Z</time></trkpt><trkpt lat="37.07140480825293" lon="14.88377805273991"><ele>514.5</ele><time>2026-04-15T08:33:51.999Z</time></trkpt><trkpt lat="37.071504602620585" lon="14.884119609130968"><ele>514.0</ele><time>2026-04-15T08:33:52.999Z</time></trkpt><trkpt lat="37.07159751786262" lon="14.884455825099897"><ele>522.0</ele><time>2026-04-15T08:33:53.999Z</time></trkpt><trkpt lat="37.07168847365577" lon="14.884789628724224"><ele>530.0</ele><time>2026-04-15T08:33:54.999Z</time></trkpt><trkpt lat="37.07177535334218" lon="14.885115574490312"><ele>530.0</ele><time>2026-04-15T08:33:55.999Z</time></trkpt><trkpt lat="37.07186041337192" lon="14.88542852499595"><ele>530.0</ele><time>2026-04-15T08:33:56.999Z</time></trkpt><trkpt lat="37.07196214002208" lon="14.885722381084344"><ele>525.0</ele><time>2026-04-15T08:33:57.999Z</time></trkpt><trkpt lat="37.07208945387228" lon="14.885996054700465"><ele>520.0</ele><time>2026-04-15T08:33:58.999Z</time></trkpt><trkpt lat="37.072245101187164" lon="14.886239157255988"><ele>520.0</ele><time>2026-04-15T08:33:59.999Z</time></trkpt><trkpt lat="37.07242815874616" lon="14.88644526005155"><ele>520.0</ele><time>2026-04-15T08:34:00.999Z</time></trkpt><trkpt lat="37.072632804642026" lon="14.886616171794168"><ele>523.5</ele><time>2026-04-15T08:34:01.999Z</time></trkpt><trkpt lat="37.07286113800853" lon="14.88674129989757"><ele>527.0</ele><time>2026-04-15T08:34:02.999Z</time></trkpt><trkpt lat="37.07309295826372" lon="14.886820324454447"><ele>531.3333333333333</ele><time>2026-04-15T08:34:03.999Z</time></trkpt><trkpt lat="37.073309972699896" lon="14.886847978835464"><ele>535.6666666666666</ele><time>2026-04-15T08:34:04.999Z</time></trkpt><trkpt lat="37.073494562212574" lon="14.88689308178183"><ele>540.0</ele><time>2026-04-15T08:34:05.999Z</time></trkpt><trkpt lat="37.07364132553432" lon="14.887005612129956"><ele>540.0</ele><time>2026-04-15T08:34:06.999Z</time></trkpt><trkpt lat="37.07375024579856" lon="14.887155016179191"><ele>540.0</ele><time>2026-04-15T08:34:07.999Z</time></trkpt><trkpt lat="37.07381817344051" lon="14.887336614347346"><ele>540.0</ele><time>2026-04-15T08:34:08.999Z</time></trkpt><trkpt lat="37.07385922690214" lon="14.887549619885466"><ele>539.3333333333334</ele><time>2026-04-15T08:34:09.999Z</time></trkpt><trkpt lat="37.07385853514643" lon="14.887785872743653"><ele>538.6666666666667</ele><time>2026-04-15T08:34:10.999Z</time></trkpt><trkpt lat="37.073825480034046" lon="14.888033794371134"><ele>538.0</ele><time>2026-04-15T08:34:11.999Z</time></trkpt><trkpt lat="37.07379850307099" lon="14.888290948305189"><ele>538.3333333333334</ele><time>2026-04-15T08:34:12.999Z</time></trkpt><trkpt lat="37.07377985383976" lon="14.88856936189511"><ele>538.6666666666666</ele><time>2026-04-15T08:34:13.999Z</time></trkpt><trkpt lat="37.07376312789278" lon="14.888847345147717"><ele>539.0</ele><time>2026-04-15T08:34:14.999Z</time></trkpt><trkpt lat="37.07374224525783" lon="14.889099543087227"><ele>539.0</ele><time>2026-04-15T08:34:15.999Z</time></trkpt><trkpt lat="37.073722409120045" lon="14.88932978993142"><ele>539.0</ele><time>2026-04-15T08:34:16.999Z</time></trkpt><trkpt lat="37.07370857139081" lon="14.889549831109894"><ele>539.0</ele><time>2026-04-15T08:34:17.998Z</time></trkpt><trkpt lat="37.07371059053713" lon="14.889749434534727"><ele>539.0</ele><time>2026-04-15T08:34:18.998Z</time></trkpt><trkpt lat="37.07375589237864" lon="14.889915801549307"><ele>539.0</ele><time>2026-04-15T08:34:19.998Z</time></trkpt><trkpt lat="37.07384239307338" lon="14.890042255193466"><ele>539.0</ele><time>2026-04-15T08:34:20.998Z</time></trkpt><trkpt lat="37.07395683703499" lon="14.89010614644515"><ele>539.0</ele><time>2026-04-15T08:34:21.998Z</time></trkpt><trkpt lat="37.07407855112938" lon="14.890110660556521"><ele>544.25</ele><time>2026-04-15T08:34:22.998Z</time></trkpt><trkpt lat="37.074195884462924" lon="14.89006599995169"><ele>549.5</ele><time>2026-04-15T08:34:23.998Z</time></trkpt><trkpt lat="37.07429834721674" lon="14.889946947559988"><ele>554.75</ele><time>2026-04-15T08:34:24.998Z</time></trkpt><trkpt lat="37.074368449533495" lon="14.889780447472996"><ele>560.0</ele><time>2026-04-15T08:34:25.998Z</time></trkpt><trkpt lat="37.074401948417766" lon="14.889575617077027"><ele>560.0</ele><time>2026-04-15T08:34:26.998Z</time></trkpt><trkpt lat="37.07442320599728" lon="14.889353603959687"><ele>560.0</ele><time>2026-04-15T08:34:27.998Z</time></trkpt><trkpt lat="37.074462249514326" lon="14.889123812887233"><ele>560.0</ele><time>2026-04-15T08:34:29Z</time></trkpt><trkpt lat="37.07450331525594" lon="14.888873720280005"><ele>560.0</ele><time>2026-04-15T08:34:30Z</time></trkpt><trkpt lat="37.074543747554365" lon="14.88859992023541"><ele>560.0</ele><time>2026-04-15T08:34:31Z</time></trkpt><trkpt lat="37.074575548342104" lon="14.88829963481404"><ele>560.0</ele><time>2026-04-15T08:34:32Z</time></trkpt><trkpt lat="37.07459504696492" lon="14.887986239263308"><ele>560.0</ele><time>2026-04-15T08:34:33Z</time></trkpt><trkpt lat="37.07459600116794" lon="14.887687203297743"><ele>560.5</ele><time>2026-04-15T08:34:34Z</time></trkpt><trkpt lat="37.07458519317539" lon="14.88739305840651"><ele>561.0</ele><time>2026-04-15T08:34:35Z</time></trkpt><trkpt lat="37.074568549129324" lon="14.887082737586775"><ele>561.0</ele><time>2026-04-15T08:34:36Z</time></trkpt><trkpt lat="37.07454512574806" lon="14.886765029625442"><ele>561.0</ele><time>2026-04-15T08:34:37Z</time></trkpt><trkpt lat="37.074529200048815" lon="14.886442746028797"><ele>562.5</ele><time>2026-04-15T08:34:38Z</time></trkpt><trkpt lat="37.07451535525642" lon="14.88612098234838"><ele>564.0</ele><time>2026-04-15T08:34:39Z</time></trkpt><trkpt lat="37.07449790624587" lon="14.88579390012925"><ele>567.5</ele><time>2026-04-15T08:34:40Z</time></trkpt><trkpt lat="37.07448212406978" lon="14.885462767676067"><ele>571.0</ele><time>2026-04-15T08:34:41Z</time></trkpt><trkpt lat="37.0744680452083" lon="14.885136906012756"><ele>573.5</ele><time>2026-04-15T08:34:42Z</time></trkpt><trkpt lat="37.074456180821485" lon="14.88481812508368"><ele>576.0</ele><time>2026-04-15T08:34:43Z</time></trkpt><trkpt lat="37.07444749244617" lon="14.884508751142198"><ele>576.0</ele><time>2026-04-15T08:34:44Z</time></trkpt><trkpt lat="37.074476518971565" lon="14.884207534545123"><ele>576.0</ele><time>2026-04-15T08:34:45Z</time></trkpt><trkpt lat="37.07454763560525" lon="14.883925674582011"><ele>576.0</ele><time>2026-04-15T08:34:46Z</time></trkpt><trkpt lat="37.0746415229217" lon="14.883669204150207"><ele>576.0</ele><time>2026-04-15T08:34:47Z</time></trkpt><trkpt lat="37.07476690244085" lon="14.883458419959895"><ele>576.0</ele><time>2026-04-15T08:34:48Z</time></trkpt><trkpt lat="37.07492484803049" lon="14.883270200250713"><ele>584.5</ele><time>2026-04-15T08:34:49Z</time></trkpt><trkpt lat="37.07511291451104" lon="14.883092290512971"><ele>593.0</ele><time>2026-04-15T08:34:50Z</time></trkpt><trkpt lat="37.07532048581259" lon="14.882933273151844"><ele>593.0</ele><time>2026-04-15T08:34:51Z</time></trkpt><trkpt lat="37.07554685909238" lon="14.882785024240551"><ele>593.0</ele><time>2026-04-15T08:34:52Z</time></trkpt><trkpt lat="37.07578569763811" lon="14.882661415991432"><ele>595.5</ele><time>2026-04-15T08:34:53Z</time></trkpt><trkpt lat="37.076017309999706" lon="14.882594407215292"><ele>598.0</ele><time>2026-04-15T08:34:54Z</time></trkpt><trkpt lat="37.07626015813954" lon="14.88255824758062"><ele>598.0</ele><time>2026-04-15T08:34:55Z</time></trkpt><trkpt lat="37.07647714406295" lon="14.882574201227845"><ele>598.0</ele><time>2026-04-15T08:34:56Z</time></trkpt><trkpt lat="37.07671744317649" lon="14.882615037837281"><ele>603.5</ele><time>2026-04-15T08:34:57Z</time></trkpt><trkpt lat="37.07695959119835" lon="14.882667599164689"><ele>609.0</ele><time>2026-04-15T08:34:58Z</time></trkpt><trkpt lat="37.077202293401875" lon="14.882727010970372"><ele>612.5</ele><time>2026-04-15T08:34:59Z</time></trkpt><trkpt lat="37.07744774199724" lon="14.882786931709006"><ele>616.0</ele><time>2026-04-15T08:35:00Z</time></trkpt><trkpt lat="37.07769395492477" lon="14.88283891768584"><ele>616.0</ele><time>2026-04-15T08:35:01Z</time></trkpt><trkpt lat="37.07794340260942" lon="14.882893474996807"><ele>616.0</ele><time>2026-04-15T08:35:02Z</time></trkpt><trkpt lat="37.078192423607696" lon="14.882948523722636"><ele>622.0</ele><time>2026-04-15T08:35:03Z</time></trkpt><trkpt lat="37.07844731918074" lon="14.883007588356524"><ele>628.0</ele><time>2026-04-15T08:35:04Z</time></trkpt><trkpt lat="37.07869312112565" lon="14.883067313436781"><ele>628.0</ele><time>2026-04-15T08:35:05Z</time></trkpt><trkpt lat="37.07893456838733" lon="14.883121681447516"><ele>628.0</ele><time>2026-04-15T08:35:06Z</time></trkpt><trkpt lat="37.079162135180006" lon="14.883156396589605"><ele>628.6666666666667</ele><time>2026-04-15T08:35:07Z</time></trkpt><trkpt lat="37.07937471259244" lon="14.88315309852358"><ele>629.3333333333334</ele><time>2026-04-15T08:35:08Z</time></trkpt><trkpt lat="37.07956938418672" lon="14.883082218347258"><ele>630.0</ele><time>2026-04-15T08:35:09Z</time></trkpt><trkpt lat="37.07972886201825" lon="14.882945376176451"><ele>630.0</ele><time>2026-04-15T08:35:10Z</time></trkpt><trkpt lat="37.07985925204174" lon="14.882770760364526"><ele>630.0</ele><time>2026-04-15T08:35:11Z</time></trkpt><trkpt lat="37.07996426859261" lon="14.882548691445335"><ele>630.0</ele><time>2026-04-15T08:35:12Z</time></trkpt><trkpt lat="37.08005041265749" lon="14.88230077007673"><ele>630.0</ele><time>2026-04-15T08:35:13Z</time></trkpt><trkpt lat="37.080150764907806" lon="14.882052533268109"><ele>630.0</ele><time>2026-04-15T08:35:14Z</time></trkpt><trkpt lat="37.08025197870363" lon="14.881808666168908"><ele>630.0</ele><time>2026-04-15T08:35:15Z</time></trkpt><trkpt lat="37.08037569818878" lon="14.881574539738637"><ele>627.3333333333334</ele><time>2026-04-15T08:35:16Z</time></trkpt><trkpt lat="37.0805171484354" lon="14.881388702404006"><ele>624.6666666666667</ele><time>2026-04-15T08:35:16.999Z</time></trkpt><trkpt lat="37.080696442653014" lon="14.881226423690888"><ele>622.0</ele><time>2026-04-15T08:35:17.999Z</time></trkpt><trkpt lat="37.08091382341523" lon="14.881091861226947"><ele>623.5</ele><time>2026-04-15T08:35:18.999Z</time></trkpt><trkpt lat="37.08112447441394" lon="14.880939189711599"><ele>625.0</ele><time>2026-04-15T08:35:19.999Z</time></trkpt><trkpt lat="37.08134708790204" lon="14.880774054378803"><ele>625.0</ele><time>2026-04-15T08:35:20.999Z</time></trkpt><trkpt lat="37.08156491787826" lon="14.88061022445554"><ele>625.0</ele><time>2026-04-15T08:35:21.999Z</time></trkpt><trkpt lat="37.08178070849211" lon="14.880450276187373"><ele>633.5</ele><time>2026-04-15T08:35:22.999Z</time></trkpt><trkpt lat="37.081987944375626" lon="14.880295923758139"><ele>642.0</ele><time>2026-04-15T08:35:23.999Z</time></trkpt><trkpt lat="37.08219315794159" lon="14.880151446281403"><ele>644.0</ele><time>2026-04-15T08:35:24.999Z</time></trkpt><trkpt lat="37.082406830165105" lon="14.879999317626144"><ele>646.0</ele><time>2026-04-15T08:35:25.999Z</time></trkpt><trkpt lat="37.08262365496603" lon="14.87983627545287"><ele>646.0</ele><time>2026-04-15T08:35:26.999Z</time></trkpt><trkpt lat="37.0828351949084" lon="14.879648555119779"><ele>646.0</ele><time>2026-04-15T08:35:27.999Z</time></trkpt><trkpt lat="37.08303908808545" lon="14.87942275426892"><ele>648.5</ele><time>2026-04-15T08:35:28.999Z</time></trkpt><trkpt lat="37.08322096231428" lon="14.879174403621203"><ele>651.0</ele><time>2026-04-15T08:35:29.999Z</time></trkpt><trkpt lat="37.08339198936212" lon="14.878927483969854"><ele>651.0</ele><time>2026-04-15T08:35:30.999Z</time></trkpt><trkpt lat="37.08357076907303" lon="14.87869151098236"><ele>651.0</ele><time>2026-04-15T08:35:31.999Z</time></trkpt><trkpt lat="37.083770114621245" lon="14.878474638454149"><ele>655.0</ele><time>2026-04-15T08:35:32.999Z</time></trkpt><trkpt lat="37.08399293346269" lon="14.878277649706808"><ele>659.0</ele><time>2026-04-15T08:35:33.999Z</time></trkpt><trkpt lat="37.084230017244536" lon="14.878089692177587"><ele>659.0</ele><time>2026-04-15T08:35:34.999Z</time></trkpt><trkpt lat="37.08447456573252" lon="14.877901921946478"><ele>659.0</ele><time>2026-04-15T08:35:35.999Z</time></trkpt><trkpt lat="37.08471385016908" lon="14.877718534479808"><ele>659.5</ele><time>2026-04-15T08:35:36.999Z</time></trkpt><trkpt lat="37.084937808800156" lon="14.877543338425497"><ele>660.0</ele><time>2026-04-15T08:35:37.999Z</time></trkpt><trkpt lat="37.08515623377747" lon="14.877376438796576"><ele>660.0</ele><time>2026-04-15T08:35:38.999Z</time></trkpt><trkpt lat="37.08536976578773" lon="14.877212619658026"><ele>660.0</ele><time>2026-04-15T08:35:39.999Z</time></trkpt><trkpt lat="37.08557996837465" lon="14.877054326865464"><ele>667.5</ele><time>2026-04-15T08:35:40.999Z</time></trkpt><trkpt lat="37.08579842936552" lon="14.876912513347849"><ele>675.0</ele><time>2026-04-15T08:35:41.999Z</time></trkpt><trkpt lat="37.08602276539042" lon="14.876806721472066"><ele>665.5</ele><time>2026-04-15T08:35:42.999Z</time></trkpt><trkpt lat="37.08625578182142" lon="14.876715115751342"><ele>656.0</ele><time>2026-04-15T08:35:43.999Z</time></trkpt><trkpt lat="37.08648603080083" lon="14.87663670566565"><ele>660.6666666666666</ele><time>2026-04-15T08:35:44.999Z</time></trkpt><trkpt lat="37.08670119001163" lon="14.876550250240674"><ele>665.3333333333334</ele><time>2026-04-15T08:35:45.999Z</time></trkpt><trkpt lat="37.08690025933831" lon="14.876438990040104"><ele>670.0</ele><time>2026-04-15T08:35:46.999Z</time></trkpt><trkpt lat="37.087081822586455" lon="14.876308234716813"><ele>670.0</ele><time>2026-04-15T08:35:47.999Z</time></trkpt><trkpt lat="37.087248671729085" lon="14.876160253918174"><ele>670.0</ele><time>2026-04-15T08:35:48.999Z</time></trkpt><trkpt lat="37.0874093606844" lon="14.876011674352046"><ele>670.0</ele><time>2026-04-15T08:35:49.999Z</time></trkpt><trkpt lat="37.08759805467386" lon="14.875879696445333"><ele>670.3333333333334</ele><time>2026-04-15T08:35:50.999Z</time></trkpt><trkpt lat="37.087800753712614" lon="14.875795274803831"><ele>670.6666666666666</ele><time>2026-04-15T08:35:51.999Z</time></trkpt><trkpt lat="37.08800231142013" lon="14.875737091211782"><ele>671.0</ele><time>2026-04-15T08:35:52.999Z</time></trkpt><trkpt lat="37.08821613049669" lon="14.875702420261794"><ele>672.3333333333333</ele><time>2026-04-15T08:35:53.999Z</time></trkpt><trkpt lat="37.08842846865032" lon="14.87568897721463"><ele>673.6666666666666</ele><time>2026-04-15T08:35:54.999Z</time></trkpt><trkpt lat="37.08863795451686" lon="14.875668700391536"><ele>675.0</ele><time>2026-04-15T08:35:55.999Z</time></trkpt><trkpt lat="37.08883730622028" lon="14.875660155006837"><ele>675.0</ele><time>2026-04-15T08:35:56.999Z</time></trkpt><trkpt lat="37.08903266084739" lon="14.875645379246862"><ele>675.0</ele><time>2026-04-15T08:35:57.999Z</time></trkpt><trkpt lat="37.089224972752646" lon="14.875631895521872"><ele>675.0</ele><time>2026-04-15T08:35:58.999Z</time></trkpt><trkpt lat="37.089415858436205" lon="14.875620593791707"><ele>678.6666666666666</ele><time>2026-04-15T08:35:59.999Z</time></trkpt><trkpt lat="37.089600682837855" lon="14.875604096843686"><ele>682.3333333333333</ele><time>2026-04-15T08:36:00.999Z</time></trkpt><trkpt lat="37.089796774043464" lon="14.875574942967877"><ele>686.0</ele><time>2026-04-15T08:36:01.999Z</time></trkpt><trkpt lat="37.089992613156475" lon="14.87552092420128"><ele>688.6666666666666</ele><time>2026-04-15T08:36:02.999Z</time></trkpt><trkpt lat="37.09018232823793" lon="14.875448336344943"><ele>691.3333333333334</ele><time>2026-04-15T08:36:03.999Z</time></trkpt><trkpt lat="37.0903645555292" lon="14.875363097488298"><ele>694.0</ele><time>2026-04-15T08:36:04.999Z</time></trkpt><trkpt lat="37.090539098649465" lon="14.875274254620996"><ele>694.0</ele><time>2026-04-15T08:36:05.999Z</time></trkpt><trkpt lat="37.09072706036153" lon="14.87520387566877"><ele>694.0</ele><time>2026-04-15T08:36:06.999Z</time></trkpt><trkpt lat="37.09093188892757" lon="14.87516692285591"><ele>694.0</ele><time>2026-04-15T08:36:07.999Z</time></trkpt><trkpt lat="37.09114135957832" lon="14.875185499716888"><ele>696.3333333333334</ele><time>2026-04-15T08:36:08.999Z</time></trkpt><trkpt lat="37.09133442985179" lon="14.875249233264588"><ele>698.6666666666666</ele><time>2026-04-15T08:36:09.999Z</time></trkpt><trkpt lat="37.09149849347506" lon="14.875349545998892"><ele>701.0</ele><time>2026-04-15T08:36:10.999Z</time></trkpt><trkpt lat="37.09163226130818" lon="14.875455697069153"><ele>701.0</ele><time>2026-04-15T08:36:11.999Z</time></trkpt><trkpt lat="37.09177380699247" lon="14.875546827348275"><ele>701.0</ele><time>2026-04-15T08:36:12.999Z</time></trkpt><trkpt lat="37.091916043321355" lon="14.875618051158387"><ele>701.0</ele><time>2026-04-15T08:36:13.999Z</time></trkpt><trkpt lat="37.0920580204379" lon="14.875655867922752"><ele>701.0</ele><time>2026-04-15T08:36:14.999Z</time></trkpt><trkpt lat="37.09219647810347" lon="14.875664091710915"><ele>701.0</ele><time>2026-04-15T08:36:15.999Z</time></trkpt><trkpt lat="37.09231482562346" lon="14.87566403531642"><ele>701.0</ele><time>2026-04-15T08:36:16.999Z</time></trkpt><trkpt lat="37.09242967343556" lon="14.875670602735775"><ele>701.0</ele><time>2026-04-15T08:36:17.999Z</time></trkpt><trkpt lat="37.092549034230295" lon="14.875648966586128"><ele>701.5999999999999</ele><time>2026-04-15T08:36:18.999Z</time></trkpt><trkpt lat="37.092652006438065" lon="14.875612601696371"><ele>702.2</ele><time>2026-04-15T08:36:19.999Z</time></trkpt><trkpt lat="37.0927536064735" lon="14.875578498119237"><ele>702.8</ele><time>2026-04-15T08:36:20.999Z</time></trkpt><trkpt lat="37.09286014136138" lon="14.875545889561481"><ele>703.4000000000001</ele><time>2026-04-15T08:36:21.998Z</time></trkpt><trkpt lat="37.09296243338376" lon="14.875526265398511"><ele>704.0</ele><time>2026-04-15T08:36:22.998Z</time></trkpt><trkpt lat="37.09304322100908" lon="14.87551953404918"><ele>704.0</ele><time>2026-04-15T08:36:23.998Z</time></trkpt><trkpt lat="37.093143375882285" lon="14.875507383549582"><ele>704.0</ele><time>2026-04-15T08:36:24.998Z</time></trkpt><trkpt lat="37.0932698572769" lon="14.875499617461829"><ele>704.0</ele><time>2026-04-15T08:36:25.998Z</time></trkpt><trkpt lat="37.09341285413711" lon="14.875499571115409"><ele>704.0</ele><time>2026-04-15T08:36:26.998Z</time></trkpt><trkpt lat="37.09357292337353" lon="14.875521319802562"><ele>705.0</ele><time>2026-04-15T08:36:27.998Z</time></trkpt><trkpt lat="37.093754259986845" lon="14.87556497658595"><ele>706.0</ele><time>2026-04-15T08:36:28.998Z</time></trkpt><trkpt lat="37.09394393035542" lon="14.875623365984874"><ele>707.0</ele><time>2026-04-15T08:36:29.998Z</time></trkpt><trkpt lat="37.094125627045784" lon="14.875720983193757"><ele>707.0</ele><time>2026-04-15T08:36:30.998Z</time></trkpt><trkpt lat="37.09429337113961" lon="14.875852138516844"><ele>707.0</ele><time>2026-04-15T08:36:31.998Z</time></trkpt><trkpt lat="37.09445768978731" lon="14.875986455814454"><ele>707.0</ele><time>2026-04-15T08:36:32.998Z</time></trkpt><trkpt lat="37.09463858351495" lon="14.876134249595122"><ele>708.3333333333333</ele><time>2026-04-15T08:36:33.998Z</time></trkpt><trkpt lat="37.09481058730761" lon="14.876286642614462"><ele>709.6666666666666</ele><time>2026-04-15T08:36:35Z</time></trkpt><trkpt lat="37.09499902143842" lon="14.876438240643282"><ele>711.0</ele><time>2026-04-15T08:36:36Z</time></trkpt><trkpt lat="37.09518933100665" lon="14.87658022922231"><ele>711.0</ele><time>2026-04-15T08:36:37Z</time></trkpt><trkpt lat="37.0953804080891" lon="14.876724286696698"><ele>711.0</ele><time>2026-04-15T08:36:38Z</time></trkpt><trkpt lat="37.095558143752065" lon="14.8768844574524"><ele>711.0</ele><time>2026-04-15T08:36:39Z</time></trkpt><trkpt lat="37.0957222327035" lon="14.87707569478338"><ele>712.0</ele><time>2026-04-15T08:36:40Z</time></trkpt><trkpt lat="37.095856645225794" lon="14.877296485951824"><ele>713.0</ele><time>2026-04-15T08:36:41Z</time></trkpt><trkpt lat="37.095964829376804" lon="14.8775406799896"><ele>714.0</ele><time>2026-04-15T08:36:42Z</time></trkpt><trkpt lat="37.09602263424197" lon="14.877822031196793"><ele>714.0</ele><time>2026-04-15T08:36:43Z</time></trkpt><trkpt lat="37.09603762323551" lon="14.878108290845546"><ele>714.0</ele><time>2026-04-15T08:36:44Z</time></trkpt><trkpt lat="37.09601227601155" lon="14.878399210740868"><ele>712.5</ele><time>2026-04-15T08:36:45Z</time></trkpt><trkpt lat="37.09601664874298" lon="14.878700502812025"><ele>711.0</ele><time>2026-04-15T08:36:46Z</time></trkpt><trkpt lat="37.096054243507254" lon="14.8789913262821"><ele>707.0</ele><time>2026-04-15T08:36:47Z</time></trkpt><trkpt lat="37.09612458690402" lon="14.879278253146852"><ele>703.0</ele><time>2026-04-15T08:36:48Z</time></trkpt><trkpt lat="37.09621651485422" lon="14.879562077055567"><ele>703.0</ele><time>2026-04-15T08:36:49Z</time></trkpt><trkpt lat="37.09630177109306" lon="14.87985029662521"><ele>703.0</ele><time>2026-04-15T08:36:50Z</time></trkpt><trkpt lat="37.09638017749937" lon="14.88014358961356"><ele>699.5</ele><time>2026-04-15T08:36:51Z</time></trkpt><trkpt lat="37.09645947182417" lon="14.880425643225866"><ele>696.0</ele><time>2026-04-15T08:36:52Z</time></trkpt><trkpt lat="37.09656334584374" lon="14.880697982772995"><ele>700.5</ele><time>2026-04-15T08:36:53Z</time></trkpt><trkpt lat="37.09670938843594" lon="14.88095562814747"><ele>705.0</ele><time>2026-04-15T08:36:54Z</time></trkpt><trkpt lat="37.09688572515702" lon="14.881202292621827"><ele>705.0</ele><time>2026-04-15T08:36:55Z</time></trkpt><trkpt lat="37.097075988336336" lon="14.881431096365176"><ele>705.0</ele><time>2026-04-15T08:36:56Z</time></trkpt><trkpt lat="37.0972708660352" lon="14.881650271191054"><ele>710.6666666666666</ele><time>2026-04-15T08:36:57Z</time></trkpt><trkpt lat="37.0974479393872" lon="14.881844676481487"><ele>716.3333333333333</ele><time>2026-04-15T08:36:58Z</time></trkpt><trkpt lat="37.097601866410756" lon="14.881993354122521"><ele>722.0</ele><time>2026-04-15T08:36:59Z</time></trkpt><trkpt lat="37.097761185943874" lon="14.88207698315423"><ele>722.0</ele><time>2026-04-15T08:37:00Z</time></trkpt><trkpt lat="37.09792183095463" lon="14.88209095884614"><ele>722.0</ele><time>2026-04-15T08:37:01Z</time></trkpt><trkpt lat="37.09807099988085" lon="14.882032015333325"><ele>722.0</ele><time>2026-04-15T08:37:02Z</time></trkpt><trkpt lat="37.098198851973905" lon="14.881908349101371"><ele>729.6666666666666</ele><time>2026-04-15T08:37:03Z</time></trkpt><trkpt lat="37.09829250889582" lon="14.881753386358154"><ele>737.3333333333334</ele><time>2026-04-15T08:37:04Z</time></trkpt><trkpt lat="37.09833092317703" lon="14.88155206061473"><ele>745.0</ele><time>2026-04-15T08:37:05Z</time></trkpt><trkpt lat="37.09831948404261" lon="14.881333930278785"><ele>745.0</ele><time>2026-04-15T08:37:06Z</time></trkpt><trkpt lat="37.0982889017122" lon="14.881096226029205"><ele>745.0</ele><time>2026-04-15T08:37:07Z</time></trkpt><trkpt lat="37.098267519944756" lon="14.880850812329577"><ele>745.0</ele><time>2026-04-15T08:37:08Z</time></trkpt><trkpt lat="37.09826255967679" lon="14.880608183905018"><ele>746.3333333333334</ele><time>2026-04-15T08:37:09Z</time></trkpt><trkpt lat="37.09828784007568" lon="14.880357188306316"><ele>747.6666666666666</ele><time>2026-04-15T08:37:10Z</time></trkpt><trkpt lat="37.098366499341466" lon="14.880124425004807"><ele>749.0</ele><time>2026-04-15T08:37:11Z</time></trkpt><trkpt lat="37.09847878632676" lon="14.879909730015134"><ele>752.3333333333333</ele><time>2026-04-15T08:37:12Z</time></trkpt><trkpt lat="37.09857334819516" lon="14.879672075016233"><ele>755.6666666666666</ele><time>2026-04-15T08:37:13Z</time></trkpt><trkpt lat="37.0986472430325" lon="14.87943167562586"><ele>759.0</ele><time>2026-04-15T08:37:14Z</time></trkpt><trkpt lat="37.09868093588454" lon="14.879196499428085"><ele>761.0</ele><time>2026-04-15T08:37:15Z</time></trkpt><trkpt lat="37.09868041645903" lon="14.878946488976215"><ele>763.0</ele><time>2026-04-15T08:37:16Z</time></trkpt><trkpt lat="37.09865769410012" lon="14.878682281893918"><ele>765.0</ele><time>2026-04-15T08:37:17Z</time></trkpt><trkpt lat="37.098631491992755" lon="14.878410615997119"><ele>765.0</ele><time>2026-04-15T08:37:18Z</time></trkpt><trkpt lat="37.09862836127328" lon="14.878123370217843"><ele>765.0</ele><time>2026-04-15T08:37:19Z</time></trkpt><trkpt lat="37.09867008625218" lon="14.877846421396013"><ele>765.3333333333334</ele><time>2026-04-15T08:37:20Z</time></trkpt><trkpt lat="37.09875465184049" lon="14.877586762224722"><ele>765.6666666666667</ele><time>2026-04-15T08:37:20.999Z</time></trkpt><trkpt lat="37.098873817333896" lon="14.877348664097658"><ele>766.0</ele><time>2026-04-15T08:37:21.999Z</time></trkpt><trkpt lat="37.09901572002956" lon="14.877134197025528"><ele>767.6666666666667</ele><time>2026-04-15T08:37:22.999Z</time></trkpt><trkpt lat="37.09915861367105" lon="14.876938739711317"><ele>769.3333333333334</ele><time>2026-04-15T08:37:23.999Z</time></trkpt><trkpt lat="37.099318951331995" lon="14.876732459789519"><ele>771.0</ele><time>2026-04-15T08:37:24.999Z</time></trkpt><trkpt lat="37.09949027530846" lon="14.876515428423573"><ele>773.5</ele><time>2026-04-15T08:37:25.999Z</time></trkpt><trkpt lat="37.09966596257658" lon="14.876288512261006"><ele>776.0</ele><time>2026-04-15T08:37:26.999Z</time></trkpt><trkpt lat="37.09983999212955" lon="14.876061202828225"><ele>780.5</ele><time>2026-04-15T08:37:27.999Z</time></trkpt><trkpt lat="37.10000582108561" lon="14.87584679023557"><ele>785.0</ele><time>2026-04-15T08:37:28.999Z</time></trkpt><trkpt lat="37.10017957076549" lon="14.875640467477014"><ele>785.0</ele><time>2026-04-15T08:37:29.999Z</time></trkpt><trkpt lat="37.10036759272766" lon="14.8754463248377"><ele>785.0</ele><time>2026-04-15T08:37:30.999Z</time></trkpt><trkpt lat="37.10057923292283" lon="14.875288903451"><ele>795.0</ele><time>2026-04-15T08:37:31.999Z</time></trkpt><trkpt lat="37.10080385601039" lon="14.875194074087377"><ele>805.0</ele><time>2026-04-15T08:37:32.999Z</time></trkpt><trkpt lat="37.10103223306864" lon="14.875164222219668"><ele>805.0</ele><time>2026-04-15T08:37:33.999Z</time></trkpt><trkpt lat="37.101260233358104" lon="14.87519561922642"><ele>805.0</ele><time>2026-04-15T08:37:34.999Z</time></trkpt><trkpt lat="37.101481959889874" lon="14.875296419030137"><ele>808.5</ele><time>2026-04-15T08:37:35.999Z</time></trkpt><trkpt lat="37.10171049297289" lon="14.875421702827365"><ele>812.0</ele><time>2026-04-15T08:37:36.999Z</time></trkpt><trkpt lat="37.10194729526644" lon="14.875542212167163"><ele>812.0</ele><time>2026-04-15T08:37:37.999Z</time></trkpt><trkpt lat="37.102185944982956" lon="14.875633825678955"><ele>812.0</ele><time>2026-04-15T08:37:38.999Z</time></trkpt><trkpt lat="37.10242539615149" lon="14.875696129511036"><ele>813.0</ele><time>2026-04-15T08:37:39.999Z</time></trkpt><trkpt lat="37.10267473165223" lon="14.87573410756665"><ele>814.0</ele><time>2026-04-15T08:37:40.999Z</time></trkpt><trkpt lat="37.10292506543878" lon="14.875758370231807"><ele>814.0</ele><time>2026-04-15T08:37:41.999Z</time></trkpt><trkpt lat="37.1031683080996" lon="14.875771754952806"><ele>814.0</ele><time>2026-04-15T08:37:42.999Z</time></trkpt><trkpt lat="37.1033963522604" lon="14.875772609267594"><ele>813.3333333333333</ele><time>2026-04-15T08:37:43.999Z</time></trkpt><trkpt lat="37.1036160053583" lon="14.875738186922588"><ele>812.6666666666667</ele><time>2026-04-15T08:37:44.999Z</time></trkpt><trkpt lat="37.103820648006874" lon="14.875652051334663"><ele>812.0</ele><time>2026-04-15T08:37:45.999Z</time></trkpt><trkpt lat="37.104020972078956" lon="14.875524637553198"><ele>809.6666666666667</ele><time>2026-04-15T08:37:46.999Z</time></trkpt><trkpt lat="37.1041926879577" lon="14.875357935425965"><ele>807.3333333333333</ele><time>2026-04-15T08:37:47.999Z</time></trkpt><trkpt lat="37.10434422568264" lon="14.875192038498769"><ele>805.0</ele><time>2026-04-15T08:37:48.999Z</time></trkpt><trkpt lat="37.10446057642772" lon="14.875019459048474"><ele>805.0</ele><time>2026-04-15T08:37:49.999Z</time></trkpt><trkpt lat="37.104544534138284" lon="14.874841450107068"><ele>805.0</ele><time>2026-04-15T08:37:50.999Z</time></trkpt><trkpt lat="37.10461853694411" lon="14.874699755302197"><ele>805.0</ele><time>2026-04-15T08:37:51.999Z</time></trkpt><trkpt lat="37.10469152073388" lon="14.874590990958254"><ele>805.0</ele><time>2026-04-15T08:37:52.999Z</time></trkpt><trkpt lat="37.10475724243628" lon="14.874507451645552"><ele>804.9999999999999</ele><time>2026-04-15T08:37:53.999Z</time></trkpt><trkpt lat="37.104813774122164" lon="14.874452515758648"><ele>805.0</ele><time>2026-04-15T08:37:54.999Z</time></trkpt><trkpt lat="37.10486928542594" lon="14.874412695677924"><ele>805.0</ele><time>2026-04-15T08:37:55.999Z</time></trkpt><trkpt lat="37.104933903722916" lon="14.87438194230559"><ele>805.0</ele><time>2026-04-15T08:37:56.999Z</time></trkpt><trkpt lat="37.105012714581264" lon="14.874352242508355"><ele>804.9999999999999</ele><time>2026-04-15T08:37:57.999Z</time></trkpt><trkpt lat="37.105105555700874" lon="14.874316005093979"><ele>805.0</ele><time>2026-04-15T08:37:58.999Z</time></trkpt><trkpt lat="37.105203215789246" lon="14.874289790879141"><ele>806.4999999999999</ele><time>2026-04-15T08:37:59.999Z</time></trkpt><trkpt lat="37.10528801674502" lon="14.87427123702953"><ele>808.0</ele><time>2026-04-15T08:38:00.999Z</time></trkpt><trkpt lat="37.10536835121927" lon="14.874263330121208"><ele>809.5</ele><time>2026-04-15T08:38:01.999Z</time></trkpt><trkpt lat="37.1054432707527" lon="14.87427974859005"><ele>811.0</ele><time>2026-04-15T08:38:02.999Z</time></trkpt><trkpt lat="37.105507546096" lon="14.87433836199118"><ele>812.4999999999999</ele><time>2026-04-15T08:38:03.999Z</time></trkpt><trkpt lat="37.105544725503385" lon="14.874410303226007"><ele>814.0</ele><time>2026-04-15T08:38:04.999Z</time></trkpt><trkpt lat="37.10565863678824" lon="14.874463485472178"><ele>813.9999999999999</ele><time>2026-04-15T08:38:06.999Z</time></trkpt><trkpt lat="37.10573175365193" lon="14.874442916755173"><ele>814.0</ele><time>2026-04-15T08:38:07.999Z</time></trkpt><trkpt lat="37.10579060645223" lon="14.87440059760373"><ele>814.0</ele><time>2026-04-15T08:38:08.999Z</time></trkpt><trkpt lat="37.10587326435731" lon="14.874366366531062"><ele>814.0</ele><time>2026-04-15T08:38:10.999Z</time></trkpt><trkpt lat="37.10593726329174" lon="14.874363631947826"><ele>813.9999999999999</ele><time>2026-04-15T08:38:17.999Z</time></trkpt><trkpt lat="37.1060001235181" lon="14.874467751068213"><ele>814.0</ele><time>2026-04-15T08:38:19.999Z</time></trkpt><trkpt lat="37.10600543067778" lon="14.874586472850522"><ele>812.9999999999999</ele><time>2026-04-15T08:38:20.999Z</time></trkpt><trkpt lat="37.106018847338675" lon="14.874677867412318"><ele>812.0</ele><time>2026-04-15T08:38:21.999Z</time></trkpt><trkpt lat="37.106054078292395" lon="14.874768852580727"><ele>811.0</ele><time>2026-04-15T08:38:22.999Z</time></trkpt><trkpt lat="37.10610459461105" lon="14.874851784732764"><ele>810.0</ele><time>2026-04-15T08:38:23.999Z</time></trkpt><trkpt lat="37.106165757670816" lon="14.874917334407252"><ele>808.9999999999999</ele><time>2026-04-15T08:38:24.999Z</time></trkpt><trkpt lat="37.10622994634598" lon="14.874985562722953"><ele>808.0</ele><time>2026-04-15T08:38:25.999Z</time></trkpt><trkpt lat="37.106304992434204" lon="14.875047407799242"><ele>808.0</ele><time>2026-04-15T08:38:26.998Z</time></trkpt><trkpt lat="37.10639326561393" lon="14.875114098239125"><ele>808.0</ele><time>2026-04-15T08:38:27.998Z</time></trkpt><trkpt lat="37.106482271061054" lon="14.875178421937138"><ele>808.0</ele><time>2026-04-15T08:38:28.998Z</time></trkpt><trkpt lat="37.10657772575612" lon="14.875237940065182"><ele>808.0</ele><time>2026-04-15T08:38:29.998Z</time></trkpt><trkpt lat="37.106667049855204" lon="14.875310615771841"><ele>808.0</ele><time>2026-04-15T08:38:30.998Z</time></trkpt><trkpt lat="37.106752535426864" lon="14.875392015206799"><ele>808.5999999999999</ele><time>2026-04-15T08:38:31.998Z</time></trkpt><trkpt lat="37.10684003549839" lon="14.875457787126043"><ele>809.1999999999999</ele><time>2026-04-15T08:38:32.998Z</time></trkpt><trkpt lat="37.10691595145178" lon="14.875507888968126"><ele>809.8</ele><time>2026-04-15T08:38:33.998Z</time></trkpt><trkpt lat="37.10698647228355" lon="14.875534862706669"><ele>810.4</ele><time>2026-04-15T08:38:34.998Z</time></trkpt><trkpt lat="37.107100940226736" lon="14.875567540120601"><ele>811.0</ele><time>2026-04-15T08:38:36.998Z</time></trkpt><trkpt lat="37.107206615130394" lon="14.875599857639129"><ele>810.9999999999999</ele><time>2026-04-15T08:38:38.998Z</time></trkpt><trkpt lat="37.107302267638" lon="14.875638771235021"><ele>811.0</ele><time>2026-04-15T08:38:41Z</time></trkpt><trkpt lat="37.10735621414677" lon="14.875760622041435"><ele>811.0</ele><time>2026-04-15T08:38:43Z</time></trkpt><trkpt lat="37.107360182628554" lon="14.875850579487041"><ele>811.0</ele><time>2026-04-15T08:38:44Z</time></trkpt><trkpt lat="37.10737739049091" lon="14.875930490299032"><ele>810.9999999999999</ele><time>2026-04-15T08:38:45Z</time></trkpt><trkpt lat="37.10741501223674" lon="14.876011772281782"><ele>811.0</ele><time>2026-04-15T08:38:46Z</time></trkpt><trkpt lat="37.1074631329236" lon="14.876089717199449"><ele>812.0</ele><time>2026-04-15T08:38:47Z</time></trkpt><trkpt lat="37.10751415342865" lon="14.876154230427149"><ele>813.0</ele><time>2026-04-15T08:38:48Z</time></trkpt><trkpt lat="37.10756577187474" lon="14.87621066080304"><ele>814.0</ele><time>2026-04-15T08:38:49Z</time></trkpt><trkpt lat="37.10766158737945" lon="14.876299616841752"><ele>815.0</ele><time>2026-04-15T08:38:51Z</time></trkpt><trkpt lat="37.10775173696471" lon="14.876392728121987"><ele>816.0</ele><time>2026-04-15T08:38:53Z</time></trkpt><trkpt lat="37.10784778332265" lon="14.876508042819362"><ele>816.0</ele><time>2026-04-15T08:38:55Z</time></trkpt><trkpt lat="37.1079204862193" lon="14.876590170504526"><ele>816.0</ele><time>2026-04-15T08:38:56Z</time></trkpt><trkpt lat="37.10799116493985" lon="14.876679215553873"><ele>816.0</ele><time>2026-04-15T08:38:57Z</time></trkpt><trkpt lat="37.10806687388211" lon="14.876779577738079"><ele>816.0</ele><time>2026-04-15T08:38:58Z</time></trkpt><trkpt lat="37.10814464188402" lon="14.876887232500719"><ele>816.0</ele><time>2026-04-15T08:38:59Z</time></trkpt><trkpt lat="37.108218392551" lon="14.876989476920615"><ele>814.75</ele><time>2026-04-15T08:39:00Z</time></trkpt><trkpt lat="37.108298514340945" lon="14.87708266558849"><ele>813.5</ele><time>2026-04-15T08:39:01Z</time></trkpt><trkpt lat="37.10838935257712" lon="14.877165125167407"><ele>812.25</ele><time>2026-04-15T08:39:02Z</time></trkpt><trkpt lat="37.108486523803194" lon="14.877246779709305"><ele>811.0</ele><time>2026-04-15T08:39:03Z</time></trkpt><trkpt lat="37.10858403209402" lon="14.877328772289681"><ele>811.0</ele><time>2026-04-15T08:39:04Z</time></trkpt><trkpt lat="37.108667705272886" lon="14.877419260820695"><ele>811.0</ele><time>2026-04-15T08:39:05Z</time></trkpt><trkpt lat="37.10873264053236" lon="14.877509709947171"><ele>811.0</ele><time>2026-04-15T08:39:06Z</time></trkpt><trkpt lat="37.10878004588456" lon="14.87761399163026"><ele>811.0</ele><time>2026-04-15T08:39:07Z</time></trkpt><trkpt lat="37.10882456013967" lon="14.877718313381614"><ele>811.0</ele><time>2026-04-15T08:39:08Z</time></trkpt><trkpt lat="37.10887571326813" lon="14.877814586806993"><ele>810.8333333333333</ele><time>2026-04-15T08:39:09Z</time></trkpt><trkpt lat="37.10892427922451" lon="14.87789713481217"><ele>810.6666666666666</ele><time>2026-04-15T08:39:10Z</time></trkpt><trkpt lat="37.108963885039564" lon="14.87798446922841"><ele>810.5</ele><time>2026-04-15T08:39:11Z</time></trkpt><trkpt lat="37.1090076580371" lon="14.87808423499206"><ele>810.3333333333333</ele><time>2026-04-15T08:39:12Z</time></trkpt><trkpt lat="37.10905761242179" lon="14.878181249209877"><ele>810.1666666666666</ele><time>2026-04-15T08:39:13Z</time></trkpt><trkpt lat="37.10911219421923" lon="14.878271569548385"><ele>810.0</ele><time>2026-04-15T08:39:14Z</time></trkpt><trkpt lat="37.10917822581256" lon="14.878347214213814"><ele>810.0</ele><time>2026-04-15T08:39:15Z</time></trkpt><trkpt lat="37.10924390818547" lon="14.878433357281395"><ele>810.0</ele><time>2026-04-15T08:39:16Z</time></trkpt><trkpt lat="37.10929873446969" lon="14.878542697751836"><ele>810.0</ele><time>2026-04-15T08:39:17Z</time></trkpt><trkpt lat="37.109350586361785" lon="14.878656120316819"><ele>810.0</ele><time>2026-04-15T08:39:18Z</time></trkpt><trkpt lat="37.10938935094296" lon="14.878786689685738"><ele>810.0</ele><time>2026-04-15T08:39:19Z</time></trkpt><trkpt lat="37.10943486180152" lon="14.878916717793803"><ele>809.0</ele><time>2026-04-15T08:39:20Z</time></trkpt><trkpt lat="37.10951103549994" lon="14.879040680438601"><ele>808.0</ele><time>2026-04-15T08:39:21Z</time></trkpt><trkpt lat="37.10961458241064" lon="14.87913392782696"><ele>807.0</ele><time>2026-04-15T08:39:22Z</time></trkpt><trkpt lat="37.109748533561685" lon="14.879198429129628"><ele>806.0</ele><time>2026-04-15T08:39:23Z</time></trkpt><trkpt lat="37.10989248225284" lon="14.87926899100706"><ele>806.25</ele><time>2026-04-15T08:39:24Z</time></trkpt><trkpt lat="37.110020396406846" lon="14.87935633689102"><ele>806.5</ele><time>2026-04-15T08:39:25Z</time></trkpt><trkpt lat="37.110135727415724" lon="14.879446772741103"><ele>806.75</ele><time>2026-04-15T08:39:26Z</time></trkpt><trkpt lat="37.11024017849766" lon="14.87952204327428"><ele>807.0</ele><time>2026-04-15T08:39:27Z</time></trkpt><trkpt lat="37.11034776680926" lon="14.879570827810795"><ele>807.0</ele><time>2026-04-15T08:39:27.999Z</time></trkpt><trkpt lat="37.1104507146133" lon="14.879595589169453"><ele>807.0</ele><time>2026-04-15T08:39:28.999Z</time></trkpt><trkpt lat="37.11054975946478" lon="14.879619407124517"><ele>807.0</ele><time>2026-04-15T08:39:29.999Z</time></trkpt><trkpt lat="37.11065903798305" lon="14.879645894164387"><ele>807.0</ele><time>2026-04-15T08:39:30.999Z</time></trkpt><trkpt lat="37.11077443821721" lon="14.879673868511714"><ele>807.0</ele><time>2026-04-15T08:39:31.999Z</time></trkpt><trkpt lat="37.11090069359401" lon="14.879705486909215"><ele>806.0</ele><time>2026-04-15T08:39:32.999Z</time></trkpt><trkpt lat="37.11102975749251" lon="14.879755399038979"><ele>805.0</ele><time>2026-04-15T08:39:33.999Z</time></trkpt><trkpt lat="37.111151405792086" lon="14.879812149259303"><ele>804.0</ele><time>2026-04-15T08:39:34.999Z</time></trkpt><trkpt lat="37.11126033493568" lon="14.879870902210703"><ele>803.0</ele><time>2026-04-15T08:39:35.999Z</time></trkpt><trkpt lat="37.11137374316898" lon="14.879912978627251"><ele>803.0</ele><time>2026-04-15T08:39:36.999Z</time></trkpt><trkpt lat="37.111483265283994" lon="14.879944076049984"><ele>803.0</ele><time>2026-04-15T08:39:37.999Z</time></trkpt><trkpt lat="37.11158728816179" lon="14.879966203980866"><ele>803.0</ele><time>2026-04-15T08:39:38.999Z</time></trkpt><trkpt lat="37.11168515127393" lon="14.879977092346726"><ele>803.0</ele><time>2026-04-15T08:39:39.999Z</time></trkpt><trkpt lat="37.11177625370147" lon="14.879992083334104"><ele>803.0</ele><time>2026-04-15T08:39:40.999Z</time></trkpt><trkpt lat="37.11186353458237" lon="14.880005082142688"><ele>802.5000000000001</ele><time>2026-04-15T08:39:41.999Z</time></trkpt><trkpt lat="37.11194397791624" lon="14.880014468734162"><ele>802.0</ele><time>2026-04-15T08:39:42.999Z</time></trkpt><trkpt lat="37.1120214844718" lon="14.880022712299505"><ele>801.5</ele><time>2026-04-15T08:39:43.999Z</time></trkpt><trkpt lat="37.11210989026353" lon="14.88003099750922"><ele>801.0</ele><time>2026-04-15T08:39:44.999Z</time></trkpt><trkpt lat="37.11220567601609" lon="14.880042482945818"><ele>800.5000000000001</ele><time>2026-04-15T08:39:45.999Z</time></trkpt><trkpt lat="37.112302808864946" lon="14.88005699351829"><ele>800.0</ele><time>2026-04-15T08:39:46.999Z</time></trkpt><trkpt lat="37.112416338345156" lon="14.880062233833502"><ele>799.8</ele><time>2026-04-15T08:39:47.999Z</time></trkpt><trkpt lat="37.112524796337176" lon="14.880068462061969"><ele>799.6</ele><time>2026-04-15T08:39:48.999Z</time></trkpt><trkpt lat="37.112629198849575" lon="14.880072798722626"><ele>799.4000000000001</ele><time>2026-04-15T08:39:49.999Z</time></trkpt><trkpt lat="37.11273206257282" lon="14.880077162486895"><ele>799.2</ele><time>2026-04-15T08:39:50.999Z</time></trkpt><trkpt lat="37.112841126611" lon="14.880086191593252"><ele>799.0</ele><time>2026-04-15T08:39:51.999Z</time></trkpt><trkpt lat="37.11294255781887" lon="14.880105469016698"><ele>799.0</ele><time>2026-04-15T08:39:52.999Z</time></trkpt><trkpt lat="37.1130503013556" lon="14.880109751721438"><ele>799.0</ele><time>2026-04-15T08:39:53.999Z</time></trkpt><trkpt lat="37.11315627570228" lon="14.880090502559643"><ele>799.0</ele><time>2026-04-15T08:39:54.999Z</time></trkpt><trkpt lat="37.113260035215234" lon="14.880049539389585"><ele>799.0</ele><time>2026-04-15T08:39:55.999Z</time></trkpt><trkpt lat="37.11335241683664" lon="14.880002118650172"><ele>799.0</ele><time>2026-04-15T08:39:56.999Z</time></trkpt><trkpt lat="37.11344348238487" lon="14.879963282661947"><ele>798.0</ele><time>2026-04-15T08:39:57.999Z</time></trkpt><trkpt lat="37.11353278429265" lon="14.87995092388713"><ele>797.0</ele><time>2026-04-15T08:39:58.999Z</time></trkpt><trkpt lat="37.113612822931294" lon="14.87997655234679"><ele>796.0</ele><time>2026-04-15T08:39:59.999Z</time></trkpt><trkpt lat="37.11369120474833" lon="14.88004718208972"><ele>795.0</ele><time>2026-04-15T08:40:00.999Z</time></trkpt><trkpt lat="37.11376242650957" lon="14.88013206198222"><ele>794.0</ele><time>2026-04-15T08:40:01.999Z</time></trkpt><trkpt lat="37.1138364215871" lon="14.880190258026355"><ele>793.2857142857142</ele><time>2026-04-15T08:40:02.999Z</time></trkpt><trkpt lat="37.113911669677655" lon="14.880237377395737"><ele>792.5714285714286</ele><time>2026-04-15T08:40:03.999Z</time></trkpt><trkpt lat="37.113984630348476" lon="14.880260291799765"><ele>791.8571428571429</ele><time>2026-04-15T08:40:04.999Z</time></trkpt><trkpt lat="37.11405668554479" lon="14.880276731090099"><ele>791.1428571428571</ele><time>2026-04-15T08:40:05.999Z</time></trkpt><trkpt lat="37.11412736473167" lon="14.880271938353783"><ele>790.4285714285714</ele><time>2026-04-15T08:40:06.999Z</time></trkpt><trkpt lat="37.11419752757584" lon="14.880239021959298"><ele>789.7142857142857</ele><time>2026-04-15T08:40:07.999Z</time></trkpt><trkpt lat="37.11426023713003" lon="14.880204526738005"><ele>789.0</ele><time>2026-04-15T08:40:08.999Z</time></trkpt><trkpt lat="37.114313080207005" lon="14.880157895100368"><ele>789.3333333333334</ele><time>2026-04-15T08:40:09.999Z</time></trkpt><trkpt lat="37.11436146489411" lon="14.880096566760093"><ele>789.6666666666667</ele><time>2026-04-15T08:40:10.999Z</time></trkpt><trkpt lat="37.11440581001371" lon="14.880024023904458"><ele>790.0</ele><time>2026-04-15T08:40:11.999Z</time></trkpt><trkpt lat="37.11446420907278" lon="14.879964822580336"><ele>790.3333333333334</ele><time>2026-04-15T08:40:12.999Z</time></trkpt><trkpt lat="37.11454324376786" lon="14.879934011778344"><ele>790.6666666666667</ele><time>2026-04-15T08:40:13.999Z</time></trkpt><trkpt lat="37.11462139619585" lon="14.879884169976949"><ele>791.0</ele><time>2026-04-15T08:40:14.999Z</time></trkpt><trkpt lat="37.11468245097457" lon="14.879801677856998"><ele>791.0000000000001</ele><time>2026-04-15T08:40:15.999Z</time></trkpt><trkpt lat="37.114738225834564" lon="14.879696420430319"><ele>791.0</ele><time>2026-04-15T08:40:16.999Z</time></trkpt><trkpt lat="37.114767829698124" lon="14.879592776491405"><ele>791.0</ele><time>2026-04-15T08:40:17.999Z</time></trkpt><trkpt lat="37.1147979396074" lon="14.879487775430393"><ele>791.0</ele><time>2026-04-15T08:40:18.999Z</time></trkpt><trkpt lat="37.114824979782725" lon="14.879409124201024"><ele>791.0000000000001</ele><time>2026-04-15T08:40:19.999Z</time></trkpt><trkpt lat="37.11484839608685" lon="14.879326224659042"><ele>791.0</ele><time>2026-04-15T08:40:20.999Z</time></trkpt><trkpt lat="37.11487900790633" lon="14.879246559478103"><ele>791.3333333333334</ele><time>2026-04-15T08:40:21.999Z</time></trkpt><trkpt lat="37.11491860408961" lon="14.879174698552088"><ele>791.6666666666667</ele><time>2026-04-15T08:40:22.999Z</time></trkpt><trkpt lat="37.11497553948084" lon="14.879107917320827"><ele>792.0</ele><time>2026-04-15T08:40:23.999Z</time></trkpt><trkpt lat="37.11503594998142" lon="14.879067063739152"><ele>792.3333333333333</ele><time>2026-04-15T08:40:24.999Z</time></trkpt><trkpt lat="37.115140649936016" lon="14.879010747496627"><ele>792.6666666666666</ele><time>2026-04-15T08:40:26.999Z</time></trkpt><trkpt lat="37.115238205820035" lon="14.879047644687205"><ele>793.0</ele><time>2026-04-15T08:40:28.999Z</time></trkpt><trkpt lat="37.115302854093564" lon="14.87911620110604"><ele>793.0</ele><time>2026-04-15T08:40:30.999Z</time></trkpt><trkpt lat="37.11529828496979" lon="14.879246930773961"><ele>793.0</ele><time>2026-04-15T08:40:32.999Z</time></trkpt><trkpt lat="37.11525867183895" lon="14.879335042246561"><ele>793.0</ele><time>2026-04-15T08:40:33.999Z</time></trkpt><trkpt lat="37.115222164933314" lon="14.87943852084858"><ele>793.0</ele><time>2026-04-15T08:40:34.998Z</time></trkpt><trkpt lat="37.115206328566714" lon="14.879566641020382"><ele>793.0</ele><time>2026-04-15T08:40:35.998Z</time></trkpt><trkpt lat="37.11520989393854" lon="14.879701466465105"><ele>791.5999999999999</ele><time>2026-04-15T08:40:36.998Z</time></trkpt><trkpt lat="37.115185382432905" lon="14.879831009874325"><ele>790.1999999999999</ele><time>2026-04-15T08:40:37.998Z</time></trkpt><trkpt lat="37.11514412476692" lon="14.879952775774806"><ele>788.8</ele><time>2026-04-15T08:40:38.998Z</time></trkpt><trkpt lat="37.11513080241706" lon="14.88008893526047"><ele>787.4</ele><time>2026-04-15T08:40:39.998Z</time></trkpt><trkpt lat="37.115143692829996" lon="14.880218172391967"><ele>786.0</ele><time>2026-04-15T08:40:40.998Z</time></trkpt><trkpt lat="37.11514943301368" lon="14.880349009245675"><ele>786.0</ele><time>2026-04-15T08:40:41.998Z</time></trkpt><trkpt lat="37.11515107434819" lon="14.880489131327348"><ele>786.0</ele><time>2026-04-15T08:40:42.998Z</time></trkpt><trkpt lat="37.11514769413609" lon="14.880621173952251"><ele>786.0</ele><time>2026-04-15T08:40:43.998Z</time></trkpt><trkpt lat="37.1151277769117" lon="14.880729828727596"><ele>786.0</ele><time>2026-04-15T08:40:44.998Z</time></trkpt><trkpt lat="37.11509635918859" lon="14.88081282328098"><ele>786.0</ele><time>2026-04-15T08:40:45.998Z</time></trkpt><trkpt lat="37.11505848578714" lon="14.880891112565436"><ele>786.4</ele><time>2026-04-15T08:40:47Z</time></trkpt><trkpt lat="37.11501453133167" lon="14.880974031448469"><ele>786.8</ele><time>2026-04-15T08:40:48Z</time></trkpt><trkpt lat="37.114972126361415" lon="14.881092043760061"><ele>787.1999999999999</ele><time>2026-04-15T08:40:49Z</time></trkpt><trkpt lat="37.114922099088226" lon="14.881216448968802"><ele>787.5999999999999</ele><time>2026-04-15T08:40:50Z</time></trkpt><trkpt lat="37.11487027947813" lon="14.881341092724911"><ele>788.0</ele><time>2026-04-15T08:40:51Z</time></trkpt><trkpt lat="37.11482645650287" lon="14.881454069879368"><ele>786.0</ele><time>2026-04-15T08:40:52Z</time></trkpt><trkpt lat="37.114797641670876" lon="14.881555654407014"><ele>784.0</ele><time>2026-04-15T08:40:53Z</time></trkpt><trkpt lat="37.114800153718974" lon="14.881647211747175"><ele>782.0</ele><time>2026-04-15T08:40:54Z</time></trkpt><trkpt lat="37.11481992020221" lon="14.88174939301358"><ele>780.0</ele><time>2026-04-15T08:40:55Z</time></trkpt><trkpt lat="37.114858211279795" lon="14.881878507069018"><ele>778.0</ele><time>2026-04-15T08:40:56Z</time></trkpt><trkpt lat="37.11488756382664" lon="14.882023512324333"><ele>777.4</ele><time>2026-04-15T08:40:57Z</time></trkpt><trkpt lat="37.11488790801175" lon="14.88216565977815"><ele>776.8</ele><time>2026-04-15T08:40:58Z</time></trkpt><trkpt lat="37.11487714487107" lon="14.88230824156444"><ele>776.2</ele><time>2026-04-15T08:40:59Z</time></trkpt><trkpt lat="37.114873440865125" lon="14.882447006629667"><ele>775.6</ele><time>2026-04-15T08:41:00Z</time></trkpt><trkpt lat="37.114861291226724" lon="14.882585147167728"><ele>775.0</ele><time>2026-04-15T08:41:01Z</time></trkpt><trkpt lat="37.11485141990871" lon="14.882710550981562"><ele>775.0</ele><time>2026-04-15T08:41:02Z</time></trkpt><trkpt lat="37.11482204267116" lon="14.882851833051916"><ele>775.0</ele><time>2026-04-15T08:41:03Z</time></trkpt><trkpt lat="37.11480233427529" lon="14.882972004791082"><ele>775.0</ele><time>2026-04-15T08:41:04Z</time></trkpt><trkpt lat="37.11477304719183" lon="14.883097495208542"><ele>775.0</ele><time>2026-04-15T08:41:05Z</time></trkpt><trkpt lat="37.11472625446898" lon="14.88322965105674"><ele>775.0</ele><time>2026-04-15T08:41:06Z</time></trkpt><trkpt lat="37.11467968273091" lon="14.883365992821004"><ele>776.8</ele><time>2026-04-15T08:41:07Z</time></trkpt><trkpt lat="37.11464571242543" lon="14.883505561296369"><ele>778.6</ele><time>2026-04-15T08:41:08Z</time></trkpt><trkpt lat="37.114613752267445" lon="14.883655534584497"><ele>780.4000000000001</ele><time>2026-04-15T08:41:09Z</time></trkpt><trkpt lat="37.11459008961303" lon="14.883786185190557"><ele>782.2</ele><time>2026-04-15T08:41:10Z</time></trkpt><trkpt lat="37.1145850022918" lon="14.883912194482456"><ele>784.0</ele><time>2026-04-15T08:41:11Z</time></trkpt><trkpt lat="37.11458297043865" lon="14.884063915247372"><ele>784.0</ele><time>2026-04-15T08:41:12Z</time></trkpt><trkpt lat="37.114577070626915" lon="14.884223570635383"><ele>784.0</ele><time>2026-04-15T08:41:13Z</time></trkpt><trkpt lat="37.11456974578861" lon="14.884384299325497"><ele>784.0</ele><time>2026-04-15T08:41:14Z</time></trkpt><trkpt lat="37.11457144741349" lon="14.884541411925285"><ele>784.0</ele><time>2026-04-15T08:41:15Z</time></trkpt><trkpt lat="37.11457810723974" lon="14.884688285960532"><ele>785.1666666666666</ele><time>2026-04-15T08:41:16Z</time></trkpt><trkpt lat="37.11459089233293" lon="14.884829336545042"><ele>786.3333333333333</ele><time>2026-04-15T08:41:17Z</time></trkpt><trkpt lat="37.11459475806911" lon="14.884944976087224"><ele>787.5</ele><time>2026-04-15T08:41:18Z</time></trkpt><trkpt lat="37.114598086470515" lon="14.885037089167948"><ele>788.6666666666667</ele><time>2026-04-15T08:41:19Z</time></trkpt><trkpt lat="37.1146035311321" lon="14.885125088428028"><ele>789.8333333333334</ele><time>2026-04-15T08:41:20Z</time></trkpt><trkpt lat="37.11461694533422" lon="14.885222625717812"><ele>791.0</ele><time>2026-04-15T08:41:21Z</time></trkpt><trkpt lat="37.114641107105946" lon="14.885312297143143"><ele>791.0</ele><time>2026-04-15T08:41:22Z</time></trkpt><trkpt lat="37.114675481073085" lon="14.88538111110659"><ele>791.0</ele><time>2026-04-15T08:41:23Z</time></trkpt><trkpt lat="37.11472435532418" lon="14.885517695403907"><ele>791.0</ele><time>2026-04-15T08:41:25Z</time></trkpt><trkpt lat="37.11474067501935" lon="14.885633995509009"><ele>791.0</ele><time>2026-04-15T08:41:27Z</time></trkpt><trkpt lat="37.11470695371838" lon="14.885490751914128"><ele>791.0</ele><time>2026-04-15T08:42:01.999Z</time></trkpt><trkpt lat="37.11468822457957" lon="14.885398666602411"><ele>791.0</ele><time>2026-04-15T08:42:02.999Z</time></trkpt><trkpt lat="37.11465280060619" lon="14.885282220571733"><ele>791.0</ele><time>2026-04-15T08:42:03.999Z</time></trkpt><trkpt lat="37.11461288923937" lon="14.885143073130932"><ele>791.0</ele><time>2026-04-15T08:42:04.999Z</time></trkpt><trkpt lat="37.114593223593566" lon="14.884998520423178"><ele>791.0</ele><time>2026-04-15T08:42:05.999Z</time></trkpt><trkpt lat="37.11459135935202" lon="14.884863893877212"><ele>791.0</ele><time>2026-04-15T08:42:06.999Z</time></trkpt><trkpt lat="37.114594369540164" lon="14.884726746690793"><ele>791.1999999999999</ele><time>2026-04-15T08:42:07.999Z</time></trkpt><trkpt lat="37.11458678148965" lon="14.884594615369744"><ele>791.4</ele><time>2026-04-15T08:42:08.999Z</time></trkpt><trkpt lat="37.11457811306666" lon="14.884472138859326"><ele>791.6</ele><time>2026-04-15T08:42:09.999Z</time></trkpt><trkpt lat="37.11457247742076" lon="14.884329727841255"><ele>791.8</ele><time>2026-04-15T08:42:10.999Z</time></trkpt><trkpt lat="37.11457570898977" lon="14.88417507315705"><ele>792.0</ele><time>2026-04-15T08:42:11.999Z</time></trkpt><trkpt lat="37.11458844017777" lon="14.884035718641627"><ele>790.4000000000001</ele><time>2026-04-15T08:42:12.999Z</time></trkpt><trkpt lat="37.114599835306166" lon="14.88389235406751"><ele>788.8000000000001</ele><time>2026-04-15T08:42:13.999Z</time></trkpt><trkpt lat="37.11459464758891" lon="14.883771617431284"><ele>787.2</ele><time>2026-04-15T08:42:14.999Z</time></trkpt><trkpt lat="37.114589155021434" lon="14.883656585193402"><ele>785.6</ele><time>2026-04-15T08:42:15.999Z</time></trkpt><trkpt lat="37.11461332970347" lon="14.883543081106456"><ele>784.0</ele><time>2026-04-15T08:42:16.999Z</time></trkpt><trkpt lat="37.1146465658777" lon="14.883409440244046"><ele>781.75</ele><time>2026-04-15T08:42:17.999Z</time></trkpt><trkpt lat="37.11468759460827" lon="14.883265214899987"><ele>779.5</ele><time>2026-04-15T08:42:18.999Z</time></trkpt><trkpt lat="37.11473775278515" lon="14.883122271683957"><ele>777.25</ele><time>2026-04-15T08:42:19.999Z</time></trkpt><trkpt lat="37.11478541811911" lon="14.882983912373083"><ele>775.0</ele><time>2026-04-15T08:42:20.999Z</time></trkpt><trkpt lat="37.11481902581767" lon="14.882842064438204"><ele>775.0</ele><time>2026-04-15T08:42:21.999Z</time></trkpt><trkpt lat="37.11483601237823" lon="14.882691440637275"><ele>775.0</ele><time>2026-04-15T08:42:22.999Z</time></trkpt><trkpt lat="37.114849524205404" lon="14.88254615917213"><ele>775.0</ele><time>2026-04-15T08:42:23.999Z</time></trkpt><trkpt lat="37.11486320811947" lon="14.88241284789626"><ele>775.0</ele><time>2026-04-15T08:42:24.999Z</time></trkpt><trkpt lat="37.114863939264644" lon="14.88227768400927"><ele>775.6</ele><time>2026-04-15T08:42:25.999Z</time></trkpt><trkpt lat="37.114856181941335" lon="14.882147910053424"><ele>776.2</ele><time>2026-04-15T08:42:26.999Z</time></trkpt><trkpt lat="37.1148576794" lon="14.882002002085546"><ele>776.8</ele><time>2026-04-15T08:42:27.999Z</time></trkpt><trkpt lat="37.11486348659598" lon="14.88186958597655"><ele>777.4</ele><time>2026-04-15T08:42:28.999Z</time></trkpt><trkpt lat="37.11484285288044" lon="14.88174503341062"><ele>778.0</ele><time>2026-04-15T08:42:29.999Z</time></trkpt><trkpt lat="37.11480961903435" lon="14.881625479545413"><ele>778.0</ele><time>2026-04-15T08:42:30.999Z</time></trkpt><trkpt lat="37.11480195587939" lon="14.881511563235671"><ele>778.0</ele><time>2026-04-15T08:42:31.999Z</time></trkpt><trkpt lat="37.114822863484456" lon="14.881406267337882"><ele>778.0</ele><time>2026-04-15T08:42:32.999Z</time></trkpt><trkpt lat="37.11486588519426" lon="14.881310835007202"><ele>778.0</ele><time>2026-04-15T08:42:33.999Z</time></trkpt><trkpt lat="37.11492053812815" lon="14.8812082722996"><ele>778.0</ele><time>2026-04-15T08:42:34.999Z</time></trkpt><trkpt lat="37.11497044511777" lon="14.881089082449009"><ele>779.5999999999999</ele><time>2026-04-15T08:42:35.999Z</time></trkpt><trkpt lat="37.11501777387607" lon="14.880965127392708"><ele>781.1999999999999</ele><time>2026-04-15T08:42:36.999Z</time></trkpt><trkpt lat="37.115064628801285" lon="14.880834893949041"><ele>782.8</ele><time>2026-04-15T08:42:37.999Z</time></trkpt><trkpt lat="37.11510986883749" lon="14.880723890611511"><ele>784.4</ele><time>2026-04-15T08:42:38.998Z</time></trkpt><trkpt lat="37.11514280794014" lon="14.880632417744696"><ele>786.0</ele><time>2026-04-15T08:42:39.998Z</time></trkpt><trkpt lat="37.11515015915086" lon="14.880533457971483"><ele>786.0</ele><time>2026-04-15T08:42:40.998Z</time></trkpt><trkpt lat="37.11515126251018" lon="14.880423435223406"><ele>786.0</ele><time>2026-04-15T08:42:41.998Z</time></trkpt><trkpt lat="37.11514270217028" lon="14.880300484886254"><ele>786.0</ele><time>2026-04-15T08:42:42.998Z</time></trkpt><trkpt lat="37.115133252889535" lon="14.880155643508823"><ele>786.0</ele><time>2026-04-15T08:42:43.998Z</time></trkpt><trkpt lat="37.11513151637184" lon="14.880005659104306"><ele>786.0</ele><time>2026-04-15T08:42:44.998Z</time></trkpt><trkpt lat="37.115141868088855" lon="14.879870267973237"><ele>785.8333333333334</ele><time>2026-04-15T08:42:45.998Z</time></trkpt><trkpt lat="37.11517187934615" lon="14.87974935241902"><ele>785.6666666666667</ele><time>2026-04-15T08:42:46.998Z</time></trkpt><trkpt lat="37.11521243561992" lon="14.879649860942221"><ele>785.5</ele><time>2026-04-15T08:42:47.998Z</time></trkpt><trkpt lat="37.11522209925375" lon="14.879554049303806"><ele>785.3333333333334</ele><time>2026-04-15T08:42:48.998Z</time></trkpt><trkpt lat="37.11521828208781" lon="14.879460368709799"><ele>785.1666666666667</ele><time>2026-04-15T08:42:49.998Z</time></trkpt><trkpt lat="37.11523873803875" lon="14.879355185991379"><ele>785.0</ele><time>2026-04-15T08:42:50.998Z</time></trkpt><trkpt lat="37.11527786704021" lon="14.879260190772966"><ele>786.3333333333334</ele><time>2026-04-15T08:42:51.998Z</time></trkpt><trkpt lat="37.11530237943604" lon="14.87917923600691"><ele>787.6666666666667</ele><time>2026-04-15T08:42:53Z</time></trkpt><trkpt lat="37.11527312670628" lon="14.879088627861574"><ele>789.0</ele><time>2026-04-15T08:42:55Z</time></trkpt><trkpt lat="37.11519984063698" lon="14.879050251322152"><ele>790.3333333333333</ele><time>2026-04-15T08:42:57Z</time></trkpt><trkpt lat="37.115062933948884" lon="14.87905014996625"><ele>791.6666666666666</ele><time>2026-04-15T08:42:59Z</time></trkpt><trkpt lat="37.11499499789026" lon="14.879100486772805"><ele>793.0</ele><time>2026-04-15T08:43:00Z</time></trkpt><trkpt lat="37.1149184230841" lon="14.879186737018458"><ele>792.5999999999999</ele><time>2026-04-15T08:43:01Z</time></trkpt><trkpt lat="37.11485055840415" lon="14.879276898669904"><ele>792.1999999999999</ele><time>2026-04-15T08:43:02Z</time></trkpt><trkpt lat="37.11480922427578" lon="14.879382260590226"><ele>791.8</ele><time>2026-04-15T08:43:03Z</time></trkpt><trkpt lat="37.11478820124453" lon="14.879500256492964"><ele>791.4</ele><time>2026-04-15T08:43:04Z</time></trkpt><trkpt lat="37.1147527329811" lon="14.879635340616263"><ele>791.0</ele><time>2026-04-15T08:43:05Z</time></trkpt><trkpt lat="37.114701928941535" lon="14.879749530560664"><ele>791.0</ele><time>2026-04-15T08:43:06Z</time></trkpt><trkpt lat="37.11463247587502" lon="14.879865564053464"><ele>791.0</ele><time>2026-04-15T08:43:07Z</time></trkpt><trkpt lat="37.11455581846597" lon="14.879940311697503"><ele>791.0</ele><time>2026-04-15T08:43:08Z</time></trkpt><trkpt lat="37.11445447907086" lon="14.880004130988453"><ele>791.0</ele><time>2026-04-15T08:43:09Z</time></trkpt><trkpt lat="37.11436226675507" lon="14.880054580545037"><ele>791.0</ele><time>2026-04-15T08:43:10Z</time></trkpt><trkpt lat="37.11428105217429" lon="14.880142561771613"><ele>790.6666666666667</ele><time>2026-04-15T08:43:11Z</time></trkpt><trkpt lat="37.114213164120514" lon="14.88022830323994"><ele>790.3333333333334</ele><time>2026-04-15T08:43:12Z</time></trkpt><trkpt lat="37.114132702901" lon="14.880275364901209"><ele>790.0</ele><time>2026-04-15T08:43:13Z</time></trkpt><trkpt lat="37.114055316875145" lon="14.880284856926774"><ele>789.6666666666667</ele><time>2026-04-15T08:43:14Z</time></trkpt><trkpt lat="37.113971171309416" lon="14.880261520014585"><ele>789.3333333333334</ele><time>2026-04-15T08:43:15Z</time></trkpt><trkpt lat="37.11388078040903" lon="14.88021733816192"><ele>789.0</ele><time>2026-04-15T08:43:16Z</time></trkpt><trkpt lat="37.11378130906586" lon="14.880146470054518"><ele>790.0</ele><time>2026-04-15T08:43:17Z</time></trkpt><trkpt lat="37.11369259192779" lon="14.880063358621529"><ele>791.0</ele><time>2026-04-15T08:43:18Z</time></trkpt><trkpt lat="37.11360488918969" lon="14.879980436002029"><ele>792.0</ele><time>2026-04-15T08:43:19Z</time></trkpt><trkpt lat="37.113520339643884" lon="14.87993527537044"><ele>793.0</ele><time>2026-04-15T08:43:20Z</time></trkpt><trkpt lat="37.11342483162041" lon="14.879936098196135"><ele>794.0</ele><time>2026-04-15T08:43:21Z</time></trkpt><trkpt lat="37.11331570525696" lon="14.87997719827005"><ele>793.75</ele><time>2026-04-15T08:43:22Z</time></trkpt><trkpt lat="37.11320272615112" lon="14.880044184718635"><ele>793.5</ele><time>2026-04-15T08:43:23Z</time></trkpt><trkpt lat="37.11307947635082" lon="14.880096519664342"><ele>793.25</ele><time>2026-04-15T08:43:24Z</time></trkpt><trkpt lat="37.1129360103365" lon="14.880109847917916"><ele>793.0</ele><time>2026-04-15T08:43:25Z</time></trkpt><trkpt lat="37.11277584269663" lon="14.880086349854384"><ele>794.5</ele><time>2026-04-15T08:43:26Z</time></trkpt><trkpt lat="37.112631587775525" lon="14.880061546278563"><ele>796.0</ele><time>2026-04-15T08:43:27Z</time></trkpt><trkpt lat="37.112491701049606" lon="14.880044868327841"><ele>797.5</ele><time>2026-04-15T08:43:28Z</time></trkpt><trkpt lat="37.112344039024826" lon="14.88004384281166"><ele>799.0</ele><time>2026-04-15T08:43:29Z</time></trkpt><trkpt lat="37.112188145141396" lon="14.880032716149321"><ele>799.3333333333333</ele><time>2026-04-15T08:43:30Z</time></trkpt><trkpt lat="37.11203240836324" lon="14.880004060365494"><ele>799.6666666666667</ele><time>2026-04-15T08:43:31Z</time></trkpt><trkpt lat="37.11186611726001" lon="14.879980730289613"><ele>800.0</ele><time>2026-04-15T08:43:32Z</time></trkpt><trkpt lat="37.1116870854147" lon="14.879965013156006"><ele>801.0</ele><time>2026-04-15T08:43:33Z</time></trkpt><trkpt lat="37.111490810208316" lon="14.879937111641373"><ele>802.0</ele><time>2026-04-15T08:43:34Z</time></trkpt><trkpt lat="37.11129435569905" lon="14.879885914596656"><ele>803.0</ele><time>2026-04-15T08:43:35Z</time></trkpt><trkpt lat="37.11109911335966" lon="14.879793533553583"><ele>803.0</ele><time>2026-04-15T08:43:36Z</time></trkpt><trkpt lat="37.110918961918266" lon="14.87970134256589"><ele>803.0</ele><time>2026-04-15T08:43:37Z</time></trkpt><trkpt lat="37.11074293503718" lon="14.879640254595488"><ele>803.0</ele><time>2026-04-15T08:43:38Z</time></trkpt><trkpt lat="37.110574793427126" lon="14.879600721165188"><ele>804.0</ele><time>2026-04-15T08:43:39Z</time></trkpt><trkpt lat="37.1104261462962" lon="14.879572083550194"><ele>805.0</ele><time>2026-04-15T08:43:40Z</time></trkpt><trkpt lat="37.11030079956884" lon="14.879524166787249"><ele>806.0</ele><time>2026-04-15T08:43:40.999Z</time></trkpt><trkpt lat="37.11016499135389" lon="14.879458994832275"><ele>807.0</ele><time>2026-04-15T08:43:41.999Z</time></trkpt><trkpt lat="37.11002357155057" lon="14.879377256547295"><ele>806.6666666666667</ele><time>2026-04-15T08:43:42.999Z</time></trkpt><trkpt lat="37.10989186613188" lon="14.879263742810432"><ele>806.3333333333334</ele><time>2026-04-15T08:43:43.999Z</time></trkpt><trkpt lat="37.10975054452103" lon="14.879172759310036"><ele>806.0</ele><time>2026-04-15T08:43:44.999Z</time></trkpt><trkpt lat="37.109611701335766" lon="14.879101763320332"><ele>806.0</ele><time>2026-04-15T08:43:45.999Z</time></trkpt><trkpt lat="37.10949137838971" lon="14.879014936273107"><ele>806.0</ele><time>2026-04-15T08:43:46.999Z</time></trkpt><trkpt lat="37.109390493484725" lon="14.878879896883227"><ele>806.0</ele><time>2026-04-15T08:43:47.999Z</time></trkpt><trkpt lat="37.10932115991324" lon="14.878705394793542"><ele>806.0</ele><time>2026-04-15T08:43:48.999Z</time></trkpt><trkpt lat="37.10928098989481" lon="14.878522305246747"><ele>807.0</ele><time>2026-04-15T08:43:49.999Z</time></trkpt><trkpt lat="37.10921211810575" lon="14.878365415142493"><ele>808.0</ele><time>2026-04-15T08:43:50.999Z</time></trkpt><trkpt lat="37.10910791650652" lon="14.878235400140728"><ele>809.0</ele><time>2026-04-15T08:43:51.999Z</time></trkpt><trkpt lat="37.10900891059433" lon="14.878100634046005"><ele>810.0</ele><time>2026-04-15T08:43:52.999Z</time></trkpt><trkpt lat="37.10892944662636" lon="14.877935876753732"><ele>810.3333333333333</ele><time>2026-04-15T08:43:53.999Z</time></trkpt><trkpt lat="37.1088597088746" lon="14.877765518511913"><ele>810.6666666666666</ele><time>2026-04-15T08:43:54.999Z</time></trkpt><trkpt lat="37.10877435763783" lon="14.877610941137679"><ele>811.0</ele><time>2026-04-15T08:43:55.999Z</time></trkpt><trkpt lat="37.10868894955918" lon="14.877455423279168"><ele>811.0</ele><time>2026-04-15T08:43:56.999Z</time></trkpt><trkpt lat="37.10859047257778" lon="14.877319295805188"><ele>811.0</ele><time>2026-04-15T08:43:57.999Z</time></trkpt><trkpt lat="37.108472200925014" lon="14.877215468597058"><ele>811.0</ele><time>2026-04-15T08:43:58.999Z</time></trkpt><trkpt lat="37.10835114680752" lon="14.87712653103818"><ele>811.0</ele><time>2026-04-15T08:43:59.999Z</time></trkpt><trkpt lat="37.108231867964506" lon="14.877022801202811"><ele>812.25</ele><time>2026-04-15T08:44:00.999Z</time></trkpt><trkpt lat="37.108126778749956" lon="14.876895271930431"><ele>813.5</ele><time>2026-04-15T08:44:01.999Z</time></trkpt><trkpt lat="37.10802667689846" lon="14.876753512712225"><ele>814.75</ele><time>2026-04-15T08:44:02.999Z</time></trkpt><trkpt lat="37.10793019194148" lon="14.876619883988326"><ele>816.0</ele><time>2026-04-15T08:44:03.999Z</time></trkpt><trkpt lat="37.10783209037335" lon="14.876487796721412"><ele>816.0</ele><time>2026-04-15T08:44:04.999Z</time></trkpt><trkpt lat="37.10772975921916" lon="14.876377714245855"><ele>816.0</ele><time>2026-04-15T08:44:05.999Z</time></trkpt><trkpt lat="37.107628783747195" lon="14.87627652696223"><ele>816.0</ele><time>2026-04-15T08:44:06.999Z</time></trkpt><trkpt lat="37.10753286047823" lon="14.876181446517462"><ele>816.0</ele><time>2026-04-15T08:44:07.999Z</time></trkpt><trkpt lat="37.107457293993576" lon="14.876093733101868"><ele>815.1666666666666</ele><time>2026-04-15T08:44:08.999Z</time></trkpt><trkpt lat="37.107398694698574" lon="14.875994377933758"><ele>814.3333333333333</ele><time>2026-04-15T08:44:09.999Z</time></trkpt><trkpt lat="37.107355654630524" lon="14.875889376182036"><ele>813.5</ele><time>2026-04-15T08:44:10.999Z</time></trkpt><trkpt lat="37.10732912337038" lon="14.875772024255378"><ele>812.6666666666666</ele><time>2026-04-15T08:44:11.999Z</time></trkpt><trkpt lat="37.10731786846108" lon="14.87567021367783"><ele>811.8333333333333</ele><time>2026-04-15T08:44:12.999Z</time></trkpt><trkpt lat="37.10727903157522" lon="14.875599123607222"><ele>811.0</ele><time>2026-04-15T08:44:13.999Z</time></trkpt><trkpt lat="37.10720573577465" lon="14.875560206240573"><ele>811.0</ele><time>2026-04-15T08:44:14.999Z</time></trkpt><trkpt lat="37.107112851194216" lon="14.875561073145075"><ele>811.0</ele><time>2026-04-15T08:44:15.999Z</time></trkpt><trkpt lat="37.107026813481106" lon="14.875536414251151"><ele>811.0</ele><time>2026-04-15T08:44:16.999Z</time></trkpt><trkpt lat="37.10692343492978" lon="14.87549961531736"><ele>811.0</ele><time>2026-04-15T08:44:17.999Z</time></trkpt><trkpt lat="37.10682441937995" lon="14.875446693955524"><ele>811.0</ele><time>2026-04-15T08:44:18.999Z</time></trkpt><trkpt lat="37.106732625131514" lon="14.875364679602743"><ele>811.0</ele><time>2026-04-15T08:44:19.999Z</time></trkpt><trkpt lat="37.10664645271962" lon="14.87528831354749"><ele>811.0</ele><time>2026-04-15T08:44:20.999Z</time></trkpt><trkpt lat="37.106559639056954" lon="14.875222503601913"><ele>811.0</ele><time>2026-04-15T08:44:21.999Z</time></trkpt><trkpt lat="37.106471869934595" lon="14.87515802650643"><ele>811.0</ele><time>2026-04-15T08:44:22.999Z</time></trkpt><trkpt lat="37.10638411693786" lon="14.875092306839441"><ele>811.0</ele><time>2026-04-15T08:44:23.999Z</time></trkpt><trkpt lat="37.10629991397077" lon="14.87503062082396"><ele>810.4</ele><time>2026-04-15T08:44:24.999Z</time></trkpt><trkpt lat="37.106215751025516" lon="14.874953428179762"><ele>809.8</ele><time>2026-04-15T08:44:25.999Z</time></trkpt><trkpt lat="37.10613151200056" lon="14.874862315905425"><ele>809.1999999999999</ele><time>2026-04-15T08:44:26.999Z</time></trkpt><trkpt lat="37.10606174655076" lon="14.87476815221643"><ele>808.5999999999999</ele><time>2026-04-15T08:44:27.999Z</time></trkpt><trkpt lat="37.106011473505504" lon="14.874659804178474"><ele>808.0</ele><time>2026-04-15T08:44:28.999Z</time></trkpt><trkpt lat="37.1059992769228" lon="14.874542222578215"><ele>808.0</ele><time>2026-04-15T08:44:29.999Z</time></trkpt><trkpt lat="37.1059913513558" lon="14.87443616319223"><ele>808.0</ele><time>2026-04-15T08:44:30.999Z</time></trkpt><trkpt lat="37.10597492860336" lon="14.874359151525159"><ele>808.0</ele><time>2026-04-15T08:44:31.999Z</time></trkpt><trkpt lat="37.105884546502956" lon="14.874336319243703"><ele>808.0</ele><time>2026-04-15T08:44:33.999Z</time></trkpt><trkpt lat="37.105752303081395" lon="14.874408085482061"><ele>808.0</ele><time>2026-04-15T08:44:35.999Z</time></trkpt><trkpt lat="37.10566203202176" lon="14.874437805499843"><ele>808.9999999999999</ele><time>2026-04-15T08:44:36.999Z</time></trkpt><trkpt lat="37.10557791734582" lon="14.87443037810755"><ele>810.0</ele><time>2026-04-15T08:44:37.999Z</time></trkpt><trkpt lat="37.10550956565602" lon="14.874384673484391"><ele>811.0</ele><time>2026-04-15T08:44:38.999Z</time></trkpt><trkpt lat="37.105456890920806" lon="14.8743273350996"><ele>812.0</ele><time>2026-04-15T08:44:39.999Z</time></trkpt><trkpt lat="37.1054047270488" lon="14.874260336907026"><ele>812.9999999999999</ele><time>2026-04-15T08:44:40.999Z</time></trkpt><trkpt lat="37.1053332172818" lon="14.874227605853283"><ele>814.0</ele><time>2026-04-15T08:44:41.999Z</time></trkpt><trkpt lat="37.10525654969464" lon="14.874239929472308"><ele>814.0</ele><time>2026-04-15T08:44:42.999Z</time></trkpt><trkpt lat="37.105149467286886" lon="14.874281831610375"><ele>814.0</ele><time>2026-04-15T08:44:43.999Z</time></trkpt><trkpt lat="37.1050354799849" lon="14.874332761306823"><ele>814.0</ele><time>2026-04-15T08:44:44.999Z</time></trkpt><trkpt lat="37.10493115494629" lon="14.874375673865005"><ele>814.0</ele><time>2026-04-15T08:44:45.999Z</time></trkpt><trkpt lat="37.10485841193724" lon="14.874412651473655"><ele>814.0</ele><time>2026-04-15T08:44:46.998Z</time></trkpt><trkpt lat="37.10482990020959" lon="14.87431028242575"><ele>814.2</ele><time>2026-04-15T08:44:50.998Z</time></trkpt><trkpt lat="37.104878150672505" lon="14.874240414798798"><ele>814.4000000000001</ele><time>2026-04-15T08:44:51.998Z</time></trkpt><trkpt lat="37.10495858812274" lon="14.87416697107765"><ele>814.6</ele><time>2026-04-15T08:44:52.998Z</time></trkpt><trkpt lat="37.10501900735826" lon="14.874086162278553"><ele>814.8</ele><time>2026-04-15T08:44:53.998Z</time></trkpt><trkpt lat="37.10508538425041" lon="14.873998410822765"><ele>815.0</ele><time>2026-04-15T08:44:54.998Z</time></trkpt><trkpt lat="37.10515917941228" lon="14.873896491197259"><ele>815.0</ele><time>2026-04-15T08:44:55.998Z</time></trkpt><trkpt lat="37.105242521817615" lon="14.873787600139407"><ele>815.0</ele><time>2026-04-15T08:44:56.998Z</time></trkpt><trkpt lat="37.10532079740128" lon="14.873675652074095"><ele>815.0</ele><time>2026-04-15T08:44:57.998Z</time></trkpt><trkpt lat="37.105402911425635" lon="14.873558435369135"><ele>815.0</ele><time>2026-04-15T08:44:59Z</time></trkpt><trkpt lat="37.10548816945895" lon="14.87341961169223"><ele>816.25</ele><time>2026-04-15T08:45:00Z</time></trkpt><trkpt lat="37.10555955473144" lon="14.873272240439418"><ele>817.5</ele><time>2026-04-15T08:45:01Z</time></trkpt><trkpt lat="37.10562864102163" lon="14.873124966571385"><ele>818.75</ele><time>2026-04-15T08:45:02Z</time></trkpt><trkpt lat="37.105707844689334" lon="14.872967440123674"><ele>820.0</ele><time>2026-04-15T08:45:03Z</time></trkpt><trkpt lat="37.105783608730434" lon="14.872811019416865"><ele>820.0</ele><time>2026-04-15T08:45:04Z</time></trkpt><trkpt lat="37.10587123489156" lon="14.872656499362133"><ele>820.0</ele><time>2026-04-15T08:45:05Z</time></trkpt><trkpt lat="37.10593765226714" lon="14.87250586786244"><ele>820.0</ele><time>2026-04-15T08:45:06Z</time></trkpt><trkpt lat="37.10596156129963" lon="14.872349573430977"><ele>820.0</ele><time>2026-04-15T08:45:07Z</time></trkpt><trkpt lat="37.105944333382965" lon="14.872196953766492"><ele>821.5</ele><time>2026-04-15T08:45:08Z</time></trkpt><trkpt lat="37.10588919541826" lon="14.87204780511969"><ele>823.0</ele><time>2026-04-15T08:45:09Z</time></trkpt><trkpt lat="37.105820474641156" lon="14.871890241481571"><ele>824.5</ele><time>2026-04-15T08:45:10Z</time></trkpt><trkpt lat="37.105764838139145" lon="14.871712883965575"><ele>826.0</ele><time>2026-04-15T08:45:11Z</time></trkpt><trkpt lat="37.10574003087748" lon="14.871526719211968"><ele>826.25</ele><time>2026-04-15T08:45:12Z</time></trkpt><trkpt lat="37.10574340854813" lon="14.871343710314937"><ele>826.5</ele><time>2026-04-15T08:45:13Z</time></trkpt><trkpt lat="37.105777674807385" lon="14.871179349604086"><ele>826.75</ele><time>2026-04-15T08:45:14Z</time></trkpt><trkpt lat="37.10585000516869" lon="14.871035802125954"><ele>827.0</ele><time>2026-04-15T08:45:15Z</time></trkpt><trkpt lat="37.10595888608099" lon="14.870916347943526"><ele>828.3333333333334</ele><time>2026-04-15T08:45:16Z</time></trkpt><trkpt lat="37.106096127942" lon="14.870801678246295"><ele>829.6666666666667</ele><time>2026-04-15T08:45:17Z</time></trkpt><trkpt lat="37.10623836084097" lon="14.870672711328222"><ele>831.0</ele><time>2026-04-15T08:45:18Z</time></trkpt><trkpt lat="37.106376147661756" lon="14.870538193398303"><ele>831.0</ele><time>2026-04-15T08:45:19Z</time></trkpt><trkpt lat="37.10651139653076" lon="14.870406081933845"><ele>831.0</ele><time>2026-04-15T08:45:20Z</time></trkpt><trkpt lat="37.10663646139014" lon="14.870292360417833"><ele>831.0</ele><time>2026-04-15T08:45:21Z</time></trkpt><trkpt lat="37.10674663821387" lon="14.870199980681848"><ele>830.8</ele><time>2026-04-15T08:45:22Z</time></trkpt><trkpt lat="37.10684623767249" lon="14.870141646170895"><ele>830.5999999999999</ele><time>2026-04-15T08:45:23Z</time></trkpt><trkpt lat="37.10694520803952" lon="14.870127131895227"><ele>830.4</ele><time>2026-04-15T08:45:24Z</time></trkpt><trkpt lat="37.10703051505707" lon="14.87016942374102"><ele>830.2</ele><time>2026-04-15T08:45:25Z</time></trkpt><trkpt lat="37.10707415499939" lon="14.870272676076278"><ele>830.0</ele><time>2026-04-15T08:45:26Z</time></trkpt><trkpt lat="37.107086812538775" lon="14.870394791469316"><ele>830.0</ele><time>2026-04-15T08:45:27Z</time></trkpt><trkpt lat="37.107102042942145" lon="14.87052304720316"><ele>830.0</ele><time>2026-04-15T08:45:28Z</time></trkpt><trkpt lat="37.10712282867646" lon="14.870667910964766"><ele>830.0</ele><time>2026-04-15T08:45:29Z</time></trkpt><trkpt lat="37.10714281023694" lon="14.870835908042306"><ele>830.0</ele><time>2026-04-15T08:45:30Z</time></trkpt><trkpt lat="37.10716563073788" lon="14.871033604341859"><ele>829.5</ele><time>2026-04-15T08:45:31Z</time></trkpt><trkpt lat="37.107188554454694" lon="14.8712383355179"><ele>829.0</ele><time>2026-04-15T08:45:32Z</time></trkpt><trkpt lat="37.10720884371491" lon="14.871424340593503"><ele>828.5</ele><time>2026-04-15T08:45:33Z</time></trkpt><trkpt lat="37.10723404084255" lon="14.871589337212884"><ele>828.0</ele><time>2026-04-15T08:45:34Z</time></trkpt><trkpt lat="37.10729880593411" lon="14.871734659445073"><ele>829.6666666666667</ele><time>2026-04-15T08:45:35Z</time></trkpt><trkpt lat="37.107411478531795" lon="14.871863310165388"><ele>831.3333333333334</ele><time>2026-04-15T08:45:36Z</time></trkpt><trkpt lat="37.107536738694165" lon="14.871992393119452"><ele>833.0</ele><time>2026-04-15T08:45:37Z</time></trkpt><trkpt lat="37.10765647344194" lon="14.872126052857565"><ele>833.0</ele><time>2026-04-15T08:45:38Z</time></trkpt><trkpt lat="37.1077525397118" lon="14.872301337902336"><ele>833.0</ele><time>2026-04-15T08:45:39Z</time></trkpt><trkpt lat="37.107831156795235" lon="14.872484484841578"><ele>833.0</ele><time>2026-04-15T08:45:40Z</time></trkpt><trkpt lat="37.107889966958446" lon="14.872658332851788"><ele>832.5</ele><time>2026-04-15T08:45:41Z</time></trkpt><trkpt lat="37.10793496820938" lon="14.872821362813742"><ele>832.0</ele><time>2026-04-15T08:45:42Z</time></trkpt><trkpt lat="37.10799283116424" lon="14.872963117609924"><ele>831.5</ele><time>2026-04-15T08:45:42.999Z</time></trkpt><trkpt lat="37.10804254860494" lon="14.873073903907539"><ele>831.0</ele><time>2026-04-15T08:45:43.999Z</time></trkpt><trkpt lat="37.10808846683164" lon="14.873175571227524"><ele>830.9999999999999</ele><time>2026-04-15T08:45:44.999Z</time></trkpt><trkpt lat="37.10812710648763" lon="14.87326228160868"><ele>831.0</ele><time>2026-04-15T08:45:45.999Z</time></trkpt><trkpt lat="37.10818550485974" lon="14.873341094992531"><ele>831.0</ele><time>2026-04-15T08:45:46.999Z</time></trkpt><trkpt lat="37.1082507703558" lon="14.873385741489567"><ele>831.0</ele><time>2026-04-15T08:45:47.999Z</time></trkpt><trkpt lat="37.10831974649881" lon="14.873419162958257"><ele>831.0</ele><time>2026-04-15T08:45:48.999Z</time></trkpt><trkpt lat="37.1083872367122" lon="14.873432207832025"><ele>830.9999999999999</ele><time>2026-04-15T08:45:49.999Z</time></trkpt><trkpt lat="37.1084531873705" lon="14.873423451437422"><ele>831.0</ele><time>2026-04-15T08:45:50.999Z</time></trkpt><trkpt lat="37.108514719943415" lon="14.873390557844576"><ele>832.0</ele><time>2026-04-15T08:45:51.999Z</time></trkpt><trkpt lat="37.10856221883432" lon="14.873337831387"><ele>833.0</ele><time>2026-04-15T08:45:52.999Z</time></trkpt><trkpt lat="37.10858411040715" lon="14.873262844254521"><ele>834.0</ele><time>2026-04-15T08:45:53.999Z</time></trkpt><trkpt lat="37.1086051557067" lon="14.873174563300308"><ele>835.0</ele><time>2026-04-15T08:45:54.999Z</time></trkpt><trkpt lat="37.10863238242195" lon="14.873079869632216"><ele>836.0</ele><time>2026-04-15T08:45:55.999Z</time></trkpt><trkpt lat="37.10867329356573" lon="14.872978284263615"><ele>837.0</ele><time>2026-04-15T08:45:56.999Z</time></trkpt><trkpt lat="37.10874332948243" lon="14.872859058311276"><ele>837.0</ele><time>2026-04-15T08:45:57.999Z</time></trkpt><trkpt lat="37.1088236836191" lon="14.872730803993068"><ele>837.0</ele><time>2026-04-15T08:45:58.999Z</time></trkpt><trkpt lat="37.108907347468424" lon="14.872616679786589"><ele>837.0</ele><time>2026-04-15T08:45:59.999Z</time></trkpt><trkpt lat="37.10900313632563" lon="14.87248922513505"><ele>837.0</ele><time>2026-04-15T08:46:00.999Z</time></trkpt><trkpt lat="37.1091026375967" lon="14.872347509637198"><ele>838.6666666666667</ele><time>2026-04-15T08:46:01.999Z</time></trkpt><trkpt lat="37.10921895767609" lon="14.872176788586964"><ele>840.3333333333334</ele><time>2026-04-15T08:46:02.999Z</time></trkpt><trkpt lat="37.10935322798663" lon="14.871991004292118"><ele>842.0</ele><time>2026-04-15T08:46:03.999Z</time></trkpt><trkpt lat="37.10950033727392" lon="14.871784972855707"><ele>843.3333333333334</ele><time>2026-04-15T08:46:04.999Z</time></trkpt><trkpt lat="37.10963172181929" lon="14.871609773213601"><ele>844.6666666666667</ele><time>2026-04-15T08:46:05.999Z</time></trkpt><trkpt lat="37.10975801285239" lon="14.871435252287224"><ele>846.0</ele><time>2026-04-15T08:46:06.999Z</time></trkpt><trkpt lat="37.10987457825116" lon="14.871278040047866"><ele>845.6666666666667</ele><time>2026-04-15T08:46:07.999Z</time></trkpt><trkpt lat="37.10999585931325" lon="14.871112849759054"><ele>845.3333333333334</ele><time>2026-04-15T08:46:08.999Z</time></trkpt><trkpt lat="37.110120890848414" lon="14.870937119783777"><ele>845.0</ele><time>2026-04-15T08:46:09.999Z</time></trkpt><trkpt lat="37.1102455726263" lon="14.87076322240456"><ele>846.0</ele><time>2026-04-15T08:46:10.999Z</time></trkpt><trkpt lat="37.110364565333306" lon="14.870588247502573"><ele>847.0</ele><time>2026-04-15T08:46:11.999Z</time></trkpt><trkpt lat="37.110484543858895" lon="14.870416374291786"><ele>848.0</ele><time>2026-04-15T08:46:12.999Z</time></trkpt><trkpt lat="37.1106028631433" lon="14.870251478548052"><ele>850.3333333333334</ele><time>2026-04-15T08:46:13.999Z</time></trkpt><trkpt lat="37.11072146051082" lon="14.870086792493652"><ele>852.6666666666667</ele><time>2026-04-15T08:46:14.999Z</time></trkpt><trkpt lat="37.11084052523084" lon="14.869920683315714"><ele>855.0</ele><time>2026-04-15T08:46:15.999Z</time></trkpt><trkpt lat="37.11096384960628" lon="14.869748780486137"><ele>855.0</ele><time>2026-04-15T08:46:16.999Z</time></trkpt><trkpt lat="37.11108963344121" lon="14.869574989180329"><ele>855.0</ele><time>2026-04-15T08:46:17.999Z</time></trkpt><trkpt lat="37.111215737150374" lon="14.869393540885122"><ele>855.0</ele><time>2026-04-15T08:46:18.999Z</time></trkpt><trkpt lat="37.111344037358535" lon="14.869213424436118"><ele>856.6666666666667</ele><time>2026-04-15T08:46:19.999Z</time></trkpt><trkpt lat="37.11148416027862" lon="14.869020123988475"><ele>858.3333333333334</ele><time>2026-04-15T08:46:20.999Z</time></trkpt><trkpt lat="37.11163288254746" lon="14.868815280835243"><ele>860.0</ele><time>2026-04-15T08:46:21.999Z</time></trkpt><trkpt lat="37.11178007357725" lon="14.868611574423303"><ele>862.0</ele><time>2026-04-15T08:46:22.999Z</time></trkpt><trkpt lat="37.11190662826802" lon="14.86842419961121"><ele>864.0</ele><time>2026-04-15T08:46:23.999Z</time></trkpt><trkpt lat="37.11201148535806" lon="14.86823244942688"><ele>866.0</ele><time>2026-04-15T08:46:24.999Z</time></trkpt><trkpt lat="37.112083655015915" lon="14.868012800700633"><ele>866.0</ele><time>2026-04-15T08:46:25.999Z</time></trkpt><trkpt lat="37.112160706597685" lon="14.867792934397738"><ele>866.0</ele><time>2026-04-15T08:46:26.999Z</time></trkpt><trkpt lat="37.11226628290201" lon="14.867572713322465"><ele>866.0</ele><time>2026-04-15T08:46:27.999Z</time></trkpt><trkpt lat="37.11238194451565" lon="14.867346665929867"><ele>865.6666666666667</ele><time>2026-04-15T08:46:28.999Z</time></trkpt><trkpt lat="37.11250706312115" lon="14.86711680840842"><ele>865.3333333333333</ele><time>2026-04-15T08:46:29.999Z</time></trkpt><trkpt lat="37.1126352165214" lon="14.866883880316715"><ele>865.0</ele><time>2026-04-15T08:46:30.999Z</time></trkpt><trkpt lat="37.112782979749156" lon="14.866660011539958"><ele>868.0</ele><time>2026-04-15T08:46:31.999Z</time></trkpt><trkpt lat="37.11294976552336" lon="14.86643770495283"><ele>871.0</ele><time>2026-04-15T08:46:32.999Z</time></trkpt><trkpt lat="37.11313445946272" lon="14.866231138741373"><ele>870.0</ele><time>2026-04-15T08:46:33.999Z</time></trkpt><trkpt lat="37.11332189084284" lon="14.86604524307514"><ele>869.0</ele><time>2026-04-15T08:46:34.999Z</time></trkpt><trkpt lat="37.11350898484208" lon="14.865884145448494"><ele>869.0</ele><time>2026-04-15T08:46:35.999Z</time></trkpt><trkpt lat="37.113695455202375" lon="14.86574426918318"><ele>869.0</ele><time>2026-04-15T08:46:36.999Z</time></trkpt><trkpt lat="37.11387877140988" lon="14.865632175998652"><ele>869.0</ele><time>2026-04-15T08:46:37.999Z</time></trkpt><trkpt lat="37.1140627201511" lon="14.865532662913193"><ele>871.0</ele><time>2026-04-15T08:46:38.999Z</time></trkpt><trkpt lat="37.11426893795089" lon="14.865427497543237"><ele>873.0</ele><time>2026-04-15T08:46:39.999Z</time></trkpt><trkpt lat="37.114489605392365" lon="14.865328542381853"><ele>873.0</ele><time>2026-04-15T08:46:40.999Z</time></trkpt><trkpt lat="37.11472689368226" lon="14.865253551608289"><ele>873.0</ele><time>2026-04-15T08:46:41.999Z</time></trkpt><trkpt lat="37.1149721130867" lon="14.865190898693518"><ele>874.5</ele><time>2026-04-15T08:46:42.999Z</time></trkpt><trkpt lat="37.11520065040016" lon="14.865139049305675"><ele>876.0</ele><time>2026-04-15T08:46:43.999Z</time></trkpt><trkpt lat="37.11543443627728" lon="14.865078414364062"><ele>878.5</ele><time>2026-04-15T08:46:44.999Z</time></trkpt><trkpt lat="37.1156714077281" lon="14.865011672301481"><ele>881.0</ele><time>2026-04-15T08:46:45.999Z</time></trkpt><trkpt lat="37.1159080453676" lon="14.864947161318259"><ele>882.0</ele><time>2026-04-15T08:46:46.999Z</time></trkpt><trkpt lat="37.11614324027705" lon="14.864878366313308"><ele>883.0</ele><time>2026-04-15T08:46:47.998Z</time></trkpt><trkpt lat="37.11637640450104" lon="14.864802502700872"><ele>884.5</ele><time>2026-04-15T08:46:48.998Z</time></trkpt><trkpt lat="37.11661000772417" lon="14.864706993487259"><ele>886.0</ele><time>2026-04-15T08:46:49.998Z</time></trkpt><trkpt lat="37.116843318629556" lon="14.864592054550677"><ele>886.0</ele><time>2026-04-15T08:46:50.998Z</time></trkpt><trkpt lat="37.117079274358126" lon="14.864457455881638"><ele>886.0</ele><time>2026-04-15T08:46:51.998Z</time></trkpt><trkpt lat="37.1173170804801" lon="14.864298712547228"><ele>887.5</ele><time>2026-04-15T08:46:52.998Z</time></trkpt><trkpt lat="37.117551110635176" lon="14.864124918891127"><ele>889.0</ele><time>2026-04-15T08:46:53.998Z</time></trkpt><trkpt lat="37.11778303935599" lon="14.863940831281512"><ele>889.0</ele><time>2026-04-15T08:46:54.998Z</time></trkpt><trkpt lat="37.11801836499384" lon="14.863754920207803"><ele>889.0</ele><time>2026-04-15T08:46:55.998Z</time></trkpt><trkpt lat="37.118252744966135" lon="14.86356681521779"><ele>888.0</ele><time>2026-04-15T08:46:56.998Z</time></trkpt><trkpt lat="37.11849082988027" lon="14.863377334758766"><ele>887.0</ele><time>2026-04-15T08:46:57.998Z</time></trkpt><trkpt lat="37.11872921876378" lon="14.863186751236288"><ele>887.0</ele><time>2026-04-15T08:46:58.998Z</time></trkpt><trkpt lat="37.11896933320463" lon="14.862995863854056"><ele>887.0</ele><time>2026-04-15T08:46:59.998Z</time></trkpt><trkpt lat="37.11920752393996" lon="14.862809167330086"><ele>886.5</ele><time>2026-04-15T08:47:00.998Z</time></trkpt><trkpt lat="37.11944225426774" lon="14.862623199625729"><ele>886.0</ele><time>2026-04-15T08:47:01.998Z</time></trkpt><trkpt lat="37.119678015578685" lon="14.862435949756996"><ele>886.0</ele><time>2026-04-15T08:47:02.998Z</time></trkpt><trkpt lat="37.11991059333438" lon="14.862253077595364"><ele>886.0</ele><time>2026-04-15T08:47:03.998Z</time></trkpt><trkpt lat="37.120139515544736" lon="14.862072614493913"><ele>886.0</ele><time>2026-04-15T08:47:05Z</time></trkpt><trkpt lat="37.120368147222734" lon="14.861892873167951"><ele>886.0</ele><time>2026-04-15T08:47:06Z</time></trkpt><trkpt lat="37.120591514439106" lon="14.861714108631919"><ele>886.5</ele><time>2026-04-15T08:47:07Z</time></trkpt><trkpt lat="37.120811906764324" lon="14.861536015060848"><ele>887.0</ele><time>2026-04-15T08:47:08Z</time></trkpt><trkpt lat="37.121029378315164" lon="14.861361533891943"><ele>887.0</ele><time>2026-04-15T08:47:09Z</time></trkpt><trkpt lat="37.12125004018112" lon="14.861187262735076"><ele>887.0</ele><time>2026-04-15T08:47:10Z</time></trkpt><trkpt lat="37.121465567089466" lon="14.861019133684534"><ele>886.5</ele><time>2026-04-15T08:47:11Z</time></trkpt><trkpt lat="37.12167098888833" lon="14.860863742413496"><ele>886.0</ele><time>2026-04-15T08:47:12Z</time></trkpt><trkpt lat="37.1218637562007" lon="14.860716886159492"><ele>886.0</ele><time>2026-04-15T08:47:13Z</time></trkpt><trkpt lat="37.122050133104224" lon="14.860579513996278"><ele>886.0</ele><time>2026-04-15T08:47:14Z</time></trkpt><trkpt lat="37.12223065429593" lon="14.860440716871368"><ele>886.0</ele><time>2026-04-15T08:47:15Z</time></trkpt><trkpt lat="37.12240731988251" lon="14.860296960245021"><ele>886.3333333333333</ele><time>2026-04-15T08:47:16Z</time></trkpt><trkpt lat="37.12258361146468" lon="14.860152764843628"><ele>886.6666666666667</ele><time>2026-04-15T08:47:17Z</time></trkpt><trkpt lat="37.122759730217794" lon="14.860017826186795"><ele>887.0</ele><time>2026-04-15T08:47:18Z</time></trkpt><trkpt lat="37.122935154746266" lon="14.859883485725103"><ele>887.3333333333334</ele><time>2026-04-15T08:47:19Z</time></trkpt><trkpt lat="37.12309889061941" lon="14.85975115900326"><ele>887.6666666666667</ele><time>2026-04-15T08:47:20Z</time></trkpt><trkpt lat="37.12325724123248" lon="14.859626844298775"><ele>888.0</ele><time>2026-04-15T08:47:21Z</time></trkpt><trkpt lat="37.12340934898924" lon="14.859506572191254"><ele>888.0</ele><time>2026-04-15T08:47:22Z</time></trkpt><trkpt lat="37.123551539009014" lon="14.859383868941162"><ele>888.0</ele><time>2026-04-15T08:47:23Z</time></trkpt><trkpt lat="37.123684646267705" lon="14.859264026437828"><ele>888.0</ele><time>2026-04-15T08:47:24Z</time></trkpt><trkpt lat="37.123798622310275" lon="14.859149797221706"><ele>888.0</ele><time>2026-04-15T08:47:25Z</time></trkpt><trkpt lat="37.123894003314135" lon="14.859034600722023"><ele>888.0</ele><time>2026-04-15T08:47:26Z</time></trkpt><trkpt lat="37.12396576256652" lon="14.85892016856029"><ele>888.0</ele><time>2026-04-15T08:47:27Z</time></trkpt><trkpt lat="37.124019609431656" lon="14.858817105979103"><ele>888.0</ele><time>2026-04-15T08:47:28Z</time></trkpt><trkpt lat="37.12403087691593" lon="14.85870769242017"><ele>888.0</ele><time>2026-04-15T08:47:29Z</time></trkpt><trkpt lat="37.12403072677533" lon="14.85859195577871"><ele>888.25</ele><time>2026-04-15T08:47:30Z</time></trkpt><trkpt lat="37.12400632397889" lon="14.858444886659303"><ele>888.5</ele><time>2026-04-15T08:47:31Z</time></trkpt><trkpt lat="37.12399086131098" lon="14.858283117026769"><ele>888.75</ele><time>2026-04-15T08:47:32Z</time></trkpt><trkpt lat="37.123973066922396" lon="14.85809643833971"><ele>889.0</ele><time>2026-04-15T08:47:33Z</time></trkpt><trkpt lat="37.12395739992728" lon="14.857889858325526"><ele>889.0</ele><time>2026-04-15T08:47:34Z</time></trkpt><trkpt lat="37.12393822032394" lon="14.857656515958535"><ele>889.0</ele><time>2026-04-15T08:47:35Z</time></trkpt><trkpt lat="37.12392296790075" lon="14.857416607339921"><ele>889.0</ele><time>2026-04-15T08:47:36Z</time></trkpt><trkpt lat="37.123908933372235" lon="14.857181095286359"><ele>888.3333333333333</ele><time>2026-04-15T08:47:37Z</time></trkpt><trkpt lat="37.1239009120102" lon="14.856961973763413"><ele>887.6666666666667</ele><time>2026-04-15T08:47:38Z</time></trkpt><trkpt lat="37.12390917994136" lon="14.856771763075255"><ele>887.0</ele><time>2026-04-15T08:47:39Z</time></trkpt><trkpt lat="37.123940219254486" lon="14.856606188701857"><ele>886.75</ele><time>2026-04-15T08:47:40Z</time></trkpt><trkpt lat="37.12401574767829" lon="14.856463268901345"><ele>886.5</ele><time>2026-04-15T08:47:41Z</time></trkpt><trkpt lat="37.12411166926101" lon="14.856341801006087"><ele>886.25</ele><time>2026-04-15T08:47:42Z</time></trkpt><trkpt lat="37.1242303465024" lon="14.85621627639644"><ele>886.0</ele><time>2026-04-15T08:47:43Z</time></trkpt><trkpt lat="37.124332603659866" lon="14.856060297661998"><ele>881.0</ele><time>2026-04-15T08:47:44Z</time></trkpt><trkpt lat="37.12444519104107" lon="14.855902995789725"><ele>876.0</ele><time>2026-04-15T08:47:45Z</time></trkpt><trkpt lat="37.12455516446811" lon="14.855755331623463"><ele>871.0</ele><time>2026-04-15T08:47:46Z</time></trkpt><trkpt lat="37.12465834620643" lon="14.855605951872196"><ele>871.0</ele><time>2026-04-15T08:47:47Z</time></trkpt><trkpt lat="37.124752431265115" lon="14.855458339335462"><ele>871.0</ele><time>2026-04-15T08:47:48Z</time></trkpt><trkpt lat="37.1248399003633" lon="14.855314724604266"><ele>871.0</ele><time>2026-04-15T08:47:49Z</time></trkpt><trkpt lat="37.12491105282431" lon="14.855180613558778"><ele>871.0</ele><time>2026-04-15T08:47:50Z</time></trkpt><trkpt lat="37.12495205098201" lon="14.855082871557945"><ele>868.5999999999999</ele><time>2026-04-15T08:47:51Z</time></trkpt><trkpt lat="37.12496833721216" lon="14.855003182619743"><ele>866.1999999999999</ele><time>2026-04-15T08:47:51.999Z</time></trkpt><trkpt lat="37.124881740096804" lon="14.854895612632744"><ele>863.8000000000001</ele><time>2026-04-15T08:47:53.999Z</time></trkpt><trkpt lat="37.124793460881804" lon="14.85490571461259"><ele>861.4000000000001</ele><time>2026-04-15T08:47:54.999Z</time></trkpt><trkpt lat="37.1246799274534" lon="14.854945279920805"><ele>859.0</ele><time>2026-04-15T08:47:55.999Z</time></trkpt><trkpt lat="37.12456341709571" lon="14.854979967610534"><ele>858.25</ele><time>2026-04-15T08:47:56.999Z</time></trkpt><trkpt lat="37.12444548324628" lon="14.85501661489191"><ele>857.5</ele><time>2026-04-15T08:47:57.999Z</time></trkpt><trkpt lat="37.124318468843995" lon="14.855063529962337"><ele>856.75</ele><time>2026-04-15T08:47:58.999Z</time></trkpt><trkpt lat="37.12419397938373" lon="14.855137794867604"><ele>856.0</ele><time>2026-04-15T08:47:59.999Z</time></trkpt><trkpt lat="37.12407528942454" lon="14.855237744794147"><ele>861.25</ele><time>2026-04-15T08:48:00.999Z</time></trkpt><trkpt lat="37.12395931494401" lon="14.855346076708393"><ele>866.5</ele><time>2026-04-15T08:48:01.999Z</time></trkpt><trkpt lat="37.12384498766874" lon="14.855431952880917"><ele>871.75</ele><time>2026-04-15T08:48:02.999Z</time></trkpt><trkpt lat="37.12373183235623" lon="14.85549373263825"><ele>877.0</ele><time>2026-04-15T08:48:03.999Z</time></trkpt><trkpt lat="37.123620702245574" lon="14.855523270983847"><ele>877.0</ele><time>2026-04-15T08:48:04.999Z</time></trkpt><trkpt lat="37.12351752694698" lon="14.855491785577321"><ele>877.0</ele><time>2026-04-15T08:48:05.999Z</time></trkpt><trkpt lat="37.123428223456195" lon="14.855410884449938"><ele>877.0</ele><time>2026-04-15T08:48:06.999Z</time></trkpt><trkpt lat="37.12333998118975" lon="14.855325250278975"><ele>877.0</ele><time>2026-04-15T08:48:07.999Z</time></trkpt><trkpt lat="37.12322580866941" lon="14.855237075904482"><ele>875.75</ele><time>2026-04-15T08:48:08.999Z</time></trkpt><trkpt lat="37.12309070835475" lon="14.855141453455504"><ele>874.5</ele><time>2026-04-15T08:48:09.999Z</time></trkpt><trkpt lat="37.12296543465965" lon="14.855046060793455"><ele>873.25</ele><time>2026-04-15T08:48:10.999Z</time></trkpt><trkpt lat="37.1228471532489" lon="14.854954206490259"><ele>872.0</ele><time>2026-04-15T08:48:11.999Z</time></trkpt><trkpt lat="37.12273443046535" lon="14.854873126191103"><ele>872.0000000000001</ele><time>2026-04-15T08:48:12.999Z</time></trkpt><trkpt lat="37.122633654709595" lon="14.854804680375667"><ele>872.0</ele><time>2026-04-15T08:48:13.999Z</time></trkpt><trkpt lat="37.12257179741851" lon="14.854736099405455"><ele>872.0</ele><time>2026-04-15T08:48:14.999Z</time></trkpt><trkpt lat="37.12256388334926" lon="14.854650002932765"><ele>872.0</ele><time>2026-04-15T08:48:15.999Z</time></trkpt><trkpt lat="37.12259831593964" lon="14.854564867682102"><ele>872.0000000000001</ele><time>2026-04-15T08:48:16.999Z</time></trkpt><trkpt lat="37.12265915359438" lon="14.85450648859461"><ele>872.0</ele><time>2026-04-15T08:48:17.999Z</time></trkpt><trkpt lat="37.12273271078357" lon="14.854455969984436"><ele>872.0</ele><time>2026-04-15T08:48:18.999Z</time></trkpt><trkpt lat="37.12281632312892" lon="14.854387716459014"><ele>872.0</ele><time>2026-04-15T08:48:19.999Z</time></trkpt><trkpt lat="37.12290178119984" lon="14.854304786260935"><ele>872.0</ele><time>2026-04-15T08:48:20.999Z</time></trkpt><trkpt lat="37.122973637745694" lon="14.854202155811848"><ele>872.0</ele><time>2026-04-15T08:48:21.999Z</time></trkpt><trkpt lat="37.12303495825689" lon="14.854078593408584"><ele>872.0</ele><time>2026-04-15T08:48:22.999Z</time></trkpt><trkpt lat="37.123058359624714" lon="14.853936880137526"><ele>871.6</ele><time>2026-04-15T08:48:23.999Z</time></trkpt><trkpt lat="37.123043052022254" lon="14.853798175341836"><ele>871.2</ele><time>2026-04-15T08:48:24.999Z</time></trkpt><trkpt lat="37.12301783967799" lon="14.853669176302907"><ele>870.8</ele><time>2026-04-15T08:48:25.999Z</time></trkpt><trkpt lat="37.12300931247643" lon="14.853539692615927"><ele>870.4</ele><time>2026-04-15T08:48:26.999Z</time></trkpt><trkpt lat="37.12304376133052" lon="14.853391995734476"><ele>870.0</ele><time>2026-04-15T08:48:27.999Z</time></trkpt><trkpt lat="37.12310773745213" lon="14.853210480729347"><ele>873.6666666666667</ele><time>2026-04-15T08:48:28.999Z</time></trkpt><trkpt lat="37.12315665929736" lon="14.85301588960427"><ele>877.3333333333334</ele><time>2026-04-15T08:48:29.999Z</time></trkpt><trkpt lat="37.123181305691695" lon="14.852824414751412"><ele>881.0</ele><time>2026-04-15T08:48:30.999Z</time></trkpt><trkpt lat="37.12321070154334" lon="14.852628080448707"><ele>873.0</ele><time>2026-04-15T08:48:31.999Z</time></trkpt><trkpt lat="37.123241069666655" lon="14.85244295119407"><ele>865.0</ele><time>2026-04-15T08:48:32.999Z</time></trkpt><trkpt lat="37.12326079336687" lon="14.852258973668954"><ele>857.0</ele><time>2026-04-15T08:48:33.999Z</time></trkpt><trkpt lat="37.12327341596392" lon="14.852084388923211"><ele>849.0</ele><time>2026-04-15T08:48:34.999Z</time></trkpt><trkpt lat="37.123290937189644" lon="14.851931177134299"><ele>849.0</ele><time>2026-04-15T08:48:35.999Z</time></trkpt><trkpt lat="37.123340324699846" lon="14.851820037780369"><ele>849.0</ele><time>2026-04-15T08:48:36.999Z</time></trkpt><trkpt lat="37.12342409356624" lon="14.851759601757252"><ele>849.0</ele><time>2026-04-15T08:48:37.999Z</time></trkpt><trkpt lat="37.12351924689871" lon="14.851717181705375"><ele>849.0</ele><time>2026-04-15T08:48:38.999Z</time></trkpt><trkpt lat="37.123618701495175" lon="14.851649287568153"><ele>849.0</ele><time>2026-04-15T08:48:39.999Z</time></trkpt><trkpt lat="37.123740656031686" lon="14.851563488637778"><ele>850.75</ele><time>2026-04-15T08:48:40.999Z</time></trkpt><trkpt lat="37.123868848916615" lon="14.85147729746224"><ele>852.5</ele><time>2026-04-15T08:48:41.999Z</time></trkpt><trkpt lat="37.12398171927011" lon="14.851387318757865"><ele>854.25</ele><time>2026-04-15T08:48:42.999Z</time></trkpt><trkpt lat="37.12407405200778" lon="14.851285704891868"><ele>856.0</ele><time>2026-04-15T08:48:43.999Z</time></trkpt><trkpt lat="37.124134055273856" lon="14.85116162689179"><ele>851.5</ele><time>2026-04-15T08:48:44.999Z</time></trkpt><trkpt lat="37.1241639857625" lon="14.851015637956438"><ele>847.0</ele><time>2026-04-15T08:48:45.999Z</time></trkpt><trkpt lat="37.124174157026125" lon="14.850852611722637"><ele>842.5</ele><time>2026-04-15T08:48:46.999Z</time></trkpt><trkpt lat="37.12419905969488" lon="14.850665760375406"><ele>838.0</ele><time>2026-04-15T08:48:47.999Z</time></trkpt><trkpt lat="37.12424651768797" lon="14.850467633849426"><ele>838.0</ele><time>2026-04-15T08:48:48.999Z</time></trkpt><trkpt lat="37.12432085762448" lon="14.85029341686624"><ele>838.0</ele><time>2026-04-15T08:48:49.999Z</time></trkpt><trkpt lat="37.12438777670304" lon="14.850121577147753"><ele>838.0</ele><time>2026-04-15T08:48:50.999Z</time></trkpt><trkpt lat="37.12443790266953" lon="14.84992963214053"><ele>838.0</ele><time>2026-04-15T08:48:51.999Z</time></trkpt><trkpt lat="37.12447777601894" lon="14.849736648494385"><ele>838.0</ele><time>2026-04-15T08:48:52.999Z</time></trkpt><trkpt lat="37.124503019762024" lon="14.849560835217462"><ele>838.0</ele><time>2026-04-15T08:48:53.999Z</time></trkpt><trkpt lat="37.12452833545499" lon="14.849413955543527"><ele>838.0</ele><time>2026-04-15T08:48:54.999Z</time></trkpt><trkpt lat="37.12455019710923" lon="14.849291237309325"><ele>837.0</ele><time>2026-04-15T08:48:55.999Z</time></trkpt><trkpt lat="37.12456446519009" lon="14.849197281078403"><ele>836.0</ele><time>2026-04-15T08:48:56.998Z</time></trkpt><trkpt lat="37.12458531874625" lon="14.849051568162272"><ele>835.0</ele><time>2026-04-15T08:48:58.998Z</time></trkpt><trkpt lat="37.12459838995228" lon="14.848917161652873"><ele>834.0</ele><time>2026-04-15T08:49:00.998Z</time></trkpt><trkpt lat="37.124622635838996" lon="14.848758181238935"><ele>833.0</ele><time>2026-04-15T08:49:02.998Z</time></trkpt><trkpt lat="37.124641121257305" lon="14.848677325257185"><ele>833.0</ele><time>2026-04-15T08:49:03.998Z</time></trkpt><trkpt lat="37.12466815544034" lon="14.848605246676904"><ele>833.0</ele><time>2026-04-15T08:49:04.998Z</time></trkpt><trkpt lat="37.124728094323864" lon="14.84849220365312"><ele>833.0</ele><time>2026-04-15T08:49:06.998Z</time></trkpt><trkpt lat="37.12480066377309" lon="14.84844890486993"><ele>833.0</ele><time>2026-04-15T08:49:08.998Z</time></trkpt><trkpt lat="37.124840969568005" lon="14.84833558978759"><ele>833.0</ele><time>2026-04-15T08:50:38.999Z</time></trkpt><trkpt lat="37.12473980881839" lon="14.848221256849033"><ele>832.8</ele><time>2026-04-15T08:50:40.999Z</time></trkpt><trkpt lat="37.12465388567292" lon="14.848185938572518"><ele>832.5999999999999</ele><time>2026-04-15T08:50:41.999Z</time></trkpt><trkpt lat="37.12456297413364" lon="14.848150109854824"><ele>832.4000000000001</ele><time>2026-04-15T08:50:42.999Z</time></trkpt><trkpt lat="37.12447299008696" lon="14.848095671819696"><ele>832.2</ele><time>2026-04-15T08:50:43.999Z</time></trkpt><trkpt lat="37.12438645094383" lon="14.848036965310946"><ele>832.0</ele><time>2026-04-15T08:50:44.999Z</time></trkpt><trkpt lat="37.12430855927742" lon="14.847982708278646"><ele>831.9999999999999</ele><time>2026-04-15T08:50:45.999Z</time></trkpt><trkpt lat="37.124255480555206" lon="14.847922808415165"><ele>832.0</ele><time>2026-04-15T08:50:46.999Z</time></trkpt><trkpt lat="37.12419874584923" lon="14.847808511430863"><ele>832.0</ele><time>2026-04-15T08:50:48.999Z</time></trkpt><trkpt lat="37.124217051551184" lon="14.847731221352293"><ele>832.0</ele><time>2026-04-15T08:50:50.999Z</time></trkpt><trkpt lat="37.12429520709416" lon="14.847666018244569"><ele>831.9999999999999</ele><time>2026-04-15T08:50:53.999Z</time></trkpt><trkpt lat="37.124368973481864" lon="14.847632402169975"><ele>832.0</ele><time>2026-04-15T08:50:55.999Z</time></trkpt><trkpt lat="37.124432752257945" lon="14.847597568757818"><ele>831.6</ele><time>2026-04-15T08:50:57.999Z</time></trkpt><trkpt lat="37.12452370024778" lon="14.84750247376056"><ele>831.2</ele><time>2026-04-15T08:50:59.999Z</time></trkpt><trkpt lat="37.12459482841407" lon="14.847434408655495"><ele>830.8</ele><time>2026-04-15T08:51:00.999Z</time></trkpt><trkpt lat="37.124685350130605" lon="14.8473463532349"><ele>830.4</ele><time>2026-04-15T08:51:01.999Z</time></trkpt><trkpt lat="37.12477963320594" lon="14.84725700264402"><ele>830.0</ele><time>2026-04-15T08:51:02.998Z</time></trkpt><trkpt lat="37.12487092025815" lon="14.847165623552208"><ele>826.75</ele><time>2026-04-15T08:51:03.998Z</time></trkpt><trkpt lat="37.124968923915276" lon="14.847075418981037"><ele>823.5</ele><time>2026-04-15T08:51:04.998Z</time></trkpt><trkpt lat="37.125071568124" lon="14.846997744049581"><ele>820.25</ele><time>2026-04-15T08:51:05.998Z</time></trkpt><trkpt lat="37.12517290372135" lon="14.846920890520753"><ele>817.0</ele><time>2026-04-15T08:51:06.998Z</time></trkpt><trkpt lat="37.12527833143637" lon="14.846843971321807"><ele>816.8</ele><time>2026-04-15T08:51:07.998Z</time></trkpt><trkpt lat="37.125374086865335" lon="14.846772041683375"><ele>816.6</ele><time>2026-04-15T08:51:08.998Z</time></trkpt><trkpt lat="37.12546520658478" lon="14.846706184553627"><ele>816.4</ele><time>2026-04-15T08:51:09.998Z</time></trkpt><trkpt lat="37.12554988082138" lon="14.846651943166215"><ele>816.1999999999999</ele><time>2026-04-15T08:51:10.998Z</time></trkpt><trkpt lat="37.12562569436397" lon="14.846595802795974"><ele>816.0</ele><time>2026-04-15T08:51:11.998Z</time></trkpt><trkpt lat="37.12568401923742" lon="14.846536522308648"><ele>812.5</ele><time>2026-04-15T08:51:12.998Z</time></trkpt><trkpt lat="37.12574934566456" lon="14.846444918401136"><ele>809.0</ele><time>2026-04-15T08:51:14.998Z</time></trkpt><trkpt lat="37.12581210074279" lon="14.846414954020059"><ele>805.5</ele><time>2026-04-15T08:51:18Z</time></trkpt><trkpt lat="37.12583123146506" lon="14.846321287550962"><ele>802.0</ele><time>2026-04-15T08:51:20Z</time></trkpt><trkpt lat="37.12578818760179" lon="14.846211787941124"><ele>798.5</ele><time>2026-04-15T08:51:21Z</time></trkpt><trkpt lat="37.12576948740974" lon="14.846102992928648"><ele>795.0</ele><time>2026-04-15T08:51:22Z</time></trkpt><trkpt lat="37.12576007406273" lon="14.845987680621727"><ele>794.0</ele><time>2026-04-15T08:51:23Z</time></trkpt><trkpt lat="37.12574946799991" lon="14.845871805429324"><ele>793.0</ele><time>2026-04-15T08:51:24Z</time></trkpt><trkpt lat="37.125753309009255" lon="14.845749395211811"><ele>792.0</ele><time>2026-04-15T08:51:25Z</time></trkpt><trkpt lat="37.12577302666027" lon="14.845613757896006"><ele>791.0</ele><time>2026-04-15T08:51:26Z</time></trkpt><trkpt lat="37.12580885554057" lon="14.84546529369247"><ele>790.0</ele><time>2026-04-15T08:51:27Z</time></trkpt><trkpt lat="37.12584888778339" lon="14.845310938574082"><ele>790.0</ele><time>2026-04-15T08:51:28Z</time></trkpt><trkpt lat="37.12588542989072" lon="14.845144156884144"><ele>790.0</ele><time>2026-04-15T08:51:29Z</time></trkpt><trkpt lat="37.125921822483875" lon="14.844974007926961"><ele>790.0</ele><time>2026-04-15T08:51:30Z</time></trkpt><trkpt lat="37.125965089148835" lon="14.844801186390114"><ele>790.0</ele><time>2026-04-15T08:51:31Z</time></trkpt><trkpt lat="37.126004736125275" lon="14.844623501793631"><ele>790.0</ele><time>2026-04-15T08:51:32Z</time></trkpt><trkpt lat="37.12604297488287" lon="14.844451068416522"><ele>790.0</ele><time>2026-04-15T08:51:33Z</time></trkpt><trkpt lat="37.126075426155154" lon="14.844286475676713"><ele>790.0</ele><time>2026-04-15T08:51:34Z</time></trkpt><trkpt lat="37.1260964076363" lon="14.844123906869795"><ele>790.0</ele><time>2026-04-15T08:51:35Z</time></trkpt><trkpt lat="37.1260968670623" lon="14.84395811455085"><ele>790.0</ele><time>2026-04-15T08:51:36Z</time></trkpt><trkpt lat="37.126077003534185" lon="14.84379428479429"><ele>790.0</ele><time>2026-04-15T08:51:37Z</time></trkpt><trkpt lat="37.12603845007926" lon="14.84361651715145"><ele>790.0</ele><time>2026-04-15T08:51:38Z</time></trkpt><trkpt lat="37.125995713385" lon="14.843424980859185"><ele>790.0</ele><time>2026-04-15T08:51:39Z</time></trkpt><trkpt lat="37.12595754544005" lon="14.843233855678658"><ele>788.75</ele><time>2026-04-15T08:51:40Z</time></trkpt><trkpt lat="37.12592117228601" lon="14.843057538706438"><ele>787.5</ele><time>2026-04-15T08:51:41Z</time></trkpt><trkpt lat="37.125890163713066" lon="14.842884941475038"><ele>786.25</ele><time>2026-04-15T08:51:42Z</time></trkpt><trkpt lat="37.12586750674947" lon="14.842722033441703"><ele>785.0</ele><time>2026-04-15T08:51:43Z</time></trkpt><trkpt lat="37.12586197171077" lon="14.842557715894348"><ele>783.75</ele><time>2026-04-15T08:51:44Z</time></trkpt><trkpt lat="37.125872310826566" lon="14.842395590596782"><ele>782.5</ele><time>2026-04-15T08:51:45Z</time></trkpt><trkpt lat="37.125895224186586" lon="14.842231822525525"><ele>781.25</ele><time>2026-04-15T08:51:46Z</time></trkpt><trkpt lat="37.12593232781109" lon="14.84208450120677"><ele>780.0</ele><time>2026-04-15T08:51:47Z</time></trkpt><trkpt lat="37.125999558399414" lon="14.841938531183834"><ele>780.0</ele><time>2026-04-15T08:51:48Z</time></trkpt><trkpt lat="37.12607900595181" lon="14.84180252193028"><ele>780.0</ele><time>2026-04-15T08:51:49Z</time></trkpt><trkpt lat="37.1261571742327" lon="14.841661541055018"><ele>780.0</ele><time>2026-04-15T08:51:50Z</time></trkpt><trkpt lat="37.12622460557935" lon="14.841511591415063"><ele>780.0</ele><time>2026-04-15T08:51:51Z</time></trkpt><trkpt lat="37.126281977544814" lon="14.841366858119207"><ele>780.2</ele><time>2026-04-15T08:51:52Z</time></trkpt><trkpt lat="37.12632254429765" lon="14.841238024820322"><ele>780.4</ele><time>2026-04-15T08:51:53Z</time></trkpt><trkpt lat="37.12633238016848" lon="14.84111223551914"><ele>780.5999999999999</ele><time>2026-04-15T08:51:54Z</time></trkpt><trkpt lat="37.12629207963222" lon="14.840996857609488"><ele>780.8</ele><time>2026-04-15T08:51:55Z</time></trkpt><trkpt lat="37.12621674179045" lon="14.840900215403671"><ele>781.0</ele><time>2026-04-15T08:51:56Z</time></trkpt><trkpt lat="37.12613778137716" lon="14.840806583228899"><ele>781.0</ele><time>2026-04-15T08:51:57Z</time></trkpt><trkpt lat="37.12604055779558" lon="14.840685386714005"><ele>781.0</ele><time>2026-04-15T08:51:58Z</time></trkpt><trkpt lat="37.125940743919514" lon="14.840553392923294"><ele>781.0</ele><time>2026-04-15T08:51:59Z</time></trkpt><trkpt lat="37.12583901853049" lon="14.84041926961733"><ele>781.0</ele><time>2026-04-15T08:52:00Z</time></trkpt><trkpt lat="37.125734511582635" lon="14.840285398715537"><ele>782.3333333333333</ele><time>2026-04-15T08:52:00.999Z</time></trkpt><trkpt lat="37.12561900675286" lon="14.840146645836667"><ele>783.6666666666667</ele><time>2026-04-15T08:52:01.999Z</time></trkpt><trkpt lat="37.1254960468521" lon="14.840003839811413"><ele>785.0</ele><time>2026-04-15T08:52:02.999Z</time></trkpt><trkpt lat="37.125382496094474" lon="14.839865681272151"><ele>785.0</ele><time>2026-04-15T08:52:03.999Z</time></trkpt><trkpt lat="37.12527718958416" lon="14.839733958526988"><ele>785.0</ele><time>2026-04-15T08:52:04.999Z</time></trkpt><trkpt lat="37.12518010472653" lon="14.839605735749041"><ele>785.0</ele><time>2026-04-15T08:52:05.999Z</time></trkpt><trkpt lat="37.12509786889706" lon="14.83947364669621"><ele>785.0</ele><time>2026-04-15T08:52:06.999Z</time></trkpt><trkpt lat="37.125036694722006" lon="14.839326056794185"><ele>781.75</ele><time>2026-04-15T08:52:07.999Z</time></trkpt><trkpt lat="37.125001113785686" lon="14.839165194736138"><ele>778.5</ele><time>2026-04-15T08:52:08.999Z</time></trkpt><trkpt lat="37.124960872562774" lon="14.838996323187384"><ele>775.25</ele><time>2026-04-15T08:52:09.999Z</time></trkpt><trkpt lat="37.1249059917959" lon="14.838826315198872"><ele>772.0</ele><time>2026-04-15T08:52:10.999Z</time></trkpt><trkpt lat="37.124846489586126" lon="14.83865050757393"><ele>777.6666666666666</ele><time>2026-04-15T08:52:11.999Z</time></trkpt><trkpt lat="37.12478299138016" lon="14.838466265607389"><ele>783.3333333333333</ele><time>2026-04-15T08:52:12.999Z</time></trkpt><trkpt lat="37.12472168097232" lon="14.838290933006054"><ele>789.0</ele><time>2026-04-15T08:52:13.999Z</time></trkpt><trkpt lat="37.12466406984528" lon="14.838128378665415"><ele>789.0</ele><time>2026-04-15T08:52:14.999Z</time></trkpt><trkpt lat="37.12460989857143" lon="14.837969797868483"><ele>789.0</ele><time>2026-04-15T08:52:15.999Z</time></trkpt><trkpt lat="37.124560811286976" lon="14.837817038603598"><ele>789.0</ele><time>2026-04-15T08:52:16.999Z</time></trkpt><trkpt lat="37.124469543941565" lon="14.837701677507626"><ele>789.0</ele><time>2026-04-15T08:52:17.999Z</time></trkpt><trkpt lat="37.12436974398443" lon="14.837617101803717"><ele>785.25</ele><time>2026-04-15T08:52:18.999Z</time></trkpt><trkpt lat="37.12423406579838" lon="14.837568105336624"><ele>781.5</ele><time>2026-04-15T08:52:19.999Z</time></trkpt><trkpt lat="37.12409871288101" lon="14.837510601746205"><ele>777.75</ele><time>2026-04-15T08:52:20.999Z</time></trkpt><trkpt lat="37.123976646419855" lon="14.837433498656505"><ele>774.0</ele><time>2026-04-15T08:52:21.999Z</time></trkpt><trkpt lat="37.12386530747069" lon="14.837358805198937"><ele>774.0</ele><time>2026-04-15T08:52:22.999Z</time></trkpt><trkpt lat="37.12375036527311" lon="14.837289174314858"><ele>774.0</ele><time>2026-04-15T08:52:23.999Z</time></trkpt><trkpt lat="37.123639109980346" lon="14.837256591964785"><ele>774.0</ele><time>2026-04-15T08:52:24.999Z</time></trkpt><trkpt lat="37.12353032919079" lon="14.837249181406756"><ele>774.0</ele><time>2026-04-15T08:52:25.999Z</time></trkpt><trkpt lat="37.12342760577151" lon="14.8372864726832"><ele>774.0</ele><time>2026-04-15T08:52:26.999Z</time></trkpt><trkpt lat="37.12333102941834" lon="14.8373092906879"><ele>774.0</ele><time>2026-04-15T08:52:27.999Z</time></trkpt><trkpt lat="37.12322920017738" lon="14.837307493635759"><ele>774.0</ele><time>2026-04-15T08:52:28.999Z</time></trkpt><trkpt lat="37.12313967001844" lon="14.837291811674957"><ele>774.0</ele><time>2026-04-15T08:52:29.999Z</time></trkpt><trkpt lat="37.12306043299344" lon="14.837252773281897"><ele>774.0</ele><time>2026-04-15T08:52:30.999Z</time></trkpt><trkpt lat="37.12300049307589" lon="14.837188377386413"><ele>775.0</ele><time>2026-04-15T08:52:31.999Z</time></trkpt><trkpt lat="37.122975602979125" lon="14.837104078215686"><ele>776.0</ele><time>2026-04-15T08:52:32.999Z</time></trkpt><trkpt lat="37.12298878784744" lon="14.837012120960045"><ele>777.0</ele><time>2026-04-15T08:52:33.999Z</time></trkpt><trkpt lat="37.12303216557306" lon="14.836940911443008"><ele>778.0</ele><time>2026-04-15T08:52:34.999Z</time></trkpt><trkpt lat="37.12307560825802" lon="14.836869453331683"><ele>779.0</ele><time>2026-04-15T08:52:35.999Z</time></trkpt><trkpt lat="37.123118309938356" lon="14.836803337518358"><ele>780.0</ele><time>2026-04-15T08:52:36.999Z</time></trkpt><trkpt lat="37.123191022995485" lon="14.836675444249565"><ele>776.8333333333334</ele><time>2026-04-15T08:52:38.999Z</time></trkpt><trkpt lat="37.12322965873515" lon="14.836606606847564"><ele>773.6666666666666</ele><time>2026-04-15T08:52:39.999Z</time></trkpt><trkpt lat="37.123279554134925" lon="14.836543897257844"><ele>770.5</ele><time>2026-04-15T08:52:40.999Z</time></trkpt><trkpt lat="37.12334247428647" lon="14.836478761821928"><ele>767.3333333333333</ele><time>2026-04-15T08:52:41.999Z</time></trkpt><trkpt lat="37.12343462639763" lon="14.836431836994588"><ele>764.1666666666666</ele><time>2026-04-15T08:52:42.999Z</time></trkpt><trkpt lat="37.123543995585706" lon="14.836400762370491"><ele>761.0</ele><time>2026-04-15T08:52:43.999Z</time></trkpt><trkpt lat="37.12366120988434" lon="14.836389820563813"><ele>760.0</ele><time>2026-04-15T08:52:44.999Z</time></trkpt><trkpt lat="37.12377555543482" lon="14.83639438878778"><ele>759.0</ele><time>2026-04-15T08:52:45.999Z</time></trkpt><trkpt lat="37.123902781417684" lon="14.836412552961407"><ele>758.0</ele><time>2026-04-15T08:52:46.999Z</time></trkpt><trkpt lat="37.12404012185452" lon="14.836429325281827"><ele>757.0</ele><time>2026-04-15T08:52:47.999Z</time></trkpt><trkpt lat="37.12418782796925" lon="14.836451423533255"><ele>757.0</ele><time>2026-04-15T08:52:48.999Z</time></trkpt><trkpt lat="37.12435502041162" lon="14.836467568006418"><ele>757.0</ele><time>2026-04-15T08:52:49.999Z</time></trkpt><trkpt lat="37.12451977155889" lon="14.836486499670032"><ele>757.0</ele><time>2026-04-15T08:52:50.999Z</time></trkpt><trkpt lat="37.12468938481756" lon="14.83651531454885"><ele>757.0</ele><time>2026-04-15T08:52:51.999Z</time></trkpt><trkpt lat="37.12487497353692" lon="14.836565761985607"><ele>757.0</ele><time>2026-04-15T08:52:52.999Z</time></trkpt><trkpt lat="37.12507914296801" lon="14.836633901398912"><ele>757.0</ele><time>2026-04-15T08:52:53.999Z</time></trkpt><trkpt lat="37.12525756569457" lon="14.83669639503294"><ele>757.3333333333334</ele><time>2026-04-15T08:52:54.999Z</time></trkpt><trkpt lat="37.12543631565137" lon="14.836756690693402"><ele>757.6666666666666</ele><time>2026-04-15T08:52:55.999Z</time></trkpt><trkpt lat="37.1256033493422" lon="14.836823384140537"><ele>758.0</ele><time>2026-04-15T08:52:56.999Z</time></trkpt><trkpt lat="37.12574204477208" lon="14.836927266798844"><ele>758.0</ele><time>2026-04-15T08:52:57.999Z</time></trkpt><trkpt lat="37.12586287733476" lon="14.837058715601275"><ele>758.0</ele><time>2026-04-15T08:52:58.999Z</time></trkpt><trkpt lat="37.12598481484414" lon="14.83720256035917"><ele>758.0</ele><time>2026-04-15T08:52:59.999Z</time></trkpt><trkpt lat="37.12611243440086" lon="14.837347631181501"><ele>758.0</ele><time>2026-04-15T08:53:00.999Z</time></trkpt><trkpt lat="37.12623971381335" lon="14.83749027597372"><ele>758.0</ele><time>2026-04-15T08:53:01.999Z</time></trkpt><trkpt lat="37.12635325940452" lon="14.837630139839268"><ele>758.0</ele><time>2026-04-15T08:53:02.999Z</time></trkpt><trkpt lat="37.126459556675975" lon="14.837736446270762"><ele>757.25</ele><time>2026-04-15T08:53:03.999Z</time></trkpt><trkpt lat="37.126556432057335" lon="14.837785349808364"><ele>756.5</ele><time>2026-04-15T08:53:04.999Z</time></trkpt><trkpt lat="37.12667346566192" lon="14.837797797087278"><ele>755.75</ele><time>2026-04-15T08:53:05.999Z</time></trkpt><trkpt lat="37.126811492142814" lon="14.837772740220881"><ele>755.0</ele><time>2026-04-15T08:53:06.999Z</time></trkpt><trkpt lat="37.12694216376778" lon="14.837740955122124"><ele>755.0</ele><time>2026-04-15T08:53:07.998Z</time></trkpt><trkpt lat="37.127064666394304" lon="14.8376985187371"><ele>755.0</ele><time>2026-04-15T08:53:08.998Z</time></trkpt><trkpt lat="37.12721174751151" lon="14.837647793286152"><ele>755.0</ele><time>2026-04-15T08:53:09.998Z</time></trkpt><trkpt lat="37.12737360004932" lon="14.837616133888407"><ele>755.0</ele><time>2026-04-15T08:53:10.998Z</time></trkpt><trkpt lat="37.12753167769671" lon="14.83759119823973"><ele>757.0</ele><time>2026-04-15T08:53:11.998Z</time></trkpt><trkpt lat="37.12768081351899" lon="14.837575501503972"><ele>759.0</ele><time>2026-04-15T08:53:12.998Z</time></trkpt><trkpt lat="37.12784305100116" lon="14.837592122597401"><ele>761.0</ele><time>2026-04-15T08:53:13.998Z</time></trkpt><trkpt lat="37.128011016996275" lon="14.837636693512524"><ele>761.0</ele><time>2026-04-15T08:53:14.998Z</time></trkpt><trkpt lat="37.12816144203983" lon="14.83766698183598"><ele>761.0</ele><time>2026-04-15T08:53:15.998Z</time></trkpt><trkpt lat="37.128314942435956" lon="14.83762898001754"><ele>761.0</ele><time>2026-04-15T08:53:16.998Z</time></trkpt><trkpt lat="37.1284730868824" lon="14.837540733149842"><ele>767.6666666666666</ele><time>2026-04-15T08:53:17.998Z</time></trkpt><trkpt lat="37.12863551947055" lon="14.837429527887146"><ele>774.3333333333333</ele><time>2026-04-15T08:53:18.998Z</time></trkpt><trkpt lat="37.12878944642491" lon="14.837350659627258"><ele>781.0</ele><time>2026-04-15T08:53:19.998Z</time></trkpt><trkpt lat="37.12894444494882" lon="14.837303271411136"><ele>782.0</ele><time>2026-04-15T08:53:20.998Z</time></trkpt><trkpt lat="37.129095959622276" lon="14.837289812305064"><ele>783.0</ele><time>2026-04-15T08:53:21.998Z</time></trkpt><trkpt lat="37.12924560585316" lon="14.83731160958523"><ele>784.0</ele><time>2026-04-15T08:53:23Z</time></trkpt><trkpt lat="37.129388306823195" lon="14.837358897438863"><ele>784.0</ele><time>2026-04-15T08:53:24Z</time></trkpt><trkpt lat="37.12951845005948" lon="14.837417010982305"><ele>784.0</ele><time>2026-04-15T08:53:25Z</time></trkpt><trkpt lat="37.12964914142594" lon="14.837458007505154"><ele>784.0</ele><time>2026-04-15T08:53:26Z</time></trkpt><trkpt lat="37.12978716050535" lon="14.837475010079139"><ele>784.0</ele><time>2026-04-15T08:53:27Z</time></trkpt><trkpt lat="37.12992245085017" lon="14.837472033538619"><ele>784.5</ele><time>2026-04-15T08:53:28Z</time></trkpt><trkpt lat="37.13005689960847" lon="14.837442630711932"><ele>785.0</ele><time>2026-04-15T08:53:29Z</time></trkpt><trkpt lat="37.13017410824959" lon="14.837393584451947"><ele>785.5</ele><time>2026-04-15T08:53:30Z</time></trkpt><trkpt lat="37.13026083549222" lon="14.83731420899871"><ele>786.0</ele><time>2026-04-15T08:53:31Z</time></trkpt><trkpt lat="37.13031776194668" lon="14.837194745796312"><ele>786.0</ele><time>2026-04-15T08:53:32Z</time></trkpt><trkpt lat="37.1303538681221" lon="14.837053310680016"><ele>786.0</ele><time>2026-04-15T08:53:33Z</time></trkpt><trkpt lat="37.13037709637033" lon="14.83689487356419"><ele>786.0</ele><time>2026-04-15T08:53:34Z</time></trkpt><trkpt lat="37.130387721874094" lon="14.836727007912389"><ele>786.0</ele><time>2026-04-15T08:53:35Z</time></trkpt><trkpt lat="37.130368713274635" lon="14.836552396571001"><ele>789.25</ele><time>2026-04-15T08:53:36Z</time></trkpt><trkpt lat="37.13035387508258" lon="14.836367054336792"><ele>792.5</ele><time>2026-04-15T08:53:37Z</time></trkpt><trkpt lat="37.130336501576295" lon="14.836197182557846"><ele>795.75</ele><time>2026-04-15T08:53:38Z</time></trkpt><trkpt lat="37.13030904339411" lon="14.836021902276915"><ele>799.0</ele><time>2026-04-15T08:53:39Z</time></trkpt><trkpt lat="37.13027542039742" lon="14.835847690431146"><ele>800.25</ele><time>2026-04-15T08:53:40Z</time></trkpt><trkpt lat="37.13025399052696" lon="14.835682266907565"><ele>801.5</ele><time>2026-04-15T08:53:41Z</time></trkpt><trkpt lat="37.13023451337417" lon="14.835528957237539"><ele>802.75</ele><time>2026-04-15T08:53:42Z</time></trkpt><trkpt lat="37.13020869702333" lon="14.835391120798398"><ele>804.0</ele><time>2026-04-15T08:53:43Z</time></trkpt><trkpt lat="37.130183999774566" lon="14.835263289169399"><ele>804.0</ele><time>2026-04-15T08:53:44Z</time></trkpt><trkpt lat="37.13014128772218" lon="14.835149267564605"><ele>804.0</ele><time>2026-04-15T08:53:45Z</time></trkpt><trkpt lat="37.13008549702116" lon="14.83503518059008"><ele>804.0</ele><time>2026-04-15T08:53:46Z</time></trkpt><trkpt lat="37.13003888266846" lon="14.834925421054512"><ele>804.0</ele><time>2026-04-15T08:53:47Z</time></trkpt><trkpt lat="37.13001632037468" lon="14.8348220240068"><ele>804.0</ele><time>2026-04-15T08:53:48Z</time></trkpt><trkpt lat="37.13003221512744" lon="14.834735018723723"><ele>804.3333333333334</ele><time>2026-04-15T08:53:49Z</time></trkpt><trkpt lat="37.130088367508776" lon="14.834680389416778"><ele>804.6666666666667</ele><time>2026-04-15T08:53:50Z</time></trkpt><trkpt lat="37.130151763980926" lon="14.834641078476954"><ele>805.0</ele><time>2026-04-15T08:53:51Z</time></trkpt><trkpt lat="37.13021694985691" lon="14.834604628043497"><ele>805.3333333333334</ele><time>2026-04-15T08:53:52Z</time></trkpt><trkpt lat="37.1302780332212" lon="14.834569283398462"><ele>805.6666666666667</ele><time>2026-04-15T08:53:53Z</time></trkpt><trkpt lat="37.130395386131305" lon="14.83451399045586"><ele>806.0</ele><time>2026-04-15T08:53:55Z</time></trkpt><trkpt lat="37.130458811237744" lon="14.834483232144434"><ele>806.0000000000001</ele><time>2026-04-15T08:53:56Z</time></trkpt><trkpt lat="37.13051847919787" lon="14.834438837489744"><ele>806.0</ele><time>2026-04-15T08:53:57Z</time></trkpt><trkpt lat="37.13058291495896" lon="14.83439246712973"><ele>806.0</ele><time>2026-04-15T08:53:58Z</time></trkpt><trkpt lat="37.13066038303172" lon="14.834349278598182"><ele>806.0</ele><time>2026-04-15T08:53:59Z</time></trkpt><trkpt lat="37.130753577378194" lon="14.83431903712146"><ele>806.0000000000001</ele><time>2026-04-15T08:54:00Z</time></trkpt><trkpt lat="37.130864247895865" lon="14.834316775723218"><ele>806.0</ele><time>2026-04-15T08:54:01Z</time></trkpt><trkpt lat="37.13099346734843" lon="14.83432016937282"><ele>803.5</ele><time>2026-04-15T08:54:02Z</time></trkpt><trkpt lat="37.13112135359677" lon="14.834321251657222"><ele>801.0</ele><time>2026-04-15T08:54:03Z</time></trkpt><trkpt lat="37.13125004897817" lon="14.834324361265745"><ele>798.5</ele><time>2026-04-15T08:54:04Z</time></trkpt><trkpt lat="37.13137427695278" lon="14.83434502426454"><ele>796.0</ele><time>2026-04-15T08:54:05Z</time></trkpt><trkpt lat="37.131490088551196" lon="14.834352673374962"><ele>796.5</ele><time>2026-04-15T08:54:06Z</time></trkpt><trkpt lat="37.13159653856182" lon="14.834337389066585"><ele>797.0</ele><time>2026-04-15T08:54:07Z</time></trkpt><trkpt lat="37.131706448288824" lon="14.83429202645954"><ele>797.5</ele><time>2026-04-15T08:54:08Z</time></trkpt><trkpt lat="37.13182198446941" lon="14.834207406326465"><ele>798.0</ele><time>2026-04-15T08:54:08.999Z</time></trkpt><trkpt lat="37.131954488622135" lon="14.834089044566715"><ele>800.6666666666667</ele><time>2026-04-15T08:54:09.999Z</time></trkpt><trkpt lat="37.13210041206077" lon="14.833951648453812"><ele>803.3333333333334</ele><time>2026-04-15T08:54:10.999Z</time></trkpt><trkpt lat="37.132233550083335" lon="14.83382063466512"><ele>806.0</ele><time>2026-04-15T08:54:11.999Z</time></trkpt><trkpt lat="37.132370235945174" lon="14.833686503031714"><ele>806.6666666666667</ele><time>2026-04-15T08:54:12.999Z</time></trkpt><trkpt lat="37.13250558185441" lon="14.833543575137917"><ele>807.3333333333333</ele><time>2026-04-15T08:54:13.999Z</time></trkpt><trkpt lat="37.13264297980847" lon="14.833400984149032"><ele>808.0</ele><time>2026-04-15T08:54:14.999Z</time></trkpt><trkpt lat="37.13278648231765" lon="14.833257347732326"><ele>808.0</ele><time>2026-04-15T08:54:15.999Z</time></trkpt><trkpt lat="37.132928846340334" lon="14.83311540848749"><ele>808.0</ele><time>2026-04-15T08:54:16.999Z</time></trkpt><trkpt lat="37.133068036137004" lon="14.832965705008233"><ele>808.0</ele><time>2026-04-15T08:54:17.999Z</time></trkpt><trkpt lat="37.13320825306673" lon="14.832820898859776"><ele>807.6666666666666</ele><time>2026-04-15T08:54:18.999Z</time></trkpt><trkpt lat="37.133343348048506" lon="14.83268025038604"><ele>807.3333333333333</ele><time>2026-04-15T08:54:19.999Z</time></trkpt><trkpt lat="37.13348353450856" lon="14.832541782313328"><ele>807.0</ele><time>2026-04-15T08:54:20.999Z</time></trkpt><trkpt lat="37.13365579751384" lon="14.832422419020379"><ele>807.0</ele><time>2026-04-15T08:54:21.999Z</time></trkpt><trkpt lat="37.13384744537469" lon="14.832327587252081"><ele>807.0</ele><time>2026-04-15T08:54:22.999Z</time></trkpt><trkpt lat="37.13405298357017" lon="14.83225251903053"><ele>807.0</ele><time>2026-04-15T08:54:23.999Z</time></trkpt><trkpt lat="37.134270765089305" lon="14.832187743506267"><ele>805.0</ele><time>2026-04-15T08:54:24.999Z</time></trkpt><trkpt lat="37.13449024162517" lon="14.832130135102641"><ele>803.0</ele><time>2026-04-15T08:54:25.999Z</time></trkpt><trkpt lat="37.13469779779656" lon="14.832079616938433"><ele>801.0</ele><time>2026-04-15T08:54:26.999Z</time></trkpt><trkpt lat="37.134881459810124" lon="14.832031666391451"><ele>800.6666666666667</ele><time>2026-04-15T08:54:27.999Z</time></trkpt><trkpt lat="37.135083150852424" lon="14.832004237104503"><ele>800.3333333333334</ele><time>2026-04-15T08:54:28.999Z</time></trkpt><trkpt lat="37.135287754051745" lon="14.832011181511097"><ele>800.0</ele><time>2026-04-15T08:54:29.999Z</time></trkpt><trkpt lat="37.135487746427216" lon="14.83202871149341"><ele>800.0</ele><time>2026-04-15T08:54:30.999Z</time></trkpt><trkpt lat="37.13568420740397" lon="14.832040770854306"><ele>800.0</ele><time>2026-04-15T08:54:31.999Z</time></trkpt><trkpt lat="37.13588425725422" lon="14.83206022347992"><ele>800.0</ele><time>2026-04-15T08:54:32.999Z</time></trkpt><trkpt lat="37.13609085480999" lon="14.832065358877538"><ele>800.3333333333334</ele><time>2026-04-15T08:54:33.999Z</time></trkpt><trkpt lat="37.13630194769567" lon="14.832076817723054"><ele>800.6666666666667</ele><time>2026-04-15T08:54:34.999Z</time></trkpt><trkpt lat="37.13650754975837" lon="14.832085683841656"><ele>801.0</ele><time>2026-04-15T08:54:35.999Z</time></trkpt><trkpt lat="37.13671270726203" lon="14.832096343782668"><ele>800.0</ele><time>2026-04-15T08:54:36.999Z</time></trkpt><trkpt lat="37.136908171571385" lon="14.8321055129112"><ele>799.0</ele><time>2026-04-15T08:54:37.999Z</time></trkpt><trkpt lat="37.13709415493206" lon="14.832112117766359"><ele>798.0</ele><time>2026-04-15T08:54:38.999Z</time></trkpt><trkpt lat="37.13728194403218" lon="14.832120209101335"><ele>798.0</ele><time>2026-04-15T08:54:39.999Z</time></trkpt><trkpt lat="37.13746990151576" lon="14.832120155269665"><ele>798.0</ele><time>2026-04-15T08:54:40.999Z</time></trkpt><trkpt lat="37.137643110788666" lon="14.832126445704718"><ele>798.0</ele><time>2026-04-15T08:54:41.999Z</time></trkpt><trkpt lat="37.13780350215051" lon="14.83214026618637"><ele>798.0</ele><time>2026-04-15T08:54:42.999Z</time></trkpt><trkpt lat="37.13796121637419" lon="14.832157565853917"><ele>798.0</ele><time>2026-04-15T08:54:43.999Z</time></trkpt><trkpt lat="37.13810458109992" lon="14.832173007719058"><ele>798.0</ele><time>2026-04-15T08:54:44.999Z</time></trkpt><trkpt lat="37.13825031526765" lon="14.83220368538503"><ele>799.0</ele><time>2026-04-15T08:54:45.999Z</time></trkpt><trkpt lat="37.138400603805145" lon="14.83225040232515"><ele>800.0</ele><time>2026-04-15T08:54:46.999Z</time></trkpt><trkpt lat="37.13855318234145" lon="14.83232488677819"><ele>801.0</ele><time>2026-04-15T08:54:47.999Z</time></trkpt><trkpt lat="37.13869533072726" lon="14.8324411219167"><ele>801.0</ele><time>2026-04-15T08:54:48.999Z</time></trkpt><trkpt lat="37.13883424593231" lon="14.832578024037542"><ele>801.0</ele><time>2026-04-15T08:54:49.999Z</time></trkpt><trkpt lat="37.138968469177634" lon="14.83269385469225"><ele>801.0</ele><time>2026-04-15T08:54:50.999Z</time></trkpt><trkpt lat="37.139116561351635" lon="14.832782591067007"><ele>798.6666666666667</ele><time>2026-04-15T08:54:51.999Z</time></trkpt><trkpt lat="37.13928248291522" lon="14.832837681995434"><ele>796.3333333333334</ele><time>2026-04-15T08:54:52.999Z</time></trkpt><trkpt lat="37.13945525326698" lon="14.832887699876217"><ele>794.0</ele><time>2026-04-15T08:54:53.999Z</time></trkpt><trkpt lat="37.13962563228871" lon="14.832951612833874"><ele>794.0</ele><time>2026-04-15T08:54:54.999Z</time></trkpt><trkpt lat="37.13979241331412" lon="14.83302159543112"><ele>794.0</ele><time>2026-04-15T08:54:55.999Z</time></trkpt><trkpt lat="37.13998682583459" lon="14.8330697905259"><ele>794.0</ele><time>2026-04-15T08:54:56.999Z</time></trkpt><trkpt lat="37.14016802785739" lon="14.833117104829622"><ele>795.0</ele><time>2026-04-15T08:54:57.999Z</time></trkpt><trkpt lat="37.14035248150506" lon="14.833156507252852"><ele>796.0</ele><time>2026-04-15T08:54:58.999Z</time></trkpt><trkpt lat="37.14052216599192" lon="14.833192313278403"><ele>797.0</ele><time>2026-04-15T08:54:59.999Z</time></trkpt><trkpt lat="37.14067647270291" lon="14.833240864050149"><ele>796.25</ele><time>2026-04-15T08:55:00.999Z</time></trkpt><trkpt lat="37.14081065534385" lon="14.833317639880967"><ele>795.5</ele><time>2026-04-15T08:55:01.999Z</time></trkpt><trkpt lat="37.14092999282726" lon="14.833425326805687"><ele>794.75</ele><time>2026-04-15T08:55:02.999Z</time></trkpt><trkpt lat="37.14103024070784" lon="14.833547723769172"><ele>794.0</ele><time>2026-04-15T08:55:03.999Z</time></trkpt><trkpt lat="37.14109192222219" lon="14.833694557027348"><ele>794.0</ele><time>2026-04-15T08:55:04.999Z</time></trkpt><trkpt lat="37.141113059865546" lon="14.833851341424944"><ele>794.0</ele><time>2026-04-15T08:55:05.999Z</time></trkpt><trkpt lat="37.141107497506056" lon="14.834013310300751"><ele>794.0</ele><time>2026-04-15T08:55:06.999Z</time></trkpt><trkpt lat="37.141085042026354" lon="14.834169339387518"><ele>794.0</ele><time>2026-04-15T08:55:07.999Z</time></trkpt><trkpt lat="37.14106960136173" lon="14.834329785235544"><ele>792.25</ele><time>2026-04-15T08:55:08.999Z</time></trkpt><trkpt lat="37.14108192509049" lon="14.834493431286074"><ele>790.5</ele><time>2026-04-15T08:55:09.999Z</time></trkpt><trkpt lat="37.141121129488745" lon="14.834656078682563"><ele>788.75</ele><time>2026-04-15T08:55:10.999Z</time></trkpt><trkpt lat="37.14117840427617" lon="14.834816393998144"><ele>787.0</ele><time>2026-04-15T08:55:11.999Z</time></trkpt><trkpt lat="37.141243010803905" lon="14.834978442436583"><ele>784.5</ele><time>2026-04-15T08:55:12.999Z</time></trkpt><trkpt lat="37.1413064970233" lon="14.835146885603885"><ele>782.0</ele><time>2026-04-15T08:55:13.999Z</time></trkpt><trkpt lat="37.14136260482144" lon="14.835318746842011"><ele>779.5</ele><time>2026-04-15T08:55:14.999Z</time></trkpt><trkpt lat="37.14140858916653" lon="14.835487843181328"><ele>777.0</ele><time>2026-04-15T08:55:15.998Z</time></trkpt><trkpt lat="37.141453150543455" lon="14.835655189546722"><ele>777.0</ele><time>2026-04-15T08:55:16.998Z</time></trkpt><trkpt lat="37.14148106328579" lon="14.83582453378678"><ele>777.0</ele><time>2026-04-15T08:55:17.998Z</time></trkpt><trkpt lat="37.141503947036284" lon="14.835986578345103"><ele>777.0</ele><time>2026-04-15T08:55:18.998Z</time></trkpt><trkpt lat="37.14149064529287" lon="14.836098909068772"><ele>777.0</ele><time>2026-04-15T08:55:19.998Z</time></trkpt><trkpt lat="37.14151340946607" lon="14.836192084355751"><ele>777.0</ele><time>2026-04-15T08:55:20.998Z</time></trkpt><trkpt lat="37.141565587670605" lon="14.836255306229445"><ele>777.1666666666666</ele><time>2026-04-15T08:55:21.998Z</time></trkpt><trkpt lat="37.14163176889206" lon="14.836289945188666"><ele>777.3333333333333</ele><time>2026-04-15T08:55:22.998Z</time></trkpt><trkpt lat="37.141708057263315" lon="14.836270319676382"><ele>777.5</ele><time>2026-04-15T08:55:23.998Z</time></trkpt><trkpt lat="37.14178281632292" lon="14.836203578208723"><ele>777.6666666666666</ele><time>2026-04-15T08:55:24.998Z</time></trkpt><trkpt lat="37.14186093365513" lon="14.83613014004374"><ele>777.8333333333333</ele><time>2026-04-15T08:55:25.998Z</time></trkpt><trkpt lat="37.14193329115944" lon="14.83604744234356"><ele>778.0</ele><time>2026-04-15T08:55:26.998Z</time></trkpt><trkpt lat="37.14199766605662" lon="14.835956331735941"><ele>781.0</ele><time>2026-04-15T08:55:27.998Z</time></trkpt><trkpt lat="37.142060984940834" lon="14.835849432226679"><ele>784.0</ele><time>2026-04-15T08:55:29Z</time></trkpt><trkpt lat="37.14212294282818" lon="14.83573851821611"><ele>787.0</ele><time>2026-04-15T08:55:30Z</time></trkpt><trkpt lat="37.14219421424221" lon="14.835627457845323"><ele>790.0</ele><time>2026-04-15T08:55:31Z</time></trkpt><trkpt lat="37.142269051895966" lon="14.835522946943975"><ele>793.0</ele><time>2026-04-15T08:55:32Z</time></trkpt><trkpt lat="37.14235134453128" lon="14.83543100431493"><ele>793.2</ele><time>2026-04-15T08:55:33Z</time></trkpt><trkpt lat="37.14243894642314" lon="14.835346842780005"><ele>793.4</ele><time>2026-04-15T08:55:34Z</time></trkpt><trkpt lat="37.14253131404577" lon="14.835275055305663"><ele>793.6</ele><time>2026-04-15T08:55:35Z</time></trkpt><trkpt lat="37.1426236946282" lon="14.835199940095329"><ele>793.8000000000001</ele><time>2026-04-15T08:55:36Z</time></trkpt><trkpt lat="37.14270308580947" lon="14.835109387865"><ele>794.0</ele><time>2026-04-15T08:55:37Z</time></trkpt><trkpt lat="37.14276143655721" lon="14.834998026457662"><ele>794.0</ele><time>2026-04-15T08:55:38Z</time></trkpt><trkpt lat="37.14279188530032" lon="14.834873180068405"><ele>794.0</ele><time>2026-04-15T08:55:39Z</time></trkpt><trkpt lat="37.14280329872702" lon="14.834742250130143"><ele>794.0</ele><time>2026-04-15T08:55:40Z</time></trkpt><trkpt lat="37.14281328429993" lon="14.834615246292401"><ele>794.0</ele><time>2026-04-15T08:55:41Z</time></trkpt><trkpt lat="37.142784048972395" lon="14.834351964091526"><ele>794.0</ele><time>2026-04-15T08:55:42Z</time></trkpt><trkpt lat="37.142853252580686" lon="14.834357655457653"><ele>794.0</ele><time>2026-04-15T08:55:43Z</time></trkpt><trkpt lat="37.142883678876196" lon="14.83424870824958"><ele>794.0</ele><time>2026-04-15T08:55:44Z</time></trkpt><trkpt lat="37.142923321582174" lon="14.834131185804699"><ele>794.0</ele><time>2026-04-15T08:55:45Z</time></trkpt><trkpt lat="37.14297009394714" lon="14.83400973222386"><ele>794.0</ele><time>2026-04-15T08:55:46Z</time></trkpt><trkpt lat="37.14301922297418" lon="14.833881070806491"><ele>794.25</ele><time>2026-04-15T08:55:47Z</time></trkpt><trkpt lat="37.14305697148764" lon="14.83374145814866"><ele>794.5</ele><time>2026-04-15T08:55:48Z</time></trkpt><trkpt lat="37.143090968466005" lon="14.833593695673727"><ele>794.75</ele><time>2026-04-15T08:55:49Z</time></trkpt><trkpt lat="37.143140526031594" lon="14.83345624384304"><ele>795.0</ele><time>2026-04-15T08:55:50Z</time></trkpt><trkpt lat="37.143199056660784" lon="14.833324336748852"><ele>793.2</ele><time>2026-04-15T08:55:51Z</time></trkpt><trkpt lat="37.1432600761599" lon="14.833189860062607"><ele>791.4</ele><time>2026-04-15T08:55:52Z</time></trkpt><trkpt lat="37.143346739637906" lon="14.833086881787038"><ele>789.5999999999999</ele><time>2026-04-15T08:55:53Z</time></trkpt><trkpt lat="37.14342632547601" lon="14.83302414926237"><ele>787.8</ele><time>2026-04-15T08:55:54Z</time></trkpt><trkpt lat="37.143516160383285" lon="14.832969915637849"><ele>786.0</ele><time>2026-04-15T08:55:55Z</time></trkpt><trkpt lat="37.143590578650446" lon="14.832782265546747"><ele>786.0</ele><time>2026-04-15T08:55:56Z</time></trkpt><trkpt lat="37.14366924033483" lon="14.832671846211984"><ele>786.0</ele><time>2026-04-15T08:55:57Z</time></trkpt><trkpt lat="37.14373618075331" lon="14.832565189988452"><ele>786.0</ele><time>2026-04-15T08:55:58Z</time></trkpt><trkpt lat="37.14380064628694" lon="14.832450399037533"><ele>786.0</ele><time>2026-04-15T08:55:59Z</time></trkpt><trkpt lat="37.143857406114144" lon="14.832332307670356"><ele>786.0</ele><time>2026-04-15T08:56:00Z</time></trkpt><trkpt lat="37.14391521677862" lon="14.832233130861702"><ele>786.4</ele><time>2026-04-15T08:56:01Z</time></trkpt><trkpt lat="37.143981559888424" lon="14.832151446193432"><ele>786.8</ele><time>2026-04-15T08:56:02Z</time></trkpt><trkpt lat="37.14406526985049" lon="14.8321126316028"><ele>787.1999999999999</ele><time>2026-04-15T08:56:03Z</time></trkpt><trkpt lat="37.14415311755588" lon="14.83211992381196"><ele>787.5999999999999</ele><time>2026-04-15T08:56:04Z</time></trkpt><trkpt lat="37.1442317979546" lon="14.832165244474396"><ele>788.0</ele><time>2026-04-15T08:56:05Z</time></trkpt><trkpt lat="37.144323347691156" lon="14.832204588111878"><ele>786.8</ele><time>2026-04-15T08:56:06Z</time></trkpt><trkpt lat="37.14442469387539" lon="14.83223887189716"><ele>785.5999999999999</ele><time>2026-04-15T08:56:07Z</time></trkpt><trkpt lat="37.14453190729771" lon="14.832272214959513"><ele>784.4000000000001</ele><time>2026-04-15T08:56:08Z</time></trkpt><trkpt lat="37.14464425138611" lon="14.832299988007303"><ele>783.2</ele><time>2026-04-15T08:56:09Z</time></trkpt><trkpt lat="37.14475255609526" lon="14.83231933894549"><ele>782.0</ele><time>2026-04-15T08:56:10Z</time></trkpt><trkpt lat="37.14486146251517" lon="14.83232071490679"><ele>781.0000000000001</ele><time>2026-04-15T08:56:11Z</time></trkpt><trkpt lat="37.14495370073614" lon="14.8322961802247"><ele>780.0</ele><time>2026-04-15T08:56:12Z</time></trkpt><trkpt lat="37.14504853691286" lon="14.832265331472119"><ele>779.0</ele><time>2026-04-15T08:56:13Z</time></trkpt><trkpt lat="37.14514058324381" lon="14.832235527496163"><ele>778.0</ele><time>2026-04-15T08:56:14Z</time></trkpt><trkpt lat="37.145223350399114" lon="14.83220734623813"><ele>777.0000000000001</ele><time>2026-04-15T08:56:14.999Z</time></trkpt><trkpt lat="37.145287606113584" lon="14.832175788400827"><ele>776.0</ele><time>2026-04-15T08:56:15.999Z</time></trkpt><trkpt lat="37.14530775652641" lon="14.832047634398856"><ele>776.0</ele><time>2026-04-15T08:56:17.999Z</time></trkpt><trkpt lat="37.145248601995775" lon="14.831925333374015"><ele>776.0</ele><time>2026-04-15T08:56:19.999Z</time></trkpt><trkpt lat="37.145203665828674" lon="14.831833150758499"><ele>776.0</ele><time>2026-04-15T08:56:20.999Z</time></trkpt><trkpt lat="37.145150857943456" lon="14.831735665696414"><ele>776.0</ele><time>2026-04-15T08:56:21.999Z</time></trkpt><trkpt lat="37.14509021813016" lon="14.831641519447968"><ele>776.0</ele><time>2026-04-15T08:56:22.999Z</time></trkpt><trkpt lat="37.14501969808225" lon="14.831542392900207"><ele>776.0</ele><time>2026-04-15T08:56:23.999Z</time></trkpt><trkpt lat="37.14494495592879" lon="14.83143447546025"><ele>776.0</ele><time>2026-04-15T08:56:24.999Z</time></trkpt><trkpt lat="37.1448677383157" lon="14.831321527940508"><ele>776.0</ele><time>2026-04-15T08:56:25.999Z</time></trkpt><trkpt lat="37.14479269598365" lon="14.831208557636117"><ele>776.0</ele><time>2026-04-15T08:56:26.999Z</time></trkpt><trkpt lat="37.14472134018272" lon="14.831094515342148"><ele>774.0</ele><time>2026-04-15T08:56:27.999Z</time></trkpt><trkpt lat="37.14464539667306" lon="14.830967462312469"><ele>772.0</ele><time>2026-04-15T08:56:28.999Z</time></trkpt><trkpt lat="37.14456610364836" lon="14.830842600297906"><ele>770.0</ele><time>2026-04-15T08:56:29.999Z</time></trkpt><trkpt lat="37.144475599405745" lon="14.830712603416556"><ele>768.0</ele><time>2026-04-15T08:56:30.999Z</time></trkpt><trkpt lat="37.144384712873475" lon="14.83057324467082"><ele>768.0</ele><time>2026-04-15T08:56:31.999Z</time></trkpt><trkpt lat="37.14429915638319" lon="14.830442163696837"><ele>768.0</ele><time>2026-04-15T08:56:32.999Z</time></trkpt><trkpt lat="37.14421615079659" lon="14.830305344151268"><ele>768.0</ele><time>2026-04-15T08:56:33.999Z</time></trkpt><trkpt lat="37.14414443368436" lon="14.830168064502036"><ele>768.0</ele><time>2026-04-15T08:56:34.999Z</time></trkpt><trkpt lat="37.1440803046938" lon="14.830026033208952"><ele>768.5</ele><time>2026-04-15T08:56:35.999Z</time></trkpt><trkpt lat="37.14402973766561" lon="14.829880436618389"><ele>769.0</ele><time>2026-04-15T08:56:36.999Z</time></trkpt><trkpt lat="37.14398724350123" lon="14.82973286181856"><ele>769.5</ele><time>2026-04-15T08:56:37.999Z</time></trkpt><trkpt lat="37.143946248923605" lon="14.829587017228153"><ele>770.0</ele><time>2026-04-15T08:56:38.999Z</time></trkpt><trkpt lat="37.14390706004854" lon="14.82944396501995"><ele>768.25</ele><time>2026-04-15T08:56:39.999Z</time></trkpt><trkpt lat="37.14386747210429" lon="14.829301167857244"><ele>766.5</ele><time>2026-04-15T08:56:40.999Z</time></trkpt><trkpt lat="37.14382763459483" lon="14.829161599666996"><ele>764.75</ele><time>2026-04-15T08:56:41.999Z</time></trkpt><trkpt lat="37.143789263867504" lon="14.829024481809203"><ele>763.0</ele><time>2026-04-15T08:56:42.999Z</time></trkpt><trkpt lat="37.1437525122725" lon="14.828889403785633"><ele>763.0</ele><time>2026-04-15T08:56:43.999Z</time></trkpt><trkpt lat="37.14371477254326" lon="14.828755544465006"><ele>763.0</ele><time>2026-04-15T08:56:44.999Z</time></trkpt><trkpt lat="37.1436734416684" lon="14.828621347362542"><ele>763.0</ele><time>2026-04-15T08:56:45.999Z</time></trkpt><trkpt lat="37.143637063276" lon="14.828484953568102"><ele>763.0</ele><time>2026-04-15T08:56:46.999Z</time></trkpt><trkpt lat="37.14359838871732" lon="14.828349916789662"><ele>761.4</ele><time>2026-04-15T08:56:47.999Z</time></trkpt><trkpt lat="37.143556370364486" lon="14.828223264507995"><ele>759.8</ele><time>2026-04-15T08:56:48.999Z</time></trkpt><trkpt lat="37.14351364372875" lon="14.828099584469935"><ele>758.2</ele><time>2026-04-15T08:56:49.999Z</time></trkpt><trkpt lat="37.14347274688248" lon="14.82797162617102"><ele>756.6</ele><time>2026-04-15T08:56:50.999Z</time></trkpt><trkpt lat="37.143431797219996" lon="14.827847064856988"><ele>755.0</ele><time>2026-04-15T08:56:51.999Z</time></trkpt><trkpt lat="37.14339094667914" lon="14.82772852403121"><ele>755.8</ele><time>2026-04-15T08:56:52.999Z</time></trkpt><trkpt lat="37.14335399671735" lon="14.827604635824672"><ele>756.6</ele><time>2026-04-15T08:56:53.999Z</time></trkpt><trkpt lat="37.14331540865065" lon="14.827484316681018"><ele>757.4000000000001</ele><time>2026-04-15T08:56:54.999Z</time></trkpt><trkpt lat="37.143276165088956" lon="14.827362408282603"><ele>758.2</ele><time>2026-04-15T08:56:55.999Z</time></trkpt><trkpt lat="37.14324086458838" lon="14.82723819362483"><ele>759.0</ele><time>2026-04-15T08:56:56.999Z</time></trkpt><trkpt lat="37.14320862159479" lon="14.827115030702604"><ele>759.0</ele><time>2026-04-15T08:56:57.999Z</time></trkpt><trkpt lat="37.14318425581906" lon="14.826992989497887"><ele>759.0</ele><time>2026-04-15T08:56:58.999Z</time></trkpt><trkpt lat="37.14317206173846" lon="14.82687393939967"><ele>759.0</ele><time>2026-04-15T08:56:59.999Z</time></trkpt><trkpt lat="37.143157540861644" lon="14.826751125638683"><ele>759.0</ele><time>2026-04-15T08:57:00.999Z</time></trkpt><trkpt lat="37.143136509762" lon="14.826636534935759"><ele>759.0</ele><time>2026-04-15T08:57:01.999Z</time></trkpt><trkpt lat="37.14311517478242" lon="14.826531714703542"><ele>758.0</ele><time>2026-04-15T08:57:02.999Z</time></trkpt><trkpt lat="37.143096034204994" lon="14.826429201628244"><ele>757.0</ele><time>2026-04-15T08:57:03.999Z</time></trkpt><trkpt lat="37.14307983447453" lon="14.826332217708131"><ele>756.0</ele><time>2026-04-15T08:57:04.999Z</time></trkpt><trkpt lat="37.143066188555295" lon="14.826241239297135"><ele>755.0</ele><time>2026-04-15T08:57:05.999Z</time></trkpt><trkpt lat="37.14304599341436" lon="14.826149193198075"><ele>754.0</ele><time>2026-04-15T08:57:06.999Z</time></trkpt><trkpt lat="37.14301613749499" lon="14.82606132138369"><ele>753.0</ele><time>2026-04-15T08:57:07.999Z</time></trkpt><trkpt lat="37.142984452366676" lon="14.82597650328412"><ele>751.0</ele><time>2026-04-15T08:57:08.999Z</time></trkpt><trkpt lat="37.14295194064554" lon="14.825895024587197"><ele>749.0</ele><time>2026-04-15T08:57:09.999Z</time></trkpt><trkpt lat="37.14291032764014" lon="14.825817841501447"><ele>747.0</ele><time>2026-04-15T08:57:10.999Z</time></trkpt><trkpt lat="37.14285997835657" lon="14.825751403614369"><ele>745.0</ele><time>2026-04-15T08:57:11.999Z</time></trkpt><trkpt lat="37.14279680672848" lon="14.825683109118744"><ele>743.0</ele><time>2026-04-15T08:57:12.999Z</time></trkpt><trkpt lat="37.14272376815651" lon="14.82561655122932"><ele>741.0</ele><time>2026-04-15T08:57:13.999Z</time></trkpt><trkpt lat="37.14264380453009" lon="14.825548350768994"><ele>741.0</ele><time>2026-04-15T08:57:14.999Z</time></trkpt><trkpt lat="37.14255679052872" lon="14.825492032296248"><ele>741.0</ele><time>2026-04-15T08:57:15.999Z</time></trkpt><trkpt lat="37.14247109267897" lon="14.825441662292572"><ele>741.0</ele><time>2026-04-15T08:57:16.999Z</time></trkpt><trkpt lat="37.14239865357686" lon="14.825389005839103"><ele>741.0</ele><time>2026-04-15T08:57:17.999Z</time></trkpt><trkpt lat="37.14233349235851" lon="14.825326702904743"><ele>741.0</ele><time>2026-04-15T08:57:18.999Z</time></trkpt><trkpt lat="37.142270346296755" lon="14.825255204666073"><ele>741.0</ele><time>2026-04-15T08:57:19.999Z</time></trkpt><trkpt lat="37.14221599529346" lon="14.825182824553984"><ele>740.6666666666666</ele><time>2026-04-15T08:57:20.999Z</time></trkpt><trkpt lat="37.14216544753631" lon="14.825110444518174"><ele>740.3333333333334</ele><time>2026-04-15T08:57:21.999Z</time></trkpt><trkpt lat="37.142114658978365" lon="14.825043975995584"><ele>740.0</ele><time>2026-04-15T08:57:22.998Z</time></trkpt><trkpt lat="37.14206450005675" lon="14.824978831429299"><ele>739.6666666666667</ele><time>2026-04-15T08:57:23.998Z</time></trkpt><trkpt lat="37.14200488015123" lon="14.82490829455007"><ele>739.3333333333334</ele><time>2026-04-15T08:57:24.998Z</time></trkpt><trkpt lat="37.14194734580626" lon="14.824821284323878"><ele>739.0</ele><time>2026-04-15T08:57:25.998Z</time></trkpt><trkpt lat="37.141879076173076" lon="14.824728376140389"><ele>739.0</ele><time>2026-04-15T08:57:26.998Z</time></trkpt><trkpt lat="37.14180729798129" lon="14.824629932671439"><ele>739.0</ele><time>2026-04-15T08:57:27.998Z</time></trkpt><trkpt lat="37.14173364886278" lon="14.824513585921897"><ele>739.0</ele><time>2026-04-15T08:57:28.998Z</time></trkpt><trkpt lat="37.14165818671885" lon="14.824397994587592"><ele>739.0</ele><time>2026-04-15T08:57:29.998Z</time></trkpt><trkpt lat="37.14157148833801" lon="14.824278874833267"><ele>739.0</ele><time>2026-04-15T08:57:30.998Z</time></trkpt><trkpt lat="37.141472618498575" lon="14.824165408485149"><ele>739.0</ele><time>2026-04-15T08:57:31.998Z</time></trkpt><trkpt lat="37.14136551054849" lon="14.824065039930858"><ele>739.0</ele><time>2026-04-15T08:57:32.998Z</time></trkpt><trkpt lat="37.141253509435494" lon="14.823978594495768"><ele>739.0</ele><time>2026-04-15T08:57:33.998Z</time></trkpt><trkpt lat="37.14113735148844" lon="14.82390046166353"><ele>739.0</ele><time>2026-04-15T08:57:35Z</time></trkpt><trkpt lat="37.14102347854806" lon="14.823807946661985"><ele>739.0</ele><time>2026-04-15T08:57:36Z</time></trkpt><trkpt lat="37.140910444642415" lon="14.823707382157009"><ele>739.0</ele><time>2026-04-15T08:57:37Z</time></trkpt><trkpt lat="37.14080585596134" lon="14.823601299290845"><ele>739.0</ele><time>2026-04-15T08:57:38Z</time></trkpt><trkpt lat="37.14070640956321" lon="14.823494094203935"><ele>739.25</ele><time>2026-04-15T08:57:39Z</time></trkpt><trkpt lat="37.14061350157236" lon="14.823391398184677"><ele>739.5</ele><time>2026-04-15T08:57:40Z</time></trkpt><trkpt lat="37.14052369125073" lon="14.82328863600149"><ele>739.75</ele><time>2026-04-15T08:57:41Z</time></trkpt><trkpt lat="37.14043499676572" lon="14.823183493804702"><ele>740.0</ele><time>2026-04-15T08:57:42Z</time></trkpt><trkpt lat="37.14034389720781" lon="14.823082305846535"><ele>740.0</ele><time>2026-04-15T08:57:43Z</time></trkpt><trkpt lat="37.140256662218235" lon="14.822986167773472"><ele>740.0</ele><time>2026-04-15T08:57:44Z</time></trkpt><trkpt lat="37.14017461777035" lon="14.82290040902404"><ele>740.0</ele><time>2026-04-15T08:57:45Z</time></trkpt><trkpt lat="37.14010842942975" lon="14.822820741245087"><ele>740.0</ele><time>2026-04-15T08:57:46Z</time></trkpt><trkpt lat="37.140045494606284" lon="14.82274262030965"><ele>740.0</ele><time>2026-04-15T08:57:47Z</time></trkpt><trkpt lat="37.13998527322333" lon="14.822670740471896"><ele>739.8333333333333</ele><time>2026-04-15T08:57:48Z</time></trkpt><trkpt lat="37.13992856794261" lon="14.822611560266246"><ele>739.6666666666666</ele><time>2026-04-15T08:57:49Z</time></trkpt><trkpt lat="37.13988168939385" lon="14.822551313591234"><ele>739.5</ele><time>2026-04-15T08:57:50Z</time></trkpt><trkpt lat="37.13984886535825" lon="14.822454203452567"><ele>739.3333333333334</ele><time>2026-04-15T08:57:52Z</time></trkpt><trkpt lat="37.13987280973155" lon="14.822300409893831"><ele>739.1666666666667</ele><time>2026-04-15T08:57:54Z</time></trkpt><trkpt lat="37.139911995387216" lon="14.822220729693877"><ele>739.0</ele><time>2026-04-15T08:57:55Z</time></trkpt><trkpt lat="37.13996183657908" lon="14.822137207094016"><ele>738.5</ele><time>2026-04-15T08:57:56Z</time></trkpt><trkpt lat="37.140006755891285" lon="14.822051754147331"><ele>738.0</ele><time>2026-04-15T08:57:57Z</time></trkpt><trkpt lat="37.140042749113185" lon="14.821961839271141"><ele>737.5</ele><time>2026-04-15T08:57:58Z</time></trkpt><trkpt lat="37.1400706862039" lon="14.82186776069862"><ele>737.0</ele><time>2026-04-15T08:57:59Z</time></trkpt><trkpt lat="37.14009873370195" lon="14.821766463995441"><ele>736.5</ele><time>2026-04-15T08:58:00Z</time></trkpt><trkpt lat="37.14013041550992" lon="14.821665609951037"><ele>736.0</ele><time>2026-04-15T08:58:01Z</time></trkpt><trkpt lat="37.14016820955145" lon="14.821564273329887"><ele>734.5999999999999</ele><time>2026-04-15T08:58:02Z</time></trkpt><trkpt lat="37.14021144688677" lon="14.8214593139001"><ele>733.2</ele><time>2026-04-15T08:58:03Z</time></trkpt><trkpt lat="37.1402614834292" lon="14.821341698910645"><ele>731.8</ele><time>2026-04-15T08:58:04Z</time></trkpt><trkpt lat="37.14031643973257" lon="14.821215683584308"><ele>730.4000000000001</ele><time>2026-04-15T08:58:05Z</time></trkpt><trkpt lat="37.14036444352846" lon="14.82108484582426"><ele>729.0</ele><time>2026-04-15T08:58:06Z</time></trkpt><trkpt lat="37.140406937138216" lon="14.820939031659517"><ele>726.25</ele><time>2026-04-15T08:58:07Z</time></trkpt><trkpt lat="37.14044962018323" lon="14.820788489677838"><ele>723.5</ele><time>2026-04-15T08:58:08Z</time></trkpt><trkpt lat="37.14048762666637" lon="14.820650022748836"><ele>720.75</ele><time>2026-04-15T08:58:09Z</time></trkpt><trkpt lat="37.14052277258206" lon="14.82050942173795"><ele>718.0</ele><time>2026-04-15T08:58:10Z</time></trkpt><trkpt lat="37.140546663782395" lon="14.82035370620941"><ele>718.0</ele><time>2026-04-15T08:58:11Z</time></trkpt><trkpt lat="37.1405639671722" lon="14.820197639155612"><ele>718.0</ele><time>2026-04-15T08:58:12Z</time></trkpt><trkpt lat="37.140572319736236" lon="14.820037678046562"><ele>718.0</ele><time>2026-04-15T08:58:13Z</time></trkpt><trkpt lat="37.1405764799597" lon="14.819884626500789"><ele>718.0</ele><time>2026-04-15T08:58:14Z</time></trkpt><trkpt lat="37.140578111664105" lon="14.819731261275633"><ele>716.0</ele><time>2026-04-15T08:58:15Z</time></trkpt><trkpt lat="37.140582060734324" lon="14.819571174216637"><ele>714.0</ele><time>2026-04-15T08:58:16Z</time></trkpt><trkpt lat="37.140584607612794" lon="14.81941548655727"><ele>712.0</ele><time>2026-04-15T08:58:17Z</time></trkpt><trkpt lat="37.140589450372694" lon="14.819267540784413"><ele>710.0</ele><time>2026-04-15T08:58:18Z</time></trkpt><trkpt lat="37.140592989603945" lon="14.819124096349796"><ele>708.8</ele><time>2026-04-15T08:58:19Z</time></trkpt><trkpt lat="37.140589024362356" lon="14.81898398749855"><ele>707.6</ele><time>2026-04-15T08:58:20Z</time></trkpt><trkpt lat="37.140578983904796" lon="14.818842797655051"><ele>706.4000000000001</ele><time>2026-04-15T08:58:21Z</time></trkpt><trkpt lat="37.140565412877216" lon="14.818703058288257"><ele>705.2</ele><time>2026-04-15T08:58:22Z</time></trkpt><trkpt lat="37.1405483865903" lon="14.818579803220436"><ele>704.0</ele><time>2026-04-15T08:58:22.999Z</time></trkpt><trkpt lat="37.14054729231925" lon="14.818462790228464"><ele>702.6</ele><time>2026-04-15T08:58:23.999Z</time></trkpt><trkpt lat="37.14055846035776" lon="14.818378230102764"><ele>701.2</ele><time>2026-04-15T08:58:24.999Z</time></trkpt><trkpt lat="37.140603561160574" lon="14.818213647173051"><ele>699.8000000000001</ele><time>2026-04-15T08:58:26.999Z</time></trkpt><trkpt lat="37.14065198272138" lon="14.818125346990044"><ele>698.4000000000001</ele><time>2026-04-15T08:58:27.999Z</time></trkpt><trkpt lat="37.140707138557396" lon="14.818023555676065"><ele>697.0</ele><time>2026-04-15T08:58:28.999Z</time></trkpt><trkpt lat="37.14076336526545" lon="14.817912979753965"><ele>699.5</ele><time>2026-04-15T08:58:29.999Z</time></trkpt><trkpt lat="37.14081239338349" lon="14.817811856035643"><ele>702.0</ele><time>2026-04-15T08:58:30.999Z</time></trkpt><trkpt lat="37.14085611036804" lon="14.817711418395389"><ele>704.5</ele><time>2026-04-15T08:58:31.999Z</time></trkpt><trkpt lat="37.14088669068949" lon="14.817628370577067"><ele>707.0</ele><time>2026-04-15T08:58:32.999Z</time></trkpt><trkpt lat="37.14090983194872" lon="14.817554912798709"><ele>709.5</ele><time>2026-04-15T08:58:33.999Z</time></trkpt><trkpt lat="37.14094257936047" lon="14.817451122670528"><ele>712.0</ele><time>2026-04-15T08:58:35.999Z</time></trkpt><trkpt lat="37.1409514883092" lon="14.817362502734623"><ele>712.0</ele><time>2026-04-15T08:58:37.999Z</time></trkpt><trkpt lat="37.140959976866306" lon="14.817262332010513"><ele>712.0</ele><time>2026-04-15T09:01:03.999Z</time></trkpt><trkpt lat="37.14102922090612" lon="14.817173888772233"><ele>712.0</ele><time>2026-04-15T09:01:06.999Z</time></trkpt><trkpt lat="37.14109154570099" lon="14.817067476467985"><ele>712.0</ele><time>2026-04-15T09:01:08.999Z</time></trkpt><trkpt lat="37.14112031001065" lon="14.81698948871283"><ele>712.0</ele><time>2026-04-15T09:01:09.999Z</time></trkpt><trkpt lat="37.141155480636634" lon="14.816898641962537"><ele>712.0</ele><time>2026-04-15T09:01:10.999Z</time></trkpt><trkpt lat="37.141198257890245" lon="14.816786765261531"><ele>707.5</ele><time>2026-04-15T09:01:11.999Z</time></trkpt><trkpt lat="37.14125061242377" lon="14.816668014221907"><ele>703.0</ele><time>2026-04-15T09:01:12.999Z</time></trkpt><trkpt lat="37.14130962136316" lon="14.81653825443825"><ele>698.5</ele><time>2026-04-15T09:01:13.999Z</time></trkpt><trkpt lat="37.14137350218661" lon="14.816395542992353"><ele>694.0</ele><time>2026-04-15T09:01:14.999Z</time></trkpt><trkpt lat="37.141440876651814" lon="14.816246846934831"><ele>694.0</ele><time>2026-04-15T09:01:15.999Z</time></trkpt><trkpt lat="37.14150972499732" lon="14.81609519343851"><ele>694.0</ele><time>2026-04-15T09:01:16.999Z</time></trkpt><trkpt lat="37.141578038775144" lon="14.815936106242612"><ele>694.0</ele><time>2026-04-15T09:01:17.999Z</time></trkpt><trkpt lat="37.14164986835448" lon="14.815775239249668"><ele>694.0</ele><time>2026-04-15T09:01:18.999Z</time></trkpt><trkpt lat="37.141719503657576" lon="14.815615576414764"><ele>694.75</ele><time>2026-04-15T09:01:19.999Z</time></trkpt><trkpt lat="37.14177620072631" lon="14.815450349826648"><ele>695.5</ele><time>2026-04-15T09:01:20.999Z</time></trkpt><trkpt lat="37.141817156028594" lon="14.815276642519075"><ele>696.25</ele><time>2026-04-15T09:01:21.999Z</time></trkpt><trkpt lat="37.14184773740551" lon="14.815101409859379"><ele>697.0</ele><time>2026-04-15T09:01:22.999Z</time></trkpt><trkpt lat="37.14188457007555" lon="14.814938927664576"><ele>692.0</ele><time>2026-04-15T09:01:23.999Z</time></trkpt><trkpt lat="37.141930233968054" lon="14.81477678367339"><ele>687.0</ele><time>2026-04-15T09:01:24.999Z</time></trkpt><trkpt lat="37.14197820777908" lon="14.814609290297655"><ele>682.0</ele><time>2026-04-15T09:01:25.999Z</time></trkpt><trkpt lat="37.142020618892914" lon="14.814425160870895"><ele>677.0</ele><time>2026-04-15T09:01:26.999Z</time></trkpt><trkpt lat="37.142057719624226" lon="14.81423327656798"><ele>670.3333333333333</ele><time>2026-04-15T09:01:27.999Z</time></trkpt><trkpt lat="37.14209475414062" lon="14.814029153932248"><ele>663.6666666666666</ele><time>2026-04-15T09:01:28.999Z</time></trkpt><trkpt lat="37.142134743015106" lon="14.813829781266078"><ele>657.0</ele><time>2026-04-15T09:01:29.999Z</time></trkpt><trkpt lat="37.14217639149479" lon="14.813627904722917"><ele>652.0</ele><time>2026-04-15T09:01:30.999Z</time></trkpt><trkpt lat="37.142219383296" lon="14.813430160761493"><ele>647.0</ele><time>2026-04-15T09:01:31.999Z</time></trkpt><trkpt lat="37.14225819198484" lon="14.81322807938303"><ele>642.0</ele><time>2026-04-15T09:01:32.999Z</time></trkpt><trkpt lat="37.142299363838625" lon="14.813027816049118"><ele>642.0</ele><time>2026-04-15T09:01:33.999Z</time></trkpt><trkpt lat="37.142339417924184" lon="14.812844673145152"><ele>642.0</ele><time>2026-04-15T09:01:34.999Z</time></trkpt><trkpt lat="37.142377760931076" lon="14.812692352592336"><ele>642.0</ele><time>2026-04-15T09:01:35.999Z</time></trkpt><trkpt lat="37.14239547389108" lon="14.81257451109071"><ele>642.0</ele><time>2026-04-15T09:01:36.998Z</time></trkpt><trkpt lat="37.142394836125916" lon="14.812438989901134"><ele>645.2</ele><time>2026-04-15T09:01:37.998Z</time></trkpt><trkpt lat="37.14238223865923" lon="14.812300772255211"><ele>648.4000000000001</ele><time>2026-04-15T09:01:38.998Z</time></trkpt><trkpt lat="37.14240093241745" lon="14.812167826241653"><ele>651.5999999999999</ele><time>2026-04-15T09:01:39.998Z</time></trkpt><trkpt lat="37.14244840548044" lon="14.812046717228661"><ele>654.8</ele><time>2026-04-15T09:01:40.998Z</time></trkpt><trkpt lat="37.14251819077104" lon="14.81193669353259"><ele>658.0</ele><time>2026-04-15T09:01:41.998Z</time></trkpt><trkpt lat="37.14259479553831" lon="14.81182613476912"><ele>652.25</ele><time>2026-04-15T09:01:42.998Z</time></trkpt><trkpt lat="37.142660598184364" lon="14.811704778722934"><ele>646.5</ele><time>2026-04-15T09:01:43.998Z</time></trkpt><trkpt lat="37.142719477253955" lon="14.811577810032858"><ele>640.75</ele><time>2026-04-15T09:01:44.998Z</time></trkpt><trkpt lat="37.142781443260965" lon="14.811448243114315"><ele>635.0</ele><time>2026-04-15T09:01:45.998Z</time></trkpt><trkpt lat="37.14285255903656" lon="14.811341420043883"><ele>635.0</ele><time>2026-04-15T09:01:47Z</time></trkpt><trkpt lat="37.142952789617404" lon="14.81125457849447"><ele>635.0</ele><time>2026-04-15T09:01:48Z</time></trkpt><trkpt lat="37.14306172514676" lon="14.81118203898272"><ele>635.0</ele><time>2026-04-15T09:01:49Z</time></trkpt><trkpt lat="37.14316849351472" lon="14.811096179964212"><ele>635.0</ele><time>2026-04-15T09:01:50Z</time></trkpt><trkpt lat="37.14327688352191" lon="14.811004041003356"><ele>633.0</ele><time>2026-04-15T09:01:51Z</time></trkpt><trkpt lat="37.14337816159516" lon="14.810898874289894"><ele>631.0</ele><time>2026-04-15T09:01:52Z</time></trkpt><trkpt lat="37.143475944601974" lon="14.810791274633244"><ele>629.0</ele><time>2026-04-15T09:01:53Z</time></trkpt><trkpt lat="37.143559869123585" lon="14.810674432666996"><ele>627.0</ele><time>2026-04-15T09:01:54Z</time></trkpt><trkpt lat="37.14362705187794" lon="14.810536922619153"><ele>627.0</ele><time>2026-04-15T09:01:55Z</time></trkpt><trkpt lat="37.14367980451655" lon="14.810387565868293"><ele>627.0</ele><time>2026-04-15T09:01:56Z</time></trkpt><trkpt lat="37.14371834195868" lon="14.810237014607438"><ele>627.0</ele><time>2026-04-15T09:01:57Z</time></trkpt><trkpt lat="37.143742873152185" lon="14.81007725589305"><ele>627.0</ele><time>2026-04-15T09:01:58Z</time></trkpt><trkpt lat="37.14375260748866" lon="14.809911617550217"><ele>624.25</ele><time>2026-04-15T09:01:59Z</time></trkpt><trkpt lat="37.143755051806245" lon="14.809738123476892"><ele>621.5</ele><time>2026-04-15T09:02:00Z</time></trkpt><trkpt lat="37.14376040261191" lon="14.809565319237883"><ele>618.75</ele><time>2026-04-15T09:02:01Z</time></trkpt><trkpt lat="37.143774038488004" lon="14.809412714761828"><ele>616.0</ele><time>2026-04-15T09:02:02Z</time></trkpt><trkpt lat="37.14379157579069" lon="14.809261756741519"><ele>616.3333333333334</ele><time>2026-04-15T09:02:03Z</time></trkpt><trkpt lat="37.143827264431216" lon="14.809123592383495"><ele>616.6666666666667</ele><time>2026-04-15T09:02:04Z</time></trkpt><trkpt lat="37.143870207042774" lon="14.809008478041001"><ele>617.0</ele><time>2026-04-15T09:02:05Z</time></trkpt><trkpt lat="37.14390854875234" lon="14.808917606429901"><ele>617.3333333333334</ele><time>2026-04-15T09:02:06Z</time></trkpt><trkpt lat="37.14394867725946" lon="14.808856132666213"><ele>617.6666666666666</ele><time>2026-04-15T09:02:07Z</time></trkpt><trkpt lat="37.143996653135986" lon="14.808798025430104"><ele>618.0</ele><time>2026-04-15T09:02:08Z</time></trkpt><trkpt lat="37.144060125426705" lon="14.808739294206962"><ele>618.0</ele><time>2026-04-15T09:02:09Z</time></trkpt><trkpt lat="37.14413790475019" lon="14.808667347668395"><ele>618.0</ele><time>2026-04-15T09:02:10Z</time></trkpt><trkpt lat="37.144219099567806" lon="14.808594089257062"><ele>618.0</ele><time>2026-04-15T09:02:11Z</time></trkpt><trkpt lat="37.144307643292045" lon="14.808522539229374"><ele>618.0</ele><time>2026-04-15T09:02:12Z</time></trkpt><trkpt lat="37.14440299866548" lon="14.808457404859734"><ele>618.0</ele><time>2026-04-15T09:02:13Z</time></trkpt><trkpt lat="37.14450312588081" lon="14.808396706814143"><ele>613.8</ele><time>2026-04-15T09:02:14Z</time></trkpt><trkpt lat="37.14460741109713" lon="14.808342647536158"><ele>609.5999999999999</ele><time>2026-04-15T09:02:15Z</time></trkpt><trkpt lat="37.14471551275109" lon="14.808289224670471"><ele>605.4000000000001</ele><time>2026-04-15T09:02:16Z</time></trkpt><trkpt lat="37.14482448038617" lon="14.80823643298963"><ele>601.2</ele><time>2026-04-15T09:02:17Z</time></trkpt><trkpt lat="37.14492044866074" lon="14.808189289523504"><ele>597.0</ele><time>2026-04-15T09:02:18Z</time></trkpt><trkpt lat="37.145003079289125" lon="14.808141948731791"><ele>596.0</ele><time>2026-04-15T09:02:19Z</time></trkpt><trkpt lat="37.145068593466426" lon="14.808087841651405"><ele>595.0</ele><time>2026-04-15T09:02:20Z</time></trkpt><trkpt lat="37.14512665188952" lon="14.808033069561908"><ele>594.0</ele><time>2026-04-15T09:02:21Z</time></trkpt><trkpt lat="37.14521444809599" lon="14.807933554087247"><ele>593.0</ele><time>2026-04-15T09:02:23Z</time></trkpt><trkpt lat="37.14524495113825" lon="14.807821653205163"><ele>592.0</ele><time>2026-04-15T09:02:24Z</time></trkpt><trkpt lat="37.14527749441915" lon="14.807675558682561"><ele>588.25</ele><time>2026-04-15T09:02:25Z</time></trkpt><trkpt lat="37.145309307696046" lon="14.807525476559503"><ele>584.5</ele><time>2026-04-15T09:02:26Z</time></trkpt><trkpt lat="37.14534867974686" lon="14.8073766687823"><ele>580.75</ele><time>2026-04-15T09:02:27Z</time></trkpt><trkpt lat="37.1453861835191" lon="14.8072306135882"><ele>577.0</ele><time>2026-04-15T09:02:28Z</time></trkpt><trkpt lat="37.145418475053205" lon="14.807088226800355"><ele>577.0</ele><time>2026-04-15T09:02:29Z</time></trkpt><trkpt lat="37.14544505283652" lon="14.806946525012743"><ele>577.0</ele><time>2026-04-15T09:02:30Z</time></trkpt><trkpt lat="37.14547144874422" lon="14.80681365847696"><ele>577.0</ele><time>2026-04-15T09:02:30.999Z</time></trkpt><trkpt lat="37.14549665429385" lon="14.806685248991721"><ele>577.0</ele><time>2026-04-15T09:02:31.999Z</time></trkpt><trkpt lat="37.145531465478236" lon="14.806576845598945"><ele>577.0</ele><time>2026-04-15T09:02:32.999Z</time></trkpt><trkpt lat="37.14556751025553" lon="14.80646244982068"><ele>576.8333333333334</ele><time>2026-04-15T09:02:33.999Z</time></trkpt><trkpt lat="37.14560929437258" lon="14.806356022530784"><ele>576.6666666666667</ele><time>2026-04-15T09:02:34.999Z</time></trkpt><trkpt lat="37.14565024730104" lon="14.80625555824029"><ele>576.5</ele><time>2026-04-15T09:02:35.999Z</time></trkpt><trkpt lat="37.14568777915031" lon="14.806157950171345"><ele>576.3333333333334</ele><time>2026-04-15T09:02:36.999Z</time></trkpt><trkpt lat="37.14572802452261" lon="14.806061430148423"><ele>576.1666666666666</ele><time>2026-04-15T09:02:37.999Z</time></trkpt><trkpt lat="37.14577216478112" lon="14.805967268141066"><ele>576.0</ele><time>2026-04-15T09:02:38.999Z</time></trkpt><trkpt lat="37.14582619479271" lon="14.805880624267308"><ele>574.1666666666666</ele><time>2026-04-15T09:02:39.999Z</time></trkpt><trkpt lat="37.145885991881485" lon="14.805793436566569"><ele>572.3333333333334</ele><time>2026-04-15T09:02:40.999Z</time></trkpt><trkpt lat="37.145941162117815" lon="14.80571208775016"><ele>570.5</ele><time>2026-04-15T09:02:41.999Z</time></trkpt><trkpt lat="37.14597979837854" lon="14.805627991791377"><ele>568.6666666666667</ele><time>2026-04-15T09:02:42.999Z</time></trkpt><trkpt lat="37.14600664358733" lon="14.805550986319094"><ele>566.8333333333334</ele><time>2026-04-15T09:02:43.999Z</time></trkpt><trkpt lat="37.14603828055267" lon="14.805471797752421"><ele>565.0</ele><time>2026-04-15T09:02:44.999Z</time></trkpt><trkpt lat="37.14608237519538" lon="14.80539711527054"><ele>565.0</ele><time>2026-04-15T09:02:45.999Z</time></trkpt><trkpt lat="37.146126223971606" lon="14.80533004721179"><ele>565.0</ele><time>2026-04-15T09:02:46.999Z</time></trkpt><trkpt lat="37.146175336934355" lon="14.805278093428212"><ele>565.0</ele><time>2026-04-15T09:02:47.999Z</time></trkpt><trkpt lat="37.14623204817577" lon="14.805238692195662"><ele>565.0</ele><time>2026-04-15T09:02:48.999Z</time></trkpt><trkpt lat="37.146352950348046" lon="14.805214986122978"><ele>565.0</ele><time>2026-04-15T09:02:50.999Z</time></trkpt><trkpt lat="37.14643262445346" lon="14.80520072419031"><ele>565.0</ele><time>2026-04-15T09:02:51.999Z</time></trkpt><trkpt lat="37.14652095991174" lon="14.805182895837566"><ele>561.3333333333334</ele><time>2026-04-15T09:02:52.999Z</time></trkpt><trkpt lat="37.14660332462851" lon="14.805160268813792"><ele>557.6666666666667</ele><time>2026-04-15T09:02:53.999Z</time></trkpt><trkpt lat="37.146676414071045" lon="14.805136241675374"><ele>554.0</ele><time>2026-04-15T09:02:54.999Z</time></trkpt><trkpt lat="37.14674010348956" lon="14.805112594122457"><ele>550.3333333333334</ele><time>2026-04-15T09:02:55.999Z</time></trkpt><trkpt lat="37.146846628319" lon="14.805053114024274"><ele>546.6666666666666</ele><time>2026-04-15T09:02:57.999Z</time></trkpt><trkpt lat="37.14690564163517" lon="14.805023260620649"><ele>543.0</ele><time>2026-04-15T09:02:58.999Z</time></trkpt><trkpt lat="37.14698732757933" lon="14.804980308157498"><ele>543.0</ele><time>2026-04-15T09:02:59.999Z</time></trkpt><trkpt lat="37.14707448857476" lon="14.804921953570881"><ele>543.0</ele><time>2026-04-15T09:03:00.999Z</time></trkpt><trkpt lat="37.147154073569226" lon="14.804841962717564"><ele>543.0</ele><time>2026-04-15T09:03:01.999Z</time></trkpt><trkpt lat="37.14722870514376" lon="14.804738224943911"><ele>543.0</ele><time>2026-04-15T09:03:02.999Z</time></trkpt><trkpt lat="37.14729765797345" lon="14.804626999205073"><ele>543.0</ele><time>2026-04-15T09:03:03.999Z</time></trkpt><trkpt lat="37.147366819352264" lon="14.804516231989435"><ele>541.25</ele><time>2026-04-15T09:03:04.999Z</time></trkpt><trkpt lat="37.14744192596158" lon="14.804394476820447"><ele>539.5</ele><time>2026-04-15T09:03:05.999Z</time></trkpt><trkpt lat="37.14751813698967" lon="14.804267268017806"><ele>537.75</ele><time>2026-04-15T09:03:06.999Z</time></trkpt><trkpt lat="37.147598679111766" lon="14.804145429018039"><ele>536.0</ele><time>2026-04-15T09:03:07.999Z</time></trkpt><trkpt lat="37.14768382495107" lon="14.804029041974179"><ele>533.8</ele><time>2026-04-15T09:03:08.999Z</time></trkpt><trkpt lat="37.14776521512808" lon="14.803920212712065"><ele>531.6</ele><time>2026-04-15T09:03:09.999Z</time></trkpt><trkpt lat="37.147839959722354" lon="14.803828547419522"><ele>529.4</ele><time>2026-04-15T09:03:10.999Z</time></trkpt><trkpt lat="37.14791720500088" lon="14.803761060971063"><ele>527.2</ele><time>2026-04-15T09:03:11.999Z</time></trkpt><trkpt lat="37.147987011361785" lon="14.803719920906193"><ele>525.0</ele><time>2026-04-15T09:03:12.999Z</time></trkpt><trkpt lat="37.14808306080897" lon="14.803651577197055"><ele>525.0</ele><time>2026-04-15T09:03:14.999Z</time></trkpt><trkpt lat="37.14813874599005" lon="14.80359397780495"><ele>525.0</ele><time>2026-04-15T09:03:16.999Z</time></trkpt><trkpt lat="37.14806994404656" lon="14.803655208106315"><ele>525.0</ele><time>2026-04-15T09:06:26Z</time></trkpt><trkpt lat="37.148003852708456" lon="14.803705080331888"><ele>525.0</ele><time>2026-04-15T09:06:27Z</time></trkpt><trkpt lat="37.14794570465712" lon="14.80375172526257"><ele>525.0</ele><time>2026-04-15T09:06:28Z</time></trkpt><trkpt lat="37.147823876337505" lon="14.803837729113347"><ele>525.0</ele><time>2026-04-15T09:06:29Z</time></trkpt><trkpt lat="37.147740973556104" lon="14.803935690915932"><ele>525.0</ele><time>2026-04-15T09:06:30Z</time></trkpt><trkpt lat="37.14768153414238" lon="14.804028534193058"><ele>525.0</ele><time>2026-04-15T09:06:31Z</time></trkpt><trkpt lat="37.147628459389814" lon="14.804100672014993"><ele>525.0</ele><time>2026-04-15T09:06:32Z</time></trkpt><trkpt lat="37.147585366430185" lon="14.80416063597776"><ele>525.0</ele><time>2026-04-15T09:06:33Z</time></trkpt><trkpt lat="37.147537505970924" lon="14.804232687146825"><ele>525.0</ele><time>2026-04-15T09:06:35Z</time></trkpt><trkpt lat="37.147482385812765" lon="14.804342597064865"><ele>525.0</ele><time>2026-04-15T09:06:37Z</time></trkpt><trkpt lat="37.147426219280376" lon="14.804430270609021"><ele>528.6</ele><time>2026-04-15T09:06:38Z</time></trkpt><trkpt lat="37.147366186129325" lon="14.804525726654369"><ele>532.2</ele><time>2026-04-15T09:06:39Z</time></trkpt><trkpt lat="37.14730312916703" lon="14.804617218999566"><ele>535.8</ele><time>2026-04-15T09:06:40Z</time></trkpt><trkpt lat="37.14723905692345" lon="14.80470026866261"><ele>539.4</ele><time>2026-04-15T09:06:41Z</time></trkpt><trkpt lat="37.147181037093084" lon="14.804765941049766"><ele>543.0</ele><time>2026-04-15T09:06:42Z</time></trkpt><trkpt lat="37.14710993902925" lon="14.804858890597847"><ele>543.0</ele><time>2026-04-15T09:06:44Z</time></trkpt><trkpt lat="37.14704266161113" lon="14.80492152764365"><ele>543.0</ele><time>2026-04-15T09:06:46Z</time></trkpt><trkpt lat="37.14696932218835" lon="14.804985827276123"><ele>543.0</ele><time>2026-04-15T09:06:48Z</time></trkpt><trkpt lat="37.146901170061085" lon="14.805031196044565"><ele>543.0</ele><time>2026-04-15T09:06:49Z</time></trkpt><trkpt lat="37.14683124575552" lon="14.805070834366743"><ele>543.0</ele><time>2026-04-15T09:06:50Z</time></trkpt><trkpt lat="37.14675354510476" lon="14.805103237711679"><ele>543.0</ele><time>2026-04-15T09:06:50.999Z</time></trkpt><trkpt lat="37.14668853822107" lon="14.805124099317348"><ele>543.0</ele><time>2026-04-15T09:06:51.999Z</time></trkpt><trkpt lat="37.146572333133015" lon="14.805155184958336"><ele>543.0</ele><time>2026-04-15T09:06:53.999Z</time></trkpt><trkpt lat="37.14649388710885" lon="14.805172673038838"><ele>543.0</ele><time>2026-04-15T09:06:54.999Z</time></trkpt><trkpt lat="37.146420361026806" lon="14.805183458433136"><ele>543.0</ele><time>2026-04-15T09:06:55.999Z</time></trkpt><trkpt lat="37.14635317856835" lon="14.805199402136186"><ele>543.0</ele><time>2026-04-15T09:06:56.999Z</time></trkpt><trkpt lat="37.14628595226829" lon="14.805232339765174"><ele>543.0</ele><time>2026-04-15T09:06:57.999Z</time></trkpt><trkpt lat="37.14622014720564" lon="14.805268168828494"><ele>546.6666666666666</ele><time>2026-04-15T09:06:58.999Z</time></trkpt><trkpt lat="37.146160688859254" lon="14.805314311408987"><ele>550.3333333333334</ele><time>2026-04-15T09:06:59.999Z</time></trkpt><trkpt lat="37.14610970931203" lon="14.805374151731954"><ele>554.0</ele><time>2026-04-15T09:07:00.999Z</time></trkpt><trkpt lat="37.14606374168724" lon="14.80544412567356"><ele>557.6666666666667</ele><time>2026-04-15T09:07:01.999Z</time></trkpt><trkpt lat="37.14602484459171" lon="14.805518236658154"><ele>561.3333333333334</ele><time>2026-04-15T09:07:02.999Z</time></trkpt><trkpt lat="37.14598092180306" lon="14.805617581049106"><ele>565.0</ele><time>2026-04-15T09:07:03.999Z</time></trkpt><trkpt lat="37.14593391217645" lon="14.805721067579547"><ele>565.0</ele><time>2026-04-15T09:07:04.999Z</time></trkpt><trkpt lat="37.145879651318914" lon="14.805814448271077"><ele>565.0</ele><time>2026-04-15T09:07:05.999Z</time></trkpt><trkpt lat="37.14581463631743" lon="14.805921857248762"><ele>565.0</ele><time>2026-04-15T09:07:06.999Z</time></trkpt><trkpt lat="37.14574832441826" lon="14.80603762914164"><ele>565.0</ele><time>2026-04-15T09:07:07.999Z</time></trkpt><trkpt lat="37.14569277199796" lon="14.806168583458954"><ele>565.0</ele><time>2026-04-15T09:07:08.999Z</time></trkpt><trkpt lat="37.145637164342425" lon="14.80629108660591"><ele>565.0</ele><time>2026-04-15T09:07:09.999Z</time></trkpt><trkpt lat="37.14559401464823" lon="14.806410101042184"><ele>565.0</ele><time>2026-04-15T09:07:10.999Z</time></trkpt><trkpt lat="37.14555191720153" lon="14.80652080824193"><ele>565.0</ele><time>2026-04-15T09:07:11.999Z</time></trkpt><trkpt lat="37.14551414089466" lon="14.806636843870926"><ele>565.0</ele><time>2026-04-15T09:07:12.999Z</time></trkpt><trkpt lat="37.14548568680669" lon="14.806773529181363"><ele>565.0</ele><time>2026-04-15T09:07:13.999Z</time></trkpt><trkpt lat="37.145460540247946" lon="14.806938466211639"><ele>568.0</ele><time>2026-04-15T09:07:14.999Z</time></trkpt><trkpt lat="37.14543040756883" lon="14.807089260189688"><ele>571.0</ele><time>2026-04-15T09:07:15.999Z</time></trkpt><trkpt lat="37.1453989452621" lon="14.807232635024167"><ele>574.0</ele><time>2026-04-15T09:07:16.999Z</time></trkpt><trkpt lat="37.14536301677504" lon="14.807383000846208"><ele>577.0</ele><time>2026-04-15T09:07:17.999Z</time></trkpt><trkpt lat="37.14532303164558" lon="14.807529487500787"><ele>580.0</ele><time>2026-04-15T09:07:18.999Z</time></trkpt><trkpt lat="37.145274578744825" lon="14.80769488792249"><ele>583.0</ele><time>2026-04-15T09:07:19.999Z</time></trkpt><trkpt lat="37.14523431035311" lon="14.807851420450193"><ele>586.0</ele><time>2026-04-15T09:07:20.999Z</time></trkpt><trkpt lat="37.1451994134743" lon="14.807959793351877"><ele>589.0</ele><time>2026-04-15T09:07:21.999Z</time></trkpt><trkpt lat="37.145151676984376" lon="14.808018691669274"><ele>592.0</ele><time>2026-04-15T09:07:22.999Z</time></trkpt><trkpt lat="37.1450273798072" lon="14.808095232713075"><ele>592.0</ele><time>2026-04-15T09:07:24.999Z</time></trkpt><trkpt lat="37.14494158408368" lon="14.808154261990984"><ele>592.0</ele><time>2026-04-15T09:07:25.999Z</time></trkpt><trkpt lat="37.14483787372894" lon="14.808221218021956"><ele>592.0</ele><time>2026-04-15T09:07:26.999Z</time></trkpt><trkpt lat="37.14472508853606" lon="14.808284590791992"><ele>592.0</ele><time>2026-04-15T09:07:27.999Z</time></trkpt><trkpt lat="37.144605480957" lon="14.808337935308275"><ele>593.25</ele><time>2026-04-15T09:07:28.999Z</time></trkpt><trkpt lat="37.14449002645871" lon="14.808395789410323"><ele>594.5</ele><time>2026-04-15T09:07:29.999Z</time></trkpt><trkpt lat="37.1443809790764" lon="14.808469599994428"><ele>595.75</ele><time>2026-04-15T09:07:30.999Z</time></trkpt><trkpt lat="37.14427488270448" lon="14.808547293159826"><ele>597.0</ele><time>2026-04-15T09:07:31.999Z</time></trkpt><trkpt lat="37.14416541472733" lon="14.808642826526041"><ele>599.6</ele><time>2026-04-15T09:07:32.999Z</time></trkpt><trkpt lat="37.14406116994677" lon="14.808744933365348"><ele>602.2</ele><time>2026-04-15T09:07:33.999Z</time></trkpt><trkpt lat="37.14397385377907" lon="14.808841978992401"><ele>604.8</ele><time>2026-04-15T09:07:34.999Z</time></trkpt><trkpt lat="37.143906579021056" lon="14.808926745691997"><ele>607.4</ele><time>2026-04-15T09:07:35.999Z</time></trkpt><trkpt lat="37.143854771177054" lon="14.809024605428505"><ele>610.0</ele><time>2026-04-15T09:07:36.999Z</time></trkpt><trkpt lat="37.14381876458461" lon="14.809157743553147"><ele>610.0</ele><time>2026-04-15T09:07:37.999Z</time></trkpt><trkpt lat="37.14379119209632" lon="14.80931323372513"><ele>610.0</ele><time>2026-04-15T09:07:38.999Z</time></trkpt><trkpt lat="37.143769040339606" lon="14.80947031008965"><ele>610.0</ele><time>2026-04-15T09:07:39.999Z</time></trkpt><trkpt lat="37.143761406530174" lon="14.809640419262148"><ele>610.0</ele><time>2026-04-15T09:07:40.999Z</time></trkpt><trkpt lat="37.14375906162549" lon="14.809808651579754"><ele>611.5</ele><time>2026-04-15T09:07:41.999Z</time></trkpt><trkpt lat="37.14375345856981" lon="14.809965178402862"><ele>613.0</ele><time>2026-04-15T09:07:42.999Z</time></trkpt><trkpt lat="37.143740562616614" lon="14.81013430707682"><ele>614.5</ele><time>2026-04-15T09:07:43.999Z</time></trkpt><trkpt lat="37.14371623045115" lon="14.810295090820535"><ele>616.0</ele><time>2026-04-15T09:07:44.999Z</time></trkpt><trkpt lat="37.14367721158713" lon="14.810417896672917"><ele>618.75</ele><time>2026-04-15T09:07:45.999Z</time></trkpt><trkpt lat="37.14362581355461" lon="14.810541306813295"><ele>621.5</ele><time>2026-04-15T09:07:46.999Z</time></trkpt><trkpt lat="37.143559688735685" lon="14.810666017076418"><ele>624.25</ele><time>2026-04-15T09:07:47.999Z</time></trkpt><trkpt lat="37.14347844280817" lon="14.810790718415884"><ele>627.0</ele><time>2026-04-15T09:07:48.999Z</time></trkpt><trkpt lat="37.14337586614994" lon="14.810909356435591"><ele>629.6666666666666</ele><time>2026-04-15T09:07:49.999Z</time></trkpt><trkpt lat="37.143250146068866" lon="14.811036516946075"><ele>632.3333333333333</ele><time>2026-04-15T09:07:50.999Z</time></trkpt><trkpt lat="37.14311538828847" lon="14.811151291520884"><ele>635.0</ele><time>2026-04-15T09:07:51.999Z</time></trkpt><trkpt lat="37.14298075386709" lon="14.811257107819944"><ele>635.0</ele><time>2026-04-15T09:07:52.999Z</time></trkpt><trkpt lat="37.14285963750141" lon="14.811347762109367"><ele>635.0</ele><time>2026-04-15T09:07:53.999Z</time></trkpt><trkpt lat="37.14276750989876" lon="14.81144554746806"><ele>635.0</ele><time>2026-04-15T09:07:54.999Z</time></trkpt><trkpt lat="37.14270071438406" lon="14.811574023745887"><ele>635.0</ele><time>2026-04-15T09:07:55.999Z</time></trkpt><trkpt lat="37.142643341999914" lon="14.811723594909562"><ele>634.5</ele><time>2026-04-15T09:07:56.999Z</time></trkpt><trkpt lat="37.14257999931285" lon="14.811864893782094"><ele>634.0</ele><time>2026-04-15T09:07:57.999Z</time></trkpt><trkpt lat="37.14250609001789" lon="14.811977632250013"><ele>633.5</ele><time>2026-04-15T09:07:58.999Z</time></trkpt><trkpt lat="37.142431307589376" lon="14.812083221370635"><ele>633.0</ele><time>2026-04-15T09:07:59.999Z</time></trkpt><trkpt lat="37.142375736543315" lon="14.81220937176315"><ele>633.0</ele><time>2026-04-15T09:08:00.999Z</time></trkpt><trkpt lat="37.14235363093249" lon="14.812354874344942"><ele>633.0</ele><time>2026-04-15T09:08:01.998Z</time></trkpt><trkpt lat="37.142362000201075" lon="14.812506831354312"><ele>633.0</ele><time>2026-04-15T09:08:02.998Z</time></trkpt><trkpt lat="37.14238288928349" lon="14.812649616691791"><ele>633.0</ele><time>2026-04-15T09:08:03.998Z</time></trkpt><trkpt lat="37.14237847251981" lon="14.812796524380541"><ele>635.25</ele><time>2026-04-15T09:08:05Z</time></trkpt><trkpt lat="37.14234178680145" lon="14.812918586396755"><ele>637.5</ele><time>2026-04-15T09:08:06Z</time></trkpt><trkpt lat="37.14230111581013" lon="14.813066266990832"><ele>639.75</ele><time>2026-04-15T09:08:07Z</time></trkpt><trkpt lat="37.14226253338813" lon="14.813235465474445"><ele>642.0</ele><time>2026-04-15T09:08:08Z</time></trkpt><trkpt lat="37.142219422743516" lon="14.813429321955145"><ele>647.0</ele><time>2026-04-15T09:08:09Z</time></trkpt><trkpt lat="37.14217634963817" lon="14.81363434719384"><ele>652.0</ele><time>2026-04-15T09:08:10Z</time></trkpt><trkpt lat="37.142133874558915" lon="14.81385550266089"><ele>657.0</ele><time>2026-04-15T09:08:11Z</time></trkpt><trkpt lat="37.14208955081686" lon="14.814080374198062"><ele>657.0</ele><time>2026-04-15T09:08:12Z</time></trkpt><trkpt lat="37.14204436966134" lon="14.814308755793622"><ele>657.0</ele><time>2026-04-15T09:08:13Z</time></trkpt><trkpt lat="37.142001886582065" lon="14.814520004213747"><ele>657.0</ele><time>2026-04-15T09:08:14Z</time></trkpt><trkpt lat="37.141954274424286" lon="14.814702800959639"><ele>663.6666666666666</ele><time>2026-04-15T09:08:15Z</time></trkpt><trkpt lat="37.14189659018598" lon="14.814883504562513"><ele>670.3333333333333</ele><time>2026-04-15T09:08:16Z</time></trkpt><trkpt lat="37.141845040129965" lon="14.815067161276156"><ele>677.0</ele><time>2026-04-15T09:08:17Z</time></trkpt><trkpt lat="37.141800518343906" lon="14.815267979149782"><ele>683.6666666666666</ele><time>2026-04-15T09:08:18Z</time></trkpt><trkpt lat="37.14175740982678" lon="14.815459665791563"><ele>690.3333333333334</ele><time>2026-04-15T09:08:19Z</time></trkpt><trkpt lat="37.14170630272543" lon="14.815639931724014"><ele>697.0</ele><time>2026-04-15T09:08:20Z</time></trkpt><trkpt lat="37.141636665665004" lon="14.815801158749492"><ele>697.0</ele><time>2026-04-15T09:08:21Z</time></trkpt><trkpt lat="37.14155955953007" lon="14.815967808816195"><ele>697.0</ele><time>2026-04-15T09:08:22Z</time></trkpt><trkpt lat="37.14148147123678" lon="14.816151668619355"><ele>697.0</ele><time>2026-04-15T09:08:23Z</time></trkpt><trkpt lat="37.14139546276797" lon="14.816348081174874"><ele>696.0</ele><time>2026-04-15T09:08:24Z</time></trkpt><trkpt lat="37.14131395255264" lon="14.8165311028897"><ele>695.0</ele><time>2026-04-15T09:08:25Z</time></trkpt><trkpt lat="37.1412324833296" lon="14.816708144357351"><ele>694.0</ele><time>2026-04-15T09:08:26Z</time></trkpt><trkpt lat="37.14115292026727" lon="14.816886527374905"><ele>698.5</ele><time>2026-04-15T09:08:27Z</time></trkpt><trkpt lat="37.14107888329657" lon="14.81705588106979"><ele>703.0</ele><time>2026-04-15T09:08:28Z</time></trkpt><trkpt lat="37.14101321079388" lon="14.81720802001173"><ele>707.5</ele><time>2026-04-15T09:08:29Z</time></trkpt><trkpt lat="37.1409579876261" lon="14.817358122644745"><ele>712.0</ele><time>2026-04-15T09:08:30Z</time></trkpt><trkpt lat="37.14090453460929" lon="14.817524766601926"><ele>708.25</ele><time>2026-04-15T09:08:31Z</time></trkpt><trkpt lat="37.140847504651276" lon="14.817691884210383"><ele>704.5</ele><time>2026-04-15T09:08:32Z</time></trkpt><trkpt lat="37.14077974617716" lon="14.81785641197073"><ele>700.75</ele><time>2026-04-15T09:08:33Z</time></trkpt><trkpt lat="37.14070166680439" lon="14.818010160128935"><ele>697.0</ele><time>2026-04-15T09:08:34Z</time></trkpt><trkpt lat="37.14062156385113" lon="14.818146733542845"><ele>697.0</ele><time>2026-04-15T09:08:35Z</time></trkpt><trkpt lat="37.140554577878916" lon="14.818276867165046"><ele>697.0</ele><time>2026-04-15T09:08:36Z</time></trkpt><trkpt lat="37.14052094990586" lon="14.818407774468168"><ele>697.0</ele><time>2026-04-15T09:08:37Z</time></trkpt><trkpt lat="37.14052558795883" lon="14.818554545135685"><ele>697.0</ele><time>2026-04-15T09:08:38Z</time></trkpt><trkpt lat="37.14055201998307" lon="14.818699220334226"><ele>698.75</ele><time>2026-04-15T09:08:39Z</time></trkpt><trkpt lat="37.140576859505416" lon="14.818829381197995"><ele>700.5</ele><time>2026-04-15T09:08:40Z</time></trkpt><trkpt lat="37.140592336462966" lon="14.818979013953637"><ele>702.25</ele><time>2026-04-15T09:08:41Z</time></trkpt><trkpt lat="37.14059975723026" lon="14.81912854349653"><ele>704.0</ele><time>2026-04-15T09:08:42Z</time></trkpt><trkpt lat="37.14059532069052" lon="14.81927986243395"><ele>705.5</ele><time>2026-04-15T09:08:43Z</time></trkpt><trkpt lat="37.1405878196256" lon="14.819424126431498"><ele>707.0</ele><time>2026-04-15T09:08:44Z</time></trkpt><trkpt lat="37.14058215503103" lon="14.81957271092096"><ele>708.5</ele><time>2026-04-15T09:08:45Z</time></trkpt><trkpt lat="37.140578229380246" lon="14.819721453918849"><ele>710.0</ele><time>2026-04-15T09:08:46Z</time></trkpt><trkpt lat="37.140575483733926" lon="14.819867585724992"><ele>710.0</ele><time>2026-04-15T09:08:47Z</time></trkpt><trkpt lat="37.14057163955205" lon="14.820016156177665"><ele>710.0</ele><time>2026-04-15T09:08:48Z</time></trkpt><trkpt lat="37.14056298667544" lon="14.820163942411305"><ele>710.0</ele><time>2026-04-15T09:08:49Z</time></trkpt><trkpt lat="37.14054745773931" lon="14.820313326768606"><ele>710.0</ele><time>2026-04-15T09:08:50Z</time></trkpt><trkpt lat="37.140524628838506" lon="14.820461705287403"><ele>712.0</ele><time>2026-04-15T09:08:51Z</time></trkpt><trkpt lat="37.14049828089436" lon="14.820605232251731"><ele>714.0</ele><time>2026-04-15T09:08:51.999Z</time></trkpt><trkpt lat="37.140466191646986" lon="14.820746606979656"><ele>716.0</ele><time>2026-04-15T09:08:52.999Z</time></trkpt><trkpt lat="37.14042783418044" lon="14.820877794939191"><ele>718.0</ele><time>2026-04-15T09:08:53.999Z</time></trkpt><trkpt lat="37.14039052346002" lon="14.821000186599468"><ele>720.2</ele><time>2026-04-15T09:08:54.999Z</time></trkpt><trkpt lat="37.14034513426334" lon="14.821119044590189"><ele>722.4</ele><time>2026-04-15T09:08:55.999Z</time></trkpt><trkpt lat="37.140296657024706" lon="14.821232147549928"><ele>724.6</ele><time>2026-04-15T09:08:56.999Z</time></trkpt><trkpt lat="37.14024795164346" lon="14.821346011187806"><ele>726.8000000000001</ele><time>2026-04-15T09:08:57.999Z</time></trkpt><trkpt lat="37.14020309577911" lon="14.821460652224518"><ele>729.0</ele><time>2026-04-15T09:08:58.999Z</time></trkpt><trkpt lat="37.140162100696884" lon="14.821569815182736"><ele>729.0</ele><time>2026-04-15T09:08:59.999Z</time></trkpt><trkpt lat="37.140128827907205" lon="14.82166380546878"><ele>729.0</ele><time>2026-04-15T09:09:00.999Z</time></trkpt><trkpt lat="37.14010765355671" lon="14.821743962782362"><ele>729.0</ele><time>2026-04-15T09:09:01.999Z</time></trkpt><trkpt lat="37.14009269884881" lon="14.821823767938033"><ele>729.0</ele><time>2026-04-15T09:09:02.999Z</time></trkpt><trkpt lat="37.14007774305094" lon="14.821907593471886"><ele>729.0</ele><time>2026-04-15T09:09:03.999Z</time></trkpt><trkpt lat="37.14005706873032" lon="14.821984699756456"><ele>729.0</ele><time>2026-04-15T09:09:04.999Z</time></trkpt><trkpt lat="37.1400271088879" lon="14.822059170283373"><ele>729.0</ele><time>2026-04-15T09:09:05.999Z</time></trkpt><trkpt lat="37.13998909193223" lon="14.822139633036533"><ele>730.4000000000001</ele><time>2026-04-15T09:09:06.999Z</time></trkpt><trkpt lat="37.139947385940815" lon="14.822219961787578"><ele>731.8</ele><time>2026-04-15T09:09:07.999Z</time></trkpt><trkpt lat="37.13991062782968" lon="14.82228423935105"><ele>733.2</ele><time>2026-04-15T09:09:08.999Z</time></trkpt><trkpt lat="37.13987743991977" lon="14.822405682785181"><ele>734.5999999999999</ele><time>2026-04-15T09:09:10.999Z</time></trkpt><trkpt lat="37.139883757770846" lon="14.822523548978902"><ele>736.0</ele><time>2026-04-15T09:09:12.999Z</time></trkpt><trkpt lat="37.13995269270259" lon="14.822643968564842"><ele>736.6666666666667</ele><time>2026-04-15T09:09:14.999Z</time></trkpt><trkpt lat="37.14000936969054" lon="14.822714260537284"><ele>737.3333333333334</ele><time>2026-04-15T09:09:15.999Z</time></trkpt><trkpt lat="37.14007151862707" lon="14.822785619427293"><ele>738.0</ele><time>2026-04-15T09:09:16.999Z</time></trkpt><trkpt lat="37.14013194604332" lon="14.822854003806631"><ele>738.6666666666666</ele><time>2026-04-15T09:09:17.999Z</time></trkpt><trkpt lat="37.140202707950934" lon="14.822932568660564"><ele>739.3333333333333</ele><time>2026-04-15T09:09:18.999Z</time></trkpt><trkpt lat="37.14027315781018" lon="14.82301196511778"><ele>740.0</ele><time>2026-04-15T09:09:19.999Z</time></trkpt><trkpt lat="37.14035259741338" lon="14.823099770496235"><ele>740.0</ele><time>2026-04-15T09:09:20.999Z</time></trkpt><trkpt lat="37.14043504694836" lon="14.823189839547345"><ele>740.0</ele><time>2026-04-15T09:09:21.999Z</time></trkpt><trkpt lat="37.14052061620233" lon="14.823284675820267"><ele>740.0</ele><time>2026-04-15T09:09:22.999Z</time></trkpt><trkpt lat="37.14060524100717" lon="14.823384204332974"><ele>740.0</ele><time>2026-04-15T09:09:23.999Z</time></trkpt><trkpt lat="37.14068781872481" lon="14.823470815679611"><ele>740.0</ele><time>2026-04-15T09:09:24.999Z</time></trkpt><trkpt lat="37.14076162780733" lon="14.823548866757218"><ele>739.8</ele><time>2026-04-15T09:09:25.999Z</time></trkpt><trkpt lat="37.14083426578565" lon="14.823620360897936"><ele>739.6</ele><time>2026-04-15T09:09:26.999Z</time></trkpt><trkpt lat="37.1409032921709" lon="14.823686416005247"><ele>739.4000000000001</ele><time>2026-04-15T09:09:27.999Z</time></trkpt><trkpt lat="37.14097536321368" lon="14.82375690095016"><ele>739.2</ele><time>2026-04-15T09:09:28.999Z</time></trkpt><trkpt lat="37.141055840834845" lon="14.823830335276275"><ele>739.0</ele><time>2026-04-15T09:09:29.999Z</time></trkpt><trkpt lat="37.14114014577542" lon="14.823900460214455"><ele>739.0</ele><time>2026-04-15T09:09:30.999Z</time></trkpt><trkpt lat="37.14122760525846" lon="14.823969449006228"><ele>739.0</ele><time>2026-04-15T09:09:31.999Z</time></trkpt><trkpt lat="37.14131284887633" lon="14.82403996705571"><ele>739.0</ele><time>2026-04-15T09:09:32.999Z</time></trkpt><trkpt lat="37.14139321696713" lon="14.824109231953564"><ele>739.0</ele><time>2026-04-15T09:09:33.999Z</time></trkpt><trkpt lat="37.1414665521397" lon="14.824177702558233"><ele>739.0</ele><time>2026-04-15T09:09:34.999Z</time></trkpt><trkpt lat="37.141532435900906" lon="14.824250793780127"><ele>739.0</ele><time>2026-04-15T09:09:35.999Z</time></trkpt><trkpt lat="37.14159259575635" lon="14.824322431551638"><ele>739.0</ele><time>2026-04-15T09:09:36.999Z</time></trkpt><trkpt lat="37.14165061529491" lon="14.824395146488406"><ele>739.0</ele><time>2026-04-15T09:09:37.999Z</time></trkpt><trkpt lat="37.14170809825626" lon="14.824457232505408"><ele>739.0</ele><time>2026-04-15T09:09:38.999Z</time></trkpt><trkpt lat="37.14176711881988" lon="14.82450907516537"><ele>739.0</ele><time>2026-04-15T09:09:39.999Z</time></trkpt><trkpt lat="37.14182556725899" lon="14.824553620440504"><ele>739.0</ele><time>2026-04-15T09:09:40.999Z</time></trkpt><trkpt lat="37.141888443358795" lon="14.82458496779966"><ele>739.0</ele><time>2026-04-15T09:09:41.999Z</time></trkpt><trkpt lat="37.1419984749501" lon="14.824670500745084"><ele>739.0</ele><time>2026-04-15T09:09:43.999Z</time></trkpt><trkpt lat="37.142100268043855" lon="14.824763784760334"><ele>739.0</ele><time>2026-04-15T09:09:45.999Z</time></trkpt><trkpt lat="37.14215821676982" lon="14.824822724557778"><ele>739.0</ele><time>2026-04-15T09:09:46.999Z</time></trkpt><trkpt lat="37.14221699970279" lon="14.82489018686278"><ele>739.0</ele><time>2026-04-15T09:09:47.999Z</time></trkpt><trkpt lat="37.14227505205079" lon="14.824961130020492"><ele>739.0</ele><time>2026-04-15T09:09:48.999Z</time></trkpt><trkpt lat="37.14233815289476" lon="14.825023327735403"><ele>739.0</ele><time>2026-04-15T09:09:49.999Z</time></trkpt><trkpt lat="37.14239508810164" lon="14.825072832343675"><ele>739.3333333333334</ele><time>2026-04-15T09:09:50.999Z</time></trkpt><trkpt lat="37.14245208732467" lon="14.825115163807427"><ele>739.6666666666667</ele><time>2026-04-15T09:09:51.999Z</time></trkpt><trkpt lat="37.14255271357113" lon="14.825184837152127"><ele>740.0</ele><time>2026-04-15T09:09:53.999Z</time></trkpt><trkpt lat="37.14263996416847" lon="14.825249932882535"><ele>740.3333333333334</ele><time>2026-04-15T09:09:55.999Z</time></trkpt><trkpt lat="37.14271445681121" lon="14.825305838278185"><ele>740.6666666666666</ele><time>2026-04-15T09:09:57.999Z</time></trkpt><trkpt lat="37.14277860660135" lon="14.825345376218038"><ele>741.0</ele><time>2026-04-15T09:11:30.999Z</time></trkpt><trkpt lat="37.142868408563395" lon="14.825367559318"><ele>741.0</ele><time>2026-04-15T09:12:57Z</time></trkpt><trkpt lat="37.142944348945306" lon="14.825415983855484"><ele>741.0</ele><time>2026-04-15T09:12:59Z</time></trkpt><trkpt lat="37.143035459512255" lon="14.825480410565923"><ele>741.0</ele><time>2026-04-15T09:13:01Z</time></trkpt><trkpt lat="37.143132259929565" lon="14.825569031935837"><ele>741.0</ele><time>2026-04-15T09:13:03Z</time></trkpt><trkpt lat="37.14321129724131" lon="14.825679083723726"><ele>741.0</ele><time>2026-04-15T09:13:05Z</time></trkpt><trkpt lat="37.143254774201495" lon="14.825738050964096"><ele>740.1428571428571</ele><time>2026-04-15T09:13:06Z</time></trkpt><trkpt lat="37.14330123676211" lon="14.825804778265448"><ele>739.2857142857143</ele><time>2026-04-15T09:13:07Z</time></trkpt><trkpt lat="37.143343791427824" lon="14.825879419412423"><ele>738.4285714285714</ele><time>2026-04-15T09:13:08Z</time></trkpt><trkpt lat="37.1433870742737" lon="14.825954864692722"><ele>737.5714285714286</ele><time>2026-04-15T09:13:09Z</time></trkpt><trkpt lat="37.143427667154754" lon="14.826030748590915"><ele>736.7142857142858</ele><time>2026-04-15T09:13:10Z</time></trkpt><trkpt lat="37.14347366954939" lon="14.82611265533166"><ele>735.8571428571429</ele><time>2026-04-15T09:13:11Z</time></trkpt><trkpt lat="37.14351195759435" lon="14.82619162868714"><ele>735.0</ele><time>2026-04-15T09:13:12Z</time></trkpt><trkpt lat="37.14355113967387" lon="14.82626067139946"><ele>735.0</ele><time>2026-04-15T09:13:13Z</time></trkpt><trkpt lat="37.14359491481152" lon="14.826337992950064"><ele>735.0</ele><time>2026-04-15T09:13:13.999Z</time></trkpt><trkpt lat="37.14363638928371" lon="14.826416257289777"><ele>735.0</ele><time>2026-04-15T09:13:14.999Z</time></trkpt><trkpt lat="37.143681620018526" lon="14.82650185697241"><ele>735.0</ele><time>2026-04-15T09:13:15.999Z</time></trkpt><trkpt lat="37.14372784918456" lon="14.82658556048589"><ele>735.0</ele><time>2026-04-15T09:13:16.999Z</time></trkpt><trkpt lat="37.143772591052034" lon="14.82666663457799"><ele>735.0</ele><time>2026-04-15T09:13:17.999Z</time></trkpt><trkpt lat="37.14382299909372" lon="14.82673271129604"><ele>735.0</ele><time>2026-04-15T09:13:18.999Z</time></trkpt><trkpt lat="37.14388576237308" lon="14.826792803643416"><ele>735.0</ele><time>2026-04-15T09:13:19.999Z</time></trkpt><trkpt lat="37.143948650554414" lon="14.826852408751492"><ele>735.0</ele><time>2026-04-15T09:13:20.999Z</time></trkpt><trkpt lat="37.14401388114513" lon="14.826913094204663"><ele>735.0</ele><time>2026-04-15T09:13:21.999Z</time></trkpt><trkpt lat="37.14407384081901" lon="14.826971579026349"><ele>735.0</ele><time>2026-04-15T09:13:22.999Z</time></trkpt><trkpt lat="37.14414738801502" lon="14.827037797472572"><ele>735.0</ele><time>2026-04-15T09:13:23.999Z</time></trkpt><trkpt lat="37.14422621001103" lon="14.827097761332055"><ele>733.8333333333334</ele><time>2026-04-15T09:13:24.999Z</time></trkpt><trkpt lat="37.14429902072766" lon="14.827147310313903"><ele>732.6666666666666</ele><time>2026-04-15T09:13:25.999Z</time></trkpt><trkpt lat="37.14437534564847" lon="14.827203635127823"><ele>731.5</ele><time>2026-04-15T09:13:26.999Z</time></trkpt><trkpt lat="37.144449611328845" lon="14.827265952811237"><ele>730.3333333333333</ele><time>2026-04-15T09:13:27.999Z</time></trkpt><trkpt lat="37.14451881913317" lon="14.827338052205093"><ele>729.1666666666666</ele><time>2026-04-15T09:13:28.999Z</time></trkpt><trkpt lat="37.14459439968297" lon="14.827411147617523"><ele>728.0</ele><time>2026-04-15T09:13:29.999Z</time></trkpt><trkpt lat="37.144675065657985" lon="14.827485543478549"><ele>728.0</ele><time>2026-04-15T09:13:30.999Z</time></trkpt><trkpt lat="37.14475546190753" lon="14.827556590288925"><ele>728.0</ele><time>2026-04-15T09:13:31.999Z</time></trkpt><trkpt lat="37.14483648754953" lon="14.827623134915958"><ele>728.0</ele><time>2026-04-15T09:13:32.999Z</time></trkpt><trkpt lat="37.14491830615186" lon="14.82769319661039"><ele>728.0</ele><time>2026-04-15T09:13:33.999Z</time></trkpt><trkpt lat="37.14500277822498" lon="14.82777717145578"><ele>728.0</ele><time>2026-04-15T09:13:34.999Z</time></trkpt><trkpt lat="37.14508680338766" lon="14.82784557219741"><ele>727.8</ele><time>2026-04-15T09:13:35.999Z</time></trkpt><trkpt lat="37.14517005967777" lon="14.827911009619594"><ele>727.5999999999999</ele><time>2026-04-15T09:13:36.999Z</time></trkpt><trkpt lat="37.14525252370645" lon="14.827973591688291"><ele>727.4000000000001</ele><time>2026-04-15T09:13:37.999Z</time></trkpt><trkpt lat="37.14533623718134" lon="14.828046306632668"><ele>727.2</ele><time>2026-04-15T09:13:38.999Z</time></trkpt><trkpt lat="37.14541974977142" lon="14.828116298091743"><ele>727.0</ele><time>2026-04-15T09:13:39.999Z</time></trkpt><trkpt lat="37.14551032099219" lon="14.828188813009128"><ele>727.0</ele><time>2026-04-15T09:13:40.999Z</time></trkpt><trkpt lat="37.145601441897114" lon="14.828249169132818"><ele>727.0</ele><time>2026-04-15T09:13:41.999Z</time></trkpt><trkpt lat="37.14569343218663" lon="14.82829117607853"><ele>727.0</ele><time>2026-04-15T09:13:42.999Z</time></trkpt><trkpt lat="37.145795017557184" lon="14.828349520640337"><ele>727.0</ele><time>2026-04-15T09:13:43.999Z</time></trkpt><trkpt lat="37.145889724432486" lon="14.828407458639141"><ele>727.0</ele><time>2026-04-15T09:13:44.999Z</time></trkpt><trkpt lat="37.14598780219947" lon="14.828463770961054"><ele>727.5</ele><time>2026-04-15T09:13:45.999Z</time></trkpt><trkpt lat="37.14609152057309" lon="14.828518799232615"><ele>728.0</ele><time>2026-04-15T09:13:46.999Z</time></trkpt><trkpt lat="37.146199048021806" lon="14.828578881253101"><ele>728.5</ele><time>2026-04-15T09:13:47.999Z</time></trkpt><trkpt lat="37.14630516238118" lon="14.828638040225758"><ele>729.0</ele><time>2026-04-15T09:13:48.999Z</time></trkpt><trkpt lat="37.14640924690694" lon="14.828704028434254"><ele>729.0</ele><time>2026-04-15T09:13:49.999Z</time></trkpt><trkpt lat="37.146513513022676" lon="14.828768121109045"><ele>729.0</ele><time>2026-04-15T09:13:50.999Z</time></trkpt><trkpt lat="37.146614590668484" lon="14.82882254803787"><ele>729.0</ele><time>2026-04-15T09:13:51.999Z</time></trkpt><trkpt lat="37.14671438362104" lon="14.828875886912979"><ele>729.0</ele><time>2026-04-15T09:13:52.999Z</time></trkpt><trkpt lat="37.146814698578886" lon="14.828927416245104"><ele>729.0</ele><time>2026-04-15T09:13:53.999Z</time></trkpt><trkpt lat="37.146916373803684" lon="14.82898443051712"><ele>727.6666666666666</ele><time>2026-04-15T09:13:54.999Z</time></trkpt><trkpt lat="37.1470150821388" lon="14.829035969892525"><ele>726.3333333333334</ele><time>2026-04-15T09:13:55.999Z</time></trkpt><trkpt lat="37.147108684702204" lon="14.82908552233077"><ele>725.0</ele><time>2026-04-15T09:13:56.999Z</time></trkpt><trkpt lat="37.14718707016138" lon="14.82911191675662"><ele>723.6666666666667</ele><time>2026-04-15T09:13:57.999Z</time></trkpt><trkpt lat="37.14725976580955" lon="14.8291415674603"><ele>722.3333333333334</ele><time>2026-04-15T09:13:58.999Z</time></trkpt><trkpt lat="37.14732324355575" lon="14.82915625184869"><ele>721.0</ele><time>2026-04-15T09:13:59.999Z</time></trkpt><trkpt lat="37.1473915746914" lon="14.829180118179083"><ele>720.1666666666667</ele><time>2026-04-15T09:14:00.999Z</time></trkpt><trkpt lat="37.14746153513995" lon="14.829207475693293"><ele>719.3333333333334</ele><time>2026-04-15T09:14:01.999Z</time></trkpt><trkpt lat="37.147524413102914" lon="14.829243458830907"><ele>718.5</ele><time>2026-04-15T09:14:02.999Z</time></trkpt><trkpt lat="37.14758299152163" lon="14.829278202693459"><ele>717.6666666666666</ele><time>2026-04-15T09:14:03.999Z</time></trkpt><trkpt lat="37.14768917202595" lon="14.829331896032443"><ele>716.8333333333333</ele><time>2026-04-15T09:14:05.999Z</time></trkpt><trkpt lat="37.14776884985286" lon="14.82936095903511"><ele>716.0</ele><time>2026-04-15T09:14:07.999Z</time></trkpt><trkpt lat="37.14784223696439" lon="14.829391611807665"><ele>717.0</ele><time>2026-04-15T09:14:10.999Z</time></trkpt><trkpt lat="37.14791454003939" lon="14.829424656544349"><ele>718.0</ele><time>2026-04-15T09:14:12.999Z</time></trkpt><trkpt lat="37.14800849316785" lon="14.829461338700693"><ele>719.0</ele><time>2026-04-15T09:14:14.999Z</time></trkpt><trkpt lat="37.14807705611419" lon="14.82948882299058"><ele>720.0</ele><time>2026-04-15T09:15:20.999Z</time></trkpt><trkpt lat="37.148146455386765" lon="14.829493459227752"><ele>721.0</ele><time>2026-04-15T09:17:44.999Z</time></trkpt><trkpt lat="37.14821887551048" lon="14.829531717937101"><ele>722.0</ele><time>2026-04-15T09:17:46.999Z</time></trkpt><trkpt lat="37.14831572909704" lon="14.829580000418698"><ele>722.0</ele><time>2026-04-15T09:17:48.999Z</time></trkpt><trkpt lat="37.148383416664025" lon="14.829603645179427"><ele>722.0</ele><time>2026-04-15T09:17:49.999Z</time></trkpt><trkpt lat="37.148463569304916" lon="14.829637835125753"><ele>722.0</ele><time>2026-04-15T09:17:50.999Z</time></trkpt><trkpt lat="37.14854560409859" lon="14.829673483651227"><ele>722.0</ele><time>2026-04-15T09:17:51.999Z</time></trkpt><trkpt lat="37.14862256329088" lon="14.829708094767076"><ele>722.0</ele><time>2026-04-15T09:17:52.999Z</time></trkpt><trkpt lat="37.148697184519456" lon="14.829740186144475"><ele>722.0</ele><time>2026-04-15T09:17:53.999Z</time></trkpt><trkpt lat="37.14877970655605" lon="14.82977300331928"><ele>722.0</ele><time>2026-04-15T09:17:54.999Z</time></trkpt><trkpt lat="37.14885965588074" lon="14.82981223854761"><ele>722.0</ele><time>2026-04-15T09:17:55.999Z</time></trkpt><trkpt lat="37.14892175779113" lon="14.829842093295975"><ele>722.0</ele><time>2026-04-15T09:17:56.999Z</time></trkpt><trkpt lat="37.148994306377176" lon="14.829876137465424"><ele>722.0</ele><time>2026-04-15T09:17:58.999Z</time></trkpt><trkpt lat="37.14905895957345" lon="14.829899422201754"><ele>722.0</ele><time>2026-04-15T09:18:24.999Z</time></trkpt><trkpt lat="37.1491288948868" lon="14.829927991773795"><ele>722.0</ele><time>2026-04-15T09:18:30.998Z</time></trkpt><trkpt lat="37.149193581039356" lon="14.829957037162085"><ele>722.0</ele><time>2026-04-15T09:18:36Z</time></trkpt><trkpt lat="37.14926012650181" lon="14.829992306130418"><ele>721.5714285714286</ele><time>2026-04-15T09:18:41Z</time></trkpt><trkpt lat="37.149331993272384" lon="14.830011122231241"><ele>721.1428571428571</ele><time>2026-04-15T09:18:46Z</time></trkpt><trkpt lat="37.14939959188255" lon="14.830007573706226"><ele>720.7142857142857</ele><time>2026-04-15T09:18:51Z</time></trkpt><trkpt lat="37.149469742349744" lon="14.829994676648436"><ele>720.2857142857142</ele><time>2026-04-15T09:18:56Z</time></trkpt><trkpt lat="37.14954748968765" lon="14.830006030782094"><ele>719.8571428571429</ele><time>2026-04-15T09:19:02Z</time></trkpt><trkpt lat="37.14961870741336" lon="14.830007890273512"><ele>719.4285714285713</ele><time>2026-04-15T09:19:07Z</time></trkpt><trkpt lat="37.149690801802855" lon="14.82998317064996"><ele>719.0</ele><time>2026-04-15T09:19:12Z</time></trkpt><trkpt lat="37.14975652825709" lon="14.829956889715419"><ele>718.9999999999999</ele><time>2026-04-15T09:19:16.999Z</time></trkpt><trkpt lat="37.149826968449965" lon="14.829926883956375"><ele>719.0</ele><time>2026-04-15T09:19:21.999Z</time></trkpt><trkpt lat="37.14989557731596" lon="14.829895490145017"><ele>719.0</ele><time>2026-04-15T09:19:26.999Z</time></trkpt><trkpt lat="37.14997099382614" lon="14.829871962210055"><ele>719.0</ele><time>2026-04-15T09:19:31.999Z</time></trkpt><trkpt lat="37.15004248485028" lon="14.829851987606734"><ele>719.0</ele><time>2026-04-15T09:19:37.999Z</time></trkpt><trkpt lat="37.150108590961395" lon="14.829826004102253"><ele>718.9999999999999</ele><time>2026-04-15T09:19:42.999Z</time></trkpt><trkpt lat="37.150174435533366" lon="14.82980925560034"><ele>719.0</ele><time>2026-04-15T09:19:47.999Z</time></trkpt><trkpt lat="37.150246945441324" lon="14.829798245456718"><ele>719.4285714285713</ele><time>2026-04-15T09:19:52.999Z</time></trkpt><trkpt lat="37.15031284917869" lon="14.829791439318814"><ele>719.8571428571429</ele><time>2026-04-15T09:19:56.999Z</time></trkpt><trkpt lat="37.150376595006996" lon="14.829778489551291"><ele>720.2857142857142</ele><time>2026-04-15T09:20:01.999Z</time></trkpt><trkpt lat="37.15045540761729" lon="14.829772237151364"><ele>720.7142857142857</ele><time>2026-04-15T09:20:06.999Z</time></trkpt><trkpt lat="37.150520629861006" lon="14.829786380022593"><ele>721.1428571428571</ele><time>2026-04-15T09:20:11.999Z</time></trkpt><trkpt lat="37.15058276352212" lon="14.829814098378687"><ele>721.5714285714286</ele><time>2026-04-15T09:20:16.999Z</time></trkpt><trkpt lat="37.150641028267486" lon="14.829846315555335"><ele>722.0</ele><time>2026-04-15T09:20:20.999Z</time></trkpt><trkpt lat="37.15070747300085" lon="14.829829741902582"><ele>722.1428571428572</ele><time>2026-04-15T09:20:25.999Z</time></trkpt><trkpt lat="37.15077043665626" lon="14.829792446053938"><ele>722.2857142857142</ele><time>2026-04-15T09:20:30.998Z</time></trkpt><trkpt lat="37.150832159252175" lon="14.829766494992436"><ele>722.4285714285714</ele><time>2026-04-15T09:20:35.998Z</time></trkpt><trkpt lat="37.15090875769363" lon="14.829755322024324"><ele>722.5714285714287</ele><time>2026-04-15T09:27:01Z</time></trkpt><trkpt lat="37.15097702283882" lon="14.829723859418452"><ele>722.7142857142858</ele><time>2026-04-15T09:27:38Z</time></trkpt><trkpt lat="37.15103880499677" lon="14.829696061243276"><ele>722.8571428571429</ele><time>2026-04-15T09:27:39Z</time></trkpt><trkpt lat="37.15109780152972" lon="14.829655540039372"><ele>723.0</ele><time>2026-04-15T09:27:39.999Z</time></trkpt><trkpt lat="37.151179364105786" lon="14.829605379247171"><ele>723.0</ele><time>2026-04-15T09:27:40.999Z</time></trkpt><trkpt lat="37.15126386916624" lon="14.829542977203406"><ele>723.0</ele><time>2026-04-15T09:27:41.999Z</time></trkpt><trkpt lat="37.15133818652132" lon="14.82947487969282"><ele>723.0</ele><time>2026-04-15T09:27:42.999Z</time></trkpt><trkpt lat="37.15140657134593" lon="14.829410161610978"><ele>723.0</ele><time>2026-04-15T09:27:43.999Z</time></trkpt><trkpt lat="37.15147869120989" lon="14.829362645884595"><ele>723.0</ele><time>2026-04-15T09:27:44.999Z</time></trkpt><trkpt lat="37.15154765955775" lon="14.829328050905138"><ele>723.0</ele><time>2026-04-15T09:27:45.999Z</time></trkpt><trkpt lat="37.151619810009706" lon="14.829288712613886"><ele>723.5999999999999</ele><time>2026-04-15T09:27:46.999Z</time></trkpt><trkpt lat="37.151687563060264" lon="14.829239508293835"><ele>724.1999999999999</ele><time>2026-04-15T09:27:47.999Z</time></trkpt><trkpt lat="37.15174354210038" lon="14.829196498049399"><ele>724.8</ele><time>2026-04-15T09:27:48.999Z</time></trkpt><trkpt lat="37.151828935489874" lon="14.8292001097191"><ele>725.4</ele><time>2026-04-15T09:27:50.999Z</time></trkpt><trkpt lat="37.15190504710146" lon="14.829263806759679"><ele>726.0</ele><time>2026-04-15T09:27:52.999Z</time></trkpt><trkpt lat="37.151970895800446" lon="14.829408293740906"><ele>726.0</ele><time>2026-04-15T09:27:54.999Z</time></trkpt><trkpt lat="37.15199567223667" lon="14.82949363586518"><ele>726.0</ele><time>2026-04-15T09:27:55.999Z</time></trkpt><trkpt lat="37.152029939819066" lon="14.829573254834248"><ele>726.0</ele><time>2026-04-15T09:27:56.999Z</time></trkpt><trkpt lat="37.15206869225971" lon="14.829660007383124"><ele>726.0</ele><time>2026-04-15T09:27:57.999Z</time></trkpt><trkpt lat="37.15210289152221" lon="14.829744509963358"><ele>726.0</ele><time>2026-04-15T09:27:58.999Z</time></trkpt><trkpt lat="37.15215331058006" lon="14.829864128626529"><ele>726.0</ele><time>2026-04-15T09:28:00.999Z</time></trkpt><trkpt lat="37.15219014313503" lon="14.829939938016334"><ele>726.0</ele><time>2026-04-15T09:28:33.999Z</time></trkpt><trkpt lat="37.15216933117518" lon="14.83003709912166"><ele>726.0</ele><time>2026-04-15T09:29:09Z</time></trkpt><trkpt lat="37.15212394868041" lon="14.830096896130213"><ele>726.0</ele><time>2026-04-15T09:29:10Z</time></trkpt><trkpt lat="37.15205534855924" lon="14.830139222535736"><ele>726.0</ele><time>2026-04-15T09:29:11Z</time></trkpt><trkpt lat="37.15198225599" lon="14.830175289698904"><ele>726.0</ele><time>2026-04-15T09:29:12Z</time></trkpt><trkpt lat="37.15188787832589" lon="14.83023644340723"><ele>726.0</ele><time>2026-04-15T09:29:13Z</time></trkpt><trkpt lat="37.15178155736641" lon="14.830313856824784"><ele>728.25</ele><time>2026-04-15T09:29:14Z</time></trkpt><trkpt lat="37.151666695269434" lon="14.830404471703508"><ele>730.5</ele><time>2026-04-15T09:29:15Z</time></trkpt><trkpt lat="37.15154114295153" lon="14.830503170627832"><ele>732.75</ele><time>2026-04-15T09:29:16Z</time></trkpt><trkpt lat="37.15142818871357" lon="14.830595468286779"><ele>735.0</ele><time>2026-04-15T09:29:17Z</time></trkpt><trkpt lat="37.15130946749003" lon="14.830693076750132"><ele>735.0</ele><time>2026-04-15T09:29:18Z</time></trkpt><trkpt lat="37.151190088402345" lon="14.830799393221836"><ele>735.0</ele><time>2026-04-15T09:29:19Z</time></trkpt><trkpt lat="37.151066883621425" lon="14.830925586559122"><ele>735.0</ele><time>2026-04-15T09:29:20Z</time></trkpt><trkpt lat="37.15093770126833" lon="14.831076503538043"><ele>737.0</ele><time>2026-04-15T09:29:21Z</time></trkpt><trkpt lat="37.150799744858524" lon="14.831238935912625"><ele>739.0</ele><time>2026-04-15T09:29:22Z</time></trkpt><trkpt lat="37.15065883788411" lon="14.831395682102473"><ele>741.0</ele><time>2026-04-15T09:29:23Z</time></trkpt><trkpt lat="37.15052396673401" lon="14.831548239386594"><ele>741.0</ele><time>2026-04-15T09:29:24Z</time></trkpt><trkpt lat="37.150384716396935" lon="14.831708297078471"><ele>741.0</ele><time>2026-04-15T09:29:25Z</time></trkpt><trkpt lat="37.15024874109359" lon="14.831863478183655"><ele>741.0</ele><time>2026-04-15T09:29:26Z</time></trkpt><trkpt lat="37.150108061842786" lon="14.832019807445581"><ele>742.6666666666666</ele><time>2026-04-15T09:29:27Z</time></trkpt><trkpt lat="37.14995501386356" lon="14.832164425529815"><ele>744.3333333333333</ele><time>2026-04-15T09:29:28Z</time></trkpt><trkpt lat="37.149808822548195" lon="14.832283152392003"><ele>746.0</ele><time>2026-04-15T09:29:29Z</time></trkpt><trkpt lat="37.149656153174966" lon="14.832382536075066"><ele>747.0</ele><time>2026-04-15T09:29:30Z</time></trkpt><trkpt lat="37.14949854899579" lon="14.832471074916231"><ele>748.0</ele><time>2026-04-15T09:29:31Z</time></trkpt><trkpt lat="37.14934410114228" lon="14.832552335794823"><ele>749.0</ele><time>2026-04-15T09:29:32Z</time></trkpt><trkpt lat="37.14920608483533" lon="14.832601929356915"><ele>749.0</ele><time>2026-04-15T09:29:33Z</time></trkpt><trkpt lat="37.14907928630398" lon="14.832634331687267"><ele>749.0</ele><time>2026-04-15T09:29:34Z</time></trkpt><trkpt lat="37.14896913898266" lon="14.832663406354255"><ele>749.0</ele><time>2026-04-15T09:29:35Z</time></trkpt><trkpt lat="37.14889389959036" lon="14.832690246813375"><ele>749.0</ele><time>2026-04-15T09:29:36Z</time></trkpt><trkpt lat="37.14880872738141" lon="14.832738603434047"><ele>749.0</ele><time>2026-04-15T09:29:38Z</time></trkpt><trkpt lat="37.14870093851814" lon="14.83274572813887"><ele>751.25</ele><time>2026-04-15T09:29:40Z</time></trkpt><trkpt lat="37.14861023889588" lon="14.832762114956138"><ele>753.5</ele><time>2026-04-15T09:29:41Z</time></trkpt><trkpt lat="37.14850908094371" lon="14.832804166135578"><ele>755.75</ele><time>2026-04-15T09:29:42Z</time></trkpt><trkpt lat="37.14838489379844" lon="14.832847962820049"><ele>758.0</ele><time>2026-04-15T09:29:43Z</time></trkpt><trkpt lat="37.14825415615519" lon="14.83288672433561"><ele>759.75</ele><time>2026-04-15T09:29:44Z</time></trkpt><trkpt lat="37.14812992528988" lon="14.832922317687734"><ele>761.5</ele><time>2026-04-15T09:29:45Z</time></trkpt><trkpt lat="37.14798980592749" lon="14.832954796789538"><ele>763.25</ele><time>2026-04-15T09:29:46Z</time></trkpt><trkpt lat="37.14785240453059" lon="14.83296032869499"><ele>765.0</ele><time>2026-04-15T09:29:47Z</time></trkpt><trkpt lat="37.147711513856386" lon="14.832933109835947"><ele>765.0</ele><time>2026-04-15T09:29:47.999Z</time></trkpt><trkpt lat="37.14756145699049" lon="14.832897207359439"><ele>765.0</ele><time>2026-04-15T09:29:48.999Z</time></trkpt><trkpt lat="37.1474093591388" lon="14.832831685494172"><ele>765.0</ele><time>2026-04-15T09:29:49.999Z</time></trkpt><trkpt lat="37.14726114343569" lon="14.832733884283794"><ele>765.0</ele><time>2026-04-15T09:29:50.999Z</time></trkpt><trkpt lat="37.147103038694404" lon="14.83262043231628"><ele>765.0</ele><time>2026-04-15T09:29:51.999Z</time></trkpt><trkpt lat="37.14694696700317" lon="14.832515486432555"><ele>765.0</ele><time>2026-04-15T09:29:52.999Z</time></trkpt><trkpt lat="37.146785581061415" lon="14.832411135225042"><ele>765.0</ele><time>2026-04-15T09:29:53.999Z</time></trkpt><trkpt lat="37.1466326608874" lon="14.832324370392742"><ele>765.0</ele><time>2026-04-15T09:29:54.999Z</time></trkpt><trkpt lat="37.1464708553071" lon="14.832264821976011"><ele>765.0</ele><time>2026-04-15T09:29:55.999Z</time></trkpt><trkpt lat="37.146293671032616" lon="14.832228476605978"><ele>767.3333333333333</ele><time>2026-04-15T09:29:56.999Z</time></trkpt><trkpt lat="37.14610574006454" lon="14.832203843485582"><ele>769.6666666666666</ele><time>2026-04-15T09:29:57.999Z</time></trkpt><trkpt lat="37.145916634409375" lon="14.83217652963356"><ele>772.0</ele><time>2026-04-15T09:29:58.999Z</time></trkpt><trkpt lat="37.14574194252088" lon="14.832145022208032"><ele>773.0</ele><time>2026-04-15T09:29:59.999Z</time></trkpt><trkpt lat="37.145587544246204" lon="14.832129027467555"><ele>774.0</ele><time>2026-04-15T09:30:00.999Z</time></trkpt><trkpt lat="37.14544631273275" lon="14.832126573447715"><ele>775.0</ele><time>2026-04-15T09:30:01.999Z</time></trkpt><trkpt lat="37.1453092079503" lon="14.832141053245493"><ele>776.0</ele><time>2026-04-15T09:30:02.999Z</time></trkpt><trkpt lat="37.1451588255578" lon="14.832176073132453"><ele>776.0</ele><time>2026-04-15T09:30:03.999Z</time></trkpt><trkpt lat="37.144999549329974" lon="14.832220774441394"><ele>776.0</ele><time>2026-04-15T09:30:04.999Z</time></trkpt><trkpt lat="37.14484791864392" lon="14.832253832753846"><ele>776.0</ele><time>2026-04-15T09:30:05.999Z</time></trkpt><trkpt lat="37.14469790547985" lon="14.832258078814215"><ele>777.5</ele><time>2026-04-15T09:30:06.999Z</time></trkpt><trkpt lat="37.1445490491541" lon="14.832230876314444"><ele>779.0</ele><time>2026-04-15T09:30:07.999Z</time></trkpt><trkpt lat="37.14440510809256" lon="14.832186233354879"><ele>780.5</ele><time>2026-04-15T09:30:08.999Z</time></trkpt><trkpt lat="37.144267556984104" lon="14.832131970721077"><ele>782.0</ele><time>2026-04-15T09:30:09.999Z</time></trkpt><trkpt lat="37.14414274037571" lon="14.832098013746634"><ele>783.2</ele><time>2026-04-15T09:30:10.999Z</time></trkpt><trkpt lat="37.144038473464406" lon="14.83210387748751"><ele>784.4000000000001</ele><time>2026-04-15T09:30:11.999Z</time></trkpt><trkpt lat="37.14395465739706" lon="14.832145612910114"><ele>785.5999999999999</ele><time>2026-04-15T09:30:12.999Z</time></trkpt><trkpt lat="37.14388871680314" lon="14.832224845791124"><ele>786.8</ele><time>2026-04-15T09:30:13.999Z</time></trkpt><trkpt lat="37.14382509889803" lon="14.83233372205162"><ele>788.0</ele><time>2026-04-15T09:30:14.999Z</time></trkpt><trkpt lat="37.14376274716457" lon="14.832456746358103"><ele>788.0</ele><time>2026-04-15T09:30:15.999Z</time></trkpt><trkpt lat="37.14370120618949" lon="14.83255354291804"><ele>788.0</ele><time>2026-04-15T09:30:16.999Z</time></trkpt><trkpt lat="37.14364272812297" lon="14.832636241786162"><ele>788.0</ele><time>2026-04-15T09:30:17.999Z</time></trkpt><trkpt lat="37.14359208233508" lon="14.832709018158326"><ele>788.0</ele><time>2026-04-15T09:30:18.999Z</time></trkpt><trkpt lat="37.14350649386387" lon="14.832823606550596"><ele>788.0</ele><time>2026-04-15T09:30:20.999Z</time></trkpt><trkpt lat="37.143447328940674" lon="14.832926170384749"><ele>787.5</ele><time>2026-04-15T09:30:21.999Z</time></trkpt><trkpt lat="37.143376380251645" lon="14.833051082300221"><ele>787.0</ele><time>2026-04-15T09:30:22.999Z</time></trkpt><trkpt lat="37.14328597568317" lon="14.833180764744222"><ele>786.5</ele><time>2026-04-15T09:30:23.999Z</time></trkpt><trkpt lat="37.14317773546116" lon="14.833327381859208"><ele>786.0</ele><time>2026-04-15T09:30:24.999Z</time></trkpt><trkpt lat="37.14310188674712" lon="14.83348338005965"><ele>789.0</ele><time>2026-04-15T09:30:25.999Z</time></trkpt><trkpt lat="37.14304598162643" lon="14.833650748766853"><ele>792.0</ele><time>2026-04-15T09:30:26.999Z</time></trkpt><trkpt lat="37.142988640544864" lon="14.833834441846655"><ele>795.0</ele><time>2026-04-15T09:30:27.999Z</time></trkpt><trkpt lat="37.14293025722334" lon="14.83402668200212"><ele>795.0</ele><time>2026-04-15T09:30:28.999Z</time></trkpt><trkpt lat="37.142872852424084" lon="14.834213214829344"><ele>795.0</ele><time>2026-04-15T09:30:29.999Z</time></trkpt><trkpt lat="37.14282790986037" lon="14.834399716606296"><ele>795.0</ele><time>2026-04-15T09:30:30.999Z</time></trkpt><trkpt lat="37.142788803561594" lon="14.834593234451827"><ele>794.75</ele><time>2026-04-15T09:30:31.999Z</time></trkpt><trkpt lat="37.14275511537768" lon="14.834791127552686"><ele>794.5</ele><time>2026-04-15T09:30:32.999Z</time></trkpt><trkpt lat="37.14272376097367" lon="14.83495341141863"><ele>794.25</ele><time>2026-04-15T09:30:33.999Z</time></trkpt><trkpt lat="37.14268576359702" lon="14.83507049240886"><ele>794.0</ele><time>2026-04-15T09:30:34.999Z</time></trkpt><trkpt lat="37.14262647344166" lon="14.835167032518036"><ele>793.75</ele><time>2026-04-15T09:30:35.999Z</time></trkpt><trkpt lat="37.14253797584961" lon="14.835246592447897"><ele>793.5</ele><time>2026-04-15T09:30:36.999Z</time></trkpt><trkpt lat="37.14243043405418" lon="14.835339869468603"><ele>793.25</ele><time>2026-04-15T09:30:37.999Z</time></trkpt><trkpt lat="37.14231662891843" lon="14.835448748121054"><ele>793.0</ele><time>2026-04-15T09:30:38.999Z</time></trkpt><trkpt lat="37.14220927717546" lon="14.835570363414305"><ele>793.0</ele><time>2026-04-15T09:30:39.999Z</time></trkpt><trkpt lat="37.1421089535914" lon="14.83570628810429"><ele>793.0</ele><time>2026-04-15T09:30:40.999Z</time></trkpt><trkpt lat="37.14201337851729" lon="14.835851181472183"><ele>793.0</ele><time>2026-04-15T09:30:41.999Z</time></trkpt><trkpt lat="37.14192045395666" lon="14.83598736958291"><ele>793.0</ele><time>2026-04-15T09:30:42.999Z</time></trkpt><trkpt lat="37.14182122016979" lon="14.836098565224953"><ele>790.4999999999999</ele><time>2026-04-15T09:30:43.999Z</time></trkpt><trkpt lat="37.141718657706605" lon="14.83615846965034"><ele>788.0</ele><time>2026-04-15T09:30:44.999Z</time></trkpt><trkpt lat="37.14162959377401" lon="14.836173051014988"><ele>785.5</ele><time>2026-04-15T09:30:45.999Z</time></trkpt><trkpt lat="37.14156568514135" lon="14.83613536752859"><ele>783.0</ele><time>2026-04-15T09:30:46.999Z</time></trkpt><trkpt lat="37.14152230838257" lon="14.8360696151284"><ele>780.4999999999999</ele><time>2026-04-15T09:30:47.999Z</time></trkpt><trkpt lat="37.141490100202574" lon="14.835972620199364"><ele>778.0</ele><time>2026-04-15T09:30:48.999Z</time></trkpt><trkpt lat="37.14147650944326" lon="14.835851364295882"><ele>777.75</ele><time>2026-04-15T09:30:49.999Z</time></trkpt><trkpt lat="37.14146330954758" lon="14.835702211700008"><ele>777.5</ele><time>2026-04-15T09:30:50.999Z</time></trkpt><trkpt lat="37.14144021125719" lon="14.83556431269019"><ele>777.25</ele><time>2026-04-15T09:30:51.999Z</time></trkpt><trkpt lat="37.141407581739315" lon="14.83542132041878"><ele>777.0</ele><time>2026-04-15T09:30:52.999Z</time></trkpt><trkpt lat="37.14136613124415" lon="14.835271182557232"><ele>779.5</ele><time>2026-04-15T09:30:53.999Z</time></trkpt><trkpt lat="37.14131648519268" lon="14.835118633095673"><ele>782.0</ele><time>2026-04-15T09:30:54.999Z</time></trkpt><trkpt lat="37.141256705367425" lon="14.834946221813263"><ele>784.5</ele><time>2026-04-15T09:30:55.999Z</time></trkpt><trkpt lat="37.14119670798304" lon="14.83477899167586"><ele>787.0</ele><time>2026-04-15T09:30:56.999Z</time></trkpt><trkpt lat="37.141143563427256" lon="14.834614910716637"><ele>787.0</ele><time>2026-04-15T09:30:57.999Z</time></trkpt><trkpt lat="37.14110346737588" lon="14.834443124865174"><ele>787.0</ele><time>2026-04-15T09:30:58.999Z</time></trkpt><trkpt lat="37.14109055564419" lon="14.834275249402314"><ele>787.0</ele><time>2026-04-15T09:30:59.999Z</time></trkpt><trkpt lat="37.14110880553023" lon="14.834117293740984"><ele>787.0</ele><time>2026-04-15T09:31:00.999Z</time></trkpt><trkpt lat="37.14113024364762" lon="14.833961522731803"><ele>788.4000000000001</ele><time>2026-04-15T09:31:01.999Z</time></trkpt><trkpt lat="37.14113297162286" lon="14.83381032387313"><ele>789.8000000000001</ele><time>2026-04-15T09:31:02.999Z</time></trkpt><trkpt lat="37.14110841744699" lon="14.833677462749595"><ele>791.2</ele><time>2026-04-15T09:31:03.999Z</time></trkpt><trkpt lat="37.14106681648634" lon="14.833567028031826"><ele>792.6</ele><time>2026-04-15T09:31:04.999Z</time></trkpt><trkpt lat="37.14101283981045" lon="14.833482222363546"><ele>794.0</ele><time>2026-04-15T09:31:05.999Z</time></trkpt><trkpt lat="37.14094909342253" lon="14.833412056175087"><ele>794.6</ele><time>2026-04-15T09:31:06.999Z</time></trkpt><trkpt lat="37.14087640273665" lon="14.833347035386893"><ele>795.2</ele><time>2026-04-15T09:31:07.999Z</time></trkpt><trkpt lat="37.14078755555824" lon="14.833286028665805"><ele>795.8000000000001</ele><time>2026-04-15T09:31:08.999Z</time></trkpt><trkpt lat="37.140688996590086" lon="14.833233207930197"><ele>796.4000000000001</ele><time>2026-04-15T09:31:10Z</time></trkpt><trkpt lat="37.14058262450751" lon="14.833203434270331"><ele>797.0</ele><time>2026-04-15T09:31:11Z</time></trkpt><trkpt lat="37.14046111219381" lon="14.833182859516523"><ele>797.0</ele><time>2026-04-15T09:31:12Z</time></trkpt><trkpt lat="37.14033372205597" lon="14.833156248473257"><ele>797.0</ele><time>2026-04-15T09:31:13Z</time></trkpt><trkpt lat="37.140202700959925" lon="14.833125225868063"><ele>797.0</ele><time>2026-04-15T09:31:14Z</time></trkpt><trkpt lat="37.140071353911175" lon="14.833089572080064"><ele>797.0</ele><time>2026-04-15T09:31:15Z</time></trkpt><trkpt lat="37.139937285585546" lon="14.833040395649798"><ele>796.25</ele><time>2026-04-15T09:31:16Z</time></trkpt><trkpt lat="37.1398072258818" lon="14.832988428958467"><ele>795.5</ele><time>2026-04-15T09:31:17Z</time></trkpt><trkpt lat="37.139669276673764" lon="14.832935034656808"><ele>794.75</ele><time>2026-04-15T09:31:18Z</time></trkpt><trkpt lat="37.139529405244325" lon="14.832882790184284"><ele>794.0</ele><time>2026-04-15T09:31:19Z</time></trkpt><trkpt lat="37.13939409525339" lon="14.832832217569731"><ele>794.0</ele><time>2026-04-15T09:31:20Z</time></trkpt><trkpt lat="37.13926031468753" lon="14.832784789364883"><ele>794.0</ele><time>2026-04-15T09:31:21Z</time></trkpt><trkpt lat="37.139130444142275" lon="14.832735400668227"><ele>794.0</ele><time>2026-04-15T09:31:22Z</time></trkpt><trkpt lat="37.13901502230464" lon="14.832683840106887"><ele>794.0</ele><time>2026-04-15T09:31:23Z</time></trkpt><trkpt lat="37.13891376179652" lon="14.832619004787784"><ele>795.75</ele><time>2026-04-15T09:31:24Z</time></trkpt><trkpt lat="37.13881680254738" lon="14.832546242432253"><ele>797.5</ele><time>2026-04-15T09:31:25Z</time></trkpt><trkpt lat="37.13872038785788" lon="14.83246657848696"><ele>799.25</ele><time>2026-04-15T09:31:26Z</time></trkpt><trkpt lat="37.13862236151337" lon="14.832381272262962"><ele>801.0</ele><time>2026-04-15T09:31:27Z</time></trkpt><trkpt lat="37.13851978054164" lon="14.832302865695475"><ele>801.0</ele><time>2026-04-15T09:31:28Z</time></trkpt><trkpt lat="37.13840721325272" lon="14.832239028481242"><ele>801.0</ele><time>2026-04-15T09:31:29Z</time></trkpt><trkpt lat="37.13828729094338" lon="14.832191909085015"><ele>801.0</ele><time>2026-04-15T09:31:30Z</time></trkpt><trkpt lat="37.13816215057347" lon="14.832162513774621"><ele>801.0</ele><time>2026-04-15T09:31:31Z</time></trkpt><trkpt lat="37.13803230845824" lon="14.832147377076138"><ele>800.25</ele><time>2026-04-15T09:31:32Z</time></trkpt><trkpt lat="37.13790178186619" lon="14.832138404854687"><ele>799.5</ele><time>2026-04-15T09:31:33Z</time></trkpt><trkpt lat="37.13777072385672" lon="14.832127818062025"><ele>798.75</ele><time>2026-04-15T09:31:34Z</time></trkpt><trkpt lat="37.13763761315705" lon="14.832121901469014"><ele>798.0</ele><time>2026-04-15T09:31:35Z</time></trkpt><trkpt lat="37.13750346882755" lon="14.83211783469473"><ele>798.0</ele><time>2026-04-15T09:31:36Z</time></trkpt><trkpt lat="37.13736512061614" lon="14.832111159616822"><ele>798.0</ele><time>2026-04-15T09:31:37Z</time></trkpt><trkpt lat="37.13722533503236" lon="14.832104809564495"><ele>798.0</ele><time>2026-04-15T09:31:38Z</time></trkpt><trkpt lat="37.13708686624595" lon="14.832099244219583"><ele>798.0</ele><time>2026-04-15T09:31:39Z</time></trkpt><trkpt lat="37.136955599264425" lon="14.83209087867283"><ele>798.0</ele><time>2026-04-15T09:31:40Z</time></trkpt><trkpt lat="37.136820526296134" lon="14.832090121301219"><ele>798.0</ele><time>2026-04-15T09:31:41Z</time></trkpt><trkpt lat="37.136688014091" lon="14.832088877441505"><ele>798.0</ele><time>2026-04-15T09:31:42Z</time></trkpt><trkpt lat="37.13655774224497" lon="14.832084818886942"><ele>798.0</ele><time>2026-04-15T09:31:43Z</time></trkpt><trkpt lat="37.13642748324655" lon="14.832077215006969"><ele>798.75</ele><time>2026-04-15T09:31:44Z</time></trkpt><trkpt lat="37.13629680051128" lon="14.832065854272813"><ele>799.5</ele><time>2026-04-15T09:31:45Z</time></trkpt><trkpt lat="37.136165124597966" lon="14.832060450601926"><ele>800.25</ele><time>2026-04-15T09:31:46Z</time></trkpt><trkpt lat="37.13603327377247" lon="14.832052559493597"><ele>801.0</ele><time>2026-04-15T09:31:47Z</time></trkpt><trkpt lat="37.13590342250075" lon="14.832049445145918"><ele>801.0</ele><time>2026-04-15T09:31:48Z</time></trkpt><trkpt lat="37.135768121234065" lon="14.832045989863737"><ele>801.0</ele><time>2026-04-15T09:31:49Z</time></trkpt><trkpt lat="37.135637136322224" lon="14.832042910146836"><ele>801.0</ele><time>2026-04-15T09:31:50Z</time></trkpt><trkpt lat="37.135505679646414" lon="14.832036443969802"><ele>801.0</ele><time>2026-04-15T09:31:51Z</time></trkpt><trkpt lat="37.13537335280965" lon="14.83202986700131"><ele>801.0</ele><time>2026-04-15T09:31:52Z</time></trkpt><trkpt lat="37.13524046615385" lon="14.832024160997799"><ele>801.0</ele><time>2026-04-15T09:31:53Z</time></trkpt><trkpt lat="37.135109036931816" lon="14.832025500782363"><ele>801.0</ele><time>2026-04-15T09:31:54Z</time></trkpt><trkpt lat="37.134979638068835" lon="14.832030057517246"><ele>801.0</ele><time>2026-04-15T09:31:55Z</time></trkpt><trkpt lat="37.1348540528365" lon="14.832043213571303"><ele>801.0</ele><time>2026-04-15T09:31:56Z</time></trkpt><trkpt lat="37.134729480453835" lon="14.832066373025368"><ele>801.0</ele><time>2026-04-15T09:31:57Z</time></trkpt><trkpt lat="37.134607028239984" lon="14.83209581050431"><ele>801.0</ele><time>2026-04-15T09:31:58Z</time></trkpt><trkpt lat="37.1344848943987" lon="14.832126022549426"><ele>801.0</ele><time>2026-04-15T09:31:59Z</time></trkpt><trkpt lat="37.134362632203" lon="14.83216227859561"><ele>801.0</ele><time>2026-04-15T09:32:00Z</time></trkpt><trkpt lat="37.134239980627406" lon="14.832197562111688"><ele>801.0</ele><time>2026-04-15T09:32:01Z</time></trkpt><trkpt lat="37.13411698513116" lon="14.832239159821592"><ele>801.0</ele><time>2026-04-15T09:32:02Z</time></trkpt><trkpt lat="37.13399616623232" lon="14.832282289047642"><ele>801.0</ele><time>2026-04-15T09:32:03Z</time></trkpt><trkpt lat="37.13387293570487" lon="14.83232863484206"><ele>802.5</ele><time>2026-04-15T09:32:04Z</time></trkpt><trkpt lat="37.13375363944668" lon="14.832381614079978"><ele>804.0</ele><time>2026-04-15T09:32:05Z</time></trkpt><trkpt lat="37.133634274243796" lon="14.832442275970337"><ele>805.5</ele><time>2026-04-15T09:32:05.999Z</time></trkpt><trkpt lat="37.13351813970491" lon="14.832515053338962"><ele>807.0</ele><time>2026-04-15T09:32:06.999Z</time></trkpt><trkpt lat="37.13340686208724" lon="14.832598586937554"><ele>807.25</ele><time>2026-04-15T09:32:07.999Z</time></trkpt><trkpt lat="37.133302734056876" lon="14.832695681055114"><ele>807.5</ele><time>2026-04-15T09:32:08.999Z</time></trkpt><trkpt lat="37.133198856012434" lon="14.832803163109393"><ele>807.75</ele><time>2026-04-15T09:32:09.999Z</time></trkpt><trkpt lat="37.13309517637333" lon="14.83291317362451"><ele>808.0</ele><time>2026-04-15T09:32:10.999Z</time></trkpt><trkpt lat="37.13299187375809" lon="14.833023390673207"><ele>808.0</ele><time>2026-04-15T09:32:11.999Z</time></trkpt><trkpt lat="37.13289110786796" lon="14.833130527313"><ele>808.0</ele><time>2026-04-15T09:32:12.999Z</time></trkpt><trkpt lat="37.132785849643994" lon="14.833237768460112"><ele>808.0</ele><time>2026-04-15T09:32:13.999Z</time></trkpt><trkpt lat="37.13267938374372" lon="14.83334883591057"><ele>808.0</ele><time>2026-04-15T09:32:14.999Z</time></trkpt><trkpt lat="37.1325720939826" lon="14.833455025150185"><ele>807.5</ele><time>2026-04-15T09:32:15.999Z</time></trkpt><trkpt lat="37.13246099061999" lon="14.833573831910156"><ele>807.0</ele><time>2026-04-15T09:32:16.999Z</time></trkpt><trkpt lat="37.13234737473413" lon="14.833692416053903"><ele>806.5</ele><time>2026-04-15T09:32:17.999Z</time></trkpt><trkpt lat="37.132233577566765" lon="14.833810140235682"><ele>806.0</ele><time>2026-04-15T09:32:18.999Z</time></trkpt><trkpt lat="37.13211748914305" lon="14.833925428281272"><ele>806.0</ele><time>2026-04-15T09:32:19.999Z</time></trkpt><trkpt lat="37.13199952713226" lon="14.834038985941746"><ele>806.0</ele><time>2026-04-15T09:32:20.999Z</time></trkpt><trkpt lat="37.13188059296182" lon="14.834140534004678"><ele>806.0</ele><time>2026-04-15T09:32:21.999Z</time></trkpt><trkpt lat="37.13176997716884" lon="14.834216949681215"><ele>806.0</ele><time>2026-04-15T09:32:22.999Z</time></trkpt><trkpt lat="37.13167452169903" lon="14.834273688936458"><ele>805.8</ele><time>2026-04-15T09:32:23.999Z</time></trkpt><trkpt lat="37.1315839875159" lon="14.834307775906636"><ele>805.5999999999999</ele><time>2026-04-15T09:32:24.999Z</time></trkpt><trkpt lat="37.13149541559819" lon="14.834321116853797"><ele>805.4</ele><time>2026-04-15T09:32:25.999Z</time></trkpt><trkpt lat="37.131405167833435" lon="14.834324739988613"><ele>805.2</ele><time>2026-04-15T09:32:26.999Z</time></trkpt><trkpt lat="37.13130621035261" lon="14.834314270327752"><ele>805.0</ele><time>2026-04-15T09:32:27.999Z</time></trkpt><trkpt lat="37.13120660560792" lon="14.834299389596787"><ele>805.0</ele><time>2026-04-15T09:32:28.999Z</time></trkpt><trkpt lat="37.13110511562733" lon="14.834284696734976"><ele>805.0</ele><time>2026-04-15T09:32:29.999Z</time></trkpt><trkpt lat="37.13100300155727" lon="14.834278814037779"><ele>805.0</ele><time>2026-04-15T09:32:30.999Z</time></trkpt><trkpt lat="37.130899981680415" lon="14.834284272945622"><ele>805.0</ele><time>2026-04-15T09:32:31.999Z</time></trkpt><trkpt lat="37.13078967843293" lon="14.83430123213367"><ele>805.0</ele><time>2026-04-15T09:32:32.999Z</time></trkpt><trkpt lat="37.13068335165227" lon="14.834331000936963"><ele>805.2</ele><time>2026-04-15T09:32:33.999Z</time></trkpt><trkpt lat="37.130586511129316" lon="14.834373755265718"><ele>805.4</ele><time>2026-04-15T09:32:34.999Z</time></trkpt><trkpt lat="37.130495713347315" lon="14.834429767602185"><ele>805.5999999999999</ele><time>2026-04-15T09:32:35.999Z</time></trkpt><trkpt lat="37.13041040118996" lon="14.834481939668704"><ele>805.8</ele><time>2026-04-15T09:32:36.999Z</time></trkpt><trkpt lat="37.13032019025599" lon="14.834535309379035"><ele>806.0</ele><time>2026-04-15T09:32:37.999Z</time></trkpt><trkpt lat="37.130235265771226" lon="14.834583264418013"><ele>806.0000000000001</ele><time>2026-04-15T09:32:38.999Z</time></trkpt><trkpt lat="37.130158677451284" lon="14.834635530485224"><ele>806.0</ele><time>2026-04-15T09:32:39.999Z</time></trkpt><trkpt lat="37.13009781826727" lon="14.834682095775568"><ele>806.0</ele><time>2026-04-15T09:32:40.999Z</time></trkpt><trkpt lat="37.13004185077929" lon="14.834741496196752"><ele>806.0</ele><time>2026-04-15T09:32:41.999Z</time></trkpt><trkpt lat="37.13001797795523" lon="14.834885907085779"><ele>806.0000000000001</ele><time>2026-04-15T09:32:43.999Z</time></trkpt><trkpt lat="37.130043053240016" lon="14.834958864099596"><ele>806.0</ele><time>2026-04-15T09:32:44.999Z</time></trkpt><trkpt lat="37.13008095202673" lon="14.83504068058547"><ele>806.0000000000001</ele><time>2026-04-15T09:32:45.999Z</time></trkpt><trkpt lat="37.130123694419126" lon="14.835132986223059"><ele>806.0</ele><time>2026-04-15T09:32:46.999Z</time></trkpt><trkpt lat="37.13016617710328" lon="14.83523263282843"><ele>806.0</ele><time>2026-04-15T09:32:47.999Z</time></trkpt><trkpt lat="37.13019899091933" lon="14.835334564663595"><ele>806.0</ele><time>2026-04-15T09:32:48.999Z</time></trkpt><trkpt lat="37.130221387910865" lon="14.835444228707209"><ele>806.0000000000001</ele><time>2026-04-15T09:32:49.999Z</time></trkpt><trkpt lat="37.13023533853167" lon="14.835562111655044"><ele>806.0</ele><time>2026-04-15T09:32:50.999Z</time></trkpt><trkpt lat="37.130250578518954" lon="14.835687631503937"><ele>805.5999999999999</ele><time>2026-04-15T09:32:51.999Z</time></trkpt><trkpt lat="37.130269698465284" lon="14.835819319707515"><ele>805.2</ele><time>2026-04-15T09:32:52.999Z</time></trkpt><trkpt lat="37.13028831989618" lon="14.835957184593187"><ele>804.8</ele><time>2026-04-15T09:32:53.999Z</time></trkpt><trkpt lat="37.130307551661566" lon="14.836096074492202"><ele>804.4000000000001</ele><time>2026-04-15T09:32:54.999Z</time></trkpt><trkpt lat="37.130326151234954" lon="14.836235011598825"><ele>804.0</ele><time>2026-04-15T09:32:55.999Z</time></trkpt><trkpt lat="37.130340941934016" lon="14.83637714195795"><ele>803.0</ele><time>2026-04-15T09:32:56.999Z</time></trkpt><trkpt lat="37.13035346201522" lon="14.836515720608308"><ele>802.0</ele><time>2026-04-15T09:32:57.999Z</time></trkpt><trkpt lat="37.13036000366237" lon="14.836644868895567"><ele>801.0</ele><time>2026-04-15T09:32:58.999Z</time></trkpt><trkpt lat="37.13036038027464" lon="14.836767998301918"><ele>800.0</ele><time>2026-04-15T09:32:59.999Z</time></trkpt><trkpt lat="37.13035304980715" lon="14.836891323110807"><ele>799.0</ele><time>2026-04-15T09:33:00.999Z</time></trkpt><trkpt lat="37.13033727696631" lon="14.837021320384599"><ele>796.8333333333333</ele><time>2026-04-15T09:33:01.999Z</time></trkpt><trkpt lat="37.13031169773923" lon="14.837137845396885"><ele>794.6666666666666</ele><time>2026-04-15T09:33:02.999Z</time></trkpt><trkpt lat="37.13027754574705" lon="14.837235941715832"><ele>792.5</ele><time>2026-04-15T09:33:03.999Z</time></trkpt><trkpt lat="37.13023298172801" lon="14.83731498556023"><ele>790.3333333333333</ele><time>2026-04-15T09:33:04.999Z</time></trkpt><trkpt lat="37.13017113815706" lon="14.837371357028715"><ele>788.1666666666666</ele><time>2026-04-15T09:33:05.999Z</time></trkpt><trkpt lat="37.130094290699034" lon="14.837408643419753"><ele>786.0</ele><time>2026-04-15T09:33:06.999Z</time></trkpt><trkpt lat="37.13000295051065" lon="14.837433175224428"><ele>786.0</ele><time>2026-04-15T09:33:07.999Z</time></trkpt><trkpt lat="37.12990171553986" lon="14.83745143866912"><ele>786.0</ele><time>2026-04-15T09:33:08.999Z</time></trkpt><trkpt lat="37.12980059297241" lon="14.837450393814953"><ele>786.0</ele><time>2026-04-15T09:33:09.999Z</time></trkpt><trkpt lat="37.12969351044272" lon="14.83743299085008"><ele>786.0</ele><time>2026-04-15T09:33:10.999Z</time></trkpt><trkpt lat="37.12958099054703" lon="14.837410051334142"><ele>786.0</ele><time>2026-04-15T09:33:11.999Z</time></trkpt><trkpt lat="37.129467471792125" lon="14.837376919973353"><ele>785.5</ele><time>2026-04-15T09:33:12.999Z</time></trkpt><trkpt lat="37.12935410268593" lon="14.837335535795773"><ele>785.0</ele><time>2026-04-15T09:33:13.999Z</time></trkpt><trkpt lat="37.12923898009296" lon="14.837298831047294"><ele>784.5</ele><time>2026-04-15T09:33:14.999Z</time></trkpt><trkpt lat="37.12912733071418" lon="14.837278560726116"><ele>784.0</ele><time>2026-04-15T09:33:16Z</time></trkpt><trkpt lat="37.12902038414218" lon="14.837276862758106"><ele>783.25</ele><time>2026-04-15T09:33:17Z</time></trkpt><trkpt lat="37.12891413439211" lon="14.837288960305719"><ele>782.5</ele><time>2026-04-15T09:33:18Z</time></trkpt><trkpt lat="37.12880514866426" lon="14.837327221986486"><ele>781.75</ele><time>2026-04-15T09:33:19Z</time></trkpt><trkpt lat="37.1286984462008" lon="14.837386371146133"><ele>781.0</ele><time>2026-04-15T09:33:20Z</time></trkpt><trkpt lat="37.12858879983112" lon="14.837451751534863"><ele>781.0</ele><time>2026-04-15T09:33:21Z</time></trkpt><trkpt lat="37.128482288872" lon="14.837511786922366"><ele>781.0</ele><time>2026-04-15T09:33:22Z</time></trkpt><trkpt lat="37.1283698082621" lon="14.837572677142504"><ele>781.0</ele><time>2026-04-15T09:33:23Z</time></trkpt><trkpt lat="37.12827086581275" lon="14.83762640157787"><ele>781.0</ele><time>2026-04-15T09:33:24Z</time></trkpt><trkpt lat="37.12817343760036" lon="14.83764330207815"><ele>781.0</ele><time>2026-04-15T09:33:25Z</time></trkpt><trkpt lat="37.12809041891709" lon="14.837626521588684"><ele>781.4</ele><time>2026-04-15T09:33:26Z</time></trkpt><trkpt lat="37.128007254934104" lon="14.83759863312673"><ele>781.8</ele><time>2026-04-15T09:33:27Z</time></trkpt><trkpt lat="37.127905532817984" lon="14.837574566492258"><ele>782.1999999999999</ele><time>2026-04-15T09:33:28Z</time></trkpt><trkpt lat="37.12778927701484" lon="14.837553588039567"><ele>782.5999999999999</ele><time>2026-04-15T09:33:29Z</time></trkpt><trkpt lat="37.12766374182263" lon="14.83754162021429"><ele>783.0</ele><time>2026-04-15T09:33:30Z</time></trkpt><trkpt lat="37.12753630321539" lon="14.837549685967542"><ele>783.0</ele><time>2026-04-15T09:33:31Z</time></trkpt><trkpt lat="37.12740762517028" lon="14.837571967939294"><ele>783.0</ele><time>2026-04-15T09:33:32Z</time></trkpt><trkpt lat="37.12727953151836" lon="14.837603959074572"><ele>783.0</ele><time>2026-04-15T09:33:33Z</time></trkpt><trkpt lat="37.127155709476774" lon="14.83764451575605"><ele>783.0</ele><time>2026-04-15T09:33:34Z</time></trkpt><trkpt lat="37.127036079434724" lon="14.837690547344186"><ele>777.4</ele><time>2026-04-15T09:33:35Z</time></trkpt><trkpt lat="37.1269216346281" lon="14.837721553342423"><ele>771.8</ele><time>2026-04-15T09:33:36Z</time></trkpt><trkpt lat="37.12681385001827" lon="14.83775070277549"><ele>766.2</ele><time>2026-04-15T09:33:37Z</time></trkpt><trkpt lat="37.12671264836936" lon="14.837759902967562"><ele>760.6</ele><time>2026-04-15T09:33:38Z</time></trkpt><trkpt lat="37.12661045660674" lon="14.837749685147402"><ele>755.0</ele><time>2026-04-15T09:33:39Z</time></trkpt><trkpt lat="37.12651696477384" lon="14.83772055235043"><ele>755.6</ele><time>2026-04-15T09:33:40Z</time></trkpt><trkpt lat="37.12642802439226" lon="14.837668486685544"><ele>756.2</ele><time>2026-04-15T09:33:41Z</time></trkpt><trkpt lat="37.12634955793514" lon="14.837584576489865"><ele>756.8</ele><time>2026-04-15T09:33:42Z</time></trkpt><trkpt lat="37.126282198027496" lon="14.837490336510411"><ele>757.4</ele><time>2026-04-15T09:33:43Z</time></trkpt><trkpt lat="37.12621425540344" lon="14.83739356520563"><ele>758.0</ele><time>2026-04-15T09:33:44Z</time></trkpt><trkpt lat="37.12614583906452" lon="14.837302401126578"><ele>758.0</ele><time>2026-04-15T09:33:45Z</time></trkpt><trkpt lat="37.12606647785888" lon="14.837208671179718"><ele>758.0</ele><time>2026-04-15T09:33:46Z</time></trkpt><trkpt lat="37.12598102591176" lon="14.837118928958631"><ele>758.0</ele><time>2026-04-15T09:33:47Z</time></trkpt><trkpt lat="37.125890604135606" lon="14.837031486751274"><ele>758.0</ele><time>2026-04-15T09:33:48Z</time></trkpt><trkpt lat="37.12579885172199" lon="14.836948153637447"><ele>758.0</ele><time>2026-04-15T09:33:49Z</time></trkpt><trkpt lat="37.125711918312426" lon="14.836873085015826"><ele>759.5999999999999</ele><time>2026-04-15T09:33:50Z</time></trkpt><trkpt lat="37.1256212287205" lon="14.836803753345102"><ele>761.1999999999999</ele><time>2026-04-15T09:33:51Z</time></trkpt><trkpt lat="37.125519433313" lon="14.836750107691763"><ele>762.8</ele><time>2026-04-15T09:33:52Z</time></trkpt><trkpt lat="37.12541645894444" lon="14.836710653320392"><ele>764.4</ele><time>2026-04-15T09:33:53Z</time></trkpt><trkpt lat="37.12531253299635" lon="14.836673706802053"><ele>766.0</ele><time>2026-04-15T09:33:54Z</time></trkpt><trkpt lat="37.12519960001346" lon="14.836640093596243"><ele>766.0</ele><time>2026-04-15T09:33:55Z</time></trkpt><trkpt lat="37.1250852849322" lon="14.836602949238639"><ele>766.0</ele><time>2026-04-15T09:33:56Z</time></trkpt><trkpt lat="37.12496233594298" lon="14.836568982096585"><ele>766.0</ele><time>2026-04-15T09:33:57Z</time></trkpt><trkpt lat="37.1248475969914" lon="14.836530896924305"><ele>766.0</ele><time>2026-04-15T09:33:58Z</time></trkpt><trkpt lat="37.124725933386685" lon="14.836496772888864"><ele>763.75</ele><time>2026-04-15T09:33:59Z</time></trkpt><trkpt lat="37.1246062971749" lon="14.836471461953893"><ele>761.5</ele><time>2026-04-15T09:34:00Z</time></trkpt><trkpt lat="37.12447891455549" lon="14.83645524789904"><ele>759.25</ele><time>2026-04-15T09:34:01Z</time></trkpt><trkpt lat="37.12435555621866" lon="14.836437290411771"><ele>757.0</ele><time>2026-04-15T09:34:02Z</time></trkpt><trkpt lat="37.12422255349817" lon="14.836421968256756"><ele>757.0</ele><time>2026-04-15T09:34:03Z</time></trkpt><trkpt lat="37.12409474159882" lon="14.83641000014666"><ele>757.0</ele><time>2026-04-15T09:34:04Z</time></trkpt><trkpt lat="37.12397417594848" lon="14.836391799757784"><ele>757.0</ele><time>2026-04-15T09:34:05Z</time></trkpt><trkpt lat="37.12386295285833" lon="14.836374824225087"><ele>757.0</ele><time>2026-04-15T09:34:06Z</time></trkpt><trkpt lat="37.123765949049286" lon="14.83636085580519"><ele>756.8</ele><time>2026-04-15T09:34:07Z</time></trkpt><trkpt lat="37.12365917748408" lon="14.836357974381716"><ele>756.6</ele><time>2026-04-15T09:34:08Z</time></trkpt><trkpt lat="37.12355084801617" lon="14.836369458102322"><ele>756.4</ele><time>2026-04-15T09:34:09Z</time></trkpt><trkpt lat="37.123456726398146" lon="14.836388532390835"><ele>756.1999999999999</ele><time>2026-04-15T09:34:10Z</time></trkpt><trkpt lat="37.12337068097942" lon="14.836424310304054"><ele>756.0</ele><time>2026-04-15T09:34:11Z</time></trkpt><trkpt lat="37.123289035089094" lon="14.836490873142429"><ele>757.0</ele><time>2026-04-15T09:34:12Z</time></trkpt><trkpt lat="37.123214604671674" lon="14.836578667464345"><ele>758.0</ele><time>2026-04-15T09:34:13Z</time></trkpt><trkpt lat="37.12315564613247" lon="14.836678979420148"><ele>759.0</ele><time>2026-04-15T09:34:14Z</time></trkpt><trkpt lat="37.123100827530784" lon="14.836788861671563"><ele>760.0</ele><time>2026-04-15T09:34:15Z</time></trkpt><trkpt lat="37.123040853948304" lon="14.836894211726037"><ele>761.0</ele><time>2026-04-15T09:34:16Z</time></trkpt><trkpt lat="37.12299213061365" lon="14.836985968546088"><ele>762.8571428571428</ele><time>2026-04-15T09:34:17Z</time></trkpt><trkpt lat="37.122972989106785" lon="14.837074822907576"><ele>764.7142857142857</ele><time>2026-04-15T09:34:18Z</time></trkpt><trkpt lat="37.122966469262124" lon="14.83716734373264"><ele>766.5714285714286</ele><time>2026-04-15T09:34:19Z</time></trkpt><trkpt lat="37.12299586290515" lon="14.837245304095138"><ele>768.4285714285713</ele><time>2026-04-15T09:34:20Z</time></trkpt><trkpt lat="37.12304990293385" lon="14.837301851248716"><ele>770.2857142857143</ele><time>2026-04-15T09:34:21Z</time></trkpt><trkpt lat="37.123117567594086" lon="14.837329359102197"><ele>772.1428571428571</ele><time>2026-04-15T09:34:21.999Z</time></trkpt><trkpt lat="37.123197060664744" lon="14.83734292923575"><ele>774.0</ele><time>2026-04-15T09:34:22.999Z</time></trkpt><trkpt lat="37.123282401037784" lon="14.837327943222121"><ele>774.0</ele><time>2026-04-15T09:34:23.999Z</time></trkpt><trkpt lat="37.1233791955151" lon="14.837318076474146"><ele>774.0</ele><time>2026-04-15T09:34:24.999Z</time></trkpt><trkpt lat="37.123479936475974" lon="14.837286693765398"><ele>774.0</ele><time>2026-04-15T09:34:25.999Z</time></trkpt><trkpt lat="37.12358579085389" lon="14.837264073081203"><ele>774.0</ele><time>2026-04-15T09:34:26.999Z</time></trkpt><trkpt lat="37.12369242850983" lon="14.837266230929513"><ele>774.0</ele><time>2026-04-15T09:34:27.999Z</time></trkpt><trkpt lat="37.12380560118267" lon="14.837309535665067"><ele>774.0</ele><time>2026-04-15T09:34:28.999Z</time></trkpt><trkpt lat="37.12391250620325" lon="14.837371702604035"><ele>774.0</ele><time>2026-04-15T09:34:29.999Z</time></trkpt><trkpt lat="37.12401976776038" lon="14.83744447917242"><ele>774.0</ele><time>2026-04-15T09:34:30.999Z</time></trkpt><trkpt lat="37.12413316971723" lon="14.837511591197371"><ele>774.0</ele><time>2026-04-15T09:34:31.999Z</time></trkpt><trkpt lat="37.12424727358028" lon="14.837573639209579"><ele>771.8000000000001</ele><time>2026-04-15T09:34:32.999Z</time></trkpt><trkpt lat="37.124356153256656" lon="14.837635377796195"><ele>769.6</ele><time>2026-04-15T09:34:33.999Z</time></trkpt><trkpt lat="37.12444742280952" lon="14.83769495980365"><ele>767.4</ele><time>2026-04-15T09:34:34.999Z</time></trkpt><trkpt lat="37.12451318262364" lon="14.837769580181014"><ele>765.2</ele><time>2026-04-15T09:34:35.999Z</time></trkpt><trkpt lat="37.12456983798792" lon="14.837864154252761"><ele>763.0</ele><time>2026-04-15T09:34:36.999Z</time></trkpt><trkpt lat="37.12461258201024" lon="14.837975218997851"><ele>768.2</ele><time>2026-04-15T09:34:37.999Z</time></trkpt><trkpt lat="37.12464876125805" lon="14.838092388250821"><ele>773.4</ele><time>2026-04-15T09:34:38.999Z</time></trkpt><trkpt lat="37.124689072883506" lon="14.838207537392904"><ele>778.6</ele><time>2026-04-15T09:34:39.999Z</time></trkpt><trkpt lat="37.12472506674936" lon="14.838331929803616"><ele>783.8000000000001</ele><time>2026-04-15T09:34:40.999Z</time></trkpt><trkpt lat="37.12476257275734" lon="14.83845860529832"><ele>789.0</ele><time>2026-04-15T09:34:41.999Z</time></trkpt><trkpt lat="37.12480226112347" lon="14.838586117304667"><ele>785.6</ele><time>2026-04-15T09:34:42.999Z</time></trkpt><trkpt lat="37.1248432236992" lon="14.838707286065759"><ele>782.2</ele><time>2026-04-15T09:34:43.999Z</time></trkpt><trkpt lat="37.12488057747769" lon="14.83884082479993"><ele>778.8000000000001</ele><time>2026-04-15T09:34:44.999Z</time></trkpt><trkpt lat="37.124922990758314" lon="14.838977473459842"><ele>775.4000000000001</ele><time>2026-04-15T09:34:45.999Z</time></trkpt><trkpt lat="37.124968701936524" lon="14.839101518903322"><ele>772.0</ele><time>2026-04-15T09:34:46.999Z</time></trkpt><trkpt lat="37.12501237042086" lon="14.839235476464955"><ele>774.6</ele><time>2026-04-15T09:34:47.999Z</time></trkpt><trkpt lat="37.12507141688388" lon="14.839362830422473"><ele>777.2</ele><time>2026-04-15T09:34:48.999Z</time></trkpt><trkpt lat="37.125127562066446" lon="14.839482938270484"><ele>779.8</ele><time>2026-04-15T09:34:49.999Z</time></trkpt><trkpt lat="37.12516728485568" lon="14.839605023941822"><ele>782.4</ele><time>2026-04-15T09:34:50.999Z</time></trkpt><trkpt lat="37.12523617229873" lon="14.839699990603782"><ele>785.0</ele><time>2026-04-15T09:34:51.999Z</time></trkpt><trkpt lat="37.12530771105221" lon="14.839801317321976"><ele>785.0</ele><time>2026-04-15T09:34:52.999Z</time></trkpt><trkpt lat="37.1253892750142" lon="14.839900303369308"><ele>785.0</ele><time>2026-04-15T09:34:53.999Z</time></trkpt><trkpt lat="37.12545897426394" lon="14.84000186548177"><ele>785.0</ele><time>2026-04-15T09:34:54.999Z</time></trkpt><trkpt lat="37.12552880817163" lon="14.840113189818297"><ele>785.0</ele><time>2026-04-15T09:34:55.999Z</time></trkpt><trkpt lat="37.125606392626075" lon="14.840228082803067"><ele>784.0</ele><time>2026-04-15T09:34:56.999Z</time></trkpt><trkpt lat="37.12569486279236" lon="14.840351405698163"><ele>783.0</ele><time>2026-04-15T09:34:57.999Z</time></trkpt><trkpt lat="37.12577519314857" lon="14.840466675488818"><ele>782.0</ele><time>2026-04-15T09:34:58.999Z</time></trkpt><trkpt lat="37.125881548053734" lon="14.84057535676943"><ele>781.0</ele><time>2026-04-15T09:34:59.999Z</time></trkpt><trkpt lat="37.12597694796417" lon="14.840683381910752"><ele>781.0</ele><time>2026-04-15T09:35:00.999Z</time></trkpt><trkpt lat="37.12606808477439" lon="14.840788951569671"><ele>781.0</ele><time>2026-04-15T09:35:01.999Z</time></trkpt><trkpt lat="37.126154091649035" lon="14.840891211535624"><ele>781.0</ele><time>2026-04-15T09:35:02.999Z</time></trkpt><trkpt lat="37.1262174219665" lon="14.84097586168588"><ele>781.0</ele><time>2026-04-15T09:35:03.999Z</time></trkpt><trkpt lat="37.12627385586907" lon="14.841055649264757"><ele>781.0</ele><time>2026-04-15T09:35:04.999Z</time></trkpt><trkpt lat="37.12630989711417" lon="14.841143560150623"><ele>781.1666666666666</ele><time>2026-04-15T09:35:05.999Z</time></trkpt><trkpt lat="37.12632383379952" lon="14.841242539169947"><ele>781.3333333333333</ele><time>2026-04-15T09:35:06.999Z</time></trkpt><trkpt lat="37.12630780661375" lon="14.841335194009222"><ele>781.5</ele><time>2026-04-15T09:35:07.999Z</time></trkpt><trkpt lat="37.126273417512365" lon="14.84143175118665"><ele>781.6666666666667</ele><time>2026-04-15T09:35:08.999Z</time></trkpt><trkpt lat="37.126230717507774" lon="14.841527092810733"><ele>781.8333333333334</ele><time>2026-04-15T09:35:09.999Z</time></trkpt><trkpt lat="37.12617265918252" lon="14.841615564589166"><ele>782.0</ele><time>2026-04-15T09:35:10.999Z</time></trkpt><trkpt lat="37.12610989776008" lon="14.841716883440704"><ele>781.6</ele><time>2026-04-15T09:35:11.999Z</time></trkpt><trkpt lat="37.12605035125027" lon="14.841828561643796"><ele>781.2</ele><time>2026-04-15T09:35:12.999Z</time></trkpt><trkpt lat="37.12598398046586" lon="14.8419295892152"><ele>780.8</ele><time>2026-04-15T09:35:13.999Z</time></trkpt><trkpt lat="37.125926396375306" lon="14.842032930944583"><ele>780.4</ele><time>2026-04-15T09:35:14.999Z</time></trkpt><trkpt lat="37.1258862102042" lon="14.842152648508401"><ele>780.0</ele><time>2026-04-15T09:35:15.999Z</time></trkpt><trkpt lat="37.12585492057434" lon="14.842283795365422"><ele>780.0</ele><time>2026-04-15T09:35:16.999Z</time></trkpt><trkpt lat="37.125840619689434" lon="14.842417398525946"><ele>780.0</ele><time>2026-04-15T09:35:17.999Z</time></trkpt><trkpt lat="37.12583756937079" lon="14.842550221380034"><ele>780.0</ele><time>2026-04-15T09:35:18.999Z</time></trkpt><trkpt lat="37.12584244114159" lon="14.842685080700255"><ele>780.0</ele><time>2026-04-15T09:35:19.999Z</time></trkpt><trkpt lat="37.12586103203304" lon="14.842820942021264"><ele>780.0</ele><time>2026-04-15T09:35:20.999Z</time></trkpt><trkpt lat="37.125892275428306" lon="14.84295663169248"><ele>781.0</ele><time>2026-04-15T09:35:22Z</time></trkpt><trkpt lat="37.12591818526123" lon="14.843084587254655"><ele>782.0</ele><time>2026-04-15T09:35:23Z</time></trkpt><trkpt lat="37.12595180812927" lon="14.843216510795475"><ele>783.0</ele><time>2026-04-15T09:35:24Z</time></trkpt><trkpt lat="37.12598239211696" lon="14.84334856802791"><ele>784.0</ele><time>2026-04-15T09:35:25Z</time></trkpt><trkpt lat="37.126002714056" lon="14.843474430561944"><ele>785.0</ele><time>2026-04-15T09:35:26Z</time></trkpt><trkpt lat="37.12603503159629" lon="14.843610354171773"><ele>786.25</ele><time>2026-04-15T09:35:27Z</time></trkpt><trkpt lat="37.12606422462802" lon="14.843752070206865"><ele>787.5</ele><time>2026-04-15T09:35:28Z</time></trkpt><trkpt lat="37.126080521693744" lon="14.843887840100757"><ele>788.75</ele><time>2026-04-15T09:35:29Z</time></trkpt><trkpt lat="37.126091733443204" lon="14.844035992875936"><ele>790.0</ele><time>2026-04-15T09:35:30Z</time></trkpt><trkpt lat="37.12608710651404" lon="14.844180390371372"><ele>789.75</ele><time>2026-04-15T09:35:31Z</time></trkpt><trkpt lat="37.12606739680041" lon="14.844322594853699"><ele>789.5</ele><time>2026-04-15T09:35:32Z</time></trkpt><trkpt lat="37.12603979013526" lon="14.844462390208895"><ele>789.25</ele><time>2026-04-15T09:35:33Z</time></trkpt><trkpt lat="37.126005257388066" lon="14.844601242432548"><ele>789.0</ele><time>2026-04-15T09:35:34Z</time></trkpt><trkpt lat="37.12597047564557" lon="14.8447387320705"><ele>789.0</ele><time>2026-04-15T09:35:35Z</time></trkpt><trkpt lat="37.12592911954292" lon="14.844877908371009"><ele>789.0</ele><time>2026-04-15T09:35:36Z</time></trkpt><trkpt lat="37.125891188010044" lon="14.845020399686486"><ele>789.0</ele><time>2026-04-15T09:35:37Z</time></trkpt><trkpt lat="37.12585244894042" lon="14.84516519171964"><ele>789.0</ele><time>2026-04-15T09:35:38Z</time></trkpt><trkpt lat="37.125816392390576" lon="14.845313891139721"><ele>789.25</ele><time>2026-04-15T09:35:39Z</time></trkpt><trkpt lat="37.125782245530544" lon="14.845463783078513"><ele>789.5</ele><time>2026-04-15T09:35:40Z</time></trkpt><trkpt lat="37.12575407735319" lon="14.845610664340294"><ele>789.75</ele><time>2026-04-15T09:35:41Z</time></trkpt><trkpt lat="37.12573490632436" lon="14.845757464606505"><ele>790.0</ele><time>2026-04-15T09:35:42Z</time></trkpt><trkpt lat="37.1257327503966" lon="14.845906180288361"><ele>791.0</ele><time>2026-04-15T09:35:43Z</time></trkpt><trkpt lat="37.12574827403656" lon="14.846052018715683"><ele>792.0</ele><time>2026-04-15T09:35:44Z</time></trkpt><trkpt lat="37.125767307161766" lon="14.846185875280648"><ele>793.0</ele><time>2026-04-15T09:35:45Z</time></trkpt><trkpt lat="37.12578771461682" lon="14.846304087398055"><ele>794.0</ele><time>2026-04-15T09:35:46Z</time></trkpt><trkpt lat="37.125815489414414" lon="14.846420629650677"><ele>795.0</ele><time>2026-04-15T09:35:47Z</time></trkpt><trkpt lat="37.12584358109597" lon="14.846540359760247"><ele>795.0</ele><time>2026-04-15T09:35:48Z</time></trkpt><trkpt lat="37.12587393287168" lon="14.846661329846798"><ele>795.0</ele><time>2026-04-15T09:35:49Z</time></trkpt><trkpt lat="37.12591055705411" lon="14.846783856291854"><ele>795.0</ele><time>2026-04-15T09:35:50Z</time></trkpt><trkpt lat="37.12594514788806" lon="14.846909657115644"><ele>795.0</ele><time>2026-04-15T09:35:51Z</time></trkpt><trkpt lat="37.12598142487314" lon="14.847034768414831"><ele>795.0</ele><time>2026-04-15T09:35:52Z</time></trkpt><trkpt lat="37.1260161593262" lon="14.847161371513666"><ele>796.1666666666666</ele><time>2026-04-15T09:35:53Z</time></trkpt><trkpt lat="37.12604833534297" lon="14.847284493937403"><ele>797.3333333333333</ele><time>2026-04-15T09:35:54Z</time></trkpt><trkpt lat="37.126073211770155" lon="14.84739286377021"><ele>798.5</ele><time>2026-04-15T09:35:55Z</time></trkpt><trkpt lat="37.12609310453601" lon="14.847486090284129"><ele>799.6666666666666</ele><time>2026-04-15T09:35:56Z</time></trkpt><trkpt lat="37.12610844315994" lon="14.84756584895358"><ele>800.8333333333333</ele><time>2026-04-15T09:35:57Z</time></trkpt><trkpt lat="37.12611865559183" lon="14.847701346739003"><ele>802.0</ele><time>2026-04-15T09:35:59Z</time></trkpt><trkpt lat="37.12611111652325" lon="14.847844285372185"><ele>802.1666666666666</ele><time>2026-04-15T09:36:01Z</time></trkpt><trkpt lat="37.1261074012272" lon="14.847925573021724"><ele>802.3333333333333</ele><time>2026-04-15T09:36:02Z</time></trkpt><trkpt lat="37.1261037131401" lon="14.848012335364091"><ele>802.5</ele><time>2026-04-15T09:36:03Z</time></trkpt><trkpt lat="37.126077401544734" lon="14.848095575394215"><ele>802.6666666666667</ele><time>2026-04-15T09:36:04Z</time></trkpt><trkpt lat="37.1260524284945" lon="14.848193589154274"><ele>802.8333333333334</ele><time>2026-04-15T09:36:05Z</time></trkpt><trkpt lat="37.12602399479459" lon="14.848295234614488"><ele>803.0</ele><time>2026-04-15T09:36:06Z</time></trkpt><trkpt lat="37.12599527022554" lon="14.848398822460195"><ele>802.8</ele><time>2026-04-15T09:36:07Z</time></trkpt><trkpt lat="37.12596219140427" lon="14.84850061728079"><ele>802.5999999999999</ele><time>2026-04-15T09:36:08Z</time></trkpt><trkpt lat="37.12593328676312" lon="14.848615684879885"><ele>802.4000000000001</ele><time>2026-04-15T09:36:09Z</time></trkpt><trkpt lat="37.125907515256436" lon="14.848733840340355"><ele>802.2</ele><time>2026-04-15T09:36:10Z</time></trkpt><trkpt lat="37.12588549475698" lon="14.848856032345457"><ele>802.0</ele><time>2026-04-15T09:36:11Z</time></trkpt><trkpt lat="37.12585551082387" lon="14.848971819346712"><ele>801.9999999999999</ele><time>2026-04-15T09:36:12Z</time></trkpt><trkpt lat="37.12582417270775" lon="14.849064998655116"><ele>802.0</ele><time>2026-04-15T09:36:13Z</time></trkpt><trkpt lat="37.125786857351564" lon="14.849155810385845"><ele>802.0</ele><time>2026-04-15T09:36:14Z</time></trkpt><trkpt lat="37.125760952369575" lon="14.849246101733739"><ele>802.0</ele><time>2026-04-15T09:36:15Z</time></trkpt><trkpt lat="37.12573692031159" lon="14.849337342732937"><ele>801.9999999999999</ele><time>2026-04-15T09:36:16Z</time></trkpt><trkpt lat="37.125699637073886" lon="14.849422637338325"><ele>802.0</ele><time>2026-04-15T09:36:17Z</time></trkpt><trkpt lat="37.12564895780762" lon="14.849501019266695"><ele>805.1666666666666</ele><time>2026-04-15T09:36:18Z</time></trkpt><trkpt lat="37.125638080035095" lon="14.849610136710876"><ele>808.3333333333333</ele><time>2026-04-15T09:36:19Z</time></trkpt><trkpt lat="37.125605807966814" lon="14.849711618699041"><ele>811.5</ele><time>2026-04-15T09:36:20Z</time></trkpt><trkpt lat="37.125585668178" lon="14.849833424750843"><ele>814.6666666666667</ele><time>2026-04-15T09:36:21Z</time></trkpt><trkpt lat="37.12556292373487" lon="14.849923595170521"><ele>817.8333333333334</ele><time>2026-04-15T09:36:21.999Z</time></trkpt><trkpt lat="37.12553411972004" lon="14.850005779597236"><ele>821.0</ele><time>2026-04-15T09:36:22.999Z</time></trkpt><trkpt lat="37.12551827257009" lon="14.850097878396111"><ele>820.1428571428572</ele><time>2026-04-15T09:36:23.999Z</time></trkpt><trkpt lat="37.125488394080115" lon="14.850187532247547"><ele>819.2857142857143</ele><time>2026-04-15T09:36:24.999Z</time></trkpt><trkpt lat="37.125464009867336" lon="14.850267729623031"><ele>818.4285714285714</ele><time>2026-04-15T09:36:25.999Z</time></trkpt><trkpt lat="37.125455405642946" lon="14.85035561700239"><ele>817.5714285714287</ele><time>2026-04-15T09:36:26.999Z</time></trkpt><trkpt lat="37.1254446134383" lon="14.850434574397429"><ele>816.7142857142857</ele><time>2026-04-15T09:36:27.999Z</time></trkpt><trkpt lat="37.12542080115967" lon="14.850511707272743"><ele>815.8571428571429</ele><time>2026-04-15T09:36:28.999Z</time></trkpt><trkpt lat="37.12538919383818" lon="14.850598549787543"><ele>815.0</ele><time>2026-04-15T09:36:29.999Z</time></trkpt><trkpt lat="37.12538275765551" lon="14.85069669051198"><ele>815.0</ele><time>2026-04-15T09:36:30.999Z</time></trkpt><trkpt lat="37.12536128916352" lon="14.85078769324128"><ele>815.0</ele><time>2026-04-15T09:36:31.999Z</time></trkpt><trkpt lat="37.12533384148695" lon="14.850888405312487"><ele>815.0</ele><time>2026-04-15T09:36:32.999Z</time></trkpt><trkpt lat="37.125306317414385" lon="14.850972170430941"><ele>815.0</ele><time>2026-04-15T09:36:33.999Z</time></trkpt><trkpt lat="37.12528162999361" lon="14.851049327269996"><ele>815.0</ele><time>2026-04-15T09:36:34.999Z</time></trkpt><trkpt lat="37.12525906552738" lon="14.851137307227324"><ele>815.0</ele><time>2026-04-15T09:36:35.999Z</time></trkpt><trkpt lat="37.125236952814895" lon="14.851224393133874"><ele>815.0</ele><time>2026-04-15T09:36:36.999Z</time></trkpt><trkpt lat="37.12521102600698" lon="14.851312182729426"><ele>815.0000000000001</ele><time>2026-04-15T09:36:37.999Z</time></trkpt><trkpt lat="37.12518029921425" lon="14.851394607833925"><ele>815.0</ele><time>2026-04-15T09:36:38.999Z</time></trkpt><trkpt lat="37.12515963442328" lon="14.851473182739195"><ele>815.0</ele><time>2026-04-15T09:36:39.999Z</time></trkpt><trkpt lat="37.12511256005475" lon="14.851606884531732"><ele>815.0</ele><time>2026-04-15T09:36:41.999Z</time></trkpt><trkpt lat="37.12508613783598" lon="14.851711545386351"><ele>815.0000000000001</ele><time>2026-04-15T09:36:43.999Z</time></trkpt><trkpt lat="37.125074637724026" lon="14.851790772804868"><ele>815.0</ele><time>2026-04-15T09:36:45.999Z</time></trkpt><trkpt lat="37.12505230017975" lon="14.851907738553779"><ele>815.0000000000001</ele><time>2026-04-15T09:36:47.999Z</time></trkpt><trkpt lat="37.12503459460862" lon="14.852010367408509"><ele>815.0</ele><time>2026-04-15T09:36:49.999Z</time></trkpt><trkpt lat="37.12500182385835" lon="14.852119464831928"><ele>815.0</ele><time>2026-04-15T09:36:52.999Z</time></trkpt><trkpt lat="37.124995529726206" lon="14.852216555080563"><ele>815.0</ele><time>2026-04-15T09:36:54.999Z</time></trkpt><trkpt lat="37.124937621077855" lon="14.852260950815248"><ele>815.0000000000001</ele><time>2026-04-15T09:37:40Z</time></trkpt><trkpt lat="37.12496351235161" lon="14.852353468077986"><ele>815.0</ele><time>2026-04-15T09:37:44Z</time></trkpt><trkpt lat="37.125035389264745" lon="14.852361454806205"><ele>815.0000000000001</ele><time>2026-04-15T09:37:48Z</time></trkpt><trkpt lat="37.12498904102444" lon="14.852288170126048"><ele>815.0</ele><time>2026-04-15T09:37:51Z</time></trkpt><trkpt lat="37.124950526503795" lon="14.85222430995922"><ele>815.0</ele><time>2026-04-15T09:37:53Z</time></trkpt><trkpt lat="37.12498875629406" lon="14.852111052615019"><ele>815.0</ele><time>2026-04-15T09:37:55Z</time></trkpt><trkpt lat="37.12502298302843" lon="14.851988250868871"><ele>815.0000000000001</ele><time>2026-04-15T09:37:57Z</time></trkpt><trkpt lat="37.12504097807173" lon="14.851870613312045"><ele>815.0</ele><time>2026-04-15T09:37:59Z</time></trkpt><trkpt lat="37.125060784374256" lon="14.851767810496545"><ele>814.2</ele><time>2026-04-15T09:38:01Z</time></trkpt><trkpt lat="37.125083714095275" lon="14.851624471839306"><ele>813.4</ele><time>2026-04-15T09:38:03Z</time></trkpt><trkpt lat="37.12509831747445" lon="14.8514875395889"><ele>812.5999999999999</ele><time>2026-04-15T09:38:05Z</time></trkpt><trkpt lat="37.12512388777517" lon="14.85137893670402"><ele>811.8</ele><time>2026-04-15T09:38:07Z</time></trkpt><trkpt lat="37.12518978174865" lon="14.851268018753577"><ele>811.0</ele><time>2026-04-15T09:38:09Z</time></trkpt><trkpt lat="37.12522389899385" lon="14.85115000370091"><ele>810.9999999999999</ele><time>2026-04-15T09:38:11Z</time></trkpt><trkpt lat="37.12528289215086" lon="14.851042886699359"><ele>811.0</ele><time>2026-04-15T09:38:13Z</time></trkpt><trkpt lat="37.12532916871026" lon="14.850983875783665"><ele>811.0</ele><time>2026-04-15T09:38:14Z</time></trkpt><trkpt lat="37.12536004430217" lon="14.850913519087056"><ele>811.0</ele><time>2026-04-15T09:38:15Z</time></trkpt><trkpt lat="37.125392077394835" lon="14.850844280608708"><ele>810.9999999999999</ele><time>2026-04-15T09:38:16Z</time></trkpt><trkpt lat="37.12545365435617" lon="14.850710243247146"><ele>811.0</ele><time>2026-04-15T09:38:18Z</time></trkpt><trkpt lat="37.12552126983365" lon="14.850581595238635"><ele>811.8</ele><time>2026-04-15T09:38:20Z</time></trkpt><trkpt lat="37.125594111770624" lon="14.850451107448404"><ele>812.5999999999999</ele><time>2026-04-15T09:38:22Z</time></trkpt><trkpt lat="37.12561839913267" lon="14.850370664422922"><ele>813.4</ele><time>2026-04-15T09:38:23Z</time></trkpt><trkpt lat="37.12568806392821" lon="14.85024796273269"><ele>814.2</ele><time>2026-04-15T09:38:25Z</time></trkpt><trkpt lat="37.1257458665869" lon="14.850155844434767"><ele>815.0</ele><time>2026-04-15T09:38:27Z</time></trkpt><trkpt lat="37.12580397469891" lon="14.850040022182029"><ele>813.1428571428571</ele><time>2026-04-15T09:38:29Z</time></trkpt><trkpt lat="37.125838615360216" lon="14.84997019297959"><ele>811.2857142857142</ele><time>2026-04-15T09:38:30Z</time></trkpt><trkpt lat="37.12587765268814" lon="14.849896964243456"><ele>809.4285714285714</ele><time>2026-04-15T09:38:31Z</time></trkpt><trkpt lat="37.125919904039776" lon="14.849824778490728"><ele>807.5714285714286</ele><time>2026-04-15T09:38:32Z</time></trkpt><trkpt lat="37.125963527790475" lon="14.849742271492135"><ele>805.7142857142858</ele><time>2026-04-15T09:38:33Z</time></trkpt><trkpt lat="37.12599978337458" lon="14.849654228844027"><ele>803.8571428571429</ele><time>2026-04-15T09:38:34Z</time></trkpt><trkpt lat="37.12603471714437" lon="14.84957055671639"><ele>802.0</ele><time>2026-04-15T09:38:35Z</time></trkpt><trkpt lat="37.12610167813387" lon="14.84944214802756"><ele>802.0</ele><time>2026-04-15T09:38:37Z</time></trkpt><trkpt lat="37.126160276345686" lon="14.849325432100628"><ele>802.0</ele><time>2026-04-15T09:38:38.999Z</time></trkpt><trkpt lat="37.12621293896648" lon="14.849218209773486"><ele>802.0</ele><time>2026-04-15T09:38:40.999Z</time></trkpt><trkpt lat="37.12625696104155" lon="14.849104982406985"><ele>802.0</ele><time>2026-04-15T09:38:42.999Z</time></trkpt><trkpt lat="37.126294199294115" lon="14.849040875034074"><ele>802.0</ele><time>2026-04-15T09:38:44.999Z</time></trkpt><trkpt lat="37.12635325645516" lon="14.848972616064083"><ele>801.9999999999999</ele><time>2026-04-15T09:38:49.999Z</time></trkpt><trkpt lat="37.126420042052665" lon="14.848917093601479"><ele>802.0</ele><time>2026-04-15T09:38:51.999Z</time></trkpt><trkpt lat="37.12648066621092" lon="14.848882040972835"><ele>802.0</ele><time>2026-04-15T09:38:53.999Z</time></trkpt><trkpt lat="37.12657038568072" lon="14.848857414426996"><ele>802.0</ele><time>2026-04-15T09:38:56.999Z</time></trkpt><trkpt lat="37.12663616001308" lon="14.84882677247067"><ele>801.9999999999999</ele><time>2026-04-15T09:38:58.999Z</time></trkpt><trkpt lat="37.12668352814358" lon="14.848750089142406"><ele>802.0</ele><time>2026-04-15T09:39:00.999Z</time></trkpt><trkpt lat="37.126727882999745" lon="14.848656408095664"><ele>801.75</ele><time>2026-04-15T09:39:02.999Z</time></trkpt><trkpt lat="37.1267578159939" lon="14.84858050484385"><ele>801.5</ele><time>2026-04-15T09:39:13.999Z</time></trkpt><trkpt lat="37.126787656609665" lon="14.848501971181376"><ele>801.25</ele><time>2026-04-15T09:39:20.999Z</time></trkpt><trkpt lat="37.127017945562315" lon="14.84841517859159"><ele>801.0</ele><time>2026-04-15T10:14:58.998Z</time></trkpt><trkpt lat="37.12693731688514" lon="14.848450858223234"><ele>801.0</ele><time>2026-04-15T10:15:03.998Z</time></trkpt><trkpt lat="37.1268198967618" lon="14.848538584189011"><ele>801.0</ele><time>2026-04-15T10:18:04Z</time></trkpt><trkpt lat="37.12687308651249" lon="14.848495561024667"><ele>801.0</ele><time>2026-04-15T10:18:12.999Z</time></trkpt><trkpt lat="37.126926488975094" lon="14.848284414338206"><ele>801.0</ele><time>2026-04-15T10:25:35.998Z</time></trkpt><trkpt lat="37.126924476832" lon="14.848158316832773"><ele>800.0</ele><time>2026-04-15T10:25:37.998Z</time></trkpt><trkpt lat="37.12688652379246" lon="14.848053866093286"><ele>799.0</ele><time>2026-04-15T10:25:39.998Z</time></trkpt><trkpt lat="37.12682812426907" lon="14.847941267312567"><ele>798.0</ele><time>2026-04-15T10:25:41.998Z</time></trkpt><trkpt lat="37.12678464858439" lon="14.847787337619236"><ele>797.0</ele><time>2026-04-15T10:25:43.998Z</time></trkpt><trkpt lat="37.12677783071128" lon="14.847685101852164"><ele>796.0</ele><time>2026-04-15T10:25:44.998Z</time></trkpt><trkpt lat="37.126782374235134" lon="14.847571994656576"><ele>796.9999999999999</ele><time>2026-04-15T10:25:46Z</time></trkpt><trkpt lat="37.126790773286174" lon="14.847468143631994"><ele>798.0</ele><time>2026-04-15T10:25:47Z</time></trkpt><trkpt lat="37.126772703010154" lon="14.847372054286971"><ele>799.0</ele><time>2026-04-15T10:25:48Z</time></trkpt><trkpt lat="37.12672729029328" lon="14.847292497222977"><ele>800.0</ele><time>2026-04-15T10:25:49Z</time></trkpt><trkpt lat="37.12666066467806" lon="14.847234712661287"><ele>800.9999999999999</ele><time>2026-04-15T10:25:50Z</time></trkpt><trkpt lat="37.126587669151114" lon="14.847174784016733"><ele>802.0</ele><time>2026-04-15T10:25:51Z</time></trkpt><trkpt lat="37.12650863875194" lon="14.847097796435168"><ele>802.0</ele><time>2026-04-15T10:25:52Z</time></trkpt><trkpt lat="37.12643797608652" lon="14.847019820361387"><ele>802.0</ele><time>2026-04-15T10:25:53Z</time></trkpt><trkpt lat="37.12635447416167" lon="14.846947733243827"><ele>802.0</ele><time>2026-04-15T10:25:54Z</time></trkpt><trkpt lat="37.12627436984544" lon="14.846855635796452"><ele>802.0</ele><time>2026-04-15T10:25:55Z</time></trkpt><trkpt lat="37.12620136664925" lon="14.846749629407459"><ele>802.0</ele><time>2026-04-15T10:25:56Z</time></trkpt><trkpt lat="37.1261348456556" lon="14.846632771582014"><ele>800.25</ele><time>2026-04-15T10:25:57Z</time></trkpt><trkpt lat="37.12608697136094" lon="14.846472636662657"><ele>798.5</ele><time>2026-04-15T10:25:58Z</time></trkpt><trkpt lat="37.126076934763226" lon="14.846281517385767"><ele>796.75</ele><time>2026-04-15T10:25:59Z</time></trkpt><trkpt lat="37.126103260682875" lon="14.846092178625721"><ele>795.0</ele><time>2026-04-15T10:26:00Z</time></trkpt><trkpt lat="37.1261179850054" lon="14.845907834636416"><ele>793.3333333333333</ele><time>2026-04-15T10:26:01Z</time></trkpt><trkpt lat="37.12613031762489" lon="14.845708572564707"><ele>791.6666666666666</ele><time>2026-04-15T10:26:02Z</time></trkpt><trkpt lat="37.1261478706387" lon="14.84550029379083"><ele>790.0</ele><time>2026-04-15T10:26:03Z</time></trkpt><trkpt lat="37.126165059223815" lon="14.845285557849627"><ele>789.6666666666666</ele><time>2026-04-15T10:26:04Z</time></trkpt><trkpt lat="37.12618063465247" lon="14.845059826393085"><ele>789.3333333333333</ele><time>2026-04-15T10:26:05Z</time></trkpt><trkpt lat="37.12619417948042" lon="14.844826056790996"><ele>789.0</ele><time>2026-04-15T10:26:06Z</time></trkpt><trkpt lat="37.126205915838675" lon="14.84460452112387"><ele>789.0</ele><time>2026-04-15T10:26:07Z</time></trkpt><trkpt lat="37.12620181655484" lon="14.844412412846868"><ele>789.0</ele><time>2026-04-15T10:26:08Z</time></trkpt><trkpt lat="37.1261817724674" lon="14.844242561612894"><ele>789.0</ele><time>2026-04-15T10:26:09Z</time></trkpt><trkpt lat="37.12616904552402" lon="14.844114851026761"><ele>789.0</ele><time>2026-04-15T10:26:10Z</time></trkpt><trkpt lat="37.12614367528533" lon="14.843997043123382"><ele>789.25</ele><time>2026-04-15T10:26:11Z</time></trkpt><trkpt lat="37.1261027026398" lon="14.84387468236898"><ele>789.5</ele><time>2026-04-15T10:26:12Z</time></trkpt><trkpt lat="37.12605527276461" lon="14.843724352056821"><ele>789.75</ele><time>2026-04-15T10:26:13Z</time></trkpt><trkpt lat="37.12601399560791" lon="14.843536111783106"><ele>790.0</ele><time>2026-04-15T10:26:14Z</time></trkpt><trkpt lat="37.12597645108947" lon="14.843347384020586"><ele>788.3333333333333</ele><time>2026-04-15T10:26:15Z</time></trkpt><trkpt lat="37.12594074322104" lon="14.843162822273037"><ele>786.6666666666667</ele><time>2026-04-15T10:26:16Z</time></trkpt><trkpt lat="37.125909345682125" lon="14.842971116962387"><ele>785.0</ele><time>2026-04-15T10:26:17Z</time></trkpt><trkpt lat="37.12587659921824" lon="14.842774208966496"><ele>783.3333333333334</ele><time>2026-04-15T10:26:18Z</time></trkpt><trkpt lat="37.12586472804749" lon="14.842563473020622"><ele>781.6666666666667</ele><time>2026-04-15T10:26:19Z</time></trkpt><trkpt lat="37.12588237487569" lon="14.842346689673736"><ele>780.0</ele><time>2026-04-15T10:26:20Z</time></trkpt><trkpt lat="37.12591880316062" lon="14.842140059211223"><ele>780.0</ele><time>2026-04-15T10:26:21Z</time></trkpt><trkpt lat="37.12599245945446" lon="14.841953843470796"><ele>780.0</ele><time>2026-04-15T10:26:22Z</time></trkpt><trkpt lat="37.12609251994157" lon="14.841777231943594"><ele>780.0</ele><time>2026-04-15T10:26:23Z</time></trkpt><trkpt lat="37.126189667214554" lon="14.841594973249476"><ele>780.5</ele><time>2026-04-15T10:26:24Z</time></trkpt><trkpt lat="37.12627153413811" lon="14.84141010457601"><ele>781.0</ele><time>2026-04-15T10:26:25Z</time></trkpt><trkpt lat="37.126323058727756" lon="14.841250503135456"><ele>781.5</ele><time>2026-04-15T10:26:26Z</time></trkpt><trkpt lat="37.12633217474426" lon="14.84111441464448"><ele>782.0</ele><time>2026-04-15T10:26:27Z</time></trkpt><trkpt lat="37.12629145537537" lon="14.840986276173366"><ele>781.75</ele><time>2026-04-15T10:26:28Z</time></trkpt><trkpt lat="37.126199408683796" lon="14.840880735967646"><ele>781.5</ele><time>2026-04-15T10:26:29Z</time></trkpt><trkpt lat="37.12610707530865" lon="14.840763961891394"><ele>781.25</ele><time>2026-04-15T10:26:30Z</time></trkpt><trkpt lat="37.12600296616387" lon="14.8406370633345"><ele>781.0</ele><time>2026-04-15T10:26:31Z</time></trkpt><trkpt lat="37.12589595995746" lon="14.840495338613543"><ele>781.0</ele><time>2026-04-15T10:26:32Z</time></trkpt><trkpt lat="37.125785438411896" lon="14.8403455937145"><ele>781.0</ele><time>2026-04-15T10:26:33Z</time></trkpt><trkpt lat="37.125674761716716" lon="14.840195832151855"><ele>781.0</ele><time>2026-04-15T10:26:33.999Z</time></trkpt><trkpt lat="37.12555692363167" lon="14.840051599048188"><ele>782.3333333333333</ele><time>2026-04-15T10:26:34.999Z</time></trkpt><trkpt lat="37.12543351964093" lon="14.83990481348157"><ele>783.6666666666667</ele><time>2026-04-15T10:26:35.999Z</time></trkpt><trkpt lat="37.12531439220923" lon="14.83976448627578"><ele>785.0</ele><time>2026-04-15T10:26:36.999Z</time></trkpt><trkpt lat="37.12520754398208" lon="14.839633149820697"><ele>785.0</ele><time>2026-04-15T10:26:37.999Z</time></trkpt><trkpt lat="37.125118966808316" lon="14.839501659162433"><ele>785.0</ele><time>2026-04-15T10:26:38.999Z</time></trkpt><trkpt lat="37.12504188839359" lon="14.839355918898375"><ele>785.0</ele><time>2026-04-15T10:26:39.999Z</time></trkpt><trkpt lat="37.124987149478315" lon="14.83918045637132"><ele>785.0</ele><time>2026-04-15T10:26:40.999Z</time></trkpt><trkpt lat="37.12494810934025" lon="14.83899437619978"><ele>786.3333333333334</ele><time>2026-04-15T10:26:41.999Z</time></trkpt><trkpt lat="37.124902027804694" lon="14.838812848391406"><ele>787.6666666666667</ele><time>2026-04-15T10:26:42.999Z</time></trkpt><trkpt lat="37.12483676826245" lon="14.838622717411829"><ele>789.0</ele><time>2026-04-15T10:26:43.999Z</time></trkpt><trkpt lat="37.1247663893915" lon="14.838424579638758"><ele>789.0</ele><time>2026-04-15T10:26:44.999Z</time></trkpt><trkpt lat="37.1247032258982" lon="14.83823625581453"><ele>789.0</ele><time>2026-04-15T10:26:45.999Z</time></trkpt><trkpt lat="37.12464280323649" lon="14.83806059703889"><ele>789.0</ele><time>2026-04-15T10:26:46.999Z</time></trkpt><trkpt lat="37.12458770388877" lon="14.837903123716012"><ele>789.0</ele><time>2026-04-15T10:26:47.999Z</time></trkpt><trkpt lat="37.124537078476784" lon="14.837764706637666"><ele>789.0</ele><time>2026-04-15T10:26:48.999Z</time></trkpt><trkpt lat="37.12445739588665" lon="14.837659767613067"><ele>789.0</ele><time>2026-04-15T10:26:49.999Z</time></trkpt><trkpt lat="37.12432687388633" lon="14.83757906897001"><ele>789.0</ele><time>2026-04-15T10:26:50.999Z</time></trkpt><trkpt lat="37.12417200639494" lon="14.837516054317216"><ele>784.0</ele><time>2026-04-15T10:26:51.999Z</time></trkpt><trkpt lat="37.12400409688525" lon="14.837427180437727"><ele>779.0</ele><time>2026-04-15T10:26:52.999Z</time></trkpt><trkpt lat="37.12385035427897" lon="14.837339754786807"><ele>774.0</ele><time>2026-04-15T10:26:53.999Z</time></trkpt><trkpt lat="37.12371058966829" lon="14.837261039147506"><ele>774.0</ele><time>2026-04-15T10:26:54.999Z</time></trkpt><trkpt lat="37.12358323102353" lon="14.837219780627661"><ele>774.0</ele><time>2026-04-15T10:26:55.999Z</time></trkpt><trkpt lat="37.12345107807476" lon="14.837253878322734"><ele>774.0</ele><time>2026-04-15T10:26:56.999Z</time></trkpt><trkpt lat="37.12332748330285" lon="14.837321415364428"><ele>774.0</ele><time>2026-04-15T10:26:57.999Z</time></trkpt><trkpt lat="37.12320421008646" lon="14.837335172473999"><ele>775.2</ele><time>2026-04-15T10:26:58.999Z</time></trkpt><trkpt lat="37.12308222349374" lon="14.837296809426388"><ele>776.4000000000001</ele><time>2026-04-15T10:26:59.999Z</time></trkpt><trkpt lat="37.122999924815126" lon="14.837222967256068"><ele>777.6</ele><time>2026-04-15T10:27:00.999Z</time></trkpt><trkpt lat="37.12296522580548" lon="14.837139116971352"><ele>778.8</ele><time>2026-04-15T10:27:01.999Z</time></trkpt><trkpt lat="37.12296512447697" lon="14.837037980938247"><ele>780.0</ele><time>2026-04-15T10:27:02.999Z</time></trkpt><trkpt lat="37.123008741260996" lon="14.83692669450232"><ele>780.0</ele><time>2026-04-15T10:27:03.999Z</time></trkpt><trkpt lat="37.12308513675376" lon="14.836822523165477"><ele>780.0</ele><time>2026-04-15T10:27:04.999Z</time></trkpt><trkpt lat="37.12316738286457" lon="14.83671630365941"><ele>780.0</ele><time>2026-04-15T10:27:05.999Z</time></trkpt><trkpt lat="37.12323931774712" lon="14.836584795922155"><ele>780.0</ele><time>2026-04-15T10:27:06.999Z</time></trkpt><trkpt lat="37.123340311903355" lon="14.836472862715343"><ele>774.0</ele><time>2026-04-15T10:27:07.999Z</time></trkpt><trkpt lat="37.12346183477283" lon="14.836410353594111"><ele>768.0</ele><time>2026-04-15T10:27:08.999Z</time></trkpt><trkpt lat="37.12360514734993" lon="14.836385118086831"><ele>762.0</ele><time>2026-04-15T10:27:09.999Z</time></trkpt><trkpt lat="37.12377092037591" lon="14.836383396981258"><ele>756.0</ele><time>2026-04-15T10:27:10.999Z</time></trkpt><trkpt lat="37.123954190991775" lon="14.836398426301457"><ele>756.3333333333334</ele><time>2026-04-15T10:27:11.999Z</time></trkpt><trkpt lat="37.12413351187147" lon="14.836426045853019"><ele>756.6666666666667</ele><time>2026-04-15T10:27:12.999Z</time></trkpt><trkpt lat="37.12430827347962" lon="14.836450358214835"><ele>757.0</ele><time>2026-04-15T10:27:13.999Z</time></trkpt><trkpt lat="37.124495311654705" lon="14.836472793863468"><ele>757.0</ele><time>2026-04-15T10:27:14.999Z</time></trkpt><trkpt lat="37.12467847118065" lon="14.836504178753568"><ele>757.0</ele><time>2026-04-15T10:27:15.999Z</time></trkpt><trkpt lat="37.12487240813339" lon="14.836548633883433"><ele>757.0</ele><time>2026-04-15T10:27:16.999Z</time></trkpt><trkpt lat="37.12506880286905" lon="14.836615864203397"><ele>760.0</ele><time>2026-04-15T10:27:17.999Z</time></trkpt><trkpt lat="37.12527329627671" lon="14.836693226729347"><ele>763.0</ele><time>2026-04-15T10:27:18.999Z</time></trkpt><trkpt lat="37.125471441734426" lon="14.836770657255185"><ele>766.0</ele><time>2026-04-15T10:27:19.999Z</time></trkpt><trkpt lat="37.125656960113155" lon="14.836859445964919"><ele>763.3333333333334</ele><time>2026-04-15T10:27:20.999Z</time></trkpt><trkpt lat="37.125815283427414" lon="14.837000749237166"><ele>760.6666666666666</ele><time>2026-04-15T10:27:21.999Z</time></trkpt><trkpt lat="37.12595641895476" lon="14.837176306489585"><ele>758.0</ele><time>2026-04-15T10:27:22.999Z</time></trkpt><trkpt lat="37.12611734205572" lon="14.837361460416084"><ele>758.0</ele><time>2026-04-15T10:27:23.999Z</time></trkpt><trkpt lat="37.12626507853886" lon="14.8375513125321"><ele>758.0</ele><time>2026-04-15T10:27:24.999Z</time></trkpt><trkpt lat="37.12638745904003" lon="14.837688985474543"><ele>758.0</ele><time>2026-04-15T10:27:25.999Z</time></trkpt><trkpt lat="37.12652071236789" lon="14.837761040659029"><ele>757.0</ele><time>2026-04-15T10:27:26.999Z</time></trkpt><trkpt lat="37.12665560121094" lon="14.837767071373786"><ele>756.0</ele><time>2026-04-15T10:27:27.999Z</time></trkpt><trkpt lat="37.126807453573115" lon="14.837751408980251"><ele>755.0</ele><time>2026-04-15T10:27:28.999Z</time></trkpt><trkpt lat="37.12697136314971" lon="14.83771061027189"><ele>755.0</ele><time>2026-04-15T10:27:29.999Z</time></trkpt><trkpt lat="37.12714171062652" lon="14.837661432609712"><ele>755.0</ele><time>2026-04-15T10:27:30.999Z</time></trkpt><trkpt lat="37.127314097327" lon="14.837614107906235"><ele>755.0</ele><time>2026-04-15T10:27:31.999Z</time></trkpt><trkpt lat="37.12748641535627" lon="14.837586555572834"><ele>757.0</ele><time>2026-04-15T10:27:32.999Z</time></trkpt><trkpt lat="37.12765343856656" lon="14.837579565279844"><ele>759.0</ele><time>2026-04-15T10:27:33.999Z</time></trkpt><trkpt lat="37.127833474487595" lon="14.83759450766362"><ele>761.0</ele><time>2026-04-15T10:27:34.999Z</time></trkpt><trkpt lat="37.12801054175779" lon="14.837636540032978"><ele>761.0</ele><time>2026-04-15T10:27:35.999Z</time></trkpt><trkpt lat="37.12817776586543" lon="14.837657844006428"><ele>761.0</ele><time>2026-04-15T10:27:36.999Z</time></trkpt><trkpt lat="37.12834799914743" lon="14.837616343122626"><ele>761.0</ele><time>2026-04-15T10:27:37.998Z</time></trkpt><trkpt lat="37.12851220230155" lon="14.837523999562892"><ele>767.6666666666666</ele><time>2026-04-15T10:27:38.998Z</time></trkpt><trkpt lat="37.128676870338616" lon="14.837408630304905"><ele>774.3333333333333</ele><time>2026-04-15T10:27:39.998Z</time></trkpt><trkpt lat="37.12884058884725" lon="14.837332070737174"><ele>781.0</ele><time>2026-04-15T10:27:40.998Z</time></trkpt><trkpt lat="37.12900482671565" lon="14.837288307772189"><ele>782.0</ele><time>2026-04-15T10:27:41.998Z</time></trkpt><trkpt lat="37.12917360982544" lon="14.83728439193257"><ele>783.0</ele><time>2026-04-15T10:27:42.998Z</time></trkpt><trkpt lat="37.12934398109565" lon="14.837324522222245"><ele>784.0</ele><time>2026-04-15T10:27:43.998Z</time></trkpt><trkpt lat="37.129510437774755" lon="14.837396345306953"><ele>784.0</ele><time>2026-04-15T10:27:44.998Z</time></trkpt><trkpt lat="37.12967841193407" lon="14.837452887813361"><ele>784.0</ele><time>2026-04-15T10:27:45.998Z</time></trkpt><trkpt lat="37.12985233856223" lon="14.837472050113192"><ele>784.0</ele><time>2026-04-15T10:27:46.998Z</time></trkpt><trkpt lat="37.13002062279933" lon="14.83745189320651"><ele>784.5</ele><time>2026-04-15T10:27:47.998Z</time></trkpt><trkpt lat="37.1301600696377" lon="14.8373925321571"><ele>785.0</ele><time>2026-04-15T10:27:48.998Z</time></trkpt><trkpt lat="37.130262585493625" lon="14.837314024847652"><ele>785.5</ele><time>2026-04-15T10:27:49.998Z</time></trkpt><trkpt lat="37.130329539315056" lon="14.837200336582049"><ele>786.0</ele><time>2026-04-15T10:27:50.998Z</time></trkpt><trkpt lat="37.13035843337699" lon="14.837053131550402"><ele>786.0</ele><time>2026-04-15T10:27:52Z</time></trkpt><trkpt lat="37.13037949164295" lon="14.83687850687834"><ele>786.0</ele><time>2026-04-15T10:27:53Z</time></trkpt><trkpt lat="37.13038444860148" lon="14.83667569906357"><ele>786.0</ele><time>2026-04-15T10:27:54Z</time></trkpt><trkpt lat="37.130376839719304" lon="14.836463825503746"><ele>790.3333333333333</ele><time>2026-04-15T10:27:55Z</time></trkpt><trkpt lat="37.1303536172746" lon="14.836238429905514"><ele>794.6666666666666</ele><time>2026-04-15T10:27:56Z</time></trkpt><trkpt lat="37.130320287346564" lon="14.836032469288657"><ele>799.0</ele><time>2026-04-15T10:27:57Z</time></trkpt><trkpt lat="37.13028586885176" lon="14.835821185619219"><ele>800.6666666666666</ele><time>2026-04-15T10:27:58Z</time></trkpt><trkpt lat="37.13026029456453" lon="14.835611120932251"><ele>802.3333333333333</ele><time>2026-04-15T10:27:59Z</time></trkpt><trkpt lat="37.13023637072312" lon="14.835412882411909"><ele>804.0</ele><time>2026-04-15T10:28:00Z</time></trkpt><trkpt lat="37.130185975589775" lon="14.835237619231291"><ele>804.5</ele><time>2026-04-15T10:28:01Z</time></trkpt><trkpt lat="37.13011166324264" lon="14.835079830357166"><ele>805.0</ele><time>2026-04-15T10:28:02Z</time></trkpt><trkpt lat="37.13004440611648" lon="14.834952055114695"><ele>805.5</ele><time>2026-04-15T10:28:03Z</time></trkpt><trkpt lat="37.130028594929634" lon="14.834835088509296"><ele>806.0</ele><time>2026-04-15T10:28:04Z</time></trkpt><trkpt lat="37.13006196038344" lon="14.834731398831146"><ele>806.0</ele><time>2026-04-15T10:28:05Z</time></trkpt><trkpt lat="37.1301349751921" lon="14.834655473727759"><ele>806.0</ele><time>2026-04-15T10:28:06Z</time></trkpt><trkpt lat="37.13022744729586" lon="14.834603056312304"><ele>806.0</ele><time>2026-04-15T10:28:07Z</time></trkpt><trkpt lat="37.1303431981001" lon="14.834536824317263"><ele>806.0</ele><time>2026-04-15T10:28:08Z</time></trkpt><trkpt lat="37.130467550516606" lon="14.83446088241452"><ele>806.0</ele><time>2026-04-15T10:28:09Z</time></trkpt><trkpt lat="37.13060720564155" lon="14.834378165252797"><ele>806.0</ele><time>2026-04-15T10:28:10Z</time></trkpt><trkpt lat="37.13075825564554" lon="14.834314864551716"><ele>806.0</ele><time>2026-04-15T10:28:11Z</time></trkpt><trkpt lat="37.13092216517541" lon="14.834287623816058"><ele>805.6666666666667</ele><time>2026-04-15T10:28:12Z</time></trkpt><trkpt lat="37.13109828000244" lon="14.834300126068452"><ele>805.3333333333333</ele><time>2026-04-15T10:28:13Z</time></trkpt><trkpt lat="37.13127122771018" lon="14.834321018818489"><ele>805.0</ele><time>2026-04-15T10:28:14Z</time></trkpt><trkpt lat="37.131439431106834" lon="14.834341117392812"><ele>805.3333333333333</ele><time>2026-04-15T10:28:15Z</time></trkpt><trkpt lat="37.13158864684967" lon="14.834337466642623"><ele>805.6666666666667</ele><time>2026-04-15T10:28:16Z</time></trkpt><trkpt lat="37.13172428044223" lon="14.834271024474209"><ele>806.0</ele><time>2026-04-15T10:28:17Z</time></trkpt><trkpt lat="37.13186182678902" lon="14.834167112272038"><ele>806.0</ele><time>2026-04-15T10:28:18Z</time></trkpt><trkpt lat="37.13200619765596" lon="14.834032312050528"><ele>806.0</ele><time>2026-04-15T10:28:19Z</time></trkpt><trkpt lat="37.13217191904233" lon="14.833885903211597"><ele>806.0</ele><time>2026-04-15T10:28:20Z</time></trkpt><trkpt lat="37.13232341876159" lon="14.83373383530016"><ele>806.6666666666667</ele><time>2026-04-15T10:28:21Z</time></trkpt><trkpt lat="37.13248478458017" lon="14.833564663135183"><ele>807.3333333333333</ele><time>2026-04-15T10:28:22Z</time></trkpt><trkpt lat="37.13265341237103" lon="14.83339600648344"><ele>808.0</ele><time>2026-04-15T10:28:23Z</time></trkpt><trkpt lat="37.132821527445024" lon="14.833231732114895"><ele>808.0</ele><time>2026-04-15T10:28:24Z</time></trkpt><trkpt lat="37.1329873072712" lon="14.833063857419907"><ele>808.0</ele><time>2026-04-15T10:28:25Z</time></trkpt><trkpt lat="37.1331510037113" lon="14.832892918657587"><ele>808.0</ele><time>2026-04-15T10:28:26Z</time></trkpt><trkpt lat="37.13330368128276" lon="14.832736663840908"><ele>807.6666666666666</ele><time>2026-04-15T10:28:27Z</time></trkpt><trkpt lat="37.133446320922594" lon="14.832588111263606"><ele>807.3333333333333</ele><time>2026-04-15T10:28:28Z</time></trkpt><trkpt lat="37.13361127147456" lon="14.832458912273282"><ele>807.0</ele><time>2026-04-15T10:28:29Z</time></trkpt><trkpt lat="37.1337910556219" lon="14.832346257495454"><ele>807.0</ele><time>2026-04-15T10:28:30Z</time></trkpt><trkpt lat="37.133993896056424" lon="14.832263692916225"><ele>807.0</ele><time>2026-04-15T10:28:31Z</time></trkpt><trkpt lat="37.13421511747338" lon="14.832204858672728"><ele>807.0</ele><time>2026-04-15T10:28:32Z</time></trkpt><trkpt lat="37.13444165265155" lon="14.832142486131728"><ele>804.0</ele><time>2026-04-15T10:28:33Z</time></trkpt><trkpt lat="37.134668468569274" lon="14.832084267914922"><ele>801.0</ele><time>2026-04-15T10:28:34Z</time></trkpt><trkpt lat="37.13489113386149" lon="14.832033080179643"><ele>800.5</ele><time>2026-04-15T10:28:35Z</time></trkpt><trkpt lat="37.135112269848186" lon="14.832001268234976"><ele>800.0</ele><time>2026-04-15T10:28:36Z</time></trkpt><trkpt lat="37.13534008003008" lon="14.832004858704128"><ele>800.0</ele><time>2026-04-15T10:28:36.999Z</time></trkpt><trkpt lat="37.13557470361737" lon="14.832031935966029"><ele>800.0</ele><time>2026-04-15T10:28:37.999Z</time></trkpt><trkpt lat="37.13579480179694" lon="14.832054086389261"><ele>800.5</ele><time>2026-04-15T10:28:38.999Z</time></trkpt><trkpt lat="37.13602512553111" lon="14.832069125757409"><ele>801.0</ele><time>2026-04-15T10:28:39.999Z</time></trkpt><trkpt lat="37.13626158531367" lon="14.832077800650305"><ele>801.0</ele><time>2026-04-15T10:28:40.999Z</time></trkpt><trkpt lat="37.13650789931972" lon="14.83208420412346"><ele>801.0</ele><time>2026-04-15T10:28:41.999Z</time></trkpt><trkpt lat="37.136754336294956" lon="14.832091234735945"><ele>799.5</ele><time>2026-04-15T10:28:42.999Z</time></trkpt><trkpt lat="37.137005081904896" lon="14.83210877507537"><ele>798.0</ele><time>2026-04-15T10:28:43.999Z</time></trkpt><trkpt lat="37.137248561551125" lon="14.832127493097056"><ele>798.0</ele><time>2026-04-15T10:28:44.999Z</time></trkpt><trkpt lat="37.13749473971587" lon="14.832134428330686"><ele>798.0</ele><time>2026-04-15T10:28:45.999Z</time></trkpt><trkpt lat="37.137738637125025" lon="14.832135226722087"><ele>798.0</ele><time>2026-04-15T10:28:46.999Z</time></trkpt><trkpt lat="37.13797138629747" lon="14.83214940285159"><ele>798.0</ele><time>2026-04-15T10:28:47.999Z</time></trkpt><trkpt lat="37.1381918693075" lon="14.832180736973898"><ele>799.0</ele><time>2026-04-15T10:28:48.999Z</time></trkpt><trkpt lat="37.13839182333226" lon="14.832233912547746"><ele>800.0</ele><time>2026-04-15T10:28:49.999Z</time></trkpt><trkpt lat="37.13857704930915" lon="14.832312283168184"><ele>801.0</ele><time>2026-04-15T10:28:50.999Z</time></trkpt><trkpt lat="37.13874302502876" lon="14.832428777771616"><ele>801.0</ele><time>2026-04-15T10:28:51.999Z</time></trkpt><trkpt lat="37.13888065501841" lon="14.832579890062599"><ele>801.0</ele><time>2026-04-15T10:28:52.999Z</time></trkpt><trkpt lat="37.13901454021317" lon="14.8327110720678"><ele>801.0</ele><time>2026-04-15T10:28:53.999Z</time></trkpt><trkpt lat="37.13917382911118" lon="14.832802076205049"><ele>798.6666666666667</ele><time>2026-04-15T10:28:54.999Z</time></trkpt><trkpt lat="37.13935944458944" lon="14.83285728115222"><ele>796.3333333333334</ele><time>2026-04-15T10:28:55.999Z</time></trkpt><trkpt lat="37.139552923387875" lon="14.832913680872709"><ele>794.0</ele><time>2026-04-15T10:28:56.999Z</time></trkpt><trkpt lat="37.13975461298623" lon="14.83298731591586"><ele>795.0</ele><time>2026-04-15T10:28:57.999Z</time></trkpt><trkpt lat="37.13994049192034" lon="14.833051686586405"><ele>796.0</ele><time>2026-04-15T10:28:58.999Z</time></trkpt><trkpt lat="37.14013088389856" lon="14.833103770411993"><ele>797.0</ele><time>2026-04-15T10:28:59.999Z</time></trkpt><trkpt lat="37.14031379014277" lon="14.833141238429999"><ele>797.0</ele><time>2026-04-15T10:29:00.999Z</time></trkpt><trkpt lat="37.14048467277954" lon="14.833170823634275"><ele>797.0</ele><time>2026-04-15T10:29:01.999Z</time></trkpt><trkpt lat="37.140641800285614" lon="14.833208194374851"><ele>797.0</ele><time>2026-04-15T10:29:02.999Z</time></trkpt><trkpt lat="37.14078460382419" lon="14.833268021012143"><ele>796.25</ele><time>2026-04-15T10:29:03.999Z</time></trkpt><trkpt lat="37.140916930311576" lon="14.83335706259388"><ele>795.5</ele><time>2026-04-15T10:29:04.999Z</time></trkpt><trkpt lat="37.14103054521854" lon="14.833484697797058"><ele>794.75</ele><time>2026-04-15T10:29:05.999Z</time></trkpt><trkpt lat="37.141112717982644" lon="14.83363036329736"><ele>794.0</ele><time>2026-04-15T10:29:06.999Z</time></trkpt><trkpt lat="37.14115833130244" lon="14.833790841711982"><ele>794.0</ele><time>2026-04-15T10:29:07.999Z</time></trkpt><trkpt lat="37.14114324854047" lon="14.833967501414222"><ele>794.0</ele><time>2026-04-15T10:29:08.999Z</time></trkpt><trkpt lat="37.14113235805883" lon="14.834131832281177"><ele>794.0</ele><time>2026-04-15T10:29:09.999Z</time></trkpt><trkpt lat="37.14110941928966" lon="14.834294856440392"><ele>794.0</ele><time>2026-04-15T10:29:10.999Z</time></trkpt><trkpt lat="37.141106660878286" lon="14.834452733582943"><ele>791.6666666666667</ele><time>2026-04-15T10:29:11.999Z</time></trkpt><trkpt lat="37.14114066771328" lon="14.834624001186816"><ele>789.3333333333333</ele><time>2026-04-15T10:29:12.999Z</time></trkpt><trkpt lat="37.14119799157946" lon="14.834785716630366"><ele>787.0</ele><time>2026-04-15T10:29:13.999Z</time></trkpt><trkpt lat="37.141273010705596" lon="14.834985644254195"><ele>783.6666666666666</ele><time>2026-04-15T10:29:14.999Z</time></trkpt><trkpt lat="37.141339040214824" lon="14.835201110376483"><ele>780.3333333333333</ele><time>2026-04-15T10:29:15.999Z</time></trkpt><trkpt lat="37.14140169940303" lon="14.835423486869168"><ele>777.0</ele><time>2026-04-15T10:29:16.999Z</time></trkpt><trkpt lat="37.14145615440415" lon="14.83563474369204"><ele>777.0</ele><time>2026-04-15T10:29:17.999Z</time></trkpt><trkpt lat="37.14148472840076" lon="14.83583263421238"><ele>777.0</ele><time>2026-04-15T10:29:18.999Z</time></trkpt><trkpt lat="37.141492431555356" lon="14.836003625928374"><ele>777.0</ele><time>2026-04-15T10:29:19.999Z</time></trkpt><trkpt lat="37.14153929026656" lon="14.836132613565859"><ele>777.0</ele><time>2026-04-15T10:29:20.999Z</time></trkpt><trkpt lat="37.1416173397305" lon="14.836210318813029"><ele>777.25</ele><time>2026-04-15T10:29:21.999Z</time></trkpt><trkpt lat="37.14171783016175" lon="14.836216617696703"><ele>777.5</ele><time>2026-04-15T10:29:22.999Z</time></trkpt><trkpt lat="37.141818395823414" lon="14.836158321729636"><ele>777.75</ele><time>2026-04-15T10:29:23.999Z</time></trkpt><trkpt lat="37.141921961650425" lon="14.83603929249503"><ele>778.0</ele><time>2026-04-15T10:29:24.999Z</time></trkpt><trkpt lat="37.14202590879104" lon="14.83588165214153"><ele>781.6666666666666</ele><time>2026-04-15T10:29:25.999Z</time></trkpt><trkpt lat="37.142141098706325" lon="14.835709292532535"><ele>785.3333333333333</ele><time>2026-04-15T10:29:26.999Z</time></trkpt><trkpt lat="37.142258971710696" lon="14.835551171828344"><ele>789.0</ele><time>2026-04-15T10:29:27.999Z</time></trkpt><trkpt lat="37.14238873904428" lon="14.835406008498753"><ele>789.0</ele><time>2026-04-15T10:29:28.999Z</time></trkpt><trkpt lat="37.14253073645147" lon="14.835283067745642"><ele>789.0</ele><time>2026-04-15T10:29:29.999Z</time></trkpt><trkpt lat="37.142664821311264" lon="14.835186529022659"><ele>789.0</ele><time>2026-04-15T10:29:30.999Z</time></trkpt><trkpt lat="37.142740981075725" lon="14.835060249395191"><ele>790.6666666666667</ele><time>2026-04-15T10:29:31.999Z</time></trkpt><trkpt lat="37.14277393080945" lon="14.834888483345681"><ele>792.3333333333334</ele><time>2026-04-15T10:29:32.999Z</time></trkpt><trkpt lat="37.14278468818674" lon="14.834693716962112"><ele>794.0</ele><time>2026-04-15T10:29:33.999Z</time></trkpt><trkpt lat="37.14282701791622" lon="14.834474834217557"><ele>794.3333333333334</ele><time>2026-04-15T10:29:34.999Z</time></trkpt><trkpt lat="37.142888362765575" lon="14.834258655494736"><ele>794.6666666666667</ele><time>2026-04-15T10:29:35.999Z</time></trkpt><trkpt lat="37.14296086643641" lon="14.834043746838777"><ele>795.0</ele><time>2026-04-15T10:29:36.999Z</time></trkpt><trkpt lat="37.143033677819325" lon="14.833822004690454"><ele>795.0</ele><time>2026-04-15T10:29:37.999Z</time></trkpt><trkpt lat="37.143106999655814" lon="14.833597557218761"><ele>795.0</ele><time>2026-04-15T10:29:38.999Z</time></trkpt><trkpt lat="37.14318124041549" lon="14.833382920022219"><ele>795.0</ele><time>2026-04-15T10:29:39.999Z</time></trkpt><trkpt lat="37.1432777081473" lon="14.83318863171465"><ele>792.0</ele><time>2026-04-15T10:29:40.998Z</time></trkpt><trkpt lat="37.14340601884908" lon="14.833019756183027"><ele>789.0</ele><time>2026-04-15T10:29:41.998Z</time></trkpt><trkpt lat="37.14355666531502" lon="14.832833943714153"><ele>786.0</ele><time>2026-04-15T10:29:42.998Z</time></trkpt><trkpt lat="37.14367955037729" lon="14.832646330868293"><ele>786.5</ele><time>2026-04-15T10:29:43.998Z</time></trkpt><trkpt lat="37.14378234364803" lon="14.832491139721604"><ele>787.0</ele><time>2026-04-15T10:29:44.998Z</time></trkpt><trkpt lat="37.143872412819626" lon="14.832339144731112"><ele>787.5</ele><time>2026-04-15T10:29:45.998Z</time></trkpt><trkpt lat="37.14394367510901" lon="14.8322166911726"><ele>788.0</ele><time>2026-04-15T10:29:46.998Z</time></trkpt><trkpt lat="37.1440231628739" lon="14.832129104504435"><ele>786.8</ele><time>2026-04-15T10:29:47.998Z</time></trkpt><trkpt lat="37.14411547225864" lon="14.832097634158444"><ele>785.5999999999999</ele><time>2026-04-15T10:29:48.998Z</time></trkpt><trkpt lat="37.144223342396906" lon="14.832131919917966"><ele>784.4000000000001</ele><time>2026-04-15T10:29:49.998Z</time></trkpt><trkpt lat="37.14432671400811" lon="14.832184466015848"><ele>783.2</ele><time>2026-04-15T10:29:50.998Z</time></trkpt><trkpt lat="37.14445108935484" lon="14.832224308080571"><ele>782.0</ele><time>2026-04-15T10:29:51.998Z</time></trkpt><trkpt lat="37.14458797357274" lon="14.83225880875902"><ele>782.0</ele><time>2026-04-15T10:29:52.998Z</time></trkpt><trkpt lat="37.14472456511464" lon="14.832284389186372"><ele>782.0</ele><time>2026-04-15T10:29:53.998Z</time></trkpt><trkpt lat="37.144856789026676" lon="14.832287421544052"><ele>782.0</ele><time>2026-04-15T10:29:54.998Z</time></trkpt><trkpt lat="37.144980484575264" lon="14.832269071015595"><ele>782.0</ele><time>2026-04-15T10:29:55.998Z</time></trkpt><trkpt lat="37.14509170143945" lon="14.83223855250459"><ele>780.8</ele><time>2026-04-15T10:29:56.998Z</time></trkpt><trkpt lat="37.14519034602479" lon="14.8322125384269"><ele>779.6</ele><time>2026-04-15T10:29:58Z</time></trkpt><trkpt lat="37.145278135986324" lon="14.83219218027361"><ele>778.4</ele><time>2026-04-15T10:29:59Z</time></trkpt><trkpt lat="37.145363751250535" lon="14.83217328771376"><ele>777.1999999999999</ele><time>2026-04-15T10:30:00Z</time></trkpt><trkpt lat="37.14543600872998" lon="14.832161132961783"><ele>776.0</ele><time>2026-04-15T10:30:01Z</time></trkpt><trkpt lat="37.145547062477796" lon="14.832167998657065"><ele>776.0000000000001</ele><time>2026-04-15T10:30:03Z</time></trkpt><trkpt lat="37.145608843936294" lon="14.832144554936143"><ele>776.0</ele><time>2026-04-15T10:30:05Z</time></trkpt><trkpt lat="37.14555038471965" lon="14.832089983477243"><ele>776.0</ele><time>2026-04-15T10:30:07Z</time></trkpt><trkpt lat="37.145463925769086" lon="14.832098351010494"><ele>776.0</ele><time>2026-04-15T10:30:08Z</time></trkpt><trkpt lat="37.145350968744935" lon="14.832143714164337"><ele>776.0000000000001</ele><time>2026-04-15T10:30:09Z</time></trkpt><trkpt lat="37.145269767158354" lon="14.832168113176063"><ele>776.0</ele><time>2026-04-15T10:30:10Z</time></trkpt><trkpt lat="37.1451661004609" lon="14.832198923856366"><ele>776.0</ele><time>2026-04-15T10:30:11Z</time></trkpt><trkpt lat="37.14502708236935" lon="14.832233498999157"><ele>776.0</ele><time>2026-04-15T10:30:12Z</time></trkpt><trkpt lat="37.14489219367855" lon="14.832257518921958"><ele>776.0</ele><time>2026-04-15T10:30:13Z</time></trkpt><trkpt lat="37.144756077623214" lon="14.832258269828358"><ele>776.0</ele><time>2026-04-15T10:30:14Z</time></trkpt><trkpt lat="37.14459303971028" lon="14.832232172503893"><ele>778.0</ele><time>2026-04-15T10:30:15Z</time></trkpt><trkpt lat="37.14442615302664" lon="14.832178559536816"><ele>780.0</ele><time>2026-04-15T10:30:16Z</time></trkpt><trkpt lat="37.14427018146576" lon="14.832128309828164"><ele>782.0</ele><time>2026-04-15T10:30:17Z</time></trkpt><trkpt lat="37.14412931326677" lon="14.83211009723672"><ele>783.5</ele><time>2026-04-15T10:30:18Z</time></trkpt><trkpt lat="37.144007666051515" lon="14.83213556709512"><ele>785.0</ele><time>2026-04-15T10:30:19Z</time></trkpt><trkpt lat="37.14392527819495" lon="14.832232964204174"><ele>786.5</ele><time>2026-04-15T10:30:20Z</time></trkpt><trkpt lat="37.14386027772144" lon="14.83235493522409"><ele>788.0</ele><time>2026-04-15T10:30:21Z</time></trkpt><trkpt lat="37.14379285048201" lon="14.83251048985292"><ele>788.0</ele><time>2026-04-15T10:30:22Z</time></trkpt><trkpt lat="37.14370803910612" lon="14.832620061714874"><ele>788.0</ele><time>2026-04-15T10:30:23Z</time></trkpt><trkpt lat="37.14362212142516" lon="14.8327155615109"><ele>788.0</ele><time>2026-04-15T10:30:24Z</time></trkpt><trkpt lat="37.143549980172864" lon="14.832801828594082"><ele>788.0</ele><time>2026-04-15T10:30:25Z</time></trkpt><trkpt lat="37.14348137668741" lon="14.83284924777299"><ele>788.0</ele><time>2026-04-15T10:30:26Z</time></trkpt><trkpt lat="37.14336469303201" lon="14.832822269006776"><ele>787.5999999999999</ele><time>2026-04-15T10:30:28Z</time></trkpt><trkpt lat="37.143294887831345" lon="14.832763819761805"><ele>787.1999999999999</ele><time>2026-04-15T10:30:29Z</time></trkpt><trkpt lat="37.143213530510515" lon="14.832696445621139"><ele>786.8</ele><time>2026-04-15T10:30:30Z</time></trkpt><trkpt lat="37.14312733948209" lon="14.832619910259126"><ele>786.4</ele><time>2026-04-15T10:30:31Z</time></trkpt><trkpt lat="37.14303646586407" lon="14.832530608467318"><ele>786.0</ele><time>2026-04-15T10:30:32Z</time></trkpt><trkpt lat="37.14295041726691" lon="14.832443548011748"><ele>788.4</ele><time>2026-04-15T10:30:33Z</time></trkpt><trkpt lat="37.14288209768685" lon="14.83237108042521"><ele>790.8</ele><time>2026-04-15T10:30:34Z</time></trkpt><trkpt lat="37.14282386545465" lon="14.8323151570616"><ele>793.1999999999999</ele><time>2026-04-15T10:30:35Z</time></trkpt><trkpt lat="37.14275665615536" lon="14.832247249674845"><ele>795.5999999999999</ele><time>2026-04-15T10:30:37Z</time></trkpt><trkpt lat="37.14280481568323" lon="14.832382341791623"><ele>798.0</ele><time>2026-04-15T10:30:40.999Z</time></trkpt><trkpt lat="37.1429225687547" lon="14.832443681376935"><ele>798.0</ele><time>2026-04-15T10:30:41.999Z</time></trkpt><trkpt lat="37.14301747682651" lon="14.83255135428831"><ele>798.0</ele><time>2026-04-15T10:30:42.999Z</time></trkpt><trkpt lat="37.14311216898938" lon="14.832644355491205"><ele>798.0</ele><time>2026-04-15T10:30:43.999Z</time></trkpt><trkpt lat="37.14320721504867" lon="14.832728073015081"><ele>798.0</ele><time>2026-04-15T10:30:44.999Z</time></trkpt><trkpt lat="37.14331086742573" lon="14.832799684605982"><ele>796.0</ele><time>2026-04-15T10:30:45.999Z</time></trkpt><trkpt lat="37.143406324742166" lon="14.832847946033043"><ele>794.0</ele><time>2026-04-15T10:30:46.999Z</time></trkpt><trkpt lat="37.143499910547185" lon="14.832854335263649"><ele>792.0</ele><time>2026-04-15T10:30:47.999Z</time></trkpt><trkpt lat="37.143576464333385" lon="14.832804674435534"><ele>790.0</ele><time>2026-04-15T10:30:48.999Z</time></trkpt><trkpt lat="37.143630221752616" lon="14.83272709929685"><ele>788.0</ele><time>2026-04-15T10:30:49.999Z</time></trkpt><trkpt lat="37.143703853837124" lon="14.832609523329785"><ele>788.0</ele><time>2026-04-15T10:30:50.999Z</time></trkpt><trkpt lat="37.14378975611706" lon="14.832466806235821"><ele>788.0</ele><time>2026-04-15T10:30:51.999Z</time></trkpt><trkpt lat="37.14386834447793" lon="14.832331556040256"><ele>788.0</ele><time>2026-04-15T10:30:52.999Z</time></trkpt><trkpt lat="37.14394112027443" lon="14.832211535131187"><ele>788.0</ele><time>2026-04-15T10:30:53.999Z</time></trkpt><trkpt lat="37.144021750965095" lon="14.83212130003283"><ele>786.5</ele><time>2026-04-15T10:30:54.999Z</time></trkpt><trkpt lat="37.14412065189604" lon="14.832098547150848"><ele>785.0</ele><time>2026-04-15T10:30:55.999Z</time></trkpt><trkpt lat="37.14422501882841" lon="14.832128112512574"><ele>783.5</ele><time>2026-04-15T10:30:56.999Z</time></trkpt><trkpt lat="37.14435959750394" lon="14.83218637234023"><ele>782.0</ele><time>2026-04-15T10:30:57.999Z</time></trkpt><trkpt lat="37.14451792358704" lon="14.83223180636074"><ele>782.0</ele><time>2026-04-15T10:30:58.999Z</time></trkpt><trkpt lat="37.14468184077616" lon="14.832257790113736"><ele>782.0</ele><time>2026-04-15T10:30:59.999Z</time></trkpt><trkpt lat="37.14483237597949" lon="14.832271514852891"><ele>782.0</ele><time>2026-04-15T10:31:00.999Z</time></trkpt><trkpt lat="37.14497244516512" lon="14.83225620873053"><ele>780.5</ele><time>2026-04-15T10:31:01.999Z</time></trkpt><trkpt lat="37.145099020465096" lon="14.832219271316516"><ele>779.0</ele><time>2026-04-15T10:31:02.999Z</time></trkpt><trkpt lat="37.14521720539867" lon="14.832188061569276"><ele>777.5</ele><time>2026-04-15T10:31:03.999Z</time></trkpt><trkpt lat="37.14532286461432" lon="14.832166202211596"><ele>776.0</ele><time>2026-04-15T10:31:04.999Z</time></trkpt><trkpt lat="37.14541551540519" lon="14.832154770053203"><ele>776.0</ele><time>2026-04-15T10:31:05.999Z</time></trkpt><trkpt lat="37.14549439261699" lon="14.832152209775101"><ele>776.0</ele><time>2026-04-15T10:31:06.999Z</time></trkpt><trkpt lat="37.14559184254354" lon="14.832156940932721"><ele>776.0</ele><time>2026-04-15T10:31:08.999Z</time></trkpt><trkpt lat="37.145504367678555" lon="14.83206866637032"><ele>776.0</ele><time>2026-04-15T10:31:12.999Z</time></trkpt><trkpt lat="37.14541436913359" lon="14.832058119938239"><ele>776.0</ele><time>2026-04-15T10:31:13.999Z</time></trkpt><trkpt lat="37.14532732132509" lon="14.831961480135249"><ele>776.0</ele><time>2026-04-15T10:31:14.999Z</time></trkpt><trkpt lat="37.145258930458546" lon="14.83185194073173"><ele>776.0</ele><time>2026-04-15T10:31:15.999Z</time></trkpt><trkpt lat="37.14516820772107" lon="14.831717724355507"><ele>776.0</ele><time>2026-04-15T10:31:16.999Z</time></trkpt><trkpt lat="37.14507542740927" lon="14.831575887646162"><ele>776.0</ele><time>2026-04-15T10:31:17.999Z</time></trkpt><trkpt lat="37.144977380437126" lon="14.831427389147178"><ele>776.0</ele><time>2026-04-15T10:31:18.999Z</time></trkpt><trkpt lat="37.14485664068253" lon="14.831245127377645"><ele>776.0</ele><time>2026-04-15T10:31:19.999Z</time></trkpt><trkpt lat="37.14473220117993" lon="14.831063418966798"><ele>776.0</ele><time>2026-04-15T10:31:20.999Z</time></trkpt><trkpt lat="37.14460212366558" lon="14.830873687409559"><ele>773.3333333333334</ele><time>2026-04-15T10:31:21.999Z</time></trkpt><trkpt lat="37.14446938425493" lon="14.83067452789429"><ele>770.6666666666667</ele><time>2026-04-15T10:31:22.999Z</time></trkpt><trkpt lat="37.1443426107505" lon="14.830476513196409"><ele>768.0</ele><time>2026-04-15T10:31:23.999Z</time></trkpt><trkpt lat="37.1442224977438" lon="14.830274645270716"><ele>768.6666666666667</ele><time>2026-04-15T10:31:24.999Z</time></trkpt><trkpt lat="37.144123948332336" lon="14.830064188693045"><ele>769.3333333333334</ele><time>2026-04-15T10:31:25.999Z</time></trkpt><trkpt lat="37.14404797332507" lon="14.829843338980295"><ele>770.0</ele><time>2026-04-15T10:31:26.999Z</time></trkpt><trkpt lat="37.14396893488161" lon="14.829608506595305"><ele>770.0</ele><time>2026-04-15T10:31:27.999Z</time></trkpt><trkpt lat="37.14388787390578" lon="14.829353301090487"><ele>770.0</ele><time>2026-04-15T10:31:28.999Z</time></trkpt><trkpt lat="37.14380223804486" lon="14.829081650263038"><ele>766.5</ele><time>2026-04-15T10:31:29.999Z</time></trkpt><trkpt lat="37.14371974558847" lon="14.828811960541842"><ele>763.0</ele><time>2026-04-15T10:31:30.999Z</time></trkpt><trkpt lat="37.1436385521088" lon="14.82853119850585"><ele>759.0</ele><time>2026-04-15T10:31:31.999Z</time></trkpt><trkpt lat="37.14355776554211" lon="14.828253097500859"><ele>755.0</ele><time>2026-04-15T10:31:32.999Z</time></trkpt><trkpt lat="37.14347659013054" lon="14.827979745228326"><ele>755.0</ele><time>2026-04-15T10:31:33.999Z</time></trkpt><trkpt lat="37.143396029048034" lon="14.827719299123936"><ele>755.0</ele><time>2026-04-15T10:31:34.999Z</time></trkpt><trkpt lat="37.1433150235996" lon="14.827465304574966"><ele>755.0</ele><time>2026-04-15T10:31:35.999Z</time></trkpt><trkpt lat="37.14324058350374" lon="14.827218156034716"><ele>754.3333333333333</ele><time>2026-04-15T10:31:36.999Z</time></trkpt><trkpt lat="37.14318213892628" lon="14.826972909990124"><ele>753.6666666666666</ele><time>2026-04-15T10:31:37.999Z</time></trkpt><trkpt lat="37.14313613955574" lon="14.826716698484674"><ele>753.0</ele><time>2026-04-15T10:31:38.999Z</time></trkpt><trkpt lat="37.14310041062941" lon="14.826464279323567"><ele>753.0</ele><time>2026-04-15T10:31:39.999Z</time></trkpt><trkpt lat="37.14306049641013" lon="14.826218475985637"><ele>753.0</ele><time>2026-04-15T10:31:40.999Z</time></trkpt><trkpt lat="37.143011199267704" lon="14.825996342478321"><ele>753.0</ele><time>2026-04-15T10:31:41.999Z</time></trkpt><trkpt lat="37.14293369829543" lon="14.825798261944302"><ele>749.0</ele><time>2026-04-15T10:31:42.999Z</time></trkpt><trkpt lat="37.142812403748486" lon="14.825640336327998"><ele>745.0</ele><time>2026-04-15T10:31:43.999Z</time></trkpt><trkpt lat="37.142659643136874" lon="14.825516156304463"><ele>741.0</ele><time>2026-04-15T10:31:44.999Z</time></trkpt><trkpt lat="37.14249383312775" lon="14.825412567297079"><ele>740.3333333333334</ele><time>2026-04-15T10:31:45.999Z</time></trkpt><trkpt lat="37.14232688557692" lon="14.825301154331397"><ele>739.6666666666667</ele><time>2026-04-15T10:31:46.998Z</time></trkpt><trkpt lat="37.14217086234871" lon="14.825134176390705"><ele>739.0</ele><time>2026-04-15T10:31:47.998Z</time></trkpt><trkpt lat="37.142033563341414" lon="14.824933241697572"><ele>739.0</ele><time>2026-04-15T10:31:48.998Z</time></trkpt><trkpt lat="37.14188866837441" lon="14.824719264464623"><ele>739.0</ele><time>2026-04-15T10:31:49.998Z</time></trkpt><trkpt lat="37.14174527498191" lon="14.824506742630673"><ele>739.0</ele><time>2026-04-15T10:31:50.998Z</time></trkpt><trkpt lat="37.1416040075776" lon="14.824299388493557"><ele>739.0</ele><time>2026-04-15T10:31:51.998Z</time></trkpt><trkpt lat="37.141464497209085" lon="14.82411808548252"><ele>739.0</ele><time>2026-04-15T10:31:52.998Z</time></trkpt><trkpt lat="37.14129289276333" lon="14.823962093890033"><ele>739.0</ele><time>2026-04-15T10:31:53.998Z</time></trkpt><trkpt lat="37.14111512593461" lon="14.82382948285255"><ele>739.0</ele><time>2026-04-15T10:31:54.998Z</time></trkpt><trkpt lat="37.14094104691398" lon="14.823701960422342"><ele>739.0</ele><time>2026-04-15T10:31:55.998Z</time></trkpt><trkpt lat="37.14077325757972" lon="14.823566943051995"><ele>739.0</ele><time>2026-04-15T10:31:56.998Z</time></trkpt><trkpt lat="37.14062543855558" lon="14.823401794065173"><ele>739.3333333333334</ele><time>2026-04-15T10:31:57.998Z</time></trkpt><trkpt lat="37.14047966392339" lon="14.823220950831828"><ele>739.6666666666666</ele><time>2026-04-15T10:31:58.998Z</time></trkpt><trkpt lat="37.14032342715854" lon="14.82303298730742"><ele>740.0</ele><time>2026-04-15T10:31:59.998Z</time></trkpt><trkpt lat="37.14016743077344" lon="14.822850373358976"><ele>740.0</ele><time>2026-04-15T10:32:00.998Z</time></trkpt><trkpt lat="37.140012252506374" lon="14.822679136657088"><ele>740.0</ele><time>2026-04-15T10:32:01.998Z</time></trkpt><trkpt lat="37.13987256896703" lon="14.822524297823604"><ele>740.0</ele><time>2026-04-15T10:32:02.998Z</time></trkpt><trkpt lat="37.13973077929877" lon="14.822392863902138"><ele>739.6666666666666</ele><time>2026-04-15T10:32:04Z</time></trkpt><trkpt lat="37.13958295269309" lon="14.822295713663719"><ele>739.3333333333334</ele><time>2026-04-15T10:32:05Z</time></trkpt><trkpt lat="37.13942912664325" lon="14.822235796339656"><ele>739.0</ele><time>2026-04-15T10:32:06Z</time></trkpt><trkpt lat="37.139269068608016" lon="14.822211434743444"><ele>739.0</ele><time>2026-04-15T10:32:07Z</time></trkpt><trkpt lat="37.13910095924369" lon="14.82222212577817"><ele>739.0</ele><time>2026-04-15T10:32:08Z</time></trkpt><trkpt lat="37.13894412442278" lon="14.822256394852367"><ele>739.0</ele><time>2026-04-15T10:32:09Z</time></trkpt><trkpt lat="37.13879666737158" lon="14.822321192809861"><ele>738.0</ele><time>2026-04-15T10:32:10Z</time></trkpt><trkpt lat="37.13865498063185" lon="14.82240897077394"><ele>737.0</ele><time>2026-04-15T10:32:11Z</time></trkpt><trkpt lat="37.1385117542577" lon="14.822531987043085"><ele>736.0</ele><time>2026-04-15T10:32:12Z</time></trkpt><trkpt lat="37.13837541806138" lon="14.822681770899168"><ele>740.6666666666667</ele><time>2026-04-15T10:32:13Z</time></trkpt><trkpt lat="37.13823818070248" lon="14.822793980449237"><ele>745.3333333333334</ele><time>2026-04-15T10:32:14Z</time></trkpt><trkpt lat="37.13811416280008" lon="14.822893635887247"><ele>750.0</ele><time>2026-04-15T10:32:15Z</time></trkpt><trkpt lat="37.13798854074499" lon="14.822979527908222"><ele>750.25</ele><time>2026-04-15T10:32:16Z</time></trkpt><trkpt lat="37.13785540761048" lon="14.823032775986084"><ele>750.5</ele><time>2026-04-15T10:32:17Z</time></trkpt><trkpt lat="37.137723758605105" lon="14.823058145248245"><ele>750.75</ele><time>2026-04-15T10:32:18Z</time></trkpt><trkpt lat="37.13760110793011" lon="14.823058265144402"><ele>751.0</ele><time>2026-04-15T10:32:19Z</time></trkpt><trkpt lat="37.13747874770489" lon="14.823040406373659"><ele>752.5</ele><time>2026-04-15T10:32:20Z</time></trkpt><trkpt lat="37.13734747072012" lon="14.823010582999068"><ele>754.0</ele><time>2026-04-15T10:32:21Z</time></trkpt><trkpt lat="37.13721722176199" lon="14.822964917097726"><ele>755.5</ele><time>2026-04-15T10:32:22Z</time></trkpt><trkpt lat="37.137071072565796" lon="14.822918840690447"><ele>757.0</ele><time>2026-04-15T10:32:23Z</time></trkpt><trkpt lat="37.13692431541058" lon="14.822876143321617"><ele>757.0</ele><time>2026-04-15T10:32:24Z</time></trkpt><trkpt lat="37.13679001337705" lon="14.822839204740276"><ele>757.0</ele><time>2026-04-15T10:32:25Z</time></trkpt><trkpt lat="37.13666310601168" lon="14.822812462900924"><ele>757.0</ele><time>2026-04-15T10:32:26Z</time></trkpt><trkpt lat="37.13653586252063" lon="14.822803994846865"><ele>757.0</ele><time>2026-04-15T10:32:27Z</time></trkpt><trkpt lat="37.13640105953094" lon="14.822795490606959"><ele>757.25</ele><time>2026-04-15T10:32:28Z</time></trkpt><trkpt lat="37.13626620853165" lon="14.82279069525578"><ele>757.5</ele><time>2026-04-15T10:32:29Z</time></trkpt><trkpt lat="37.13613257794862" lon="14.822786581282374"><ele>757.75</ele><time>2026-04-15T10:32:30Z</time></trkpt><trkpt lat="37.1360030917234" lon="14.822772410131936"><ele>758.0</ele><time>2026-04-15T10:32:31Z</time></trkpt><trkpt lat="37.135874443105465" lon="14.822757733999646"><ele>758.0</ele><time>2026-04-15T10:32:32Z</time></trkpt><trkpt lat="37.13574828999293" lon="14.82274864184569"><ele>758.0</ele><time>2026-04-15T10:32:33Z</time></trkpt><trkpt lat="37.13563525212524" lon="14.822722029138964"><ele>758.0</ele><time>2026-04-15T10:32:34Z</time></trkpt><trkpt lat="37.135537349345874" lon="14.82267338251898"><ele>758.0</ele><time>2026-04-15T10:32:35Z</time></trkpt><trkpt lat="37.1354509186605" lon="14.822612832674178"><ele>758.0</ele><time>2026-04-15T10:32:36Z</time></trkpt><trkpt lat="37.13537868777933" lon="14.822549006066822"><ele>756.8333333333333</ele><time>2026-04-15T10:32:37Z</time></trkpt><trkpt lat="37.135317414264264" lon="14.822476511579792"><ele>755.6666666666666</ele><time>2026-04-15T10:32:38Z</time></trkpt><trkpt lat="37.13526618131426" lon="14.822402948204537"><ele>754.5</ele><time>2026-04-15T10:32:39Z</time></trkpt><trkpt lat="37.135216744903346" lon="14.82232985245862"><ele>753.3333333333334</ele><time>2026-04-15T10:32:40Z</time></trkpt><trkpt lat="37.13518407803726" lon="14.822260220707696"><ele>752.1666666666667</ele><time>2026-04-15T10:32:41Z</time></trkpt><trkpt lat="37.13514869439158" lon="14.822183898967621"><ele>751.0</ele><time>2026-04-15T10:32:42Z</time></trkpt><trkpt lat="37.1350978050605" lon="14.822093339216638"><ele>751.0</ele><time>2026-04-15T10:32:42.999Z</time></trkpt><trkpt lat="37.13504186450899" lon="14.821994269535047"><ele>751.0</ele><time>2026-04-15T10:32:43.999Z</time></trkpt><trkpt lat="37.13497379920982" lon="14.821880736779773"><ele>751.0</ele><time>2026-04-15T10:32:44.999Z</time></trkpt><trkpt lat="37.13489837869785" lon="14.821759344492156"><ele>751.0</ele><time>2026-04-15T10:32:45.999Z</time></trkpt><trkpt lat="37.13483257516537" lon="14.82163148681812"><ele>753.0</ele><time>2026-04-15T10:32:46.999Z</time></trkpt><trkpt lat="37.134757729698805" lon="14.821489885855197"><ele>755.0</ele><time>2026-04-15T10:32:47.999Z</time></trkpt><trkpt lat="37.13467100172464" lon="14.821338677991848"><ele>757.0</ele><time>2026-04-15T10:32:48.999Z</time></trkpt><trkpt lat="37.13457105582167" lon="14.82117774331368"><ele>759.0</ele><time>2026-04-15T10:32:49.999Z</time></trkpt><trkpt lat="37.134474679368786" lon="14.821025474556953"><ele>756.3333333333334</ele><time>2026-04-15T10:32:50.999Z</time></trkpt><trkpt lat="37.13438051484009" lon="14.82087067701494"><ele>753.6666666666667</ele><time>2026-04-15T10:32:51.999Z</time></trkpt><trkpt lat="37.134283153602155" lon="14.820715174909054"><ele>751.0</ele><time>2026-04-15T10:32:52.999Z</time></trkpt><trkpt lat="37.134200479884576" lon="14.82056046883709"><ele>751.0</ele><time>2026-04-15T10:32:53.999Z</time></trkpt><trkpt lat="37.13415071495287" lon="14.820383131643906"><ele>751.0</ele><time>2026-04-15T10:32:54.999Z</time></trkpt><trkpt lat="37.134125190486394" lon="14.82019131853574"><ele>751.0</ele><time>2026-04-15T10:32:55.999Z</time></trkpt><trkpt lat="37.13410995516444" lon="14.819984482152549"><ele>749.0</ele><time>2026-04-15T10:32:56.999Z</time></trkpt><trkpt lat="37.134106133177426" lon="14.819750256859699"><ele>747.0</ele><time>2026-04-15T10:32:57.999Z</time></trkpt><trkpt lat="37.13409374116834" lon="14.81953617777413"><ele>745.0</ele><time>2026-04-15T10:32:58.999Z</time></trkpt><trkpt lat="37.13405764064094" lon="14.819326135423255"><ele>751.6666666666667</ele><time>2026-04-15T10:32:59.999Z</time></trkpt><trkpt lat="37.13400005292409" lon="14.819115405445272"><ele>758.3333333333334</ele><time>2026-04-15T10:33:00.999Z</time></trkpt><trkpt lat="37.1339327377021" lon="14.81890924764819"><ele>765.0</ele><time>2026-04-15T10:33:01.999Z</time></trkpt><trkpt lat="37.13386818062616" lon="14.818720564902828"><ele>765.0</ele><time>2026-04-15T10:33:02.999Z</time></trkpt><trkpt lat="37.133804462734304" lon="14.818545254682533"><ele>765.0</ele><time>2026-04-15T10:33:03.999Z</time></trkpt><trkpt lat="37.13374162015126" lon="14.818389961903446"><ele>765.0</ele><time>2026-04-15T10:33:04.999Z</time></trkpt><trkpt lat="37.13366065472756" lon="14.818275807203706"><ele>765.0</ele><time>2026-04-15T10:33:05.999Z</time></trkpt><trkpt lat="37.133556342358396" lon="14.818196273290356"><ele>765.25</ele><time>2026-04-15T10:33:06.999Z</time></trkpt><trkpt lat="37.13343454868591" lon="14.81813487617251"><ele>765.5</ele><time>2026-04-15T10:33:07.999Z</time></trkpt><trkpt lat="37.133290320194384" lon="14.818079965890034"><ele>765.75</ele><time>2026-04-15T10:33:08.999Z</time></trkpt><trkpt lat="37.13313703231202" lon="14.818009987731294"><ele>766.0</ele><time>2026-04-15T10:33:09.999Z</time></trkpt><trkpt lat="37.132992233331244" lon="14.817939568870827"><ele>766.0</ele><time>2026-04-15T10:33:10.999Z</time></trkpt><trkpt lat="37.13283915868108" lon="14.817861949310302"><ele>766.0</ele><time>2026-04-15T10:33:11.999Z</time></trkpt><trkpt lat="37.132692027976454" lon="14.817782006601202"><ele>766.0</ele><time>2026-04-15T10:33:12.999Z</time></trkpt><trkpt lat="37.13253271114133" lon="14.81770956671133"><ele>763.3333333333334</ele><time>2026-04-15T10:33:13.999Z</time></trkpt><trkpt lat="37.13236333057574" lon="14.817650988882368"><ele>760.6666666666666</ele><time>2026-04-15T10:33:14.999Z</time></trkpt><trkpt lat="37.132184037398126" lon="14.817605988195725"><ele>758.0</ele><time>2026-04-15T10:33:15.999Z</time></trkpt><trkpt lat="37.1320246534521" lon="14.817567518951689"><ele>758.0</ele><time>2026-04-15T10:33:16.999Z</time></trkpt><trkpt lat="37.131878468384684" lon="14.817512328814123"><ele>758.0</ele><time>2026-04-15T10:33:17.999Z</time></trkpt><trkpt lat="37.13174464997" lon="14.817423143892725"><ele>758.0</ele><time>2026-04-15T10:33:18.999Z</time></trkpt><trkpt lat="37.13161556737797" lon="14.817311357371324"><ele>764.0</ele><time>2026-04-15T10:33:19.999Z</time></trkpt><trkpt lat="37.13150908647125" lon="14.81716832192645"><ele>770.0</ele><time>2026-04-15T10:33:20.999Z</time></trkpt><trkpt lat="37.13140690359089" lon="14.817005822781757"><ele>776.0</ele><time>2026-04-15T10:33:21.999Z</time></trkpt><trkpt lat="37.13130591953907" lon="14.81684792394379"><ele>771.75</ele><time>2026-04-15T10:33:22.999Z</time></trkpt><trkpt lat="37.1312030777731" lon="14.816708215980764"><ele>767.5</ele><time>2026-04-15T10:33:23.999Z</time></trkpt><trkpt lat="37.13109323930503" lon="14.816599149334726"><ele>763.25</ele><time>2026-04-15T10:33:24.999Z</time></trkpt><trkpt lat="37.13095733685508" lon="14.816520245913878"><ele>759.0</ele><time>2026-04-15T10:33:25.999Z</time></trkpt><trkpt lat="37.13081318068804" lon="14.81647375936208"><ele>762.0</ele><time>2026-04-15T10:33:26.999Z</time></trkpt><trkpt lat="37.13066082127785" lon="14.81647694191128"><ele>765.0</ele><time>2026-04-15T10:33:27.999Z</time></trkpt><trkpt lat="37.130501105822134" lon="14.816479149530995"><ele>768.0</ele><time>2026-04-15T10:33:28.999Z</time></trkpt><trkpt lat="37.13034054283734" lon="14.816462589652115"><ele>768.0</ele><time>2026-04-15T10:33:29.999Z</time></trkpt><trkpt lat="37.130185271552484" lon="14.81642787253734"><ele>768.0</ele><time>2026-04-15T10:33:30.999Z</time></trkpt><trkpt lat="37.13004393482711" lon="14.816383684636916"><ele>768.0</ele><time>2026-04-15T10:33:31.999Z</time></trkpt><trkpt lat="37.129919290224905" lon="14.816300424489542"><ele>768.0</ele><time>2026-04-15T10:33:32.999Z</time></trkpt><trkpt lat="37.12980357389452" lon="14.816185531260002"><ele>770.6666666666667</ele><time>2026-04-15T10:33:33.999Z</time></trkpt><trkpt lat="37.12970178630353" lon="14.816045102290246"><ele>773.3333333333334</ele><time>2026-04-15T10:33:34.999Z</time></trkpt><trkpt lat="37.129624869868564" lon="14.815874284580286"><ele>776.0</ele><time>2026-04-15T10:33:35.999Z</time></trkpt><trkpt lat="37.12956127589133" lon="14.815704933077923"><ele>776.0</ele><time>2026-04-15T10:33:36.999Z</time></trkpt><trkpt lat="37.129514101577875" lon="14.815528004612586"><ele>776.0</ele><time>2026-04-15T10:33:37.999Z</time></trkpt><trkpt lat="37.12950307968139" lon="14.81534124957948"><ele>776.0</ele><time>2026-04-15T10:33:38.999Z</time></trkpt><trkpt lat="37.12950266817992" lon="14.815138826674474"><ele>775.0</ele><time>2026-04-15T10:33:39.999Z</time></trkpt><trkpt lat="37.129501408626474" lon="14.81493596848547"><ele>774.0</ele><time>2026-04-15T10:33:40.999Z</time></trkpt><trkpt lat="37.129498036940824" lon="14.814752050427325"><ele>773.0</ele><time>2026-04-15T10:33:41.999Z</time></trkpt><trkpt lat="37.1294840614792" lon="14.814579080125611"><ele>772.0</ele><time>2026-04-15T10:33:42.999Z</time></trkpt><trkpt lat="37.12945378035824" lon="14.814409996326962"><ele>770.0</ele><time>2026-04-15T10:33:43.999Z</time></trkpt><trkpt lat="37.12939960636931" lon="14.81424569343639"><ele>768.0</ele><time>2026-04-15T10:33:44.999Z</time></trkpt><trkpt lat="37.12932350702266" lon="14.81410319314567"><ele>766.0</ele><time>2026-04-15T10:33:45.999Z</time></trkpt><trkpt lat="37.12923788489209" lon="14.813993421233688"><ele>764.0</ele><time>2026-04-15T10:33:46.999Z</time></trkpt><trkpt lat="37.12916825392638" lon="14.813907549484549"><ele>764.0</ele><time>2026-04-15T10:33:47.999Z</time></trkpt><trkpt lat="37.12911078107364" lon="14.813845785144036"><ele>764.0</ele><time>2026-04-15T10:33:48.999Z</time></trkpt><trkpt lat="37.12905309201907" lon="14.813791476929076"><ele>764.0</ele><time>2026-04-15T10:33:49.999Z</time></trkpt><trkpt lat="37.12899652331303" lon="14.813748409877292"><ele>764.0</ele><time>2026-04-15T10:33:50.999Z</time></trkpt><trkpt lat="37.12893608369718" lon="14.813718273736542"><ele>764.0</ele><time>2026-04-15T10:33:51.999Z</time></trkpt><trkpt lat="37.12887446303993" lon="14.81369951964868"><ele>764.0</ele><time>2026-04-15T10:33:52.999Z</time></trkpt><trkpt lat="37.128802248774" lon="14.813683575003191"><ele>764.0</ele><time>2026-04-15T10:33:53.998Z</time></trkpt><trkpt lat="37.128721995257806" lon="14.813679774556189"><ele>765.2</ele><time>2026-04-15T10:33:54.998Z</time></trkpt><trkpt lat="37.12863495824028" lon="14.813682544622397"><ele>766.4000000000001</ele><time>2026-04-15T10:33:55.998Z</time></trkpt><trkpt lat="37.128529843885296" lon="14.813691722548336"><ele>767.6</ele><time>2026-04-15T10:33:56.998Z</time></trkpt><trkpt lat="37.128413564292586" lon="14.813714474400081"><ele>768.8</ele><time>2026-04-15T10:33:57.998Z</time></trkpt><trkpt lat="37.12828777563428" lon="14.813749750164849"><ele>770.0</ele><time>2026-04-15T10:33:58.998Z</time></trkpt><trkpt lat="37.128148321590466" lon="14.813791134347127"><ele>770.75</ele><time>2026-04-15T10:33:59.998Z</time></trkpt><trkpt lat="37.12800514742119" lon="14.81382936497533"><ele>771.5</ele><time>2026-04-15T10:34:00.998Z</time></trkpt><trkpt lat="37.12786689673337" lon="14.813864172702331"><ele>772.25</ele><time>2026-04-15T10:34:01.998Z</time></trkpt><trkpt lat="37.12773362708121" lon="14.81388657531591"><ele>773.0</ele><time>2026-04-15T10:34:02.998Z</time></trkpt><trkpt lat="37.1276135117101" lon="14.813866414538026"><ele>773.0</ele><time>2026-04-15T10:34:03.998Z</time></trkpt><trkpt lat="37.12750086249161" lon="14.813794697755958"><ele>773.0</ele><time>2026-04-15T10:34:04.998Z</time></trkpt><trkpt lat="37.12737449573995" lon="14.813677817188713"><ele>773.0</ele><time>2026-04-15T10:34:05.998Z</time></trkpt><trkpt lat="37.12724441969963" lon="14.81354935456687"><ele>773.0</ele><time>2026-04-15T10:34:06.998Z</time></trkpt><trkpt lat="37.12712976866993" lon="14.813426291419873"><ele>772.3333333333334</ele><time>2026-04-15T10:34:07.998Z</time></trkpt><trkpt lat="37.12701713198028" lon="14.813307306864761"><ele>771.6666666666667</ele><time>2026-04-15T10:34:08.998Z</time></trkpt><trkpt lat="37.12689955304836" lon="14.813180787695373"><ele>771.0</ele><time>2026-04-15T10:34:10Z</time></trkpt><trkpt lat="37.12678918574805" lon="14.81305579932858"><ele>771.0</ele><time>2026-04-15T10:34:11Z</time></trkpt><trkpt lat="37.12668409827229" lon="14.81294725175935"><ele>771.0</ele><time>2026-04-15T10:34:12Z</time></trkpt><trkpt lat="37.126565076215385" lon="14.812865205347704"><ele>771.0</ele><time>2026-04-15T10:34:13Z</time></trkpt><trkpt lat="37.126430918962384" lon="14.812796007613024"><ele>771.0</ele><time>2026-04-15T10:34:14Z</time></trkpt><trkpt lat="37.126293193420146" lon="14.812737976445716"><ele>771.6666666666667</ele><time>2026-04-15T10:34:15Z</time></trkpt><trkpt lat="37.126142493279225" lon="14.812717147758566"><ele>772.3333333333334</ele><time>2026-04-15T10:34:16Z</time></trkpt><trkpt lat="37.12597626350004" lon="14.812763329531299"><ele>773.0</ele><time>2026-04-15T10:34:17Z</time></trkpt><trkpt lat="37.12579643896239" lon="14.812805416050885"><ele>773.6666666666667</ele><time>2026-04-15T10:34:18Z</time></trkpt><trkpt lat="37.12562099701683" lon="14.812843302526858"><ele>774.3333333333333</ele><time>2026-04-15T10:34:19Z</time></trkpt><trkpt lat="37.12542915448145" lon="14.81286372207205"><ele>775.0</ele><time>2026-04-15T10:34:20Z</time></trkpt><trkpt lat="37.125245359201806" lon="14.812885425289888"><ele>775.0</ele><time>2026-04-15T10:34:21Z</time></trkpt><trkpt lat="37.125059051858514" lon="14.812913581199496"><ele>775.0</ele><time>2026-04-15T10:34:22Z</time></trkpt><trkpt lat="37.124884392949035" lon="14.812946027671773"><ele>775.0</ele><time>2026-04-15T10:34:23Z</time></trkpt><trkpt lat="37.124717256382624" lon="14.81297570175753"><ele>776.0</ele><time>2026-04-15T10:34:24Z</time></trkpt><trkpt lat="37.12456075042716" lon="14.812996720326709"><ele>777.0</ele><time>2026-04-15T10:34:25Z</time></trkpt><trkpt lat="37.12440278254831" lon="14.813003082514534"><ele>778.0</ele><time>2026-04-15T10:34:26Z</time></trkpt><trkpt lat="37.12424251592563" lon="14.812983213539054"><ele>778.0</ele><time>2026-04-15T10:34:27Z</time></trkpt><trkpt lat="37.12408983875121" lon="14.812947239615799"><ele>778.0</ele><time>2026-04-15T10:34:28Z</time></trkpt><trkpt lat="37.123915407459776" lon="14.812900613910212"><ele>778.0</ele><time>2026-04-15T10:34:29Z</time></trkpt><trkpt lat="37.123730823999146" lon="14.812856791605089"><ele>777.3333333333333</ele><time>2026-04-15T10:34:30Z</time></trkpt><trkpt lat="37.12355492194266" lon="14.812798433083456"><ele>776.6666666666667</ele><time>2026-04-15T10:34:31Z</time></trkpt><trkpt lat="37.12338621830455" lon="14.812725483394841"><ele>776.0</ele><time>2026-04-15T10:34:32Z</time></trkpt><trkpt lat="37.12321771696485" lon="14.812630276767717"><ele>776.0</ele><time>2026-04-15T10:34:33Z</time></trkpt><trkpt lat="37.12305466110683" lon="14.812531616160083"><ele>776.0</ele><time>2026-04-15T10:34:34Z</time></trkpt><trkpt lat="37.12288590867807" lon="14.812440163761114"><ele>776.0</ele><time>2026-04-15T10:34:35Z</time></trkpt><trkpt lat="37.12271068194832" lon="14.812355077869803"><ele>776.0</ele><time>2026-04-15T10:34:36Z</time></trkpt><trkpt lat="37.12253909808607" lon="14.812255951963923"><ele>776.0</ele><time>2026-04-15T10:34:37Z</time></trkpt><trkpt lat="37.122370094198956" lon="14.812142112533703"><ele>776.0</ele><time>2026-04-15T10:34:38Z</time></trkpt><trkpt lat="37.12221235475589" lon="14.812010090484883"><ele>776.3333333333334</ele><time>2026-04-15T10:34:39Z</time></trkpt><trkpt lat="37.12206588413064" lon="14.811852085836147"><ele>776.6666666666667</ele><time>2026-04-15T10:34:40Z</time></trkpt><trkpt lat="37.12193262439246" lon="14.811679391954625"><ele>777.0</ele><time>2026-04-15T10:34:41Z</time></trkpt><trkpt lat="37.12181440594402" lon="14.811470837754388"><ele>777.0</ele><time>2026-04-15T10:34:42Z</time></trkpt><trkpt lat="37.12170511143419" lon="14.811241221533352"><ele>777.0</ele><time>2026-04-15T10:34:43Z</time></trkpt><trkpt lat="37.121588046430496" lon="14.811014323228235"><ele>777.0</ele><time>2026-04-15T10:34:44Z</time></trkpt><trkpt lat="37.12148382916467" lon="14.8107961080093"><ele>777.6666666666667</ele><time>2026-04-15T10:34:45Z</time></trkpt><trkpt lat="37.12142249630894" lon="14.810605962183645"><ele>778.3333333333334</ele><time>2026-04-15T10:34:46Z</time></trkpt><trkpt lat="37.121347270758704" lon="14.810403583400667"><ele>779.0</ele><time>2026-04-15T10:34:47Z</time></trkpt><trkpt lat="37.12129391063168" lon="14.81020982848152"><ele>778.3333333333334</ele><time>2026-04-15T10:34:48Z</time></trkpt><trkpt lat="37.12125555956336" lon="14.810011633948353"><ele>777.6666666666667</ele><time>2026-04-15T10:34:49Z</time></trkpt><trkpt lat="37.12124385300132" lon="14.809804659137763"><ele>777.0</ele><time>2026-04-15T10:34:50Z</time></trkpt><trkpt lat="37.121265628152806" lon="14.809607806564014"><ele>777.0</ele><time>2026-04-15T10:34:51Z</time></trkpt><trkpt lat="37.1213140348382" lon="14.809431225434695"><ele>777.0</ele><time>2026-04-15T10:34:52Z</time></trkpt><trkpt lat="37.12139122502828" lon="14.809270044720723"><ele>777.0</ele><time>2026-04-15T10:34:53Z</time></trkpt><trkpt lat="37.121500545543306" lon="14.809113765610038"><ele>776.0</ele><time>2026-04-15T10:34:53.999Z</time></trkpt><trkpt lat="37.12160999379334" lon="14.808938311254755"><ele>775.0</ele><time>2026-04-15T10:34:54.999Z</time></trkpt><trkpt lat="37.12171014238796" lon="14.808772819059078"><ele>774.0</ele><time>2026-04-15T10:34:55.999Z</time></trkpt><trkpt lat="37.121799280172866" lon="14.808621322728165"><ele>775.0</ele><time>2026-04-15T10:34:56.999Z</time></trkpt><trkpt lat="37.12186956325194" lon="14.808465901894621"><ele>776.0</ele><time>2026-04-15T10:34:57.999Z</time></trkpt><trkpt lat="37.12193075052479" lon="14.808297621089444"><ele>777.0</ele><time>2026-04-15T10:34:58.999Z</time></trkpt><trkpt lat="37.121961666134524" lon="14.808112282557657"><ele>778.0</ele><time>2026-04-15T10:34:59.999Z</time></trkpt><trkpt lat="37.12195679510759" lon="14.80790173699648"><ele>778.0</ele><time>2026-04-15T10:35:00.999Z</time></trkpt><trkpt lat="37.121932426228554" lon="14.807692685296825"><ele>778.0</ele><time>2026-04-15T10:35:01.999Z</time></trkpt><trkpt lat="37.12187612795342" lon="14.807500981569111"><ele>778.0</ele><time>2026-04-15T10:35:02.999Z</time></trkpt><trkpt lat="37.12179440384457" lon="14.807320579232577"><ele>777.6666666666666</ele><time>2026-04-15T10:35:03.999Z</time></trkpt><trkpt lat="37.121678871572655" lon="14.807170929139396"><ele>777.3333333333333</ele><time>2026-04-15T10:35:04.999Z</time></trkpt><trkpt lat="37.1215486040913" lon="14.807044856657111"><ele>777.0</ele><time>2026-04-15T10:35:05.999Z</time></trkpt><trkpt lat="37.121403771167955" lon="14.806951530673592"><ele>778.0</ele><time>2026-04-15T10:35:06.999Z</time></trkpt><trkpt lat="37.121246482210466" lon="14.806875775944006"><ele>779.0</ele><time>2026-04-15T10:35:07.999Z</time></trkpt><trkpt lat="37.12107524784881" lon="14.80680181727254"><ele>780.0</ele><time>2026-04-15T10:35:08.999Z</time></trkpt><trkpt lat="37.120907449664415" lon="14.806730726706444"><ele>779.6666666666667</ele><time>2026-04-15T10:35:09.999Z</time></trkpt><trkpt lat="37.12074458631406" lon="14.806656326725228"><ele>779.3333333333334</ele><time>2026-04-15T10:35:10.999Z</time></trkpt><trkpt lat="37.12059100553467" lon="14.806586482370658"><ele>779.0</ele><time>2026-04-15T10:35:11.999Z</time></trkpt><trkpt lat="37.12044713385907" lon="14.806522603023097"><ele>779.0</ele><time>2026-04-15T10:35:12.999Z</time></trkpt><trkpt lat="37.1203079499036" lon="14.806466136564609"><ele>779.0</ele><time>2026-04-15T10:35:13.999Z</time></trkpt><trkpt lat="37.12018102062321" lon="14.806400158726296"><ele>779.0</ele><time>2026-04-15T10:35:14.999Z</time></trkpt><trkpt lat="37.12007153625066" lon="14.806313722233655"><ele>779.0</ele><time>2026-04-15T10:35:15.999Z</time></trkpt><trkpt lat="37.119966502837485" lon="14.806214408468051"><ele>778.5</ele><time>2026-04-15T10:35:16.999Z</time></trkpt><trkpt lat="37.119853786080036" lon="14.806098044061173"><ele>778.0</ele><time>2026-04-15T10:35:17.999Z</time></trkpt><trkpt lat="37.1197357229365" lon="14.80596688725434"><ele>777.5</ele><time>2026-04-15T10:35:18.999Z</time></trkpt><trkpt lat="37.1196335253813" lon="14.805838216326451"><ele>777.0</ele><time>2026-04-15T10:35:19.999Z</time></trkpt><trkpt lat="37.11954635312418" lon="14.805720002247236"><ele>777.0</ele><time>2026-04-15T10:35:20.999Z</time></trkpt><trkpt lat="37.119493722129164" lon="14.805602546724108"><ele>777.0</ele><time>2026-04-15T10:35:21.999Z</time></trkpt><trkpt lat="37.11946424015079" lon="14.805495340308441"><ele>777.0</ele><time>2026-04-15T10:35:22.999Z</time></trkpt><trkpt lat="37.119430676324185" lon="14.80539836857915"><ele>777.0</ele><time>2026-04-15T10:35:23.999Z</time></trkpt><trkpt lat="37.11939395341987" lon="14.805310676038502"><ele>777.0</ele><time>2026-04-15T10:35:24.999Z</time></trkpt><trkpt lat="37.11936301759637" lon="14.805223458750802"><ele>777.0</ele><time>2026-04-15T10:35:25.999Z</time></trkpt><trkpt lat="37.1193383896949" lon="14.805134519599617"><ele>776.8571428571429</ele><time>2026-04-15T10:35:26.999Z</time></trkpt><trkpt lat="37.11930710304747" lon="14.805051813482994"><ele>776.7142857142858</ele><time>2026-04-15T10:35:27.999Z</time></trkpt><trkpt lat="37.11928107342425" lon="14.804971895633146"><ele>776.5714285714286</ele><time>2026-04-15T10:35:28.999Z</time></trkpt><trkpt lat="37.11925647373232" lon="14.80489272559729"><ele>776.4285714285714</ele><time>2026-04-15T10:35:29.999Z</time></trkpt><trkpt lat="37.11923275301221" lon="14.804813537733008"><ele>776.2857142857143</ele><time>2026-04-15T10:35:30.999Z</time></trkpt><trkpt lat="37.11920943962131" lon="14.80473986028304"><ele>776.1428571428571</ele><time>2026-04-15T10:35:31.999Z</time></trkpt><trkpt lat="37.119182122268676" lon="14.804666806524446"><ele>776.0</ele><time>2026-04-15T10:35:32.999Z</time></trkpt><trkpt lat="37.1191496055529" lon="14.80457585593483"><ele>776.0</ele><time>2026-04-15T10:35:33.999Z</time></trkpt><trkpt lat="37.11911174268076" lon="14.804472820079019"><ele>776.0</ele><time>2026-04-15T10:35:34.999Z</time></trkpt><trkpt lat="37.11907007145545" lon="14.80435512483862"><ele>776.0</ele><time>2026-04-15T10:35:35.999Z</time></trkpt><trkpt lat="37.11902688616512" lon="14.804235295560014"><ele>776.0</ele><time>2026-04-15T10:35:36.999Z</time></trkpt><trkpt lat="37.11897670897817" lon="14.80410550312372"><ele>776.0</ele><time>2026-04-15T10:35:37.999Z</time></trkpt><trkpt lat="37.11892926230816" lon="14.803967587232014"><ele>776.75</ele><time>2026-04-15T10:35:38.999Z</time></trkpt><trkpt lat="37.11888127652794" lon="14.803827935198843"><ele>777.5</ele><time>2026-04-15T10:35:39.999Z</time></trkpt><trkpt lat="37.11883456104851" lon="14.80367880000337"><ele>778.25</ele><time>2026-04-15T10:35:40.999Z</time></trkpt><trkpt lat="37.11878302908272" lon="14.803514287817295"><ele>779.0</ele><time>2026-04-15T10:35:41.999Z</time></trkpt><trkpt lat="37.11872198871287" lon="14.803339077028951"><ele>779.0</ele><time>2026-04-15T10:35:42.999Z</time></trkpt><trkpt lat="37.11865404525399" lon="14.803155401303277"><ele>779.0</ele><time>2026-04-15T10:35:43.999Z</time></trkpt><trkpt lat="37.11859326165278" lon="14.802969480358431"><ele>779.0</ele><time>2026-04-15T10:35:44.999Z</time></trkpt><trkpt lat="37.11853276609995" lon="14.802792510320764"><ele>778.0</ele><time>2026-04-15T10:35:45.999Z</time></trkpt><trkpt lat="37.11846194544062" lon="14.802618890289462"><ele>777.0</ele><time>2026-04-15T10:35:46.999Z</time></trkpt><trkpt lat="37.11838456029079" lon="14.802445310758637"><ele>776.0</ele><time>2026-04-15T10:35:47.999Z</time></trkpt><trkpt lat="37.11829833391758" lon="14.802268869264227"><ele>778.3333333333334</ele><time>2026-04-15T10:35:48.999Z</time></trkpt><trkpt lat="37.1181979122399" lon="14.80209334876576"><ele>780.6666666666667</ele><time>2026-04-15T10:35:49.999Z</time></trkpt><trkpt lat="37.118102967469035" lon="14.80191203119887"><ele>783.0</ele><time>2026-04-15T10:35:50.999Z</time></trkpt><trkpt lat="37.11801125652895" lon="14.80172971176859"><ele>783.0</ele><time>2026-04-15T10:35:51.999Z</time></trkpt><trkpt lat="37.11792294916729" lon="14.801536693483063"><ele>783.0</ele><time>2026-04-15T10:35:52.999Z</time></trkpt><trkpt lat="37.117851677750295" lon="14.80134844159726"><ele>783.0</ele><time>2026-04-15T10:35:53.999Z</time></trkpt><trkpt lat="37.117791619230964" lon="14.801165426760685"><ele>781.5</ele><time>2026-04-15T10:35:54.999Z</time></trkpt><trkpt lat="37.11775296020651" lon="14.800994763476854"><ele>780.0</ele><time>2026-04-15T10:35:55.999Z</time></trkpt><trkpt lat="37.11773729092101" lon="14.800858774900986"><ele>778.5</ele><time>2026-04-15T10:35:56.999Z</time></trkpt><trkpt lat="37.117751923889905" lon="14.800730979145394"><ele>777.0</ele><time>2026-04-15T10:35:57.999Z</time></trkpt><trkpt lat="37.11778152756059" lon="14.80059657936732"><ele>777.0</ele><time>2026-04-15T10:35:58.999Z</time></trkpt><trkpt lat="37.11783550689373" lon="14.800454995739731"><ele>777.0</ele><time>2026-04-15T10:35:59.999Z</time></trkpt><trkpt lat="37.11791186993135" lon="14.800299696371422"><ele>777.0</ele><time>2026-04-15T10:36:00.999Z</time></trkpt><trkpt lat="37.11799326585319" lon="14.80015257534522"><ele>777.0</ele><time>2026-04-15T10:36:01.999Z</time></trkpt><trkpt lat="37.118076914733784" lon="14.80000914066873"><ele>778.0</ele><time>2026-04-15T10:36:02.999Z</time></trkpt><trkpt lat="37.11815133640474" lon="14.799848755866961"><ele>779.0</ele><time>2026-04-15T10:36:03.999Z</time></trkpt><trkpt lat="37.118218557839505" lon="14.799684059965637"><ele>780.0</ele><time>2026-04-15T10:36:04.999Z</time></trkpt><trkpt lat="37.11826464287293" lon="14.799497821160086"><ele>777.3333333333333</ele><time>2026-04-15T10:36:05.999Z</time></trkpt><trkpt lat="37.11828553171318" lon="14.799295280206918"><ele>774.6666666666666</ele><time>2026-04-15T10:36:06.998Z</time></trkpt><trkpt lat="37.11827861658465" lon="14.799100941456214"><ele>772.0</ele><time>2026-04-15T10:36:07.998Z</time></trkpt><trkpt lat="37.11825398581636" lon="14.798907243555481"><ele>774.0</ele><time>2026-04-15T10:36:08.998Z</time></trkpt><trkpt lat="37.118210990118435" lon="14.798717499346749"><ele>776.0</ele><time>2026-04-15T10:36:09.998Z</time></trkpt><trkpt lat="37.11816626970449" lon="14.798532027882857"><ele>778.0</ele><time>2026-04-15T10:36:10.998Z</time></trkpt><trkpt lat="37.11812997342413" lon="14.79835168002758"><ele>778.0</ele><time>2026-04-15T10:36:11.998Z</time></trkpt><trkpt lat="37.11810732250124" lon="14.798174222294627"><ele>778.0</ele><time>2026-04-15T10:36:12.998Z</time></trkpt><trkpt lat="37.118103441482404" lon="14.797992310483691"><ele>778.0</ele><time>2026-04-15T10:36:13.998Z</time></trkpt><trkpt lat="37.118118764756716" lon="14.79779809801123"><ele>778.0</ele><time>2026-04-15T10:36:14.998Z</time></trkpt><trkpt lat="37.11813432716607" lon="14.797596901993302"><ele>779.3333333333333</ele><time>2026-04-15T10:36:16Z</time></trkpt><trkpt lat="37.118140291011144" lon="14.797396462081755"><ele>780.6666666666667</ele><time>2026-04-15T10:36:17Z</time></trkpt><trkpt lat="37.11814087756578" lon="14.797196331065345"><ele>782.0</ele><time>2026-04-15T10:36:18Z</time></trkpt><trkpt lat="37.11812469002433" lon="14.796997355705594"><ele>781.75</ele><time>2026-04-15T10:36:19Z</time></trkpt><trkpt lat="37.118106674142865" lon="14.79681274791996"><ele>781.5</ele><time>2026-04-15T10:36:20Z</time></trkpt><trkpt lat="37.118066233606164" lon="14.796633239280016"><ele>781.25</ele><time>2026-04-15T10:36:21Z</time></trkpt><trkpt lat="37.11801962749686" lon="14.796457245395093"><ele>781.0</ele><time>2026-04-15T10:36:22Z</time></trkpt><trkpt lat="37.117980325741755" lon="14.79628682043355"><ele>781.0</ele><time>2026-04-15T10:36:23Z</time></trkpt><trkpt lat="37.117964494117025" lon="14.79612972910145"><ele>781.0</ele><time>2026-04-15T10:36:24Z</time></trkpt><trkpt lat="37.1179700069323" lon="14.795980515603562"><ele>781.0</ele><time>2026-04-15T10:36:25Z</time></trkpt><trkpt lat="37.117997124653144" lon="14.795837816783134"><ele>781.0</ele><time>2026-04-15T10:36:26Z</time></trkpt><trkpt lat="37.11803323974687" lon="14.795713180805997"><ele>781.0</ele><time>2026-04-15T10:36:27Z</time></trkpt><trkpt lat="37.118086732533115" lon="14.795586789660655"><ele>781.0</ele><time>2026-04-15T10:36:28Z</time></trkpt><trkpt lat="37.118146964250045" lon="14.79546352570523"><ele>781.0</ele><time>2026-04-15T10:36:29Z</time></trkpt><trkpt lat="37.11821944492605" lon="14.795364591494236"><ele>781.0</ele><time>2026-04-15T10:36:30Z</time></trkpt><trkpt lat="37.118293795283364" lon="14.795283537448936"><ele>781.0</ele><time>2026-04-15T10:36:31Z</time></trkpt><trkpt lat="37.11835780537963" lon="14.795206217226859"><ele>780.4999999999999</ele><time>2026-04-15T10:36:32Z</time></trkpt><trkpt lat="37.11841416113505" lon="14.795142356233708"><ele>780.0</ele><time>2026-04-15T10:36:33Z</time></trkpt><trkpt lat="37.118466279753" lon="14.795094310093326"><ele>779.5</ele><time>2026-04-15T10:36:34Z</time></trkpt><trkpt lat="37.11851729775522" lon="14.795020680200503"><ele>779.0</ele><time>2026-04-15T10:36:55Z</time></trkpt><trkpt lat="37.11856529916162" lon="14.794953932641533"><ele>778.4999999999999</ele><time>2026-04-15T10:36:56Z</time></trkpt><trkpt lat="37.11862222687342" lon="14.794887085751686"><ele>778.0</ele><time>2026-04-15T10:36:57Z</time></trkpt><trkpt lat="37.118688043924024" lon="14.794811802819162"><ele>778.0</ele><time>2026-04-15T10:36:58Z</time></trkpt><trkpt lat="37.11876292444179" lon="14.794721583430412"><ele>778.0</ele><time>2026-04-15T10:36:59Z</time></trkpt><trkpt lat="37.118848083298126" lon="14.794624586458276"><ele>778.0</ele><time>2026-04-15T10:37:00Z</time></trkpt><trkpt lat="37.11893986355834" lon="14.794522924486595"><ele>778.0</ele><time>2026-04-15T10:37:01Z</time></trkpt><trkpt lat="37.11903403427065" lon="14.794417278992556"><ele>777.25</ele><time>2026-04-15T10:37:02Z</time></trkpt><trkpt lat="37.11912718254492" lon="14.794305630296064"><ele>776.5</ele><time>2026-04-15T10:37:03Z</time></trkpt><trkpt lat="37.119216653888316" lon="14.794192622508103"><ele>775.75</ele><time>2026-04-15T10:37:03.999Z</time></trkpt><trkpt lat="37.11931280607508" lon="14.794083102992241"><ele>775.0</ele><time>2026-04-15T10:37:04.999Z</time></trkpt><trkpt lat="37.11940224561266" lon="14.793986725763657"><ele>775.0</ele><time>2026-04-15T10:37:05.999Z</time></trkpt><trkpt lat="37.11949269267682" lon="14.793884847676418"><ele>775.0</ele><time>2026-04-15T10:37:06.999Z</time></trkpt><trkpt lat="37.11957694693082" lon="14.793797350128436"><ele>775.0</ele><time>2026-04-15T10:37:07.999Z</time></trkpt><trkpt lat="37.119653686587725" lon="14.793710090481042"><ele>775.0</ele><time>2026-04-15T10:37:08.999Z</time></trkpt><trkpt lat="37.11972425633393" lon="14.793632473624212"><ele>775.0</ele><time>2026-04-15T10:37:09.999Z</time></trkpt><trkpt lat="37.11978714632577" lon="14.793559081529983"><ele>774.9999999999999</ele><time>2026-04-15T10:37:10.999Z</time></trkpt><trkpt lat="37.119841472101356" lon="14.793488794768047"><ele>775.0</ele><time>2026-04-15T10:37:11.999Z</time></trkpt><trkpt lat="37.11989142756531" lon="14.793416083090886"><ele>775.0</ele><time>2026-04-15T10:37:12.999Z</time></trkpt><trkpt lat="37.119932590939214" lon="14.793341823339139"><ele>775.0</ele><time>2026-04-15T10:37:13.999Z</time></trkpt><trkpt lat="37.11996651785595" lon="14.793255117508824"><ele>774.9999999999999</ele><time>2026-04-15T10:37:14.999Z</time></trkpt><trkpt lat="37.119997084886364" lon="14.79315832663584"><ele>775.0</ele><time>2026-04-15T10:37:15.999Z</time></trkpt><trkpt lat="37.120032009231025" lon="14.793050057834886"><ele>775.0</ele><time>2026-04-15T10:37:16.999Z</time></trkpt><trkpt lat="37.1200582487976" lon="14.79292594216605"><ele>775.0</ele><time>2026-04-15T10:37:17.999Z</time></trkpt><trkpt lat="37.12007263999369" lon="14.792792577048095"><ele>775.0</ele><time>2026-04-15T10:37:18.999Z</time></trkpt><trkpt lat="37.12007713317889" lon="14.792653701331165"><ele>775.0</ele><time>2026-04-15T10:37:19.999Z</time></trkpt><trkpt lat="37.12006887079748" lon="14.792510489823922"><ele>775.0</ele><time>2026-04-15T10:37:20.999Z</time></trkpt><trkpt lat="37.120040297955356" lon="14.792364924636686"><ele>774.5</ele><time>2026-04-15T10:37:21.999Z</time></trkpt><trkpt lat="37.119994195373636" lon="14.792219090542448"><ele>774.0</ele><time>2026-04-15T10:37:22.999Z</time></trkpt><trkpt lat="37.119947097443365" lon="14.79206713980204"><ele>773.5</ele><time>2026-04-15T10:37:23.999Z</time></trkpt><trkpt lat="37.11989785231887" lon="14.791907138636185"><ele>773.0</ele><time>2026-04-15T10:37:24.999Z</time></trkpt><trkpt lat="37.11984961316942" lon="14.791736211559153"><ele>776.5</ele><time>2026-04-15T10:37:25.999Z</time></trkpt><trkpt lat="37.119803230680546" lon="14.791571893659045"><ele>780.0</ele><time>2026-04-15T10:37:26.999Z</time></trkpt><trkpt lat="37.119757441736354" lon="14.791399046910506"><ele>783.5</ele><time>2026-04-15T10:37:27.999Z</time></trkpt><trkpt lat="37.119718371636004" lon="14.791216984927189"><ele>787.0</ele><time>2026-04-15T10:37:28.999Z</time></trkpt><trkpt lat="37.11969716144863" lon="14.79102704249308"><ele>786.75</ele><time>2026-04-15T10:37:29.999Z</time></trkpt><trkpt lat="37.119698076517714" lon="14.790845127297269"><ele>786.5</ele><time>2026-04-15T10:37:30.999Z</time></trkpt><trkpt lat="37.119724291536556" lon="14.790661551962735"><ele>786.25</ele><time>2026-04-15T10:37:31.999Z</time></trkpt><trkpt lat="37.1197576836362" lon="14.790471239365653"><ele>786.0</ele><time>2026-04-15T10:37:32.999Z</time></trkpt><trkpt lat="37.1197857784013" lon="14.790278379511765"><ele>786.0</ele><time>2026-04-15T10:37:33.999Z</time></trkpt><trkpt lat="37.11981387536986" lon="14.790092118368687"><ele>786.0</ele><time>2026-04-15T10:37:34.999Z</time></trkpt><trkpt lat="37.11984078071694" lon="14.78990647498035"><ele>786.0</ele><time>2026-04-15T10:37:35.999Z</time></trkpt><trkpt lat="37.11986846492495" lon="14.789716598129257"><ele>786.0</ele><time>2026-04-15T10:37:36.999Z</time></trkpt><trkpt lat="37.11989742686838" lon="14.789527599015223"><ele>786.0</ele><time>2026-04-15T10:37:37.999Z</time></trkpt><trkpt lat="37.119927201494164" lon="14.789342811325898"><ele>786.0</ele><time>2026-04-15T10:37:38.999Z</time></trkpt><trkpt lat="37.11995087349424" lon="14.789173743480854"><ele>786.0</ele><time>2026-04-15T10:37:39.999Z</time></trkpt><trkpt lat="37.119962618842365" lon="14.78901254043186"><ele>785.0</ele><time>2026-04-15T10:37:40.999Z</time></trkpt><trkpt lat="37.11995783795122" lon="14.788859783810947"><ele>784.0</ele><time>2026-04-15T10:37:41.999Z</time></trkpt><trkpt lat="37.1199452410453" lon="14.788724394290716"><ele>783.0</ele><time>2026-04-15T10:37:42.999Z</time></trkpt><trkpt lat="37.11993092692382" lon="14.788602593447658"><ele>782.0</ele><time>2026-04-15T10:37:43.999Z</time></trkpt><trkpt lat="37.11991343361224" lon="14.788492458346198"><ele>781.0</ele><time>2026-04-15T10:37:44.999Z</time></trkpt><trkpt lat="37.119889609366396" lon="14.788400582883945"><ele>780.9999999999999</ele><time>2026-04-15T10:37:45.999Z</time></trkpt><trkpt lat="37.11986828369682" lon="14.788325315359113"><ele>781.0</ele><time>2026-04-15T10:37:46.999Z</time></trkpt><trkpt lat="37.11984211605899" lon="14.78825235249812"><ele>781.0</ele><time>2026-04-15T10:37:48.999Z</time></trkpt><trkpt lat="37.11992986142344" lon="14.788258578704971"><ele>781.0</ele><time>2026-04-15T10:38:14.999Z</time></trkpt><trkpt lat="37.1200097611979" lon="14.78827586102547"><ele>780.9999999999999</ele><time>2026-04-15T10:38:15.999Z</time></trkpt><trkpt lat="37.120109236864536" lon="14.788313322712028"><ele>781.0</ele><time>2026-04-15T10:38:16.999Z</time></trkpt><trkpt lat="37.120193353146" lon="14.788337845128664"><ele>779.25</ele><time>2026-04-15T10:38:17.998Z</time></trkpt><trkpt lat="37.120290605829695" lon="14.78836102191039"><ele>777.5</ele><time>2026-04-15T10:38:18.998Z</time></trkpt><trkpt lat="37.120393915107044" lon="14.788384841643191"><ele>775.75</ele><time>2026-04-15T10:38:19.998Z</time></trkpt><trkpt lat="37.12050871365833" lon="14.788415764722536"><ele>774.0</ele><time>2026-04-15T10:38:20.998Z</time></trkpt><trkpt lat="37.12064204229954" lon="14.78844502913277"><ele>772.25</ele><time>2026-04-15T10:38:22Z</time></trkpt><trkpt lat="37.12077838633947" lon="14.788473089707933"><ele>770.5</ele><time>2026-04-15T10:38:23Z</time></trkpt><trkpt lat="37.12091728548279" lon="14.788502701481947"><ele>768.75</ele><time>2026-04-15T10:38:24Z</time></trkpt><trkpt lat="37.12106854152133" lon="14.788536474914501"><ele>767.0</ele><time>2026-04-15T10:38:25Z</time></trkpt><trkpt lat="37.12122243046619" lon="14.788570927604772"><ele>767.0</ele><time>2026-04-15T10:38:26Z</time></trkpt><trkpt lat="37.12137507882521" lon="14.788601456058984"><ele>767.0</ele><time>2026-04-15T10:38:27Z</time></trkpt><trkpt lat="37.12152748432617" lon="14.788630308503711"><ele>767.0</ele><time>2026-04-15T10:38:28Z</time></trkpt><trkpt lat="37.12167264959776" lon="14.788672021909084"><ele>765.75</ele><time>2026-04-15T10:38:29Z</time></trkpt><trkpt lat="37.12181618859712" lon="14.788711830266186"><ele>764.5</ele><time>2026-04-15T10:38:30Z</time></trkpt><trkpt lat="37.121942459465195" lon="14.788750502268929"><ele>763.25</ele><time>2026-04-15T10:38:31Z</time></trkpt><trkpt lat="37.122077445832055" lon="14.788790645678867"><ele>762.0</ele><time>2026-04-15T10:38:32Z</time></trkpt><trkpt lat="37.122196917671914" lon="14.788823396287482"><ele>762.0</ele><time>2026-04-15T10:38:33Z</time></trkpt><trkpt lat="37.12229921299619" lon="14.788843864762951"><ele>762.0</ele><time>2026-04-15T10:38:34Z</time></trkpt><trkpt lat="37.12237624227603" lon="14.788862891258757"><ele>762.0</ele><time>2026-04-15T10:38:35Z</time></trkpt><trkpt lat="37.122442294351224" lon="14.78888200657842"><ele>762.0</ele><time>2026-04-15T10:38:36Z</time></trkpt><trkpt lat="37.12250990811123" lon="14.788901491383754"><ele>762.0</ele><time>2026-04-15T10:38:37Z</time></trkpt><trkpt lat="37.122584588734874" lon="14.788919535771793"><ele>762.0</ele><time>2026-04-15T10:38:38Z</time></trkpt><trkpt lat="37.12266004949581" lon="14.788943200168713"><ele>760.7142857142857</ele><time>2026-04-15T10:38:39Z</time></trkpt><trkpt lat="37.122735920067115" lon="14.788965227041835"><ele>759.4285714285714</ele><time>2026-04-15T10:38:40Z</time></trkpt><trkpt lat="37.12280544749967" lon="14.788983579943261"><ele>758.1428571428571</ele><time>2026-04-15T10:38:41Z</time></trkpt><trkpt lat="37.12287602755903" lon="14.789000627893676"><ele>756.8571428571429</ele><time>2026-04-15T10:38:42Z</time></trkpt><trkpt lat="37.12294121202122" lon="14.789017835764913"><ele>755.5714285714287</ele><time>2026-04-15T10:38:43Z</time></trkpt><trkpt lat="37.12300858879713" lon="14.789032327794878"><ele>754.2857142857143</ele><time>2026-04-15T10:38:44Z</time></trkpt><trkpt lat="37.12307153782255" lon="14.789049389952389"><ele>753.0</ele><time>2026-04-15T10:38:45Z</time></trkpt><trkpt lat="37.123133113446734" lon="14.789070873496907"><ele>750.4</ele><time>2026-04-15T10:38:46Z</time></trkpt><trkpt lat="37.123237364099474" lon="14.789100525523281"><ele>747.8</ele><time>2026-04-15T10:38:48Z</time></trkpt><trkpt lat="37.1233331873419" lon="14.789120858562063"><ele>745.2</ele><time>2026-04-15T10:38:50Z</time></trkpt><trkpt lat="37.1234437570024" lon="14.789144772438055"><ele>742.6</ele><time>2026-04-15T10:38:52Z</time></trkpt><trkpt lat="37.12356286444127" lon="14.789176182100011"><ele>740.0</ele><time>2026-04-15T10:38:54Z</time></trkpt><trkpt lat="37.12362529794919" lon="14.789186918779846"><ele>739.9999999999999</ele><time>2026-04-15T10:38:55Z</time></trkpt><trkpt lat="37.123690513502005" lon="14.789201142775871"><ele>740.0</ele><time>2026-04-15T10:38:56Z</time></trkpt><trkpt lat="37.1237638482395" lon="14.789221438887578"><ele>740.0</ele><time>2026-04-15T10:38:57Z</time></trkpt><trkpt lat="37.12382884518949" lon="14.789237510574498"><ele>740.0</ele><time>2026-04-15T10:38:58Z</time></trkpt><trkpt lat="37.12392957943112" lon="14.789259939821118"><ele>740.0</ele><time>2026-04-15T10:39:00Z</time></trkpt><trkpt lat="37.12399913745566" lon="14.78928013611086"><ele>739.9999999999999</ele><time>2026-04-15T10:39:02Z</time></trkpt><trkpt lat="37.12406121852611" lon="14.789295235202824"><ele>740.0</ele><time>2026-04-15T10:39:06Z</time></trkpt><trkpt lat="37.12412941865926" lon="14.789307839665335"><ele>737.4</ele><time>2026-04-15T10:39:09Z</time></trkpt><trkpt lat="37.124228547224604" lon="14.789335902245035"><ele>734.8</ele><time>2026-04-15T10:39:11Z</time></trkpt><trkpt lat="37.12432727477332" lon="14.78935975952741"><ele>732.2</ele><time>2026-04-15T10:39:13Z</time></trkpt><trkpt lat="37.12441294860005" lon="14.789381154577557"><ele>729.6</ele><time>2026-04-15T10:39:14.999Z</time></trkpt><trkpt lat="37.12449924094971" lon="14.789402845951408"><ele>727.0</ele><time>2026-04-15T10:39:16.999Z</time></trkpt><trkpt lat="37.12457558496815" lon="14.789425838246629"><ele>725.8</ele><time>2026-04-15T10:39:18.999Z</time></trkpt><trkpt lat="37.12465367495054" lon="14.789448161631512"><ele>724.6</ele><time>2026-04-15T10:39:20.999Z</time></trkpt><trkpt lat="37.124748391922346" lon="14.789468778489816"><ele>723.4</ele><time>2026-04-15T10:39:22.999Z</time></trkpt><trkpt lat="37.1248438707381" lon="14.789500051343282"><ele>722.1999999999999</ele><time>2026-04-15T10:39:24.999Z</time></trkpt><trkpt lat="37.12496382820143" lon="14.789521716159372"><ele>721.0</ele><time>2026-04-15T10:39:26.999Z</time></trkpt><trkpt lat="37.12506369699562" lon="14.789550592619836"><ele>718.1999999999999</ele><time>2026-04-15T10:39:28.999Z</time></trkpt><trkpt lat="37.12515439970111" lon="14.789580152084087"><ele>715.4</ele><time>2026-04-15T10:39:30.999Z</time></trkpt><trkpt lat="37.125254162711244" lon="14.789601609770491"><ele>712.6</ele><time>2026-04-15T10:39:32.999Z</time></trkpt><trkpt lat="37.12534544983789" lon="14.789622998193872"><ele>709.8</ele><time>2026-04-15T10:39:34.999Z</time></trkpt><trkpt lat="37.125429228182846" lon="14.789646474998284"><ele>707.0</ele><time>2026-04-15T10:39:36.999Z</time></trkpt><trkpt lat="37.12552661692974" lon="14.789672508977427"><ele>707.0</ele><time>2026-04-15T10:39:38.999Z</time></trkpt><trkpt lat="37.12561437184149" lon="14.789693140337125"><ele>707.0</ele><time>2026-04-15T10:39:40.999Z</time></trkpt><trkpt lat="37.12569472577984" lon="14.789716750778615"><ele>707.0</ele><time>2026-04-15T10:39:42.999Z</time></trkpt><trkpt lat="37.12578037034742" lon="14.789723016254236"><ele>707.0</ele><time>2026-04-15T10:39:44.999Z</time></trkpt><trkpt lat="37.12586586116566" lon="14.789712477666763"><ele>707.0</ele><time>2026-04-15T10:39:46.999Z</time></trkpt><trkpt lat="37.125952372568214" lon="14.789715505509351"><ele>707.0</ele><time>2026-04-15T10:39:48.999Z</time></trkpt><trkpt lat="37.12603488177965" lon="14.789737788884825"><ele>704.3333333333333</ele><time>2026-04-15T10:39:50.999Z</time></trkpt><trkpt lat="37.12610561137101" lon="14.78975302183033"><ele>701.6666666666666</ele><time>2026-04-15T10:39:52.999Z</time></trkpt><trkpt lat="37.12618010513152" lon="14.789764143166739"><ele>699.0</ele><time>2026-04-15T10:40:11.999Z</time></trkpt><trkpt lat="37.126092890816494" lon="14.789768799696956"><ele>696.3333333333334</ele><time>2026-04-15T10:40:35Z</time></trkpt><trkpt lat="37.12597881590961" lon="14.789739112520163"><ele>693.6666666666667</ele><time>2026-04-15T10:40:37Z</time></trkpt><trkpt lat="37.12591299952187" lon="14.789727472144003"><ele>691.0</ele><time>2026-04-15T10:40:38Z</time></trkpt><trkpt lat="37.125772127859456" lon="14.789722499228393"><ele>693.6666666666667</ele><time>2026-04-15T10:40:39Z</time></trkpt><trkpt lat="37.12566839916827" lon="14.78972650621785"><ele>696.3333333333334</ele><time>2026-04-15T10:40:40Z</time></trkpt><trkpt lat="37.12558458146177" lon="14.789718982786985"><ele>699.0</ele><time>2026-04-15T10:40:41Z</time></trkpt><trkpt lat="37.12550420379684" lon="14.789696422676894"><ele>701.6666666666666</ele><time>2026-04-15T10:40:42Z</time></trkpt><trkpt lat="37.125430983053576" lon="14.789664053610018"><ele>704.3333333333333</ele><time>2026-04-15T10:40:43Z</time></trkpt><trkpt lat="37.12534886365317" lon="14.789635546158687"><ele>707.0</ele><time>2026-04-15T10:40:44Z</time></trkpt><trkpt lat="37.125255993205315" lon="14.789611624080734"><ele>707.0</ele><time>2026-04-15T10:40:45Z</time></trkpt><trkpt lat="37.12515690423409" lon="14.789586685648734"><ele>707.0</ele><time>2026-04-15T10:40:46Z</time></trkpt><trkpt lat="37.12506170179738" lon="14.789560708066386"><ele>707.0</ele><time>2026-04-15T10:40:47Z</time></trkpt><trkpt lat="37.12496637964008" lon="14.78953348080393"><ele>707.0</ele><time>2026-04-15T10:40:48Z</time></trkpt><trkpt lat="37.12486342363307" lon="14.789498507150919"><ele>707.0</ele><time>2026-04-15T10:40:49Z</time></trkpt><trkpt lat="37.1247569123942" lon="14.789468355782045"><ele>709.8</ele><time>2026-04-15T10:40:50Z</time></trkpt><trkpt lat="37.124652971929784" lon="14.789443644930056"><ele>712.6</ele><time>2026-04-15T10:40:51Z</time></trkpt><trkpt lat="37.124545878339724" lon="14.789418180894252"><ele>715.4</ele><time>2026-04-15T10:40:52Z</time></trkpt><trkpt lat="37.12445383380465" lon="14.78939738397936"><ele>718.1999999999999</ele><time>2026-04-15T10:40:53Z</time></trkpt><trkpt lat="37.12435751077248" lon="14.789371908430192"><ele>721.0</ele><time>2026-04-15T10:40:54Z</time></trkpt><trkpt lat="37.12425289110914" lon="14.78934682242191"><ele>722.1999999999999</ele><time>2026-04-15T10:40:55Z</time></trkpt><trkpt lat="37.1241430673197" lon="14.789322834131532"><ele>723.4</ele><time>2026-04-15T10:40:56Z</time></trkpt><trkpt lat="37.1240387171311" lon="14.789296098634292"><ele>724.6</ele><time>2026-04-15T10:40:57Z</time></trkpt><trkpt lat="37.1239635396914" lon="14.789274734857033"><ele>725.8</ele><time>2026-04-15T10:40:58Z</time></trkpt><trkpt lat="37.12385507183066" lon="14.789243771912897"><ele>727.0</ele><time>2026-04-15T10:41:00Z</time></trkpt><trkpt lat="37.12378384113334" lon="14.78922958228663"><ele>729.6</ele><time>2026-04-15T10:41:01Z</time></trkpt><trkpt lat="37.12369836039182" lon="14.789212944617864"><ele>732.2</ele><time>2026-04-15T10:41:02Z</time></trkpt><trkpt lat="37.123615177246506" lon="14.789195672803583"><ele>734.8</ele><time>2026-04-15T10:41:03Z</time></trkpt><trkpt lat="37.123529799412246" lon="14.789173062887349"><ele>737.4</ele><time>2026-04-15T10:41:04Z</time></trkpt><trkpt lat="37.12343992747465" lon="14.78915286558472"><ele>740.0</ele><time>2026-04-15T10:41:05Z</time></trkpt><trkpt lat="37.12333464811524" lon="14.789126823591436"><ele>743.25</ele><time>2026-04-15T10:41:06Z</time></trkpt><trkpt lat="37.12322320048072" lon="14.78909902682441"><ele>746.5</ele><time>2026-04-15T10:41:07Z</time></trkpt><trkpt lat="37.12310437861781" lon="14.789070435088153"><ele>749.75</ele><time>2026-04-15T10:41:08Z</time></trkpt><trkpt lat="37.122985948079595" lon="14.78904031275497"><ele>753.0</ele><time>2026-04-15T10:41:09Z</time></trkpt><trkpt lat="37.122867119389774" lon="14.78900805613793"><ele>753.0</ele><time>2026-04-15T10:41:10Z</time></trkpt><trkpt lat="37.122747083648214" lon="14.788977800452226"><ele>753.0</ele><time>2026-04-15T10:41:11Z</time></trkpt><trkpt lat="37.12262396823832" lon="14.788947975167021"><ele>753.0</ele><time>2026-04-15T10:41:12Z</time></trkpt><trkpt lat="37.122509238825785" lon="14.788913689891643"><ele>753.0</ele><time>2026-04-15T10:41:13Z</time></trkpt><trkpt lat="37.12240312687856" lon="14.788879042194159"><ele>754.8</ele><time>2026-04-15T10:41:14Z</time></trkpt><trkpt lat="37.12229973751372" lon="14.7888574439318"><ele>756.5999999999999</ele><time>2026-04-15T10:41:15Z</time></trkpt><trkpt lat="37.1221892482153" lon="14.788826847431853"><ele>758.4000000000001</ele><time>2026-04-15T10:41:16Z</time></trkpt><trkpt lat="37.12209230386271" lon="14.788798248545614"><ele>760.2</ele><time>2026-04-15T10:41:17Z</time></trkpt><trkpt lat="37.12198072528707" lon="14.78877228096904"><ele>762.0</ele><time>2026-04-15T10:41:18Z</time></trkpt><trkpt lat="37.121872647743196" lon="14.788738123353951"><ele>762.0</ele><time>2026-04-15T10:41:18.999Z</time></trkpt><trkpt lat="37.12176143099583" lon="14.788698730474524"><ele>762.0</ele><time>2026-04-15T10:41:19.999Z</time></trkpt><trkpt lat="37.12164145894128" lon="14.788667831108347"><ele>762.0</ele><time>2026-04-15T10:41:20.999Z</time></trkpt><trkpt lat="37.12151781486277" lon="14.788637527252703"><ele>762.0</ele><time>2026-04-15T10:41:21.999Z</time></trkpt><trkpt lat="37.12136602770068" lon="14.788599518919815"><ele>763.3333333333334</ele><time>2026-04-15T10:41:22.999Z</time></trkpt><trkpt lat="37.12120453936988" lon="14.788565802323946"><ele>764.6666666666667</ele><time>2026-04-15T10:41:23.999Z</time></trkpt><trkpt lat="37.12103275696566" lon="14.788533240151034"><ele>766.0</ele><time>2026-04-15T10:41:24.999Z</time></trkpt><trkpt lat="37.120864486838684" lon="14.78849928760883"><ele>768.6666666666667</ele><time>2026-04-15T10:41:25.999Z</time></trkpt><trkpt lat="37.12069949270125" lon="14.788458745500067"><ele>771.3333333333334</ele><time>2026-04-15T10:41:26.999Z</time></trkpt><trkpt lat="37.12052132505941" lon="14.7884161448226"><ele>774.0</ele><time>2026-04-15T10:41:27.999Z</time></trkpt><trkpt lat="37.12035781974867" lon="14.788381118312815"><ele>774.0</ele><time>2026-04-15T10:41:28.999Z</time></trkpt><trkpt lat="37.12020587666384" lon="14.788343625642236"><ele>774.0</ele><time>2026-04-15T10:41:29.999Z</time></trkpt><trkpt lat="37.12007063315193" lon="14.788306742998119"><ele>774.0</ele><time>2026-04-15T10:41:30.999Z</time></trkpt><trkpt lat="37.11996144454074" lon="14.788271087155355"><ele>774.0</ele><time>2026-04-15T10:41:31.999Z</time></trkpt><trkpt lat="37.11989176376257" lon="14.788248520548049"><ele>775.1666666666666</ele><time>2026-04-15T10:41:32.999Z</time></trkpt><trkpt lat="37.11981597929304" lon="14.788209068720446"><ele>776.3333333333333</ele><time>2026-04-15T10:41:34.999Z</time></trkpt><trkpt lat="37.11977263444073" lon="14.788109638829738"><ele>777.5</ele><time>2026-04-15T10:41:36.999Z</time></trkpt><trkpt lat="37.11974043784866" lon="14.788024239777865"><ele>778.6666666666666</ele><time>2026-04-15T10:41:37.999Z</time></trkpt><trkpt lat="37.119708362664845" lon="14.787948180791616"><ele>779.8333333333333</ele><time>2026-04-15T10:41:38.999Z</time></trkpt><trkpt lat="37.11962664007636" lon="14.78782726976943"><ele>781.0</ele><time>2026-04-15T10:41:40.999Z</time></trkpt><trkpt lat="37.119545999877715" lon="14.78771609838311"><ele>779.9999999999999</ele><time>2026-04-15T10:41:42.999Z</time></trkpt><trkpt lat="37.11949750067741" lon="14.787660034684855"><ele>779.0</ele><time>2026-04-15T10:41:43.999Z</time></trkpt><trkpt lat="37.11943971407095" lon="14.78760161402036"><ele>778.0</ele><time>2026-04-15T10:41:44.999Z</time></trkpt><trkpt lat="37.11938215470043" lon="14.787542412740912"><ele>777.0</ele><time>2026-04-15T10:41:45.999Z</time></trkpt><trkpt lat="37.11933435042035" lon="14.78748921744732"><ele>775.9999999999999</ele><time>2026-04-15T10:41:46.999Z</time></trkpt><trkpt lat="37.119266179207756" lon="14.787408768818697"><ele>775.0</ele><time>2026-04-15T10:41:48.999Z</time></trkpt><trkpt lat="37.11931761398222" lon="14.787305612573771"><ele>775.0</ele><time>2026-04-15T10:42:01.999Z</time></trkpt><trkpt lat="37.11941155726418" lon="14.787168293036112"><ele>775.0</ele><time>2026-04-15T10:42:03.999Z</time></trkpt><trkpt lat="37.11947079320791" lon="14.787081504126075"><ele>775.0</ele><time>2026-04-15T10:42:04.999Z</time></trkpt><trkpt lat="37.119540177415395" lon="14.786983652286736"><ele>775.0</ele><time>2026-04-15T10:42:05.999Z</time></trkpt><trkpt lat="37.11961908737863" lon="14.786879159438474"><ele>773.6</ele><time>2026-04-15T10:42:06.999Z</time></trkpt><trkpt lat="37.119698513791576" lon="14.786780843926016"><ele>772.2</ele><time>2026-04-15T10:42:07.999Z</time></trkpt><trkpt lat="37.11977389736457" lon="14.786686382344698"><ele>770.8</ele><time>2026-04-15T10:42:08.999Z</time></trkpt><trkpt lat="37.11984371551219" lon="14.786593507348096"><ele>769.4</ele><time>2026-04-15T10:42:09.999Z</time></trkpt><trkpt lat="37.11991654154566" lon="14.786503145105454"><ele>768.0</ele><time>2026-04-15T10:42:10.999Z</time></trkpt><trkpt lat="37.11998437084021" lon="14.786421637326663"><ele>768.0</ele><time>2026-04-15T10:42:11.999Z</time></trkpt><trkpt lat="37.12005611240487" lon="14.786343479632892"><ele>768.0</ele><time>2026-04-15T10:42:12.999Z</time></trkpt><trkpt lat="37.12012687757885" lon="14.78627125847588"><ele>768.0</ele><time>2026-04-15T10:42:13.999Z</time></trkpt><trkpt lat="37.12019797188012" lon="14.786200538499513"><ele>768.0</ele><time>2026-04-15T10:42:14.999Z</time></trkpt><trkpt lat="37.12026563752773" lon="14.78612878722421"><ele>768.0</ele><time>2026-04-15T10:42:15.999Z</time></trkpt><trkpt lat="37.12032590889681" lon="14.786065262413485"><ele>768.0</ele><time>2026-04-15T10:42:16.999Z</time></trkpt><trkpt lat="37.120371189889255" lon="14.786009184755022"><ele>767.1666666666666</ele><time>2026-04-15T10:42:17.999Z</time></trkpt><trkpt lat="37.12040878956087" lon="14.785943916580884"><ele>766.3333333333334</ele><time>2026-04-15T10:42:18.999Z</time></trkpt><trkpt lat="37.120441797956595" lon="14.785864133144463"><ele>765.5</ele><time>2026-04-15T10:42:19.999Z</time></trkpt><trkpt lat="37.12047632466097" lon="14.785758907193951"><ele>764.6666666666667</ele><time>2026-04-15T10:42:20.999Z</time></trkpt><trkpt lat="37.12051780494891" lon="14.785640535889351"><ele>763.8333333333334</ele><time>2026-04-15T10:42:21.999Z</time></trkpt><trkpt lat="37.12055727157564" lon="14.785520009751982"><ele>763.0</ele><time>2026-04-15T10:42:22.999Z</time></trkpt><trkpt lat="37.12059153593011" lon="14.78540536679907"><ele>763.0</ele><time>2026-04-15T10:42:23.999Z</time></trkpt><trkpt lat="37.12063031075397" lon="14.785296287331233"><ele>763.0</ele><time>2026-04-15T10:42:24.999Z</time></trkpt><trkpt lat="37.12066973353955" lon="14.785205050212637"><ele>763.0</ele><time>2026-04-15T10:42:25.999Z</time></trkpt><trkpt lat="37.12071456355842" lon="14.785108206262207"><ele>763.0</ele><time>2026-04-15T10:42:26.999Z</time></trkpt><trkpt lat="37.12076070226955" lon="14.785025491079677"><ele>763.0</ele><time>2026-04-15T10:42:27.999Z</time></trkpt><trkpt lat="37.120814534335956" lon="14.784944945624718"><ele>763.0</ele><time>2026-04-15T10:42:28.999Z</time></trkpt><trkpt lat="37.12085998343178" lon="14.78487127415602"><ele>761.3333333333334</ele><time>2026-04-15T10:42:29.999Z</time></trkpt><trkpt lat="37.120908975982886" lon="14.78479214758319"><ele>759.6666666666667</ele><time>2026-04-15T10:42:30.999Z</time></trkpt><trkpt lat="37.12094373852504" lon="14.784712534686363"><ele>758.0</ele><time>2026-04-15T10:42:31.999Z</time></trkpt><trkpt lat="37.1209743645463" lon="14.784637441601799"><ele>756.3333333333334</ele><time>2026-04-15T10:42:32.999Z</time></trkpt><trkpt lat="37.121058189459916" lon="14.784545354874806"><ele>754.6666666666666</ele><time>2026-04-15T10:42:35Z</time></trkpt><trkpt lat="37.121147713983" lon="14.78453977715456"><ele>753.0</ele><time>2026-04-15T10:42:37Z</time></trkpt><trkpt lat="37.12125385926096" lon="14.784572034246244"><ele>753.0</ele><time>2026-04-15T10:42:39Z</time></trkpt><trkpt lat="37.12134108005979" lon="14.784670746444203"><ele>753.0</ele><time>2026-04-15T10:42:41Z</time></trkpt><trkpt lat="37.12140642185183" lon="14.78478473263914"><ele>753.0</ele><time>2026-04-15T10:42:43Z</time></trkpt><trkpt lat="37.12152179017774" lon="14.784792203335362"><ele>753.0</ele><time>2026-04-15T10:42:45Z</time></trkpt><trkpt lat="37.12158188011014" lon="14.784761966577612"><ele>753.0</ele><time>2026-04-15T10:42:46Z</time></trkpt><trkpt lat="37.121649729583424" lon="14.784729081363363"><ele>751.8333333333334</ele><time>2026-04-15T10:42:47Z</time></trkpt><trkpt lat="37.121727536273276" lon="14.784704468412466"><ele>750.6666666666666</ele><time>2026-04-15T10:42:48Z</time></trkpt><trkpt lat="37.12180967781132" lon="14.784687689978222"><ele>749.5</ele><time>2026-04-15T10:42:49Z</time></trkpt><trkpt lat="37.12189366379569" lon="14.784656645029667"><ele>748.3333333333333</ele><time>2026-04-15T10:42:50Z</time></trkpt><trkpt lat="37.12198324998775" lon="14.784617771869023"><ele>747.1666666666666</ele><time>2026-04-15T10:42:51Z</time></trkpt><trkpt lat="37.12206890139202" lon="14.78457110537563"><ele>746.0</ele><time>2026-04-15T10:42:52Z</time></trkpt><trkpt lat="37.122149408455215" lon="14.784519034081475"><ele>746.0</ele><time>2026-04-15T10:42:53Z</time></trkpt><trkpt lat="37.12222961249119" lon="14.78446049297343"><ele>746.0</ele><time>2026-04-15T10:42:54Z</time></trkpt><trkpt lat="37.12230866766861" lon="14.784390872981676"><ele>746.0</ele><time>2026-04-15T10:42:55Z</time></trkpt><trkpt lat="37.1223850983957" lon="14.784313097711378"><ele>746.0</ele><time>2026-04-15T10:42:56Z</time></trkpt><trkpt lat="37.122455731212085" lon="14.784227029842967"><ele>746.0</ele><time>2026-04-15T10:42:57Z</time></trkpt><trkpt lat="37.122530121885305" lon="14.784135039430966"><ele>745.75</ele><time>2026-04-15T10:42:58Z</time></trkpt><trkpt lat="37.122606914273916" lon="14.784043627277915"><ele>745.5</ele><time>2026-04-15T10:42:59Z</time></trkpt><trkpt lat="37.122693177844965" lon="14.783941909443138"><ele>745.25</ele><time>2026-04-15T10:43:00Z</time></trkpt><trkpt lat="37.12277756554859" lon="14.783833107099527"><ele>745.0</ele><time>2026-04-15T10:43:01Z</time></trkpt><trkpt lat="37.12286420053568" lon="14.783710614117647"><ele>745.0</ele><time>2026-04-15T10:43:02Z</time></trkpt><trkpt lat="37.12294502389985" lon="14.783590386662695"><ele>745.0</ele><time>2026-04-15T10:43:03Z</time></trkpt><trkpt lat="37.12302356269446" lon="14.78348470462313"><ele>745.0</ele><time>2026-04-15T10:43:04Z</time></trkpt><trkpt lat="37.12309913820543" lon="14.783387334170214"><ele>745.0</ele><time>2026-04-15T10:43:05Z</time></trkpt><trkpt lat="37.123172989133856" lon="14.783307614042108"><ele>745.0</ele><time>2026-04-15T10:43:06Z</time></trkpt><trkpt lat="37.123253492082625" lon="14.783251859043652"><ele>745.6666666666667</ele><time>2026-04-15T10:43:07Z</time></trkpt><trkpt lat="37.12334848221424" lon="14.783204568066932"><ele>746.3333333333334</ele><time>2026-04-15T10:43:08Z</time></trkpt><trkpt lat="37.123438275765174" lon="14.783176502658495"><ele>747.0</ele><time>2026-04-15T10:43:09Z</time></trkpt><trkpt lat="37.123520336853275" lon="14.78316962747985"><ele>747.6666666666666</ele><time>2026-04-15T10:43:10Z</time></trkpt><trkpt lat="37.12359458371686" lon="14.783172466589166"><ele>748.3333333333333</ele><time>2026-04-15T10:43:11Z</time></trkpt><trkpt lat="37.12366933910326" lon="14.783177225671144"><ele>749.0</ele><time>2026-04-15T10:43:12Z</time></trkpt><trkpt lat="37.12374967434928" lon="14.78319084072304"><ele>749.0</ele><time>2026-04-15T10:43:13Z</time></trkpt><trkpt lat="37.1238304921627" lon="14.783221132443561"><ele>749.0</ele><time>2026-04-15T10:43:14Z</time></trkpt><trkpt lat="37.12390956416546" lon="14.783272641578694"><ele>749.0</ele><time>2026-04-15T10:43:15Z</time></trkpt><trkpt lat="37.12399164425721" lon="14.783351453299401"><ele>749.0</ele><time>2026-04-15T10:43:16Z</time></trkpt><trkpt lat="37.12407443502188" lon="14.783434631437515"><ele>749.0</ele><time>2026-04-15T10:43:17Z</time></trkpt><trkpt lat="37.124168950288116" lon="14.78352561623072"><ele>749.75</ele><time>2026-04-15T10:43:18Z</time></trkpt><trkpt lat="37.124271747254014" lon="14.783614825886332"><ele>750.5</ele><time>2026-04-15T10:43:19Z</time></trkpt><trkpt lat="37.124374701612645" lon="14.783700555796665"><ele>751.25</ele><time>2026-04-15T10:43:20Z</time></trkpt><trkpt lat="37.124467600371084" lon="14.783793928923634"><ele>752.0</ele><time>2026-04-15T10:43:21Z</time></trkpt><trkpt lat="37.12455238535871" lon="14.783871217595"><ele>752.0</ele><time>2026-04-15T10:43:22Z</time></trkpt><trkpt lat="37.12463552240526" lon="14.783943822194436"><ele>752.0</ele><time>2026-04-15T10:43:23Z</time></trkpt><trkpt lat="37.12471209123999" lon="14.784013956109796"><ele>752.0</ele><time>2026-04-15T10:43:24Z</time></trkpt><trkpt lat="37.12478682464518" lon="14.784077736148701"><ele>752.0</ele><time>2026-04-15T10:43:24.999Z</time></trkpt><trkpt lat="37.12485927257062" lon="14.784139336203571"><ele>752.0</ele><time>2026-04-15T10:43:25.999Z</time></trkpt><trkpt lat="37.124917042483304" lon="14.784196701969487"><ele>752.0</ele><time>2026-04-15T10:43:26.999Z</time></trkpt><trkpt lat="37.12496609836657" lon="14.784252411814476"><ele>752.0</ele><time>2026-04-15T10:43:27.999Z</time></trkpt><trkpt lat="37.12502553122436" lon="14.784319897780456"><ele>752.0</ele><time>2026-04-15T10:43:29.999Z</time></trkpt><trkpt lat="37.124962412675615" lon="14.784267693745512"><ele>752.0</ele><time>2026-04-15T10:44:11.999Z</time></trkpt><trkpt lat="37.12488256842006" lon="14.784160446066894"><ele>752.0</ele><time>2026-04-15T10:44:13.999Z</time></trkpt><trkpt lat="37.12479733048358" lon="14.78410806243445"><ele>752.0</ele><time>2026-04-15T10:44:15.999Z</time></trkpt><trkpt lat="37.124852081268884" lon="14.784063757098556"><ele>752.0</ele><time>2026-04-15T10:44:18.999Z</time></trkpt><trkpt lat="37.12492297399129" lon="14.784090063832304"><ele>749.4000000000001</ele><time>2026-04-15T10:44:20.999Z</time></trkpt><trkpt lat="37.1249857914839" lon="14.78414626126914"><ele>746.8000000000001</ele><time>2026-04-15T10:44:22.999Z</time></trkpt><trkpt lat="37.12507211773313" lon="14.784204465653909"><ele>744.2</ele><time>2026-04-15T10:44:24.999Z</time></trkpt><trkpt lat="37.12514786021769" lon="14.784180006838977"><ele>741.6</ele><time>2026-04-15T10:44:26.999Z</time></trkpt><trkpt lat="37.12523901180657" lon="14.784072126261504"><ele>739.0</ele><time>2026-04-15T10:44:28.999Z</time></trkpt><trkpt lat="37.12531340426442" lon="14.784013867936627"><ele>739.0</ele><time>2026-04-15T10:44:29.999Z</time></trkpt><trkpt lat="37.125392673161734" lon="14.783962668074768"><ele>739.0</ele><time>2026-04-15T10:44:30.999Z</time></trkpt><trkpt lat="37.125467849254306" lon="14.783909192039047"><ele>739.0</ele><time>2026-04-15T10:44:31.999Z</time></trkpt><trkpt lat="37.12554299012667" lon="14.783854546195444"><ele>739.0</ele><time>2026-04-15T10:44:32.999Z</time></trkpt><trkpt lat="37.12562477319361" lon="14.783789084741084"><ele>739.0</ele><time>2026-04-15T10:44:33.999Z</time></trkpt><trkpt lat="37.12570209593145" lon="14.783725104569033"><ele>736.8333333333334</ele><time>2026-04-15T10:44:34.999Z</time></trkpt><trkpt lat="37.1257726660185" lon="14.78366853597128"><ele>734.6666666666667</ele><time>2026-04-15T10:44:35.999Z</time></trkpt><trkpt lat="37.12585513627513" lon="14.78360932231527"><ele>732.5</ele><time>2026-04-15T10:44:36.999Z</time></trkpt><trkpt lat="37.12592943126253" lon="14.783566631309457"><ele>730.3333333333334</ele><time>2026-04-15T10:44:37.999Z</time></trkpt><trkpt lat="37.126005893003104" lon="14.783522199492957"><ele>728.1666666666666</ele><time>2026-04-15T10:44:38.999Z</time></trkpt><trkpt lat="37.12608490828586" lon="14.783476542421964"><ele>726.0</ele><time>2026-04-15T10:44:40Z</time></trkpt><trkpt lat="37.12615926610132" lon="14.783433635746775"><ele>725.1666666666666</ele><time>2026-04-15T10:44:41Z</time></trkpt><trkpt lat="37.126224819405856" lon="14.783397296865795"><ele>724.3333333333334</ele><time>2026-04-15T10:44:42Z</time></trkpt><trkpt lat="37.12629833855347" lon="14.783362118092734"><ele>723.5</ele><time>2026-04-15T10:44:43Z</time></trkpt><trkpt lat="37.12636471523232" lon="14.783328756218854"><ele>722.6666666666667</ele><time>2026-04-15T10:44:44Z</time></trkpt><trkpt lat="37.126463515149126" lon="14.783260996535587"><ele>721.8333333333334</ele><time>2026-04-15T10:44:46Z</time></trkpt><trkpt lat="37.126537206114364" lon="14.783213710158515"><ele>721.0</ele><time>2026-04-15T10:44:49Z</time></trkpt><trkpt lat="37.126616159225506" lon="14.783179393768"><ele>719.4</ele><time>2026-04-15T10:44:51Z</time></trkpt><trkpt lat="37.126720985434" lon="14.78313528568763"><ele>717.8</ele><time>2026-04-15T10:44:53Z</time></trkpt><trkpt lat="37.12681059764862" lon="14.78301624992917"><ele>716.1999999999999</ele><time>2026-04-15T10:44:55Z</time></trkpt><trkpt lat="37.126854435898736" lon="14.782950528435912"><ele>714.5999999999999</ele><time>2026-04-15T10:44:56Z</time></trkpt><trkpt lat="37.126902895688055" lon="14.782882866637616"><ele>713.0</ele><time>2026-04-15T10:44:57Z</time></trkpt><trkpt lat="37.1269490050727" lon="14.782815710958852"><ele>713.0</ele><time>2026-04-15T10:44:58Z</time></trkpt><trkpt lat="37.12698905972506" lon="14.782751743143967"><ele>713.0</ele><time>2026-04-15T10:44:59Z</time></trkpt><trkpt lat="37.127025231946796" lon="14.782683964058322"><ele>713.0</ele><time>2026-04-15T10:45:00Z</time></trkpt><trkpt lat="37.12706041955718" lon="14.78254324311755"><ele>713.0</ele><time>2026-04-15T10:45:02Z</time></trkpt><trkpt lat="37.12711210910617" lon="14.782407549861928"><ele>713.0</ele><time>2026-04-15T10:45:04Z</time></trkpt><trkpt lat="37.12716811569225" lon="14.782306236890832"><ele>713.0</ele><time>2026-04-15T10:45:06Z</time></trkpt><trkpt lat="37.127221232291994" lon="14.782168724863139"><ele>713.0</ele><time>2026-04-15T10:45:08Z</time></trkpt><trkpt lat="37.12726945794792" lon="14.782022394066436"><ele>713.0</ele><time>2026-04-15T10:45:10Z</time></trkpt><trkpt lat="37.12728729868913" lon="14.781937748930764"><ele>713.0</ele><time>2026-04-15T10:45:11Z</time></trkpt><trkpt lat="37.12731004193878" lon="14.781850317453472"><ele>713.0</ele><time>2026-04-15T10:45:12Z</time></trkpt><trkpt lat="37.12733923569461" lon="14.781777921801897"><ele>712.1666666666666</ele><time>2026-04-15T10:45:13Z</time></trkpt><trkpt lat="37.12737420020948" lon="14.78170093979651"><ele>711.3333333333333</ele><time>2026-04-15T10:45:14Z</time></trkpt><trkpt lat="37.12740903215581" lon="14.781622809746196"><ele>710.5</ele><time>2026-04-15T10:45:15Z</time></trkpt><trkpt lat="37.12744359291773" lon="14.781539313777976"><ele>709.6666666666666</ele><time>2026-04-15T10:45:16Z</time></trkpt><trkpt lat="37.12747477705089" lon="14.781444046298349"><ele>708.8333333333334</ele><time>2026-04-15T10:45:17Z</time></trkpt><trkpt lat="37.1275095470622" lon="14.78135491432925"><ele>708.0</ele><time>2026-04-15T10:45:18Z</time></trkpt><trkpt lat="37.12753866128081" lon="14.781247104249369"><ele>705.3333333333334</ele><time>2026-04-15T10:45:19Z</time></trkpt><trkpt lat="37.12755883866472" lon="14.78113674270141"><ele>702.6666666666666</ele><time>2026-04-15T10:45:20Z</time></trkpt><trkpt lat="37.127572869314236" lon="14.781025088458549"><ele>700.0</ele><time>2026-04-15T10:45:21Z</time></trkpt><trkpt lat="37.1275794924846" lon="14.78092707151649"><ele>697.3333333333333</ele><time>2026-04-15T10:45:22Z</time></trkpt><trkpt lat="37.12758615877872" lon="14.78083172199834"><ele>694.6666666666666</ele><time>2026-04-15T10:45:23Z</time></trkpt><trkpt lat="37.12760135641538" lon="14.780737200271268"><ele>692.0</ele><time>2026-04-15T10:45:24Z</time></trkpt><trkpt lat="37.12762789170084" lon="14.780589387732716"><ele>689.25</ele><time>2026-04-15T10:45:26Z</time></trkpt><trkpt lat="37.127660962945995" lon="14.780462511722929"><ele>686.5</ele><time>2026-04-15T10:45:28Z</time></trkpt><trkpt lat="37.12771418407802" lon="14.780322380956877"><ele>683.75</ele><time>2026-04-15T10:45:29.999Z</time></trkpt><trkpt lat="37.12775623935568" lon="14.780184655863366"><ele>681.0</ele><time>2026-04-15T10:45:31.999Z</time></trkpt><trkpt lat="37.12779446594572" lon="14.780064676868292"><ele>679.8333333333334</ele><time>2026-04-15T10:45:33.999Z</time></trkpt><trkpt lat="37.127837313496244" lon="14.77994251675698"><ele>678.6666666666666</ele><time>2026-04-15T10:45:35.999Z</time></trkpt><trkpt lat="37.127865284783624" lon="14.77986657009649"><ele>677.5</ele><time>2026-04-15T10:45:36.999Z</time></trkpt><trkpt lat="37.12790212883991" lon="14.779789554840006"><ele>676.3333333333333</ele><time>2026-04-15T10:45:38.999Z</time></trkpt><trkpt lat="37.127960824989806" lon="14.779745859112321"><ele>675.1666666666666</ele><time>2026-04-15T10:45:40.999Z</time></trkpt><trkpt lat="37.128049222901716" lon="14.779735262984563"><ele>674.0</ele><time>2026-04-15T10:45:42.999Z</time></trkpt><trkpt lat="37.12813093526662" lon="14.779755197479998"><ele>671.0</ele><time>2026-04-15T10:45:44.999Z</time></trkpt><trkpt lat="37.128231784832415" lon="14.779796152148055"><ele>668.0</ele><time>2026-04-15T10:45:46.999Z</time></trkpt><trkpt lat="37.12830410795183" lon="14.779827917910593"><ele>665.0</ele><time>2026-04-15T10:45:47.999Z</time></trkpt><trkpt lat="37.1283691755755" lon="14.779849380151003"><ele>662.0</ele><time>2026-04-15T10:45:48.999Z</time></trkpt><trkpt lat="37.128473966449675" lon="14.77989736698917"><ele>659.0</ele><time>2026-04-15T10:45:50.999Z</time></trkpt><trkpt lat="37.12857397997653" lon="14.779926734474207"><ele>659.0</ele><time>2026-04-15T10:45:53.999Z</time></trkpt><trkpt lat="37.1287084567581" lon="14.77996251803403"><ele>659.0</ele><time>2026-04-15T10:45:55.999Z</time></trkpt><trkpt lat="37.128778503400326" lon="14.779983764507257"><ele>659.0</ele><time>2026-04-15T10:45:56.999Z</time></trkpt><trkpt lat="37.1288693492303" lon="14.780002890453511"><ele>659.0</ele><time>2026-04-15T10:45:58.999Z</time></trkpt><trkpt lat="37.128938625639826" lon="14.780017681582644"><ele>659.0</ele><time>2026-04-15T10:46:00.999Z</time></trkpt><trkpt lat="37.12900412757192" lon="14.780005749178583"><ele>659.0</ele><time>2026-04-15T10:46:33.999Z</time></trkpt><trkpt lat="37.128922252986605" lon="14.779963061386091"><ele>659.0</ele><time>2026-04-15T10:46:37.999Z</time></trkpt><trkpt lat="37.128837771693775" lon="14.779932085010929"><ele>659.0</ele><time>2026-04-15T10:46:40.999Z</time></trkpt><trkpt lat="37.1287969573398" lon="14.77985851887052"><ele>659.0</ele><time>2026-04-15T10:46:44.999Z</time></trkpt><trkpt lat="37.12871841085746" lon="14.779875360943748"><ele>659.0</ele><time>2026-04-15T10:47:02Z</time></trkpt><trkpt lat="37.12865798645144" lon="14.779933942460607"><ele>659.0</ele><time>2026-04-15T10:47:04Z</time></trkpt><trkpt lat="37.12857574478882" lon="14.779935676251036"><ele>659.0</ele><time>2026-04-15T10:47:06Z</time></trkpt><trkpt lat="37.128484955607505" lon="14.779904841489452"><ele>659.0</ele><time>2026-04-15T10:47:08Z</time></trkpt><trkpt lat="37.128389558118556" lon="14.779872260386696"><ele>659.0</ele><time>2026-04-15T10:47:10Z</time></trkpt><trkpt lat="37.12829745327185" lon="14.779827795404778"><ele>659.0</ele><time>2026-04-15T10:47:12Z</time></trkpt><trkpt lat="37.12821156045089" lon="14.779791714420615"><ele>659.0</ele><time>2026-04-15T10:47:14Z</time></trkpt><trkpt lat="37.128149883816924" lon="14.77976882326928"><ele>659.0</ele><time>2026-04-15T10:47:15Z</time></trkpt><trkpt lat="37.12804636144971" lon="14.779764875588516"><ele>660.0</ele><time>2026-04-15T10:47:17Z</time></trkpt><trkpt lat="37.127960492136964" lon="14.779749314918709"><ele>661.0</ele><time>2026-04-15T10:47:19Z</time></trkpt><trkpt lat="37.127896243672645" lon="14.779726473388076"><ele>662.0</ele><time>2026-04-15T10:47:21Z</time></trkpt><trkpt lat="37.12791430948983" lon="14.779622544830948"><ele>663.0</ele><time>2026-04-15T10:47:23Z</time></trkpt><trkpt lat="37.12792199985898" lon="14.77949863492256"><ele>664.0</ele><time>2026-04-15T10:47:25Z</time></trkpt><trkpt lat="37.12788236424995" lon="14.779434768216355"><ele>665.0</ele><time>2026-04-15T10:47:42.999Z</time></trkpt><trkpt lat="37.127823020549606" lon="14.779320123924977"><ele>665.0</ele><time>2026-04-15T10:47:44.999Z</time></trkpt><trkpt lat="37.127808609780644" lon="14.779207681320782"><ele>665.0</ele><time>2026-04-15T10:47:46.999Z</time></trkpt><trkpt lat="37.12781034353929" lon="14.779105300462762"><ele>665.0</ele><time>2026-04-15T10:47:48.999Z</time></trkpt><trkpt lat="37.12779841779093" lon="14.779014090573659"><ele>665.0</ele><time>2026-04-15T10:47:50.999Z</time></trkpt><trkpt lat="37.12779153268994" lon="14.778900873279698"><ele>665.0</ele><time>2026-04-15T10:47:53.999Z</time></trkpt><trkpt lat="37.127777807046364" lon="14.778818390978083"><ele>665.0</ele><time>2026-04-15T10:47:55.999Z</time></trkpt><trkpt lat="37.12776696630039" lon="14.77873569543098"><ele>665.0</ele><time>2026-04-15T10:47:57.999Z</time></trkpt><trkpt lat="37.127752838204096" lon="14.778644193390797"><ele>665.0</ele><time>2026-04-15T10:48:00.999Z</time></trkpt><trkpt lat="37.127739908850536" lon="14.778525737805712"><ele>665.0</ele><time>2026-04-15T10:48:09.999Z</time></trkpt><trkpt lat="37.12772168714436" lon="14.778401773138242"><ele>665.0</ele><time>2026-04-15T10:48:11.999Z</time></trkpt><trkpt lat="37.12769777574767" lon="14.778274648953778"><ele>665.0</ele><time>2026-04-15T10:48:13.999Z</time></trkpt><trkpt lat="37.12767635841905" lon="14.778160518870035"><ele>663.6666666666666</ele><time>2026-04-15T10:48:15.999Z</time></trkpt><trkpt lat="37.1276627895773" lon="14.778064736009853"><ele>662.3333333333333</ele><time>2026-04-15T10:48:17.999Z</time></trkpt><trkpt lat="37.127654339313175" lon="14.777947653185839"><ele>661.0</ele><time>2026-04-15T10:48:20.999Z</time></trkpt><trkpt lat="37.1276517096353" lon="14.777865508721057"><ele>659.6666666666666</ele><time>2026-04-15T10:48:22.999Z</time></trkpt><trkpt lat="37.12765674997172" lon="14.777777367225944"><ele>658.3333333333334</ele><time>2026-04-15T10:48:24.999Z</time></trkpt><trkpt lat="37.1276915071437" lon="14.777690212226522"><ele>657.0</ele><time>2026-04-15T10:48:27.999Z</time></trkpt><trkpt lat="37.1277315848231" lon="14.77761338167358"><ele>655.0</ele><time>2026-04-15T10:48:30.999Z</time></trkpt><trkpt lat="37.12776062543941" lon="14.777498609496918"><ele>653.0</ele><time>2026-04-15T10:48:33.999Z</time></trkpt><trkpt lat="37.12779924590348" lon="14.777424329614226"><ele>651.0</ele><time>2026-04-15T10:48:49.999Z</time></trkpt><trkpt lat="37.12785269505596" lon="14.777382604315"><ele>649.0</ele><time>2026-04-15T10:49:42.999Z</time></trkpt><trkpt lat="37.12781861017183" lon="14.777302496694375"><ele>647.0</ele><time>2026-04-15T10:50:20.999Z</time></trkpt><trkpt lat="37.12774995976067" lon="14.77726303988321"><ele>645.0</ele><time>2026-04-15T10:50:26.999Z</time></trkpt><trkpt lat="37.12768587612493" lon="14.77732723508846"><ele>645.0</ele><time>2026-04-15T10:50:30.999Z</time></trkpt><trkpt lat="37.12769193154477" lon="14.777406831556258"><ele>645.0</ele><time>2026-04-15T10:54:30.999Z</time></trkpt><trkpt lat="37.12771330974689" lon="14.777485689771972"><ele>645.0</ele><time>2026-04-15T10:54:52.999Z</time></trkpt><trkpt lat="37.127734470315914" lon="14.777577542667212"><ele>645.0</ele><time>2026-04-15T10:54:58.999Z</time></trkpt><trkpt lat="37.12770356396756" lon="14.777649435481464"><ele>645.0</ele><time>2026-04-15T10:55:38Z</time></trkpt><trkpt lat="37.127674107055846" lon="14.777725233524215"><ele>645.0</ele><time>2026-04-15T10:59:12.999Z</time></trkpt><trkpt lat="37.12765839595564" lon="14.777807357646882"><ele>645.0</ele><time>2026-04-15T10:59:24Z</time></trkpt><trkpt lat="37.127650953852836" lon="14.777889035691738"><ele>647.0</ele><time>2026-04-15T11:01:32Z</time></trkpt><trkpt lat="37.12765141619069" lon="14.777976882107337"><ele>649.0</ele><time>2026-04-15T11:01:39Z</time></trkpt><trkpt lat="37.12767883642429" lon="14.778055739536399"><ele>651.0</ele><time>2026-04-15T11:03:16.999Z</time></trkpt><trkpt lat="37.1276848837648" lon="14.778148056907787"><ele>653.0</ele><time>2026-04-15T11:03:26.999Z</time></trkpt><trkpt lat="37.12770686220489" lon="14.778271331018864"><ele>655.0</ele><time>2026-04-15T11:03:54Z</time></trkpt><trkpt lat="37.12772488596387" lon="14.778366290063179"><ele>657.0</ele><time>2026-04-15T11:03:56Z</time></trkpt><trkpt lat="37.12774597241473" lon="14.778512541257195"><ele>658.1428571428571</ele><time>2026-04-15T11:03:58Z</time></trkpt><trkpt lat="37.12775730868252" lon="14.77859155350627"><ele>659.2857142857143</ele><time>2026-04-15T11:03:59Z</time></trkpt><trkpt lat="37.1277629881072" lon="14.77867351923081"><ele>660.4285714285714</ele><time>2026-04-15T11:04:00Z</time></trkpt><trkpt lat="37.12777372265283" lon="14.778767551661433"><ele>661.5714285714286</ele><time>2026-04-15T11:04:01Z</time></trkpt><trkpt lat="37.12778783192294" lon="14.778862632686039"><ele>662.7142857142858</ele><time>2026-04-15T11:04:02Z</time></trkpt><trkpt lat="37.12779857041861" lon="14.778952408079679"><ele>663.8571428571429</ele><time>2026-04-15T11:04:03Z</time></trkpt><trkpt lat="37.12780533087066" lon="14.779035011438847"><ele>665.0</ele><time>2026-04-15T11:04:04Z</time></trkpt><trkpt lat="37.12781344226598" lon="14.779181790016365"><ele>665.0</ele><time>2026-04-15T11:04:06Z</time></trkpt><trkpt lat="37.127825148060744" lon="14.77933307551644"><ele>665.0</ele><time>2026-04-15T11:04:08Z</time></trkpt><trkpt lat="37.12785912755559" lon="14.779406793663487"><ele>665.0</ele><time>2026-04-15T11:04:09Z</time></trkpt><trkpt lat="37.127895174755615" lon="14.779476750813757"><ele>665.0</ele><time>2026-04-15T11:04:10Z</time></trkpt><trkpt lat="37.12793630524273" lon="14.779602804523877"><ele>665.0</ele><time>2026-04-15T11:04:12Z</time></trkpt><trkpt lat="37.12792519580206" lon="14.779682955866896"><ele>665.0</ele><time>2026-04-15T11:04:13Z</time></trkpt><trkpt lat="37.127902531937124" lon="14.779773980843157"><ele>666.5</ele><time>2026-04-15T11:04:14Z</time></trkpt><trkpt lat="37.12787476042832" lon="14.779867666814054"><ele>668.0</ele><time>2026-04-15T11:04:15Z</time></trkpt><trkpt lat="37.1278344720098" lon="14.779945574123438"><ele>669.5</ele><time>2026-04-15T11:04:16Z</time></trkpt><trkpt lat="37.127798869499586" lon="14.780032972507934"><ele>671.0</ele><time>2026-04-15T11:04:17Z</time></trkpt><trkpt lat="37.12776926800938" lon="14.780120263863116"><ele>672.5</ele><time>2026-04-15T11:04:18Z</time></trkpt><trkpt lat="37.12774443036627" lon="14.780209548270797"><ele>674.0</ele><time>2026-04-15T11:04:19Z</time></trkpt><trkpt lat="37.12771575693924" lon="14.780295043740852"><ele>675.1666666666666</ele><time>2026-04-15T11:04:20Z</time></trkpt><trkpt lat="37.127689886677146" lon="14.780383841641262"><ele>676.3333333333333</ele><time>2026-04-15T11:04:21Z</time></trkpt><trkpt lat="37.127660031582316" lon="14.780476502245625"><ele>677.5</ele><time>2026-04-15T11:04:22Z</time></trkpt><trkpt lat="37.1276352619636" lon="14.780558200145057"><ele>678.6666666666666</ele><time>2026-04-15T11:04:23Z</time></trkpt><trkpt lat="37.12761175081728" lon="14.780651928117656"><ele>679.8333333333334</ele><time>2026-04-15T11:04:24Z</time></trkpt><trkpt lat="37.12759683786655" lon="14.78075168935239"><ele>681.0</ele><time>2026-04-15T11:04:25Z</time></trkpt><trkpt lat="37.12758869344231" lon="14.780840386847514"><ele>681.0</ele><time>2026-04-15T11:04:26Z</time></trkpt><trkpt lat="37.12757576799016" lon="14.78092598909252"><ele>681.0</ele><time>2026-04-15T11:04:27Z</time></trkpt><trkpt lat="37.127571012400075" lon="14.78100905810799"><ele>681.0</ele><time>2026-04-15T11:04:28Z</time></trkpt><trkpt lat="37.127559219762034" lon="14.781112276077199"><ele>681.0</ele><time>2026-04-15T11:04:29Z</time></trkpt><trkpt lat="37.12754176963566" lon="14.781213600124527"><ele>681.0</ele><time>2026-04-15T11:04:30Z</time></trkpt><trkpt lat="37.12751834805821" lon="14.781319893283694"><ele>681.0</ele><time>2026-04-15T11:04:31Z</time></trkpt><trkpt lat="37.12748756615912" lon="14.781420821736136"><ele>682.8333333333334</ele><time>2026-04-15T11:04:32Z</time></trkpt><trkpt lat="37.127453487353094" lon="14.781505967438735"><ele>684.6666666666666</ele><time>2026-04-15T11:04:33Z</time></trkpt><trkpt lat="37.12741574868269" lon="14.781595212800633"><ele>686.5</ele><time>2026-04-15T11:04:33.999Z</time></trkpt><trkpt lat="37.12737679577561" lon="14.781682173269354"><ele>688.3333333333333</ele><time>2026-04-15T11:04:34.999Z</time></trkpt><trkpt lat="37.127343291426165" lon="14.78176624983308"><ele>690.1666666666666</ele><time>2026-04-15T11:04:35.999Z</time></trkpt><trkpt lat="37.12730620988304" lon="14.78185444040358"><ele>692.0</ele><time>2026-04-15T11:04:36.999Z</time></trkpt><trkpt lat="37.12727267052909" lon="14.781937180902238"><ele>695.5</ele><time>2026-04-15T11:04:37.999Z</time></trkpt><trkpt lat="37.127244550392625" lon="14.782023795346644"><ele>699.0</ele><time>2026-04-15T11:04:38.999Z</time></trkpt><trkpt lat="37.12722261378358" lon="14.782110234787051"><ele>702.5</ele><time>2026-04-15T11:04:39.999Z</time></trkpt><trkpt lat="37.12719216625091" lon="14.78219893388434"><ele>706.0</ele><time>2026-04-15T11:04:40.999Z</time></trkpt><trkpt lat="37.12716433208209" lon="14.782289241736892"><ele>709.5</ele><time>2026-04-15T11:04:41.999Z</time></trkpt><trkpt lat="37.12713347571355" lon="14.782388296696318"><ele>713.0</ele><time>2026-04-15T11:04:42.999Z</time></trkpt><trkpt lat="37.12710474420274" lon="14.782469473697894"><ele>713.0</ele><time>2026-04-15T11:04:43.999Z</time></trkpt><trkpt lat="37.12706840972256" lon="14.782550596461833"><ele>713.0</ele><time>2026-04-15T11:04:44.999Z</time></trkpt><trkpt lat="37.12702577678595" lon="14.782636054645947"><ele>713.0</ele><time>2026-04-15T11:04:45.999Z</time></trkpt><trkpt lat="37.12698041639076" lon="14.78271844843312"><ele>713.0</ele><time>2026-04-15T11:04:46.999Z</time></trkpt><trkpt lat="37.126937569610334" lon="14.782787417090608"><ele>713.0</ele><time>2026-04-15T11:04:47.999Z</time></trkpt><trkpt lat="37.12688022608207" lon="14.782857789329084"><ele>713.0</ele><time>2026-04-15T11:04:48.999Z</time></trkpt><trkpt lat="37.12683549733453" lon="14.7829269036663"><ele>713.0</ele><time>2026-04-15T11:04:49.999Z</time></trkpt><trkpt lat="37.12678788458916" lon="14.782998131196386"><ele>713.0</ele><time>2026-04-15T11:04:50.999Z</time></trkpt><trkpt lat="37.12673809908473" lon="14.783069145315785"><ele>713.0</ele><time>2026-04-15T11:04:51.999Z</time></trkpt><trkpt lat="37.1266860307189" lon="14.783133390592715"><ele>713.0</ele><time>2026-04-15T11:04:52.999Z</time></trkpt><trkpt lat="37.12662689150743" lon="14.783174570997389"><ele>713.0</ele><time>2026-04-15T11:04:53.999Z</time></trkpt><trkpt lat="37.12650016131344" lon="14.783216320735697"><ele>713.0</ele><time>2026-04-15T11:04:55.999Z</time></trkpt><trkpt lat="37.126441752065595" lon="14.783252123415714"><ele>714.5999999999999</ele><time>2026-04-15T11:04:56.999Z</time></trkpt><trkpt lat="37.12637458706085" lon="14.783296280748658"><ele>716.1999999999999</ele><time>2026-04-15T11:04:57.999Z</time></trkpt><trkpt lat="37.12629062287186" lon="14.783352373081167"><ele>717.8</ele><time>2026-04-15T11:04:58.999Z</time></trkpt><trkpt lat="37.126199729965876" lon="14.783405002200633"><ele>719.4</ele><time>2026-04-15T11:04:59.999Z</time></trkpt><trkpt lat="37.1261083870628" lon="14.783456605537413"><ele>721.0</ele><time>2026-04-15T11:05:00.999Z</time></trkpt><trkpt lat="37.12602097687598" lon="14.783504752696732"><ele>722.25</ele><time>2026-04-15T11:05:01.999Z</time></trkpt><trkpt lat="37.12592076707069" lon="14.783561776004895"><ele>723.5</ele><time>2026-04-15T11:05:02.999Z</time></trkpt><trkpt lat="37.12581522027065" lon="14.783631652314243"><ele>724.75</ele><time>2026-04-15T11:05:03.999Z</time></trkpt><trkpt lat="37.12571088694838" lon="14.783705262969209"><ele>726.0</ele><time>2026-04-15T11:05:04.999Z</time></trkpt><trkpt lat="37.12561074846076" lon="14.783788283524183"><ele>728.5999999999999</ele><time>2026-04-15T11:05:05.999Z</time></trkpt><trkpt lat="37.12551386125395" lon="14.783869874004775"><ele>731.2</ele><time>2026-04-15T11:05:06.999Z</time></trkpt><trkpt lat="37.125419910164354" lon="14.78394383816556"><ele>733.8</ele><time>2026-04-15T11:05:07.999Z</time></trkpt><trkpt lat="37.12532928063746" lon="14.784013241803217"><ele>736.4000000000001</ele><time>2026-04-15T11:05:08.999Z</time></trkpt><trkpt lat="37.125241725327534" lon="14.78407545187181"><ele>739.0</ele><time>2026-04-15T11:05:09.999Z</time></trkpt><trkpt lat="37.125161744158945" lon="14.784143409087655"><ele>739.0</ele><time>2026-04-15T11:05:10.999Z</time></trkpt><trkpt lat="37.12507893497869" lon="14.784224979028517"><ele>739.0</ele><time>2026-04-15T11:05:12.999Z</time></trkpt><trkpt lat="37.12501435015204" lon="14.784199010547464"><ele>739.0</ele><time>2026-04-15T11:05:14.999Z</time></trkpt><trkpt lat="37.12496139882091" lon="14.78414426015741"><ele>739.0</ele><time>2026-04-15T11:05:15.999Z</time></trkpt><trkpt lat="37.12490637819114" lon="14.784096696711998"><ele>739.0</ele><time>2026-04-15T11:05:16.999Z</time></trkpt><trkpt lat="37.124844707072064" lon="14.78407118556466"><ele>739.0</ele><time>2026-04-15T11:05:17.999Z</time></trkpt><trkpt lat="37.124782040820065" lon="14.784053070541683"><ele>739.0</ele><time>2026-04-15T11:05:18.999Z</time></trkpt><trkpt lat="37.12470569155924" lon="14.784001956080761"><ele>741.1666666666667</ele><time>2026-04-15T11:05:20.999Z</time></trkpt><trkpt lat="37.124651882452135" lon="14.783946838955357"><ele>743.3333333333334</ele><time>2026-04-15T11:05:23.999Z</time></trkpt><trkpt lat="37.124590992806915" lon="14.783899879875747"><ele>745.5</ele><time>2026-04-15T11:07:43.999Z</time></trkpt><trkpt lat="37.12451513410735" lon="14.783816684045805"><ele>747.6666666666666</ele><time>2026-04-15T11:07:46Z</time></trkpt><trkpt lat="37.12446276840999" lon="14.783769752743153"><ele>749.8333333333333</ele><time>2026-04-15T11:07:47Z</time></trkpt><trkpt lat="37.12434929739519" lon="14.78367908664401"><ele>752.0</ele><time>2026-04-15T11:07:49Z</time></trkpt><trkpt lat="37.12427582793114" lon="14.783613727094744"><ele>752.0</ele><time>2026-04-15T11:07:50Z</time></trkpt><trkpt lat="37.12419805669398" lon="14.78354225949615"><ele>752.0</ele><time>2026-04-15T11:07:51Z</time></trkpt><trkpt lat="37.12411314864242" lon="14.783470154392273"><ele>752.0</ele><time>2026-04-15T11:07:52Z</time></trkpt><trkpt lat="37.12402781283104" lon="14.78339301817992"><ele>752.0</ele><time>2026-04-15T11:07:53Z</time></trkpt><trkpt lat="37.12394601140813" lon="14.783314446611522"><ele>752.0</ele><time>2026-04-15T11:07:54Z</time></trkpt><trkpt lat="37.123856282536394" lon="14.783238594428747"><ele>751.4000000000001</ele><time>2026-04-15T11:07:55Z</time></trkpt><trkpt lat="37.123770116359694" lon="14.783194040068452"><ele>750.8000000000001</ele><time>2026-04-15T11:07:56Z</time></trkpt><trkpt lat="37.123680288146716" lon="14.783177578625134"><ele>750.2</ele><time>2026-04-15T11:07:57Z</time></trkpt><trkpt lat="37.12358481670703" lon="14.783174739057053"><ele>749.6</ele><time>2026-04-15T11:07:58Z</time></trkpt><trkpt lat="37.12348518529744" lon="14.783184092375386"><ele>749.0</ele><time>2026-04-15T11:07:59Z</time></trkpt><trkpt lat="37.123392427366596" lon="14.78320147145401"><ele>749.0</ele><time>2026-04-15T11:08:00Z</time></trkpt><trkpt lat="37.12331389123116" lon="14.78323663739575"><ele>749.0</ele><time>2026-04-15T11:08:01Z</time></trkpt><trkpt lat="37.12323888343838" lon="14.783281757505911"><ele>749.0</ele><time>2026-04-15T11:08:02Z</time></trkpt><trkpt lat="37.123159746659766" lon="14.78334141690641"><ele>749.0</ele><time>2026-04-15T11:08:03Z</time></trkpt><trkpt lat="37.12307299461769" lon="14.783430530370804"><ele>749.0</ele><time>2026-04-15T11:08:04Z</time></trkpt><trkpt lat="37.122990988355525" lon="14.7835352185931"><ele>748.0</ele><time>2026-04-15T11:08:05Z</time></trkpt><trkpt lat="37.12291668634522" lon="14.783656454893068"><ele>747.0</ele><time>2026-04-15T11:08:06Z</time></trkpt><trkpt lat="37.1228363462253" lon="14.783773269749927"><ele>746.0</ele><time>2026-04-15T11:08:07Z</time></trkpt><trkpt lat="37.12274980079165" lon="14.783887811904991"><ele>745.0</ele><time>2026-04-15T11:08:08Z</time></trkpt><trkpt lat="37.12265663997272" lon="14.784011935457992"><ele>745.0</ele><time>2026-04-15T11:08:09Z</time></trkpt><trkpt lat="37.12256012665554" lon="14.784133699272866"><ele>745.0</ele><time>2026-04-15T11:08:10Z</time></trkpt><trkpt lat="37.122466418951134" lon="14.784244154174905"><ele>745.0</ele><time>2026-04-15T11:08:11Z</time></trkpt><trkpt lat="37.12236388550228" lon="14.7843525426551"><ele>745.0</ele><time>2026-04-15T11:08:12Z</time></trkpt><trkpt lat="37.122262039248504" lon="14.784461060929504"><ele>745.25</ele><time>2026-04-15T11:08:13Z</time></trkpt><trkpt lat="37.122137574971305" lon="14.784557362526217"><ele>745.5</ele><time>2026-04-15T11:08:14Z</time></trkpt><trkpt lat="37.1219984442524" lon="14.784631790158224"><ele>745.75</ele><time>2026-04-15T11:08:15Z</time></trkpt><trkpt lat="37.12186314229633" lon="14.784686753767916"><ele>746.0</ele><time>2026-04-15T11:08:16Z</time></trkpt><trkpt lat="37.121732499289145" lon="14.784735612383837"><ele>746.0</ele><time>2026-04-15T11:08:17Z</time></trkpt><trkpt lat="37.12162235107817" lon="14.78475917221323"><ele>746.0</ele><time>2026-04-15T11:08:18Z</time></trkpt><trkpt lat="37.12152419627147" lon="14.78478499803521"><ele>746.0</ele><time>2026-04-15T11:08:19Z</time></trkpt><trkpt lat="37.12145001412052" lon="14.784801551437944"><ele>746.0</ele><time>2026-04-15T11:08:20Z</time></trkpt><trkpt lat="37.121353768554386" lon="14.784725454944573"><ele>746.0</ele><time>2026-04-15T11:08:22Z</time></trkpt><trkpt lat="37.121330610510526" lon="14.784648831164082"><ele>747.0</ele><time>2026-04-15T11:08:23Z</time></trkpt><trkpt lat="37.12129728173524" lon="14.784575360111525"><ele>748.0</ele><time>2026-04-15T11:08:24Z</time></trkpt><trkpt lat="37.121233480851856" lon="14.784522664489145"><ele>749.0</ele><time>2026-04-15T11:08:25Z</time></trkpt><trkpt lat="37.12116075431101" lon="14.784499465198252"><ele>750.0</ele><time>2026-04-15T11:08:26Z</time></trkpt><trkpt lat="37.12108645135954" lon="14.784523402433347"><ele>751.0</ele><time>2026-04-15T11:08:27Z</time></trkpt><trkpt lat="37.12102331802924" lon="14.784564369833387"><ele>752.0</ele><time>2026-04-15T11:08:28Z</time></trkpt><trkpt lat="37.120970672619926" lon="14.784630791760407"><ele>753.0</ele><time>2026-04-15T11:08:29Z</time></trkpt><trkpt lat="37.12092973831828" lon="14.784724504713246"><ele>753.0</ele><time>2026-04-15T11:08:30Z</time></trkpt><trkpt lat="37.120888741253616" lon="14.784842303478351"><ele>753.0</ele><time>2026-04-15T11:08:31Z</time></trkpt><trkpt lat="37.12083374794383" lon="14.784961651256685"><ele>753.0</ele><time>2026-04-15T11:08:32Z</time></trkpt><trkpt lat="37.12075484877747" lon="14.785094233602575"><ele>753.0</ele><time>2026-04-15T11:08:33Z</time></trkpt><trkpt lat="37.120687018900114" lon="14.785211969012929"><ele>755.5</ele><time>2026-04-15T11:08:34Z</time></trkpt><trkpt lat="37.120618570306696" lon="14.78534407492595"><ele>758.0</ele><time>2026-04-15T11:08:35Z</time></trkpt><trkpt lat="37.120570866440545" lon="14.785467291142913"><ele>760.5</ele><time>2026-04-15T11:08:36Z</time></trkpt><trkpt lat="37.12052897208882" lon="14.785621245235294"><ele>763.0</ele><time>2026-04-15T11:08:37Z</time></trkpt><trkpt lat="37.120488705167844" lon="14.785780590879199"><ele>763.0</ele><time>2026-04-15T11:08:38Z</time></trkpt><trkpt lat="37.12044368129685" lon="14.78592212520891"><ele>763.0</ele><time>2026-04-15T11:08:39Z</time></trkpt><trkpt lat="37.12038823182343" lon="14.786038118993972"><ele>763.0</ele><time>2026-04-15T11:08:40Z</time></trkpt><trkpt lat="37.120318740241025" lon="14.786132882020013"><ele>763.0</ele><time>2026-04-15T11:08:41Z</time></trkpt><trkpt lat="37.12023335069864" lon="14.786212070334964"><ele>763.0</ele><time>2026-04-15T11:08:42Z</time></trkpt><trkpt lat="37.120134430013316" lon="14.78629500183517"><ele>764.25</ele><time>2026-04-15T11:08:43Z</time></trkpt><trkpt lat="37.12003756970238" lon="14.78638788439996"><ele>765.5</ele><time>2026-04-15T11:08:44Z</time></trkpt><trkpt lat="37.11993607570782" lon="14.786500389127996"><ele>766.75</ele><time>2026-04-15T11:08:45Z</time></trkpt><trkpt lat="37.119834626683186" lon="14.786624601433708"><ele>768.0</ele><time>2026-04-15T11:08:46Z</time></trkpt><trkpt lat="37.11973525387227" lon="14.78675778370077"><ele>769.75</ele><time>2026-04-15T11:08:47Z</time></trkpt><trkpt lat="37.11963477326791" lon="14.786893291860105"><ele>771.5</ele><time>2026-04-15T11:08:48Z</time></trkpt><trkpt lat="37.1195474309142" lon="14.787015718048837"><ele>773.25</ele><time>2026-04-15T11:08:49Z</time></trkpt><trkpt lat="37.11946665393957" lon="14.787114403692962"><ele>775.0</ele><time>2026-04-15T11:08:50Z</time></trkpt><trkpt lat="37.11939713671975" lon="14.78720584198068"><ele>774.9999999999999</ele><time>2026-04-15T11:08:51Z</time></trkpt><trkpt lat="37.119352016685404" lon="14.787298690928852"><ele>775.0</ele><time>2026-04-15T11:08:52Z</time></trkpt><trkpt lat="37.11931486272495" lon="14.787363938108314"><ele>775.0</ele><time>2026-04-15T11:08:53Z</time></trkpt><trkpt lat="37.11924759492069" lon="14.787393065426846"><ele>775.0</ele><time>2026-04-15T11:08:55Z</time></trkpt><trkpt lat="37.11915099799478" lon="14.787326606497894"><ele>774.9999999999999</ele><time>2026-04-15T11:08:57Z</time></trkpt><trkpt lat="37.1190848575808" lon="14.787254838148513"><ele>775.0</ele><time>2026-04-15T11:08:58Z</time></trkpt><trkpt lat="37.11900658314578" lon="14.787163534542511"><ele>774.0</ele><time>2026-04-15T11:08:59Z</time></trkpt><trkpt lat="37.118923040095744" lon="14.787070348327477"><ele>773.0</ele><time>2026-04-15T11:09:00Z</time></trkpt><trkpt lat="37.118838641176794" lon="14.786978849198736"><ele>772.0</ele><time>2026-04-15T11:09:01Z</time></trkpt><trkpt lat="37.11874480661921" lon="14.786881546437568"><ele>771.0</ele><time>2026-04-15T11:09:02Z</time></trkpt><trkpt lat="37.11863703965658" lon="14.786793028759856"><ele>771.0</ele><time>2026-04-15T11:09:03Z</time></trkpt><trkpt lat="37.11852742141996" lon="14.78669941393437"><ele>771.0</ele><time>2026-04-15T11:09:04Z</time></trkpt><trkpt lat="37.1184166350781" lon="14.786604104376542"><ele>771.0</ele><time>2026-04-15T11:09:05Z</time></trkpt><trkpt lat="37.118308214788115" lon="14.786512870763898"><ele>771.0</ele><time>2026-04-15T11:09:06Z</time></trkpt><trkpt lat="37.11819660151663" lon="14.786425042920156"><ele>773.0</ele><time>2026-04-15T11:09:07Z</time></trkpt><trkpt lat="37.118091082880916" lon="14.786341602689888"><ele>775.0</ele><time>2026-04-15T11:09:08Z</time></trkpt><trkpt lat="37.117991642673715" lon="14.786255172142328"><ele>777.0</ele><time>2026-04-15T11:09:09Z</time></trkpt><trkpt lat="37.1178871088785" lon="14.786167950701122"><ele>779.0</ele><time>2026-04-15T11:09:10Z</time></trkpt><trkpt lat="37.117785608695286" lon="14.786078963993297"><ele>776.75</ele><time>2026-04-15T11:09:11Z</time></trkpt><trkpt lat="37.117692125074676" lon="14.785982961816782"><ele>774.5</ele><time>2026-04-15T11:09:12Z</time></trkpt><trkpt lat="37.11760916876317" lon="14.785865201557803"><ele>772.25</ele><time>2026-04-15T11:09:13Z</time></trkpt><trkpt lat="37.11754858170952" lon="14.78572966420361"><ele>770.0</ele><time>2026-04-15T11:09:14Z</time></trkpt><trkpt lat="37.1174908215847" lon="14.785580066655097"><ele>770.0</ele><time>2026-04-15T11:09:15Z</time></trkpt><trkpt lat="37.117436622615095" lon="14.785423367119108"><ele>770.0</ele><time>2026-04-15T11:09:16Z</time></trkpt><trkpt lat="37.11737858992804" lon="14.785259839854536"><ele>770.0</ele><time>2026-04-15T11:09:17Z</time></trkpt><trkpt lat="37.11732155475887" lon="14.785090869699971"><ele>770.0</ele><time>2026-04-15T11:09:18Z</time></trkpt><trkpt lat="37.11726466015675" lon="14.784929691285448"><ele>771.0</ele><time>2026-04-15T11:09:19Z</time></trkpt><trkpt lat="37.117198640311784" lon="14.784762686180526"><ele>772.0</ele><time>2026-04-15T11:09:20Z</time></trkpt><trkpt lat="37.11713157820692" lon="14.784591654238518"><ele>773.0</ele><time>2026-04-15T11:09:21Z</time></trkpt><trkpt lat="37.117063902712985" lon="14.784423706223505"><ele>771.5</ele><time>2026-04-15T11:09:22Z</time></trkpt><trkpt lat="37.11699611467034" lon="14.784268288379913"><ele>770.0</ele><time>2026-04-15T11:09:23Z</time></trkpt><trkpt lat="37.116914710971955" lon="14.784129816868488"><ele>768.5</ele><time>2026-04-15T11:09:24Z</time></trkpt><trkpt lat="37.116826485568495" lon="14.783991850291105"><ele>767.0</ele><time>2026-04-15T11:09:25Z</time></trkpt><trkpt lat="37.11674349399208" lon="14.783848239417283"><ele>767.0</ele><time>2026-04-15T11:09:26Z</time></trkpt><trkpt lat="37.1166470125726" lon="14.7837035757533"><ele>767.0</ele><time>2026-04-15T11:09:27Z</time></trkpt><trkpt lat="37.11653990962935" lon="14.783557995281374"><ele>767.0</ele><time>2026-04-15T11:09:28Z</time></trkpt><trkpt lat="37.1164454422293" lon="14.78341044889982"><ele>768.0</ele><time>2026-04-15T11:09:29Z</time></trkpt><trkpt lat="37.116350036472426" lon="14.78327075829683"><ele>769.0</ele><time>2026-04-15T11:09:30Z</time></trkpt><trkpt lat="37.11627674531806" lon="14.783129898201365"><ele>770.0</ele><time>2026-04-15T11:09:31Z</time></trkpt><trkpt lat="37.11620466285872" lon="14.78299397670674"><ele>771.0</ele><time>2026-04-15T11:09:32Z</time></trkpt><trkpt lat="37.116130761226515" lon="14.782843911272304"><ele>771.0</ele><time>2026-04-15T11:09:33Z</time></trkpt><trkpt lat="37.116058702576645" lon="14.782695005488968"><ele>771.0</ele><time>2026-04-15T11:09:34Z</time></trkpt><trkpt lat="37.115984614043946" lon="14.782557630227766"><ele>771.0</ele><time>2026-04-15T11:09:34.999Z</time></trkpt><trkpt lat="37.11589809795219" lon="14.78243444887976"><ele>771.0</ele><time>2026-04-15T11:09:35.999Z</time></trkpt><trkpt lat="37.11581321962363" lon="14.782328719652124"><ele>770.75</ele><time>2026-04-15T11:09:36.999Z</time></trkpt><trkpt lat="37.115723871225846" lon="14.782224713911473"><ele>770.5</ele><time>2026-04-15T11:09:37.999Z</time></trkpt><trkpt lat="37.115626568764604" lon="14.782117911857027"><ele>770.25</ele><time>2026-04-15T11:09:38.999Z</time></trkpt><trkpt lat="37.1155190920658" lon="14.782006650819195"><ele>770.0</ele><time>2026-04-15T11:09:39.999Z</time></trkpt><trkpt lat="37.1154034703078" lon="14.781889832749096"><ele>767.25</ele><time>2026-04-15T11:09:40.999Z</time></trkpt><trkpt lat="37.11529087973662" lon="14.781770951427593"><ele>764.5</ele><time>2026-04-15T11:09:41.999Z</time></trkpt><trkpt lat="37.115190436516336" lon="14.781659122636846"><ele>761.75</ele><time>2026-04-15T11:09:42.999Z</time></trkpt><trkpt lat="37.11509570914373" lon="14.781552344989358"><ele>759.0</ele><time>2026-04-15T11:09:43.999Z</time></trkpt><trkpt lat="37.114999210667534" lon="14.781445042453873"><ele>758.0</ele><time>2026-04-15T11:09:44.999Z</time></trkpt><trkpt lat="37.114890081718634" lon="14.781335767838186"><ele>757.0</ele><time>2026-04-15T11:09:45.999Z</time></trkpt><trkpt lat="37.114780237960005" lon="14.781225587411104"><ele>756.0</ele><time>2026-04-15T11:09:46.999Z</time></trkpt><trkpt lat="37.114667769131565" lon="14.781117605539032"><ele>755.0</ele><time>2026-04-15T11:09:47.999Z</time></trkpt><trkpt lat="37.114555688979124" lon="14.78100393761579"><ele>755.0</ele><time>2026-04-15T11:09:48.999Z</time></trkpt><trkpt lat="37.11444087405567" lon="14.780887418650403"><ele>755.0</ele><time>2026-04-15T11:09:49.999Z</time></trkpt><trkpt lat="37.11431903178187" lon="14.780784810764247"><ele>755.0</ele><time>2026-04-15T11:09:50.999Z</time></trkpt><trkpt lat="37.1141815487332" lon="14.780698749645762"><ele>755.0</ele><time>2026-04-15T11:09:52Z</time></trkpt><trkpt lat="37.114031612189955" lon="14.780624383984664"><ele>757.3333333333333</ele><time>2026-04-15T11:09:53Z</time></trkpt><trkpt lat="37.113881825103824" lon="14.78055436928729"><ele>759.6666666666666</ele><time>2026-04-15T11:09:54Z</time></trkpt><trkpt lat="37.11372840194143" lon="14.780483133501765"><ele>762.0</ele><time>2026-04-15T11:09:55Z</time></trkpt><trkpt lat="37.11358011801916" lon="14.78040772216235"><ele>762.0</ele><time>2026-04-15T11:09:56Z</time></trkpt><trkpt lat="37.113437865266874" lon="14.780326824488954"><ele>762.0</ele><time>2026-04-15T11:09:57Z</time></trkpt><trkpt lat="37.11329603150311" lon="14.78024732003123"><ele>762.0</ele><time>2026-04-15T11:09:58Z</time></trkpt><trkpt lat="37.11316061552133" lon="14.780164397783075"><ele>760.0</ele><time>2026-04-15T11:09:59Z</time></trkpt><trkpt lat="37.113024941324724" lon="14.780081549625134"><ele>758.0</ele><time>2026-04-15T11:10:00Z</time></trkpt><trkpt lat="37.1129015561609" lon="14.779997830071867"><ele>756.0</ele><time>2026-04-15T11:10:01Z</time></trkpt><trkpt lat="37.11279072783168" lon="14.779906434516395"><ele>754.0</ele><time>2026-04-15T11:10:02Z</time></trkpt><trkpt lat="37.112702149582226" lon="14.779797622548658"><ele>754.0</ele><time>2026-04-15T11:10:03Z</time></trkpt><trkpt lat="37.11262418060962" lon="14.779686279511305"><ele>754.0</ele><time>2026-04-15T11:10:04Z</time></trkpt><trkpt lat="37.11255184477213" lon="14.779572986610631"><ele>754.0</ele><time>2026-04-15T11:10:05Z</time></trkpt><trkpt lat="37.112489752654625" lon="14.779463526499844"><ele>754.0</ele><time>2026-04-15T11:10:06Z</time></trkpt><trkpt lat="37.11242120907705" lon="14.779365971246586"><ele>754.0</ele><time>2026-04-15T11:10:07Z</time></trkpt><trkpt lat="37.11234552490652" lon="14.77928667585469"><ele>753.0</ele><time>2026-04-15T11:10:08Z</time></trkpt><trkpt lat="37.112258670746115" lon="14.779209384974719"><ele>752.0</ele><time>2026-04-15T11:10:09Z</time></trkpt><trkpt lat="37.112169670710536" lon="14.779137312441147"><ele>751.0</ele><time>2026-04-15T11:10:10Z</time></trkpt><trkpt lat="37.11205979641742" lon="14.779056817128566"><ele>750.0</ele><time>2026-04-15T11:10:11Z</time></trkpt><trkpt lat="37.11193616076512" lon="14.778964589719518"><ele>750.0</ele><time>2026-04-15T11:10:12Z</time></trkpt><trkpt lat="37.11181201086206" lon="14.778868121207086"><ele>750.0</ele><time>2026-04-15T11:10:13Z</time></trkpt><trkpt lat="37.111688004742135" lon="14.778771674138513"><ele>750.0</ele><time>2026-04-15T11:10:14Z</time></trkpt><trkpt lat="37.111567775550476" lon="14.77867698531213"><ele>750.0</ele><time>2026-04-15T11:10:15Z</time></trkpt><trkpt lat="37.11145017060361" lon="14.778587859215436"><ele>749.0</ele><time>2026-04-15T11:10:16Z</time></trkpt><trkpt lat="37.111346714721954" lon="14.778492795435916"><ele>748.0</ele><time>2026-04-15T11:10:17Z</time></trkpt><trkpt lat="37.11124606917224" lon="14.778389922738578"><ele>747.0</ele><time>2026-04-15T11:10:18Z</time></trkpt><trkpt lat="37.11115650381322" lon="14.778279942947604"><ele>746.0</ele><time>2026-04-15T11:10:19Z</time></trkpt><trkpt lat="37.11107042127865" lon="14.778158004637154"><ele>746.0</ele><time>2026-04-15T11:10:20Z</time></trkpt><trkpt lat="37.11097905660237" lon="14.778031734147945"><ele>746.0</ele><time>2026-04-15T11:10:21Z</time></trkpt><trkpt lat="37.11088367487712" lon="14.777905784186737"><ele>746.0</ele><time>2026-04-15T11:10:22Z</time></trkpt><trkpt lat="37.110777701394944" lon="14.777792679536185"><ele>746.0</ele><time>2026-04-15T11:10:23Z</time></trkpt><trkpt lat="37.110672346530016" lon="14.777693124827879"><ele>745.5</ele><time>2026-04-15T11:10:24Z</time></trkpt><trkpt lat="37.110570048677666" lon="14.777615507351848"><ele>745.0</ele><time>2026-04-15T11:10:25Z</time></trkpt><trkpt lat="37.110464352700774" lon="14.777562433269471"><ele>744.5</ele><time>2026-04-15T11:10:26Z</time></trkpt><trkpt lat="37.1103563059564" lon="14.777528838629745"><ele>744.0</ele><time>2026-04-15T11:10:27Z</time></trkpt><trkpt lat="37.110246864252304" lon="14.777504816461512"><ele>744.0</ele><time>2026-04-15T11:10:28Z</time></trkpt><trkpt lat="37.110126375847706" lon="14.777500047698632"><ele>744.0</ele><time>2026-04-15T11:10:29Z</time></trkpt><trkpt lat="37.11000934166664" lon="14.777514929191154"><ele>744.0</ele><time>2026-04-15T11:10:30Z</time></trkpt><trkpt lat="37.10989167842569" lon="14.777553527322082"><ele>744.0</ele><time>2026-04-15T11:10:31Z</time></trkpt><trkpt lat="37.10977954720602" lon="14.777620165673218"><ele>743.75</ele><time>2026-04-15T11:10:32Z</time></trkpt><trkpt lat="37.109674437198194" lon="14.777699673094755"><ele>743.5</ele><time>2026-04-15T11:10:33Z</time></trkpt><trkpt lat="37.109571330954175" lon="14.777788081422111"><ele>743.25</ele><time>2026-04-15T11:10:34Z</time></trkpt><trkpt lat="37.10946443438351" lon="14.77787493062121"><ele>743.0</ele><time>2026-04-15T11:10:35Z</time></trkpt><trkpt lat="37.1093520335802" lon="14.777956961500308"><ele>743.0</ele><time>2026-04-15T11:10:36Z</time></trkpt><trkpt lat="37.10923498844809" lon="14.778035941876496"><ele>743.0</ele><time>2026-04-15T11:10:37Z</time></trkpt><trkpt lat="37.10910886321279" lon="14.778104359305859"><ele>743.0</ele><time>2026-04-15T11:10:38Z</time></trkpt><trkpt lat="37.108976210059765" lon="14.778147714114779"><ele>743.0</ele><time>2026-04-15T11:10:39Z</time></trkpt><trkpt lat="37.1088443577495" lon="14.778155956347494"><ele>743.75</ele><time>2026-04-15T11:10:40Z</time></trkpt><trkpt lat="37.10871597225454" lon="14.778138915412097"><ele>744.5</ele><time>2026-04-15T11:10:41Z</time></trkpt><trkpt lat="37.10859047454057" lon="14.778089984271164"><ele>745.25</ele><time>2026-04-15T11:10:42Z</time></trkpt><trkpt lat="37.10847000419927" lon="14.778017591906986"><ele>746.0</ele><time>2026-04-15T11:10:43Z</time></trkpt><trkpt lat="37.10835524310132" lon="14.777933584885382"><ele>747.5</ele><time>2026-04-15T11:10:44Z</time></trkpt><trkpt lat="37.10823563308111" lon="14.777850001043301"><ele>749.0</ele><time>2026-04-15T11:10:45Z</time></trkpt><trkpt lat="37.10811336749764" lon="14.777776026697907"><ele>750.5</ele><time>2026-04-15T11:10:46Z</time></trkpt><trkpt lat="37.107989437662575" lon="14.77770643396793"><ele>752.0</ele><time>2026-04-15T11:10:47Z</time></trkpt><trkpt lat="37.107864123851584" lon="14.777632158526107"><ele>749.25</ele><time>2026-04-15T11:10:48Z</time></trkpt><trkpt lat="37.107736617364665" lon="14.777556178172098"><ele>746.5</ele><time>2026-04-15T11:10:49Z</time></trkpt><trkpt lat="37.10760864774461" lon="14.77748001384151"><ele>743.75</ele><time>2026-04-15T11:10:50Z</time></trkpt><trkpt lat="37.10748176256921" lon="14.777400924584828"><ele>741.0</ele><time>2026-04-15T11:10:51Z</time></trkpt><trkpt lat="37.107356878217374" lon="14.777328800537761"><ele>741.0</ele><time>2026-04-15T11:10:52Z</time></trkpt><trkpt lat="37.10723370861986" lon="14.77726065560361"><ele>741.0</ele><time>2026-04-15T11:10:53Z</time></trkpt><trkpt lat="37.10711335970316" lon="14.777206805303665"><ele>741.0</ele><time>2026-04-15T11:10:54Z</time></trkpt><trkpt lat="37.10698573571093" lon="14.77716922617902"><ele>741.0</ele><time>2026-04-15T11:10:55Z</time></trkpt><trkpt lat="37.1068579166673" lon="14.777141980775284"><ele>741.0</ele><time>2026-04-15T11:10:56Z</time></trkpt><trkpt lat="37.10673019559316" lon="14.777126764197124"><ele>741.0</ele><time>2026-04-15T11:10:57Z</time></trkpt><trkpt lat="37.10659195615732" lon="14.777114316378633"><ele>741.0</ele><time>2026-04-15T11:10:58Z</time></trkpt><trkpt lat="37.10645380033651" lon="14.777105272165954"><ele>741.0</ele><time>2026-04-15T11:10:59Z</time></trkpt><trkpt lat="37.106318204465204" lon="14.777085370057506"><ele>741.0</ele><time>2026-04-15T11:11:00Z</time></trkpt><trkpt lat="37.10618236610984" lon="14.777067433161536"><ele>741.0</ele><time>2026-04-15T11:11:01Z</time></trkpt><trkpt lat="37.10604219899866" lon="14.777046176272954"><ele>741.0</ele><time>2026-04-15T11:11:02Z</time></trkpt><trkpt lat="37.10589819250653" lon="14.777030785216343"><ele>741.0</ele><time>2026-04-15T11:11:03Z</time></trkpt><trkpt lat="37.1057559231307" lon="14.777012647559545"><ele>740.25</ele><time>2026-04-15T11:11:04Z</time></trkpt><trkpt lat="37.10561620505034" lon="14.776987174872113"><ele>739.5</ele><time>2026-04-15T11:11:05Z</time></trkpt><trkpt lat="37.10547295825661" lon="14.776956329473068"><ele>738.75</ele><time>2026-04-15T11:11:06Z</time></trkpt><trkpt lat="37.10532802681637" lon="14.776938039626888"><ele>738.0</ele><time>2026-04-15T11:11:07Z</time></trkpt><trkpt lat="37.10518959477145" lon="14.776924818883021"><ele>738.0</ele><time>2026-04-15T11:11:08Z</time></trkpt><trkpt lat="37.10505867817968" lon="14.776900829737706"><ele>738.0</ele><time>2026-04-15T11:11:09Z</time></trkpt><trkpt lat="37.10492874004181" lon="14.77688948639519"><ele>738.0</ele><time>2026-04-15T11:11:10Z</time></trkpt><trkpt lat="37.10478991820411" lon="14.77690372603853"><ele>738.0</ele><time>2026-04-15T11:11:11Z</time></trkpt><trkpt lat="37.104652428741296" lon="14.776939123684674"><ele>736.75</ele><time>2026-04-15T11:11:12Z</time></trkpt><trkpt lat="37.104516001222585" lon="14.776982639290804"><ele>735.5</ele><time>2026-04-15T11:11:13Z</time></trkpt><trkpt lat="37.104374793485974" lon="14.777031921284955"><ele>734.25</ele><time>2026-04-15T11:11:14Z</time></trkpt><trkpt lat="37.10423309675175" lon="14.77708187272334"><ele>733.0</ele><time>2026-04-15T11:11:15Z</time></trkpt><trkpt lat="37.10409394226401" lon="14.77712183283982"><ele>731.25</ele><time>2026-04-15T11:11:16Z</time></trkpt><trkpt lat="37.10396986605668" lon="14.77715698484804"><ele>729.5</ele><time>2026-04-15T11:11:17Z</time></trkpt><trkpt lat="37.10384742542657" lon="14.777195649816852"><ele>727.75</ele><time>2026-04-15T11:11:18Z</time></trkpt><trkpt lat="37.10372815771926" lon="14.77724378758008"><ele>726.0</ele><time>2026-04-15T11:11:19Z</time></trkpt><trkpt lat="37.10362118255436" lon="14.777321698246388"><ele>726.0</ele><time>2026-04-15T11:11:20Z</time></trkpt><trkpt lat="37.10352970198277" lon="14.777399707844156"><ele>726.0</ele><time>2026-04-15T11:11:21Z</time></trkpt><trkpt lat="37.103445792365385" lon="14.777493471895086"><ele>726.0</ele><time>2026-04-15T11:11:22Z</time></trkpt><trkpt lat="37.103357887303446" lon="14.777588871511796"><ele>726.0</ele><time>2026-04-15T11:11:23Z</time></trkpt><trkpt lat="37.10328677447354" lon="14.777697943915127"><ele>723.0</ele><time>2026-04-15T11:11:24Z</time></trkpt><trkpt lat="37.10321836131926" lon="14.777830424215795"><ele>720.0</ele><time>2026-04-15T11:11:25Z</time></trkpt><trkpt lat="37.10315643794511" lon="14.777975825021334"><ele>717.0</ele><time>2026-04-15T11:11:26Z</time></trkpt><trkpt lat="37.103101738284174" lon="14.778135975936527"><ele>714.0</ele><time>2026-04-15T11:11:27Z</time></trkpt><trkpt lat="37.10305172940243" lon="14.778308509761523"><ele>714.0</ele><time>2026-04-15T11:11:28Z</time></trkpt><trkpt lat="37.103000755161645" lon="14.778491857078194"><ele>714.0</ele><time>2026-04-15T11:11:29Z</time></trkpt><trkpt lat="37.102946222174985" lon="14.778659883571786"><ele>714.0</ele><time>2026-04-15T11:11:30Z</time></trkpt><trkpt lat="37.102896361395786" lon="14.778814414106751"><ele>714.0</ele><time>2026-04-15T11:11:31Z</time></trkpt><trkpt lat="37.10284731552682" lon="14.778956080325754"><ele>715.5</ele><time>2026-04-15T11:11:31.999Z</time></trkpt><trkpt lat="37.10279667999392" lon="14.779094761009356"><ele>717.0</ele><time>2026-04-15T11:11:32.999Z</time></trkpt><trkpt lat="37.10273841720147" lon="14.779217684573126"><ele>718.5</ele><time>2026-04-15T11:11:33.999Z</time></trkpt><trkpt lat="37.10267121928015" lon="14.77932573823395"><ele>720.0</ele><time>2026-04-15T11:11:34.999Z</time></trkpt><trkpt lat="37.10259025704982" lon="14.779417865504248"><ele>721.0</ele><time>2026-04-15T11:11:35.999Z</time></trkpt><trkpt lat="37.10249366902424" lon="14.779482039109178"><ele>722.0</ele><time>2026-04-15T11:11:36.999Z</time></trkpt><trkpt lat="37.1023899463422" lon="14.779543513756979"><ele>723.0</ele><time>2026-04-15T11:11:37.999Z</time></trkpt><trkpt lat="37.10228457946824" lon="14.779598437059084"><ele>724.0</ele><time>2026-04-15T11:11:38.999Z</time></trkpt><trkpt lat="37.10217248105357" lon="14.77963285531864"><ele>724.0</ele><time>2026-04-15T11:11:39.999Z</time></trkpt><trkpt lat="37.10206102162543" lon="14.77964800871058"><ele>724.0</ele><time>2026-04-15T11:11:40.999Z</time></trkpt><trkpt lat="37.101933591963885" lon="14.779641182706008"><ele>724.0</ele><time>2026-04-15T11:11:41.999Z</time></trkpt><trkpt lat="37.10180069980329" lon="14.77961982826788"><ele>724.0</ele><time>2026-04-15T11:11:42.999Z</time></trkpt><trkpt lat="37.10166299287195" lon="14.77958683422648"><ele>723.75</ele><time>2026-04-15T11:11:43.999Z</time></trkpt><trkpt lat="37.10152419194739" lon="14.779549310145388"><ele>723.5</ele><time>2026-04-15T11:11:44.999Z</time></trkpt><trkpt lat="37.10138504775912" lon="14.7795093286023"><ele>723.25</ele><time>2026-04-15T11:11:45.999Z</time></trkpt><trkpt lat="37.10124902293975" lon="14.779468646480158"><ele>723.0</ele><time>2026-04-15T11:11:46.999Z</time></trkpt><trkpt lat="37.10110910015143" lon="14.779426787717025"><ele>723.0</ele><time>2026-04-15T11:11:47.999Z</time></trkpt><trkpt lat="37.10096458709837" lon="14.77939202150748"><ele>723.0</ele><time>2026-04-15T11:11:48.999Z</time></trkpt><trkpt lat="37.10081715465454" lon="14.779352963670625"><ele>723.0</ele><time>2026-04-15T11:11:49.999Z</time></trkpt><trkpt lat="37.100667632099075" lon="14.779315219662516"><ele>718.3333333333334</ele><time>2026-04-15T11:11:50.999Z</time></trkpt><trkpt lat="37.10051012744734" lon="14.779290903373628"><ele>713.6666666666667</ele><time>2026-04-15T11:11:51.999Z</time></trkpt><trkpt lat="37.10035408119253" lon="14.779281376994096"><ele>709.0</ele><time>2026-04-15T11:11:52.999Z</time></trkpt><trkpt lat="37.10020175607394" lon="14.779298216959166"><ele>709.0</ele><time>2026-04-15T11:11:53.999Z</time></trkpt><trkpt lat="37.10005523111121" lon="14.779338330421833"><ele>709.0</ele><time>2026-04-15T11:11:54.999Z</time></trkpt><trkpt lat="37.09992148498529" lon="14.77939653867189"><ele>709.0</ele><time>2026-04-15T11:11:55.999Z</time></trkpt><trkpt lat="37.09979612760891" lon="14.77946920173752"><ele>709.0</ele><time>2026-04-15T11:11:56.999Z</time></trkpt><trkpt lat="37.0996706576885" lon="14.77956202846171"><ele>709.0</ele><time>2026-04-15T11:11:58Z</time></trkpt><trkpt lat="37.09954886728939" lon="14.77967094043828"><ele>709.0</ele><time>2026-04-15T11:11:59Z</time></trkpt><trkpt lat="37.09942426113106" lon="14.779790487029352"><ele>709.0</ele><time>2026-04-15T11:12:00Z</time></trkpt><trkpt lat="37.09929776282613" lon="14.779915624743744"><ele>709.0</ele><time>2026-04-15T11:12:01Z</time></trkpt><trkpt lat="37.09917629349348" lon="14.780039771503226"><ele>709.0</ele><time>2026-04-15T11:12:02Z</time></trkpt><trkpt lat="37.09906079647047" lon="14.7801563949762"><ele>709.0</ele><time>2026-04-15T11:12:03Z</time></trkpt><trkpt lat="37.09894768721692" lon="14.780273422509895"><ele>709.5</ele><time>2026-04-15T11:12:04Z</time></trkpt><trkpt lat="37.09883007138404" lon="14.780383289227116"><ele>710.0</ele><time>2026-04-15T11:12:05Z</time></trkpt><trkpt lat="37.09871171276742" lon="14.78047996830495"><ele>710.5</ele><time>2026-04-15T11:12:06Z</time></trkpt><trkpt lat="37.098586808370875" lon="14.780569880649931"><ele>711.0</ele><time>2026-04-15T11:12:07Z</time></trkpt><trkpt lat="37.09845498361626" lon="14.780639196518981"><ele>711.0</ele><time>2026-04-15T11:12:08Z</time></trkpt><trkpt lat="37.09831658363665" lon="14.780684003909911"><ele>711.0</ele><time>2026-04-15T11:12:09Z</time></trkpt><trkpt lat="37.098168908107354" lon="14.780725045522692"><ele>711.0</ele><time>2026-04-15T11:12:10Z</time></trkpt><trkpt lat="37.098019553128296" lon="14.780767082588227"><ele>711.0</ele><time>2026-04-15T11:12:11Z</time></trkpt><trkpt lat="37.097879348179674" lon="14.780800789773737"><ele>708.75</ele><time>2026-04-15T11:12:12Z</time></trkpt><trkpt lat="37.09774711861289" lon="14.780850264746432"><ele>706.5</ele><time>2026-04-15T11:12:13Z</time></trkpt><trkpt lat="37.09761956218268" lon="14.780921685644042"><ele>704.25</ele><time>2026-04-15T11:12:14Z</time></trkpt><trkpt lat="37.09749600714349" lon="14.781009998046152"><ele>702.0</ele><time>2026-04-15T11:12:15Z</time></trkpt><trkpt lat="37.097363656057375" lon="14.781100746333376"><ele>701.0</ele><time>2026-04-15T11:12:16Z</time></trkpt><trkpt lat="37.09723288659508" lon="14.781203361608908"><ele>700.0</ele><time>2026-04-15T11:12:17Z</time></trkpt><trkpt lat="37.097103865021694" lon="14.781304386051062"><ele>699.0</ele><time>2026-04-15T11:12:18Z</time></trkpt><trkpt lat="37.09698442955806" lon="14.781407436061833"><ele>699.0</ele><time>2026-04-15T11:12:19Z</time></trkpt><trkpt lat="37.09686992298015" lon="14.781507346147556"><ele>699.0</ele><time>2026-04-15T11:12:20Z</time></trkpt><trkpt lat="37.09676488037094" lon="14.781610631394216"><ele>699.0</ele><time>2026-04-15T11:12:21Z</time></trkpt><trkpt lat="37.096674572054035" lon="14.78173638609423"><ele>699.0</ele><time>2026-04-15T11:12:22Z</time></trkpt><trkpt lat="37.0965926663506" lon="14.78187995859053"><ele>694.25</ele><time>2026-04-15T11:12:23Z</time></trkpt><trkpt lat="37.09652422996639" lon="14.782036226380626"><ele>689.5</ele><time>2026-04-15T11:12:24Z</time></trkpt><trkpt lat="37.096477950495434" lon="14.782211700903849"><ele>684.75</ele><time>2026-04-15T11:12:25Z</time></trkpt><trkpt lat="37.096451213007235" lon="14.78239659809824"><ele>680.0</ele><time>2026-04-15T11:12:26Z</time></trkpt><trkpt lat="37.09642812502165" lon="14.782575582411434"><ele>682.75</ele><time>2026-04-15T11:12:27Z</time></trkpt><trkpt lat="37.09640132332375" lon="14.782751627608793"><ele>685.5</ele><time>2026-04-15T11:12:28Z</time></trkpt><trkpt lat="37.09637570394313" lon="14.782934929986004"><ele>688.25</ele><time>2026-04-15T11:12:29Z</time></trkpt><trkpt lat="37.09634590457633" lon="14.783117297941729"><ele>691.0</ele><time>2026-04-15T11:12:30Z</time></trkpt><trkpt lat="37.096315857209326" lon="14.783295563342145"><ele>691.0</ele><time>2026-04-15T11:12:31Z</time></trkpt><trkpt lat="37.09627329265889" lon="14.783458965169308"><ele>691.0</ele><time>2026-04-15T11:12:32Z</time></trkpt><trkpt lat="37.09621508832343" lon="14.783599392041525"><ele>691.0</ele><time>2026-04-15T11:12:33Z</time></trkpt><trkpt lat="37.096147522903365" lon="14.783725569101298"><ele>691.0</ele><time>2026-04-15T11:12:34Z</time></trkpt><trkpt lat="37.09607403852742" lon="14.783831436054689"><ele>693.4</ele><time>2026-04-15T11:12:35Z</time></trkpt><trkpt lat="37.09598877711429" lon="14.783903797542903"><ele>695.8</ele><time>2026-04-15T11:12:36Z</time></trkpt><trkpt lat="37.095897675533884" lon="14.783943062949225"><ele>698.1999999999999</ele><time>2026-04-15T11:12:37Z</time></trkpt><trkpt lat="37.095803356424526" lon="14.783980713966471"><ele>700.5999999999999</ele><time>2026-04-15T11:12:38Z</time></trkpt><trkpt lat="37.09569942126191" lon="14.784001513096756"><ele>703.0</ele><time>2026-04-15T11:12:39Z</time></trkpt><trkpt lat="37.09559570128936" lon="14.78398776961624"><ele>703.0</ele><time>2026-04-15T11:12:40Z</time></trkpt><trkpt lat="37.09547907645093" lon="14.783967309403968"><ele>703.0</ele><time>2026-04-15T11:12:41Z</time></trkpt><trkpt lat="37.09533943312641" lon="14.783939496341343"><ele>703.0</ele><time>2026-04-15T11:12:42Z</time></trkpt><trkpt lat="37.09519078848143" lon="14.78390912873999"><ele>703.0</ele><time>2026-04-15T11:12:43Z</time></trkpt><trkpt lat="37.09503561334532" lon="14.783877525519971"><ele>703.0</ele><time>2026-04-15T11:12:44Z</time></trkpt><trkpt lat="37.09489392530619" lon="14.783855039778077"><ele>703.0</ele><time>2026-04-15T11:12:45Z</time></trkpt><trkpt lat="37.09474978394943" lon="14.783818394147913"><ele>703.0</ele><time>2026-04-15T11:12:46Z</time></trkpt><trkpt lat="37.09461102077228" lon="14.783756052643804"><ele>703.0</ele><time>2026-04-15T11:12:47Z</time></trkpt><trkpt lat="37.09446578442525" lon="14.783685957180712"><ele>703.0</ele><time>2026-04-15T11:12:48Z</time></trkpt><trkpt lat="37.094321891342" lon="14.783613395651185"><ele>703.0</ele><time>2026-04-15T11:12:49Z</time></trkpt><trkpt lat="37.09418266797166" lon="14.783533959736042"><ele>703.0</ele><time>2026-04-15T11:12:50Z</time></trkpt><trkpt lat="37.09405101288502" lon="14.783470904816141"><ele>703.0</ele><time>2026-04-15T11:12:51Z</time></trkpt><trkpt lat="37.093915932726" lon="14.78343296171197"><ele>699.5</ele><time>2026-04-15T11:12:52Z</time></trkpt><trkpt lat="37.09378349570139" lon="14.78342169168609"><ele>696.0</ele><time>2026-04-15T11:12:53Z</time></trkpt><trkpt lat="37.093653434022194" lon="14.783435128584212"><ele>692.5</ele><time>2026-04-15T11:12:54Z</time></trkpt><trkpt lat="37.09351887765492" lon="14.78345585522448"><ele>689.0</ele><time>2026-04-15T11:12:55Z</time></trkpt><trkpt lat="37.09337357414055" lon="14.783473187403573"><ele>688.0</ele><time>2026-04-15T11:12:56Z</time></trkpt><trkpt lat="37.093222626781234" lon="14.78347890593198"><ele>687.0</ele><time>2026-04-15T11:12:57Z</time></trkpt><trkpt lat="37.09306622461687" lon="14.783489882702083"><ele>686.0</ele><time>2026-04-15T11:12:58Z</time></trkpt><trkpt lat="37.092907874824114" lon="14.78351120073065"><ele>690.6666666666666</ele><time>2026-04-15T11:12:59Z</time></trkpt><trkpt lat="37.0927496809962" lon="14.783534110633058"><ele>695.3333333333334</ele><time>2026-04-15T11:13:00Z</time></trkpt><trkpt lat="37.09259156712378" lon="14.783553207074803"><ele>700.0</ele><time>2026-04-15T11:13:01Z</time></trkpt><trkpt lat="37.09243443071322" lon="14.783572303311468"><ele>697.6666666666667</ele><time>2026-04-15T11:13:02Z</time></trkpt><trkpt lat="37.09227552121107" lon="14.783593960525394"><ele>695.3333333333334</ele><time>2026-04-15T11:13:03Z</time></trkpt><trkpt lat="37.092120177221254" lon="14.783606990253109"><ele>693.0</ele><time>2026-04-15T11:13:04Z</time></trkpt><trkpt lat="37.09196629993085" lon="14.783612958919457"><ele>693.0</ele><time>2026-04-15T11:13:05Z</time></trkpt><trkpt lat="37.09181774781521" lon="14.783613554831412"><ele>693.0</ele><time>2026-04-15T11:13:06Z</time></trkpt><trkpt lat="37.0916780073355" lon="14.783608561108315"><ele>693.0</ele><time>2026-04-15T11:13:07Z</time></trkpt><trkpt lat="37.09154763449115" lon="14.78357802254497"><ele>693.0</ele><time>2026-04-15T11:13:08Z</time></trkpt><trkpt lat="37.091430292387194" lon="14.783522424501195"><ele>692.5</ele><time>2026-04-15T11:13:09Z</time></trkpt><trkpt lat="37.091323159898664" lon="14.783444695853138"><ele>692.0</ele><time>2026-04-15T11:13:10Z</time></trkpt><trkpt lat="37.091214524039465" lon="14.783353734153858"><ele>691.5</ele><time>2026-04-15T11:13:11Z</time></trkpt><trkpt lat="37.091118216613665" lon="14.783240939033377"><ele>691.0</ele><time>2026-04-15T11:13:12Z</time></trkpt><trkpt lat="37.09104291402512" lon="14.783108431344736"><ele>691.0</ele><time>2026-04-15T11:13:13Z</time></trkpt><trkpt lat="37.090987112288104" lon="14.782969975200723"><ele>691.0</ele><time>2026-04-15T11:13:14Z</time></trkpt><trkpt lat="37.09095160781091" lon="14.782822572541095"><ele>691.0</ele><time>2026-04-15T11:13:15Z</time></trkpt><trkpt lat="37.0909300386024" lon="14.782668446362905"><ele>691.0</ele><time>2026-04-15T11:13:16Z</time></trkpt><trkpt lat="37.09091588066914" lon="14.782507537430034"><ele>690.75</ele><time>2026-04-15T11:13:17Z</time></trkpt><trkpt lat="37.09090125737488" lon="14.78234223310854"><ele>690.5</ele><time>2026-04-15T11:13:18Z</time></trkpt><trkpt lat="37.09088298368194" lon="14.782171988356753"><ele>690.25</ele><time>2026-04-15T11:13:19Z</time></trkpt><trkpt lat="37.090858225690056" lon="14.782000719589716"><ele>690.0</ele><time>2026-04-15T11:13:20Z</time></trkpt><trkpt lat="37.090816213947676" lon="14.781830801971036"><ele>691.0</ele><time>2026-04-15T11:13:21Z</time></trkpt><trkpt lat="37.090756291867" lon="14.781666349518552"><ele>692.0</ele><time>2026-04-15T11:13:22Z</time></trkpt><trkpt lat="37.09068491465268" lon="14.781506869786828"><ele>693.0</ele><time>2026-04-15T11:13:23Z</time></trkpt><trkpt lat="37.090616543183174" lon="14.781346352242933"><ele>694.0</ele><time>2026-04-15T11:13:24Z</time></trkpt><trkpt lat="37.09055034309953" lon="14.781185269284665"><ele>694.0</ele><time>2026-04-15T11:13:25Z</time></trkpt><trkpt lat="37.09048319965277" lon="14.781026311735049"><ele>694.0</ele><time>2026-04-15T11:13:26Z</time></trkpt><trkpt lat="37.09041920838269" lon="14.78087484863573"><ele>694.0</ele><time>2026-04-15T11:13:27Z</time></trkpt><trkpt lat="37.09035687724616" lon="14.780731980373144"><ele>694.0</ele><time>2026-04-15T11:13:28Z</time></trkpt><trkpt lat="37.0902946529593" lon="14.780590231986062"><ele>692.5</ele><time>2026-04-15T11:13:29Z</time></trkpt><trkpt lat="37.09023566493059" lon="14.780460657850345"><ele>691.0</ele><time>2026-04-15T11:13:30Z</time></trkpt><trkpt lat="37.09017324085262" lon="14.780343014828823"><ele>689.5</ele><time>2026-04-15T11:13:31Z</time></trkpt><trkpt lat="37.09009984549514" lon="14.780234817395078"><ele>688.0</ele><time>2026-04-15T11:13:32Z</time></trkpt><trkpt lat="37.0900157420481" lon="14.780129591603632"><ele>687.0</ele><time>2026-04-15T11:13:33Z</time></trkpt><trkpt lat="37.089921479091494" lon="14.780036517538509"><ele>686.0</ele><time>2026-04-15T11:13:34Z</time></trkpt><trkpt lat="37.08981879315384" lon="14.77995162244143"><ele>685.0</ele><time>2026-04-15T11:13:35Z</time></trkpt><trkpt lat="37.089705850739435" lon="14.779884824356769"><ele>684.0</ele><time>2026-04-15T11:13:35.999Z</time></trkpt><trkpt lat="37.089582163398916" lon="14.779837880979269"><ele>684.0</ele><time>2026-04-15T11:13:36.999Z</time></trkpt><trkpt lat="37.089453769102725" lon="14.779806775024941"><ele>684.0</ele><time>2026-04-15T11:13:37.999Z</time></trkpt><trkpt lat="37.08931705288397" lon="14.779791160463587"><ele>684.0</ele><time>2026-04-15T11:13:38.999Z</time></trkpt><trkpt lat="37.08917737874744" lon="14.779791702884573"><ele>684.0</ele><time>2026-04-15T11:13:39.999Z</time></trkpt><trkpt lat="37.08904180618963" lon="14.779795581884091"><ele>684.75</ele><time>2026-04-15T11:13:40.999Z</time></trkpt><trkpt lat="37.08891020422013" lon="14.779794470153819"><ele>685.5</ele><time>2026-04-15T11:13:41.999Z</time></trkpt><trkpt lat="37.0887807131724" lon="14.779790221281388"><ele>686.25</ele><time>2026-04-15T11:13:42.999Z</time></trkpt><trkpt lat="37.088647188135674" lon="14.779786950917064"><ele>687.0</ele><time>2026-04-15T11:13:43.999Z</time></trkpt><trkpt lat="37.088510950197126" lon="14.77977184748687"><ele>687.0</ele><time>2026-04-15T11:13:44.999Z</time></trkpt><trkpt lat="37.08837361210915" lon="14.779744704884482"><ele>687.0</ele><time>2026-04-15T11:13:45.999Z</time></trkpt><trkpt lat="37.088236690704406" lon="14.779714899988491"><ele>687.0</ele><time>2026-04-15T11:13:46.999Z</time></trkpt><trkpt lat="37.08810696719048" lon="14.779685494506298"><ele>687.0</ele><time>2026-04-15T11:13:47.999Z</time></trkpt><trkpt lat="37.087981743082466" lon="14.779658129694129"><ele>686.75</ele><time>2026-04-15T11:13:48.999Z</time></trkpt><trkpt lat="37.08786156799085" lon="14.7796376766119"><ele>686.5</ele><time>2026-04-15T11:13:49.999Z</time></trkpt><trkpt lat="37.08774018567313" lon="14.779613080539857"><ele>686.25</ele><time>2026-04-15T11:13:50.999Z</time></trkpt><trkpt lat="37.08761060700315" lon="14.779586394901292"><ele>686.0</ele><time>2026-04-15T11:13:51.999Z</time></trkpt><trkpt lat="37.08746748334681" lon="14.779553337527162"><ele>685.3333333333333</ele><time>2026-04-15T11:13:52.999Z</time></trkpt><trkpt lat="37.087320299724595" lon="14.779510389933625"><ele>684.6666666666666</ele><time>2026-04-15T11:13:53.999Z</time></trkpt><trkpt lat="37.087168860913" lon="14.779462318799476"><ele>684.0</ele><time>2026-04-15T11:13:54.999Z</time></trkpt><trkpt lat="37.0870164574306" lon="14.779413178743178"><ele>684.0</ele><time>2026-04-15T11:13:55.999Z</time></trkpt><trkpt lat="37.086865565531426" lon="14.77936686841843"><ele>684.0</ele><time>2026-04-15T11:13:56.999Z</time></trkpt><trkpt lat="37.086717714496906" lon="14.779323490949954"><ele>684.0</ele><time>2026-04-15T11:13:57.999Z</time></trkpt><trkpt lat="37.086571661469094" lon="14.779282503188966"><ele>682.5</ele><time>2026-04-15T11:13:58.999Z</time></trkpt><trkpt lat="37.08642966517605" lon="14.779240352657858"><ele>681.0</ele><time>2026-04-15T11:13:59.999Z</time></trkpt><trkpt lat="37.08629205166139" lon="14.77919685278787"><ele>679.5</ele><time>2026-04-15T11:14:00.999Z</time></trkpt><trkpt lat="37.0861588262589" lon="14.779157487192023"><ele>678.0</ele><time>2026-04-15T11:14:01.999Z</time></trkpt><trkpt lat="37.08602976253858" lon="14.779118373480586"><ele>678.0</ele><time>2026-04-15T11:14:02.999Z</time></trkpt><trkpt lat="37.08590431794193" lon="14.779079130597886"><ele>678.0</ele><time>2026-04-15T11:14:04.001Z</time></trkpt><trkpt lat="37.085781610063506" lon="14.779035591285622"><ele>678.0</ele><time>2026-04-15T11:14:05.001Z</time></trkpt><trkpt lat="37.08566149930806" lon="14.778991715734445"><ele>678.0</ele><time>2026-04-15T11:14:06.001Z</time></trkpt><trkpt lat="37.08553870926405" lon="14.778951423792286"><ele>678.25</ele><time>2026-04-15T11:14:07.001Z</time></trkpt><trkpt lat="37.08541090858802" lon="14.778910885184452"><ele>678.5</ele><time>2026-04-15T11:14:08.001Z</time></trkpt><trkpt lat="37.085279882028075" lon="14.77886680705695"><ele>678.75</ele><time>2026-04-15T11:14:09.001Z</time></trkpt><trkpt lat="37.0851509259273" lon="14.778814398008679"><ele>679.0</ele><time>2026-04-15T11:14:10.001Z</time></trkpt><trkpt lat="37.08502147810696" lon="14.778754217737918"><ele>678.5</ele><time>2026-04-15T11:14:11.001Z</time></trkpt><trkpt lat="37.08489745818129" lon="14.778673999868419"><ele>678.0</ele><time>2026-04-15T11:14:12.001Z</time></trkpt><trkpt lat="37.08478743505439" lon="14.778578303811132"><ele>677.5</ele><time>2026-04-15T11:14:13.001Z</time></trkpt><trkpt lat="37.08469445757857" lon="14.778464610804107"><ele>677.0</ele><time>2026-04-15T11:14:14Z</time></trkpt><trkpt lat="37.08460850962183" lon="14.778337071589831"><ele>677.0</ele><time>2026-04-15T11:14:15Z</time></trkpt><trkpt lat="37.08452278018833" lon="14.778194687568172"><ele>677.0</ele><time>2026-04-15T11:14:16Z</time></trkpt><trkpt lat="37.08444001365443" lon="14.778054380645056"><ele>677.0</ele><time>2026-04-15T11:14:17Z</time></trkpt><trkpt lat="37.084359685621905" lon="14.777921642867733"><ele>677.0</ele><time>2026-04-15T11:14:18Z</time></trkpt><trkpt lat="37.0842792459181" lon="14.777802264052209"><ele>675.8</ele><time>2026-04-15T11:14:19Z</time></trkpt><trkpt lat="37.08421174418809" lon="14.777684697288205"><ele>674.6</ele><time>2026-04-15T11:14:20Z</time></trkpt><trkpt lat="37.08415745501636" lon="14.777571342189528"><ele>673.4</ele><time>2026-04-15T11:14:21Z</time></trkpt><trkpt lat="37.0841237875209" lon="14.777458788878858"><ele>672.1999999999999</ele><time>2026-04-15T11:14:22Z</time></trkpt><trkpt lat="37.08410940317352" lon="14.77734342695742"><ele>671.0</ele><time>2026-04-15T11:14:23Z</time></trkpt><trkpt lat="37.084129584764426" lon="14.77723435135822"><ele>671.0</ele><time>2026-04-15T11:14:24Z</time></trkpt><trkpt lat="37.08416238526701" lon="14.777135082310993"><ele>671.0</ele><time>2026-04-15T11:14:25Z</time></trkpt><trkpt lat="37.08420302380616" lon="14.77705192111336"><ele>671.0</ele><time>2026-04-15T11:14:26Z</time></trkpt><trkpt lat="37.084249427120774" lon="14.776980454286432"><ele>671.0</ele><time>2026-04-15T11:14:27Z</time></trkpt><trkpt lat="37.0843011083682" lon="14.776919489414142"><ele>671.0</ele><time>2026-04-15T11:14:28Z</time></trkpt><trkpt lat="37.08435839981397" lon="14.776865764889989"><ele>671.0</ele><time>2026-04-15T11:14:29Z</time></trkpt><trkpt lat="37.084422172491436" lon="14.776811642985544"><ele>670.8</ele><time>2026-04-15T11:14:30Z</time></trkpt><trkpt lat="37.08449396087255" lon="14.776752321460224"><ele>670.5999999999999</ele><time>2026-04-15T11:14:31Z</time></trkpt><trkpt lat="37.08457779122014" lon="14.776690850002526"><ele>670.4</ele><time>2026-04-15T11:14:32Z</time></trkpt><trkpt lat="37.084666524824215" lon="14.776623607081463"><ele>670.2</ele><time>2026-04-15T11:14:33Z</time></trkpt><trkpt lat="37.08476346564213" lon="14.77655026252917"><ele>670.0</ele><time>2026-04-15T11:14:34Z</time></trkpt><trkpt lat="37.08486672243888" lon="14.776477850822372"><ele>669.0</ele><time>2026-04-15T11:14:35Z</time></trkpt><trkpt lat="37.08497504563959" lon="14.77640154363731"><ele>668.0</ele><time>2026-04-15T11:14:36Z</time></trkpt><trkpt lat="37.085084831550375" lon="14.776321279700184"><ele>667.0</ele><time>2026-04-15T11:14:37Z</time></trkpt><trkpt lat="37.08519491943402" lon="14.776244684792651"><ele>666.0</ele><time>2026-04-15T11:14:38Z</time></trkpt><trkpt lat="37.08530701920323" lon="14.77617183291462"><ele>666.0</ele><time>2026-04-15T11:14:39Z</time></trkpt><trkpt lat="37.08541776810855" lon="14.776092832806395"><ele>666.0</ele><time>2026-04-15T11:14:40Z</time></trkpt><trkpt lat="37.08552594322102" lon="14.776006971512595"><ele>666.0</ele><time>2026-04-15T11:14:41Z</time></trkpt><trkpt lat="37.08562234874284" lon="14.775903688692946"><ele>666.0</ele><time>2026-04-15T11:14:42Z</time></trkpt><trkpt lat="37.085707169965275" lon="14.775788720779522"><ele>664.75</ele><time>2026-04-15T11:14:43Z</time></trkpt><trkpt lat="37.085765854583535" lon="14.775653706593188"><ele>663.5</ele><time>2026-04-15T11:14:44Z</time></trkpt><trkpt lat="37.0858060571643" lon="14.77550882428645"><ele>662.25</ele><time>2026-04-15T11:14:45Z</time></trkpt><trkpt lat="37.08584019198383" lon="14.775363063082594"><ele>661.0</ele><time>2026-04-15T11:14:46Z</time></trkpt><trkpt lat="37.08587748349137" lon="14.775218754673414"><ele>662.0</ele><time>2026-04-15T11:14:47Z</time></trkpt><trkpt lat="37.08591620600209" lon="14.775083417765174"><ele>663.0</ele><time>2026-04-15T11:14:48Z</time></trkpt><trkpt lat="37.08594901254983" lon="14.774951007075336"><ele>664.0</ele><time>2026-04-15T11:14:49Z</time></trkpt><trkpt lat="37.08597910985457" lon="14.774820499013563"><ele>665.0</ele><time>2026-04-15T11:14:50Z</time></trkpt><trkpt lat="37.086007663423494" lon="14.77470039434077"><ele>666.0</ele><time>2026-04-15T11:14:51Z</time></trkpt><trkpt lat="37.0860207337049" lon="14.774591276620164"><ele>666.0</ele><time>2026-04-15T11:14:52Z</time></trkpt><trkpt lat="37.08601122325653" lon="14.774504960961126"><ele>666.0</ele><time>2026-04-15T11:14:53Z</time></trkpt><trkpt lat="37.085992551973014" lon="14.774382090169958"><ele>666.0</ele><time>2026-04-15T11:14:55Z</time></trkpt><trkpt lat="37.08600428894324" lon="14.774289555507199"><ele>666.0</ele><time>2026-04-15T11:16:40Z</time></trkpt><trkpt lat="37.08600375917342" lon="14.774159342670654"><ele>666.0</ele><time>2026-04-15T11:16:42Z</time></trkpt><trkpt lat="37.08606719885251" lon="14.774042970920505"><ele>664.75</ele><time>2026-04-15T11:18:25Z</time></trkpt><trkpt lat="37.08613839004354" lon="14.7740139445212"><ele>663.5</ele><time>2026-04-15T11:18:27Z</time></trkpt><trkpt lat="37.08624589566518" lon="14.773855522661682"><ele>662.25</ele><time>2026-04-15T11:18:32Z</time></trkpt><trkpt lat="37.08626491265677" lon="14.773734396452525"><ele>661.0</ele><time>2026-04-15T11:18:33Z</time></trkpt><trkpt lat="37.086292090411526" lon="14.773594299941596"><ele>658.5</ele><time>2026-04-15T11:18:34Z</time></trkpt><trkpt lat="37.086329470882106" lon="14.77345159451368"><ele>656.0</ele><time>2026-04-15T11:18:35Z</time></trkpt><trkpt lat="37.08637367111195" lon="14.77329921557389"><ele>653.5</ele><time>2026-04-15T11:18:36Z</time></trkpt><trkpt lat="37.08642107142923" lon="14.773134434308986"><ele>651.0</ele><time>2026-04-15T11:18:37Z</time></trkpt><trkpt lat="37.086459641023" lon="14.77297400600979"><ele>651.0</ele><time>2026-04-15T11:18:38Z</time></trkpt><trkpt lat="37.08649644712659" lon="14.77283217770771"><ele>651.0</ele><time>2026-04-15T11:18:39Z</time></trkpt><trkpt lat="37.08653783095134" lon="14.772673513165596"><ele>651.0</ele><time>2026-04-15T11:18:40Z</time></trkpt><trkpt lat="37.0865744677994" lon="14.772532831783526"><ele>651.0</ele><time>2026-04-15T11:18:41Z</time></trkpt><trkpt lat="37.086606604086576" lon="14.772407494558307"><ele>651.1999999999999</ele><time>2026-04-15T11:18:42Z</time></trkpt><trkpt lat="37.086636511476605" lon="14.772294034030796"><ele>651.4</ele><time>2026-04-15T11:18:43Z</time></trkpt><trkpt lat="37.08665782847684" lon="14.772198539860362"><ele>651.6</ele><time>2026-04-15T11:18:44Z</time></trkpt><trkpt lat="37.086590964535205" lon="14.77209682019415"><ele>651.8</ele><time>2026-04-15T11:18:46Z</time></trkpt><trkpt lat="37.086462530766795" lon="14.772155194187064"><ele>652.0</ele><time>2026-04-15T11:18:48Z</time></trkpt><trkpt lat="37.086381154790246" lon="14.772229501617547"><ele>651.8</ele><time>2026-04-15T11:18:49Z</time></trkpt><trkpt lat="37.08629171637985" lon="14.772299351093753"><ele>651.6</ele><time>2026-04-15T11:18:50Z</time></trkpt><trkpt lat="37.0862068216276" lon="14.772392123175917"><ele>651.4</ele><time>2026-04-15T11:18:51Z</time></trkpt><trkpt lat="37.086152537103416" lon="14.772519039488186"><ele>651.1999999999999</ele><time>2026-04-15T11:18:52Z</time></trkpt><trkpt lat="37.08609011955467" lon="14.772637923906322"><ele>651.0</ele><time>2026-04-15T11:18:53Z</time></trkpt><trkpt lat="37.08599417409928" lon="14.772731135929638"><ele>651.0</ele><time>2026-04-15T11:18:54Z</time></trkpt><trkpt lat="37.085884667845676" lon="14.77278463785854"><ele>651.0</ele><time>2026-04-15T11:18:55Z</time></trkpt><trkpt lat="37.08576538918519" lon="14.772827304087043"><ele>651.0</ele><time>2026-04-15T11:18:56Z</time></trkpt><trkpt lat="37.08563004331392" lon="14.772886063814376"><ele>651.0</ele><time>2026-04-15T11:18:57Z</time></trkpt><trkpt lat="37.08548827948037" lon="14.772953028999607"><ele>650.25</ele><time>2026-04-15T11:18:58Z</time></trkpt><trkpt lat="37.08534245037425" lon="14.773016974475215"><ele>649.5</ele><time>2026-04-15T11:18:59Z</time></trkpt><trkpt lat="37.08520376231212" lon="14.77306041617685"><ele>648.75</ele><time>2026-04-15T11:19:00Z</time></trkpt><trkpt lat="37.0850672418803" lon="14.773077671098248"><ele>648.0</ele><time>2026-04-15T11:19:01Z</time></trkpt><trkpt lat="37.08494271725366" lon="14.773054482501884"><ele>649.75</ele><time>2026-04-15T11:19:02Z</time></trkpt><trkpt lat="37.084823516563326" lon="14.772991674198487"><ele>651.5</ele><time>2026-04-15T11:19:03Z</time></trkpt><trkpt lat="37.08470223892275" lon="14.772904701917122"><ele>653.25</ele><time>2026-04-15T11:19:04Z</time></trkpt><trkpt lat="37.08457615977672" lon="14.772805029119548"><ele>655.0</ele><time>2026-04-15T11:19:05Z</time></trkpt><trkpt lat="37.084447299403834" lon="14.772696353254755"><ele>650.6666666666667</ele><time>2026-04-15T11:19:06Z</time></trkpt><trkpt lat="37.084325742128755" lon="14.77256824212405"><ele>646.3333333333334</ele><time>2026-04-15T11:19:07Z</time></trkpt><trkpt lat="37.08422454835947" lon="14.77241038288041"><ele>642.0</ele><time>2026-04-15T11:19:08Z</time></trkpt><trkpt lat="37.084138746686115" lon="14.772237703740178"><ele>642.0</ele><time>2026-04-15T11:19:09Z</time></trkpt><trkpt lat="37.08404576991291" lon="14.772080972896203"><ele>642.0</ele><time>2026-04-15T11:19:10Z</time></trkpt><trkpt lat="37.08394743845408" lon="14.771951416687537"><ele>642.0</ele><time>2026-04-15T11:19:11Z</time></trkpt><trkpt lat="37.083849028485105" lon="14.771834947112437"><ele>642.0</ele><time>2026-04-15T11:19:12Z</time></trkpt><trkpt lat="37.08373842533109" lon="14.771759736063672"><ele>642.0</ele><time>2026-04-15T11:19:13Z</time></trkpt><trkpt lat="37.08361085104011" lon="14.771713688398771"><ele>642.0</ele><time>2026-04-15T11:19:14Z</time></trkpt><trkpt lat="37.083472136241554" lon="14.77167765183398"><ele>642.0</ele><time>2026-04-15T11:19:15Z</time></trkpt><trkpt lat="37.08332232718728" lon="14.771647435105077"><ele>642.0</ele><time>2026-04-15T11:19:16Z</time></trkpt><trkpt lat="37.08317791918167" lon="14.771603515380903"><ele>644.25</ele><time>2026-04-15T11:19:17Z</time></trkpt><trkpt lat="37.08304908427963" lon="14.771538218579849"><ele>646.5</ele><time>2026-04-15T11:19:18Z</time></trkpt><trkpt lat="37.08291869289231" lon="14.77144722251851"><ele>648.75</ele><time>2026-04-15T11:19:19Z</time></trkpt><trkpt lat="37.08278178961806" lon="14.771360344268334"><ele>651.0</ele><time>2026-04-15T11:19:20Z</time></trkpt><trkpt lat="37.082640542786876" lon="14.771274153377746"><ele>651.0</ele><time>2026-04-15T11:19:21Z</time></trkpt><trkpt lat="37.082495515096596" lon="14.77118632171526"><ele>651.0</ele><time>2026-04-15T11:19:22Z</time></trkpt><trkpt lat="37.0823463863382" lon="14.771096072176457"><ele>651.0</ele><time>2026-04-15T11:19:23Z</time></trkpt><trkpt lat="37.082196054109545" lon="14.771003973018175"><ele>644.3333333333334</ele><time>2026-04-15T11:19:24Z</time></trkpt><trkpt lat="37.08203847683163" lon="14.770915607186831"><ele>637.6666666666667</ele><time>2026-04-15T11:19:25Z</time></trkpt><trkpt lat="37.08187395541174" lon="14.770832145366155"><ele>631.0</ele><time>2026-04-15T11:19:26Z</time></trkpt><trkpt lat="37.08170167186425" lon="14.770763665973124"><ele>631.3333333333334</ele><time>2026-04-15T11:19:26.999Z</time></trkpt><trkpt lat="37.08151554141988" lon="14.7706943977273"><ele>631.6666666666666</ele><time>2026-04-15T11:19:27.999Z</time></trkpt><trkpt lat="37.08132213292505" lon="14.77062473915107"><ele>632.0</ele><time>2026-04-15T11:19:28.999Z</time></trkpt><trkpt lat="37.08112259326795" lon="14.770547593711948"><ele>632.0</ele><time>2026-04-15T11:19:29.999Z</time></trkpt><trkpt lat="37.08092732242784" lon="14.770470755045052"><ele>632.0</ele><time>2026-04-15T11:19:30.999Z</time></trkpt><trkpt lat="37.08073193485495" lon="14.77039062457531"><ele>632.0</ele><time>2026-04-15T11:19:31.999Z</time></trkpt><trkpt lat="37.08053829253424" lon="14.770304287787653"><ele>633.6666666666666</ele><time>2026-04-15T11:19:32.999Z</time></trkpt><trkpt lat="37.08035218062153" lon="14.77021722922161"><ele>635.3333333333334</ele><time>2026-04-15T11:19:33.999Z</time></trkpt><trkpt lat="37.08018201545789" lon="14.770113382694847"><ele>637.0</ele><time>2026-04-15T11:19:34.999Z</time></trkpt><trkpt lat="37.08003827858322" lon="14.769975741342307"><ele>634.6666666666667</ele><time>2026-04-15T11:19:35.999Z</time></trkpt><trkpt lat="37.07991490015338" lon="14.769808484199643"><ele>632.3333333333334</ele><time>2026-04-15T11:19:36.999Z</time></trkpt><trkpt lat="37.07979164226574" lon="14.769625642734562"><ele>630.0</ele><time>2026-04-15T11:19:37.999Z</time></trkpt><trkpt lat="37.07966712800455" lon="14.769453287565758"><ele>625.3333333333334</ele><time>2026-04-15T11:19:38.999Z</time></trkpt><trkpt lat="37.079546615395145" lon="14.76929523175979"><ele>620.6666666666667</ele><time>2026-04-15T11:19:39.999Z</time></trkpt><trkpt lat="37.079436291781285" lon="14.769157648892286"><ele>616.0</ele><time>2026-04-15T11:19:40.999Z</time></trkpt><trkpt lat="37.07931323727348" lon="14.769059342419036"><ele>616.0</ele><time>2026-04-15T11:19:41.999Z</time></trkpt><trkpt lat="37.07917542059682" lon="14.769008967498387"><ele>616.0</ele><time>2026-04-15T11:19:42.999Z</time></trkpt><trkpt lat="37.07903377022602" lon="14.76899302810869"><ele>616.0</ele><time>2026-04-15T11:19:43.999Z</time></trkpt><trkpt lat="37.07888730361362" lon="14.76901616782489"><ele>616.0</ele><time>2026-04-15T11:19:44.999Z</time></trkpt><trkpt lat="37.07875239880552" lon="14.769066192852188"><ele>614.5</ele><time>2026-04-15T11:19:45.999Z</time></trkpt><trkpt lat="37.07861989728426" lon="14.769087922602447"><ele>613.0</ele><time>2026-04-15T11:19:46.999Z</time></trkpt><trkpt lat="37.07848452761058" lon="14.769057612404541"><ele>611.5</ele><time>2026-04-15T11:19:47.999Z</time></trkpt><trkpt lat="37.078366259769794" lon="14.768970875899813"><ele>610.0</ele><time>2026-04-15T11:19:48.999Z</time></trkpt><trkpt lat="37.07825778022825" lon="14.768862234623352"><ele>609.75</ele><time>2026-04-15T11:19:49.999Z</time></trkpt><trkpt lat="37.0781540583613" lon="14.768743129540148"><ele>609.5</ele><time>2026-04-15T11:19:50.999Z</time></trkpt><trkpt lat="37.07807655777387" lon="14.768624043472917"><ele>609.25</ele><time>2026-04-15T11:19:51.999Z</time></trkpt><trkpt lat="37.078016710841865" lon="14.768520987030298"><ele>609.0</ele><time>2026-04-15T11:19:52.999Z</time></trkpt><trkpt lat="37.07794229519173" lon="14.768450357910694"><ele>608.8</ele><time>2026-04-15T11:19:53.999Z</time></trkpt><trkpt lat="37.07785608871717" lon="14.768444133333062"><ele>608.5999999999999</ele><time>2026-04-15T11:19:54.999Z</time></trkpt><trkpt lat="37.07776565133079" lon="14.768456550405743"><ele>608.4</ele><time>2026-04-15T11:19:55.999Z</time></trkpt><trkpt lat="37.07768682963964" lon="14.768478529160625"><ele>608.1999999999999</ele><time>2026-04-15T11:19:56.999Z</time></trkpt><trkpt lat="37.0775874747807" lon="14.76849473086813"><ele>608.0</ele><time>2026-04-15T11:19:57.999Z</time></trkpt><trkpt lat="37.07746243489992" lon="14.768507795427345"><ele>607.6666666666666</ele><time>2026-04-15T11:19:58.999Z</time></trkpt><trkpt lat="37.077317974875555" lon="14.768516970470012"><ele>607.3333333333334</ele><time>2026-04-15T11:19:59.999Z</time></trkpt><trkpt lat="37.07715854033298" lon="14.768523462147447"><ele>607.0</ele><time>2026-04-15T11:20:00.999Z</time></trkpt><trkpt lat="37.07701266256145" lon="14.768530080111598"><ele>607.0</ele><time>2026-04-15T11:20:01.999Z</time></trkpt><trkpt lat="37.07686413623075" lon="14.768539551292768"><ele>607.0</ele><time>2026-04-15T11:20:02.999Z</time></trkpt><trkpt lat="37.07671562247352" lon="14.768551390823003"><ele>607.0</ele><time>2026-04-15T11:20:03.999Z</time></trkpt><trkpt lat="37.07656503399729" lon="14.768560571373023"><ele>607.0</ele><time>2026-04-15T11:20:04.999Z</time></trkpt><trkpt lat="37.07641018540135" lon="14.76856911150245"><ele>607.0</ele><time>2026-04-15T11:20:05.999Z</time></trkpt><trkpt lat="37.076248763908964" lon="14.768579742101931"><ele>607.0</ele><time>2026-04-15T11:20:06.999Z</time></trkpt><trkpt lat="37.07608235706837" lon="14.768589467050992"><ele>607.0</ele><time>2026-04-15T11:20:07.999Z</time></trkpt><trkpt lat="37.075922518148396" lon="14.76859318067531"><ele>606.6666666666667</ele><time>2026-04-15T11:20:08.999Z</time></trkpt><trkpt lat="37.07576136460837" lon="14.768612098462539"><ele>606.3333333333334</ele><time>2026-04-15T11:20:09.999Z</time></trkpt><trkpt lat="37.07560374652085" lon="14.768665346067031"><ele>606.0</ele><time>2026-04-15T11:20:10.999Z</time></trkpt><trkpt lat="37.07545200595797" lon="14.768745296537832"><ele>606.0</ele><time>2026-04-15T11:20:11.999Z</time></trkpt><trkpt lat="37.07530624941572" lon="14.768833576717602"><ele>606.0</ele><time>2026-04-15T11:20:12.999Z</time></trkpt><trkpt lat="37.07515527524433" lon="14.768921281280033"><ele>606.0</ele><time>2026-04-15T11:20:13.999Z</time></trkpt><trkpt lat="37.07498507004156" lon="14.769016498091853"><ele>605.6666666666666</ele><time>2026-04-15T11:20:14.999Z</time></trkpt><trkpt lat="37.07481555902723" lon="14.769114883014256"><ele>605.3333333333333</ele><time>2026-04-15T11:20:15.999Z</time></trkpt><trkpt lat="37.07464479097381" lon="14.769214175787479"><ele>605.0</ele><time>2026-04-15T11:20:16.999Z</time></trkpt><trkpt lat="37.07446246488112" lon="14.769321685992583"><ele>603.6666666666666</ele><time>2026-04-15T11:20:17.999Z</time></trkpt><trkpt lat="37.07428847935605" lon="14.769429577676467"><ele>602.3333333333334</ele><time>2026-04-15T11:20:18.999Z</time></trkpt><trkpt lat="37.07412344224972" lon="14.769531657734758"><ele>601.0</ele><time>2026-04-15T11:20:19.999Z</time></trkpt><trkpt lat="37.07396729445031" lon="14.769628187012101"><ele>600.3333333333334</ele><time>2026-04-15T11:20:20.999Z</time></trkpt><trkpt lat="37.07381416427214" lon="14.769721195837198"><ele>599.6666666666666</ele><time>2026-04-15T11:20:22Z</time></trkpt><trkpt lat="37.07365611062499" lon="14.769812767322955"><ele>599.0</ele><time>2026-04-15T11:20:23Z</time></trkpt><trkpt lat="37.073492040381545" lon="14.769897352672883"><ele>599.0</ele><time>2026-04-15T11:20:24Z</time></trkpt><trkpt lat="37.073325237665635" lon="14.769971508783927"><ele>599.0</ele><time>2026-04-15T11:20:25Z</time></trkpt><trkpt lat="37.073152732787534" lon="14.770034707992345"><ele>599.0</ele><time>2026-04-15T11:20:26Z</time></trkpt><trkpt lat="37.072980697321164" lon="14.77007895641368"><ele>598.0</ele><time>2026-04-15T11:20:27Z</time></trkpt><trkpt lat="37.07281666780076" lon="14.77010022692191"><ele>597.0</ele><time>2026-04-15T11:20:28Z</time></trkpt><trkpt lat="37.072653616951385" lon="14.770090087937357"><ele>596.0</ele><time>2026-04-15T11:20:29Z</time></trkpt><trkpt lat="37.07249720031071" lon="14.770059465150494"><ele>595.0</ele><time>2026-04-15T11:20:30Z</time></trkpt><trkpt lat="37.07234248445259" lon="14.770031557104733"><ele>594.0</ele><time>2026-04-15T11:20:31Z</time></trkpt><trkpt lat="37.072173040878944" lon="14.769999259082542"><ele>593.0</ele><time>2026-04-15T11:20:32Z</time></trkpt><trkpt lat="37.07199252555069" lon="14.76995819827485"><ele>593.0</ele><time>2026-04-15T11:20:33Z</time></trkpt><trkpt lat="37.0717988044261" lon="14.769914733874137"><ele>593.0</ele><time>2026-04-15T11:20:34Z</time></trkpt><trkpt lat="37.071595617391715" lon="14.769882902904381"><ele>593.0</ele><time>2026-04-15T11:20:35Z</time></trkpt><trkpt lat="37.07138136022746" lon="14.769863710324081"><ele>591.0</ele><time>2026-04-15T11:20:36Z</time></trkpt><trkpt lat="37.07114929976151" lon="14.769854893262423"><ele>589.0</ele><time>2026-04-15T11:20:37Z</time></trkpt><trkpt lat="37.07093066609266" lon="14.769839323630704"><ele>586.6666666666667</ele><time>2026-04-15T11:20:38Z</time></trkpt><trkpt lat="37.070708732272486" lon="14.769821717548547"><ele>584.3333333333334</ele><time>2026-04-15T11:20:39Z</time></trkpt><trkpt lat="37.07048468829937" lon="14.76980962690217"><ele>582.0</ele><time>2026-04-15T11:20:40Z</time></trkpt><trkpt lat="37.07026038466957" lon="14.769796204004573"><ele>582.0</ele><time>2026-04-15T11:20:41Z</time></trkpt><trkpt lat="37.07003653939631" lon="14.769781109191957"><ele>582.0</ele><time>2026-04-15T11:20:42Z</time></trkpt><trkpt lat="37.06981431043472" lon="14.769767934411043"><ele>582.0</ele><time>2026-04-15T11:20:43Z</time></trkpt><trkpt lat="37.06959767729561" lon="14.769752579882132"><ele>582.0</ele><time>2026-04-15T11:20:44Z</time></trkpt><trkpt lat="37.06938147959029" lon="14.769734996717224"><ele>582.0</ele><time>2026-04-15T11:20:45Z</time></trkpt><trkpt lat="37.06917096928764" lon="14.769715937796368"><ele>582.0</ele><time>2026-04-15T11:20:46Z</time></trkpt><trkpt lat="37.0689628615038" lon="14.769696423837328"><ele>582.6666666666666</ele><time>2026-04-15T11:20:47Z</time></trkpt><trkpt lat="37.06876700924233" lon="14.769676209497153"><ele>583.3333333333333</ele><time>2026-04-15T11:20:48Z</time></trkpt><trkpt lat="37.068570970150034" lon="14.769654931378827"><ele>584.0</ele><time>2026-04-15T11:20:49Z</time></trkpt><trkpt lat="37.06837957374215" lon="14.769632508996432"><ele>583.3333333333333</ele><time>2026-04-15T11:20:50Z</time></trkpt><trkpt lat="37.06818420743026" lon="14.769614357317298"><ele>582.6666666666666</ele><time>2026-04-15T11:20:51Z</time></trkpt><trkpt lat="37.06799321776292" lon="14.769596504308263"><ele>582.0</ele><time>2026-04-15T11:20:52Z</time></trkpt><trkpt lat="37.06780482298739" lon="14.769571385030236"><ele>582.0</ele><time>2026-04-15T11:20:53Z</time></trkpt><trkpt lat="37.06761445652198" lon="14.769544259373548"><ele>582.0</ele><time>2026-04-15T11:20:54Z</time></trkpt><trkpt lat="37.06742217083894" lon="14.769520780841306"><ele>582.0</ele><time>2026-04-15T11:20:55Z</time></trkpt><trkpt lat="37.06722901675902" lon="14.769501302992403"><ele>582.6666666666666</ele><time>2026-04-15T11:20:56Z</time></trkpt><trkpt lat="37.06702616405014" lon="14.769478786524154"><ele>583.3333333333333</ele><time>2026-04-15T11:20:57Z</time></trkpt><trkpt lat="37.06682503369815" lon="14.76945483489675"><ele>584.0</ele><time>2026-04-15T11:20:58Z</time></trkpt><trkpt lat="37.06661768443459" lon="14.7694340412122"><ele>582.6666666666666</ele><time>2026-04-15T11:20:59Z</time></trkpt><trkpt lat="37.066410414754486" lon="14.7694143242836"><ele>581.3333333333334</ele><time>2026-04-15T11:21:00Z</time></trkpt><trkpt lat="37.06620212453506" lon="14.769400164870518"><ele>580.0</ele><time>2026-04-15T11:21:01Z</time></trkpt><trkpt lat="37.065991334535454" lon="14.769392450667732"><ele>579.6666666666667</ele><time>2026-04-15T11:21:02Z</time></trkpt><trkpt lat="37.06577691250475" lon="14.769394302330396"><ele>579.3333333333334</ele><time>2026-04-15T11:21:03Z</time></trkpt><trkpt lat="37.06555310716025" lon="14.769402718464331"><ele>579.0</ele><time>2026-04-15T11:21:04Z</time></trkpt><trkpt lat="37.06532506736378" lon="14.769423180958626"><ele>579.0</ele><time>2026-04-15T11:21:05Z</time></trkpt><trkpt lat="37.06508014159646" lon="14.769457771991151"><ele>579.0</ele><time>2026-04-15T11:21:06Z</time></trkpt><trkpt lat="37.06482330206873" lon="14.76951654025941"><ele>579.0</ele><time>2026-04-15T11:21:07Z</time></trkpt><trkpt lat="37.0645641370791" lon="14.769577453088367"><ele>579.0</ele><time>2026-04-15T11:21:08Z</time></trkpt><trkpt lat="37.06429511085591" lon="14.769640089268652"><ele>581.5</ele><time>2026-04-15T11:21:09Z</time></trkpt><trkpt lat="37.064036254694145" lon="14.769712316843398"><ele>584.0</ele><time>2026-04-15T11:21:10Z</time></trkpt><trkpt lat="37.06375222285705" lon="14.769784935691861"><ele>584.0</ele><time>2026-04-15T11:21:11Z</time></trkpt><trkpt lat="37.06348242424414" lon="14.769921450029182"><ele>584.0</ele><time>2026-04-15T11:21:13Z</time></trkpt><trkpt lat="37.06325807336042" lon="14.770034501466194"><ele>586.5</ele><time>2026-04-15T11:21:14Z</time></trkpt><trkpt lat="37.06303706502743" lon="14.770163370607023"><ele>589.0</ele><time>2026-04-15T11:21:15Z</time></trkpt><trkpt lat="37.06283295156045" lon="14.77031175825942"><ele>589.3333333333334</ele><time>2026-04-15T11:21:16Z</time></trkpt><trkpt lat="37.06265728397206" lon="14.77047017446123"><ele>589.6666666666666</ele><time>2026-04-15T11:21:17Z</time></trkpt><trkpt lat="37.062496320337374" lon="14.77064845520194"><ele>590.0</ele><time>2026-04-15T11:21:18Z</time></trkpt><trkpt lat="37.062341398062244" lon="14.770845651571172"><ele>591.3333333333333</ele><time>2026-04-15T11:21:19Z</time></trkpt><trkpt lat="37.06220018154768" lon="14.771056970244384"><ele>592.6666666666666</ele><time>2026-04-15T11:21:20Z</time></trkpt><trkpt lat="37.06207721823391" lon="14.771273950319134"><ele>594.0</ele><time>2026-04-15T11:21:21Z</time></trkpt><trkpt lat="37.06197308939899" lon="14.771485615444373"><ele>594.0</ele><time>2026-04-15T11:21:21.999Z</time></trkpt><trkpt lat="37.06188591240767" lon="14.771688368741476"><ele>594.0</ele><time>2026-04-15T11:21:22.999Z</time></trkpt><trkpt lat="37.061812383759616" lon="14.771897692659762"><ele>594.0</ele><time>2026-04-15T11:21:23.999Z</time></trkpt><trkpt lat="37.0617501034746" lon="14.772112737706324"><ele>594.6666666666666</ele><time>2026-04-15T11:21:24.999Z</time></trkpt><trkpt lat="37.0616989247434" lon="14.772345262482599"><ele>595.3333333333333</ele><time>2026-04-15T11:21:25.999Z</time></trkpt><trkpt lat="37.06165812385631" lon="14.772590784587418"><ele>596.0</ele><time>2026-04-15T11:21:26.999Z</time></trkpt><trkpt lat="37.06162567528675" lon="14.772841993327216"><ele>599.3333333333333</ele><time>2026-04-15T11:21:27.999Z</time></trkpt><trkpt lat="37.06159552030534" lon="14.773094957517404"><ele>602.6666666666666</ele><time>2026-04-15T11:21:28.999Z</time></trkpt><trkpt lat="37.06156019717051" lon="14.77334705185726"><ele>606.0</ele><time>2026-04-15T11:21:29.999Z</time></trkpt><trkpt lat="37.06152233350607" lon="14.773593347765022"><ele>607.3333333333334</ele><time>2026-04-15T11:21:30.999Z</time></trkpt><trkpt lat="37.06148832103073" lon="14.773834973727284"><ele>608.6666666666667</ele><time>2026-04-15T11:21:31.999Z</time></trkpt><trkpt lat="37.06146062236765" lon="14.774063972382482"><ele>610.0</ele><time>2026-04-15T11:21:32.999Z</time></trkpt><trkpt lat="37.061424319096474" lon="14.774274659693077"><ele>611.0</ele><time>2026-04-15T11:21:33.999Z</time></trkpt><trkpt lat="37.06138388822145" lon="14.774493348664686"><ele>612.0</ele><time>2026-04-15T11:21:34.999Z</time></trkpt><trkpt lat="37.06136589870478" lon="14.774704733524615"><ele>613.0</ele><time>2026-04-15T11:21:35.999Z</time></trkpt><trkpt lat="37.06138727267991" lon="14.77489961381182"><ele>613.0</ele><time>2026-04-15T11:21:36.999Z</time></trkpt><trkpt lat="37.06144356560016" lon="14.775081526035347"><ele>613.0</ele><time>2026-04-15T11:21:37.999Z</time></trkpt><trkpt lat="37.06151097092231" lon="14.77524681590078"><ele>613.0</ele><time>2026-04-15T11:21:38.999Z</time></trkpt><trkpt lat="37.06155039949969" lon="14.775388497005329"><ele>613.0</ele><time>2026-04-15T11:21:39.999Z</time></trkpt><trkpt lat="37.06155027983371" lon="14.775495048933038"><ele>612.1999999999999</ele><time>2026-04-15T11:21:40.999Z</time></trkpt><trkpt lat="37.06152628382329" lon="14.775604661360797"><ele>611.4</ele><time>2026-04-15T11:21:42.999Z</time></trkpt><trkpt lat="37.06158761306247" lon="14.775712757327566"><ele>610.5999999999999</ele><time>2026-04-15T11:21:46.999Z</time></trkpt><trkpt lat="37.061691358418685" lon="14.775737175675232"><ele>609.8</ele><time>2026-04-15T11:21:47.999Z</time></trkpt><trkpt lat="37.06183282851348" lon="14.775741785868938"><ele>609.0</ele><time>2026-04-15T11:21:48.999Z</time></trkpt><trkpt lat="37.06195993847494" lon="14.775787680889232"><ele>609.0</ele><time>2026-04-15T11:21:49.999Z</time></trkpt><trkpt lat="37.06207663459906" lon="14.7758776007866"><ele>609.0</ele><time>2026-04-15T11:21:50.999Z</time></trkpt><trkpt lat="37.06219512188178" lon="14.776000951628166"><ele>609.0</ele><time>2026-04-15T11:21:51.999Z</time></trkpt><trkpt lat="37.06230919077916" lon="14.776158745198067"><ele>610.3333333333334</ele><time>2026-04-15T11:21:52.999Z</time></trkpt><trkpt lat="37.06241180409933" lon="14.77633724571521"><ele>611.6666666666667</ele><time>2026-04-15T11:21:53.999Z</time></trkpt><trkpt lat="37.062506943145586" lon="14.776515942922503"><ele>613.0</ele><time>2026-04-15T11:21:54.999Z</time></trkpt><trkpt lat="37.06261645609939" lon="14.776701924179044"><ele>611.0</ele><time>2026-04-15T11:21:55.999Z</time></trkpt><trkpt lat="37.06273595067803" lon="14.776888469580172"><ele>609.0</ele><time>2026-04-15T11:21:56.999Z</time></trkpt><trkpt lat="37.06285645608054" lon="14.777075045073468"><ele>607.0</ele><time>2026-04-15T11:21:57.999Z</time></trkpt><trkpt lat="37.06296562368199" lon="14.777251748725519"><ele>607.0</ele><time>2026-04-15T11:21:58.999Z</time></trkpt><trkpt lat="37.06306337294375" lon="14.777416859487097"><ele>607.0</ele><time>2026-04-15T11:21:59.999Z</time></trkpt><trkpt lat="37.063155320764125" lon="14.777567230699931"><ele>607.0</ele><time>2026-04-15T11:22:00.999Z</time></trkpt><trkpt lat="37.06324784692078" lon="14.777716090795803"><ele>605.75</ele><time>2026-04-15T11:22:01.999Z</time></trkpt><trkpt lat="37.06332981781357" lon="14.777848292297127"><ele>604.5</ele><time>2026-04-15T11:22:02.999Z</time></trkpt><trkpt lat="37.06340338188262" lon="14.77796996003583"><ele>603.25</ele><time>2026-04-15T11:22:03.999Z</time></trkpt><trkpt lat="37.06345476904077" lon="14.77806754796187"><ele>602.0</ele><time>2026-04-15T11:22:04.999Z</time></trkpt><trkpt lat="37.06345939919418" lon="14.778226972621232"><ele>602.0</ele><time>2026-04-15T11:22:06.999Z</time></trkpt><trkpt lat="37.063425835949175" lon="14.778358322170996"><ele>602.0</ele><time>2026-04-15T11:22:08.999Z</time></trkpt><trkpt lat="37.06337860952473" lon="14.77845990529813"><ele>602.0</ele><time>2026-04-15T11:22:09.999Z</time></trkpt><trkpt lat="37.06331280056416" lon="14.77859019230264"><ele>602.0</ele><time>2026-04-15T11:22:10.999Z</time></trkpt><trkpt lat="37.06324183746041" lon="14.778739985651482"><ele>601.3333333333333</ele><time>2026-04-15T11:22:11.999Z</time></trkpt><trkpt lat="37.06316692399102" lon="14.778910352425308"><ele>600.6666666666666</ele><time>2026-04-15T11:22:12.999Z</time></trkpt><trkpt lat="37.06308129840507" lon="14.779094462108882"><ele>600.0</ele><time>2026-04-15T11:22:13.999Z</time></trkpt><trkpt lat="37.06299643673733" lon="14.779280821905566"><ele>598.6666666666666</ele><time>2026-04-15T11:22:14.999Z</time></trkpt><trkpt lat="37.06291459764167" lon="14.779471290585706"><ele>597.3333333333333</ele><time>2026-04-15T11:22:15.999Z</time></trkpt><trkpt lat="37.06282510696113" lon="14.77967684128879"><ele>596.0</ele><time>2026-04-15T11:22:16.999Z</time></trkpt><trkpt lat="37.06273400536354" lon="14.779891020167106"><ele>596.0</ele><time>2026-04-15T11:22:17.999Z</time></trkpt><trkpt lat="37.06263843183188" lon="14.78010939761241"><ele>596.0</ele><time>2026-04-15T11:22:18.999Z</time></trkpt><trkpt lat="37.06253996088786" lon="14.780327400864051"><ele>596.0</ele><time>2026-04-15T11:22:19.999Z</time></trkpt><trkpt lat="37.06244558762036" lon="14.780538164358521"><ele>597.0</ele><time>2026-04-15T11:22:20.999Z</time></trkpt><trkpt lat="37.06235622495647" lon="14.78073392090102"><ele>598.0</ele><time>2026-04-15T11:22:21.999Z</time></trkpt><trkpt lat="37.062256883044775" lon="14.780927199666458"><ele>599.0</ele><time>2026-04-15T11:22:22.999Z</time></trkpt><trkpt lat="37.062135202695536" lon="14.78108654293291"><ele>593.0</ele><time>2026-04-15T11:22:23.999Z</time></trkpt><trkpt lat="37.06198833853014" lon="14.781224964853562"><ele>587.0</ele><time>2026-04-15T11:22:24.999Z</time></trkpt><trkpt lat="37.061830257228344" lon="14.78135440043165"><ele>581.0</ele><time>2026-04-15T11:22:25.999Z</time></trkpt><trkpt lat="37.06166744939241" lon="14.781490609077476"><ele>579.3333333333333</ele><time>2026-04-15T11:22:26.999Z</time></trkpt><trkpt lat="37.0615075670619" lon="14.781637774767836"><ele>577.6666666666666</ele><time>2026-04-15T11:22:28Z</time></trkpt><trkpt lat="37.061349740692386" lon="14.781785087846657"><ele>576.0</ele><time>2026-04-15T11:22:29Z</time></trkpt><trkpt lat="37.061194210549615" lon="14.781924917963126"><ele>576.0</ele><time>2026-04-15T11:22:30Z</time></trkpt><trkpt lat="37.06103992258428" lon="14.782061104676282"><ele>576.0</ele><time>2026-04-15T11:22:31Z</time></trkpt><trkpt lat="37.060903417456366" lon="14.782203069519845"><ele>576.0</ele><time>2026-04-15T11:22:32Z</time></trkpt><trkpt lat="37.06077688161168" lon="14.782372855333323"><ele>576.6666666666666</ele><time>2026-04-15T11:22:33Z</time></trkpt><trkpt lat="37.06066983022832" lon="14.78257995132271"><ele>577.3333333333333</ele><time>2026-04-15T11:22:34Z</time></trkpt><trkpt lat="37.06056151080349" lon="14.782801476036093"><ele>578.0</ele><time>2026-04-15T11:22:35Z</time></trkpt><trkpt lat="37.060444403203014" lon="14.783023559687038"><ele>578.0</ele><time>2026-04-15T11:22:36Z</time></trkpt><trkpt lat="37.06032148452632" lon="14.783234526030407"><ele>578.0</ele><time>2026-04-15T11:22:37Z</time></trkpt><trkpt lat="37.060200513822764" lon="14.783456105904985"><ele>578.0</ele><time>2026-04-15T11:22:38Z</time></trkpt><trkpt lat="37.06008443278152" lon="14.783674670794607"><ele>579.0</ele><time>2026-04-15T11:22:39Z</time></trkpt><trkpt lat="37.059963672731655" lon="14.78389189409717"><ele>580.0</ele><time>2026-04-15T11:22:40Z</time></trkpt><trkpt lat="37.05983989614716" lon="14.784106926330733"><ele>581.0</ele><time>2026-04-15T11:22:41Z</time></trkpt><trkpt lat="37.05971782780579" lon="14.784327053623253"><ele>576.3333333333333</ele><time>2026-04-15T11:22:42Z</time></trkpt><trkpt lat="37.05959015680217" lon="14.784550395065875"><ele>571.6666666666666</ele><time>2026-04-15T11:22:43Z</time></trkpt><trkpt lat="37.05945836151015" lon="14.784784586225559"><ele>567.0</ele><time>2026-04-15T11:22:44Z</time></trkpt><trkpt lat="37.05933252889675" lon="14.7850104286709"><ele>567.3333333333334</ele><time>2026-04-15T11:22:45Z</time></trkpt><trkpt lat="37.05921102817995" lon="14.785232487463214"><ele>567.6666666666667</ele><time>2026-04-15T11:22:46Z</time></trkpt><trkpt lat="37.05908860619595" lon="14.78545900931217"><ele>568.0</ele><time>2026-04-15T11:22:47Z</time></trkpt><trkpt lat="37.05895847384661" lon="14.7856914335774"><ele>568.0</ele><time>2026-04-15T11:22:48Z</time></trkpt><trkpt lat="37.058833664792196" lon="14.785901460054054"><ele>568.0</ele><time>2026-04-15T11:22:49Z</time></trkpt><trkpt lat="37.05871464355864" lon="14.786063978776363"><ele>568.0</ele><time>2026-04-15T11:22:50Z</time></trkpt><trkpt lat="37.05860743077042" lon="14.786166084900637"><ele>564.0</ele><time>2026-04-15T11:22:51Z</time></trkpt><trkpt lat="37.05849485385582" lon="14.786210198749151"><ele>560.0</ele><time>2026-04-15T11:22:52Z</time></trkpt><trkpt lat="37.058351609573805" lon="14.786213260172747"><ele>556.0</ele><time>2026-04-15T11:22:53Z</time></trkpt><trkpt lat="37.05820523406604" lon="14.786215730280663"><ele>552.0</ele><time>2026-04-15T11:22:54Z</time></trkpt><trkpt lat="37.0580511471378" lon="14.786230811910405"><ele>552.0</ele><time>2026-04-15T11:22:55Z</time></trkpt><trkpt lat="37.057871165778614" lon="14.786255913386894"><ele>552.0</ele><time>2026-04-15T11:22:56Z</time></trkpt><trkpt lat="37.057659471096144" lon="14.786291214288296"><ele>552.0</ele><time>2026-04-15T11:22:57Z</time></trkpt><trkpt lat="37.05744662048738" lon="14.78632435098221"><ele>550.6666666666666</ele><time>2026-04-15T11:22:58Z</time></trkpt><trkpt lat="37.0572303555993" lon="14.786355115598495"><ele>549.3333333333333</ele><time>2026-04-15T11:22:59Z</time></trkpt><trkpt lat="37.05703662065821" lon="14.786381094104938"><ele>548.0</ele><time>2026-04-15T11:23:00Z</time></trkpt><trkpt lat="37.05685633350047" lon="14.786412115848744"><ele>548.0</ele><time>2026-04-15T11:23:01Z</time></trkpt><trkpt lat="37.05671978688765" lon="14.786447805367247"><ele>548.0</ele><time>2026-04-15T11:23:02Z</time></trkpt><trkpt lat="37.05663412682019" lon="14.786510236507032"><ele>548.0</ele><time>2026-04-15T11:23:03Z</time></trkpt><trkpt lat="37.056577055742615" lon="14.786604390588622"><ele>548.0</ele><time>2026-04-15T11:23:04Z</time></trkpt><trkpt lat="37.056570971182346" lon="14.786735690937862"><ele>548.0</ele><time>2026-04-15T11:23:05Z</time></trkpt><trkpt lat="37.05658709273506" lon="14.786889482195003"><ele>547.0</ele><time>2026-04-15T11:23:06Z</time></trkpt><trkpt lat="37.05656258825891" lon="14.787039464221884"><ele>546.0</ele><time>2026-04-15T11:23:07Z</time></trkpt><trkpt lat="37.05648318417597" lon="14.78715296657367"><ele>545.0</ele><time>2026-04-15T11:23:08Z</time></trkpt><trkpt lat="37.056355595749594" lon="14.787233838555007"><ele>544.0</ele><time>2026-04-15T11:23:09Z</time></trkpt><trkpt lat="37.05620520835408" lon="14.787322688057952"><ele>544.0</ele><time>2026-04-15T11:23:10Z</time></trkpt><trkpt lat="37.05606161090741" lon="14.78741973134214"><ele>544.0</ele><time>2026-04-15T11:23:11Z</time></trkpt><trkpt lat="37.0559223663833" lon="14.787530562474897"><ele>544.0</ele><time>2026-04-15T11:23:12Z</time></trkpt><trkpt lat="37.05577438960512" lon="14.787647334005484"><ele>547.3333333333334</ele><time>2026-04-15T11:23:13Z</time></trkpt><trkpt lat="37.0556178697423" lon="14.787760611167936"><ele>550.6666666666666</ele><time>2026-04-15T11:23:14Z</time></trkpt><trkpt lat="37.05545807240628" lon="14.787869234069829"><ele>554.0</ele><time>2026-04-15T11:23:15Z</time></trkpt><trkpt lat="37.05528841632111" lon="14.787959204465944"><ele>554.0</ele><time>2026-04-15T11:23:16Z</time></trkpt><trkpt lat="37.05510705435798" lon="14.7880232481364"><ele>554.0</ele><time>2026-04-15T11:23:17Z</time></trkpt><trkpt lat="37.05491957305461" lon="14.788075649194182"><ele>554.0</ele><time>2026-04-15T11:23:18Z</time></trkpt><trkpt lat="37.05473476663842" lon="14.788132882882898"><ele>551.3333333333333</ele><time>2026-04-15T11:23:19Z</time></trkpt><trkpt lat="37.054549940265574" lon="14.788192268142053"><ele>548.6666666666666</ele><time>2026-04-15T11:23:19.999Z</time></trkpt><trkpt lat="37.054363294355156" lon="14.788254477874604"><ele>546.0</ele><time>2026-04-15T11:23:20.999Z</time></trkpt><trkpt lat="37.05418202199243" lon="14.78831695959677"><ele>543.0</ele><time>2026-04-15T11:23:21.999Z</time></trkpt><trkpt lat="37.05398701254328" lon="14.788385254922336"><ele>540.0</ele><time>2026-04-15T11:23:22.999Z</time></trkpt><trkpt lat="37.05379679292805" lon="14.788448414110052"><ele>537.0</ele><time>2026-04-15T11:23:23.999Z</time></trkpt><trkpt lat="37.053611395578066" lon="14.788507697124073"><ele>541.6666666666666</ele><time>2026-04-15T11:23:24.999Z</time></trkpt><trkpt lat="37.05342096860534" lon="14.788561088970342"><ele>546.3333333333333</ele><time>2026-04-15T11:23:25.999Z</time></trkpt><trkpt lat="37.05323263776651" lon="14.788608988709344"><ele>551.0</ele><time>2026-04-15T11:23:26.999Z</time></trkpt><trkpt lat="37.05303887218271" lon="14.78863544011559"><ele>551.0</ele><time>2026-04-15T11:23:27.999Z</time></trkpt><trkpt lat="37.052842863859354" lon="14.78864470352951"><ele>551.0</ele><time>2026-04-15T11:23:28.999Z</time></trkpt><trkpt lat="37.05264883904466" lon="14.788651122882994"><ele>551.0</ele><time>2026-04-15T11:23:29.999Z</time></trkpt><trkpt lat="37.05245656135335" lon="14.788690442136057"><ele>548.6666666666666</ele><time>2026-04-15T11:23:30.999Z</time></trkpt><trkpt lat="37.052266139880814" lon="14.78876931581056"><ele>546.3333333333334</ele><time>2026-04-15T11:23:31.999Z</time></trkpt><trkpt lat="37.05207549841505" lon="14.78885893150723"><ele>544.0</ele><time>2026-04-15T11:23:32.999Z</time></trkpt><trkpt lat="37.05188556114312" lon="14.788934341306367"><ele>544.0</ele><time>2026-04-15T11:23:33.999Z</time></trkpt><trkpt lat="37.05170055571065" lon="14.788998017099413"><ele>544.0</ele><time>2026-04-15T11:23:34.999Z</time></trkpt><trkpt lat="37.05152563475346" lon="14.789057009783598"><ele>544.0</ele><time>2026-04-15T11:23:35.999Z</time></trkpt><trkpt lat="37.051359577769695" lon="14.78908590563913"><ele>542.3333333333334</ele><time>2026-04-15T11:23:36.999Z</time></trkpt><trkpt lat="37.051190923889145" lon="14.789061223946604"><ele>540.6666666666666</ele><time>2026-04-15T11:23:37.999Z</time></trkpt><trkpt lat="37.05099594283689" lon="14.789020144044501"><ele>539.0</ele><time>2026-04-15T11:23:38.999Z</time></trkpt><trkpt lat="37.05079722054655" lon="14.789000346913443"><ele>538.3333333333333</ele><time>2026-04-15T11:23:39.999Z</time></trkpt><trkpt lat="37.050607336009286" lon="14.788982517617397"><ele>537.6666666666666</ele><time>2026-04-15T11:23:40.999Z</time></trkpt><trkpt lat="37.05042504231101" lon="14.788960235423767"><ele>537.0</ele><time>2026-04-15T11:23:41.999Z</time></trkpt><trkpt lat="37.050246976251664" lon="14.788958414507126"><ele>537.0</ele><time>2026-04-15T11:23:42.999Z</time></trkpt><trkpt lat="37.05007283555148" lon="14.789001640149664"><ele>537.0</ele><time>2026-04-15T11:23:43.999Z</time></trkpt><trkpt lat="37.049917433693544" lon="14.789076795805443"><ele>537.0</ele><time>2026-04-15T11:23:44.999Z</time></trkpt><trkpt lat="37.04977988114095" lon="14.78920339012626"><ele>537.0</ele><time>2026-04-15T11:23:45.999Z</time></trkpt><trkpt lat="37.049627442598954" lon="14.789338366487126"><ele>537.0</ele><time>2026-04-15T11:23:46.999Z</time></trkpt><trkpt lat="37.04944951546425" lon="14.789487025863123"><ele>537.0</ele><time>2026-04-15T11:23:47.999Z</time></trkpt><trkpt lat="37.04928267468242" lon="14.789621996373642"><ele>537.0</ele><time>2026-04-15T11:23:48.999Z</time></trkpt><trkpt lat="37.049126177261805" lon="14.78975393848454"><ele>537.0</ele><time>2026-04-15T11:23:49.999Z</time></trkpt><trkpt lat="37.048975825570004" lon="14.789885392840638"><ele>537.0</ele><time>2026-04-15T11:23:50.999Z</time></trkpt><trkpt lat="37.04882748586847" lon="14.790011794232617"><ele>537.3333333333334</ele><time>2026-04-15T11:23:51.999Z</time></trkpt><trkpt lat="37.048675035429696" lon="14.790136290343488"><ele>537.6666666666667</ele><time>2026-04-15T11:23:52.999Z</time></trkpt><trkpt lat="37.04852376855236" lon="14.790255763737973"><ele>538.0</ele><time>2026-04-15T11:23:53.999Z</time></trkpt><trkpt lat="37.04837957461925" lon="14.790368919799652"><ele>531.6666666666667</ele><time>2026-04-15T11:23:54.999Z</time></trkpt><trkpt lat="37.048242677488346" lon="14.790481211978886"><ele>525.3333333333334</ele><time>2026-04-15T11:23:55.999Z</time></trkpt><trkpt lat="37.04811226921055" lon="14.790596107558894"><ele>519.0</ele><time>2026-04-15T11:23:56.999Z</time></trkpt><trkpt lat="37.047989416227956" lon="14.790706842869593"><ele>519.0</ele><time>2026-04-15T11:23:57.999Z</time></trkpt><trkpt lat="37.04786676021759" lon="14.790805366542974"><ele>519.0</ele><time>2026-04-15T11:23:58.999Z</time></trkpt><trkpt lat="37.04775554307239" lon="14.790908973546683"><ele>519.0</ele><time>2026-04-15T11:23:59.999Z</time></trkpt><trkpt lat="37.04765737183989" lon="14.791020141896544"><ele>519.0</ele><time>2026-04-15T11:24:00.999Z</time></trkpt><trkpt lat="37.04757276662229" lon="14.791146608842983"><ele>517.25</ele><time>2026-04-15T11:24:01.999Z</time></trkpt><trkpt lat="37.047505147993974" lon="14.791287080729983"><ele>515.5</ele><time>2026-04-15T11:24:02.999Z</time></trkpt><trkpt lat="37.047462691626315" lon="14.791428728723178"><ele>513.75</ele><time>2026-04-15T11:24:03.999Z</time></trkpt><trkpt lat="37.04744941679991" lon="14.791570508903398"><ele>512.0</ele><time>2026-04-15T11:24:04.999Z</time></trkpt><trkpt lat="37.04745950851935" lon="14.791705776167088"><ele>515.5</ele><time>2026-04-15T11:24:05.999Z</time></trkpt><trkpt lat="37.047486280802495" lon="14.791830423813751"><ele>519.0</ele><time>2026-04-15T11:24:06.999Z</time></trkpt><trkpt lat="37.047508446958055" lon="14.791979981769945"><ele>522.5</ele><time>2026-04-15T11:24:07.999Z</time></trkpt><trkpt lat="37.047526235451485" lon="14.792128044257218"><ele>526.0</ele><time>2026-04-15T11:24:08.999Z</time></trkpt><trkpt lat="37.04754227305546" lon="14.792272106984166"><ele>526.0</ele><time>2026-04-15T11:24:09.999Z</time></trkpt><trkpt lat="37.04757483104178" lon="14.792402204924622"><ele>526.0</ele><time>2026-04-15T11:24:10.999Z</time></trkpt><trkpt lat="37.047591501641584" lon="14.792514253790968"><ele>526.0</ele><time>2026-04-15T11:24:11.999Z</time></trkpt><trkpt lat="37.047615569717514" lon="14.792602323595544"><ele>526.0</ele><time>2026-04-15T11:24:12.999Z</time></trkpt><trkpt lat="37.047630825275576" lon="14.792708133090516"><ele>526.0</ele><time>2026-04-15T11:24:13.999Z</time></trkpt><trkpt lat="37.04764615958948" lon="14.792804396870507"><ele>526.0</ele><time>2026-04-15T11:24:14.999Z</time></trkpt><trkpt lat="37.04765814057685" lon="14.792900954740771"><ele>525.6666666666667</ele><time>2026-04-15T11:24:15.999Z</time></trkpt><trkpt lat="37.04767492817686" lon="14.792980070198329"><ele>525.3333333333334</ele><time>2026-04-15T11:24:16.999Z</time></trkpt><trkpt lat="37.047696348548016" lon="14.793058393223665"><ele>525.0</ele><time>2026-04-15T11:24:17.999Z</time></trkpt><trkpt lat="37.04770112701308" lon="14.79316150668628"><ele>524.6666666666666</ele><time>2026-04-15T11:24:18.999Z</time></trkpt><trkpt lat="37.04771678044308" lon="14.793272836031665"><ele>524.3333333333333</ele><time>2026-04-15T11:24:19.999Z</time></trkpt><trkpt lat="37.047734995876105" lon="14.79337627944843"><ele>524.0</ele><time>2026-04-15T11:24:20.999Z</time></trkpt><trkpt lat="37.04774991378817" lon="14.793477426053007"><ele>523.5</ele><time>2026-04-15T11:24:21.999Z</time></trkpt><trkpt lat="37.04776115673316" lon="14.793563902752409"><ele>523.0</ele><time>2026-04-15T11:24:22.999Z</time></trkpt><trkpt lat="37.04777853894551" lon="14.793646136929613"><ele>522.5</ele><time>2026-04-15T11:24:26.999Z</time></trkpt><trkpt lat="37.04784080004824" lon="14.793702448461366"><ele>522.0</ele><time>2026-04-15T11:24:31.999Z</time></trkpt><trkpt lat="37.047913365753786" lon="14.793680697263914"><ele>521.5</ele><time>2026-04-15T11:24:32.999Z</time></trkpt><trkpt lat="37.04800848232947" lon="14.79362238861585"><ele>521.0</ele><time>2026-04-15T11:24:34Z</time></trkpt><trkpt lat="37.04812816238116" lon="14.793602574399713"><ele>521.0</ele><time>2026-04-15T11:24:35Z</time></trkpt><trkpt lat="37.04822346800847" lon="14.793572187738032"><ele>521.0</ele><time>2026-04-15T11:24:36Z</time></trkpt><trkpt lat="37.04832577063964" lon="14.793544596069056"><ele>521.0</ele><time>2026-04-15T11:24:37Z</time></trkpt><trkpt lat="37.048445667765314" lon="14.793511348772256"><ele>521.0</ele><time>2026-04-15T11:24:38Z</time></trkpt><trkpt lat="37.04857972908844" lon="14.793475636678792"><ele>523.75</ele><time>2026-04-15T11:24:39Z</time></trkpt><trkpt lat="37.04871976417509" lon="14.793442375695264"><ele>526.5</ele><time>2026-04-15T11:24:40Z</time></trkpt><trkpt lat="37.04885052524756" lon="14.793404359248312"><ele>529.25</ele><time>2026-04-15T11:24:41Z</time></trkpt><trkpt lat="37.0489835391639" lon="14.793371621573993"><ele>532.0</ele><time>2026-04-15T11:24:42Z</time></trkpt><trkpt lat="37.04910614502846" lon="14.793334878702275"><ele>534.4</ele><time>2026-04-15T11:24:43Z</time></trkpt><trkpt lat="37.04922191211335" lon="14.79330022761624"><ele>536.8000000000001</ele><time>2026-04-15T11:24:44Z</time></trkpt><trkpt lat="37.0493320494311" lon="14.793282334343559"><ele>539.2</ele><time>2026-04-15T11:24:45Z</time></trkpt><trkpt lat="37.049430958586115" lon="14.793264109480244"><ele>541.6</ele><time>2026-04-15T11:24:46Z</time></trkpt><trkpt lat="37.04951886652893" lon="14.793242498801039"><ele>544.0</ele><time>2026-04-15T11:24:47Z</time></trkpt><trkpt lat="37.049617560122876" lon="14.793218417293017"><ele>544.0</ele><time>2026-04-15T11:24:48Z</time></trkpt><trkpt lat="37.049710464108635" lon="14.7931921051999"><ele>544.0</ele><time>2026-04-15T11:24:49Z</time></trkpt><trkpt lat="37.04978173595211" lon="14.793127901520764"><ele>544.0</ele><time>2026-04-15T11:24:50Z</time></trkpt><trkpt lat="37.049862193076045" lon="14.793093323876548"><ele>544.0</ele><time>2026-04-15T11:24:51Z</time></trkpt><trkpt lat="37.04993400260555" lon="14.793050040687218"><ele>544.0</ele><time>2026-04-15T11:24:52Z</time></trkpt><trkpt lat="37.05000645621395" lon="14.79300317401045"><ele>544.0</ele><time>2026-04-15T11:24:53Z</time></trkpt><trkpt lat="37.05008191751051" lon="14.792953122972126"><ele>543.6666666666667</ele><time>2026-04-15T11:24:54Z</time></trkpt><trkpt lat="37.05018434254846" lon="14.792883707996198"><ele>543.3333333333334</ele><time>2026-04-15T11:24:56Z</time></trkpt><trkpt lat="37.05024384111538" lon="14.792849791813676"><ele>543.0</ele><time>2026-04-15T11:24:57Z</time></trkpt><trkpt lat="37.050293631796556" lon="14.792798294087161"><ele>542.6666666666666</ele><time>2026-04-15T11:24:58Z</time></trkpt><trkpt lat="37.05032933751689" lon="14.792723052525037"><ele>542.3333333333333</ele><time>2026-04-15T11:24:59Z</time></trkpt><trkpt lat="37.050355927095076" lon="14.792629489668345"><ele>542.0</ele><time>2026-04-15T11:25:00Z</time></trkpt><trkpt lat="37.050396325704185" lon="14.792540582823676"><ele>545.1666666666666</ele><time>2026-04-15T11:25:01Z</time></trkpt><trkpt lat="37.050437574976876" lon="14.79244660639393"><ele>548.3333333333333</ele><time>2026-04-15T11:25:02Z</time></trkpt><trkpt lat="37.05047530764019" lon="14.792368842511905"><ele>551.5</ele><time>2026-04-15T11:25:03Z</time></trkpt><trkpt lat="37.05054586716512" lon="14.792254944070226"><ele>554.6666666666666</ele><time>2026-04-15T11:25:05Z</time></trkpt><trkpt lat="37.05059749092289" lon="14.79218480888087"><ele>557.8333333333334</ele><time>2026-04-15T11:25:06Z</time></trkpt><trkpt lat="37.050643450729424" lon="14.79210341519513"><ele>561.0</ele><time>2026-04-15T11:25:07Z</time></trkpt><trkpt lat="37.05068057123238" lon="14.79200708828723"><ele>561.0</ele><time>2026-04-15T11:25:08Z</time></trkpt><trkpt lat="37.05071433078511" lon="14.791896817181923"><ele>561.0</ele><time>2026-04-15T11:25:09Z</time></trkpt><trkpt lat="37.05074383772038" lon="14.791791091544326"><ele>561.0</ele><time>2026-04-15T11:25:10Z</time></trkpt><trkpt lat="37.0507733835176" lon="14.791678578552235"><ele>561.0</ele><time>2026-04-15T11:25:11Z</time></trkpt><trkpt lat="37.050804675432204" lon="14.791565497964031"><ele>561.0</ele><time>2026-04-15T11:25:12Z</time></trkpt><trkpt lat="37.050830842033605" lon="14.791461026861699"><ele>562.8333333333334</ele><time>2026-04-15T11:25:13Z</time></trkpt><trkpt lat="37.05086435376619" lon="14.791371312193942"><ele>564.6666666666666</ele><time>2026-04-15T11:25:14Z</time></trkpt><trkpt lat="37.050914169775105" lon="14.791318428904212"><ele>566.5</ele><time>2026-04-15T11:25:15Z</time></trkpt><trkpt lat="37.050976491542954" lon="14.79130215942209"><ele>568.3333333333333</ele><time>2026-04-15T11:25:16Z</time></trkpt><trkpt lat="37.05109174545134" lon="14.791273369588419"><ele>570.1666666666666</ele><time>2026-04-15T11:25:18Z</time></trkpt><trkpt lat="37.05118599724147" lon="14.791213869159836"><ele>572.0</ele><time>2026-04-15T11:25:20Z</time></trkpt><trkpt lat="37.05120128524014" lon="14.791073769210149"><ele>573.6666666666666</ele><time>2026-04-15T11:25:21.999Z</time></trkpt><trkpt lat="37.05117399158379" lon="14.790996571303852"><ele>575.3333333333333</ele><time>2026-04-15T11:25:22.999Z</time></trkpt><trkpt lat="37.05114397352549" lon="14.790917098765306"><ele>577.0</ele><time>2026-04-15T11:25:23.999Z</time></trkpt><trkpt lat="37.051124437227124" lon="14.790840926157282"><ele>578.6666666666666</ele><time>2026-04-15T11:25:24.999Z</time></trkpt><trkpt lat="37.05101947597532" lon="14.790756758688406"><ele>580.3333333333334</ele><time>2026-04-15T11:25:26.999Z</time></trkpt><trkpt lat="37.0509331962586" lon="14.790768590298782"><ele>582.0</ele><time>2026-04-15T11:25:27.999Z</time></trkpt><trkpt lat="37.050841810456774" lon="14.790818032313627"><ele>581.6</ele><time>2026-04-15T11:25:28.999Z</time></trkpt><trkpt lat="37.0507582817864" lon="14.790896370927964"><ele>581.2</ele><time>2026-04-15T11:25:29.999Z</time></trkpt><trkpt lat="37.05067717164475" lon="14.79097888582497"><ele>580.8</ele><time>2026-04-15T11:25:30.999Z</time></trkpt><trkpt lat="37.05060999931828" lon="14.791024022799093"><ele>580.4</ele><time>2026-04-15T11:25:31.999Z</time></trkpt><trkpt lat="37.05052615629171" lon="14.790989375988849"><ele>580.0</ele><time>2026-04-15T11:25:33.999Z</time></trkpt><trkpt lat="37.050441183309324" lon="14.79097033578829"><ele>580.0</ele><time>2026-04-15T11:25:35.999Z</time></trkpt><trkpt lat="37.0503710564774" lon="14.790970956053672"><ele>580.0</ele><time>2026-04-15T11:25:36.999Z</time></trkpt><trkpt lat="37.05029728324671" lon="14.7909699947856"><ele>580.0</ele><time>2026-04-15T11:25:37.999Z</time></trkpt><trkpt lat="37.050224091993705" lon="14.790961526158558"><ele>580.0</ele><time>2026-04-15T11:25:38.999Z</time></trkpt><trkpt lat="37.050153817423706" lon="14.790954280608357"><ele>580.0</ele><time>2026-04-15T11:25:39.999Z</time></trkpt><trkpt lat="37.05004669030666" lon="14.79092169754833"><ele>580.0</ele><time>2026-04-15T11:25:41.999Z</time></trkpt><trkpt lat="37.049980895422166" lon="14.79087655097608"><ele>578.0</ele><time>2026-04-15T11:25:43.999Z</time></trkpt><trkpt lat="37.04991567234296" lon="14.790899857095301"><ele>576.0</ele><time>2026-04-15T11:25:58.999Z</time></trkpt><trkpt lat="37.04989325036772" lon="14.790980907411297"><ele>574.0</ele><time>2026-04-15T11:26:01.999Z</time></trkpt><trkpt lat="37.049834213905534" lon="14.791026085677238"><ele>572.0</ele><time>2026-04-15T11:26:03.999Z</time></trkpt><trkpt lat="37.04977900270042" lon="14.79108573527189"><ele>570.0</ele><time>2026-04-15T11:26:05.999Z</time></trkpt><trkpt lat="37.04975006310513" lon="14.791171219778922"><ele>568.0</ele><time>2026-04-15T11:26:08.999Z</time></trkpt><trkpt lat="37.04978201424144" lon="14.791261261335821"><ele>566.0</ele><time>2026-04-15T11:26:49Z</time></trkpt><trkpt lat="37.049822816549536" lon="14.79133167583112"><ele>566.0</ele><time>2026-04-15T11:26:56Z</time></trkpt><trkpt lat="37.049858083228095" lon="14.791412522241577"><ele>566.0</ele><time>2026-04-15T11:27:04Z</time></trkpt><trkpt lat="37.049851382704716" lon="14.791501929869517"><ele>566.0</ele><time>2026-04-15T11:27:11Z</time></trkpt><trkpt lat="37.04989471726555" lon="14.791559171867496"><ele>566.0</ele><time>2026-04-15T11:28:12.999Z</time></trkpt><trkpt lat="37.04986276682736" lon="14.791486097594529"><ele>566.0</ele><time>2026-04-15T11:38:30.999Z</time></trkpt><trkpt lat="37.04982390877718" lon="14.791416642174235"><ele>566.0</ele><time>2026-04-15T11:38:37.999Z</time></trkpt><trkpt lat="37.049753946903785" lon="14.79134691771935"><ele>566.0</ele><time>2026-04-15T11:38:42.999Z</time></trkpt><trkpt lat="37.049735639005036" lon="14.791263322709336"><ele>566.0</ele><time>2026-04-15T11:38:53.999Z</time></trkpt><trkpt lat="37.049672104622886" lon="14.791294738277946"><ele>566.0</ele><time>2026-04-15T11:39:53Z</time></trkpt><trkpt lat="37.049607573974974" lon="14.791308657684768"><ele>566.0</ele><time>2026-04-15T11:39:55Z</time></trkpt><trkpt lat="37.04955783049863" lon="14.791253884598932"><ele>566.0</ele><time>2026-04-15T11:39:58Z</time></trkpt><trkpt lat="37.049510219454675" lon="14.791157459406332"><ele>566.0</ele><time>2026-04-15T11:40:01Z</time></trkpt><trkpt lat="37.04943441767485" lon="14.791115564888772"><ele>566.0</ele><time>2026-04-15T11:40:04Z</time></trkpt><trkpt lat="37.04939932381114" lon="14.791192481036038"><ele>566.0</ele><time>2026-04-15T11:40:05.999Z</time></trkpt><trkpt lat="37.04944163313754" lon="14.791292223709393"><ele>566.0</ele><time>2026-04-15T11:40:07.999Z</time></trkpt><trkpt lat="37.049487542287075" lon="14.791418743272505"><ele>566.0</ele><time>2026-04-15T11:40:09.999Z</time></trkpt><trkpt lat="37.049541694404944" lon="14.791541549685137"><ele>566.0</ele><time>2026-04-15T11:40:11.999Z</time></trkpt><trkpt lat="37.04957816821511" lon="14.791611187087515"><ele>566.0</ele><time>2026-04-15T11:40:12.999Z</time></trkpt><trkpt lat="37.04964155067376" lon="14.791736237362807"><ele>566.0</ele><time>2026-04-15T11:40:14.999Z</time></trkpt><trkpt lat="37.04969264801423" lon="14.791849471015261"><ele>564.3333333333333</ele><time>2026-04-15T11:40:16.999Z</time></trkpt><trkpt lat="37.04973564631761" lon="14.791918842574013"><ele>562.6666666666666</ele><time>2026-04-15T11:40:18.999Z</time></trkpt><trkpt lat="37.04968145868156" lon="14.791972547351303"><ele>561.0</ele><time>2026-04-15T11:40:21.999Z</time></trkpt><trkpt lat="37.049569903504164" lon="14.791987344957379"><ele>559.3333333333334</ele><time>2026-04-15T11:40:23.999Z</time></trkpt><trkpt lat="37.049484350538904" lon="14.79199455849636"><ele>557.6666666666667</ele><time>2026-04-15T11:40:25.999Z</time></trkpt><trkpt lat="37.04942018328694" lon="14.792000112813808"><ele>556.0</ele><time>2026-04-15T11:40:27.999Z</time></trkpt><trkpt lat="37.04932077512899" lon="14.792006612090647"><ele>556.0</ele><time>2026-04-15T11:40:29.999Z</time></trkpt><trkpt lat="37.04922887071312" lon="14.792032150609097"><ele>556.0</ele><time>2026-04-15T11:40:31.999Z</time></trkpt><trkpt lat="37.04914847446394" lon="14.792049550431145"><ele>556.0</ele><time>2026-04-15T11:40:33.999Z</time></trkpt><trkpt lat="37.04907773399736" lon="14.7920782794512"><ele>556.0</ele><time>2026-04-15T11:40:35.999Z</time></trkpt><trkpt lat="37.049008804584766" lon="14.792125067865813"><ele>556.0</ele><time>2026-04-15T11:40:38.999Z</time></trkpt><trkpt lat="37.049029320155675" lon="14.792261706621542"><ele>556.0</ele><time>2026-04-15T11:40:41.999Z</time></trkpt><trkpt lat="37.04905797013796" lon="14.792367590922433"><ele>554.0</ele><time>2026-04-15T11:40:43.999Z</time></trkpt><trkpt lat="37.04907532365067" lon="14.792452721916456"><ele>552.0</ele><time>2026-04-15T11:40:46.999Z</time></trkpt><trkpt lat="37.04909041748264" lon="14.792539736400851"><ele>550.0</ele><time>2026-04-15T11:40:49.999Z</time></trkpt><trkpt lat="37.04911291690089" lon="14.792644388357838"><ele>548.0</ele><time>2026-04-15T11:40:51.999Z</time></trkpt><trkpt lat="37.04915649412374" lon="14.792743157138917"><ele>546.0</ele><time>2026-04-15T11:40:53.999Z</time></trkpt><trkpt lat="37.04918844541973" lon="14.792816137619827"><ele>544.0</ele><time>2026-04-15T11:40:55.999Z</time></trkpt><trkpt lat="37.04918487613297" lon="14.792911337662979"><ele>544.0</ele><time>2026-04-15T11:40:58.999Z</time></trkpt><trkpt lat="37.04917525283555" lon="14.792999847450321"><ele>544.0</ele><time>2026-04-15T11:41:01.999Z</time></trkpt><trkpt lat="37.049258801902056" lon="14.792972147008019"><ele>544.0</ele><time>2026-04-15T11:41:04.999Z</time></trkpt><trkpt lat="37.04937635099971" lon="14.792922757474619"><ele>544.0</ele><time>2026-04-15T11:41:06.999Z</time></trkpt><trkpt lat="37.04949577857942" lon="14.79290055681031"><ele>544.0</ele><time>2026-04-15T11:41:08.998Z</time></trkpt><trkpt lat="37.04959111766087" lon="14.792884987379455"><ele>544.0</ele><time>2026-04-15T11:41:10.998Z</time></trkpt><trkpt lat="37.049683319425704" lon="14.79294346831359"><ele>544.0</ele><time>2026-04-15T11:41:14.998Z</time></trkpt><trkpt lat="37.04976383277044" lon="14.792920779726666"><ele>544.0</ele><time>2026-04-15T11:41:16.998Z</time></trkpt><trkpt lat="37.049878576031794" lon="14.79291873841589"><ele>544.0</ele><time>2026-04-15T11:41:17.998Z</time></trkpt><trkpt lat="37.04994906413658" lon="14.792898927955108"><ele>544.0</ele><time>2026-04-15T11:41:18.998Z</time></trkpt><trkpt lat="37.05004376581016" lon="14.792889693804215"><ele>544.0</ele><time>2026-04-15T11:41:20.998Z</time></trkpt><trkpt lat="37.0500272104294" lon="14.79296984686793"><ele>544.0</ele><time>2026-04-15T11:41:24Z</time></trkpt><trkpt lat="37.049896630149426" lon="14.79305102108104"><ele>544.0</ele><time>2026-04-15T11:41:26Z</time></trkpt><trkpt lat="37.0498066798649" lon="14.793091143040874"><ele>544.0</ele><time>2026-04-15T11:41:27Z</time></trkpt><trkpt lat="37.04972269347242" lon="14.793124286157225"><ele>544.0</ele><time>2026-04-15T11:41:28Z</time></trkpt><trkpt lat="37.04965034182175" lon="14.793154944609912"><ele>544.0</ele><time>2026-04-15T11:41:29Z</time></trkpt><trkpt lat="37.04953595176995" lon="14.793218594786302"><ele>544.0</ele><time>2026-04-15T11:41:31Z</time></trkpt><trkpt lat="37.0494522070222" lon="14.793221498910052"><ele>544.0</ele><time>2026-04-15T11:41:32Z</time></trkpt><trkpt lat="37.049346487137996" lon="14.79326039258105"><ele>544.0</ele><time>2026-04-15T11:41:33Z</time></trkpt><trkpt lat="37.04924447316435" lon="14.793282262575538"><ele>544.0</ele><time>2026-04-15T11:41:34Z</time></trkpt><trkpt lat="37.049150787937386" lon="14.793299755430775"><ele>541.6</ele><time>2026-04-15T11:41:35Z</time></trkpt><trkpt lat="37.04905857424279" lon="14.79333519435453"><ele>539.2</ele><time>2026-04-15T11:41:36Z</time></trkpt><trkpt lat="37.04896561006527" lon="14.793358266282912"><ele>536.8000000000001</ele><time>2026-04-15T11:41:37Z</time></trkpt><trkpt lat="37.04886407426946" lon="14.793390617489804"><ele>534.4</ele><time>2026-04-15T11:41:38Z</time></trkpt><trkpt lat="37.048764888604005" lon="14.793408714901958"><ele>532.0</ele><time>2026-04-15T11:41:39Z</time></trkpt><trkpt lat="37.04866835602172" lon="14.793428714189451"><ele>532.0</ele><time>2026-04-15T11:41:40Z</time></trkpt><trkpt lat="37.048570482007015" lon="14.793454707078567"><ele>532.0</ele><time>2026-04-15T11:41:41Z</time></trkpt><trkpt lat="37.04848114647544" lon="14.793490358110974"><ele>532.0</ele><time>2026-04-15T11:41:42Z</time></trkpt><trkpt lat="37.04838544378074" lon="14.793516491135984"><ele>532.0</ele><time>2026-04-15T11:41:43Z</time></trkpt><trkpt lat="37.048292097540674" lon="14.793535813260728"><ele>532.0</ele><time>2026-04-15T11:41:44Z</time></trkpt><trkpt lat="37.04819958980995" lon="14.793560181203132"><ele>530.1666666666667</ele><time>2026-04-15T11:41:45Z</time></trkpt><trkpt lat="37.04811015988305" lon="14.79358825091409"><ele>528.3333333333334</ele><time>2026-04-15T11:41:46Z</time></trkpt><trkpt lat="37.048020835826264" lon="14.793617755024695"><ele>526.5</ele><time>2026-04-15T11:41:47Z</time></trkpt><trkpt lat="37.04794296081734" lon="14.793638588576998"><ele>524.6666666666666</ele><time>2026-04-15T11:41:48Z</time></trkpt><trkpt lat="37.04787518484695" lon="14.793646545334685"><ele>522.8333333333333</ele><time>2026-04-15T11:41:49Z</time></trkpt><trkpt lat="37.04779974091889" lon="14.793677356738332"><ele>521.0</ele><time>2026-04-15T11:41:51Z</time></trkpt><trkpt lat="37.04773418446225" lon="14.793689908018619"><ele>521.0</ele><time>2026-04-15T11:41:54Z</time></trkpt><trkpt lat="37.047580826651085" lon="14.793728396499853"><ele>521.0</ele><time>2026-04-15T11:41:56Z</time></trkpt><trkpt lat="37.04747840978112" lon="14.793755877290552"><ele>521.0</ele><time>2026-04-15T11:41:57Z</time></trkpt><trkpt lat="37.0473836085537" lon="14.793794530064053"><ele>521.0</ele><time>2026-04-15T11:41:58Z</time></trkpt><trkpt lat="37.047274957002045" lon="14.793827306438175"><ele>519.75</ele><time>2026-04-15T11:41:59Z</time></trkpt><trkpt lat="37.04716366986704" lon="14.793861042151823"><ele>518.5</ele><time>2026-04-15T11:42:00Z</time></trkpt><trkpt lat="37.04704992730144" lon="14.793880917170753"><ele>517.25</ele><time>2026-04-15T11:42:01Z</time></trkpt><trkpt lat="37.04693507572408" lon="14.793906611998686"><ele>516.0</ele><time>2026-04-15T11:42:02Z</time></trkpt><trkpt lat="37.046830582780814" lon="14.793948968526637"><ele>516.0</ele><time>2026-04-15T11:42:02.999Z</time></trkpt><trkpt lat="37.04672688858589" lon="14.793982481048394"><ele>516.0</ele><time>2026-04-15T11:42:03.999Z</time></trkpt><trkpt lat="37.0466276580645" lon="14.794019837294101"><ele>516.0</ele><time>2026-04-15T11:42:04.999Z</time></trkpt><trkpt lat="37.04652912114838" lon="14.794034322672605"><ele>516.0</ele><time>2026-04-15T11:42:05.999Z</time></trkpt><trkpt lat="37.046430803665494" lon="14.794049711599854"><ele>516.0</ele><time>2026-04-15T11:42:06.999Z</time></trkpt><trkpt lat="37.04633967432967" lon="14.794073472414967"><ele>515.3333333333334</ele><time>2026-04-15T11:42:07.999Z</time></trkpt><trkpt lat="37.04625493665034" lon="14.794102265122635"><ele>514.6666666666666</ele><time>2026-04-15T11:42:08.999Z</time></trkpt><trkpt lat="37.04617176202056" lon="14.79413062933532"><ele>514.0</ele><time>2026-04-15T11:42:09.999Z</time></trkpt><trkpt lat="37.04609077880852" lon="14.794154741655179"><ele>513.3333333333333</ele><time>2026-04-15T11:42:10.999Z</time></trkpt><trkpt lat="37.04601236293445" lon="14.794177864254314"><ele>512.6666666666666</ele><time>2026-04-15T11:42:11.999Z</time></trkpt><trkpt lat="37.04593540404419" lon="14.794199899765589"><ele>512.0</ele><time>2026-04-15T11:42:12.999Z</time></trkpt><trkpt lat="37.045865745004846" lon="14.794219032989409"><ele>511.66666666666663</ele><time>2026-04-15T11:42:13.999Z</time></trkpt><trkpt lat="37.0457672440806" lon="14.794241620294684"><ele>511.3333333333333</ele><time>2026-04-15T11:42:15.999Z</time></trkpt><trkpt lat="37.04571074810457" lon="14.794280257736183"><ele>511.0</ele><time>2026-04-15T11:42:17.999Z</time></trkpt><trkpt lat="37.04565514274401" lon="14.794243186802973"><ele>510.66666666666663</ele><time>2026-04-15T11:45:52Z</time></trkpt><trkpt lat="37.04553876333632" lon="14.794225354289445"><ele>510.3333333333333</ele><time>2026-04-15T11:45:54Z</time></trkpt><trkpt lat="37.045460844937026" lon="14.794252034457921"><ele>510.0</ele><time>2026-04-15T11:45:55Z</time></trkpt><trkpt lat="37.04538449227663" lon="14.794289722056327"><ele>510.0</ele><time>2026-04-15T11:45:56Z</time></trkpt><trkpt lat="37.04530994504876" lon="14.794317026687775"><ele>510.0</ele><time>2026-04-15T11:45:57Z</time></trkpt><trkpt lat="37.04524471838596" lon="14.79433483204282"><ele>510.0</ele><time>2026-04-15T11:45:58Z</time></trkpt><trkpt lat="37.0451778275689" lon="14.794353134657305"><ele>510.0</ele><time>2026-04-15T11:45:59Z</time></trkpt><trkpt lat="37.045093697357" lon="14.794375705170777"><ele>510.0</ele><time>2026-04-15T11:46:00Z</time></trkpt><trkpt lat="37.04498962077472" lon="14.794406287485714"><ele>510.0</ele><time>2026-04-15T11:46:01Z</time></trkpt><trkpt lat="37.044888552454424" lon="14.794439454242587"><ele>508.0</ele><time>2026-04-15T11:46:02Z</time></trkpt><trkpt lat="37.04478424176594" lon="14.794479274990799"><ele>506.0</ele><time>2026-04-15T11:46:03Z</time></trkpt><trkpt lat="37.044659553249836" lon="14.794506734273183"><ele>504.0</ele><time>2026-04-15T11:46:04Z</time></trkpt><trkpt lat="37.044506373978145" lon="14.79454676708643"><ele>502.0</ele><time>2026-04-15T11:46:05Z</time></trkpt><trkpt lat="37.04436196649576" lon="14.794595394063982"><ele>502.0</ele><time>2026-04-15T11:46:06Z</time></trkpt><trkpt lat="37.044195935816866" lon="14.794636299926667"><ele>502.0</ele><time>2026-04-15T11:46:07Z</time></trkpt><trkpt lat="37.04402969962663" lon="14.794685937425953"><ele>502.0</ele><time>2026-04-15T11:46:08Z</time></trkpt><trkpt lat="37.04385390809503" lon="14.794739908570314"><ele>499.33333333333337</ele><time>2026-04-15T11:46:09Z</time></trkpt><trkpt lat="37.043667856830204" lon="14.794792073485425"><ele>496.66666666666663</ele><time>2026-04-15T11:46:10Z</time></trkpt><trkpt lat="37.0434634424786" lon="14.794844583220451"><ele>494.0</ele><time>2026-04-15T11:46:11Z</time></trkpt><trkpt lat="37.043265609054906" lon="14.794893885206672"><ele>493.0</ele><time>2026-04-15T11:46:12Z</time></trkpt><trkpt lat="37.04307465687914" lon="14.794947900195412"><ele>492.0</ele><time>2026-04-15T11:46:12.999Z</time></trkpt><trkpt lat="37.04288684805726" lon="14.795001038380269"><ele>491.0</ele><time>2026-04-15T11:46:13.999Z</time></trkpt><trkpt lat="37.04270443342685" lon="14.79505489525351"><ele>491.0</ele><time>2026-04-15T11:46:14.999Z</time></trkpt><trkpt lat="37.042525293791726" lon="14.795101529485125"><ele>491.0</ele><time>2026-04-15T11:46:15.999Z</time></trkpt><trkpt lat="37.0423534368012" lon="14.795147500075245"><ele>491.0</ele><time>2026-04-15T11:46:16.999Z</time></trkpt><trkpt lat="37.04218560340591" lon="14.795195659774622"><ele>487.66666666666663</ele><time>2026-04-15T11:46:17.999Z</time></trkpt><trkpt lat="37.04202194191574" lon="14.795235095793288"><ele>484.33333333333337</ele><time>2026-04-15T11:46:18.999Z</time></trkpt><trkpt lat="37.04185232954775" lon="14.795239188356684"><ele>481.0</ele><time>2026-04-15T11:46:19.999Z</time></trkpt><trkpt lat="37.041670017085586" lon="14.795193275704744"><ele>479.6666666666667</ele><time>2026-04-15T11:46:20.999Z</time></trkpt><trkpt lat="37.04147542822478" lon="14.79513833745009"><ele>478.33333333333337</ele><time>2026-04-15T11:46:21.999Z</time></trkpt><trkpt lat="37.04126357146347" lon="14.795088410618117"><ele>477.0</ele><time>2026-04-15T11:46:22.999Z</time></trkpt><trkpt lat="37.041035384785204" lon="14.795028558082361"><ele>477.0</ele><time>2026-04-15T11:46:23.999Z</time></trkpt><trkpt lat="37.04082438053912" lon="14.794964620703308"><ele>477.0</ele><time>2026-04-15T11:46:24.999Z</time></trkpt><trkpt lat="37.04059470648735" lon="14.794903156992278"><ele>475.0</ele><time>2026-04-15T11:46:25.999Z</time></trkpt><trkpt lat="37.040360836379605" lon="14.794838699299058"><ele>473.0</ele><time>2026-04-15T11:46:26.999Z</time></trkpt><trkpt lat="37.040123714286096" lon="14.794772968271984"><ele>471.0</ele><time>2026-04-15T11:46:27.999Z</time></trkpt><trkpt lat="37.03988681526555" lon="14.794708984883233"><ele>469.0</ele><time>2026-04-15T11:46:28.999Z</time></trkpt><trkpt lat="37.039658070631745" lon="14.794647097008982"><ele>469.0</ele><time>2026-04-15T11:46:29.999Z</time></trkpt><trkpt lat="37.039435643120314" lon="14.794590904604634"><ele>469.0</ele><time>2026-04-15T11:46:30.999Z</time></trkpt><trkpt lat="37.039229342623706" lon="14.79453880288629"><ele>469.0</ele><time>2026-04-15T11:46:31.999Z</time></trkpt><trkpt lat="37.03904152174209" lon="14.794493242513937"><ele>469.0</ele><time>2026-04-15T11:46:32.999Z</time></trkpt><trkpt lat="37.03889640097602" lon="14.794474473214073"><ele>469.0</ele><time>2026-04-15T11:46:33.999Z</time></trkpt><trkpt lat="37.038785475620905" lon="14.794503399013182"><ele>469.0</ele><time>2026-04-15T11:46:34.999Z</time></trkpt><trkpt lat="37.03868588286063" lon="14.794582482807593"><ele>469.0</ele><time>2026-04-15T11:46:35.999Z</time></trkpt><trkpt lat="37.03861345276261" lon="14.794702627528519"><ele>469.0</ele><time>2026-04-15T11:46:36.999Z</time></trkpt><trkpt lat="37.038567512722345" lon="14.794859050024442"><ele>469.0</ele><time>2026-04-15T11:46:37.999Z</time></trkpt><trkpt lat="37.03853280847676" lon="14.795034509698839"><ele>469.0</ele><time>2026-04-15T11:46:38.999Z</time></trkpt><trkpt lat="37.038490488067715" lon="14.795185934921363"><ele>469.0</ele><time>2026-04-15T11:46:39.999Z</time></trkpt><trkpt lat="37.03845961202525" lon="14.795332542910666"><ele>469.5</ele><time>2026-04-15T11:46:40.999Z</time></trkpt><trkpt lat="37.03842132033257" lon="14.795482841479235"><ele>470.0</ele><time>2026-04-15T11:46:41.999Z</time></trkpt><trkpt lat="37.03836862793359" lon="14.795640622237462"><ele>470.5</ele><time>2026-04-15T11:46:42.999Z</time></trkpt><trkpt lat="37.038324501198005" lon="14.795807524920315"><ele>471.0</ele><time>2026-04-15T11:46:43.999Z</time></trkpt><trkpt lat="37.03827610447763" lon="14.795959829246948"><ele>471.4</ele><time>2026-04-15T11:46:44.999Z</time></trkpt><trkpt lat="37.03821732834556" lon="14.79608710836474"><ele>471.8</ele><time>2026-04-15T11:46:45.999Z</time></trkpt><trkpt lat="37.038145397200374" lon="14.796192085255305"><ele>472.19999999999993</ele><time>2026-04-15T11:46:46.999Z</time></trkpt><trkpt lat="37.038063563313514" lon="14.796275018592501"><ele>472.59999999999997</ele><time>2026-04-15T11:46:47.999Z</time></trkpt><trkpt lat="37.037981757018905" lon="14.796355202170467"><ele>473.0</ele><time>2026-04-15T11:46:48.999Z</time></trkpt><trkpt lat="37.037893923459144" lon="14.796450176859528"><ele>473.0</ele><time>2026-04-15T11:46:49.999Z</time></trkpt><trkpt lat="37.0377974218249" lon="14.796558159512001"><ele>473.0</ele><time>2026-04-15T11:46:50.999Z</time></trkpt><trkpt lat="37.03769190622557" lon="14.796679126261736"><ele>473.0</ele><time>2026-04-15T11:46:51.999Z</time></trkpt><trkpt lat="37.037566686110615" lon="14.796817781716767"><ele>473.0</ele><time>2026-04-15T11:46:52.999Z</time></trkpt><trkpt lat="37.0374231012392" lon="14.796969576666616"><ele>473.66666666666663</ele><time>2026-04-15T11:46:53.999Z</time></trkpt><trkpt lat="37.03726002602213" lon="14.797116349227563"><ele>474.33333333333337</ele><time>2026-04-15T11:46:54.999Z</time></trkpt><trkpt lat="37.03708846936953" lon="14.797231957480687"><ele>475.0</ele><time>2026-04-15T11:46:55.999Z</time></trkpt><trkpt lat="37.03690377762866" lon="14.797335391169375"><ele>475.0</ele><time>2026-04-15T11:46:56.999Z</time></trkpt><trkpt lat="37.03672002325315" lon="14.79745940501186"><ele>475.0</ele><time>2026-04-15T11:46:57.999Z</time></trkpt><trkpt lat="37.0365553882382" lon="14.797596626774832"><ele>475.0</ele><time>2026-04-15T11:46:58.999Z</time></trkpt><trkpt lat="37.036405251081234" lon="14.797727756067099"><ele>475.0</ele><time>2026-04-15T11:46:59.999Z</time></trkpt><trkpt lat="37.036273980328176" lon="14.79786441333786"><ele>475.0</ele><time>2026-04-15T11:47:00.999Z</time></trkpt><trkpt lat="37.036174596837206" lon="14.798019448332155"><ele>475.0</ele><time>2026-04-15T11:47:01.999Z</time></trkpt><trkpt lat="37.03611352714104" lon="14.798195948147875"><ele>475.0</ele><time>2026-04-15T11:47:02.999Z</time></trkpt><trkpt lat="37.0360899590741" lon="14.798376551410872"><ele>475.0</ele><time>2026-04-15T11:47:03.999Z</time></trkpt><trkpt lat="37.03605598941504" lon="14.798544061917895"><ele>475.0</ele><time>2026-04-15T11:47:04.999Z</time></trkpt><trkpt lat="37.03596966893075" lon="14.798684285789074"><ele>475.0</ele><time>2026-04-15T11:47:05.999Z</time></trkpt><trkpt lat="37.035854592492285" lon="14.798798378788021"><ele>476.0</ele><time>2026-04-15T11:47:06.999Z</time></trkpt><trkpt lat="37.035738400086" lon="14.798921084900769"><ele>477.0</ele><time>2026-04-15T11:47:07.999Z</time></trkpt><trkpt lat="37.035641500781246" lon="14.799070332400156"><ele>478.0</ele><time>2026-04-15T11:47:08.999Z</time></trkpt><trkpt lat="37.03556217792339" lon="14.79925026792347"><ele>480.0</ele><time>2026-04-15T11:47:09.999Z</time></trkpt><trkpt lat="37.03546415101411" lon="14.79941989325726"><ele>482.0</ele><time>2026-04-15T11:47:10.999Z</time></trkpt><trkpt lat="37.03533834705612" lon="14.799562616486204"><ele>484.0</ele><time>2026-04-15T11:47:11.999Z</time></trkpt><trkpt lat="37.035182439329695" lon="14.79970111183585"><ele>484.0</ele><time>2026-04-15T11:47:12.999Z</time></trkpt><trkpt lat="37.03500174616226" lon="14.79983505877634"><ele>484.0</ele><time>2026-04-15T11:47:13.999Z</time></trkpt><trkpt lat="37.034827090148696" lon="14.799969978950202"><ele>484.0</ele><time>2026-04-15T11:47:14.999Z</time></trkpt><trkpt lat="37.034667232100105" lon="14.800100414241388"><ele>485.33333333333337</ele><time>2026-04-15T11:47:15.999Z</time></trkpt><trkpt lat="37.03450667536217" lon="14.80023479755027"><ele>486.66666666666663</ele><time>2026-04-15T11:47:16.999Z</time></trkpt><trkpt lat="37.034355329490694" lon="14.800359120163174"><ele>488.0</ele><time>2026-04-15T11:47:17.999Z</time></trkpt><trkpt lat="37.03421193175851" lon="14.800467497133432"><ele>487.0</ele><time>2026-04-15T11:47:18.999Z</time></trkpt><trkpt lat="37.03405438147531" lon="14.800545334172135"><ele>486.0</ele><time>2026-04-15T11:47:19.999Z</time></trkpt><trkpt lat="37.033882059287485" lon="14.800586268453388"><ele>485.0</ele><time>2026-04-15T11:47:20.999Z</time></trkpt><trkpt lat="37.03371356899764" lon="14.80062701661052"><ele>485.0</ele><time>2026-04-15T11:47:21.999Z</time></trkpt><trkpt lat="37.0335601128595" lon="14.80072053019842"><ele>485.0</ele><time>2026-04-15T11:47:22.999Z</time></trkpt><trkpt lat="37.03342986979438" lon="14.800860002130175"><ele>485.0</ele><time>2026-04-15T11:47:23.999Z</time></trkpt><trkpt lat="37.03333275334097" lon="14.801023626148242"><ele>484.5</ele><time>2026-04-15T11:47:24.999Z</time></trkpt><trkpt lat="37.033279280111294" lon="14.801197642235236"><ele>484.0</ele><time>2026-04-15T11:47:25.999Z</time></trkpt><trkpt lat="37.0332722570444" lon="14.801373256831535"><ele>483.5</ele><time>2026-04-15T11:47:26.999Z</time></trkpt><trkpt lat="37.0333026924456" lon="14.80155216412534"><ele>483.0</ele><time>2026-04-15T11:47:27.999Z</time></trkpt><trkpt lat="37.03332435346484" lon="14.801734159715037"><ele>484.25</ele><time>2026-04-15T11:47:28.999Z</time></trkpt><trkpt lat="37.033316740428866" lon="14.80189985139119"><ele>485.5</ele><time>2026-04-15T11:47:29.998Z</time></trkpt><trkpt lat="37.03328022089276" lon="14.80205723514993"><ele>486.75</ele><time>2026-04-15T11:47:30.998Z</time></trkpt><trkpt lat="37.033199650355286" lon="14.802196855373117"><ele>488.0</ele><time>2026-04-15T11:47:31.998Z</time></trkpt><trkpt lat="37.03308842060949" lon="14.802335240020337"><ele>488.0</ele><time>2026-04-15T11:47:32.998Z</time></trkpt><trkpt lat="37.03298827019032" lon="14.802495716005783"><ele>488.0</ele><time>2026-04-15T11:47:33.998Z</time></trkpt><trkpt lat="37.03292070946588" lon="14.802672896994421"><ele>488.0</ele><time>2026-04-15T11:47:34.998Z</time></trkpt><trkpt lat="37.03286413317247" lon="14.802846725121338"><ele>488.3333333333333</ele><time>2026-04-15T11:47:35.998Z</time></trkpt><trkpt lat="37.03277717395426" lon="14.80301980067041"><ele>488.66666666666663</ele><time>2026-04-15T11:47:36.998Z</time></trkpt><trkpt lat="37.03264479773958" lon="14.803177176958515"><ele>489.0</ele><time>2026-04-15T11:47:37.998Z</time></trkpt><trkpt lat="37.03249788437487" lon="14.803347550389839"><ele>489.66666666666663</ele><time>2026-04-15T11:47:38.998Z</time></trkpt><trkpt lat="37.03234240524727" lon="14.803528657944517"><ele>490.3333333333333</ele><time>2026-04-15T11:47:39.999Z</time></trkpt><trkpt lat="37.03218944996762" lon="14.803694267769032"><ele>491.0</ele><time>2026-04-15T11:47:40.999Z</time></trkpt><trkpt lat="37.03204505622944" lon="14.80383522031466"><ele>491.0</ele><time>2026-04-15T11:47:41.999Z</time></trkpt><trkpt lat="37.03189855496812" lon="14.803927166004717"><ele>491.0</ele><time>2026-04-15T11:47:42.999Z</time></trkpt><trkpt lat="37.031728377177295" lon="14.803979988951976"><ele>491.0</ele><time>2026-04-15T11:47:43.999Z</time></trkpt><trkpt lat="37.03153570148456" lon="14.804008297277306"><ele>491.3333333333333</ele><time>2026-04-15T11:47:44.999Z</time></trkpt><trkpt lat="37.031361641517435" lon="14.804045319314987"><ele>491.66666666666663</ele><time>2026-04-15T11:47:45.999Z</time></trkpt><trkpt lat="37.03119326211787" lon="14.804155928752541"><ele>492.0</ele><time>2026-04-15T11:47:46.999Z</time></trkpt><trkpt lat="37.03103964775848" lon="14.804310012712062"><ele>494.0</ele><time>2026-04-15T11:47:47.999Z</time></trkpt><trkpt lat="37.03089177910584" lon="14.804439530591353"><ele>496.0</ele><time>2026-04-15T11:47:48.999Z</time></trkpt><trkpt lat="37.0307159898009" lon="14.804518380831164"><ele>498.0</ele><time>2026-04-15T11:47:49.999Z</time></trkpt><trkpt lat="37.03051567425816" lon="14.804577714141473"><ele>498.66666666666663</ele><time>2026-04-15T11:47:50.999Z</time></trkpt><trkpt lat="37.03030535262604" lon="14.804602825310253"><ele>499.3333333333333</ele><time>2026-04-15T11:47:51.999Z</time></trkpt><trkpt lat="37.03008264664342" lon="14.804592173830812"><ele>500.0</ele><time>2026-04-15T11:47:52.999Z</time></trkpt><trkpt lat="37.029859491819934" lon="14.804601104817525"><ele>502.0</ele><time>2026-04-15T11:47:53.999Z</time></trkpt><trkpt lat="37.029646957590764" lon="14.804671168572506"><ele>504.0</ele><time>2026-04-15T11:47:54.999Z</time></trkpt><trkpt lat="37.02945126362601" lon="14.804726947104765"><ele>506.0</ele><time>2026-04-15T11:47:55.999Z</time></trkpt><trkpt lat="37.02928266085325" lon="14.804752422699023"><ele>507.0</ele><time>2026-04-15T11:47:56.999Z</time></trkpt><trkpt lat="37.02912704066339" lon="14.804753555538738"><ele>508.0</ele><time>2026-04-15T11:47:57.999Z</time></trkpt><trkpt lat="37.02895748694115" lon="14.804705325654385"><ele>509.0</ele><time>2026-04-15T11:47:58.999Z</time></trkpt><trkpt lat="37.02878932660449" lon="14.804647504267544"><ele>509.0</ele><time>2026-04-15T11:47:59.999Z</time></trkpt><trkpt lat="37.02861383324231" lon="14.804636630334006"><ele>509.0</ele><time>2026-04-15T11:48:00.999Z</time></trkpt><trkpt lat="37.0284258408167" lon="14.804656159979292"><ele>509.0</ele><time>2026-04-15T11:48:01.999Z</time></trkpt><trkpt lat="37.02824907917654" lon="14.804681205414084"><ele>507.66666666666663</ele><time>2026-04-15T11:48:02.999Z</time></trkpt><trkpt lat="37.028097974245505" lon="14.80474318080191"><ele>506.33333333333337</ele><time>2026-04-15T11:48:03.999Z</time></trkpt><trkpt lat="37.027959028505904" lon="14.804855907070154"><ele>505.0</ele><time>2026-04-15T11:48:04.999Z</time></trkpt><trkpt lat="37.02784110370455" lon="14.804985284882067"><ele>505.0</ele><time>2026-04-15T11:48:05.999Z</time></trkpt><trkpt lat="37.02776125229549" lon="14.805136832702075"><ele>505.0</ele><time>2026-04-15T11:48:06.999Z</time></trkpt><trkpt lat="37.027719078233126" lon="14.805298761910741"><ele>505.0</ele><time>2026-04-15T11:48:07.999Z</time></trkpt><trkpt lat="37.02766336083776" lon="14.805433032662032"><ele>505.0</ele><time>2026-04-15T11:48:08.999Z</time></trkpt><trkpt lat="37.027562624436214" lon="14.805507863178562"><ele>509.25</ele><time>2026-04-15T11:48:09.999Z</time></trkpt><trkpt lat="37.02744912266772" lon="14.805522668182153"><ele>513.5</ele><time>2026-04-15T11:48:10.999Z</time></trkpt><trkpt lat="37.02732450351028" lon="14.805498029559871"><ele>517.75</ele><time>2026-04-15T11:48:11.999Z</time></trkpt><trkpt lat="37.02718267241286" lon="14.805479724015202"><ele>522.0</ele><time>2026-04-15T11:48:12.999Z</time></trkpt><trkpt lat="37.02701831113183" lon="14.80550142690497"><ele>522.0</ele><time>2026-04-15T11:48:13.999Z</time></trkpt><trkpt lat="37.026854017435596" lon="14.805537001455143"><ele>522.0</ele><time>2026-04-15T11:48:14.999Z</time></trkpt><trkpt lat="37.02668211340516" lon="14.8055576484233"><ele>522.0</ele><time>2026-04-15T11:48:15.999Z</time></trkpt><trkpt lat="37.02650394604957" lon="14.805580501511784"><ele>519.6666666666666</ele><time>2026-04-15T11:48:16.999Z</time></trkpt><trkpt lat="37.02632801021357" lon="14.805622708310814"><ele>517.3333333333333</ele><time>2026-04-15T11:48:17.999Z</time></trkpt><trkpt lat="37.02616965992631" lon="14.805713272699037"><ele>515.0</ele><time>2026-04-15T11:48:18.999Z</time></trkpt><trkpt lat="37.02602756302735" lon="14.805842158995576"><ele>515.0</ele><time>2026-04-15T11:48:19.999Z</time></trkpt><trkpt lat="37.02588626439346" lon="14.805964235283694"><ele>515.0</ele><time>2026-04-15T11:48:20.999Z</time></trkpt><trkpt lat="37.02576633120356" lon="14.806084767482448"><ele>515.0</ele><time>2026-04-15T11:48:21.999Z</time></trkpt><trkpt lat="37.0256985201668" lon="14.80624224219181"><ele>516.25</ele><time>2026-04-15T11:48:22.999Z</time></trkpt><trkpt lat="37.025655123282476" lon="14.806405677092819"><ele>517.5</ele><time>2026-04-15T11:48:23.999Z</time></trkpt><trkpt lat="37.025585776139" lon="14.80654327146845"><ele>518.75</ele><time>2026-04-15T11:48:24.999Z</time></trkpt><trkpt lat="37.0254791827666" lon="14.806628294052198"><ele>520.0</ele><time>2026-04-15T11:48:25.999Z</time></trkpt><trkpt lat="37.025358530155515" lon="14.80665654344191"><ele>520.0</ele><time>2026-04-15T11:48:26.999Z</time></trkpt><trkpt lat="37.02523290453897" lon="14.806650366970327"><ele>520.0</ele><time>2026-04-15T11:48:27.999Z</time></trkpt><trkpt lat="37.025104923514576" lon="14.806672018561688"><ele>520.0</ele><time>2026-04-15T11:48:28.999Z</time></trkpt><trkpt lat="37.02499160461143" lon="14.806774911652393"><ele>520.0</ele><time>2026-04-15T11:48:29.999Z</time></trkpt><trkpt lat="37.024894259864695" lon="14.806922732827358"><ele>522.0</ele><time>2026-04-15T11:48:30.999Z</time></trkpt><trkpt lat="37.024815696149744" lon="14.807097735167767"><ele>524.0</ele><time>2026-04-15T11:48:31.999Z</time></trkpt><trkpt lat="37.0247378396922" lon="14.807292230243762"><ele>526.0</ele><time>2026-04-15T11:48:32.999Z</time></trkpt><trkpt lat="37.02464111095127" lon="14.807500801013239"><ele>530.3333333333334</ele><time>2026-04-15T11:48:33.999Z</time></trkpt><trkpt lat="37.024523423017165" lon="14.807708671649046"><ele>534.6666666666666</ele><time>2026-04-15T11:48:34.999Z</time></trkpt><trkpt lat="37.02439934150291" lon="14.807927274912787"><ele>539.0</ele><time>2026-04-15T11:48:35.999Z</time></trkpt><trkpt lat="37.02427299894003" lon="14.808158140995861"><ele>539.0</ele><time>2026-04-15T11:48:36.999Z</time></trkpt><trkpt lat="37.024156216825205" lon="14.808382832289686"><ele>539.0</ele><time>2026-04-15T11:48:37.999Z</time></trkpt><trkpt lat="37.02405071634742" lon="14.808595966655144"><ele>539.0</ele><time>2026-04-15T11:48:38.999Z</time></trkpt><trkpt lat="37.02394197257083" lon="14.80878599862046"><ele>543.3333333333333</ele><time>2026-04-15T11:48:39.999Z</time></trkpt><trkpt lat="37.02381514852493" lon="14.80893518332052"><ele>547.6666666666666</ele><time>2026-04-15T11:48:40.999Z</time></trkpt><trkpt lat="37.023706231667354" lon="14.809088886417586"><ele>552.0</ele><time>2026-04-15T11:48:41.999Z</time></trkpt><trkpt lat="37.02362364658266" lon="14.809273467343493"><ele>550.6666666666666</ele><time>2026-04-15T11:48:42.999Z</time></trkpt><trkpt lat="37.023564718132675" lon="14.809500643123286"><ele>549.3333333333333</ele><time>2026-04-15T11:48:43.999Z</time></trkpt><trkpt lat="37.02351687437833" lon="14.809708688721004"><ele>548.0</ele><time>2026-04-15T11:48:44.999Z</time></trkpt><trkpt lat="37.02346196761068" lon="14.80989005415523"><ele>548.0</ele><time>2026-04-15T11:48:45.999Z</time></trkpt><trkpt lat="37.0233871909207" lon="14.810053168355733"><ele>548.0</ele><time>2026-04-15T11:48:46.999Z</time></trkpt><trkpt lat="37.023291392148224" lon="14.810209371674942"><ele>548.0</ele><time>2026-04-15T11:48:47.999Z</time></trkpt><trkpt lat="37.02317407919668" lon="14.810361002733394"><ele>545.25</ele><time>2026-04-15T11:48:48.999Z</time></trkpt><trkpt lat="37.023053778378795" lon="14.810477325870878"><ele>542.5</ele><time>2026-04-15T11:48:49.999Z</time></trkpt><trkpt lat="37.022924575826735" lon="14.81055755432435"><ele>539.75</ele><time>2026-04-15T11:48:50.999Z</time></trkpt><trkpt lat="37.02279486869313" lon="14.810600254578565"><ele>537.0</ele><time>2026-04-15T11:48:51.999Z</time></trkpt><trkpt lat="37.02265637852569" lon="14.81062346255563"><ele>537.0</ele><time>2026-04-15T11:48:52.999Z</time></trkpt><trkpt lat="37.02251622754618" lon="14.810634509104322"><ele>537.0</ele><time>2026-04-15T11:48:53.999Z</time></trkpt><trkpt lat="37.02236224387306" lon="14.810646548836221"><ele>537.0</ele><time>2026-04-15T11:48:54.999Z</time></trkpt><trkpt lat="37.02218128982546" lon="14.810673073762212"><ele>535.3333333333334</ele><time>2026-04-15T11:48:55.999Z</time></trkpt><trkpt lat="37.02200506077177" lon="14.81069650369762"><ele>533.6666666666667</ele><time>2026-04-15T11:48:56.999Z</time></trkpt><trkpt lat="37.02182967567663" lon="14.810704600839715"><ele>532.0</ele><time>2026-04-15T11:48:57.999Z</time></trkpt><trkpt lat="37.021645106099534" lon="14.810690310512822"><ele>529.6666666666667</ele><time>2026-04-15T11:48:58.999Z</time></trkpt><trkpt lat="37.02143494959404" lon="14.810645953869736"><ele>527.3333333333334</ele><time>2026-04-15T11:48:59.999Z</time></trkpt><trkpt lat="37.021222600257424" lon="14.810580217665764"><ele>525.0</ele><time>2026-04-15T11:49:00.999Z</time></trkpt><trkpt lat="37.02100987804655" lon="14.810517915282396"><ele>524.0</ele><time>2026-04-15T11:49:01.999Z</time></trkpt><trkpt lat="37.02079263778266" lon="14.810478655665099"><ele>523.0</ele><time>2026-04-15T11:49:02.999Z</time></trkpt><trkpt lat="37.0205715198619" lon="14.81047210011017"><ele>522.0</ele><time>2026-04-15T11:49:03.999Z</time></trkpt><trkpt lat="37.020340179396364" lon="14.810490342351502"><ele>522.0</ele><time>2026-04-15T11:49:04.999Z</time></trkpt><trkpt lat="37.020107922520715" lon="14.810526938478208"><ele>522.0</ele><time>2026-04-15T11:49:05.999Z</time></trkpt><trkpt lat="37.01988725508625" lon="14.810568748406242"><ele>522.0</ele><time>2026-04-15T11:49:06.999Z</time></trkpt><trkpt lat="37.01967737642705" lon="14.810592985799273"><ele>522.0</ele><time>2026-04-15T11:49:07.999Z</time></trkpt><trkpt lat="37.019479775772275" lon="14.810586832210115"><ele>522.0</ele><time>2026-04-15T11:49:08.999Z</time></trkpt><trkpt lat="37.019285568832274" lon="14.810557020202637"><ele>521.6666666666666</ele><time>2026-04-15T11:49:09.999Z</time></trkpt><trkpt lat="37.019097285540894" lon="14.810510272379203"><ele>521.3333333333333</ele><time>2026-04-15T11:49:10.999Z</time></trkpt><trkpt lat="37.01890942615652" lon="14.81047044778773"><ele>521.0</ele><time>2026-04-15T11:49:11.999Z</time></trkpt><trkpt lat="37.01871285439532" lon="14.810461790464483"><ele>521.0</ele><time>2026-04-15T11:49:12.999Z</time></trkpt><trkpt lat="37.018512689349045" lon="14.81047023134694"><ele>521.0</ele><time>2026-04-15T11:49:13.999Z</time></trkpt><trkpt lat="37.01832146385942" lon="14.810473775955648"><ele>521.0</ele><time>2026-04-15T11:49:14.999Z</time></trkpt><trkpt lat="37.01813985968866" lon="14.810466547157146"><ele>520.0</ele><time>2026-04-15T11:49:15.999Z</time></trkpt><trkpt lat="37.01796404680465" lon="14.810444788064679"><ele>519.0</ele><time>2026-04-15T11:49:16.999Z</time></trkpt><trkpt lat="37.017791168733424" lon="14.81040181966632"><ele>518.0</ele><time>2026-04-15T11:49:17.999Z</time></trkpt><trkpt lat="37.01762078822399" lon="14.81035070551628"><ele>517.6666666666666</ele><time>2026-04-15T11:49:18.999Z</time></trkpt><trkpt lat="37.01744676858659" lon="14.810298229086483"><ele>517.3333333333334</ele><time>2026-04-15T11:49:19.999Z</time></trkpt><trkpt lat="37.017273530167074" lon="14.810231402105606"><ele>517.0</ele><time>2026-04-15T11:49:20.999Z</time></trkpt><trkpt lat="37.01710157809716" lon="14.810140526995857"><ele>517.0</ele><time>2026-04-15T11:49:21.999Z</time></trkpt><trkpt lat="37.01693050175379" lon="14.810047792308408"><ele>517.0</ele><time>2026-04-15T11:49:22.999Z</time></trkpt><trkpt lat="37.01676244405992" lon="14.809964645113743"><ele>517.0</ele><time>2026-04-15T11:49:23.999Z</time></trkpt><trkpt lat="37.01661055882607" lon="14.809901561397625"><ele>517.0</ele><time>2026-04-15T11:49:24.999Z</time></trkpt><trkpt lat="37.01648792203586" lon="14.80988419637347"><ele>517.0</ele><time>2026-04-15T11:49:25.999Z</time></trkpt><trkpt lat="37.016379817216816" lon="14.809916493065668"><ele>517.0</ele><time>2026-04-15T11:49:26.999Z</time></trkpt><trkpt lat="37.01629101314993" lon="14.809991971173398"><ele>517.0</ele><time>2026-04-15T11:49:27.999Z</time></trkpt><trkpt lat="37.01621010413333" lon="14.810088082173461"><ele>517.0</ele><time>2026-04-15T11:49:28.999Z</time></trkpt><trkpt lat="37.01611752208329" lon="14.81014034209899"><ele>517.0</ele><time>2026-04-15T11:49:29.999Z</time></trkpt><trkpt lat="37.0160159355015" lon="14.810123445898325"><ele>517.0</ele><time>2026-04-15T11:49:30.999Z</time></trkpt><trkpt lat="37.01591705618773" lon="14.810074810582538"><ele>517.0</ele><time>2026-04-15T11:49:31.999Z</time></trkpt><trkpt lat="37.015791674212245" lon="14.810024866167495"><ele>517.0</ele><time>2026-04-15T11:49:32.999Z</time></trkpt><trkpt lat="37.01564920701082" lon="14.809953725806563"><ele>517.0</ele><time>2026-04-15T11:49:33.999Z</time></trkpt><trkpt lat="37.015508714129865" lon="14.809868057270563"><ele>517.0</ele><time>2026-04-15T11:49:34.999Z</time></trkpt><trkpt lat="37.015373317729775" lon="14.809772699952239"><ele>517.0</ele><time>2026-04-15T11:49:35.999Z</time></trkpt><trkpt lat="37.01523358310814" lon="14.809687751832595"><ele>517.0</ele><time>2026-04-15T11:49:36.999Z</time></trkpt><trkpt lat="37.01507052791815" lon="14.809637368048193"><ele>517.0</ele><time>2026-04-15T11:49:37.999Z</time></trkpt><trkpt lat="37.01489190821829" lon="14.809625500420113"><ele>517.0</ele><time>2026-04-15T11:49:38.998Z</time></trkpt><trkpt lat="37.014698003795345" lon="14.80964845453582"><ele>515.0</ele><time>2026-04-15T11:49:39.998Z</time></trkpt><trkpt lat="37.01450597061149" lon="14.809683893052862"><ele>513.0</ele><time>2026-04-15T11:49:40.998Z</time></trkpt><trkpt lat="37.014304391695276" lon="14.809741944148062"><ele>511.0</ele><time>2026-04-15T11:49:41.998Z</time></trkpt><trkpt lat="37.01410290640714" lon="14.80981193275955"><ele>510.33333333333337</ele><time>2026-04-15T11:49:42.998Z</time></trkpt><trkpt lat="37.01390606499307" lon="14.809864388485972"><ele>509.66666666666663</ele><time>2026-04-15T11:49:43.998Z</time></trkpt><trkpt lat="37.01369859855902" lon="14.809881732829831"><ele>509.0</ele><time>2026-04-15T11:49:44.998Z</time></trkpt><trkpt lat="37.01347775103106" lon="14.80988014361172"><ele>509.66666666666663</ele><time>2026-04-15T11:49:45.999Z</time></trkpt><trkpt lat="37.01325940926992" lon="14.80986287854187"><ele>510.33333333333337</ele><time>2026-04-15T11:49:46.999Z</time></trkpt><trkpt lat="37.01303654759297" lon="14.80984514418869"><ele>511.0</ele><time>2026-04-15T11:49:47.999Z</time></trkpt><trkpt lat="37.0128179873946" lon="14.80983461349836"><ele>511.0</ele><time>2026-04-15T11:49:48.999Z</time></trkpt><trkpt lat="37.0126228797664" lon="14.809827788960886"><ele>511.0</ele><time>2026-04-15T11:49:49.999Z</time></trkpt><trkpt lat="37.01243444459675" lon="14.809829962088513"><ele>511.0</ele><time>2026-04-15T11:49:50.999Z</time></trkpt><trkpt lat="37.01225288843376" lon="14.809874407786634"><ele>508.6666666666667</ele><time>2026-04-15T11:49:51.999Z</time></trkpt><trkpt lat="37.012074901630484" lon="14.809948969048206"><ele>506.33333333333337</ele><time>2026-04-15T11:49:52.999Z</time></trkpt><trkpt lat="37.0118913226206" lon="14.810023025293217"><ele>504.0</ele><time>2026-04-15T11:49:53.999Z</time></trkpt><trkpt lat="37.01169763604679" lon="14.810084015417958"><ele>504.0</ele><time>2026-04-15T11:49:54.999Z</time></trkpt><trkpt lat="37.01150118359801" lon="14.810155329520233"><ele>504.0</ele><time>2026-04-15T11:49:55.999Z</time></trkpt><trkpt lat="37.01129868245506" lon="14.810244032401986"><ele>504.0</ele><time>2026-04-15T11:49:56.999Z</time></trkpt><trkpt lat="37.011093657323734" lon="14.810345118475112"><ele>502.0</ele><time>2026-04-15T11:49:57.999Z</time></trkpt><trkpt lat="37.01088487704874" lon="14.810454148239286"><ele>500.0</ele><time>2026-04-15T11:49:58.999Z</time></trkpt><trkpt lat="37.01067057314097" lon="14.810569454236456"><ele>500.0</ele><time>2026-04-15T11:50:00Z</time></trkpt><trkpt lat="37.010459711792414" lon="14.810689187124567"><ele>500.0</ele><time>2026-04-15T11:50:01Z</time></trkpt><trkpt lat="37.01026198272007" lon="14.810810570050819"><ele>500.0</ele><time>2026-04-15T11:50:02Z</time></trkpt><trkpt lat="37.010079765115144" lon="14.810925607842677"><ele>500.0</ele><time>2026-04-15T11:50:03Z</time></trkpt><trkpt lat="37.009916071901955" lon="14.811058275447207"><ele>500.0</ele><time>2026-04-15T11:50:04Z</time></trkpt><trkpt lat="37.009767056305186" lon="14.811203943531545"><ele>502.66666666666663</ele><time>2026-04-15T11:50:05Z</time></trkpt><trkpt lat="37.00960975051467" lon="14.811337896354125"><ele>505.33333333333337</ele><time>2026-04-15T11:50:06Z</time></trkpt><trkpt lat="37.0094354876382" lon="14.811438325602511"><ele>508.0</ele><time>2026-04-15T11:50:07Z</time></trkpt><trkpt lat="37.009236348573026" lon="14.811489820967104"><ele>505.33333333333337</ele><time>2026-04-15T11:50:08Z</time></trkpt><trkpt lat="37.009033698506855" lon="14.81150661379035"><ele>502.66666666666663</ele><time>2026-04-15T11:50:09Z</time></trkpt><trkpt lat="37.00884527047845" lon="14.811520845545234"><ele>500.0</ele><time>2026-04-15T11:50:10Z</time></trkpt><trkpt lat="37.008665549705746" lon="14.811556958423227"><ele>500.0</ele><time>2026-04-15T11:50:11Z</time></trkpt><trkpt lat="37.008515260381316" lon="14.81164451338384"><ele>500.0</ele><time>2026-04-15T11:50:12Z</time></trkpt><trkpt lat="37.00840150214502" lon="14.81177106371562"><ele>500.0</ele><time>2026-04-15T11:50:13Z</time></trkpt><trkpt lat="37.008314051603506" lon="14.811940838563805"><ele>497.0</ele><time>2026-04-15T11:50:14Z</time></trkpt><trkpt lat="37.00822436133475" lon="14.812134979300916"><ele>494.0</ele><time>2026-04-15T11:50:15Z</time></trkpt><trkpt lat="37.00811136691193" lon="14.81233589657726"><ele>491.0</ele><time>2026-04-15T11:50:16Z</time></trkpt><trkpt lat="37.00799819921729" lon="14.81253308009471"><ele>492.3333333333333</ele><time>2026-04-15T11:50:17Z</time></trkpt><trkpt lat="37.0078897283711" lon="14.812739123633317"><ele>493.66666666666663</ele><time>2026-04-15T11:50:17.999Z</time></trkpt><trkpt lat="37.007787406908406" lon="14.81293376070986"><ele>495.0</ele><time>2026-04-15T11:50:18.999Z</time></trkpt><trkpt lat="37.00768535377252" lon="14.813111180287795"><ele>495.0</ele><time>2026-04-15T11:50:19.999Z</time></trkpt><trkpt lat="37.00759364580107" lon="14.81326160856358"><ele>495.0</ele><time>2026-04-15T11:50:20.999Z</time></trkpt><trkpt lat="37.00753383133905" lon="14.813402592410364"><ele>495.0</ele><time>2026-04-15T11:50:21.999Z</time></trkpt><trkpt lat="37.00751235266105" lon="14.813549833706599"><ele>495.0</ele><time>2026-04-15T11:50:22.999Z</time></trkpt><trkpt lat="37.00753321406903" lon="14.813701409407182"><ele>494.25</ele><time>2026-04-15T11:50:23.999Z</time></trkpt><trkpt lat="37.007593610202385" lon="14.81384038910997"><ele>493.5</ele><time>2026-04-15T11:50:24.999Z</time></trkpt><trkpt lat="37.00768670949503" lon="14.81397659514011"><ele>492.75</ele><time>2026-04-15T11:50:25.999Z</time></trkpt><trkpt lat="37.00780713022123" lon="14.81412606714785"><ele>492.0</ele><time>2026-04-15T11:50:26.999Z</time></trkpt><trkpt lat="37.00790542583116" lon="14.814317533953906"><ele>487.33333333333337</ele><time>2026-04-15T11:50:27.999Z</time></trkpt><trkpt lat="37.00798276398506" lon="14.814521729542227"><ele>482.6666666666667</ele><time>2026-04-15T11:50:28.999Z</time></trkpt><trkpt lat="37.008072572942794" lon="14.814717105553783"><ele>478.0</ele><time>2026-04-15T11:50:29.999Z</time></trkpt><trkpt lat="37.008153042794895" lon="14.81488446832809"><ele>478.0</ele><time>2026-04-15T11:50:30.999Z</time></trkpt><trkpt lat="37.00819420088024" lon="14.815040419212647"><ele>477.99999999999994</ele><time>2026-04-15T11:50:31.999Z</time></trkpt><trkpt lat="37.00819235747641" lon="14.815188049701199"><ele>477.99999999999994</ele><time>2026-04-15T11:50:32.999Z</time></trkpt><trkpt lat="37.00816885892862" lon="14.81530449791143"><ele>478.0</ele><time>2026-04-15T11:50:33.999Z</time></trkpt><trkpt lat="37.00815623385834" lon="14.815395036061805"><ele>478.0</ele><time>2026-04-15T11:50:34.999Z</time></trkpt><trkpt lat="37.008155522216605" lon="14.815476548924265"><ele>477.0</ele><time>2026-04-15T11:50:35.999Z</time></trkpt><trkpt lat="37.00817679449908" lon="14.815571243885064"><ele>475.99999999999994</ele><time>2026-04-15T11:50:37.999Z</time></trkpt><trkpt lat="37.008229012819086" lon="14.815709868615796"><ele>474.99999999999994</ele><time>2026-04-15T11:51:09.999Z</time></trkpt><trkpt lat="37.008260907824166" lon="14.81582428871726"><ele>474.0</ele><time>2026-04-15T11:51:10.999Z</time></trkpt><trkpt lat="37.00828402046693" lon="14.81597652977958"><ele>473.0</ele><time>2026-04-15T11:51:11.999Z</time></trkpt><trkpt lat="37.00829689333177" lon="14.816131081241794"><ele>473.0</ele><time>2026-04-15T11:51:12.999Z</time></trkpt><trkpt lat="37.008282151182826" lon="14.816285341774998"><ele>473.0</ele><time>2026-04-15T11:51:13.999Z</time></trkpt><trkpt lat="37.00824461350954" lon="14.816449688219938"><ele>473.0</ele><time>2026-04-15T11:51:14.999Z</time></trkpt><trkpt lat="37.00818510604702" lon="14.816624232879798"><ele>473.0</ele><time>2026-04-15T11:51:15.999Z</time></trkpt><trkpt lat="37.00813007073334" lon="14.816788743448976"><ele>473.4</ele><time>2026-04-15T11:51:16.999Z</time></trkpt><trkpt lat="37.0080856119305" lon="14.816926656168501"><ele>473.79999999999995</ele><time>2026-04-15T11:51:17.999Z</time></trkpt><trkpt lat="37.008042109927594" lon="14.817022342711999"><ele>474.2</ele><time>2026-04-15T11:51:18.999Z</time></trkpt><trkpt lat="37.008005004537566" lon="14.81708940946929"><ele>474.6</ele><time>2026-04-15T11:51:19.999Z</time></trkpt><trkpt lat="37.00791311676916" lon="14.817153270866894"><ele>475.0</ele><time>2026-04-15T11:51:21.999Z</time></trkpt><trkpt lat="37.007793394147825" lon="14.817176980373528"><ele>475.0</ele><time>2026-04-15T11:51:23.999Z</time></trkpt><trkpt lat="37.00772417436542" lon="14.817167864186555"><ele>475.00000000000006</ele><time>2026-04-15T11:51:24.999Z</time></trkpt><trkpt lat="37.00764080427072" lon="14.81711632659237"><ele>475.0</ele><time>2026-04-15T11:51:26.999Z</time></trkpt><trkpt lat="37.007575869404" lon="14.817070244192104"><ele>475.0</ele><time>2026-04-15T11:51:28.999Z</time></trkpt><trkpt lat="37.007521681667725" lon="14.816997892985404"><ele>475.00000000000006</ele><time>2026-04-15T11:51:30.999Z</time></trkpt><trkpt lat="37.00747282187507" lon="14.816941791264558"><ele>475.0</ele><time>2026-04-15T11:51:32.999Z</time></trkpt><trkpt lat="37.007427886916" lon="14.816881501881381"><ele>475.0</ele><time>2026-04-15T11:51:34.999Z</time></trkpt><trkpt lat="37.007384852867794" lon="14.816816887559867"><ele>475.00000000000006</ele><time>2026-04-15T11:51:36.999Z</time></trkpt><trkpt lat="37.007329576284825" lon="14.81673314590452"><ele>475.0</ele><time>2026-04-15T11:51:39.999Z</time></trkpt><trkpt lat="37.007283860686336" lon="14.81667497541521"><ele>475.0</ele><time>2026-04-15T11:51:41.999Z</time></trkpt><trkpt lat="37.007306409532895" lon="14.816793581744507"><ele>475.0</ele><time>2026-04-15T11:51:47.999Z</time></trkpt><trkpt lat="37.00737563148679" lon="14.816851212028267"><ele>475.00000000000006</ele><time>2026-04-15T11:51:48.999Z</time></trkpt><trkpt lat="37.00743326064009" lon="14.81693710765007"><ele>475.0</ele><time>2026-04-15T11:51:49.999Z</time></trkpt><trkpt lat="37.007499642298015" lon="14.817017539802363"><ele>475.0</ele><time>2026-04-15T11:51:50.999Z</time></trkpt><trkpt lat="37.00756874722937" lon="14.817083845971116"><ele>475.0</ele><time>2026-04-15T11:51:52Z</time></trkpt><trkpt lat="37.00762828417645" lon="14.817135977800746"><ele>475.0</ele><time>2026-04-15T11:51:53Z</time></trkpt><trkpt lat="37.007734759269596" lon="14.817212064964297"><ele>475.0</ele><time>2026-04-15T11:51:55Z</time></trkpt><trkpt lat="37.00782726981844" lon="14.81725508392838"><ele>475.0</ele><time>2026-04-15T11:51:57Z</time></trkpt><trkpt lat="37.0077922833409" lon="14.817161761620534"><ele>475.0</ele><time>2026-04-15T11:52:18Z</time></trkpt><trkpt lat="37.00767111794138" lon="14.817154944697684"><ele>475.0</ele><time>2026-04-15T11:52:19Z</time></trkpt><trkpt lat="37.00758926941597" lon="14.817080151468758"><ele>475.0</ele><time>2026-04-15T11:52:20Z</time></trkpt><trkpt lat="37.00749729677354" lon="14.81698799301378"><ele>475.0</ele><time>2026-04-15T11:52:21Z</time></trkpt><trkpt lat="37.00741240526263" lon="14.81687078524317"><ele>476.25</ele><time>2026-04-15T11:52:22Z</time></trkpt><trkpt lat="37.00732999711025" lon="14.816747222040886"><ele>477.5</ele><time>2026-04-15T11:52:23Z</time></trkpt><trkpt lat="37.00723627355154" lon="14.816627147452744"><ele>478.75</ele><time>2026-04-15T11:52:24Z</time></trkpt><trkpt lat="37.00713213834781" lon="14.816513600550621"><ele>480.0</ele><time>2026-04-15T11:52:25Z</time></trkpt><trkpt lat="37.00701984367019" lon="14.816417218031498"><ele>480.0</ele><time>2026-04-15T11:52:26Z</time></trkpt><trkpt lat="37.00689181400384" lon="14.816343189857054"><ele>480.0</ele><time>2026-04-15T11:52:27Z</time></trkpt><trkpt lat="37.00675305591396" lon="14.816289313929143"><ele>480.0</ele><time>2026-04-15T11:52:28Z</time></trkpt><trkpt lat="37.00660250459719" lon="14.816253383788707"><ele>480.0</ele><time>2026-04-15T11:52:29Z</time></trkpt><trkpt lat="37.00644331536504" lon="14.816237388234414"><ele>480.0</ele><time>2026-04-15T11:52:30Z</time></trkpt><trkpt lat="37.00628455811802" lon="14.81624147451812"><ele>480.0</ele><time>2026-04-15T11:52:31Z</time></trkpt><trkpt lat="37.00613663582688" lon="14.816260082071029"><ele>480.0</ele><time>2026-04-15T11:52:32Z</time></trkpt><trkpt lat="37.00600415189281" lon="14.816302799634133"><ele>480.0</ele><time>2026-04-15T11:52:33Z</time></trkpt><trkpt lat="37.00588994776829" lon="14.81637470950413"><ele>476.66666666666663</ele><time>2026-04-15T11:52:34Z</time></trkpt><trkpt lat="37.00577865168867" lon="14.816473550392493"><ele>473.3333333333333</ele><time>2026-04-15T11:52:35Z</time></trkpt><trkpt lat="37.00564540560771" lon="14.816600533023216"><ele>470.0</ele><time>2026-04-15T11:52:36Z</time></trkpt><trkpt lat="37.00548932162416" lon="14.81674364460259"><ele>473.66666666666663</ele><time>2026-04-15T11:52:37Z</time></trkpt><trkpt lat="37.00531929618479" lon="14.81687074117558"><ele>477.33333333333337</ele><time>2026-04-15T11:52:38Z</time></trkpt><trkpt lat="37.005142596141695" lon="14.816982574567872"><ele>481.0</ele><time>2026-04-15T11:52:39Z</time></trkpt><trkpt lat="37.004967647695025" lon="14.817076700645435"><ele>481.0</ele><time>2026-04-15T11:52:40Z</time></trkpt><trkpt lat="37.004785523896125" lon="14.817148646163348"><ele>481.0</ele><time>2026-04-15T11:52:41Z</time></trkpt><trkpt lat="37.00457968561699" lon="14.817185572416701"><ele>481.0</ele><time>2026-04-15T11:52:42Z</time></trkpt><trkpt lat="37.00434886821142" lon="14.817191613025837"><ele>479.0</ele><time>2026-04-15T11:52:43Z</time></trkpt><trkpt lat="37.00410674101495" lon="14.817183213604746"><ele>477.0</ele><time>2026-04-15T11:52:44Z</time></trkpt><trkpt lat="37.003863790593535" lon="14.817177325863064"><ele>477.0</ele><time>2026-04-15T11:52:45Z</time></trkpt><trkpt lat="37.00362826311088" lon="14.817186718694684"><ele>477.0</ele><time>2026-04-15T11:52:46Z</time></trkpt><trkpt lat="37.003408653859346" lon="14.817184604244684"><ele>477.0</ele><time>2026-04-15T11:52:47Z</time></trkpt><trkpt lat="37.00319536861942" lon="14.817153793549478"><ele>477.0</ele><time>2026-04-15T11:52:48Z</time></trkpt><trkpt lat="37.00297383314952" lon="14.817085845068187"><ele>477.0</ele><time>2026-04-15T11:52:49Z</time></trkpt><trkpt lat="37.002742521754115" lon="14.816990299839675"><ele>477.0</ele><time>2026-04-15T11:52:50Z</time></trkpt><trkpt lat="37.00251548699552" lon="14.816892470151563"><ele>477.0</ele><time>2026-04-15T11:52:50.999Z</time></trkpt><trkpt lat="37.00230378700249" lon="14.816807627236885"><ele>473.0</ele><time>2026-04-15T11:52:51.999Z</time></trkpt><trkpt lat="37.002115453057044" lon="14.816739412126807"><ele>469.0</ele><time>2026-04-15T11:52:52.999Z</time></trkpt><trkpt lat="37.00195447336701" lon="14.816680884235128"><ele>465.0</ele><time>2026-04-15T11:52:53.999Z</time></trkpt><trkpt lat="37.00181927273696" lon="14.816639978258873"><ele>465.0</ele><time>2026-04-15T11:52:54.999Z</time></trkpt><trkpt lat="37.001687072792485" lon="14.816634057106473"><ele>465.0</ele><time>2026-04-15T11:52:55.999Z</time></trkpt><trkpt lat="37.001576489107705" lon="14.81669096034546"><ele>465.0</ele><time>2026-04-15T11:52:56.999Z</time></trkpt><trkpt lat="37.001493510225394" lon="14.816788804976502"><ele>465.0</ele><time>2026-04-15T11:52:57.999Z</time></trkpt><trkpt lat="37.00144307275868" lon="14.816914162822679"><ele>463.0</ele><time>2026-04-15T11:52:58.999Z</time></trkpt><trkpt lat="37.00141430544567" lon="14.817084015518423"><ele>461.0</ele><time>2026-04-15T11:52:59.999Z</time></trkpt><trkpt lat="37.00140919043355" lon="14.817282265864662"><ele>459.0</ele><time>2026-04-15T11:53:00.999Z</time></trkpt><trkpt lat="37.001428265461115" lon="14.817483836123591"><ele>459.0</ele><time>2026-04-15T11:53:01.999Z</time></trkpt><trkpt lat="37.001451859252654" lon="14.81768123059084"><ele>459.0</ele><time>2026-04-15T11:53:02.999Z</time></trkpt><trkpt lat="37.00147500683881" lon="14.817871317508102"><ele>459.0</ele><time>2026-04-15T11:53:03.999Z</time></trkpt><trkpt lat="37.00149406132553" lon="14.818051677212237"><ele>459.0</ele><time>2026-04-15T11:53:04.999Z</time></trkpt><trkpt lat="37.00150841656562" lon="14.818233052601466"><ele>459.0</ele><time>2026-04-15T11:53:05.999Z</time></trkpt><trkpt lat="37.001524172074596" lon="14.81841190616677"><ele>459.0</ele><time>2026-04-15T11:53:06.999Z</time></trkpt><trkpt lat="37.00153409810255" lon="14.818582973697502"><ele>459.0</ele><time>2026-04-15T11:53:07.999Z</time></trkpt><trkpt lat="37.001535456375144" lon="14.818743770172555"><ele>458.5</ele><time>2026-04-15T11:53:08.999Z</time></trkpt><trkpt lat="37.00151052686886" lon="14.81890031519951"><ele>458.0</ele><time>2026-04-15T11:53:09.999Z</time></trkpt><trkpt lat="37.001452639402174" lon="14.819052549070463"><ele>457.5</ele><time>2026-04-15T11:53:10.999Z</time></trkpt><trkpt lat="37.00136088336739" lon="14.819202599696986"><ele>457.0</ele><time>2026-04-15T11:53:11.999Z</time></trkpt><trkpt lat="37.00124903110439" lon="14.819340608388693"><ele>456.33333333333337</ele><time>2026-04-15T11:53:12.999Z</time></trkpt><trkpt lat="37.00111339922637" lon="14.819459146278126"><ele>455.66666666666663</ele><time>2026-04-15T11:53:13.999Z</time></trkpt><trkpt lat="37.000950280050745" lon="14.819555711944615"><ele>455.0</ele><time>2026-04-15T11:53:14.999Z</time></trkpt><trkpt lat="37.000781298646366" lon="14.819635691522063"><ele>455.0</ele><time>2026-04-15T11:53:15.999Z</time></trkpt><trkpt lat="37.000616607373914" lon="14.81971475918836"><ele>455.0</ele><time>2026-04-15T11:53:16.999Z</time></trkpt><trkpt lat="37.00044205079396" lon="14.819785552495333"><ele>455.0</ele><time>2026-04-15T11:53:17.999Z</time></trkpt><trkpt lat="37.00026347534624" lon="14.8198590984527"><ele>455.0</ele><time>2026-04-15T11:53:18.999Z</time></trkpt><trkpt lat="37.00007579330385" lon="14.819931537745122"><ele>455.0</ele><time>2026-04-15T11:53:19.999Z</time></trkpt><trkpt lat="36.99987906138313" lon="14.820000441209338"><ele>455.0</ele><time>2026-04-15T11:53:20.999Z</time></trkpt><trkpt lat="36.999680417318594" lon="14.820060783724797"><ele>455.0</ele><time>2026-04-15T11:53:21.999Z</time></trkpt><trkpt lat="36.99947334383899" lon="14.820112911895285"><ele>455.0</ele><time>2026-04-15T11:53:22.999Z</time></trkpt><trkpt lat="36.999252170744064" lon="14.82015931245212"><ele>455.0</ele><time>2026-04-15T11:53:23.999Z</time></trkpt><trkpt lat="36.99901446146576" lon="14.820209046739249"><ele>464.0</ele><time>2026-04-15T11:53:24.999Z</time></trkpt><trkpt lat="36.998769203594144" lon="14.820256218268213"><ele>473.0</ele><time>2026-04-15T11:53:25.999Z</time></trkpt><trkpt lat="36.99852958504207" lon="14.820279545725402"><ele>477.5</ele><time>2026-04-15T11:53:26.999Z</time></trkpt><trkpt lat="36.99828092362219" lon="14.820270433454656"><ele>482.0</ele><time>2026-04-15T11:53:27.999Z</time></trkpt><trkpt lat="36.99804615415335" lon="14.820252889119597"><ele>482.0</ele><time>2026-04-15T11:53:28.999Z</time></trkpt><trkpt lat="36.99783780537054" lon="14.820245565021683"><ele>482.0</ele><time>2026-04-15T11:53:29.999Z</time></trkpt><trkpt lat="36.997655432908125" lon="14.820237715157443"><ele>482.0</ele><time>2026-04-15T11:53:30.999Z</time></trkpt><trkpt lat="36.99751783055527" lon="14.820227553014165"><ele>481.0</ele><time>2026-04-15T11:53:31.999Z</time></trkpt><trkpt lat="36.997407020673634" lon="14.820242508864997"><ele>480.0</ele><time>2026-04-15T11:53:32.999Z</time></trkpt><trkpt lat="36.997312438752544" lon="14.820309286968293"><ele>479.0</ele><time>2026-04-15T11:53:33.999Z</time></trkpt><trkpt lat="36.99723675785173" lon="14.820423145726508"><ele>478.0</ele><time>2026-04-15T11:53:34.999Z</time></trkpt><trkpt lat="36.99716874725569" lon="14.820577228596507"><ele>478.0</ele><time>2026-04-15T11:53:35.999Z</time></trkpt><trkpt lat="36.997089327990956" lon="14.820751396184875"><ele>478.0</ele><time>2026-04-15T11:53:36.999Z</time></trkpt><trkpt lat="36.996996649816104" lon="14.820909203102376"><ele>478.0</ele><time>2026-04-15T11:53:37.999Z</time></trkpt><trkpt lat="36.996907509833164" lon="14.82106672566301"><ele>475.5</ele><time>2026-04-15T11:53:38.999Z</time></trkpt><trkpt lat="36.99682245548146" lon="14.821214474916209"><ele>473.0</ele><time>2026-04-15T11:53:39.999Z</time></trkpt><trkpt lat="36.99673850897895" lon="14.821354916991494"><ele>470.5</ele><time>2026-04-15T11:53:40.999Z</time></trkpt><trkpt lat="36.99665881253011" lon="14.821501641863597"><ele>468.0</ele><time>2026-04-15T11:53:41.999Z</time></trkpt><trkpt lat="36.99657816944406" lon="14.82165311929301"><ele>468.0</ele><time>2026-04-15T11:53:42.999Z</time></trkpt><trkpt lat="36.996503742049384" lon="14.821795090752051"><ele>468.0</ele><time>2026-04-15T11:53:43.999Z</time></trkpt><trkpt lat="36.99645029424271" lon="14.821954903551218"><ele>468.0</ele><time>2026-04-15T11:53:44.999Z</time></trkpt><trkpt lat="36.99641939299358" lon="14.822167419654882"><ele>468.0</ele><time>2026-04-15T11:53:45.999Z</time></trkpt><trkpt lat="36.99640706573872" lon="14.822421734854316"><ele>469.0</ele><time>2026-04-15T11:53:46.999Z</time></trkpt><trkpt lat="36.996399056937406" lon="14.82268285192868"><ele>470.0</ele><time>2026-04-15T11:53:47.999Z</time></trkpt><trkpt lat="36.99639394403939" lon="14.822951320922305"><ele>471.0</ele><time>2026-04-15T11:53:48.999Z</time></trkpt><trkpt lat="36.99638162063421" lon="14.82323743374823"><ele>471.5</ele><time>2026-04-15T11:53:49.999Z</time></trkpt><trkpt lat="36.99636509407704" lon="14.823529698678952"><ele>472.0</ele><time>2026-04-15T11:53:50.999Z</time></trkpt><trkpt lat="36.996352270688554" lon="14.823806148477582"><ele>472.0</ele><time>2026-04-15T11:53:51.999Z</time></trkpt><trkpt lat="36.99634395686783" lon="14.824066106362897"><ele>472.0</ele><time>2026-04-15T11:53:52.999Z</time></trkpt><trkpt lat="36.99632710270597" lon="14.82431455127702"><ele>472.0</ele><time>2026-04-15T11:53:53.999Z</time></trkpt><trkpt lat="36.99629295584444" lon="14.824550716995672"><ele>472.33333333333337</ele><time>2026-04-15T11:53:54.999Z</time></trkpt><trkpt lat="36.99622964031314" lon="14.82477069147337"><ele>472.66666666666663</ele><time>2026-04-15T11:53:55.999Z</time></trkpt><trkpt lat="36.9961380616692" lon="14.824980635061141"><ele>473.0</ele><time>2026-04-15T11:53:56.999Z</time></trkpt><trkpt lat="36.99601352915967" lon="14.825198912538927"><ele>471.3333333333333</ele><time>2026-04-15T11:53:58Z</time></trkpt><trkpt lat="36.995876242935694" lon="14.825396155117858"><ele>469.66666666666663</ele><time>2026-04-15T11:53:59Z</time></trkpt><trkpt lat="36.99573295637304" lon="14.825570238078718"><ele>468.0</ele><time>2026-04-15T11:54:00Z</time></trkpt><trkpt lat="36.99557675267932" lon="14.82572007990686"><ele>468.0</ele><time>2026-04-15T11:54:01Z</time></trkpt><trkpt lat="36.99540937225775" lon="14.825830052912446"><ele>468.0</ele><time>2026-04-15T11:54:02Z</time></trkpt><trkpt lat="36.995242480476804" lon="14.825939465216157"><ele>468.0</ele><time>2026-04-15T11:54:03Z</time></trkpt><trkpt lat="36.99508015218847" lon="14.826060746983947"><ele>467.33333333333337</ele><time>2026-04-15T11:54:04Z</time></trkpt><trkpt lat="36.99492493087748" lon="14.826195742450393"><ele>466.6666666666667</ele><time>2026-04-15T11:54:05Z</time></trkpt><trkpt lat="36.99477284454085" lon="14.826356149102587"><ele>466.0</ele><time>2026-04-15T11:54:06Z</time></trkpt><trkpt lat="36.99463248641379" lon="14.826557069065887"><ele>466.0</ele><time>2026-04-15T11:54:07Z</time></trkpt><trkpt lat="36.994516045500205" lon="14.826769008953729"><ele>466.0</ele><time>2026-04-15T11:54:08Z</time></trkpt><trkpt lat="36.99440575638144" lon="14.826955318491915"><ele>466.0</ele><time>2026-04-15T11:54:09Z</time></trkpt><trkpt lat="36.994270255279744" lon="14.82711915779924"><ele>466.6666666666667</ele><time>2026-04-15T11:54:10Z</time></trkpt><trkpt lat="36.99411838615025" lon="14.827281161811616"><ele>467.33333333333337</ele><time>2026-04-15T11:54:11Z</time></trkpt><trkpt lat="36.993955519335806" lon="14.82743598664836"><ele>468.0</ele><time>2026-04-15T11:54:12Z</time></trkpt><trkpt lat="36.993787242884075" lon="14.827587295456404"><ele>468.0</ele><time>2026-04-15T11:54:13Z</time></trkpt><trkpt lat="36.99362415312995" lon="14.827729060489114"><ele>468.0</ele><time>2026-04-15T11:54:14Z</time></trkpt><trkpt lat="36.99344932414681" lon="14.827852859847823"><ele>468.0</ele><time>2026-04-15T11:54:15Z</time></trkpt><trkpt lat="36.99325774386043" lon="14.827955189695238"><ele>469.0</ele><time>2026-04-15T11:54:16Z</time></trkpt><trkpt lat="36.993063576544046" lon="14.828037285052082"><ele>470.0</ele><time>2026-04-15T11:54:17Z</time></trkpt><trkpt lat="36.99286891555563" lon="14.828099351333039"><ele>471.0</ele><time>2026-04-15T11:54:18Z</time></trkpt><trkpt lat="36.9926719984661" lon="14.828130625607416"><ele>472.33333333333337</ele><time>2026-04-15T11:54:19Z</time></trkpt><trkpt lat="36.99247889412358" lon="14.828136834641775"><ele>473.6666666666667</ele><time>2026-04-15T11:54:20Z</time></trkpt><trkpt lat="36.99228068050895" lon="14.82811669937684"><ele>475.0</ele><time>2026-04-15T11:54:21Z</time></trkpt><trkpt lat="36.99207910078511" lon="14.828097957220393"><ele>475.0</ele><time>2026-04-15T11:54:22Z</time></trkpt><trkpt lat="36.99187426071051" lon="14.828086857157803"><ele>475.0</ele><time>2026-04-15T11:54:23Z</time></trkpt><trkpt lat="36.99166298308479" lon="14.828074338882308"><ele>475.0</ele><time>2026-04-15T11:54:24Z</time></trkpt><trkpt lat="36.99145790534702" lon="14.828061279448303"><ele>476.0</ele><time>2026-04-15T11:54:25Z</time></trkpt><trkpt lat="36.99125452316674" lon="14.82804678289311"><ele>477.0</ele><time>2026-04-15T11:54:26Z</time></trkpt><trkpt lat="36.99106414916416" lon="14.828019376716068"><ele>478.0</ele><time>2026-04-15T11:54:27Z</time></trkpt><trkpt lat="36.99088306681314" lon="14.827949197290616"><ele>478.6666666666667</ele><time>2026-04-15T11:54:28Z</time></trkpt><trkpt lat="36.99069840685463" lon="14.827836406698381"><ele>479.33333333333337</ele><time>2026-04-15T11:54:29Z</time></trkpt><trkpt lat="36.99051472358138" lon="14.827681924033655"><ele>480.0</ele><time>2026-04-15T11:54:30Z</time></trkpt><trkpt lat="36.990328389809015" lon="14.827481926276105"><ele>481.0</ele><time>2026-04-15T11:54:31Z</time></trkpt><trkpt lat="36.9901531893236" lon="14.82728360371627"><ele>482.0</ele><time>2026-04-15T11:54:32Z</time></trkpt><trkpt lat="36.98997740199054" lon="14.827089405171943"><ele>482.0</ele><time>2026-04-15T11:54:33Z</time></trkpt><trkpt lat="36.989792450347885" lon="14.82689746274565"><ele>482.0</ele><time>2026-04-15T11:54:34Z</time></trkpt><trkpt lat="36.989617756893445" lon="14.826715707616927"><ele>483.3333333333333</ele><time>2026-04-15T11:54:35Z</time></trkpt><trkpt lat="36.989465582925085" lon="14.826545236293843"><ele>484.66666666666663</ele><time>2026-04-15T11:54:36Z</time></trkpt><trkpt lat="36.989328950721244" lon="14.826347188507594"><ele>486.0</ele><time>2026-04-15T11:54:37Z</time></trkpt><trkpt lat="36.989208562233685" lon="14.826098430619192"><ele>487.0</ele><time>2026-04-15T11:54:38Z</time></trkpt><trkpt lat="36.98909388084322" lon="14.82586246614319"><ele>488.0</ele><time>2026-04-15T11:54:39Z</time></trkpt><trkpt lat="36.98894215646959" lon="14.825662426445048"><ele>489.0</ele><time>2026-04-15T11:54:40Z</time></trkpt><trkpt lat="36.98874980739413" lon="14.825503515728228"><ele>489.0</ele><time>2026-04-15T11:54:41Z</time></trkpt><trkpt lat="36.98853240563032" lon="14.82535047768589"><ele>489.0</ele><time>2026-04-15T11:54:42Z</time></trkpt><trkpt lat="36.988331157633496" lon="14.825210209625077"><ele>491.66666666666663</ele><time>2026-04-15T11:54:43Z</time></trkpt><trkpt lat="36.98813136901807" lon="14.825089931191444"><ele>494.3333333333333</ele><time>2026-04-15T11:54:44Z</time></trkpt><trkpt lat="36.98794891371936" lon="14.824999884986333"><ele>497.0</ele><time>2026-04-15T11:54:45Z</time></trkpt><trkpt lat="36.98775663463001" lon="14.82496050418128"><ele>497.0</ele><time>2026-04-15T11:54:46Z</time></trkpt><trkpt lat="36.98754249345999" lon="14.824963561071607"><ele>497.0</ele><time>2026-04-15T11:54:47Z</time></trkpt><trkpt lat="36.987311484011364" lon="14.824967144317172"><ele>497.0</ele><time>2026-04-15T11:54:48Z</time></trkpt><trkpt lat="36.98707487003276" lon="14.824951604721292"><ele>497.5</ele><time>2026-04-15T11:54:49Z</time></trkpt><trkpt lat="36.98683636301214" lon="14.82492563679975"><ele>498.0</ele><time>2026-04-15T11:54:50Z</time></trkpt><trkpt lat="36.98659417485561" lon="14.824902723698754"><ele>499.5</ele><time>2026-04-15T11:54:51Z</time></trkpt><trkpt lat="36.98634942899288" lon="14.824884516995633"><ele>501.0</ele><time>2026-04-15T11:54:52Z</time></trkpt><trkpt lat="36.986084938595695" lon="14.82486682435635"><ele>502.5</ele><time>2026-04-15T11:54:53Z</time></trkpt><trkpt lat="36.9858252592409" lon="14.824847456681606"><ele>504.0</ele><time>2026-04-15T11:54:54Z</time></trkpt><trkpt lat="36.985573615860275" lon="14.824825979232278"><ele>504.0</ele><time>2026-04-15T11:54:55Z</time></trkpt><trkpt lat="36.98533094896788" lon="14.824808649590093"><ele>504.0</ele><time>2026-04-15T11:54:56Z</time></trkpt><trkpt lat="36.9850930566232" lon="14.82478989257988"><ele>506.0</ele><time>2026-04-15T11:54:57Z</time></trkpt><trkpt lat="36.98484987038698" lon="14.82476640629308"><ele>508.0</ele><time>2026-04-15T11:54:58Z</time></trkpt><trkpt lat="36.98462117122123" lon="14.82473891179069"><ele>508.0</ele><time>2026-04-15T11:54:59Z</time></trkpt><trkpt lat="36.98441096753109" lon="14.824712788325092"><ele>508.0</ele><time>2026-04-15T11:55:00Z</time></trkpt><trkpt lat="36.984206336784816" lon="14.82467245516005"><ele>508.0</ele><time>2026-04-15T11:55:01Z</time></trkpt><trkpt lat="36.98401545786827" lon="14.824596073565608"><ele>509.6666666666667</ele><time>2026-04-15T11:55:02Z</time></trkpt><trkpt lat="36.983829522510845" lon="14.824509163990811"><ele>511.33333333333337</ele><time>2026-04-15T11:55:03Z</time></trkpt><trkpt lat="36.98364418392648" lon="14.82445422210531"><ele>513.0</ele><time>2026-04-15T11:55:04Z</time></trkpt><trkpt lat="36.983462127573006" lon="14.824437733371179"><ele>515.3333333333334</ele><time>2026-04-15T11:55:05Z</time></trkpt><trkpt lat="36.983300560564345" lon="14.824472216344246"><ele>517.6666666666667</ele><time>2026-04-15T11:55:06Z</time></trkpt><trkpt lat="36.983162187037706" lon="14.824552487679446"><ele>520.0</ele><time>2026-04-15T11:55:07Z</time></trkpt><trkpt lat="36.98304875285441" lon="14.824668610283434"><ele>520.0</ele><time>2026-04-15T11:55:08Z</time></trkpt><trkpt lat="36.98295250573837" lon="14.82481795067825"><ele>520.0</ele><time>2026-04-15T11:55:09Z</time></trkpt><trkpt lat="36.982846422193106" lon="14.824956828187261"><ele>520.0</ele><time>2026-04-15T11:55:10Z</time></trkpt><trkpt lat="36.982715943430556" lon="14.825053403179274"><ele>520.0</ele><time>2026-04-15T11:55:11Z</time></trkpt><trkpt lat="36.98257344999257" lon="14.825108052118676"><ele>520.0</ele><time>2026-04-15T11:55:11.999Z</time></trkpt><trkpt lat="36.98243960742621" lon="14.825109994790964"><ele>520.0</ele><time>2026-04-15T11:55:12.999Z</time></trkpt><trkpt lat="36.98233119160283" lon="14.82505669827562"><ele>520.0</ele><time>2026-04-15T11:55:13.999Z</time></trkpt><trkpt lat="36.98224519166873" lon="14.82497613025159"><ele>520.25</ele><time>2026-04-15T11:55:14.999Z</time></trkpt><trkpt lat="36.98215977769892" lon="14.824906124008168"><ele>520.5</ele><time>2026-04-15T11:55:15.999Z</time></trkpt><trkpt lat="36.98204871961036" lon="14.82485933168119"><ele>520.75</ele><time>2026-04-15T11:55:16.999Z</time></trkpt><trkpt lat="36.9819246455356" lon="14.824832952435662"><ele>521.0</ele><time>2026-04-15T11:55:17.999Z</time></trkpt><trkpt lat="36.981806832915225" lon="14.824855155155618"><ele>521.0</ele><time>2026-04-15T11:55:18.999Z</time></trkpt><trkpt lat="36.98170517044578" lon="14.824935923507661"><ele>521.0</ele><time>2026-04-15T11:55:19.999Z</time></trkpt><trkpt lat="36.981608066140524" lon="14.825062705221027"><ele>521.0</ele><time>2026-04-15T11:55:20.999Z</time></trkpt><trkpt lat="36.98151655659903" lon="14.82520132763451"><ele>521.0</ele><time>2026-04-15T11:55:21.999Z</time></trkpt><trkpt lat="36.98142761591027" lon="14.825330939168385"><ele>522.25</ele><time>2026-04-15T11:55:22.999Z</time></trkpt><trkpt lat="36.981336574505086" lon="14.825452510377227"><ele>523.5</ele><time>2026-04-15T11:55:23.999Z</time></trkpt><trkpt lat="36.98123888433811" lon="14.8255653456053"><ele>524.75</ele><time>2026-04-15T11:55:24.999Z</time></trkpt><trkpt lat="36.98112533681495" lon="14.825661901519616"><ele>526.0</ele><time>2026-04-15T11:55:25.999Z</time></trkpt><trkpt lat="36.98100232169693" lon="14.825739649416109"><ele>526.0</ele><time>2026-04-15T11:55:26.999Z</time></trkpt><trkpt lat="36.98086509336207" lon="14.825815106502528"><ele>526.0</ele><time>2026-04-15T11:55:27.999Z</time></trkpt><trkpt lat="36.98073497018931" lon="14.825895247728123"><ele>526.0</ele><time>2026-04-15T11:55:28.999Z</time></trkpt><trkpt lat="36.980615243064854" lon="14.825967098548924"><ele>526.0</ele><time>2026-04-15T11:55:29.999Z</time></trkpt><trkpt lat="36.98050097960479" lon="14.826030850796576"><ele>524.25</ele><time>2026-04-15T11:55:30.999Z</time></trkpt><trkpt lat="36.98039447147877" lon="14.826093349628506"><ele>522.5</ele><time>2026-04-15T11:55:31.999Z</time></trkpt><trkpt lat="36.98029188693305" lon="14.826157964857732"><ele>520.75</ele><time>2026-04-15T11:55:32.999Z</time></trkpt><trkpt lat="36.98019084933659" lon="14.82622323802486"><ele>519.0</ele><time>2026-04-15T11:55:33.999Z</time></trkpt><trkpt lat="36.98008795407448" lon="14.826292000974851"><ele>517.4</ele><time>2026-04-15T11:55:34.999Z</time></trkpt><trkpt lat="36.97998604910186" lon="14.82636286492816"><ele>515.8</ele><time>2026-04-15T11:55:35.999Z</time></trkpt><trkpt lat="36.979889091433314" lon="14.826430365038892"><ele>514.2</ele><time>2026-04-15T11:55:36.999Z</time></trkpt><trkpt lat="36.97980007592522" lon="14.826489076219787"><ele>512.6</ele><time>2026-04-15T11:55:37.999Z</time></trkpt><trkpt lat="36.979716798866875" lon="14.82654220455198"><ele>511.0</ele><time>2026-04-15T11:55:38.999Z</time></trkpt><trkpt lat="36.97963814515132" lon="14.826589144715536"><ele>511.00000000000006</ele><time>2026-04-15T11:55:39.999Z</time></trkpt><trkpt lat="36.979578806164795" lon="14.826647794701358"><ele>511.0</ele><time>2026-04-15T11:55:40.999Z</time></trkpt><trkpt lat="36.979547390383395" lon="14.826729042101073"><ele>511.0</ele><time>2026-04-15T11:55:41.999Z</time></trkpt><trkpt lat="36.97954870688264" lon="14.826819661569006"><ele>511.0</ele><time>2026-04-15T11:55:42.999Z</time></trkpt><trkpt lat="36.9795722745062" lon="14.826909719153026"><ele>511.00000000000006</ele><time>2026-04-15T11:55:43.999Z</time></trkpt><trkpt lat="36.9796038939392" lon="14.827000633792103"><ele>511.0</ele><time>2026-04-15T11:55:44.999Z</time></trkpt><trkpt lat="36.97964016250494" lon="14.82714053179503"><ele>509.75</ele><time>2026-04-15T11:55:45.999Z</time></trkpt><trkpt lat="36.9796770541046" lon="14.82731063580145"><ele>508.5</ele><time>2026-04-15T11:55:46.999Z</time></trkpt><trkpt lat="36.97971109859144" lon="14.827487654123116"><ele>507.25</ele><time>2026-04-15T11:55:47.999Z</time></trkpt><trkpt lat="36.97974575565235" lon="14.82766004032515"><ele>506.0</ele><time>2026-04-15T11:55:48.999Z</time></trkpt><trkpt lat="36.979776285248505" lon="14.827835237783155"><ele>505.8</ele><time>2026-04-15T11:55:49.999Z</time></trkpt><trkpt lat="36.97980165970681" lon="14.827989246635864"><ele>505.6</ele><time>2026-04-15T11:55:50.999Z</time></trkpt><trkpt lat="36.97982368548773" lon="14.828122425030564"><ele>505.4</ele><time>2026-04-15T11:55:51.999Z</time></trkpt><trkpt lat="36.9798520963133" lon="14.828244218856023"><ele>505.2</ele><time>2026-04-15T11:55:52.999Z</time></trkpt><trkpt lat="36.97989309167178" lon="14.828350397059106"><ele>505.0</ele><time>2026-04-15T11:55:53.999Z</time></trkpt><trkpt lat="36.9799402153664" lon="14.828443860334257"><ele>505.00000000000006</ele><time>2026-04-15T11:55:54.999Z</time></trkpt><trkpt lat="36.979984107942556" lon="14.828537806348189"><ele>505.0</ele><time>2026-04-15T11:55:55.999Z</time></trkpt><trkpt lat="36.980026589627606" lon="14.82862662859117"><ele>505.0</ele><time>2026-04-15T11:55:56.999Z</time></trkpt><trkpt lat="36.980060858259954" lon="14.828710830790403"><ele>505.0</ele><time>2026-04-15T11:55:57.999Z</time></trkpt><trkpt lat="36.98008716324664" lon="14.82879157498496"><ele>505.00000000000006</ele><time>2026-04-15T11:55:58.999Z</time></trkpt><trkpt lat="36.98010219502176" lon="14.828924832752417"><ele>505.0</ele><time>2026-04-15T11:56:00.999Z</time></trkpt><trkpt lat="36.9800718117734" lon="14.829060805531242"><ele>504.25</ele><time>2026-04-15T11:56:02.999Z</time></trkpt><trkpt lat="36.979965583139574" lon="14.829124264586246"><ele>503.5</ele><time>2026-04-15T11:56:05Z</time></trkpt><trkpt lat="36.979886976719946" lon="14.829129798735748"><ele>502.75</ele><time>2026-04-15T11:56:06Z</time></trkpt><trkpt lat="36.97976756931372" lon="14.829141563322311"><ele>502.0</ele><time>2026-04-15T11:56:07Z</time></trkpt><trkpt lat="36.97962784845478" lon="14.82916209888878"><ele>502.0</ele><time>2026-04-15T11:56:08Z</time></trkpt><trkpt lat="36.97949784383083" lon="14.829179002345004"><ele>502.0</ele><time>2026-04-15T11:56:09Z</time></trkpt><trkpt lat="36.979379871424314" lon="14.82919741384498"><ele>502.0</ele><time>2026-04-15T11:56:10Z</time></trkpt><trkpt lat="36.97926573118872" lon="14.82922038837519"><ele>502.0</ele><time>2026-04-15T11:56:11Z</time></trkpt><trkpt lat="36.97915402578713" lon="14.82925071998241"><ele>501.0</ele><time>2026-04-15T11:56:12Z</time></trkpt><trkpt lat="36.97903418685113" lon="14.829297320387075"><ele>500.0</ele><time>2026-04-15T11:56:13Z</time></trkpt><trkpt lat="36.978915390800054" lon="14.829365613372065"><ele>499.0</ele><time>2026-04-15T11:56:14Z</time></trkpt><trkpt lat="36.97879716059726" lon="14.829445025072125"><ele>498.0</ele><time>2026-04-15T11:56:15Z</time></trkpt><trkpt lat="36.97867453619977" lon="14.829530733071293"><ele>496.5</ele><time>2026-04-15T11:56:16Z</time></trkpt><trkpt lat="36.978559500608" lon="14.829608173017002"><ele>495.0</ele><time>2026-04-15T11:56:17Z</time></trkpt><trkpt lat="36.97843060734979" lon="14.829694092784997"><ele>493.5</ele><time>2026-04-15T11:56:18Z</time></trkpt><trkpt lat="36.97829844132777" lon="14.829777930272169"><ele>492.0</ele><time>2026-04-15T11:56:19Z</time></trkpt><trkpt lat="36.97814916529463" lon="14.829864464535822"><ele>492.0</ele><time>2026-04-15T11:56:20Z</time></trkpt><trkpt lat="36.97798963060997" lon="14.829923608872193"><ele>492.0</ele><time>2026-04-15T11:56:21Z</time></trkpt><trkpt lat="36.97781705080509" lon="14.829988163641154"><ele>492.0</ele><time>2026-04-15T11:56:22Z</time></trkpt><trkpt lat="36.977623107418026" lon="14.830089841985902"><ele>486.0</ele><time>2026-04-15T11:56:23Z</time></trkpt><trkpt lat="36.9774201864512" lon="14.830211391194853"><ele>480.0</ele><time>2026-04-15T11:56:24Z</time></trkpt><trkpt lat="36.97721699183695" lon="14.83034254941089"><ele>480.0</ele><time>2026-04-15T11:56:25Z</time></trkpt><trkpt lat="36.97700874659949" lon="14.830477148539298"><ele>480.0</ele><time>2026-04-15T11:56:26Z</time></trkpt><trkpt lat="36.97679832064352" lon="14.830616619942704"><ele>478.0</ele><time>2026-04-15T11:56:27Z</time></trkpt><trkpt lat="36.97659674421341" lon="14.83075740580319"><ele>476.0</ele><time>2026-04-15T11:56:28Z</time></trkpt><trkpt lat="36.9764207304661" lon="14.83091276189663"><ele>474.0</ele><time>2026-04-15T11:56:29Z</time></trkpt><trkpt lat="36.97626342102426" lon="14.831095525509095"><ele>472.0</ele><time>2026-04-15T11:56:30Z</time></trkpt><trkpt lat="36.97611061792286" lon="14.831281507830736"><ele>470.0</ele><time>2026-04-15T11:56:31Z</time></trkpt><trkpt lat="36.97593911113339" lon="14.831453213358476"><ele>468.0</ele><time>2026-04-15T11:56:32Z</time></trkpt><trkpt lat="36.975742562309414" lon="14.831604621444791"><ele>468.0</ele><time>2026-04-15T11:56:33Z</time></trkpt><trkpt lat="36.975545390419896" lon="14.831732401478934"><ele>468.0</ele><time>2026-04-15T11:56:34Z</time></trkpt><trkpt lat="36.97536173702376" lon="14.831874894854955"><ele>468.0</ele><time>2026-04-15T11:56:35Z</time></trkpt><trkpt lat="36.97518357254667" lon="14.832027468865505"><ele>466.0</ele><time>2026-04-15T11:56:36Z</time></trkpt><trkpt lat="36.975005536047696" lon="14.832170801452031"><ele>464.0</ele><time>2026-04-15T11:56:37Z</time></trkpt><trkpt lat="36.974831633111776" lon="14.832287180858627"><ele>462.0</ele><time>2026-04-15T11:56:38Z</time></trkpt><trkpt lat="36.97466349132004" lon="14.83238860652358"><ele>462.0</ele><time>2026-04-15T11:56:39Z</time></trkpt><trkpt lat="36.974504398690996" lon="14.832498873804504"><ele>462.0</ele><time>2026-04-15T11:56:40Z</time></trkpt><trkpt lat="36.97434979350944" lon="14.832656388360363"><ele>462.0</ele><time>2026-04-15T11:56:41Z</time></trkpt><trkpt lat="36.97420382106206" lon="14.832859397279545"><ele>461.0</ele><time>2026-04-15T11:56:42Z</time></trkpt><trkpt lat="36.97405418872313" lon="14.833053250925314"><ele>460.0</ele><time>2026-04-15T11:56:43Z</time></trkpt><trkpt lat="36.97391158487699" lon="14.833208474777832"><ele>459.0</ele><time>2026-04-15T11:56:44Z</time></trkpt><trkpt lat="36.973770382403934" lon="14.833343680057233"><ele>456.0</ele><time>2026-04-15T11:56:45Z</time></trkpt><trkpt lat="36.97365242885066" lon="14.833501393153712"><ele>453.0</ele><time>2026-04-15T11:56:46Z</time></trkpt><trkpt lat="36.9735654578324" lon="14.833684573787963"><ele>450.0</ele><time>2026-04-15T11:56:47Z</time></trkpt><trkpt lat="36.973489988312124" lon="14.833904703796014"><ele>450.0</ele><time>2026-04-15T11:56:48Z</time></trkpt><trkpt lat="36.97342280298586" lon="14.834122806246281"><ele>450.0</ele><time>2026-04-15T11:56:49Z</time></trkpt><trkpt lat="36.97334754203024" lon="14.8343146504532"><ele>450.0</ele><time>2026-04-15T11:56:50Z</time></trkpt><trkpt lat="36.97323862299752" lon="14.83448133318228"><ele>449.33333333333337</ele><time>2026-04-15T11:56:51Z</time></trkpt><trkpt lat="36.97311886989514" lon="14.834635051550856"><ele>448.6666666666667</ele><time>2026-04-15T11:56:52Z</time></trkpt><trkpt lat="36.97298891044455" lon="14.834783942369578"><ele>448.0</ele><time>2026-04-15T11:56:53Z</time></trkpt><trkpt lat="36.97285626526212" lon="14.834934452241763"><ele>448.0</ele><time>2026-04-15T11:56:54Z</time></trkpt><trkpt lat="36.97273705225642" lon="14.835095353178977"><ele>448.0</ele><time>2026-04-15T11:56:55Z</time></trkpt><trkpt lat="36.97262599020592" lon="14.835254692393608"><ele>448.0</ele><time>2026-04-15T11:56:56Z</time></trkpt><trkpt lat="36.97251052191702" lon="14.835403370598412"><ele>446.33333333333337</ele><time>2026-04-15T11:56:57Z</time></trkpt><trkpt lat="36.972404646681824" lon="14.835555811039283"><ele>444.66666666666663</ele><time>2026-04-15T11:56:58Z</time></trkpt><trkpt lat="36.972317589714656" lon="14.835718075797892"><ele>443.0</ele><time>2026-04-15T11:56:59Z</time></trkpt><trkpt lat="36.972232552495406" lon="14.835866809072963"><ele>442.25</ele><time>2026-04-15T11:57:00Z</time></trkpt><trkpt lat="36.97214457650884" lon="14.835986637680174"><ele>441.5</ele><time>2026-04-15T11:57:01Z</time></trkpt><trkpt lat="36.97205283310302" lon="14.836066956595515"><ele>440.75</ele><time>2026-04-15T11:57:02Z</time></trkpt><trkpt lat="36.971951861330254" lon="14.836124934008122"><ele>440.0</ele><time>2026-04-15T11:57:03Z</time></trkpt><trkpt lat="36.97184313407403" lon="14.836187797741792"><ele>440.0</ele><time>2026-04-15T11:57:04Z</time></trkpt><trkpt lat="36.97172283620434" lon="14.836256648278939"><ele>440.0</ele><time>2026-04-15T11:57:05Z</time></trkpt><trkpt lat="36.97159741984102" lon="14.836334785775774"><ele>440.0</ele><time>2026-04-15T11:57:06Z</time></trkpt><trkpt lat="36.971469689133" lon="14.83642342759325"><ele>440.0</ele><time>2026-04-15T11:57:07Z</time></trkpt><trkpt lat="36.971338650122064" lon="14.836521165072117"><ele>439.0</ele><time>2026-04-15T11:57:08Z</time></trkpt><trkpt lat="36.97120312601987" lon="14.836624477431219"><ele>438.0</ele><time>2026-04-15T11:57:09Z</time></trkpt><trkpt lat="36.97105927502706" lon="14.836716997904656"><ele>437.0</ele><time>2026-04-15T11:57:10Z</time></trkpt><trkpt lat="36.97090821670899" lon="14.83681265022022"><ele>435.3333333333333</ele><time>2026-04-15T11:57:11Z</time></trkpt><trkpt lat="36.97075776521011" lon="14.836908557426437"><ele>433.66666666666663</ele><time>2026-04-15T11:57:12Z</time></trkpt><trkpt lat="36.97060580966549" lon="14.837007727577786"><ele>432.0</ele><time>2026-04-15T11:57:13Z</time></trkpt><trkpt lat="36.97044812288322" lon="14.837103701966281"><ele>432.0</ele><time>2026-04-15T11:57:14Z</time></trkpt><trkpt lat="36.970288944515765" lon="14.83719826208569"><ele>432.0</ele><time>2026-04-15T11:57:15Z</time></trkpt><trkpt lat="36.970127356955814" lon="14.837293527640417"><ele>432.0</ele><time>2026-04-15T11:57:16Z</time></trkpt><trkpt lat="36.96996632481263" lon="14.837394001464897"><ele>431.66666666666663</ele><time>2026-04-15T11:57:17Z</time></trkpt><trkpt lat="36.9698070912737" lon="14.837505438311592"><ele>431.3333333333333</ele><time>2026-04-15T11:57:18Z</time></trkpt><trkpt lat="36.96965144324358" lon="14.837630367284241"><ele>431.0</ele><time>2026-04-15T11:57:19Z</time></trkpt><trkpt lat="36.96950036974154" lon="14.837768990044683"><ele>431.0</ele><time>2026-04-15T11:57:20Z</time></trkpt><trkpt lat="36.96935772784123" lon="14.83791413847524"><ele>431.0</ele><time>2026-04-15T11:57:21Z</time></trkpt><trkpt lat="36.96921023712499" lon="14.838059516505824"><ele>431.0</ele><time>2026-04-15T11:57:22Z</time></trkpt><trkpt lat="36.96905750290967" lon="14.838196943866414"><ele>429.66666666666663</ele><time>2026-04-15T11:57:23Z</time></trkpt><trkpt lat="36.9688997669977" lon="14.838326742437346"><ele>428.33333333333337</ele><time>2026-04-15T11:57:24Z</time></trkpt><trkpt lat="36.96873964513775" lon="14.838447445163064"><ele>427.0</ele><time>2026-04-15T11:57:25Z</time></trkpt><trkpt lat="36.968575677400054" lon="14.838565487697863"><ele>427.0</ele><time>2026-04-15T11:57:25.999Z</time></trkpt><trkpt lat="36.96841093362657" lon="14.838688630215373"><ele>427.0</ele><time>2026-04-15T11:57:26.999Z</time></trkpt><trkpt lat="36.968247148129905" lon="14.838814230571222"><ele>427.0</ele><time>2026-04-15T11:57:27.999Z</time></trkpt><trkpt lat="36.96807822552529" lon="14.838942692862185"><ele>427.0</ele><time>2026-04-15T11:57:28.999Z</time></trkpt><trkpt lat="36.96791260062168" lon="14.839070501430042"><ele>427.0</ele><time>2026-04-15T11:57:29.999Z</time></trkpt><trkpt lat="36.967739387765334" lon="14.839188923068267"><ele>427.0</ele><time>2026-04-15T11:57:30.999Z</time></trkpt><trkpt lat="36.96755966550868" lon="14.839294548287722"><ele>426.33333333333337</ele><time>2026-04-15T11:57:31.999Z</time></trkpt><trkpt lat="36.967378775986234" lon="14.839381698341766"><ele>425.66666666666663</ele><time>2026-04-15T11:57:32.999Z</time></trkpt><trkpt lat="36.967196363012086" lon="14.83944232906443"><ele>425.0</ele><time>2026-04-15T11:57:33.999Z</time></trkpt><trkpt lat="36.96700982922308" lon="14.839487505545925"><ele>425.0</ele><time>2026-04-15T11:57:34.999Z</time></trkpt><trkpt lat="36.96682135832154" lon="14.839531965955079"><ele>425.0</ele><time>2026-04-15T11:57:35.999Z</time></trkpt><trkpt lat="36.96662901834598" lon="14.839580125083362"><ele>425.0</ele><time>2026-04-15T11:57:36.999Z</time></trkpt><trkpt lat="36.9664288514932" lon="14.839636994827872"><ele>423.5</ele><time>2026-04-15T11:57:37.999Z</time></trkpt><trkpt lat="36.96621562239314" lon="14.839684913734446"><ele>422.0</ele><time>2026-04-15T11:57:38.999Z</time></trkpt><trkpt lat="36.96597616396681" lon="14.839707908541309"><ele>421.0</ele><time>2026-04-15T11:57:39.999Z</time></trkpt><trkpt lat="36.965738275896925" lon="14.839734418297386"><ele>420.0</ele><time>2026-04-15T11:57:40.999Z</time></trkpt><trkpt lat="36.96549732434938" lon="14.839790475018143"><ele>420.0</ele><time>2026-04-15T11:57:41.999Z</time></trkpt><trkpt lat="36.965271061142865" lon="14.839867736875249"><ele>420.0</ele><time>2026-04-15T11:57:42.999Z</time></trkpt><trkpt lat="36.96505612993269" lon="14.839949597372067"><ele>419.66666666666663</ele><time>2026-04-15T11:57:43.999Z</time></trkpt><trkpt lat="36.9648354454899" lon="14.840012060327243"><ele>419.3333333333333</ele><time>2026-04-15T11:57:44.999Z</time></trkpt><trkpt lat="36.96462106778541" lon="14.840047182433134"><ele>419.0</ele><time>2026-04-15T11:57:45.999Z</time></trkpt><trkpt lat="36.96441968844545" lon="14.840062166902726"><ele>419.0</ele><time>2026-04-15T11:57:46.999Z</time></trkpt><trkpt lat="36.964211611230624" lon="14.840032115811631"><ele>419.0</ele><time>2026-04-15T11:57:47.999Z</time></trkpt><trkpt lat="36.964007687474975" lon="14.839991687663575"><ele>419.0</ele><time>2026-04-15T11:57:48.999Z</time></trkpt><trkpt lat="36.963814420675504" lon="14.839961053804563"><ele>418.0</ele><time>2026-04-15T11:57:49.999Z</time></trkpt><trkpt lat="36.963637272057454" lon="14.839941675155096"><ele>417.0</ele><time>2026-04-15T11:57:50.999Z</time></trkpt><trkpt lat="36.96347998699562" lon="14.839932498110175"><ele>416.0</ele><time>2026-04-15T11:57:51.999Z</time></trkpt><trkpt lat="36.963332161407465" lon="14.839937397179687"><ele>415.25</ele><time>2026-04-15T11:57:52.999Z</time></trkpt><trkpt lat="36.963192145381484" lon="14.8399526973392"><ele>414.5</ele><time>2026-04-15T11:57:53.999Z</time></trkpt><trkpt lat="36.96306089608076" lon="14.83998145988423"><ele>413.75</ele><time>2026-04-15T11:57:54.999Z</time></trkpt><trkpt lat="36.9629350437223" lon="14.840010982249924"><ele>413.0</ele><time>2026-04-15T11:57:55.999Z</time></trkpt><trkpt lat="36.96280859956652" lon="14.840039857783138"><ele>413.0</ele><time>2026-04-15T11:57:56.999Z</time></trkpt><trkpt lat="36.96268639713682" lon="14.840075644715231"><ele>413.0</ele><time>2026-04-15T11:57:57.999Z</time></trkpt><trkpt lat="36.96256675223479" lon="14.840116554957703"><ele>413.0</ele><time>2026-04-15T11:57:58.999Z</time></trkpt><trkpt lat="36.96244108177788" lon="14.840144665690762"><ele>413.0</ele><time>2026-04-15T11:57:59.999Z</time></trkpt><trkpt lat="36.96232135868573" lon="14.840150794968658"><ele>413.2</ele><time>2026-04-15T11:58:00.999Z</time></trkpt><trkpt lat="36.96220269326934" lon="14.84013254027519"><ele>413.4</ele><time>2026-04-15T11:58:01.999Z</time></trkpt><trkpt lat="36.96209018616611" lon="14.840116355829466"><ele>413.59999999999997</ele><time>2026-04-15T11:58:02.999Z</time></trkpt><trkpt lat="36.96198396947462" lon="14.840102237955287"><ele>413.79999999999995</ele><time>2026-04-15T11:58:03.999Z</time></trkpt><trkpt lat="36.96187983851481" lon="14.840088973899537"><ele>414.0</ele><time>2026-04-15T11:58:04.999Z</time></trkpt><trkpt lat="36.96178011992601" lon="14.840078621700208"><ele>414.0</ele><time>2026-04-15T11:58:05.999Z</time></trkpt><trkpt lat="36.961685242614514" lon="14.840083006391493"><ele>414.0</ele><time>2026-04-15T11:58:06.999Z</time></trkpt><trkpt lat="36.96160450517276" lon="14.8400778941655"><ele>414.0</ele><time>2026-04-15T11:58:07.999Z</time></trkpt><trkpt lat="36.961540846268385" lon="14.840080086952893"><ele>414.0</ele><time>2026-04-15T11:58:08.999Z</time></trkpt><trkpt lat="36.961447933340665" lon="14.840091942633439"><ele>414.0</ele><time>2026-04-15T11:58:11.001Z</time></trkpt><trkpt lat="36.96138700473834" lon="14.840164759794904"><ele>414.0</ele><time>2026-04-15T11:58:48Z</time></trkpt><trkpt lat="36.9613759295254" lon="14.840249163396178"><ele>414.0</ele><time>2026-04-15T11:58:49Z</time></trkpt><trkpt lat="36.96139787132068" lon="14.840345619275823"><ele>414.0</ele><time>2026-04-15T11:58:50Z</time></trkpt><trkpt lat="36.96142311202501" lon="14.84044893597434"><ele>414.0</ele><time>2026-04-15T11:58:51Z</time></trkpt><trkpt lat="36.96145597687171" lon="14.840582623330421"><ele>414.0</ele><time>2026-04-15T11:58:52Z</time></trkpt><trkpt lat="36.96147781497329" lon="14.840703111214086"><ele>414.0</ele><time>2026-04-15T11:58:53Z</time></trkpt><trkpt lat="36.961489992392195" lon="14.8408414490994"><ele>413.75</ele><time>2026-04-15T11:58:54Z</time></trkpt><trkpt lat="36.96149926893601" lon="14.840996294375959"><ele>413.5</ele><time>2026-04-15T11:58:55Z</time></trkpt><trkpt lat="36.96149774968135" lon="14.841165047525376"><ele>413.25</ele><time>2026-04-15T11:58:56Z</time></trkpt><trkpt lat="36.961486311423066" lon="14.84135015576557"><ele>413.0</ele><time>2026-04-15T11:58:57Z</time></trkpt><trkpt lat="36.96147221711944" lon="14.841525194006573"><ele>413.0</ele><time>2026-04-15T11:58:58Z</time></trkpt><trkpt lat="36.96145098872369" lon="14.841711743353175"><ele>413.0</ele><time>2026-04-15T11:58:59Z</time></trkpt><trkpt lat="36.96142078017759" lon="14.841899635845976"><ele>413.0</ele><time>2026-04-15T11:59:00Z</time></trkpt><trkpt lat="36.9613865736235" lon="14.84209112619637"><ele>413.0</ele><time>2026-04-15T11:59:01Z</time></trkpt><trkpt lat="36.96135177813844" lon="14.842291386246904"><ele>413.0</ele><time>2026-04-15T11:59:02Z</time></trkpt><trkpt lat="36.96131459657681" lon="14.842497967584983"><ele>413.0</ele><time>2026-04-15T11:59:03Z</time></trkpt><trkpt lat="36.961269741422306" lon="14.842725010146797"><ele>414.66666666666663</ele><time>2026-04-15T11:59:04Z</time></trkpt><trkpt lat="36.961204742787636" lon="14.842977444867223"><ele>416.33333333333337</ele><time>2026-04-15T11:59:05Z</time></trkpt><trkpt lat="36.96113166089918" lon="14.843208942875451"><ele>418.0</ele><time>2026-04-15T11:59:06Z</time></trkpt><trkpt lat="36.96104119989439" lon="14.843437978441496"><ele>418.33333333333337</ele><time>2026-04-15T11:59:07Z</time></trkpt><trkpt lat="36.96093110790993" lon="14.843674188174372"><ele>418.66666666666663</ele><time>2026-04-15T11:59:08Z</time></trkpt><trkpt lat="36.96082003812145" lon="14.843924835389009"><ele>419.0</ele><time>2026-04-15T11:59:09Z</time></trkpt><trkpt lat="36.96070657227597" lon="14.844187497285825"><ele>423.0</ele><time>2026-04-15T11:59:10Z</time></trkpt><trkpt lat="36.960592495447536" lon="14.84445013599006"><ele>427.0</ele><time>2026-04-15T11:59:11Z</time></trkpt><trkpt lat="36.96047948069945" lon="14.844709018306709"><ele>427.0</ele><time>2026-04-15T11:59:12Z</time></trkpt><trkpt lat="36.96038347644565" lon="14.844941011353777"><ele>427.0</ele><time>2026-04-15T11:59:13Z</time></trkpt><trkpt lat="36.96029165702135" lon="14.845144629417772"><ele>427.0</ele><time>2026-04-15T11:59:14Z</time></trkpt><trkpt lat="36.96018995912796" lon="14.845299401450548"><ele>428.33333333333337</ele><time>2026-04-15T11:59:15Z</time></trkpt><trkpt lat="36.96007489723932" lon="14.845397011013493"><ele>429.66666666666663</ele><time>2026-04-15T11:59:16Z</time></trkpt><trkpt lat="36.959930885517366" lon="14.845457048580505"><ele>431.0</ele><time>2026-04-15T11:59:17Z</time></trkpt><trkpt lat="36.95976194723577" lon="14.84549353512516"><ele>431.0</ele><time>2026-04-15T11:59:18Z</time></trkpt><trkpt lat="36.95958831726987" lon="14.845516904849134"><ele>431.0</ele><time>2026-04-15T11:59:19Z</time></trkpt><trkpt lat="36.95942815033018" lon="14.845533039063618"><ele>431.0</ele><time>2026-04-15T11:59:20Z</time></trkpt><trkpt lat="36.959300898632755" lon="14.845576808657302"><ele>431.0</ele><time>2026-04-15T11:59:21Z</time></trkpt><trkpt lat="36.95921743094007" lon="14.845662410525097"><ele>431.0</ele><time>2026-04-15T11:59:22Z</time></trkpt><trkpt lat="36.95917588070115" lon="14.845775103764487"><ele>431.0</ele><time>2026-04-15T11:59:23Z</time></trkpt><trkpt lat="36.95916411692937" lon="14.845916968793507"><ele>431.0</ele><time>2026-04-15T11:59:23.999Z</time></trkpt><trkpt lat="36.95916822706484" lon="14.846085159347506"><ele>435.66666666666663</ele><time>2026-04-15T11:59:24.999Z</time></trkpt><trkpt lat="36.95917780956346" lon="14.846283579364535"><ele>440.33333333333337</ele><time>2026-04-15T11:59:25.999Z</time></trkpt><trkpt lat="36.959178101576995" lon="14.846497046909514"><ele>445.0</ele><time>2026-04-15T11:59:26.999Z</time></trkpt><trkpt lat="36.95916841990574" lon="14.846683191020285"><ele>446.4</ele><time>2026-04-15T11:59:27.999Z</time></trkpt><trkpt lat="36.959156058473155" lon="14.84683443793555"><ele>447.8</ele><time>2026-04-15T11:59:28.999Z</time></trkpt><trkpt lat="36.95912314775129" lon="14.846949875654719"><ele>449.20000000000005</ele><time>2026-04-15T11:59:29.999Z</time></trkpt><trkpt lat="36.95906480540006" lon="14.847047545342576"><ele>450.6</ele><time>2026-04-15T11:59:30.999Z</time></trkpt><trkpt lat="36.958980074614004" lon="14.847150848701604"><ele>452.0</ele><time>2026-04-15T11:59:31.999Z</time></trkpt><trkpt lat="36.95888176696746" lon="14.847271116854499"><ele>452.0</ele><time>2026-04-15T11:59:32.999Z</time></trkpt><trkpt lat="36.95877264365434" lon="14.847416272589035"><ele>452.0</ele><time>2026-04-15T11:59:33.999Z</time></trkpt><trkpt lat="36.95865314155563" lon="14.847578650177443"><ele>452.0</ele><time>2026-04-15T11:59:34.999Z</time></trkpt><trkpt lat="36.958536142537234" lon="14.84774697603788"><ele>453.0</ele><time>2026-04-15T11:59:35.999Z</time></trkpt><trkpt lat="36.958441209423405" lon="14.847896269088402"><ele>454.0</ele><time>2026-04-15T11:59:36.999Z</time></trkpt><trkpt lat="36.95836768810891" lon="14.848018990310553"><ele>455.0</ele><time>2026-04-15T11:59:37.999Z</time></trkpt><trkpt lat="36.95832167402997" lon="14.848158878446414"><ele>456.0</ele><time>2026-04-15T11:59:38.999Z</time></trkpt><trkpt lat="36.95829030097461" lon="14.848310278435479"><ele>456.0</ele><time>2026-04-15T11:59:39.999Z</time></trkpt><trkpt lat="36.958261111476546" lon="14.84845350613823"><ele>456.0</ele><time>2026-04-15T11:59:40.999Z</time></trkpt><trkpt lat="36.95823667666533" lon="14.848597907433014"><ele>456.0</ele><time>2026-04-15T11:59:41.999Z</time></trkpt><trkpt lat="36.958206078361314" lon="14.848745976695747"><ele>456.0</ele><time>2026-04-15T11:59:42.999Z</time></trkpt><trkpt lat="36.95817378825376" lon="14.848902358843961"><ele>455.0</ele><time>2026-04-15T11:59:43.999Z</time></trkpt><trkpt lat="36.95814474289935" lon="14.849082448574267"><ele>454.0</ele><time>2026-04-15T11:59:44.999Z</time></trkpt><trkpt lat="36.95812013565776" lon="14.849282577227648"><ele>453.0</ele><time>2026-04-15T11:59:45.999Z</time></trkpt><trkpt lat="36.95809618966259" lon="14.849481394846775"><ele>450.66666666666663</ele><time>2026-04-15T11:59:46.999Z</time></trkpt><trkpt lat="36.95807380210144" lon="14.849700230814284"><ele>448.3333333333333</ele><time>2026-04-15T11:59:47.999Z</time></trkpt><trkpt lat="36.958042701632856" lon="14.849931304376824"><ele>446.0</ele><time>2026-04-15T11:59:48.999Z</time></trkpt><trkpt lat="36.95800460992725" lon="14.85017410666712"><ele>445.3333333333333</ele><time>2026-04-15T11:59:49.999Z</time></trkpt><trkpt lat="36.957963238234804" lon="14.850420039987641"><ele>444.66666666666663</ele><time>2026-04-15T11:59:50.999Z</time></trkpt><trkpt lat="36.957910171018234" lon="14.850672042936075"><ele>444.0</ele><time>2026-04-15T11:59:51.999Z</time></trkpt><trkpt lat="36.957856162298405" lon="14.85092329150408"><ele>444.66666666666663</ele><time>2026-04-15T11:59:52.999Z</time></trkpt><trkpt lat="36.95780923652658" lon="14.851158408656898"><ele>445.3333333333333</ele><time>2026-04-15T11:59:53.999Z</time></trkpt><trkpt lat="36.957764372139245" lon="14.851377423683488"><ele>446.0</ele><time>2026-04-15T11:59:54.999Z</time></trkpt><trkpt lat="36.95773846097502" lon="14.851559713267022"><ele>446.0</ele><time>2026-04-15T11:59:55.999Z</time></trkpt><trkpt lat="36.957745723964244" lon="14.85175152441496"><ele>446.0</ele><time>2026-04-15T11:59:56.999Z</time></trkpt><trkpt lat="36.95778774510334" lon="14.851945296241295"><ele>446.0</ele><time>2026-04-15T11:59:57.999Z</time></trkpt><trkpt lat="36.9578314625724" lon="14.852119749992436"><ele>445.25</ele><time>2026-04-15T11:59:58.999Z</time></trkpt><trkpt lat="36.95783642933028" lon="14.852276859447514"><ele>444.5</ele><time>2026-04-15T11:59:59.999Z</time></trkpt><trkpt lat="36.95780501485865" lon="14.852420685124258"><ele>443.75</ele><time>2026-04-15T12:00:00.999Z</time></trkpt><trkpt lat="36.957735157178924" lon="14.85253557137965"><ele>443.0</ele><time>2026-04-15T12:00:01.999Z</time></trkpt><trkpt lat="36.957655177961" lon="14.852638594946907"><ele>441.0</ele><time>2026-04-15T12:00:02.999Z</time></trkpt><trkpt lat="36.95758711054007" lon="14.852763468722848"><ele>439.0</ele><time>2026-04-15T12:00:03.999Z</time></trkpt><trkpt lat="36.95755348362204" lon="14.85293135408027"><ele>437.0</ele><time>2026-04-15T12:00:04.999Z</time></trkpt><trkpt lat="36.95755032913628" lon="14.853119407831814"><ele>435.0</ele><time>2026-04-15T12:00:05.999Z</time></trkpt><trkpt lat="36.95757591163322" lon="14.853316884236865"><ele>431.0</ele><time>2026-04-15T12:00:06.999Z</time></trkpt><trkpt lat="36.95760076231023" lon="14.853522214136547"><ele>427.0</ele><time>2026-04-15T12:00:07.999Z</time></trkpt><trkpt lat="36.95761417124964" lon="14.853716723157445"><ele>423.0</ele><time>2026-04-15T12:00:08.999Z</time></trkpt><trkpt lat="36.957633994201245" lon="14.853898162594486"><ele>423.0</ele><time>2026-04-15T12:00:09.999Z</time></trkpt><trkpt lat="36.95767306608307" lon="14.854058752633014"><ele>423.0</ele><time>2026-04-15T12:00:10.999Z</time></trkpt><trkpt lat="36.9577395342125" lon="14.854173792916285"><ele>423.0</ele><time>2026-04-15T12:00:11.999Z</time></trkpt><trkpt lat="36.957827994743866" lon="14.854246350046022"><ele>423.0</ele><time>2026-04-15T12:00:12.999Z</time></trkpt><trkpt lat="36.957930380436295" lon="14.854268898897061"><ele>423.0</ele><time>2026-04-15T12:00:13.999Z</time></trkpt><trkpt lat="36.958038168736266" lon="14.854247492230796"><ele>423.0</ele><time>2026-04-15T12:00:14.999Z</time></trkpt><trkpt lat="36.95814156959689" lon="14.854171751698937"><ele>423.0</ele><time>2026-04-15T12:00:16Z</time></trkpt><trkpt lat="36.958255524312534" lon="14.85405919269475"><ele>423.0</ele><time>2026-04-15T12:00:17Z</time></trkpt><trkpt lat="36.95838705271393" lon="14.853948265165696"><ele>422.75</ele><time>2026-04-15T12:00:18Z</time></trkpt><trkpt lat="36.958516756028054" lon="14.853843565216462"><ele>422.5</ele><time>2026-04-15T12:00:19Z</time></trkpt><trkpt lat="36.95862915061425" lon="14.853741132268262"><ele>422.25</ele><time>2026-04-15T12:00:20Z</time></trkpt><trkpt lat="36.958729038640804" lon="14.85364841556315"><ele>422.0</ele><time>2026-04-15T12:00:21Z</time></trkpt><trkpt lat="36.95882208641492" lon="14.853583513066503"><ele>422.0</ele><time>2026-04-15T12:00:22Z</time></trkpt><trkpt lat="36.958916035932226" lon="14.853558274104158"><ele>422.0</ele><time>2026-04-15T12:00:23Z</time></trkpt><trkpt lat="36.95900969797564" lon="14.853568121178698"><ele>422.0</ele><time>2026-04-15T12:00:24Z</time></trkpt><trkpt lat="36.95909058370153" lon="14.853620621784064"><ele>422.0</ele><time>2026-04-15T12:00:25Z</time></trkpt><trkpt lat="36.959169866358216" lon="14.853722300607659"><ele>422.0</ele><time>2026-04-15T12:00:26Z</time></trkpt><trkpt lat="36.9592617573057" lon="14.853855044926235"><ele>422.25</ele><time>2026-04-15T12:00:27Z</time></trkpt><trkpt lat="36.95936110451007" lon="14.8539819428677"><ele>422.5</ele><time>2026-04-15T12:00:28Z</time></trkpt><trkpt lat="36.959458624099966" lon="14.854092637054126"><ele>422.75</ele><time>2026-04-15T12:00:29Z</time></trkpt><trkpt lat="36.959553416477206" lon="14.854202710427149"><ele>423.0</ele><time>2026-04-15T12:00:30Z</time></trkpt><trkpt lat="36.95963198150732" lon="14.854313155770946"><ele>423.0</ele><time>2026-04-15T12:00:31Z</time></trkpt><trkpt lat="36.959684151792075" lon="14.85442623586625"><ele>423.0</ele><time>2026-04-15T12:00:32Z</time></trkpt><trkpt lat="36.9597204987615" lon="14.85455416867608"><ele>423.0</ele><time>2026-04-15T12:00:33Z</time></trkpt><trkpt lat="36.95972061136697" lon="14.854690268434197"><ele>423.0</ele><time>2026-04-15T12:00:34Z</time></trkpt><trkpt lat="36.95968292967487" lon="14.854838408575674"><ele>423.0</ele><time>2026-04-15T12:00:35Z</time></trkpt><trkpt lat="36.959619966188725" lon="14.85500793727027"><ele>424.0</ele><time>2026-04-15T12:00:36Z</time></trkpt><trkpt lat="36.959554151628836" lon="14.855183565100345"><ele>425.0</ele><time>2026-04-15T12:00:37Z</time></trkpt><trkpt lat="36.9594872354244" lon="14.855349334849087"><ele>426.0</ele><time>2026-04-15T12:00:38Z</time></trkpt><trkpt lat="36.95939965724636" lon="14.855499457980772"><ele>426.0</ele><time>2026-04-15T12:00:39Z</time></trkpt><trkpt lat="36.959303108844004" lon="14.855640694537872"><ele>426.0</ele><time>2026-04-15T12:00:40Z</time></trkpt><trkpt lat="36.95920424040118" lon="14.855788054127594"><ele>426.0</ele><time>2026-04-15T12:00:41Z</time></trkpt><trkpt lat="36.95910355664992" lon="14.85593642599541"><ele>421.0</ele><time>2026-04-15T12:00:42Z</time></trkpt><trkpt lat="36.959003868982485" lon="14.856080993332426"><ele>416.0</ele><time>2026-04-15T12:00:43Z</time></trkpt><trkpt lat="36.95890537949945" lon="14.856222388564497"><ele>411.0</ele><time>2026-04-15T12:00:44Z</time></trkpt><trkpt lat="36.95880596738087" lon="14.85636796033116"><ele>411.0</ele><time>2026-04-15T12:00:45Z</time></trkpt><trkpt lat="36.9587026184443" lon="14.856515724090002"><ele>411.0</ele><time>2026-04-15T12:00:46Z</time></trkpt><trkpt lat="36.958600428664624" lon="14.856655376286714"><ele>411.0</ele><time>2026-04-15T12:00:47Z</time></trkpt><trkpt lat="36.95850295504065" lon="14.856791865526104"><ele>412.25</ele><time>2026-04-15T12:00:48Z</time></trkpt><trkpt lat="36.95841100556173" lon="14.85693213705709"><ele>413.5</ele><time>2026-04-15T12:00:49Z</time></trkpt><trkpt lat="36.95832615322097" lon="14.857065234945974"><ele>414.75</ele><time>2026-04-15T12:00:50Z</time></trkpt><trkpt lat="36.95824185879977" lon="14.857204559926355"><ele>416.0</ele><time>2026-04-15T12:00:51Z</time></trkpt><trkpt lat="36.958172303743076" lon="14.857356602903936"><ele>410.66666666666663</ele><time>2026-04-15T12:00:52Z</time></trkpt><trkpt lat="36.95812658400638" lon="14.857530362012008"><ele>405.33333333333337</ele><time>2026-04-15T12:00:53Z</time></trkpt><trkpt lat="36.95809284820834" lon="14.85771773686596"><ele>400.0</ele><time>2026-04-15T12:00:54Z</time></trkpt><trkpt lat="36.95805821057025" lon="14.857907746939668"><ele>400.0</ele><time>2026-04-15T12:00:55Z</time></trkpt><trkpt lat="36.95802188031689" lon="14.858100215245988"><ele>400.0</ele><time>2026-04-15T12:00:56Z</time></trkpt><trkpt lat="36.95798310386157" lon="14.858294681443615"><ele>400.0</ele><time>2026-04-15T12:00:57Z</time></trkpt><trkpt lat="36.95794188770938" lon="14.85849784578329"><ele>399.33333333333337</ele><time>2026-04-15T12:00:58Z</time></trkpt><trkpt lat="36.95790701831443" lon="14.858699398060862"><ele>398.66666666666663</ele><time>2026-04-15T12:00:59Z</time></trkpt><trkpt lat="36.95786913309174" lon="14.858907368314672"><ele>398.0</ele><time>2026-04-15T12:01:00Z</time></trkpt><trkpt lat="36.957835483835396" lon="14.85912281758559"><ele>400.0</ele><time>2026-04-15T12:01:01Z</time></trkpt><trkpt lat="36.95780021742012" lon="14.859343406371586"><ele>402.0</ele><time>2026-04-15T12:01:02Z</time></trkpt><trkpt lat="36.9577560167294" lon="14.8595668473128"><ele>404.0</ele><time>2026-04-15T12:01:03Z</time></trkpt><trkpt lat="36.95770473323422" lon="14.859799218716452"><ele>404.0</ele><time>2026-04-15T12:01:04Z</time></trkpt><trkpt lat="36.95765562792275" lon="14.860030865731929"><ele>404.0</ele><time>2026-04-15T12:01:05Z</time></trkpt><trkpt lat="36.95760684491323" lon="14.86025365234376"><ele>404.0</ele><time>2026-04-15T12:01:06Z</time></trkpt><trkpt lat="36.957581752575855" lon="14.860488262311792"><ele>404.66666666666663</ele><time>2026-04-15T12:01:07Z</time></trkpt><trkpt lat="36.957577605067705" lon="14.860742582360713"><ele>405.33333333333337</ele><time>2026-04-15T12:01:08Z</time></trkpt><trkpt lat="36.95758201130145" lon="14.86098404349127"><ele>406.0</ele><time>2026-04-15T12:01:09Z</time></trkpt><trkpt lat="36.95759599268008" lon="14.861212400037335"><ele>404.0</ele><time>2026-04-15T12:01:10Z</time></trkpt><trkpt lat="36.95762021130699" lon="14.8614299286906"><ele>402.0</ele><time>2026-04-15T12:01:11Z</time></trkpt><trkpt lat="36.95764915656278" lon="14.86162229984335"><ele>400.0</ele><time>2026-04-15T12:01:12Z</time></trkpt><trkpt lat="36.95764612566845" lon="14.861798189314753"><ele>400.0</ele><time>2026-04-15T12:01:13Z</time></trkpt><trkpt lat="36.95760071832227" lon="14.861965074771607"><ele>400.0</ele><time>2026-04-15T12:01:14Z</time></trkpt><trkpt lat="36.95753552604294" lon="14.86213212417913"><ele>400.0</ele><time>2026-04-15T12:01:15Z</time></trkpt><trkpt lat="36.957499723535605" lon="14.862323062310375"><ele>400.0</ele><time>2026-04-15T12:01:16Z</time></trkpt><trkpt lat="36.957498451006245" lon="14.862523386583447"><ele>397.25</ele><time>2026-04-15T12:01:16.999Z</time></trkpt><trkpt lat="36.95748361861403" lon="14.862701939857827"><ele>394.5</ele><time>2026-04-15T12:01:17.999Z</time></trkpt><trkpt lat="36.95743355420634" lon="14.862833719563323"><ele>391.75</ele><time>2026-04-15T12:01:18.999Z</time></trkpt><trkpt lat="36.957348235890876" lon="14.862949380424789"><ele>389.0</ele><time>2026-04-15T12:01:19.999Z</time></trkpt><trkpt lat="36.95724055875825" lon="14.863065003225444"><ele>389.0</ele><time>2026-04-15T12:01:20.999Z</time></trkpt><trkpt lat="36.957161832207035" lon="14.863202216233582"><ele>389.0</ele><time>2026-04-15T12:01:21.999Z</time></trkpt><trkpt lat="36.957137166878034" lon="14.863363231383433"><ele>389.0</ele><time>2026-04-15T12:01:22.999Z</time></trkpt><trkpt lat="36.957152230739446" lon="14.863524218293934"><ele>389.0</ele><time>2026-04-15T12:01:23.999Z</time></trkpt><trkpt lat="36.95720228512534" lon="14.863687290283854"><ele>387.0</ele><time>2026-04-15T12:01:24.999Z</time></trkpt><trkpt lat="36.957276068072524" lon="14.863870079685828"><ele>385.0</ele><time>2026-04-15T12:01:25.999Z</time></trkpt><trkpt lat="36.95735952483159" lon="14.864061162031843"><ele>383.0</ele><time>2026-04-15T12:01:26.999Z</time></trkpt><trkpt lat="36.9574681321386" lon="14.864232085869924"><ele>384.33333333333337</ele><time>2026-04-15T12:01:27.999Z</time></trkpt><trkpt lat="36.95756574575964" lon="14.864392454182074"><ele>385.6666666666667</ele><time>2026-04-15T12:01:28.999Z</time></trkpt><trkpt lat="36.95764124881528" lon="14.86456719888926"><ele>387.0</ele><time>2026-04-15T12:01:29.999Z</time></trkpt><trkpt lat="36.95769769463551" lon="14.864756145737996"><ele>387.0</ele><time>2026-04-15T12:01:30.999Z</time></trkpt><trkpt lat="36.95771991555989" lon="14.864962857434767"><ele>387.0</ele><time>2026-04-15T12:01:31.999Z</time></trkpt><trkpt lat="36.957719499763655" lon="14.865191633372707"><ele>387.0</ele><time>2026-04-15T12:01:32.999Z</time></trkpt><trkpt lat="36.957711961478815" lon="14.865450900563939"><ele>388.5</ele><time>2026-04-15T12:01:33.999Z</time></trkpt><trkpt lat="36.957709368014825" lon="14.865730881163955"><ele>390.0</ele><time>2026-04-15T12:01:34.999Z</time></trkpt><trkpt lat="36.95771318250475" lon="14.866024672498133"><ele>392.33333333333337</ele><time>2026-04-15T12:01:35.999Z</time></trkpt><trkpt lat="36.95771535558289" lon="14.866319586402929"><ele>394.6666666666667</ele><time>2026-04-15T12:01:36.999Z</time></trkpt><trkpt lat="36.9577127272735" lon="14.8665797012674"><ele>397.0</ele><time>2026-04-15T12:01:37.999Z</time></trkpt><trkpt lat="36.957699238443574" lon="14.866786988910025"><ele>397.75</ele><time>2026-04-15T12:01:38.999Z</time></trkpt><trkpt lat="36.95766324633758" lon="14.86695181991422"><ele>398.5</ele><time>2026-04-15T12:01:39.999Z</time></trkpt><trkpt lat="36.9575918820135" lon="14.867089207247584"><ele>399.25</ele><time>2026-04-15T12:01:40.999Z</time></trkpt><trkpt lat="36.95748259579281" lon="14.867201932772472"><ele>400.0</ele><time>2026-04-15T12:01:41.999Z</time></trkpt><trkpt lat="36.95734769599327" lon="14.867291495423462"><ele>398.5</ele><time>2026-04-15T12:01:42.999Z</time></trkpt><trkpt lat="36.95722692223771" lon="14.867384338493853"><ele>397.0</ele><time>2026-04-15T12:01:43.999Z</time></trkpt><trkpt lat="36.95713578447284" lon="14.867500793501957"><ele>395.5</ele><time>2026-04-15T12:01:44.999Z</time></trkpt><trkpt lat="36.95705495243351" lon="14.867642601997765"><ele>394.0</ele><time>2026-04-15T12:01:45.999Z</time></trkpt><trkpt lat="36.95698022907396" lon="14.867796152383846"><ele>393.75</ele><time>2026-04-15T12:01:46.999Z</time></trkpt><trkpt lat="36.956917998195856" lon="14.867939590600688"><ele>393.5</ele><time>2026-04-15T12:01:47.999Z</time></trkpt><trkpt lat="36.956882145641075" lon="14.868080288876797"><ele>393.25</ele><time>2026-04-15T12:01:48.999Z</time></trkpt><trkpt lat="36.9568866388764" lon="14.86822134816199"><ele>393.0</ele><time>2026-04-15T12:01:49.999Z</time></trkpt><trkpt lat="36.9569333971609" lon="14.868355891639814"><ele>392.25</ele><time>2026-04-15T12:01:50.999Z</time></trkpt><trkpt lat="36.95701100012316" lon="14.868478302788908"><ele>391.5</ele><time>2026-04-15T12:01:51.999Z</time></trkpt><trkpt lat="36.95709483494806" lon="14.868596473620942"><ele>390.75</ele><time>2026-04-15T12:01:52.999Z</time></trkpt><trkpt lat="36.95713749289303" lon="14.868720609890227"><ele>390.0</ele><time>2026-04-15T12:01:53.999Z</time></trkpt><trkpt lat="36.957150206602904" lon="14.868849017585342"><ele>390.0</ele><time>2026-04-15T12:01:54.999Z</time></trkpt><trkpt lat="36.957139869643996" lon="14.868975859212872"><ele>390.0</ele><time>2026-04-15T12:01:55.999Z</time></trkpt><trkpt lat="36.9570982106852" lon="14.86910479552655"><ele>390.0</ele><time>2026-04-15T12:01:56.999Z</time></trkpt><trkpt lat="36.95704228915851" lon="14.869214763058947"><ele>390.0</ele><time>2026-04-15T12:01:57.999Z</time></trkpt><trkpt lat="36.956973293429684" lon="14.869325414637805"><ele>390.0</ele><time>2026-04-15T12:01:58.999Z</time></trkpt><trkpt lat="36.9568930179281" lon="14.869439842472728"><ele>389.75</ele><time>2026-04-15T12:01:59.999Z</time></trkpt><trkpt lat="36.95680843890698" lon="14.869551971494966"><ele>389.5</ele><time>2026-04-15T12:02:00.999Z</time></trkpt><trkpt lat="36.95673938872113" lon="14.869669862017398"><ele>389.25</ele><time>2026-04-15T12:02:01.999Z</time></trkpt><trkpt lat="36.95669604195663" lon="14.869825118056905"><ele>389.0</ele><time>2026-04-15T12:02:02.999Z</time></trkpt><trkpt lat="36.956668006245" lon="14.870013513372236"><ele>387.75</ele><time>2026-04-15T12:02:03.999Z</time></trkpt><trkpt lat="36.9566309553613" lon="14.870189973708968"><ele>386.5</ele><time>2026-04-15T12:02:04.999Z</time></trkpt><trkpt lat="36.95659063566378" lon="14.8703603427341"><ele>385.25</ele><time>2026-04-15T12:02:05.999Z</time></trkpt><trkpt lat="36.95655382491148" lon="14.870529557794613"><ele>384.0</ele><time>2026-04-15T12:02:06.999Z</time></trkpt><trkpt lat="36.9565184171569" lon="14.870692727953083"><ele>384.0</ele><time>2026-04-15T12:02:07.999Z</time></trkpt><trkpt lat="36.956481060322226" lon="14.87084417150224"><ele>384.0</ele><time>2026-04-15T12:02:08.999Z</time></trkpt><trkpt lat="36.95642027942984" lon="14.870975627125883"><ele>384.0</ele><time>2026-04-15T12:02:09.999Z</time></trkpt><trkpt lat="36.95632861936274" lon="14.871095493616771"><ele>384.0</ele><time>2026-04-15T12:02:10.999Z</time></trkpt><trkpt lat="36.95621382050271" lon="14.87121333622926"><ele>382.75</ele><time>2026-04-15T12:02:11.999Z</time></trkpt><trkpt lat="36.956106406485965" lon="14.871319242059965"><ele>381.5</ele><time>2026-04-15T12:02:12.999Z</time></trkpt><trkpt lat="36.95600499080525" lon="14.871423475050676"><ele>380.25</ele><time>2026-04-15T12:02:13.999Z</time></trkpt><trkpt lat="36.955899839460486" lon="14.871524569415785"><ele>379.0</ele><time>2026-04-15T12:02:14.999Z</time></trkpt><trkpt lat="36.95579328499675" lon="14.871619462024418"><ele>379.0</ele><time>2026-04-15T12:02:15.999Z</time></trkpt><trkpt lat="36.95568633924408" lon="14.871717148718144"><ele>379.0</ele><time>2026-04-15T12:02:16.999Z</time></trkpt><trkpt lat="36.955576883194645" lon="14.871816825413772"><ele>379.0</ele><time>2026-04-15T12:02:17.999Z</time></trkpt><trkpt lat="36.95545978308637" lon="14.87191111018169"><ele>379.0</ele><time>2026-04-15T12:02:18.999Z</time></trkpt><trkpt lat="36.95533683157421" lon="14.871996711158781"><ele>377.0</ele><time>2026-04-15T12:02:19.999Z</time></trkpt><trkpt lat="36.955216355095395" lon="14.872079315775217"><ele>375.0</ele><time>2026-04-15T12:02:20.999Z</time></trkpt><trkpt lat="36.95509213303744" lon="14.872170405584018"><ele>373.0</ele><time>2026-04-15T12:02:22Z</time></trkpt><trkpt lat="36.95496566700806" lon="14.872259371889507"><ele>371.0</ele><time>2026-04-15T12:02:23Z</time></trkpt><trkpt lat="36.95483952882879" lon="14.872350690774063"><ele>371.0</ele><time>2026-04-15T12:02:24Z</time></trkpt><trkpt lat="36.95470237886425" lon="14.872444467000342"><ele>371.0</ele><time>2026-04-15T12:02:25Z</time></trkpt><trkpt lat="36.95455994548825" lon="14.872536255441188"><ele>371.0</ele><time>2026-04-15T12:02:26Z</time></trkpt><trkpt lat="36.95440458666305" lon="14.872615057678514"><ele>372.5</ele><time>2026-04-15T12:02:27Z</time></trkpt><trkpt lat="36.95425626608004" lon="14.872669021138819"><ele>374.0</ele><time>2026-04-15T12:02:28Z</time></trkpt><trkpt lat="36.95412472288755" lon="14.872722184880647"><ele>375.5</ele><time>2026-04-15T12:02:29Z</time></trkpt><trkpt lat="36.95402356667628" lon="14.872810561607258"><ele>377.0</ele><time>2026-04-15T12:02:30Z</time></trkpt><trkpt lat="36.953944340481534" lon="14.872949331990691"><ele>377.0</ele><time>2026-04-15T12:02:31Z</time></trkpt><trkpt lat="36.953877367971444" lon="14.8731428204322"><ele>377.0</ele><time>2026-04-15T12:02:32Z</time></trkpt><trkpt lat="36.95380720416363" lon="14.873356568658394"><ele>377.0</ele><time>2026-04-15T12:02:33Z</time></trkpt><trkpt lat="36.9537308456549" lon="14.873583172303679"><ele>375.33333333333337</ele><time>2026-04-15T12:02:34Z</time></trkpt><trkpt lat="36.95364923926144" lon="14.873824514826342"><ele>373.6666666666667</ele><time>2026-04-15T12:02:35Z</time></trkpt><trkpt lat="36.95357225180348" lon="14.874049901672148"><ele>372.0</ele><time>2026-04-15T12:02:36Z</time></trkpt><trkpt lat="36.95349250495461" lon="14.874282294272303"><ele>373.6666666666667</ele><time>2026-04-15T12:02:37Z</time></trkpt><trkpt lat="36.953418407010794" lon="14.87450704083568"><ele>375.33333333333337</ele><time>2026-04-15T12:02:38Z</time></trkpt><trkpt lat="36.95334669920722" lon="14.874714704943072"><ele>377.0</ele><time>2026-04-15T12:02:39Z</time></trkpt><trkpt lat="36.953266105617544" lon="14.87489857954034"><ele>377.0</ele><time>2026-04-15T12:02:40Z</time></trkpt><trkpt lat="36.953164098238275" lon="14.875058081953563"><ele>377.0</ele><time>2026-04-15T12:02:41Z</time></trkpt><trkpt lat="36.95304808817542" lon="14.875191324486517"><ele>377.0</ele><time>2026-04-15T12:02:42Z</time></trkpt><trkpt lat="36.952914417802006" lon="14.875293242802632"><ele>375.0</ele><time>2026-04-15T12:02:43Z</time></trkpt><trkpt lat="36.95277700031259" lon="14.875391818420372"><ele>373.0</ele><time>2026-04-15T12:02:44Z</time></trkpt><trkpt lat="36.95266093406606" lon="14.8755133732177"><ele>371.0</ele><time>2026-04-15T12:02:45Z</time></trkpt><trkpt lat="36.95255976029457" lon="14.875665763174661"><ele>371.33333333333337</ele><time>2026-04-15T12:02:46Z</time></trkpt><trkpt lat="36.95246372359921" lon="14.875854277571536"><ele>371.6666666666667</ele><time>2026-04-15T12:02:47Z</time></trkpt><trkpt lat="36.95236371364051" lon="14.876068635403605"><ele>372.0</ele><time>2026-04-15T12:02:48Z</time></trkpt><trkpt lat="36.952259878350546" lon="14.876286248734743"><ele>372.0</ele><time>2026-04-15T12:02:49Z</time></trkpt><trkpt lat="36.95216447666449" lon="14.876489707034441"><ele>372.0</ele><time>2026-04-15T12:02:50Z</time></trkpt><trkpt lat="36.95209097636406" lon="14.876681302316591"><ele>372.0</ele><time>2026-04-15T12:02:51Z</time></trkpt><trkpt lat="36.95204093374555" lon="14.876884613945995"><ele>372.0</ele><time>2026-04-15T12:02:52Z</time></trkpt><trkpt lat="36.95201268856493" lon="14.877111614174511"><ele>372.0</ele><time>2026-04-15T12:02:53Z</time></trkpt><trkpt lat="36.951996785473014" lon="14.877356866484835"><ele>372.0</ele><time>2026-04-15T12:02:54Z</time></trkpt><trkpt lat="36.951979613387444" lon="14.87756772831358"><ele>371.75</ele><time>2026-04-15T12:02:55Z</time></trkpt><trkpt lat="36.951951555511485" lon="14.8777487204147"><ele>371.5</ele><time>2026-04-15T12:02:56Z</time></trkpt><trkpt lat="36.95190939688514" lon="14.877897582425055"><ele>371.25</ele><time>2026-04-15T12:02:57Z</time></trkpt><trkpt lat="36.95183993254564" lon="14.878013667835907"><ele>371.0</ele><time>2026-04-15T12:02:58Z</time></trkpt><trkpt lat="36.951760982692534" lon="14.878119890629582"><ele>371.0</ele><time>2026-04-15T12:02:59Z</time></trkpt><trkpt lat="36.95172644594243" lon="14.878258517658134"><ele>371.0</ele><time>2026-04-15T12:03:00Z</time></trkpt><trkpt lat="36.95173937858132" lon="14.878424542836463"><ele>371.0</ele><time>2026-04-15T12:03:01Z</time></trkpt><trkpt lat="36.95177303295287" lon="14.878617318437747"><ele>371.0</ele><time>2026-04-15T12:03:02Z</time></trkpt><trkpt lat="36.951770650145484" lon="14.878810811107675"><ele>369.25</ele><time>2026-04-15T12:03:03Z</time></trkpt><trkpt lat="36.95174222315238" lon="14.878985903014978"><ele>367.5</ele><time>2026-04-15T12:03:04Z</time></trkpt><trkpt lat="36.95169792908447" lon="14.879149409985802"><ele>365.75</ele><time>2026-04-15T12:03:05Z</time></trkpt><trkpt lat="36.95161159172334" lon="14.879302786908015"><ele>364.0</ele><time>2026-04-15T12:03:06Z</time></trkpt><trkpt lat="36.951485946474406" lon="14.879462376794914"><ele>364.0</ele><time>2026-04-15T12:03:07Z</time></trkpt><trkpt lat="36.95136706369034" lon="14.879622252279985"><ele>364.0</ele><time>2026-04-15T12:03:08Z</time></trkpt><trkpt lat="36.9512737828814" lon="14.879785571536852"><ele>364.0</ele><time>2026-04-15T12:03:09Z</time></trkpt><trkpt lat="36.951190104132635" lon="14.87994170184269"><ele>364.0</ele><time>2026-04-15T12:03:10Z</time></trkpt><trkpt lat="36.95110663833024" lon="14.880091488693513"><ele>364.0</ele><time>2026-04-15T12:03:11Z</time></trkpt><trkpt lat="36.95101069870344" lon="14.880228159328565"><ele>364.0</ele><time>2026-04-15T12:03:12Z</time></trkpt><trkpt lat="36.95089561553626" lon="14.880332296353483"><ele>364.0</ele><time>2026-04-15T12:03:13Z</time></trkpt><trkpt lat="36.95076120076968" lon="14.880402569808416"><ele>361.0</ele><time>2026-04-15T12:03:14Z</time></trkpt><trkpt lat="36.950604362065896" lon="14.880463820770702"><ele>358.0</ele><time>2026-04-15T12:03:14.999Z</time></trkpt><trkpt lat="36.95042340920443" lon="14.880559482328843"><ele>355.0</ele><time>2026-04-15T12:03:15.999Z</time></trkpt><trkpt lat="36.950231251103126" lon="14.880679159406334"><ele>355.0</ele><time>2026-04-15T12:03:16.999Z</time></trkpt><trkpt lat="36.95006504429725" lon="14.880842767018473"><ele>355.0</ele><time>2026-04-15T12:03:17.999Z</time></trkpt><trkpt lat="36.94989433486362" lon="14.881007454050438"><ele>355.0</ele><time>2026-04-15T12:03:18.999Z</time></trkpt><trkpt lat="36.94972812532267" lon="14.881157273084513"><ele>350.0</ele><time>2026-04-15T12:03:19.999Z</time></trkpt><trkpt lat="36.94956996932444" lon="14.881287092572375"><ele>345.0</ele><time>2026-04-15T12:03:20.999Z</time></trkpt><trkpt lat="36.949416910399194" lon="14.881409003982029"><ele>340.0</ele><time>2026-04-15T12:03:21.999Z</time></trkpt><trkpt lat="36.949264647497266" lon="14.881512601840974"><ele>340.66666666666663</ele><time>2026-04-15T12:03:22.999Z</time></trkpt><trkpt lat="36.949110728768545" lon="14.881606619760218"><ele>341.3333333333333</ele><time>2026-04-15T12:03:23.999Z</time></trkpt><trkpt lat="36.94894903541674" lon="14.881700354072134"><ele>342.0</ele><time>2026-04-15T12:03:24.999Z</time></trkpt><trkpt lat="36.948779550057274" lon="14.881792544616467"><ele>342.0</ele><time>2026-04-15T12:03:25.999Z</time></trkpt><trkpt lat="36.948606583061284" lon="14.881886267627111"><ele>342.0</ele><time>2026-04-15T12:03:26.999Z</time></trkpt><trkpt lat="36.94842976161515" lon="14.8819853484411"><ele>342.0</ele><time>2026-04-15T12:03:27.999Z</time></trkpt><trkpt lat="36.948250149221316" lon="14.882089001870751"><ele>344.0</ele><time>2026-04-15T12:03:28.999Z</time></trkpt><trkpt lat="36.9480678762623" lon="14.882189820018402"><ele>346.0</ele><time>2026-04-15T12:03:29.999Z</time></trkpt><trkpt lat="36.947890623053475" lon="14.882284479047911"><ele>348.0</ele><time>2026-04-15T12:03:30.999Z</time></trkpt><trkpt lat="36.94772702154711" lon="14.8823687818635"><ele>348.0</ele><time>2026-04-15T12:03:31.999Z</time></trkpt><trkpt lat="36.94757129833257" lon="14.882449833130735"><ele>348.0</ele><time>2026-04-15T12:03:32.999Z</time></trkpt><trkpt lat="36.94742355735696" lon="14.882519067031886"><ele>348.0</ele><time>2026-04-15T12:03:33.999Z</time></trkpt><trkpt lat="36.94728255985541" lon="14.882571961948466"><ele>343.6666666666667</ele><time>2026-04-15T12:03:34.999Z</time></trkpt><trkpt lat="36.94713930893625" lon="14.882608130833164"><ele>339.33333333333337</ele><time>2026-04-15T12:03:35.999Z</time></trkpt><trkpt lat="36.94698331966902" lon="14.882635039809463"><ele>335.0</ele><time>2026-04-15T12:03:36.999Z</time></trkpt><trkpt lat="36.94680466502554" lon="14.882655000198733"><ele>335.6666666666667</ele><time>2026-04-15T12:03:37.999Z</time></trkpt><trkpt lat="36.94660416770436" lon="14.882704988565921"><ele>336.3333333333333</ele><time>2026-04-15T12:03:38.999Z</time></trkpt><trkpt lat="36.94638799715565" lon="14.882779568232781"><ele>337.0</ele><time>2026-04-15T12:03:39.999Z</time></trkpt><trkpt lat="36.94616332149821" lon="14.882847405927414"><ele>337.0</ele><time>2026-04-15T12:03:40.999Z</time></trkpt><trkpt lat="36.94594130434826" lon="14.882914154105862"><ele>337.0</ele><time>2026-04-15T12:03:41.999Z</time></trkpt><trkpt lat="36.94573338894189" lon="14.882983792047131"><ele>337.0</ele><time>2026-04-15T12:03:42.999Z</time></trkpt><trkpt lat="36.945538855893005" lon="14.883044040103828"><ele>338.25</ele><time>2026-04-15T12:03:43.999Z</time></trkpt><trkpt lat="36.94536252956544" lon="14.883091988971767"><ele>339.5</ele><time>2026-04-15T12:03:44.999Z</time></trkpt><trkpt lat="36.945225105299706" lon="14.883131753438649"><ele>340.75</ele><time>2026-04-15T12:03:45.999Z</time></trkpt><trkpt lat="36.945129680959006" lon="14.883183538009678"><ele>342.0</ele><time>2026-04-15T12:03:46.999Z</time></trkpt><trkpt lat="36.945051505667415" lon="14.883273618328836"><ele>342.6</ele><time>2026-04-15T12:03:47.999Z</time></trkpt><trkpt lat="36.944977206709254" lon="14.883385006635066"><ele>343.20000000000005</ele><time>2026-04-15T12:03:48.999Z</time></trkpt><trkpt lat="36.944904730950576" lon="14.883496308287903"><ele>343.8</ele><time>2026-04-15T12:03:49.999Z</time></trkpt><trkpt lat="36.944829006591824" lon="14.88358875816612"><ele>344.4</ele><time>2026-04-15T12:03:50.999Z</time></trkpt><trkpt lat="36.94477050512153" lon="14.883682555115511"><ele>345.0</ele><time>2026-04-15T12:03:51.999Z</time></trkpt><trkpt lat="36.94472712569483" lon="14.883794305871804"><ele>345.0</ele><time>2026-04-15T12:03:52.999Z</time></trkpt><trkpt lat="36.944680769807235" lon="14.883915768969006"><ele>345.0</ele><time>2026-04-15T12:03:53.999Z</time></trkpt><trkpt lat="36.94462725592634" lon="14.88405382731971"><ele>345.0</ele><time>2026-04-15T12:03:54.999Z</time></trkpt><trkpt lat="36.944564818021576" lon="14.884203829006976"><ele>345.0</ele><time>2026-04-15T12:03:55.999Z</time></trkpt><trkpt lat="36.94449908445218" lon="14.884371482110247"><ele>344.6666666666667</ele><time>2026-04-15T12:03:56.999Z</time></trkpt><trkpt lat="36.9444235744315" lon="14.884548417518369"><ele>344.33333333333337</ele><time>2026-04-15T12:03:57.999Z</time></trkpt><trkpt lat="36.944346614437244" lon="14.884731918816957"><ele>344.0</ele><time>2026-04-15T12:03:58.999Z</time></trkpt><trkpt lat="36.94426861372052" lon="14.88492593271971"><ele>343.0</ele><time>2026-04-15T12:03:59.999Z</time></trkpt><trkpt lat="36.944189491434436" lon="14.885121315141252"><ele>342.0</ele><time>2026-04-15T12:04:00.999Z</time></trkpt><trkpt lat="36.94410549829298" lon="14.885313619157403"><ele>341.0</ele><time>2026-04-15T12:04:01.999Z</time></trkpt><trkpt lat="36.944038957518465" lon="14.88548708925697"><ele>341.0</ele><time>2026-04-15T12:04:02.999Z</time></trkpt><trkpt lat="36.943976333221556" lon="14.88564162505069"><ele>341.0</ele><time>2026-04-15T12:04:03.999Z</time></trkpt><trkpt lat="36.94390271347095" lon="14.885774027332177"><ele>341.0</ele><time>2026-04-15T12:04:04.999Z</time></trkpt><trkpt lat="36.943804492122176" lon="14.885905059163692"><ele>341.0</ele><time>2026-04-15T12:04:05.999Z</time></trkpt><trkpt lat="36.943683037528494" lon="14.886044783922234"><ele>342.0</ele><time>2026-04-15T12:04:06.999Z</time></trkpt><trkpt lat="36.943562991524864" lon="14.88619446779958"><ele>343.0</ele><time>2026-04-15T12:04:07.999Z</time></trkpt><trkpt lat="36.94345371747217" lon="14.886341020361176"><ele>344.0</ele><time>2026-04-15T12:04:08.999Z</time></trkpt><trkpt lat="36.943344174139696" lon="14.886495556943268"><ele>344.0</ele><time>2026-04-15T12:04:09.999Z</time></trkpt><trkpt lat="36.943240635749106" lon="14.88665268534612"><ele>344.0</ele><time>2026-04-15T12:04:10.999Z</time></trkpt><trkpt lat="36.94314979674851" lon="14.886820636750613"><ele>344.0</ele><time>2026-04-15T12:04:11.999Z</time></trkpt><trkpt lat="36.9430718216173" lon="14.88700622334796"><ele>343.0</ele><time>2026-04-15T12:04:12.999Z</time></trkpt><trkpt lat="36.94299977172209" lon="14.887197211860354"><ele>342.0</ele><time>2026-04-15T12:04:13.999Z</time></trkpt><trkpt lat="36.942931568149426" lon="14.887396838060146"><ele>341.0</ele><time>2026-04-15T12:04:14.999Z</time></trkpt><trkpt lat="36.942856185954426" lon="14.887612459194388"><ele>338.33333333333337</ele><time>2026-04-15T12:04:15.999Z</time></trkpt><trkpt lat="36.94276803586383" lon="14.887824448964608"><ele>335.6666666666667</ele><time>2026-04-15T12:04:16.999Z</time></trkpt><trkpt lat="36.942672666855444" lon="14.88803992449536"><ele>333.0</ele><time>2026-04-15T12:04:17.999Z</time></trkpt><trkpt lat="36.94258263430686" lon="14.888237919176982"><ele>334.0</ele><time>2026-04-15T12:04:18.999Z</time></trkpt><trkpt lat="36.94249054408434" lon="14.888432544627339"><ele>335.0</ele><time>2026-04-15T12:04:19.999Z</time></trkpt><trkpt lat="36.942390928029646" lon="14.888603129598758"><ele>336.0</ele><time>2026-04-15T12:04:20.999Z</time></trkpt><trkpt lat="36.94227122068569" lon="14.888760036193046"><ele>336.0</ele><time>2026-04-15T12:04:21.999Z</time></trkpt><trkpt lat="36.94213863454424" lon="14.888902436784345"><ele>336.0</ele><time>2026-04-15T12:04:22.999Z</time></trkpt><trkpt lat="36.94199826755528" lon="14.889036143184967"><ele>336.0</ele><time>2026-04-15T12:04:23.999Z</time></trkpt><trkpt lat="36.94186504298043" lon="14.889165174147228"><ele>335.25</ele><time>2026-04-15T12:04:24.999Z</time></trkpt><trkpt lat="36.94174891301734" lon="14.889272581182336"><ele>334.5</ele><time>2026-04-15T12:04:25.999Z</time></trkpt><trkpt lat="36.94165229279345" lon="14.889334951523614"><ele>333.75</ele><time>2026-04-15T12:04:26.999Z</time></trkpt><trkpt lat="36.94154068402062" lon="14.889369346533956"><ele>333.0</ele><time>2026-04-15T12:04:28Z</time></trkpt><trkpt lat="36.9414205061615" lon="14.889363478493896"><ele>331.3333333333333</ele><time>2026-04-15T12:04:29Z</time></trkpt><trkpt lat="36.941308615849856" lon="14.889364831140737"><ele>329.6666666666667</ele><time>2026-04-15T12:04:30Z</time></trkpt><trkpt lat="36.941227565670864" lon="14.889396746276027"><ele>328.0</ele><time>2026-04-15T12:04:31Z</time></trkpt><trkpt lat="36.9411855449916" lon="14.889457658125155"><ele>326.33333333333337</ele><time>2026-04-15T12:04:32Z</time></trkpt><trkpt lat="36.941209495265205" lon="14.889604620299691"><ele>324.6666666666667</ele><time>2026-04-15T12:04:34Z</time></trkpt><trkpt lat="36.94124991606141" lon="14.889667160064018"><ele>323.0</ele><time>2026-04-15T12:04:35Z</time></trkpt><trkpt lat="36.94139297770723" lon="14.889691989510412"><ele>323.0</ele><time>2026-04-15T12:04:37Z</time></trkpt><trkpt lat="36.941512523622976" lon="14.889703499608665"><ele>323.0</ele><time>2026-04-15T12:04:38Z</time></trkpt><trkpt lat="36.941638153722124" lon="14.889738934373222"><ele>323.0</ele><time>2026-04-15T12:04:39Z</time></trkpt><trkpt lat="36.941730384964636" lon="14.88977030074423"><ele>323.0</ele><time>2026-04-15T12:04:40Z</time></trkpt><trkpt lat="36.94179066688454" lon="14.88982050986695"><ele>323.0</ele><time>2026-04-15T12:04:41Z</time></trkpt><trkpt lat="36.941805700094086" lon="14.889905675825869"><ele>323.0</ele><time>2026-04-15T12:04:42Z</time></trkpt><trkpt lat="36.941766684861456" lon="14.889986761725545"><ele>323.0</ele><time>2026-04-15T12:04:43Z</time></trkpt><trkpt lat="36.941693814113385" lon="14.890016976050802"><ele>323.0</ele><time>2026-04-15T12:04:44Z</time></trkpt><trkpt lat="36.94161526615672" lon="14.890000759814113"><ele>323.0</ele><time>2026-04-15T12:04:45Z</time></trkpt><trkpt lat="36.94151601927552" lon="14.889959154319211"><ele>323.0</ele><time>2026-04-15T12:04:46Z</time></trkpt><trkpt lat="36.94138621703068" lon="14.889897352729317"><ele>323.0</ele><time>2026-04-15T12:04:47Z</time></trkpt><trkpt lat="36.94125144913707" lon="14.889863177285859"><ele>323.0</ele><time>2026-04-15T12:04:48Z</time></trkpt><trkpt lat="36.94112610939033" lon="14.889892411226255"><ele>323.0</ele><time>2026-04-15T12:04:49Z</time></trkpt><trkpt lat="36.941016615135695" lon="14.889965568709574"><ele>323.0</ele><time>2026-04-15T12:04:50Z</time></trkpt><trkpt lat="36.94092334244501" lon="14.890086095970991"><ele>319.5</ele><time>2026-04-15T12:04:51Z</time></trkpt><trkpt lat="36.94083938861893" lon="14.890243312806973"><ele>316.0</ele><time>2026-04-15T12:04:52Z</time></trkpt><trkpt lat="36.940763280431995" lon="14.890394322300597"><ele>312.5</ele><time>2026-04-15T12:04:53Z</time></trkpt><trkpt lat="36.94067818198493" lon="14.890538664613205"><ele>309.0</ele><time>2026-04-15T12:04:54Z</time></trkpt><trkpt lat="36.940583259945875" lon="14.890683798955656"><ele>309.0</ele><time>2026-04-15T12:04:55Z</time></trkpt><trkpt lat="36.94047477496874" lon="14.890823101923562"><ele>309.0</ele><time>2026-04-15T12:04:56Z</time></trkpt><trkpt lat="36.940368763506505" lon="14.890955783567211"><ele>309.0</ele><time>2026-04-15T12:04:57Z</time></trkpt><trkpt lat="36.94028057280978" lon="14.891090802810456"><ele>309.0</ele><time>2026-04-15T12:04:58Z</time></trkpt><trkpt lat="36.94022851615058" lon="14.891230123601552"><ele>309.2</ele><time>2026-04-15T12:04:59Z</time></trkpt><trkpt lat="36.940193049906824" lon="14.891368384998916"><ele>309.4</ele><time>2026-04-15T12:05:00Z</time></trkpt><trkpt lat="36.940153298198894" lon="14.891497761787745"><ele>309.6</ele><time>2026-04-15T12:05:01Z</time></trkpt><trkpt lat="36.94010052879074" lon="14.891597107236871"><ele>309.8</ele><time>2026-04-15T12:05:02Z</time></trkpt><trkpt lat="36.94003003591079" lon="14.891674888716873"><ele>310.0</ele><time>2026-04-15T12:05:03Z</time></trkpt><trkpt lat="36.93995275066778" lon="14.891722901555168"><ele>310.0</ele><time>2026-04-15T12:05:04Z</time></trkpt><trkpt lat="36.93985725877265" lon="14.891741274854386"><ele>310.0</ele><time>2026-04-15T12:05:05Z</time></trkpt><trkpt lat="36.93977788507858" lon="14.891825387696494"><ele>310.0</ele><time>2026-04-15T12:05:06Z</time></trkpt><trkpt lat="36.9397330616214" lon="14.891952984254933"><ele>310.0</ele><time>2026-04-15T12:05:07Z</time></trkpt><trkpt lat="36.93970832351504" lon="14.892106665556584"><ele>310.0</ele><time>2026-04-15T12:05:08Z</time></trkpt><trkpt lat="36.93969262913407" lon="14.89226775989438"><ele>307.25</ele><time>2026-04-15T12:05:09Z</time></trkpt><trkpt lat="36.939670858286675" lon="14.89243096734835"><ele>304.5</ele><time>2026-04-15T12:05:10Z</time></trkpt><trkpt lat="36.93964938787123" lon="14.892591030322743"><ele>301.75</ele><time>2026-04-15T12:05:11Z</time></trkpt><trkpt lat="36.93962080804006" lon="14.892742154940455"><ele>299.0</ele><time>2026-04-15T12:05:12Z</time></trkpt><trkpt lat="36.939582300394434" lon="14.892884470878828"><ele>296.25</ele><time>2026-04-15T12:05:13Z</time></trkpt><trkpt lat="36.93953279434974" lon="14.89302487587419"><ele>293.5</ele><time>2026-04-15T12:05:14Z</time></trkpt><trkpt lat="36.939474676786716" lon="14.893161970271953"><ele>290.75</ele><time>2026-04-15T12:05:15Z</time></trkpt><trkpt lat="36.93940920351918" lon="14.893295871637989"><ele>288.0</ele><time>2026-04-15T12:05:16Z</time></trkpt><trkpt lat="36.93934480057055" lon="14.893450565196904"><ele>284.6666666666667</ele><time>2026-04-15T12:05:17Z</time></trkpt><trkpt lat="36.93926952234211" lon="14.893625819983152"><ele>281.33333333333337</ele><time>2026-04-15T12:05:18Z</time></trkpt><trkpt lat="36.939183233351564" lon="14.893805013806492"><ele>278.0</ele><time>2026-04-15T12:05:19Z</time></trkpt><trkpt lat="36.93908251732121" lon="14.893957919979506"><ele>282.6666666666667</ele><time>2026-04-15T12:05:19.999Z</time></trkpt><trkpt lat="36.93896764664305" lon="14.894100503951655"><ele>287.3333333333333</ele><time>2026-04-15T12:05:20.999Z</time></trkpt><trkpt lat="36.938847212925694" lon="14.894236888478758"><ele>292.0</ele><time>2026-04-15T12:05:21.999Z</time></trkpt><trkpt lat="36.938730508463976" lon="14.89438795798789"><ele>292.0</ele><time>2026-04-15T12:05:22.999Z</time></trkpt><trkpt lat="36.9386345864401" lon="14.89456577434907"><ele>292.0</ele><time>2026-04-15T12:05:23.999Z</time></trkpt><trkpt lat="36.93855521823615" lon="14.894758300407895"><ele>292.0</ele><time>2026-04-15T12:05:24.999Z</time></trkpt><trkpt lat="36.93847049738427" lon="14.894955964926167"><ele>295.0</ele><time>2026-04-15T12:05:25.999Z</time></trkpt><trkpt lat="36.93837717551132" lon="14.895144454009865"><ele>298.0</ele><time>2026-04-15T12:05:26.999Z</time></trkpt><trkpt lat="36.938286764598196" lon="14.895330751803597"><ele>301.0</ele><time>2026-04-15T12:05:27.999Z</time></trkpt><trkpt lat="36.938199639401375" lon="14.895515820830392"><ele>301.0</ele><time>2026-04-15T12:05:28.999Z</time></trkpt><trkpt lat="36.938117275027835" lon="14.895691273443077"><ele>301.0</ele><time>2026-04-15T12:05:29.999Z</time></trkpt><trkpt lat="36.938038569353566" lon="14.895864487715802"><ele>301.0</ele><time>2026-04-15T12:05:30.999Z</time></trkpt><trkpt lat="36.9379633059216" lon="14.89604193878227"><ele>301.0</ele><time>2026-04-15T12:05:31.999Z</time></trkpt><trkpt lat="36.93788389202994" lon="14.896209274717233"><ele>301.0</ele><time>2026-04-15T12:05:32.999Z</time></trkpt><trkpt lat="36.937808735102436" lon="14.896379014359995"><ele>301.0</ele><time>2026-04-15T12:05:33.999Z</time></trkpt><trkpt lat="36.93773082627532" lon="14.896551814518826"><ele>301.0</ele><time>2026-04-15T12:05:34.999Z</time></trkpt><trkpt lat="36.937649652328844" lon="14.896722402851887"><ele>301.0</ele><time>2026-04-15T12:05:35.999Z</time></trkpt><trkpt lat="36.93756744300654" lon="14.896890307853742"><ele>301.0</ele><time>2026-04-15T12:05:36.999Z</time></trkpt><trkpt lat="36.937485541966716" lon="14.89706070922965"><ele>300.3333333333333</ele><time>2026-04-15T12:05:37.999Z</time></trkpt><trkpt lat="36.93740591468671" lon="14.897233859757852"><ele>299.6666666666667</ele><time>2026-04-15T12:05:38.999Z</time></trkpt><trkpt lat="36.93732805050659" lon="14.897413931052542"><ele>299.0</ele><time>2026-04-15T12:05:39.999Z</time></trkpt><trkpt lat="36.93724910047381" lon="14.897591482862326"><ele>297.33333333333337</ele><time>2026-04-15T12:05:40.999Z</time></trkpt><trkpt lat="36.93716245628326" lon="14.89776366459095"><ele>295.6666666666667</ele><time>2026-04-15T12:05:41.999Z</time></trkpt><trkpt lat="36.937068512586976" lon="14.897935749590205"><ele>294.0</ele><time>2026-04-15T12:05:42.999Z</time></trkpt><trkpt lat="36.93696257577706" lon="14.898090692625813"><ele>294.0</ele><time>2026-04-15T12:05:43.999Z</time></trkpt><trkpt lat="36.936851365570796" lon="14.898246086785445"><ele>294.0</ele><time>2026-04-15T12:05:44.999Z</time></trkpt><trkpt lat="36.9367350959704" lon="14.898387999885871"><ele>294.0</ele><time>2026-04-15T12:05:45.999Z</time></trkpt><trkpt lat="36.93662209982821" lon="14.898519502016656"><ele>292.6666666666667</ele><time>2026-04-15T12:05:46.999Z</time></trkpt><trkpt lat="36.93653412047367" lon="14.898671947025564"><ele>291.33333333333337</ele><time>2026-04-15T12:05:47.999Z</time></trkpt><trkpt lat="36.936478439952985" lon="14.898849628523006"><ele>290.0</ele><time>2026-04-15T12:05:48.999Z</time></trkpt><trkpt lat="36.93644515068567" lon="14.899039986156088"><ele>290.0</ele><time>2026-04-15T12:05:49.999Z</time></trkpt><trkpt lat="36.93640374376455" lon="14.899225300372262"><ele>290.0</ele><time>2026-04-15T12:05:50.999Z</time></trkpt><trkpt lat="36.93636421837586" lon="14.899400929379597"><ele>290.0</ele><time>2026-04-15T12:05:51.999Z</time></trkpt><trkpt lat="36.93635305935242" lon="14.899570499182774"><ele>290.0</ele><time>2026-04-15T12:05:52.999Z</time></trkpt><trkpt lat="36.93637484703171" lon="14.899745466458345"><ele>288.33333333333337</ele><time>2026-04-15T12:05:53.999Z</time></trkpt><trkpt lat="36.93640331444122" lon="14.899932203015315"><ele>286.6666666666667</ele><time>2026-04-15T12:05:54.999Z</time></trkpt><trkpt lat="36.936429338448555" lon="14.900119891370444"><ele>285.0</ele><time>2026-04-15T12:05:55.999Z</time></trkpt><trkpt lat="36.93644884934164" lon="14.900304824500694"><ele>283.5</ele><time>2026-04-15T12:05:56.999Z</time></trkpt><trkpt lat="36.93646352378137" lon="14.900484515182253"><ele>282.0</ele><time>2026-04-15T12:05:57.999Z</time></trkpt><trkpt lat="36.936477858006604" lon="14.90065823847156"><ele>280.5</ele><time>2026-04-15T12:05:58.999Z</time></trkpt><trkpt lat="36.93650090807295" lon="14.90080540352901"><ele>279.0</ele><time>2026-04-15T12:05:59.999Z</time></trkpt><trkpt lat="36.93654944394625" lon="14.90092108943713"><ele>279.0</ele><time>2026-04-15T12:06:00.999Z</time></trkpt><trkpt lat="36.93662951217115" lon="14.900983966827972"><ele>279.0</ele><time>2026-04-15T12:06:01.999Z</time></trkpt><trkpt lat="36.93672004368547" lon="14.900983332652238"><ele>279.0</ele><time>2026-04-15T12:06:02.999Z</time></trkpt><trkpt lat="36.93680239921138" lon="14.900927705553924"><ele>279.0</ele><time>2026-04-15T12:06:03.999Z</time></trkpt><trkpt lat="36.936868921892575" lon="14.900826826654292"><ele>279.0</ele><time>2026-04-15T12:06:04.999Z</time></trkpt><trkpt lat="36.936924138661105" lon="14.900757336619087"><ele>279.0</ele><time>2026-04-15T12:06:05.999Z</time></trkpt><trkpt lat="36.93700866476453" lon="14.900739696825859"><ele>279.0</ele><time>2026-04-15T12:06:06.999Z</time></trkpt><trkpt lat="36.93709174817397" lon="14.90078000806997"><ele>279.0</ele><time>2026-04-15T12:06:07.999Z</time></trkpt><trkpt lat="36.93715636107863" lon="14.900872605743489"><ele>279.0</ele><time>2026-04-15T12:06:08.999Z</time></trkpt><trkpt lat="36.9371979573659" lon="14.900980570937831"><ele>279.0</ele><time>2026-04-15T12:06:09.999Z</time></trkpt><trkpt lat="36.93721550288693" lon="14.901090490109466"><ele>278.25</ele><time>2026-04-15T12:06:10.999Z</time></trkpt><trkpt lat="36.93719426311721" lon="14.901206536705446"><ele>277.5</ele><time>2026-04-15T12:06:11.999Z</time></trkpt><trkpt lat="36.93711639035727" lon="14.90128997049055"><ele>276.75</ele><time>2026-04-15T12:06:12.999Z</time></trkpt><trkpt lat="36.93702199570748" lon="14.90138611275168"><ele>276.0</ele><time>2026-04-15T12:06:13.999Z</time></trkpt><trkpt lat="36.936920609925565" lon="14.901512088746344"><ele>276.0</ele><time>2026-04-15T12:06:14.999Z</time></trkpt><trkpt lat="36.936819490305226" lon="14.901656595604685"><ele>276.0</ele><time>2026-04-15T12:06:15.999Z</time></trkpt><trkpt lat="36.93671793166994" lon="14.901797521175224"><ele>276.0</ele><time>2026-04-15T12:06:16.999Z</time></trkpt><trkpt lat="36.93663937198306" lon="14.90194081811414"><ele>276.0</ele><time>2026-04-15T12:06:17.999Z</time></trkpt><trkpt lat="36.93659590113771" lon="14.902102417733548"><ele>274.0</ele><time>2026-04-15T12:06:18.999Z</time></trkpt><trkpt lat="36.93658868519745" lon="14.902288233460585"><ele>272.0</ele><time>2026-04-15T12:06:19.999Z</time></trkpt><trkpt lat="36.93661095044888" lon="14.902493099064129"><ele>270.0</ele><time>2026-04-15T12:06:20.999Z</time></trkpt><trkpt lat="36.93664133730925" lon="14.90270955922811"><ele>269.0</ele><time>2026-04-15T12:06:21.999Z</time></trkpt><trkpt lat="36.93665619442827" lon="14.902912443829383"><ele>268.0</ele><time>2026-04-15T12:06:22.999Z</time></trkpt><trkpt lat="36.93666483893106" lon="14.90309730730053"><ele>267.0</ele><time>2026-04-15T12:06:23.999Z</time></trkpt><trkpt lat="36.93666729844884" lon="14.903279599151695"><ele>266.0</ele><time>2026-04-15T12:06:24.999Z</time></trkpt><trkpt lat="36.936661621403054" lon="14.903454334648783"><ele>265.0</ele><time>2026-04-15T12:06:25.999Z</time></trkpt><trkpt lat="36.936643527552306" lon="14.90361378634626"><ele>264.0</ele><time>2026-04-15T12:06:26.999Z</time></trkpt><trkpt lat="36.936584204673764" lon="14.9037606383653"><ele>263.0</ele><time>2026-04-15T12:06:27.999Z</time></trkpt><trkpt lat="36.9365078553129" lon="14.903903047893209"><ele>263.0</ele><time>2026-04-15T12:06:28.999Z</time></trkpt><trkpt lat="36.93643289401451" lon="14.904067552901571"><ele>263.0</ele><time>2026-04-15T12:06:29.999Z</time></trkpt><trkpt lat="36.936365520648536" lon="14.904247420053434"><ele>263.0</ele><time>2026-04-15T12:06:30.999Z</time></trkpt><trkpt lat="36.93629252096734" lon="14.904432367607049"><ele>262.0</ele><time>2026-04-15T12:06:31.999Z</time></trkpt><trkpt lat="36.936217177546446" lon="14.9046098996072"><ele>261.0</ele><time>2026-04-15T12:06:32.999Z</time></trkpt><trkpt lat="36.936138048209685" lon="14.904795119164719"><ele>260.0</ele><time>2026-04-15T12:06:34Z</time></trkpt><trkpt lat="36.93606624594922" lon="14.904977878367447"><ele>259.5</ele><time>2026-04-15T12:06:35Z</time></trkpt><trkpt lat="36.93599510277333" lon="14.90515104829728"><ele>259.0</ele><time>2026-04-15T12:06:36Z</time></trkpt><trkpt lat="36.93592037563767" lon="14.905314021872"><ele>258.5</ele><time>2026-04-15T12:06:37Z</time></trkpt><trkpt lat="36.93585485390841" lon="14.90547015199757"><ele>258.0</ele><time>2026-04-15T12:06:38Z</time></trkpt><trkpt lat="36.93577737999321" lon="14.905633360848354"><ele>258.0</ele><time>2026-04-15T12:06:39Z</time></trkpt><trkpt lat="36.935681934637046" lon="14.905784671116507"><ele>258.0</ele><time>2026-04-15T12:06:40Z</time></trkpt><trkpt lat="36.93555283302788" lon="14.905917107188708"><ele>258.0</ele><time>2026-04-15T12:06:41Z</time></trkpt><trkpt lat="36.935415159670605" lon="14.906032071897172"><ele>258.0</ele><time>2026-04-15T12:06:42Z</time></trkpt><trkpt lat="36.93527871985072" lon="14.906161800273008"><ele>258.0</ele><time>2026-04-15T12:06:43Z</time></trkpt><trkpt lat="36.9351433338884" lon="14.906309688432119"><ele>258.0</ele><time>2026-04-15T12:06:44Z</time></trkpt><trkpt lat="36.935009292296854" lon="14.906441646972436"><ele>257.0</ele><time>2026-04-15T12:06:45Z</time></trkpt><trkpt lat="36.93487522156225" lon="14.906557131879872"><ele>256.0</ele><time>2026-04-15T12:06:46Z</time></trkpt><trkpt lat="36.934743014897094" lon="14.906657158202133"><ele>255.0</ele><time>2026-04-15T12:06:47Z</time></trkpt><trkpt lat="36.934605696386136" lon="14.906752868153845"><ele>254.33333333333331</ele><time>2026-04-15T12:06:48Z</time></trkpt><trkpt lat="36.934464085195934" lon="14.906833415028903"><ele>253.66666666666666</ele><time>2026-04-15T12:06:49Z</time></trkpt><trkpt lat="36.9343139553461" lon="14.906893436476793"><ele>253.0</ele><time>2026-04-15T12:06:50Z</time></trkpt><trkpt lat="36.934156237630766" lon="14.906947753565722"><ele>253.0</ele><time>2026-04-15T12:06:51Z</time></trkpt><trkpt lat="36.93398546439582" lon="14.90697916280505"><ele>253.0</ele><time>2026-04-15T12:06:52Z</time></trkpt><trkpt lat="36.93380314540355" lon="14.907005409493314"><ele>253.0</ele><time>2026-04-15T12:06:53Z</time></trkpt><trkpt lat="36.9336214296104" lon="14.907030468431163"><ele>253.0</ele><time>2026-04-15T12:06:54Z</time></trkpt><trkpt lat="36.93344134813926" lon="14.907069033814473"><ele>253.0</ele><time>2026-04-15T12:06:55Z</time></trkpt><trkpt lat="36.93326549477588" lon="14.907103504778101"><ele>253.0</ele><time>2026-04-15T12:06:56Z</time></trkpt><trkpt lat="36.933092650847456" lon="14.907124983367192"><ele>253.66666666666666</ele><time>2026-04-15T12:06:57Z</time></trkpt><trkpt lat="36.932917299421696" lon="14.907157942448697"><ele>254.33333333333331</ele><time>2026-04-15T12:06:58Z</time></trkpt><trkpt lat="36.93273470316388" lon="14.907179624767684"><ele>255.0</ele><time>2026-04-15T12:06:59Z</time></trkpt><trkpt lat="36.93255248223707" lon="14.90720832712054"><ele>255.0</ele><time>2026-04-15T12:07:00Z</time></trkpt><trkpt lat="36.93235900680242" lon="14.907243499456445"><ele>255.0</ele><time>2026-04-15T12:07:01Z</time></trkpt><trkpt lat="36.93218378556983" lon="14.907287287299722"><ele>255.0</ele><time>2026-04-15T12:07:02Z</time></trkpt><trkpt lat="36.932005513013266" lon="14.90734289581191"><ele>255.0</ele><time>2026-04-15T12:07:03Z</time></trkpt><trkpt lat="36.93183320237131" lon="14.907433919376254"><ele>255.0</ele><time>2026-04-15T12:07:04Z</time></trkpt><trkpt lat="36.93167109508512" lon="14.907545255419018"><ele>255.0</ele><time>2026-04-15T12:07:05Z</time></trkpt><trkpt lat="36.93149868798432" lon="14.907642384093723"><ele>254.66666666666669</ele><time>2026-04-15T12:07:06Z</time></trkpt><trkpt lat="36.93132753093559" lon="14.907734182740809"><ele>254.33333333333334</ele><time>2026-04-15T12:07:07Z</time></trkpt><trkpt lat="36.931166801728416" lon="14.907820506587374"><ele>254.0</ele><time>2026-04-15T12:07:08Z</time></trkpt><trkpt lat="36.93102072690805" lon="14.907901297685672"><ele>254.0</ele><time>2026-04-15T12:07:09Z</time></trkpt><trkpt lat="36.93090266056345" lon="14.907971937075322"><ele>254.0</ele><time>2026-04-15T12:07:10Z</time></trkpt><trkpt lat="36.93080001153422" lon="14.90805860660043"><ele>254.0</ele><time>2026-04-15T12:07:11Z</time></trkpt><trkpt lat="36.930735327292545" lon="14.908190562267173"><ele>254.0</ele><time>2026-04-15T12:07:12Z</time></trkpt><trkpt lat="36.93069816043215" lon="14.90835489710408"><ele>251.25</ele><time>2026-04-15T12:07:13Z</time></trkpt><trkpt lat="36.93066915987515" lon="14.908547510640904"><ele>248.5</ele><time>2026-04-15T12:07:14Z</time></trkpt><trkpt lat="36.930631313327574" lon="14.908706613773955"><ele>245.75</ele><time>2026-04-15T12:07:15Z</time></trkpt><trkpt lat="36.93057994476626" lon="14.90886684502523"><ele>243.0</ele><time>2026-04-15T12:07:16Z</time></trkpt><trkpt lat="36.93053161899622" lon="14.90904136865052"><ele>243.0</ele><time>2026-04-15T12:07:17Z</time></trkpt><trkpt lat="36.930490275756945" lon="14.909230749901635"><ele>243.0</ele><time>2026-04-15T12:07:18Z</time></trkpt><trkpt lat="36.930455062880085" lon="14.909444673277092"><ele>243.0</ele><time>2026-04-15T12:07:19Z</time></trkpt><trkpt lat="36.930428803002926" lon="14.909676509442763"><ele>241.66666666666669</ele><time>2026-04-15T12:07:20Z</time></trkpt><trkpt lat="36.93040214858956" lon="14.909891705743805"><ele>240.33333333333334</ele><time>2026-04-15T12:07:21Z</time></trkpt><trkpt lat="36.93038996581269" lon="14.910105503352542"><ele>239.0</ele><time>2026-04-15T12:07:22Z</time></trkpt><trkpt lat="36.930400854388225" lon="14.910320394758534"><ele>237.0</ele><time>2026-04-15T12:07:23Z</time></trkpt><trkpt lat="36.930433120564466" lon="14.910548111724774"><ele>235.0</ele><time>2026-04-15T12:07:24Z</time></trkpt><trkpt lat="36.93048543449181" lon="14.910797633177813"><ele>233.0</ele><time>2026-04-15T12:07:25Z</time></trkpt><trkpt lat="36.93054049109004" lon="14.911051595912097"><ele>231.33333333333334</ele><time>2026-04-15T12:07:26Z</time></trkpt><trkpt lat="36.930592779884215" lon="14.91129855893397"><ele>229.66666666666669</ele><time>2026-04-15T12:07:27Z</time></trkpt><trkpt lat="36.930645839272735" lon="14.911547025805145"><ele>228.0</ele><time>2026-04-15T12:07:27.999Z</time></trkpt><trkpt lat="36.93070355806549" lon="14.911811830061598"><ele>228.0</ele><time>2026-04-15T12:07:28.999Z</time></trkpt><trkpt lat="36.930757482060685" lon="14.912064155707055"><ele>228.0</ele><time>2026-04-15T12:07:29.999Z</time></trkpt><trkpt lat="36.93080793707535" lon="14.9123094691451"><ele>228.0</ele><time>2026-04-15T12:07:30.999Z</time></trkpt><trkpt lat="36.930860131976075" lon="14.912544112124136"><ele>226.33333333333331</ele><time>2026-04-15T12:07:31.999Z</time></trkpt><trkpt lat="36.93091829238919" lon="14.912769265650343"><ele>224.66666666666666</ele><time>2026-04-15T12:07:32.999Z</time></trkpt><trkpt lat="36.93099989236183" lon="14.91296968597939"><ele>223.0</ele><time>2026-04-15T12:07:33.999Z</time></trkpt><trkpt lat="36.931109470115146" lon="14.913149407495077"><ele>223.0</ele><time>2026-04-15T12:07:34.999Z</time></trkpt><trkpt lat="36.93123571335547" lon="14.913303238199203"><ele>223.0</ele><time>2026-04-15T12:07:35.999Z</time></trkpt><trkpt lat="36.93138887479525" lon="14.913434823501431"><ele>223.0</ele><time>2026-04-15T12:07:36.999Z</time></trkpt><trkpt lat="36.93156705423253" lon="14.913556761110737"><ele>219.66666666666666</ele><time>2026-04-15T12:07:37.999Z</time></trkpt><trkpt lat="36.9317511937543" lon="14.913680910274747"><ele>216.33333333333331</ele><time>2026-04-15T12:07:38.999Z</time></trkpt><trkpt lat="36.931925461664626" lon="14.913797392334253"><ele>213.0</ele><time>2026-04-15T12:07:39.999Z</time></trkpt><trkpt lat="36.932096764700105" lon="14.91391127243929"><ele>213.0</ele><time>2026-04-15T12:07:40.999Z</time></trkpt><trkpt lat="36.93225875139251" lon="14.914023643915638"><ele>213.0</ele><time>2026-04-15T12:07:41.999Z</time></trkpt><trkpt lat="36.93241450223377" lon="14.914135880236714"><ele>213.0</ele><time>2026-04-15T12:07:42.999Z</time></trkpt><trkpt lat="36.932563898707535" lon="14.914237389683636"><ele>210.33333333333331</ele><time>2026-04-15T12:07:43.999Z</time></trkpt><trkpt lat="36.932701479228385" lon="14.914332343538552"><ele>207.66666666666666</ele><time>2026-04-15T12:07:44.999Z</time></trkpt><trkpt lat="36.93283972399868" lon="14.914426058491793"><ele>205.0</ele><time>2026-04-15T12:07:45.999Z</time></trkpt><trkpt lat="36.932964695198116" lon="14.914522811120413"><ele>205.0</ele><time>2026-04-15T12:07:46.999Z</time></trkpt><trkpt lat="36.933076359919326" lon="14.914637923794645"><ele>205.0</ele><time>2026-04-15T12:07:47.999Z</time></trkpt><trkpt lat="36.93316392322579" lon="14.914772348343655"><ele>205.0</ele><time>2026-04-15T12:07:48.999Z</time></trkpt><trkpt lat="36.933230714211206" lon="14.914916204463095"><ele>205.0</ele><time>2026-04-15T12:07:49.999Z</time></trkpt><trkpt lat="36.933279802389556" lon="14.91507036503619"><ele>204.0</ele><time>2026-04-15T12:07:50.999Z</time></trkpt><trkpt lat="36.93330987603919" lon="14.915232338322546"><ele>203.0</ele><time>2026-04-15T12:07:51.999Z</time></trkpt><trkpt lat="36.93332838535327" lon="14.915395979116674"><ele>202.0</ele><time>2026-04-15T12:07:52.999Z</time></trkpt><trkpt lat="36.93332665525765" lon="14.915572043614665"><ele>201.0</ele><time>2026-04-15T12:07:53.999Z</time></trkpt><trkpt lat="36.93331876946149" lon="14.915768923073458"><ele>199.0</ele><time>2026-04-15T12:07:54.999Z</time></trkpt><trkpt lat="36.93331510198005" lon="14.915955741815445"><ele>197.0</ele><time>2026-04-15T12:07:55.999Z</time></trkpt><trkpt lat="36.933303573395236" lon="14.916136512514097"><ele>195.0</ele><time>2026-04-15T12:07:56.999Z</time></trkpt><trkpt lat="36.93327227712218" lon="14.91631033460711"><ele>193.0</ele><time>2026-04-15T12:07:57.999Z</time></trkpt><trkpt lat="36.93321668615905" lon="14.916468786936306"><ele>193.0</ele><time>2026-04-15T12:07:58.999Z</time></trkpt><trkpt lat="36.93314310032211" lon="14.916611242394223"><ele>193.0</ele><time>2026-04-15T12:07:59.999Z</time></trkpt><trkpt lat="36.93305040225827" lon="14.916729972224003"><ele>193.0</ele><time>2026-04-15T12:08:00.999Z</time></trkpt><trkpt lat="36.93293596926604" lon="14.91682307179217"><ele>193.0</ele><time>2026-04-15T12:08:01.999Z</time></trkpt><trkpt lat="36.932813960773466" lon="14.916908393620519"><ele>191.0</ele><time>2026-04-15T12:08:02.999Z</time></trkpt><trkpt lat="36.93267119561003" lon="14.917005330547054"><ele>189.0</ele><time>2026-04-15T12:08:03.999Z</time></trkpt><trkpt lat="36.93249787741667" lon="14.917107666950054"><ele>187.0</ele><time>2026-04-15T12:08:04.999Z</time></trkpt><trkpt lat="36.93231475258128" lon="14.917214972939622"><ele>187.0</ele><time>2026-04-15T12:08:05.999Z</time></trkpt><trkpt lat="36.93213149577699" lon="14.917328433465395"><ele>187.0</ele><time>2026-04-15T12:08:06.999Z</time></trkpt><trkpt lat="36.931940040679706" lon="14.917442775530949"><ele>187.0</ele><time>2026-04-15T12:08:07.999Z</time></trkpt><trkpt lat="36.93174562301623" lon="14.917564256955645"><ele>185.0</ele><time>2026-04-15T12:08:08.999Z</time></trkpt><trkpt lat="36.931552331649904" lon="14.917685067053505"><ele>183.0</ele><time>2026-04-15T12:08:09.999Z</time></trkpt><trkpt lat="36.93135678598122" lon="14.917803700089632"><ele>181.0</ele><time>2026-04-15T12:08:10.999Z</time></trkpt><trkpt lat="36.93116790988227" lon="14.91791945137802"><ele>181.0</ele><time>2026-04-15T12:08:11.999Z</time></trkpt><trkpt lat="36.93098265052417" lon="14.918031646172317"><ele>181.0</ele><time>2026-04-15T12:08:12.999Z</time></trkpt><trkpt lat="36.93080629804542" lon="14.918135871213284"><ele>181.0</ele><time>2026-04-15T12:08:13.999Z</time></trkpt><trkpt lat="36.93064205920586" lon="14.918236558402713"><ele>181.66666666666669</ele><time>2026-04-15T12:08:14.999Z</time></trkpt><trkpt lat="36.930492940288346" lon="14.918336597143384"><ele>182.33333333333334</ele><time>2026-04-15T12:08:15.999Z</time></trkpt><trkpt lat="36.9303584356081" lon="14.91845368182647"><ele>183.0</ele><time>2026-04-15T12:08:16.999Z</time></trkpt><trkpt lat="36.930258370152345" lon="14.918595206113087"><ele>180.33333333333334</ele><time>2026-04-15T12:08:17.999Z</time></trkpt><trkpt lat="36.93017440660753" lon="14.91875572887956"><ele>177.66666666666669</ele><time>2026-04-15T12:08:18.999Z</time></trkpt><trkpt lat="36.93011293047974" lon="14.918924339948436"><ele>175.0</ele><time>2026-04-15T12:08:19.999Z</time></trkpt><trkpt lat="36.930041385545664" lon="14.919095152612089"><ele>173.75</ele><time>2026-04-15T12:08:20.999Z</time></trkpt><trkpt lat="36.92999932542386" lon="14.919262386609661"><ele>172.5</ele><time>2026-04-15T12:08:21.999Z</time></trkpt><trkpt lat="36.92998370939691" lon="14.919421236617959"><ele>171.25</ele><time>2026-04-15T12:08:22.999Z</time></trkpt><trkpt lat="36.929978458531195" lon="14.919566887941558"><ele>170.0</ele><time>2026-04-15T12:08:23.999Z</time></trkpt><trkpt lat="36.92997567433047" lon="14.91969498851181"><ele>170.0</ele><time>2026-04-15T12:08:24.999Z</time></trkpt><trkpt lat="36.92997105985113" lon="14.91982125165828"><ele>170.0</ele><time>2026-04-15T12:08:25.999Z</time></trkpt><trkpt lat="36.92997180938153" lon="14.919954682218098"><ele>170.0</ele><time>2026-04-15T12:08:26.999Z</time></trkpt><trkpt lat="36.92997675241604" lon="14.920105906209237"><ele>170.0</ele><time>2026-04-15T12:08:27.999Z</time></trkpt><trkpt lat="36.929983407130564" lon="14.920259081821353"><ele>169.5</ele><time>2026-04-15T12:08:28.999Z</time></trkpt><trkpt lat="36.92998915815551" lon="14.92041574078437"><ele>169.0</ele><time>2026-04-15T12:08:29.999Z</time></trkpt><trkpt lat="36.92999799261626" lon="14.920571206811685"><ele>168.5</ele><time>2026-04-15T12:08:30.999Z</time></trkpt><trkpt lat="36.92998270282882" lon="14.920719783675693"><ele>168.0</ele><time>2026-04-15T12:08:31.999Z</time></trkpt><trkpt lat="36.92994272472138" lon="14.920853260685417"><ele>168.2</ele><time>2026-04-15T12:08:32.999Z</time></trkpt><trkpt lat="36.929900434150326" lon="14.920975541109659"><ele>168.4</ele><time>2026-04-15T12:08:33.999Z</time></trkpt><trkpt lat="36.92986689831537" lon="14.921094663433305"><ele>168.6</ele><time>2026-04-15T12:08:34.999Z</time></trkpt><trkpt lat="36.92985962177435" lon="14.921217870353548"><ele>168.79999999999998</ele><time>2026-04-15T12:08:35.999Z</time></trkpt><trkpt lat="36.92989628849915" lon="14.921341349615977"><ele>169.0</ele><time>2026-04-15T12:08:36.999Z</time></trkpt><trkpt lat="36.929964868548986" lon="14.921447789345825"><ele>169.0</ele><time>2026-04-15T12:08:37.999Z</time></trkpt><trkpt lat="36.930046318451645" lon="14.92154708142811"><ele>169.0</ele><time>2026-04-15T12:08:38.999Z</time></trkpt><trkpt lat="36.930114277995905" lon="14.921660156958755"><ele>169.0</ele><time>2026-04-15T12:08:40Z</time></trkpt><trkpt lat="36.93015543344135" lon="14.921789610983712"><ele>169.0</ele><time>2026-04-15T12:08:41Z</time></trkpt><trkpt lat="36.93016928847565" lon="14.921928237388792"><ele>170.33333333333334</ele><time>2026-04-15T12:08:42Z</time></trkpt><trkpt lat="36.93014580902688" lon="14.922082673439174"><ele>171.66666666666666</ele><time>2026-04-15T12:08:43Z</time></trkpt><trkpt lat="36.930082165054664" lon="14.922257755443233"><ele>173.0</ele><time>2026-04-15T12:08:44Z</time></trkpt><trkpt lat="36.92998976366348" lon="14.922446962930305"><ele>175.33333333333331</ele><time>2026-04-15T12:08:45Z</time></trkpt><trkpt lat="36.92989115551671" lon="14.922637420709309"><ele>177.66666666666666</ele><time>2026-04-15T12:08:46Z</time></trkpt><trkpt lat="36.92978322399896" lon="14.922795480551205"><ele>180.0</ele><time>2026-04-15T12:08:47Z</time></trkpt><trkpt lat="36.929679396335864" lon="14.922937492167952"><ele>180.0</ele><time>2026-04-15T12:08:48Z</time></trkpt><trkpt lat="36.92959906415331" lon="14.92306820684449"><ele>180.0</ele><time>2026-04-15T12:08:49Z</time></trkpt><trkpt lat="36.92956735717459" lon="14.92320342855173"><ele>180.0</ele><time>2026-04-15T12:08:50Z</time></trkpt><trkpt lat="36.929577653985554" lon="14.923327529721911"><ele>180.0</ele><time>2026-04-15T12:08:51Z</time></trkpt><trkpt lat="36.929626313713094" lon="14.923457380876105"><ele>180.25</ele><time>2026-04-15T12:08:52Z</time></trkpt><trkpt lat="36.92971104135981" lon="14.923590256234395"><ele>180.5</ele><time>2026-04-15T12:08:53Z</time></trkpt><trkpt lat="36.929813743279546" lon="14.92372448618704"><ele>180.75</ele><time>2026-04-15T12:08:54Z</time></trkpt><trkpt lat="36.92992387604029" lon="14.923848965139038"><ele>181.0</ele><time>2026-04-15T12:08:55Z</time></trkpt><trkpt lat="36.930043799937465" lon="14.923953062389536"><ele>183.0</ele><time>2026-04-15T12:08:56Z</time></trkpt><trkpt lat="36.93019002373501" lon="14.92402722329044"><ele>185.0</ele><time>2026-04-15T12:08:57Z</time></trkpt><trkpt lat="36.930372443622794" lon="14.924077121533287"><ele>187.0</ele><time>2026-04-15T12:08:58Z</time></trkpt><trkpt lat="36.93056785344465" lon="14.924129498839262"><ele>187.0</ele><time>2026-04-15T12:08:59Z</time></trkpt><trkpt lat="36.93075641949459" lon="14.924184396979456"><ele>187.0</ele><time>2026-04-15T12:09:00Z</time></trkpt><trkpt lat="36.93093084832488" lon="14.924238149347827"><ele>187.0</ele><time>2026-04-15T12:09:01Z</time></trkpt><trkpt lat="36.93111570138729" lon="14.924286841068964"><ele>187.66666666666669</ele><time>2026-04-15T12:09:02Z</time></trkpt><trkpt lat="36.93131182628267" lon="14.924348851586956"><ele>188.33333333333334</ele><time>2026-04-15T12:09:03Z</time></trkpt><trkpt lat="36.93149693600004" lon="14.924403775213074"><ele>189.0</ele><time>2026-04-15T12:09:04Z</time></trkpt><trkpt lat="36.931663145709656" lon="14.92444258234909"><ele>190.66666666666669</ele><time>2026-04-15T12:09:05Z</time></trkpt><trkpt lat="36.93181160591182" lon="14.92449797234281"><ele>192.33333333333334</ele><time>2026-04-15T12:09:06Z</time></trkpt><trkpt lat="36.93195132070126" lon="14.92457894950556"><ele>194.0</ele><time>2026-04-15T12:09:07Z</time></trkpt><trkpt lat="36.932079568114474" lon="14.924678639818765"><ele>194.0</ele><time>2026-04-15T12:09:08Z</time></trkpt><trkpt lat="36.932217694242404" lon="14.924815428296226"><ele>194.0</ele><time>2026-04-15T12:09:09Z</time></trkpt><trkpt lat="36.932364528040566" lon="14.924967487526974"><ele>194.0</ele><time>2026-04-15T12:09:10Z</time></trkpt><trkpt lat="36.932511896653935" lon="14.925131350442276"><ele>194.33333333333334</ele><time>2026-04-15T12:09:11Z</time></trkpt><trkpt lat="36.93265689157932" lon="14.92530222589809"><ele>194.66666666666669</ele><time>2026-04-15T12:09:12Z</time></trkpt><trkpt lat="36.932800557704155" lon="14.925485205772299"><ele>195.0</ele><time>2026-04-15T12:09:13Z</time></trkpt><trkpt lat="36.93294651642469" lon="14.92567411398645"><ele>195.0</ele><time>2026-04-15T12:09:14Z</time></trkpt><trkpt lat="36.93309026316982" lon="14.925870813241131"><ele>195.0</ele><time>2026-04-15T12:09:15Z</time></trkpt><trkpt lat="36.93325165323987" lon="14.92608894009462"><ele>198.5</ele><time>2026-04-15T12:09:16Z</time></trkpt><trkpt lat="36.93342812353624" lon="14.926316636702342"><ele>202.0</ele><time>2026-04-15T12:09:17Z</time></trkpt><trkpt lat="36.933620741700246" lon="14.926558520821601"><ele>199.0</ele><time>2026-04-15T12:09:18Z</time></trkpt><trkpt lat="36.933816163332786" lon="14.926787904924836"><ele>196.0</ele><time>2026-04-15T12:09:19Z</time></trkpt><trkpt lat="36.93400542952941" lon="14.927006752745827"><ele>196.0</ele><time>2026-04-15T12:09:20Z</time></trkpt><trkpt lat="36.93419505924479" lon="14.927230709489589"><ele>196.0</ele><time>2026-04-15T12:09:21Z</time></trkpt><trkpt lat="36.9343851484044" lon="14.92746386225862"><ele>198.0</ele><time>2026-04-15T12:09:22Z</time></trkpt><trkpt lat="36.93456723573936" lon="14.927682471971734"><ele>200.0</ele><time>2026-04-15T12:09:23Z</time></trkpt><trkpt lat="36.93472731955006" lon="14.927882395110277"><ele>200.0</ele><time>2026-04-15T12:09:24Z</time></trkpt><trkpt lat="36.93487232721866" lon="14.928051213217538"><ele>200.0</ele><time>2026-04-15T12:09:25Z</time></trkpt><trkpt lat="36.9350016106283" lon="14.928214039962663"><ele>200.0</ele><time>2026-04-15T12:09:26Z</time></trkpt><trkpt lat="36.93511120729515" lon="14.928402621803562"><ele>201.33333333333334</ele><time>2026-04-15T12:09:27Z</time></trkpt><trkpt lat="36.93521490440555" lon="14.928626834275732"><ele>202.66666666666669</ele><time>2026-04-15T12:09:28Z</time></trkpt><trkpt lat="36.93531771059993" lon="14.928857445390692"><ele>204.0</ele><time>2026-04-15T12:09:29Z</time></trkpt><trkpt lat="36.93542132042393" lon="14.929055969666763"><ele>201.33333333333331</ele><time>2026-04-15T12:09:30Z</time></trkpt><trkpt lat="36.93553329005854" lon="14.929227619136027"><ele>198.66666666666666</ele><time>2026-04-15T12:09:31Z</time></trkpt><trkpt lat="36.935649862807985" lon="14.929382109761079"><ele>196.0</ele><time>2026-04-15T12:09:32Z</time></trkpt><trkpt lat="36.93576163694924" lon="14.929530317791317"><ele>196.0</ele><time>2026-04-15T12:09:33Z</time></trkpt><trkpt lat="36.93585211465663" lon="14.929668287488717"><ele>196.0</ele><time>2026-04-15T12:09:33.999Z</time></trkpt><trkpt lat="36.93592941711856" lon="14.929778404872136"><ele>196.0</ele><time>2026-04-15T12:09:34.999Z</time></trkpt><trkpt lat="36.93598507985234" lon="14.92986273175907"><ele>196.0</ele><time>2026-04-15T12:09:35.999Z</time></trkpt><trkpt lat="36.936029971169525" lon="14.929936811369764"><ele>196.0</ele><time>2026-04-15T12:09:36.999Z</time></trkpt><trkpt lat="36.93606315008493" lon="14.930019965063"><ele>196.99999999999997</ele><time>2026-04-15T12:09:37.999Z</time></trkpt><trkpt lat="36.93607237838245" lon="14.930111761679852"><ele>198.0</ele><time>2026-04-15T12:09:38.999Z</time></trkpt><trkpt lat="36.936067220944615" lon="14.930202356498445"><ele>199.0</ele><time>2026-04-15T12:09:39.999Z</time></trkpt><trkpt lat="36.93606209971998" lon="14.93030290880393"><ele>200.0</ele><time>2026-04-15T12:09:40.999Z</time></trkpt><trkpt lat="36.93606726681392" lon="14.93040207271169"><ele>200.99999999999997</ele><time>2026-04-15T12:09:41.999Z</time></trkpt><trkpt lat="36.93606591078655" lon="14.93051194574008"><ele>202.0</ele><time>2026-04-15T12:09:42.999Z</time></trkpt><trkpt lat="36.93604602498387" lon="14.930640195487731"><ele>202.0</ele><time>2026-04-15T12:09:43.999Z</time></trkpt><trkpt lat="36.9360196108752" lon="14.930767955363878"><ele>202.0</ele><time>2026-04-15T12:09:44.999Z</time></trkpt><trkpt lat="36.93599567477503" lon="14.930926767092545"><ele>202.0</ele><time>2026-04-15T12:09:45.999Z</time></trkpt><trkpt lat="36.93595272052409" lon="14.931093973817088"><ele>202.0</ele><time>2026-04-15T12:09:46.999Z</time></trkpt><trkpt lat="36.93589540073642" lon="14.931235109549446"><ele>200.25</ele><time>2026-04-15T12:09:47.999Z</time></trkpt><trkpt lat="36.935826332370276" lon="14.931359888668764"><ele>198.5</ele><time>2026-04-15T12:09:48.999Z</time></trkpt><trkpt lat="36.93575705514151" lon="14.931469586341732"><ele>196.75</ele><time>2026-04-15T12:09:49.999Z</time></trkpt><trkpt lat="36.935678638024534" lon="14.93157713484963"><ele>195.0</ele><time>2026-04-15T12:09:50.999Z</time></trkpt><trkpt lat="36.93558272684368" lon="14.931680384000925"><ele>196.5</ele><time>2026-04-15T12:09:51.999Z</time></trkpt><trkpt lat="36.935474383204514" lon="14.93179181071681"><ele>198.0</ele><time>2026-04-15T12:09:52.999Z</time></trkpt><trkpt lat="36.93535632846687" lon="14.931917492081599"><ele>199.5</ele><time>2026-04-15T12:09:53.999Z</time></trkpt><trkpt lat="36.93524361743141" lon="14.932045637469155"><ele>201.0</ele><time>2026-04-15T12:09:54.999Z</time></trkpt><trkpt lat="36.935144215638935" lon="14.932164489604357"><ele>200.60000000000002</ele><time>2026-04-15T12:09:55.999Z</time></trkpt><trkpt lat="36.9350483864898" lon="14.932265687121474"><ele>200.2</ele><time>2026-04-15T12:09:56.999Z</time></trkpt><trkpt lat="36.93495952953804" lon="14.932361535720771"><ele>199.8</ele><time>2026-04-15T12:09:57.999Z</time></trkpt><trkpt lat="36.93488105066317" lon="14.932449920048624"><ele>199.39999999999998</ele><time>2026-04-15T12:09:58.999Z</time></trkpt><trkpt lat="36.93481067047961" lon="14.932518478865713"><ele>199.0</ele><time>2026-04-15T12:09:59.999Z</time></trkpt><trkpt lat="36.93474665898063" lon="14.932550903123483"><ele>200.2</ele><time>2026-04-15T12:10:00.999Z</time></trkpt><trkpt lat="36.93470523883779" lon="14.93264399616926"><ele>201.39999999999998</ele><time>2026-04-15T12:10:02.999Z</time></trkpt><trkpt lat="36.934732678956806" lon="14.932747488738586"><ele>202.6</ele><time>2026-04-15T12:10:03.999Z</time></trkpt><trkpt lat="36.9347717794977" lon="14.93287391642611"><ele>203.8</ele><time>2026-04-15T12:10:04.999Z</time></trkpt><trkpt lat="36.934817255563644" lon="14.933013893016707"><ele>205.0</ele><time>2026-04-15T12:10:05.999Z</time></trkpt><trkpt lat="36.93486406823851" lon="14.933114908576236"><ele>204.99999999999997</ele><time>2026-04-15T12:10:06.999Z</time></trkpt><trkpt lat="36.93492626582977" lon="14.933155073854653"><ele>205.0</ele><time>2026-04-15T12:10:07.999Z</time></trkpt><trkpt lat="36.935003258758194" lon="14.933137368646944"><ele>205.0</ele><time>2026-04-15T12:10:08.999Z</time></trkpt><trkpt lat="36.93507667712769" lon="14.933099751343399"><ele>205.0</ele><time>2026-04-15T12:10:09.999Z</time></trkpt><trkpt lat="36.935170027964205" lon="14.933149888051295"><ele>204.99999999999997</ele><time>2026-04-15T12:10:11.999Z</time></trkpt><trkpt lat="36.93517442472661" lon="14.933274938093797"><ele>205.0</ele><time>2026-04-15T12:10:13.999Z</time></trkpt><trkpt lat="36.93514110108238" lon="14.933394050346235"><ele>207.6</ele><time>2026-04-15T12:10:14.999Z</time></trkpt><trkpt lat="36.93512066823157" lon="14.933530385804776"><ele>210.2</ele><time>2026-04-15T12:10:15.999Z</time></trkpt><trkpt lat="36.935115616298674" lon="14.933653533451649"><ele>212.8</ele><time>2026-04-15T12:10:16.999Z</time></trkpt><trkpt lat="36.935106322971876" lon="14.933782170710064"><ele>215.4</ele><time>2026-04-15T12:10:17.999Z</time></trkpt><trkpt lat="36.93509443999963" lon="14.933917839968457"><ele>218.0</ele><time>2026-04-15T12:10:18.999Z</time></trkpt><trkpt lat="36.93508530820937" lon="14.934047891364273"><ele>218.00000000000003</ele><time>2026-04-15T12:10:19.999Z</time></trkpt><trkpt lat="36.935073011452076" lon="14.93418172662454"><ele>218.0</ele><time>2026-04-15T12:10:20.999Z</time></trkpt><trkpt lat="36.93506047901669" lon="14.934307086784756"><ele>218.0</ele><time>2026-04-15T12:10:21.999Z</time></trkpt><trkpt lat="36.935042809910236" lon="14.934407650850504"><ele>218.0</ele><time>2026-04-15T12:10:22.999Z</time></trkpt><trkpt lat="36.93503420406336" lon="14.934487235806252"><ele>218.00000000000003</ele><time>2026-04-15T12:10:23.999Z</time></trkpt><trkpt lat="36.935062522484344" lon="14.934557681417912"><ele>218.0</ele><time>2026-04-15T12:10:24.999Z</time></trkpt><trkpt lat="36.935123779149066" lon="14.934592021233453"><ele>219.0</ele><time>2026-04-15T12:10:25.999Z</time></trkpt><trkpt lat="36.935182731914246" lon="14.93456086184294"><ele>220.0</ele><time>2026-04-15T12:10:26.999Z</time></trkpt><trkpt lat="36.935258778563586" lon="14.934438930657507"><ele>221.0</ele><time>2026-04-15T12:10:28.999Z</time></trkpt><trkpt lat="36.935375773615434" lon="14.934398362488153"><ele>222.0</ele><time>2026-04-15T12:10:30.999Z</time></trkpt><trkpt lat="36.93542862083462" lon="14.934487164005821"><ele>223.0</ele><time>2026-04-15T12:10:32.999Z</time></trkpt><trkpt lat="36.93540892258706" lon="14.934656562921015"><ele>223.0</ele><time>2026-04-15T12:10:34.999Z</time></trkpt><trkpt lat="36.93540361601222" lon="14.934783996079087"><ele>223.0</ele><time>2026-04-15T12:10:35.999Z</time></trkpt><trkpt lat="36.93539862387254" lon="14.934912134164216"><ele>223.0</ele><time>2026-04-15T12:10:36.999Z</time></trkpt><trkpt lat="36.935391430738974" lon="14.93505311247489"><ele>223.0</ele><time>2026-04-15T12:10:37.999Z</time></trkpt><trkpt lat="36.93539670185722" lon="14.935225851409488"><ele>225.0</ele><time>2026-04-15T12:10:38.999Z</time></trkpt><trkpt lat="36.935393112133525" lon="14.935416360452821"><ele>227.0</ele><time>2026-04-15T12:10:39.999Z</time></trkpt><trkpt lat="36.935382655890606" lon="14.935614318567746"><ele>229.0</ele><time>2026-04-15T12:10:40.999Z</time></trkpt><trkpt lat="36.93537558235765" lon="14.935790842888974"><ele>230.75</ele><time>2026-04-15T12:10:41.999Z</time></trkpt><trkpt lat="36.93537199250137" lon="14.93598156984035"><ele>232.5</ele><time>2026-04-15T12:10:42.999Z</time></trkpt><trkpt lat="36.93536886365415" lon="14.936150034407214"><ele>234.25</ele><time>2026-04-15T12:10:43.999Z</time></trkpt><trkpt lat="36.9353675610061" lon="14.936297911086857"><ele>236.0</ele><time>2026-04-15T12:10:44.999Z</time></trkpt><trkpt lat="36.935367209635594" lon="14.93641243027977"><ele>236.0</ele><time>2026-04-15T12:10:46Z</time></trkpt><trkpt lat="36.9354076555231" lon="14.936507817518116"><ele>236.00000000000003</ele><time>2026-04-15T12:10:48Z</time></trkpt><trkpt lat="36.93549918304808" lon="14.936444929603757"><ele>236.00000000000003</ele><time>2026-04-15T12:10:50Z</time></trkpt><trkpt lat="36.935559058066495" lon="14.936359827050348"><ele>236.0</ele><time>2026-04-15T12:10:51Z</time></trkpt><trkpt lat="36.93563034739027" lon="14.936247640971718"><ele>236.0</ele><time>2026-04-15T12:10:52Z</time></trkpt><trkpt lat="36.93570407520408" lon="14.936141095469461"><ele>236.0</ele><time>2026-04-15T12:10:53Z</time></trkpt><trkpt lat="36.93577490920949" lon="14.936043730310317"><ele>236.00000000000003</ele><time>2026-04-15T12:10:54Z</time></trkpt><trkpt lat="36.93584246680135" lon="14.935971758552578"><ele>236.00000000000003</ele><time>2026-04-15T12:10:55Z</time></trkpt><trkpt lat="36.935906055039204" lon="14.935912291666071"><ele>236.0</ele><time>2026-04-15T12:10:56Z</time></trkpt><trkpt lat="36.93597115325608" lon="14.93587518110527"><ele>236.0</ele><time>2026-04-15T12:10:57Z</time></trkpt><trkpt lat="36.936087670804696" lon="14.935872001733676"><ele>235.50000000000003</ele><time>2026-04-15T12:10:59Z</time></trkpt><trkpt lat="36.9361528729993" lon="14.93591662971811"><ele>235.0</ele><time>2026-04-15T12:11:00Z</time></trkpt><trkpt lat="36.93621615020481" lon="14.935990911472949"><ele>234.5</ele><time>2026-04-15T12:11:01Z</time></trkpt><trkpt lat="36.93625995059193" lon="14.936091026333603"><ele>234.0</ele><time>2026-04-15T12:11:02Z</time></trkpt><trkpt lat="36.936272797992736" lon="14.936197795182894"><ele>233.50000000000003</ele><time>2026-04-15T12:11:03Z</time></trkpt><trkpt lat="36.93624809401859" lon="14.936301254482176"><ele>233.0</ele><time>2026-04-15T12:11:04Z</time></trkpt><trkpt lat="36.93619025860203" lon="14.936404888890893"><ele>233.0</ele><time>2026-04-15T12:11:05Z</time></trkpt><trkpt lat="36.93609966939872" lon="14.936519350558095"><ele>233.0</ele><time>2026-04-15T12:11:06Z</time></trkpt><trkpt lat="36.93600403130052" lon="14.936663317086303"><ele>233.0</ele><time>2026-04-15T12:11:07Z</time></trkpt><trkpt lat="36.93590950911212" lon="14.936826783936922"><ele>233.0</ele><time>2026-04-15T12:11:08Z</time></trkpt><trkpt lat="36.93581948393631" lon="14.93696365767605"><ele>236.25</ele><time>2026-04-15T12:11:09Z</time></trkpt><trkpt lat="36.93571429603319" lon="14.937108388527147"><ele>239.5</ele><time>2026-04-15T12:11:10Z</time></trkpt><trkpt lat="36.93562530398437" lon="14.93724676348183"><ele>242.75</ele><time>2026-04-15T12:11:11Z</time></trkpt><trkpt lat="36.93556166636184" lon="14.937388248196749"><ele>246.0</ele><time>2026-04-15T12:11:12Z</time></trkpt><trkpt lat="36.93551710070019" lon="14.93755267701325"><ele>248.66666666666669</ele><time>2026-04-15T12:11:13Z</time></trkpt><trkpt lat="36.93549332069288" lon="14.93776394913101"><ele>251.33333333333334</ele><time>2026-04-15T12:11:14Z</time></trkpt><trkpt lat="36.935458520014066" lon="14.937997596693444"><ele>254.0</ele><time>2026-04-15T12:11:15Z</time></trkpt><trkpt lat="36.93542115391145" lon="14.938226427295119"><ele>256.6666666666667</ele><time>2026-04-15T12:11:16Z</time></trkpt><trkpt lat="36.93537481645992" lon="14.938480042257146"><ele>259.3333333333333</ele><time>2026-04-15T12:11:17Z</time></trkpt><trkpt lat="36.93533097021431" lon="14.9387335407831"><ele>262.0</ele><time>2026-04-15T12:11:18Z</time></trkpt><trkpt lat="36.93529611201447" lon="14.938954003380386"><ele>262.0</ele><time>2026-04-15T12:11:19Z</time></trkpt><trkpt lat="36.935265771000836" lon="14.939140102699438"><ele>262.0</ele><time>2026-04-15T12:11:20Z</time></trkpt><trkpt lat="36.93523985566447" lon="14.939277624297272"><ele>262.0</ele><time>2026-04-15T12:11:21Z</time></trkpt><trkpt lat="36.9352435461823" lon="14.939375375725861"><ele>262.0</ele><time>2026-04-15T12:11:22Z</time></trkpt><trkpt lat="36.93535265421489" lon="14.939421286072191"><ele>262.0</ele><time>2026-04-15T12:11:24Z</time></trkpt><trkpt lat="36.935423702202314" lon="14.939367489514737"><ele>262.0</ele><time>2026-04-15T12:11:25Z</time></trkpt><trkpt lat="36.93549905174374" lon="14.939267719643137"><ele>262.0</ele><time>2026-04-15T12:11:26Z</time></trkpt><trkpt lat="36.93559619864605" lon="14.939157456472971"><ele>262.0</ele><time>2026-04-15T12:11:27Z</time></trkpt><trkpt lat="36.93571461503078" lon="14.93904773545034"><ele>262.0</ele><time>2026-04-15T12:11:28Z</time></trkpt><trkpt lat="36.93584306721879" lon="14.938940246109118"><ele>262.0</ele><time>2026-04-15T12:11:29Z</time></trkpt><trkpt lat="36.93595945916275" lon="14.93883100410452"><ele>262.0</ele><time>2026-04-15T12:11:30Z</time></trkpt><trkpt lat="36.93606595247481" lon="14.938725823733144"><ele>262.0</ele><time>2026-04-15T12:11:31Z</time></trkpt><trkpt lat="36.93615610984001" lon="14.93864250391088"><ele>263.8</ele><time>2026-04-15T12:11:32Z</time></trkpt><trkpt lat="36.9362348151283" lon="14.938580483721934"><ele>265.6</ele><time>2026-04-15T12:11:33Z</time></trkpt><trkpt lat="36.936309439563885" lon="14.938568153997691"><ele>267.40000000000003</ele><time>2026-04-15T12:11:33.999Z</time></trkpt><trkpt lat="36.93638724015325" lon="14.938671203588592"><ele>269.2</ele><time>2026-04-15T12:11:35.999Z</time></trkpt><trkpt lat="36.936380718111614" lon="14.938830992335165"><ele>271.0</ele><time>2026-04-15T12:11:37.999Z</time></trkpt><trkpt lat="36.93637058592531" lon="14.938944825284556"><ele>271.0</ele><time>2026-04-15T12:11:38.999Z</time></trkpt><trkpt lat="36.93636502900553" lon="14.939077838017733"><ele>271.0</ele><time>2026-04-15T12:11:39.999Z</time></trkpt><trkpt lat="36.93636677588838" lon="14.939213405266567"><ele>271.0</ele><time>2026-04-15T12:11:40.999Z</time></trkpt><trkpt lat="36.9363741594033" lon="14.939359893344234"><ele>271.0</ele><time>2026-04-15T12:11:41.999Z</time></trkpt><trkpt lat="36.9363793439453" lon="14.939515581251651"><ele>272.25</ele><time>2026-04-15T12:11:42.999Z</time></trkpt><trkpt lat="36.93637732246843" lon="14.939656047770052"><ele>273.5</ele><time>2026-04-15T12:11:43.999Z</time></trkpt><trkpt lat="36.936373840340536" lon="14.939792397025238"><ele>274.75</ele><time>2026-04-15T12:11:44.999Z</time></trkpt><trkpt lat="36.93636505021481" lon="14.939939205044775"><ele>276.0</ele><time>2026-04-15T12:11:45.999Z</time></trkpt><trkpt lat="36.93633529096166" lon="14.940090581074939"><ele>277.75</ele><time>2026-04-15T12:11:46.999Z</time></trkpt><trkpt lat="36.936288719416865" lon="14.940238750341333"><ele>279.5</ele><time>2026-04-15T12:11:47.999Z</time></trkpt><trkpt lat="36.93623030225641" lon="14.940396991209731"><ele>281.25</ele><time>2026-04-15T12:11:48.999Z</time></trkpt><trkpt lat="36.9361651698774" lon="14.940552769274877"><ele>283.0</ele><time>2026-04-15T12:11:49.999Z</time></trkpt><trkpt lat="36.93609676778733" lon="14.940706573439206"><ele>283.0</ele><time>2026-04-15T12:11:50.999Z</time></trkpt><trkpt lat="36.936029984997624" lon="14.940870477719496"><ele>283.0</ele><time>2026-04-15T12:11:51.999Z</time></trkpt><trkpt lat="36.93597099836268" lon="14.941041471023043"><ele>283.0</ele><time>2026-04-15T12:11:52.999Z</time></trkpt><trkpt lat="36.93593145604229" lon="14.941210775952909"><ele>283.0</ele><time>2026-04-15T12:11:53.999Z</time></trkpt><trkpt lat="36.93589864283022" lon="14.941386131886649"><ele>284.5</ele><time>2026-04-15T12:11:54.999Z</time></trkpt><trkpt lat="36.93585919261677" lon="14.941558692936379"><ele>286.0</ele><time>2026-04-15T12:11:55.999Z</time></trkpt><trkpt lat="36.935822108754756" lon="14.941732086132143"><ele>287.5</ele><time>2026-04-15T12:11:56.999Z</time></trkpt><trkpt lat="36.93579152422919" lon="14.941907170039993"><ele>289.0</ele><time>2026-04-15T12:11:57.999Z</time></trkpt><trkpt lat="36.935750246862476" lon="14.942072116054826"><ele>289.25</ele><time>2026-04-15T12:11:58.999Z</time></trkpt><trkpt lat="36.93570321128146" lon="14.94223806652626"><ele>289.5</ele><time>2026-04-15T12:11:59.999Z</time></trkpt><trkpt lat="36.93566053540064" lon="14.942394513765684"><ele>289.75</ele><time>2026-04-15T12:12:00.999Z</time></trkpt><trkpt lat="36.935622463571576" lon="14.942549329839135"><ele>290.0</ele><time>2026-04-15T12:12:01.999Z</time></trkpt><trkpt lat="36.935573735223166" lon="14.942694514763923"><ele>290.75</ele><time>2026-04-15T12:12:02.999Z</time></trkpt><trkpt lat="36.93551708953543" lon="14.942829355668996"><ele>291.5</ele><time>2026-04-15T12:12:03.999Z</time></trkpt><trkpt lat="36.9354405792923" lon="14.94296445621774"><ele>292.25</ele><time>2026-04-15T12:12:04.999Z</time></trkpt><trkpt lat="36.935350284111806" lon="14.943106681807247"><ele>293.0</ele><time>2026-04-15T12:12:05.999Z</time></trkpt><trkpt lat="36.93525107932737" lon="14.943256752864963"><ele>294.6666666666667</ele><time>2026-04-15T12:12:06.999Z</time></trkpt><trkpt lat="36.93514103792585" lon="14.943411121250023"><ele>296.3333333333333</ele><time>2026-04-15T12:12:07.999Z</time></trkpt><trkpt lat="36.93503042087155" lon="14.94355049165747"><ele>298.0</ele><time>2026-04-15T12:12:08.999Z</time></trkpt><trkpt lat="36.93492134186882" lon="14.943681897704629"><ele>298.0</ele><time>2026-04-15T12:12:09.999Z</time></trkpt><trkpt lat="36.93482649869385" lon="14.943801052710176"><ele>298.0</ele><time>2026-04-15T12:12:10.999Z</time></trkpt><trkpt lat="36.93475525087754" lon="14.943931895102256"><ele>298.0</ele><time>2026-04-15T12:12:11.999Z</time></trkpt><trkpt lat="36.934696976507425" lon="14.94407041739466"><ele>298.0</ele><time>2026-04-15T12:12:12.999Z</time></trkpt><trkpt lat="36.93465385236719" lon="14.94420319663848"><ele>299.5</ele><time>2026-04-15T12:12:13.999Z</time></trkpt><trkpt lat="36.934623663021235" lon="14.944347547746275"><ele>301.0</ele><time>2026-04-15T12:12:14.999Z</time></trkpt><trkpt lat="36.93460133442934" lon="14.94451833529579"><ele>302.5</ele><time>2026-04-15T12:12:15.999Z</time></trkpt><trkpt lat="36.9345733726075" lon="14.944723447801698"><ele>304.0</ele><time>2026-04-15T12:12:16.999Z</time></trkpt><trkpt lat="36.934553951601735" lon="14.94493963604096"><ele>306.0</ele><time>2026-04-15T12:12:17.999Z</time></trkpt><trkpt lat="36.93453440943945" lon="14.945144531849122"><ele>308.0</ele><time>2026-04-15T12:12:18.999Z</time></trkpt><trkpt lat="36.934525891946876" lon="14.945348924727288"><ele>310.0</ele><time>2026-04-15T12:12:19.999Z</time></trkpt><trkpt lat="36.934509821440294" lon="14.945538619689689"><ele>310.0</ele><time>2026-04-15T12:12:20.999Z</time></trkpt><trkpt lat="36.93449628681682" lon="14.945729004700748"><ele>310.0</ele><time>2026-04-15T12:12:21.999Z</time></trkpt><trkpt lat="36.93448231493381" lon="14.945908426653709"><ele>310.0</ele><time>2026-04-15T12:12:22.999Z</time></trkpt><trkpt lat="36.93446633521445" lon="14.9460942244588"><ele>310.0</ele><time>2026-04-15T12:12:23.999Z</time></trkpt><trkpt lat="36.93447401597631" lon="14.94624899824652"><ele>310.3333333333333</ele><time>2026-04-15T12:12:24.999Z</time></trkpt><trkpt lat="36.93448538965542" lon="14.946395427646218"><ele>310.66666666666663</ele><time>2026-04-15T12:12:25.999Z</time></trkpt><trkpt lat="36.934487719055596" lon="14.946521375998243"><ele>311.0</ele><time>2026-04-15T12:12:26.999Z</time></trkpt><trkpt lat="36.93451550515571" lon="14.946627888408727"><ele>311.3333333333333</ele><time>2026-04-15T12:12:27.999Z</time></trkpt><trkpt lat="36.93456124883509" lon="14.946693891868179"><ele>311.6666666666667</ele><time>2026-04-15T12:12:28.999Z</time></trkpt><trkpt lat="36.93461785867047" lon="14.946732449525776"><ele>312.0</ele><time>2026-04-15T12:12:29.999Z</time></trkpt><trkpt lat="36.93467628026876" lon="14.946767643460706"><ele>313.0</ele><time>2026-04-15T12:12:30.999Z</time></trkpt><trkpt lat="36.93473589106071" lon="14.94679383682369"><ele>314.0</ele><time>2026-04-15T12:12:31.999Z</time></trkpt><trkpt lat="36.934821202422185" lon="14.946833940552725"><ele>315.0</ele><time>2026-04-15T12:12:32.999Z</time></trkpt><trkpt lat="36.934914172191235" lon="14.946867739816438"><ele>316.0</ele><time>2026-04-15T12:12:33.999Z</time></trkpt><trkpt lat="36.934998608183946" lon="14.946881198866485"><ele>317.0</ele><time>2026-04-15T12:12:34.999Z</time></trkpt><trkpt lat="36.9350746528296" lon="14.946874366920675"><ele>318.0</ele><time>2026-04-15T12:12:35.999Z</time></trkpt><trkpt lat="36.93517010806256" lon="14.946938692163474"><ele>315.8333333333333</ele><time>2026-04-15T12:12:37.999Z</time></trkpt><trkpt lat="36.93519688764248" lon="14.947013572058598"><ele>313.6666666666667</ele><time>2026-04-15T12:12:38.999Z</time></trkpt><trkpt lat="36.9352121059421" lon="14.947109809353481"><ele>311.5</ele><time>2026-04-15T12:12:39.999Z</time></trkpt><trkpt lat="36.93522108623532" lon="14.9472405062407"><ele>309.33333333333337</ele><time>2026-04-15T12:12:40.999Z</time></trkpt><trkpt lat="36.93522519679047" lon="14.947358102028804"><ele>307.1666666666667</ele><time>2026-04-15T12:12:41.999Z</time></trkpt><trkpt lat="36.93520500508307" lon="14.947485883461093"><ele>305.0</ele><time>2026-04-15T12:12:42.999Z</time></trkpt><trkpt lat="36.93518395705678" lon="14.947607741780462"><ele>305.0</ele><time>2026-04-15T12:12:43.999Z</time></trkpt><trkpt lat="36.93518150784516" lon="14.947733336055304"><ele>305.0</ele><time>2026-04-15T12:12:44.999Z</time></trkpt><trkpt lat="36.935199907321746" lon="14.947858571479093"><ele>305.0</ele><time>2026-04-15T12:12:45.999Z</time></trkpt><trkpt lat="36.93522656236639" lon="14.94800210523517"><ele>305.0</ele><time>2026-04-15T12:12:46.999Z</time></trkpt><trkpt lat="36.93524151920102" lon="14.948152509391994"><ele>305.0</ele><time>2026-04-15T12:12:47.999Z</time></trkpt><trkpt lat="36.93524898143434" lon="14.948303304331779"><ele>307.5</ele><time>2026-04-15T12:12:48.999Z</time></trkpt><trkpt lat="36.935267500106534" lon="14.948450763750875"><ele>310.0</ele><time>2026-04-15T12:12:49.999Z</time></trkpt><trkpt lat="36.93530747003556" lon="14.948591298375437"><ele>312.5</ele><time>2026-04-15T12:12:50.999Z</time></trkpt><trkpt lat="36.935347187049636" lon="14.948725042601446"><ele>315.0</ele><time>2026-04-15T12:12:52Z</time></trkpt><trkpt lat="36.93536473586971" lon="14.948863976644562"><ele>315.0</ele><time>2026-04-15T12:12:53Z</time></trkpt><trkpt lat="36.935372896045" lon="14.949009633926677"><ele>315.0</ele><time>2026-04-15T12:12:54Z</time></trkpt><trkpt lat="36.93539192638855" lon="14.949148516053961"><ele>315.0</ele><time>2026-04-15T12:12:55Z</time></trkpt><trkpt lat="36.935415755164684" lon="14.949279112643133"><ele>315.0</ele><time>2026-04-15T12:12:56Z</time></trkpt><trkpt lat="36.935458634584826" lon="14.949406238544444"><ele>315.0</ele><time>2026-04-15T12:12:57Z</time></trkpt><trkpt lat="36.935501123498064" lon="14.949519187006926"><ele>316.6</ele><time>2026-04-15T12:12:58Z</time></trkpt><trkpt lat="36.93553237856785" lon="14.949635862683676"><ele>318.2</ele><time>2026-04-15T12:12:59Z</time></trkpt><trkpt lat="36.93555510538288" lon="14.949763773074574"><ele>319.79999999999995</ele><time>2026-04-15T12:13:00Z</time></trkpt><trkpt lat="36.93558262263715" lon="14.949895963441293"><ele>321.4</ele><time>2026-04-15T12:13:01Z</time></trkpt><trkpt lat="36.93561382782059" lon="14.950009586343775"><ele>323.0</ele><time>2026-04-15T12:13:02Z</time></trkpt><trkpt lat="36.935632913977656" lon="14.950134263540514"><ele>325.0</ele><time>2026-04-15T12:13:03Z</time></trkpt><trkpt lat="36.93562343274942" lon="14.950270051920374"><ele>327.0</ele><time>2026-04-15T12:13:04Z</time></trkpt><trkpt lat="36.93560396630859" lon="14.95039381111197"><ele>329.0</ele><time>2026-04-15T12:13:05Z</time></trkpt><trkpt lat="36.935622891583215" lon="14.950515792706325"><ele>331.0</ele><time>2026-04-15T12:13:06Z</time></trkpt><trkpt lat="36.93567104056877" lon="14.95061608078428"><ele>333.0</ele><time>2026-04-15T12:13:07Z</time></trkpt><trkpt lat="36.935729141175194" lon="14.950693304967231"><ele>333.0</ele><time>2026-04-15T12:13:08Z</time></trkpt><trkpt lat="36.935771176078234" lon="14.950782862997656"><ele>333.0</ele><time>2026-04-15T12:13:09Z</time></trkpt><trkpt lat="36.93577554272891" lon="14.950948076650162"><ele>333.0</ele><time>2026-04-15T12:13:11Z</time></trkpt><trkpt lat="36.93575967984154" lon="14.95107958409172"><ele>333.0</ele><time>2026-04-15T12:13:12Z</time></trkpt><trkpt lat="36.935740694428425" lon="14.951213616360047"><ele>333.0</ele><time>2026-04-15T12:13:13Z</time></trkpt><trkpt lat="36.935772098766634" lon="14.95135116609143"><ele>332.79999999999995</ele><time>2026-04-15T12:13:14Z</time></trkpt><trkpt lat="36.9358207187573" lon="14.951473770099655"><ele>332.6</ele><time>2026-04-15T12:13:15Z</time></trkpt><trkpt lat="36.93583463205339" lon="14.951583818184911"><ele>332.4</ele><time>2026-04-15T12:13:16Z</time></trkpt><trkpt lat="36.935813827580084" lon="14.951678698155122"><ele>332.20000000000005</ele><time>2026-04-15T12:13:17Z</time></trkpt><trkpt lat="36.93576298916864" lon="14.95176909770977"><ele>332.0</ele><time>2026-04-15T12:13:18Z</time></trkpt><trkpt lat="36.935679896784436" lon="14.951860447080174"><ele>329.5</ele><time>2026-04-15T12:13:19Z</time></trkpt><trkpt lat="36.93557318756642" lon="14.951969742048965"><ele>327.0</ele><time>2026-04-15T12:13:20Z</time></trkpt><trkpt lat="36.93545684282401" lon="14.9520754549183"><ele>324.5</ele><time>2026-04-15T12:13:21Z</time></trkpt><trkpt lat="36.93535512029672" lon="14.952149012184737"><ele>322.0</ele><time>2026-04-15T12:13:22Z</time></trkpt><trkpt lat="36.93526883240155" lon="14.95221349252545"><ele>322.0</ele><time>2026-04-15T12:13:23Z</time></trkpt><trkpt lat="36.93520731063385" lon="14.952277367381424"><ele>322.0</ele><time>2026-04-15T12:13:24Z</time></trkpt><trkpt lat="36.93516676535013" lon="14.952358620624173"><ele>322.0</ele><time>2026-04-15T12:13:25Z</time></trkpt><trkpt lat="36.93514948274953" lon="14.952458521113806"><ele>322.0</ele><time>2026-04-15T12:13:26Z</time></trkpt><trkpt lat="36.93515057727932" lon="14.952582547811572"><ele>322.0</ele><time>2026-04-15T12:13:27Z</time></trkpt><trkpt lat="36.935178013282844" lon="14.95273138172763"><ele>326.66666666666663</ele><time>2026-04-15T12:13:28Z</time></trkpt><trkpt lat="36.93521421862807" lon="14.952917417092213"><ele>331.3333333333333</ele><time>2026-04-15T12:13:29Z</time></trkpt><trkpt lat="36.93522726247829" lon="14.953111574837795"><ele>336.0</ele><time>2026-04-15T12:13:30Z</time></trkpt><trkpt lat="36.935235580398235" lon="14.953322064031116"><ele>340.5</ele><time>2026-04-15T12:13:31Z</time></trkpt><trkpt lat="36.93524574128197" lon="14.953528339658542"><ele>345.0</ele><time>2026-04-15T12:13:32Z</time></trkpt><trkpt lat="36.93526693290516" lon="14.95370890945587"><ele>349.5</ele><time>2026-04-15T12:13:33Z</time></trkpt><trkpt lat="36.9353004155696" lon="14.95385953962045"><ele>354.0</ele><time>2026-04-15T12:13:34Z</time></trkpt><trkpt lat="36.935358205010616" lon="14.953990611389473"><ele>354.0</ele><time>2026-04-15T12:13:35Z</time></trkpt><trkpt lat="36.935427155326344" lon="14.954116321071421"><ele>354.0</ele><time>2026-04-15T12:13:36Z</time></trkpt><trkpt lat="36.93550131590923" lon="14.954247083542025"><ele>354.0</ele><time>2026-04-15T12:13:37Z</time></trkpt><trkpt lat="36.93557302806817" lon="14.954394642086868"><ele>354.0</ele><time>2026-04-15T12:13:38Z</time></trkpt><trkpt lat="36.935630493293374" lon="14.95453808268489"><ele>357.5</ele><time>2026-04-15T12:13:39Z</time></trkpt><trkpt lat="36.93566291918921" lon="14.954691520415173"><ele>361.0</ele><time>2026-04-15T12:13:40Z</time></trkpt><trkpt lat="36.93569667965092" lon="14.95484018148904"><ele>364.5</ele><time>2026-04-15T12:13:41Z</time></trkpt><trkpt lat="36.935732824064765" lon="14.954985164081702"><ele>368.0</ele><time>2026-04-15T12:13:42Z</time></trkpt><trkpt lat="36.93577828881123" lon="14.955128367285292"><ele>369.75</ele><time>2026-04-15T12:13:43Z</time></trkpt><trkpt lat="36.93582138991194" lon="14.955265265427292"><ele>371.5</ele><time>2026-04-15T12:13:44Z</time></trkpt><trkpt lat="36.935861683746175" lon="14.95539843036992"><ele>373.25</ele><time>2026-04-15T12:13:45Z</time></trkpt><trkpt lat="36.935905659551565" lon="14.95552531972832"><ele>375.0</ele><time>2026-04-15T12:13:45.999Z</time></trkpt><trkpt lat="36.935943897362" lon="14.955652470552604"><ele>381.0</ele><time>2026-04-15T12:13:46.999Z</time></trkpt><trkpt lat="36.93598386171639" lon="14.955786753094577"><ele>387.0</ele><time>2026-04-15T12:13:47.999Z</time></trkpt><trkpt lat="36.93602466822921" lon="14.955920622863806"><ele>393.0</ele><time>2026-04-15T12:13:48.999Z</time></trkpt><trkpt lat="36.93606188434797" lon="14.956058675239944"><ele>399.0</ele><time>2026-04-15T12:13:49.999Z</time></trkpt><trkpt lat="36.93609349522931" lon="14.956191091868453"><ele>399.2</ele><time>2026-04-15T12:13:50.999Z</time></trkpt><trkpt lat="36.93611747743037" lon="14.956327973123399"><ele>399.4</ele><time>2026-04-15T12:13:51.999Z</time></trkpt><trkpt lat="36.936129311387994" lon="14.956446041738856"><ele>399.6</ele><time>2026-04-15T12:13:52.999Z</time></trkpt><trkpt lat="36.93614139068471" lon="14.95656821822576"><ele>399.8</ele><time>2026-04-15T12:13:53.999Z</time></trkpt><trkpt lat="36.93616057463163" lon="14.9566608919187"><ele>400.0</ele><time>2026-04-15T12:13:54.999Z</time></trkpt><trkpt lat="36.93619036474873" lon="14.956743066913525"><ele>400.00000000000006</ele><time>2026-04-15T12:13:55.999Z</time></trkpt><trkpt lat="36.93622399795573" lon="14.95681721853738"><ele>400.0</ele><time>2026-04-15T12:13:56.999Z</time></trkpt><trkpt lat="36.93626401893518" lon="14.95690416856505"><ele>400.0</ele><time>2026-04-15T12:13:57.999Z</time></trkpt><trkpt lat="36.93629641656646" lon="14.957003328034785"><ele>400.0</ele><time>2026-04-15T12:13:58.999Z</time></trkpt><trkpt lat="36.93632029862061" lon="14.95709439239674"><ele>400.00000000000006</ele><time>2026-04-15T12:13:59.999Z</time></trkpt><trkpt lat="36.936400102620865" lon="14.957218104094016"><ele>400.0</ele><time>2026-04-15T12:14:01.999Z</time></trkpt><trkpt lat="36.936473227206434" lon="14.95731196558295"><ele>400.0</ele><time>2026-04-15T12:14:02.999Z</time></trkpt><trkpt lat="36.93654126748386" lon="14.957425479211814"><ele>400.0</ele><time>2026-04-15T12:14:03.999Z</time></trkpt><trkpt lat="36.936607491204676" lon="14.957540466723595"><ele>400.0</ele><time>2026-04-15T12:14:04.999Z</time></trkpt><trkpt lat="36.936673442898986" lon="14.957648764338412"><ele>400.0</ele><time>2026-04-15T12:14:05.999Z</time></trkpt><trkpt lat="36.93674508006555" lon="14.957749475190026"><ele>400.0</ele><time>2026-04-15T12:14:06.999Z</time></trkpt><trkpt lat="36.93681107668071" lon="14.957836761340722"><ele>405.6</ele><time>2026-04-15T12:14:07.999Z</time></trkpt><trkpt lat="36.936891479712024" lon="14.95792435913902"><ele>411.2</ele><time>2026-04-15T12:14:08.999Z</time></trkpt><trkpt lat="36.936966307678425" lon="14.957994720697368"><ele>416.79999999999995</ele><time>2026-04-15T12:14:09.999Z</time></trkpt><trkpt lat="36.937050849882795" lon="14.958063339281074"><ele>422.4</ele><time>2026-04-15T12:14:10.999Z</time></trkpt><trkpt lat="36.937123531621566" lon="14.958116377167379"><ele>428.0</ele><time>2026-04-15T12:14:11.999Z</time></trkpt><trkpt lat="36.937241961531136" lon="14.958188889581615"><ele>428.00000000000006</ele><time>2026-04-15T12:14:13.999Z</time></trkpt><trkpt lat="36.93730923803906" lon="14.958234002898223"><ele>428.0</ele><time>2026-04-15T12:14:14.999Z</time></trkpt><trkpt lat="36.937361724010245" lon="14.958296464047645"><ele>428.0</ele><time>2026-04-15T12:14:15.999Z</time></trkpt><trkpt lat="36.93741966261492" lon="14.95834335906468"><ele>428.0</ele><time>2026-04-15T12:14:16.999Z</time></trkpt><trkpt lat="36.937483143447366" lon="14.958392504415993"><ele>428.0</ele><time>2026-04-15T12:14:17.999Z</time></trkpt><trkpt lat="36.937530737288256" lon="14.958462790158725"><ele>428.00000000000006</ele><time>2026-04-15T12:14:18.999Z</time></trkpt><trkpt lat="36.93757943628578" lon="14.958539562566838"><ele>428.0</ele><time>2026-04-15T12:14:19.999Z</time></trkpt><trkpt lat="36.93762112144305" lon="14.958618827432023"><ele>434.49999999999994</ele><time>2026-04-15T12:14:20.999Z</time></trkpt><trkpt lat="36.93766164536472" lon="14.958730321113936"><ele>441.0</ele><time>2026-04-15T12:14:22.999Z</time></trkpt><trkpt lat="36.937694751433234" lon="14.95884525824915"><ele>447.5</ele><time>2026-04-15T12:14:24.999Z</time></trkpt><trkpt lat="36.93771820394876" lon="14.95892817252498"><ele>454.0</ele><time>2026-04-15T12:14:25.999Z</time></trkpt><trkpt lat="36.93774457478197" lon="14.959016312924064"><ele>460.49999999999994</ele><time>2026-04-15T12:14:26.999Z</time></trkpt><trkpt lat="36.93777416323786" lon="14.959090939028679"><ele>467.0</ele><time>2026-04-15T12:14:27.999Z</time></trkpt><trkpt lat="36.93780768569435" lon="14.959165912448947"><ele>465.16666666666663</ele><time>2026-04-15T12:14:28.999Z</time></trkpt><trkpt lat="36.93783994183231" lon="14.959256515229187"><ele>463.3333333333333</ele><time>2026-04-15T12:14:29.999Z</time></trkpt><trkpt lat="36.937867073527336" lon="14.959339948118677"><ele>461.5</ele><time>2026-04-15T12:14:30.999Z</time></trkpt><trkpt lat="36.937898532888525" lon="14.959430777319842"><ele>459.66666666666663</ele><time>2026-04-15T12:14:31.999Z</time></trkpt><trkpt lat="36.93793180820962" lon="14.959516263186815"><ele>457.8333333333333</ele><time>2026-04-15T12:14:32.999Z</time></trkpt><trkpt lat="36.93796695085069" lon="14.959597612250677"><ele>456.0</ele><time>2026-04-15T12:14:33.999Z</time></trkpt><trkpt lat="36.93801205707399" lon="14.959697897983741"><ele>456.0</ele><time>2026-04-15T12:14:34.999Z</time></trkpt><trkpt lat="36.93804717967801" lon="14.959777771766813"><ele>456.0</ele><time>2026-04-15T12:14:35.999Z</time></trkpt><trkpt lat="36.938085235502214" lon="14.959856072039914"><ele>456.0</ele><time>2026-04-15T12:14:36.999Z</time></trkpt><trkpt lat="36.938118403464635" lon="14.959928929440279"><ele>456.0</ele><time>2026-04-15T12:14:37.999Z</time></trkpt><trkpt lat="36.938134629994465" lon="14.960008963577165"><ele>456.0</ele><time>2026-04-15T12:14:38.999Z</time></trkpt><trkpt lat="36.93814136885809" lon="14.960152858969847"><ele>456.0</ele><time>2026-04-15T12:14:40.999Z</time></trkpt><trkpt lat="36.938163372976334" lon="14.96025039918485"><ele>456.0</ele><time>2026-04-15T12:14:42.999Z</time></trkpt><trkpt lat="36.93822742954498" lon="14.960280236215205"><ele>455.99999999999994</ele><time>2026-04-15T12:14:44.999Z</time></trkpt><trkpt lat="36.93827125159917" lon="14.960189287512014"><ele>456.0</ele><time>2026-04-15T12:14:46.999Z</time></trkpt><trkpt lat="36.93826400155705" lon="14.960106167693093"><ele>456.0</ele><time>2026-04-15T12:14:47.999Z</time></trkpt><trkpt lat="36.93825856646684" lon="14.960017620862189"><ele>455.99999999999994</ele><time>2026-04-15T12:14:48.999Z</time></trkpt><trkpt lat="36.93825214604158" lon="14.95992582594345"><ele>456.0</ele><time>2026-04-15T12:14:49.999Z</time></trkpt><trkpt lat="36.93823279029816" lon="14.959835851413956"><ele>456.0</ele><time>2026-04-15T12:14:50.999Z</time></trkpt><trkpt lat="36.93820024462179" lon="14.9597309306833"><ele>456.0</ele><time>2026-04-15T12:14:51.999Z</time></trkpt><trkpt lat="36.938181913729146" lon="14.9596216249341"><ele>456.0</ele><time>2026-04-15T12:14:52.999Z</time></trkpt><trkpt lat="36.93817201256571" lon="14.959502412897393"><ele>456.0</ele><time>2026-04-15T12:14:53.999Z</time></trkpt><trkpt lat="36.93816420232082" lon="14.959393101115758"><ele>456.0</ele><time>2026-04-15T12:14:54.999Z</time></trkpt><trkpt lat="36.93815869951224" lon="14.959270746444231"><ele>456.0</ele><time>2026-04-15T12:14:55.999Z</time></trkpt><trkpt lat="36.93815370678755" lon="14.959142916772063"><ele>458.20000000000005</ele><time>2026-04-15T12:14:56.999Z</time></trkpt><trkpt lat="36.93815366741693" lon="14.959008162739448"><ele>460.40000000000003</ele><time>2026-04-15T12:14:58Z</time></trkpt><trkpt lat="36.93815457550803" lon="14.95888056242709"><ele>462.6</ele><time>2026-04-15T12:14:59Z</time></trkpt><trkpt lat="36.93815604608479" lon="14.958755779083777"><ele>464.8</ele><time>2026-04-15T12:15:00Z</time></trkpt><trkpt lat="36.9381768895121" lon="14.958635257548588"><ele>467.0</ele><time>2026-04-15T12:15:01Z</time></trkpt><trkpt lat="36.93822181190913" lon="14.958521658299356"><ele>466.99999999999994</ele><time>2026-04-15T12:15:02Z</time></trkpt><trkpt lat="36.93826057535055" lon="14.95840986032602"><ele>467.0</ele><time>2026-04-15T12:15:03Z</time></trkpt><trkpt lat="36.93828081433943" lon="14.958310751053402"><ele>467.0</ele><time>2026-04-15T12:15:04Z</time></trkpt><trkpt lat="36.938290895026554" lon="14.95823280115042"><ele>467.0</ele><time>2026-04-15T12:15:05Z</time></trkpt><trkpt lat="36.93835216659668" lon="14.958161385475162"><ele>466.99999999999994</ele><time>2026-04-15T12:15:07Z</time></trkpt><trkpt lat="36.93844455113508" lon="14.958197808511262"><ele>467.0</ele><time>2026-04-15T12:15:09Z</time></trkpt><trkpt lat="36.938487191047024" lon="14.958309619295463"><ele>462.16666666666663</ele><time>2026-04-15T12:15:11Z</time></trkpt><trkpt lat="36.938486417946365" lon="14.958396099060696"><ele>457.3333333333333</ele><time>2026-04-15T12:15:12Z</time></trkpt><trkpt lat="36.93848818955187" lon="14.958498715238436"><ele>452.5</ele><time>2026-04-15T12:15:13Z</time></trkpt><trkpt lat="36.93849594459707" lon="14.958607570541393"><ele>447.66666666666663</ele><time>2026-04-15T12:15:14Z</time></trkpt><trkpt lat="36.938498005464304" lon="14.958716403005893"><ele>442.8333333333333</ele><time>2026-04-15T12:15:15Z</time></trkpt><trkpt lat="36.938498667156026" lon="14.958814389970065"><ele>438.0</ele><time>2026-04-15T12:15:16Z</time></trkpt><trkpt lat="36.938504502264415" lon="14.95892034336727"><ele>438.0</ele><time>2026-04-15T12:15:17Z</time></trkpt><trkpt lat="36.93851687150677" lon="14.959017401120779"><ele>438.0</ele><time>2026-04-15T12:15:18Z</time></trkpt><trkpt lat="36.93853393340963" lon="14.959125164068713"><ele>438.0</ele><time>2026-04-15T12:15:19Z</time></trkpt><trkpt lat="36.9385589202544" lon="14.95921963524019"><ele>438.0</ele><time>2026-04-15T12:15:20Z</time></trkpt><trkpt lat="36.9385891308752" lon="14.95932802473122"><ele>438.0</ele><time>2026-04-15T12:15:21Z</time></trkpt><trkpt lat="36.93863244882969" lon="14.959440357098877"><ele>438.0</ele><time>2026-04-15T12:15:22Z</time></trkpt><trkpt lat="36.938687907307546" lon="14.959585086341344"><ele>444.75</ele><time>2026-04-15T12:15:23Z</time></trkpt><trkpt lat="36.93874493719768" lon="14.959735028543424"><ele>451.5</ele><time>2026-04-15T12:15:24Z</time></trkpt><trkpt lat="36.938797765274686" lon="14.959876736106978"><ele>458.25</ele><time>2026-04-15T12:15:25Z</time></trkpt><trkpt lat="36.93885507359528" lon="14.96002406731196"><ele>465.0</ele><time>2026-04-15T12:15:26Z</time></trkpt><trkpt lat="36.93893858542356" lon="14.960168593784214"><ele>468.5</ele><time>2026-04-15T12:15:27Z</time></trkpt><trkpt lat="36.93902091429495" lon="14.960315188297807"><ele>472.0</ele><time>2026-04-15T12:15:28Z</time></trkpt><trkpt lat="36.93908711208691" lon="14.96046898112805"><ele>475.5</ele><time>2026-04-15T12:15:29Z</time></trkpt><trkpt lat="36.93914767883246" lon="14.960616867127676"><ele>479.0</ele><time>2026-04-15T12:15:30Z</time></trkpt><trkpt lat="36.93921935191519" lon="14.960751972762166"><ele>479.4</ele><time>2026-04-15T12:15:31Z</time></trkpt><trkpt lat="36.93930070828536" lon="14.960859506316986"><ele>479.79999999999995</ele><time>2026-04-15T12:15:32Z</time></trkpt><trkpt lat="36.93937856302712" lon="14.960944735262283"><ele>480.20000000000005</ele><time>2026-04-15T12:15:33Z</time></trkpt><trkpt lat="36.939446973838706" lon="14.961034433509253"><ele>480.6</ele><time>2026-04-15T12:15:34Z</time></trkpt><trkpt lat="36.939500198969526" lon="14.961120633343176"><ele>481.0</ele><time>2026-04-15T12:15:35Z</time></trkpt><trkpt lat="36.939556411339495" lon="14.961230101209832"><ele>481.0</ele><time>2026-04-15T12:15:36Z</time></trkpt><trkpt lat="36.93960544968102" lon="14.961329935859077"><ele>481.0</ele><time>2026-04-15T12:15:37Z</time></trkpt><trkpt lat="36.939664554018535" lon="14.9614404914906"><ele>481.0</ele><time>2026-04-15T12:15:38Z</time></trkpt><trkpt lat="36.93972649888235" lon="14.961544844434808"><ele>481.0</ele><time>2026-04-15T12:15:39Z</time></trkpt><trkpt lat="36.939785969194524" lon="14.961653202246572"><ele>481.0</ele><time>2026-04-15T12:15:40Z</time></trkpt><trkpt lat="36.93985478588982" lon="14.961760795551406"><ele>484.6</ele><time>2026-04-15T12:15:41Z</time></trkpt><trkpt lat="36.93990013285436" lon="14.961864516851282"><ele>488.20000000000005</ele><time>2026-04-15T12:15:42Z</time></trkpt><trkpt lat="36.939923407135964" lon="14.961971542840555"><ele>491.79999999999995</ele><time>2026-04-15T12:15:43Z</time></trkpt><trkpt lat="36.93993166799495" lon="14.962101704614094"><ele>495.4</ele><time>2026-04-15T12:15:44Z</time></trkpt><trkpt lat="36.9399392976826" lon="14.962255363755443"><ele>499.0</ele><time>2026-04-15T12:15:45Z</time></trkpt><trkpt lat="36.93996387136866" lon="14.962402472860127"><ele>499.0</ele><time>2026-04-15T12:15:46Z</time></trkpt><trkpt lat="36.94002512149148" lon="14.962527081973354"><ele>499.0</ele><time>2026-04-15T12:15:47Z</time></trkpt><trkpt lat="36.94012105380204" lon="14.962647986398263"><ele>499.0</ele><time>2026-04-15T12:15:48Z</time></trkpt><trkpt lat="36.94022320394785" lon="14.962780354622831"><ele>499.0</ele><time>2026-04-15T12:15:49Z</time></trkpt><trkpt lat="36.940311832267305" lon="14.962917222223263"><ele>500.0</ele><time>2026-04-15T12:15:50Z</time></trkpt><trkpt lat="36.94038616333108" lon="14.963037471560426"><ele>501.0</ele><time>2026-04-15T12:15:51Z</time></trkpt><trkpt lat="36.940451715967875" lon="14.963140080785644"><ele>502.0</ele><time>2026-04-15T12:15:52Z</time></trkpt><trkpt lat="36.940513359303694" lon="14.963240027499054"><ele>503.0</ele><time>2026-04-15T12:15:53Z</time></trkpt><trkpt lat="36.94058780770237" lon="14.963341377399841"><ele>504.0</ele><time>2026-04-15T12:15:54Z</time></trkpt><trkpt lat="36.9406614832384" lon="14.963446106325556"><ele>507.4</ele><time>2026-04-15T12:15:55Z</time></trkpt><trkpt lat="36.94074259210255" lon="14.963536837275203"><ele>510.79999999999995</ele><time>2026-04-15T12:15:56Z</time></trkpt><trkpt lat="36.940828464678" lon="14.963600726304374"><ele>514.2</ele><time>2026-04-15T12:15:57Z</time></trkpt><trkpt lat="36.94091385403706" lon="14.963656350136514"><ele>517.6</ele><time>2026-04-15T12:15:58Z</time></trkpt><trkpt lat="36.94099687387503" lon="14.963694569601364"><ele>521.0</ele><time>2026-04-15T12:15:59Z</time></trkpt><trkpt lat="36.94107071145806" lon="14.963710489881244"><ele>517.1666666666666</ele><time>2026-04-15T12:16:00Z</time></trkpt><trkpt lat="36.9411318287873" lon="14.963740886971662"><ele>513.3333333333333</ele><time>2026-04-15T12:16:00.999Z</time></trkpt><trkpt lat="36.941192877962266" lon="14.96386979518416"><ele>509.5</ele><time>2026-04-15T12:16:02.999Z</time></trkpt><trkpt lat="36.941218999553335" lon="14.963959385972295"><ele>505.66666666666663</ele><time>2026-04-15T12:16:03.999Z</time></trkpt><trkpt lat="36.9412571481218" lon="14.964061383418475"><ele>501.8333333333333</ele><time>2026-04-15T12:16:04.999Z</time></trkpt><trkpt lat="36.94129365975593" lon="14.964159312510336"><ele>498.0</ele><time>2026-04-15T12:16:05.999Z</time></trkpt><trkpt lat="36.94132196647382" lon="14.96426861231821"><ele>498.0</ele><time>2026-04-15T12:16:06.999Z</time></trkpt><trkpt lat="36.9413426412873" lon="14.964400699798151"><ele>497.99999999999994</ele><time>2026-04-15T12:16:07.999Z</time></trkpt><trkpt lat="36.94134914971306" lon="14.964534877536595"><ele>497.99999999999994</ele><time>2026-04-15T12:16:08.999Z</time></trkpt><trkpt lat="36.94134621220684" lon="14.964662216778784"><ele>498.0</ele><time>2026-04-15T12:16:09.999Z</time></trkpt><trkpt lat="36.94134733238702" lon="14.964774459276562"><ele>498.0</ele><time>2026-04-15T12:16:10.999Z</time></trkpt><trkpt lat="36.94135209068216" lon="14.964883927504934"><ele>498.0</ele><time>2026-04-15T12:16:11.999Z</time></trkpt><trkpt lat="36.941359512398584" lon="14.964992063695291"><ele>497.99999999999994</ele><time>2026-04-15T12:16:12.999Z</time></trkpt><trkpt lat="36.941385582615666" lon="14.965112169167515"><ele>497.99999999999994</ele><time>2026-04-15T12:16:13.999Z</time></trkpt><trkpt lat="36.94143277359579" lon="14.965226455079085"><ele>498.0</ele><time>2026-04-15T12:16:14.999Z</time></trkpt><trkpt lat="36.94148729075311" lon="14.96533573584896"><ele>498.0</ele><time>2026-04-15T12:16:15.999Z</time></trkpt><trkpt lat="36.941544374812956" lon="14.965445595317771"><ele>499.59999999999997</ele><time>2026-04-15T12:16:16.999Z</time></trkpt><trkpt lat="36.94158258400654" lon="14.965554487151241"><ele>501.19999999999993</ele><time>2026-04-15T12:16:17.999Z</time></trkpt><trkpt lat="36.94160933354796" lon="14.965683724057246"><ele>502.8</ele><time>2026-04-15T12:16:18.999Z</time></trkpt><trkpt lat="36.94161602457117" lon="14.96582382561706"><ele>504.4</ele><time>2026-04-15T12:16:19.999Z</time></trkpt><trkpt lat="36.94162008539982" lon="14.965978202883939"><ele>506.0</ele><time>2026-04-15T12:16:20.999Z</time></trkpt><trkpt lat="36.94161601042468" lon="14.96613207208594"><ele>506.5</ele><time>2026-04-15T12:16:21.999Z</time></trkpt><trkpt lat="36.94161415069259" lon="14.966269176301825"><ele>507.0</ele><time>2026-04-15T12:16:22.999Z</time></trkpt><trkpt lat="36.94160822453132" lon="14.966406101865317"><ele>507.5</ele><time>2026-04-15T12:16:23.999Z</time></trkpt><trkpt lat="36.94160693106756" lon="14.966557703152093"><ele>508.0</ele><time>2026-04-15T12:16:24.999Z</time></trkpt><trkpt lat="36.94158729716012" lon="14.966696744404132"><ele>509.25</ele><time>2026-04-15T12:16:25.999Z</time></trkpt><trkpt lat="36.94154356601115" lon="14.966820192576359"><ele>510.5</ele><time>2026-04-15T12:16:26.999Z</time></trkpt><trkpt lat="36.9414888597248" lon="14.966975993308983"><ele>511.75</ele><time>2026-04-15T12:16:27.999Z</time></trkpt><trkpt lat="36.941419663877944" lon="14.967164766397758"><ele>513.0</ele><time>2026-04-15T12:16:28.999Z</time></trkpt><trkpt lat="36.94136531440001" lon="14.967353825547796"><ele>513.0</ele><time>2026-04-15T12:16:29.999Z</time></trkpt><trkpt lat="36.94132020681878" lon="14.967523723847474"><ele>513.0</ele><time>2026-04-15T12:16:30.999Z</time></trkpt><trkpt lat="36.941284941827256" lon="14.967694691800437"><ele>513.0</ele><time>2026-04-15T12:16:31.999Z</time></trkpt><trkpt lat="36.941244206686974" lon="14.967869542359077"><ele>513.0</ele><time>2026-04-15T12:16:32.999Z</time></trkpt><trkpt lat="36.94120262576634" lon="14.968040455321741"><ele>512.25</ele><time>2026-04-15T12:16:33.999Z</time></trkpt><trkpt lat="36.94115820702309" lon="14.968202137250534"><ele>511.5</ele><time>2026-04-15T12:16:34.999Z</time></trkpt><trkpt lat="36.94110631735669" lon="14.968355241925247"><ele>510.75</ele><time>2026-04-15T12:16:35.999Z</time></trkpt><trkpt lat="36.941049656311634" lon="14.968499273191146"><ele>510.0</ele><time>2026-04-15T12:16:36.999Z</time></trkpt><trkpt lat="36.94098182886189" lon="14.96863152221671"><ele>509.5</ele><time>2026-04-15T12:16:37.999Z</time></trkpt><trkpt lat="36.94090085048254" lon="14.968747826137191"><ele>509.0</ele><time>2026-04-15T12:16:38.999Z</time></trkpt><trkpt lat="36.94081450733986" lon="14.968847271766606"><ele>508.5</ele><time>2026-04-15T12:16:39.999Z</time></trkpt><trkpt lat="36.94075188971746" lon="14.968961176409152"><ele>508.0</ele><time>2026-04-15T12:16:40.999Z</time></trkpt><trkpt lat="36.94073713884848" lon="14.969129455101573"><ele>507.33333333333337</ele><time>2026-04-15T12:16:41.999Z</time></trkpt><trkpt lat="36.940713367546145" lon="14.969324867987103"><ele>506.66666666666663</ele><time>2026-04-15T12:16:42.999Z</time></trkpt><trkpt lat="36.9406820162976" lon="14.969540034478374"><ele>506.0</ele><time>2026-04-15T12:16:43.999Z</time></trkpt><trkpt lat="36.9406494126749" lon="14.96976488711179"><ele>506.0</ele><time>2026-04-15T12:16:44.999Z</time></trkpt><trkpt lat="36.94061393764574" lon="14.970021690880953"><ele>506.0</ele><time>2026-04-15T12:16:45.999Z</time></trkpt><trkpt lat="36.940578436912965" lon="14.970278385476707"><ele>506.0</ele><time>2026-04-15T12:16:46.999Z</time></trkpt><trkpt lat="36.94054565923032" lon="14.970512385208208"><ele>506.0</ele><time>2026-04-15T12:16:47.999Z</time></trkpt><trkpt lat="36.940500108549564" lon="14.970756121277352"><ele>506.0</ele><time>2026-04-15T12:16:48.999Z</time></trkpt><trkpt lat="36.94044954135191" lon="14.970984411596655"><ele>506.0</ele><time>2026-04-15T12:16:49.999Z</time></trkpt><trkpt lat="36.940412184195225" lon="14.971221323585572"><ele>506.66666666666663</ele><time>2026-04-15T12:16:50.999Z</time></trkpt><trkpt lat="36.94039538813996" lon="14.971477884380768"><ele>507.33333333333337</ele><time>2026-04-15T12:16:51.999Z</time></trkpt><trkpt lat="36.94039502055488" lon="14.971725629217381"><ele>508.0</ele><time>2026-04-15T12:16:52.999Z</time></trkpt><trkpt lat="36.94039423017534" lon="14.971938185131487"><ele>509.0</ele><time>2026-04-15T12:16:53.999Z</time></trkpt><trkpt lat="36.940399133393214" lon="14.972129448771662"><ele>510.0</ele><time>2026-04-15T12:16:54.999Z</time></trkpt><trkpt lat="36.940416240585364" lon="14.972301939738555"><ele>511.0</ele><time>2026-04-15T12:16:55.999Z</time></trkpt><trkpt lat="36.94041534635889" lon="14.972462203682213"><ele>512.0</ele><time>2026-04-15T12:16:56.999Z</time></trkpt><trkpt lat="36.940396566851184" lon="14.972619554777168"><ele>513.75</ele><time>2026-04-15T12:16:57.999Z</time></trkpt><trkpt lat="36.94037058741457" lon="14.97277182191823"><ele>515.5</ele><time>2026-04-15T12:16:58.999Z</time></trkpt><trkpt lat="36.94033487931873" lon="14.972913725487276"><ele>517.25</ele><time>2026-04-15T12:16:59.999Z</time></trkpt><trkpt lat="36.94030761302892" lon="14.973060941080623"><ele>519.0</ele><time>2026-04-15T12:17:00.999Z</time></trkpt><trkpt lat="36.940302787719766" lon="14.973214131925394"><ele>520.75</ele><time>2026-04-15T12:17:01.999Z</time></trkpt><trkpt lat="36.9403065204874" lon="14.973367949595067"><ele>522.5</ele><time>2026-04-15T12:17:02.999Z</time></trkpt><trkpt lat="36.94032052348097" lon="14.973527770930184"><ele>524.25</ele><time>2026-04-15T12:17:04Z</time></trkpt><trkpt lat="36.9403542144138" lon="14.973695348460053"><ele>526.0</ele><time>2026-04-15T12:17:05Z</time></trkpt><trkpt lat="36.940392672691765" lon="14.973883323043111"><ele>526.0</ele><time>2026-04-15T12:17:06Z</time></trkpt><trkpt lat="36.94042969157622" lon="14.974080649057013"><ele>526.0</ele><time>2026-04-15T12:17:07Z</time></trkpt><trkpt lat="36.94047539621131" lon="14.974284404712225"><ele>526.0</ele><time>2026-04-15T12:17:08Z</time></trkpt><trkpt lat="36.940520416602574" lon="14.974489917005338"><ele>529.0</ele><time>2026-04-15T12:17:09Z</time></trkpt><trkpt lat="36.94055387158029" lon="14.974689958110517"><ele>532.0</ele><time>2026-04-15T12:17:10Z</time></trkpt><trkpt lat="36.94056369730853" lon="14.974873394672617"><ele>535.0</ele><time>2026-04-15T12:17:11Z</time></trkpt><trkpt lat="36.940543356797065" lon="14.975037891874821"><ele>538.0</ele><time>2026-04-15T12:17:12Z</time></trkpt><trkpt lat="36.940520578252176" lon="14.975187980982204"><ele>540.5</ele><time>2026-04-15T12:17:13Z</time></trkpt><trkpt lat="36.94053921954566" lon="14.975327499783498"><ele>543.0</ele><time>2026-04-15T12:17:14Z</time></trkpt><trkpt lat="36.940593617916186" lon="14.975484129625716"><ele>545.5</ele><time>2026-04-15T12:17:15Z</time></trkpt><trkpt lat="36.94066144882799" lon="14.97565422602579"><ele>548.0</ele><time>2026-04-15T12:17:16Z</time></trkpt><trkpt lat="36.94072732138204" lon="14.975844649897278"><ele>551.0</ele><time>2026-04-15T12:17:17Z</time></trkpt><trkpt lat="36.940789207026114" lon="14.976047787384745"><ele>554.0</ele><time>2026-04-15T12:17:18Z</time></trkpt><trkpt lat="36.94086616676221" lon="14.976257798228922"><ele>557.0</ele><time>2026-04-15T12:17:19Z</time></trkpt><trkpt lat="36.94095759224561" lon="14.976467920813842"><ele>559.3333333333333</ele><time>2026-04-15T12:17:20Z</time></trkpt><trkpt lat="36.94104394810234" lon="14.976662922835"><ele>561.6666666666666</ele><time>2026-04-15T12:17:21Z</time></trkpt><trkpt lat="36.94111791514408" lon="14.976835063221547"><ele>564.0</ele><time>2026-04-15T12:17:22Z</time></trkpt><trkpt lat="36.94117823384882" lon="14.976986483241669"><ele>564.25</ele><time>2026-04-15T12:17:23Z</time></trkpt><trkpt lat="36.941232885670615" lon="14.977136480252652"><ele>564.5</ele><time>2026-04-15T12:17:24Z</time></trkpt><trkpt lat="36.94130091173798" lon="14.97728745229104"><ele>564.75</ele><time>2026-04-15T12:17:25Z</time></trkpt><trkpt lat="36.94139782538249" lon="14.977448049081453"><ele>565.0</ele><time>2026-04-15T12:17:26Z</time></trkpt><trkpt lat="36.941502097883436" lon="14.97761894366573"><ele>565.0</ele><time>2026-04-15T12:17:27Z</time></trkpt><trkpt lat="36.94159544782767" lon="14.977803888348543"><ele>565.0</ele><time>2026-04-15T12:17:28Z</time></trkpt><trkpt lat="36.94168437806251" lon="14.977975689090249"><ele>565.0</ele><time>2026-04-15T12:17:29Z</time></trkpt><trkpt lat="36.94175960702103" lon="14.97812965538631"><ele>565.0</ele><time>2026-04-15T12:17:30Z</time></trkpt><trkpt lat="36.941825906329015" lon="14.978279236741031"><ele>565.0</ele><time>2026-04-15T12:17:31Z</time></trkpt><trkpt lat="36.9418820757487" lon="14.978427801357753"><ele>565.0</ele><time>2026-04-15T12:17:32Z</time></trkpt><trkpt lat="36.94191633229731" lon="14.978547337025821"><ele>565.0</ele><time>2026-04-15T12:17:33Z</time></trkpt><trkpt lat="36.9419464245585" lon="14.978639065259511"><ele>565.0</ele><time>2026-04-15T12:17:34Z</time></trkpt><trkpt lat="36.941979154233636" lon="14.978742120168738"><ele>564.5</ele><time>2026-04-15T12:17:36Z</time></trkpt><trkpt lat="36.94206265337764" lon="14.978792569278594"><ele>564.0</ele><time>2026-04-15T12:17:40Z</time></trkpt><trkpt lat="36.94215274066054" lon="14.978765162482976"><ele>563.5</ele><time>2026-04-15T12:17:41Z</time></trkpt><trkpt lat="36.94222909235884" lon="14.978739258610451"><ele>563.0</ele><time>2026-04-15T12:17:42Z</time></trkpt><trkpt lat="36.94230473225862" lon="14.978717188361042"><ele>562.5</ele><time>2026-04-15T12:17:43Z</time></trkpt><trkpt lat="36.942392418989236" lon="14.978698694441219"><ele>562.0</ele><time>2026-04-15T12:17:44Z</time></trkpt><trkpt lat="36.942496331708654" lon="14.978681246543047"><ele>562.4</ele><time>2026-04-15T12:17:45Z</time></trkpt><trkpt lat="36.942589410203624" lon="14.978660242046036"><ele>562.8000000000001</ele><time>2026-04-15T12:17:46Z</time></trkpt><trkpt lat="36.94268621604072" lon="14.978641505771776"><ele>563.2</ele><time>2026-04-15T12:17:47Z</time></trkpt><trkpt lat="36.94280113443451" lon="14.97861731003462"><ele>563.6</ele><time>2026-04-15T12:17:48Z</time></trkpt><trkpt lat="36.942933528208144" lon="14.978583859750009"><ele>564.0</ele><time>2026-04-15T12:17:49Z</time></trkpt><trkpt lat="36.94306196651234" lon="14.978550156351613"><ele>564.0</ele><time>2026-04-15T12:17:50Z</time></trkpt><trkpt lat="36.94320599292287" lon="14.978512879741453"><ele>564.0</ele><time>2026-04-15T12:17:51Z</time></trkpt><trkpt lat="36.94336781628348" lon="14.978469088223878"><ele>564.0</ele><time>2026-04-15T12:17:52Z</time></trkpt><trkpt lat="36.94352434147509" lon="14.978422136826726"><ele>564.75</ele><time>2026-04-15T12:17:53Z</time></trkpt><trkpt lat="36.94366977097797" lon="14.978375825466843"><ele>565.5</ele><time>2026-04-15T12:17:54Z</time></trkpt><trkpt lat="36.94380631816629" lon="14.978336420017348"><ele>566.25</ele><time>2026-04-15T12:17:55Z</time></trkpt><trkpt lat="36.94394714589401" lon="14.978293082974405"><ele>567.0</ele><time>2026-04-15T12:17:56Z</time></trkpt><trkpt lat="36.944089649681054" lon="14.978254096053211"><ele>567.5</ele><time>2026-04-15T12:17:57Z</time></trkpt><trkpt lat="36.94422198110529" lon="14.978212562364767"><ele>568.0</ele><time>2026-04-15T12:17:58Z</time></trkpt><trkpt lat="36.94433784606107" lon="14.9781715538587"><ele>568.5</ele><time>2026-04-15T12:17:59Z</time></trkpt><trkpt lat="36.94444073794404" lon="14.978145760344637"><ele>569.0</ele><time>2026-04-15T12:18:00Z</time></trkpt><trkpt lat="36.944532470829515" lon="14.978131738683674"><ele>569.0</ele><time>2026-04-15T12:18:01Z</time></trkpt><trkpt lat="36.944614131595266" lon="14.978119471510787"><ele>569.0</ele><time>2026-04-15T12:18:02Z</time></trkpt><trkpt lat="36.94467885315262" lon="14.978124541117806"><ele>569.0</ele><time>2026-04-15T12:18:03Z</time></trkpt><trkpt lat="36.944742050947625" lon="14.978187846126525"><ele>569.0</ele><time>2026-04-15T12:18:04.999Z</time></trkpt><trkpt lat="36.94475464304007" lon="14.978354770456914"><ele>569.0</ele><time>2026-04-15T12:18:06.999Z</time></trkpt><trkpt lat="36.944776379983765" lon="14.978456067444144"><ele>569.0</ele><time>2026-04-15T12:18:07.999Z</time></trkpt><trkpt lat="36.944800861769565" lon="14.978591442593341"><ele>569.25</ele><time>2026-04-15T12:18:08.999Z</time></trkpt><trkpt lat="36.944822167317305" lon="14.978722763114598"><ele>569.5</ele><time>2026-04-15T12:18:09.999Z</time></trkpt><trkpt lat="36.94484859737485" lon="14.978867843465588"><ele>569.75</ele><time>2026-04-15T12:18:10.999Z</time></trkpt><trkpt lat="36.94488067832704" lon="14.97902690680063"><ele>570.0</ele><time>2026-04-15T12:18:11.999Z</time></trkpt><trkpt lat="36.94491540320219" lon="14.979199567525946"><ele>570.0</ele><time>2026-04-15T12:18:12.999Z</time></trkpt><trkpt lat="36.94494721383716" lon="14.97939009480399"><ele>570.0</ele><time>2026-04-15T12:18:13.999Z</time></trkpt><trkpt lat="36.94497817091874" lon="14.979577585075655"><ele>570.0</ele><time>2026-04-15T12:18:14.999Z</time></trkpt><trkpt lat="36.94501671580611" lon="14.979772484196635"><ele>571.0</ele><time>2026-04-15T12:18:15.999Z</time></trkpt><trkpt lat="36.94505316389871" lon="14.979963196295614"><ele>572.0</ele><time>2026-04-15T12:18:16.999Z</time></trkpt><trkpt lat="36.945083871693484" lon="14.980152294118929"><ele>573.0</ele><time>2026-04-15T12:18:17.999Z</time></trkpt><trkpt lat="36.94511727136795" lon="14.980335645356439"><ele>573.0</ele><time>2026-04-15T12:18:18.999Z</time></trkpt><trkpt lat="36.94515495772635" lon="14.980520935832255"><ele>573.0</ele><time>2026-04-15T12:18:19.999Z</time></trkpt><trkpt lat="36.9451875157037" lon="14.980702278316414"><ele>573.0</ele><time>2026-04-15T12:18:20.999Z</time></trkpt><trkpt lat="36.9452149995328" lon="14.98088350243147"><ele>573.0</ele><time>2026-04-15T12:18:21.999Z</time></trkpt><trkpt lat="36.94524034820796" lon="14.981042658894351"><ele>572.6</ele><time>2026-04-15T12:18:22.999Z</time></trkpt><trkpt lat="36.9452723817998" lon="14.981192621252145"><ele>572.1999999999999</ele><time>2026-04-15T12:18:23.999Z</time></trkpt><trkpt lat="36.94529288574848" lon="14.981331868045759"><ele>571.8</ele><time>2026-04-15T12:18:24.999Z</time></trkpt><trkpt lat="36.9453161583398" lon="14.981451095872862"><ele>571.4</ele><time>2026-04-15T12:18:25.999Z</time></trkpt><trkpt lat="36.94533839807361" lon="14.981551165767632"><ele>571.0</ele><time>2026-04-15T12:18:26.999Z</time></trkpt><trkpt lat="36.945340494551544" lon="14.981640183764082"><ele>569.8</ele><time>2026-04-15T12:18:27.999Z</time></trkpt><trkpt lat="36.945269962423886" lon="14.981762796960759"><ele>568.6</ele><time>2026-04-15T12:18:29.999Z</time></trkpt><trkpt lat="36.945194823024096" lon="14.98189399854728"><ele>567.4</ele><time>2026-04-15T12:18:31.999Z</time></trkpt><trkpt lat="36.945152154081285" lon="14.981992208152866"><ele>566.2</ele><time>2026-04-15T12:18:32.999Z</time></trkpt><trkpt lat="36.945096460324514" lon="14.98210347091441"><ele>565.0</ele><time>2026-04-15T12:18:33.999Z</time></trkpt><trkpt lat="36.94504749525754" lon="14.982197652755785"><ele>564.3333333333334</ele><time>2026-04-15T12:18:34.999Z</time></trkpt><trkpt lat="36.94500669592491" lon="14.982276868359458"><ele>563.6666666666667</ele><time>2026-04-15T12:18:35.999Z</time></trkpt><trkpt lat="36.94496680011239" lon="14.982359427735854"><ele>563.0</ele><time>2026-04-15T12:18:36.999Z</time></trkpt><trkpt lat="36.94493781143299" lon="14.982448544939574"><ele>562.3333333333334</ele><time>2026-04-15T12:18:38.999Z</time></trkpt><trkpt lat="36.94497684189672" lon="14.982511201194"><ele>561.6666666666666</ele><time>2026-04-15T12:18:40.999Z</time></trkpt><trkpt lat="36.945061177402536" lon="14.98261220658086"><ele>561.0</ele><time>2026-04-15T12:18:42.999Z</time></trkpt><trkpt lat="36.94514586109513" lon="14.982737558266999"><ele>561.0</ele><time>2026-04-15T12:18:44.999Z</time></trkpt><trkpt lat="36.94519494158068" lon="14.98280652180714"><ele>561.0</ele><time>2026-04-15T12:18:45.999Z</time></trkpt><trkpt lat="36.94524943036483" lon="14.982886546192072"><ele>561.0</ele><time>2026-04-15T12:18:46.999Z</time></trkpt><trkpt lat="36.94531134420325" lon="14.98297966132403"><ele>561.0</ele><time>2026-04-15T12:18:47.999Z</time></trkpt><trkpt lat="36.9453799608575" lon="14.983078617544574"><ele>561.0</ele><time>2026-04-15T12:18:48.999Z</time></trkpt><trkpt lat="36.945445031621766" lon="14.983183724284395"><ele>561.0</ele><time>2026-04-15T12:18:49.999Z</time></trkpt><trkpt lat="36.94551228936325" lon="14.983292477092899"><ele>561.0</ele><time>2026-04-15T12:18:50.999Z</time></trkpt><trkpt lat="36.94556705474498" lon="14.983396359341128"><ele>561.0</ele><time>2026-04-15T12:18:51.999Z</time></trkpt><trkpt lat="36.94559798977689" lon="14.983491996584569"><ele>561.0</ele><time>2026-04-15T12:18:52.999Z</time></trkpt><trkpt lat="36.945606038436914" lon="14.983638123336407"><ele>561.0</ele><time>2026-04-15T12:18:54.999Z</time></trkpt><trkpt lat="36.945585902123774" lon="14.983781328876006"><ele>561.8333333333334</ele><time>2026-04-15T12:18:56.999Z</time></trkpt><trkpt lat="36.94556905124251" lon="14.983862835499382"><ele>562.6666666666666</ele><time>2026-04-15T12:18:57.999Z</time></trkpt><trkpt lat="36.94553577662657" lon="14.98393828328892"><ele>563.5</ele><time>2026-04-15T12:18:58.999Z</time></trkpt><trkpt lat="36.945498279676805" lon="14.98402732180756"><ele>564.3333333333333</ele><time>2026-04-15T12:18:59.999Z</time></trkpt><trkpt lat="36.9454557463199" lon="14.984134283464659"><ele>565.1666666666666</ele><time>2026-04-15T12:19:00.999Z</time></trkpt><trkpt lat="36.94541800232896" lon="14.984236557857418"><ele>566.0</ele><time>2026-04-15T12:19:01.999Z</time></trkpt><trkpt lat="36.945389591832246" lon="14.984343454300507"><ele>566.0</ele><time>2026-04-15T12:19:02.999Z</time></trkpt><trkpt lat="36.94536012418651" lon="14.984451458366479"><ele>566.0</ele><time>2026-04-15T12:19:03.999Z</time></trkpt><trkpt lat="36.94534686916414" lon="14.984562474993785"><ele>566.0</ele><time>2026-04-15T12:19:04.999Z</time></trkpt><trkpt lat="36.94535371040395" lon="14.984670044851757"><ele>566.0</ele><time>2026-04-15T12:19:05.999Z</time></trkpt><trkpt lat="36.945380311896194" lon="14.984786452971079"><ele>566.0</ele><time>2026-04-15T12:19:06.999Z</time></trkpt><trkpt lat="36.94541206912256" lon="14.984933387226288"><ele>566.25</ele><time>2026-04-15T12:19:07.999Z</time></trkpt><trkpt lat="36.94544080487061" lon="14.985086133030068"><ele>566.5</ele><time>2026-04-15T12:19:08.999Z</time></trkpt><trkpt lat="36.94545844677802" lon="14.985243591538488"><ele>566.75</ele><time>2026-04-15T12:19:10Z</time></trkpt><trkpt lat="36.94547859499361" lon="14.985410362349949"><ele>567.0</ele><time>2026-04-15T12:19:11Z</time></trkpt><trkpt lat="36.94550405958195" lon="14.985575469446063"><ele>567.0</ele><time>2026-04-15T12:19:12Z</time></trkpt><trkpt lat="36.945526287498645" lon="14.985737854306864"><ele>567.0</ele><time>2026-04-15T12:19:13Z</time></trkpt><trkpt lat="36.94554575285586" lon="14.985890857374777"><ele>567.0</ele><time>2026-04-15T12:19:14Z</time></trkpt><trkpt lat="36.94556837668207" lon="14.986028889835373"><ele>567.0</ele><time>2026-04-15T12:19:15Z</time></trkpt><trkpt lat="36.94558680345329" lon="14.986156014489634"><ele>567.0</ele><time>2026-04-15T12:19:16Z</time></trkpt><trkpt lat="36.94560457515057" lon="14.986284950727402"><ele>567.0</ele><time>2026-04-15T12:19:17Z</time></trkpt><trkpt lat="36.94561920535024" lon="14.986409188978625"><ele>567.0</ele><time>2026-04-15T12:19:18Z</time></trkpt><trkpt lat="36.94563093615189" lon="14.98652793201299"><ele>567.0</ele><time>2026-04-15T12:19:19Z</time></trkpt><trkpt lat="36.94564175245466" lon="14.98664244582975"><ele>567.0</ele><time>2026-04-15T12:19:20Z</time></trkpt><trkpt lat="36.94565289538296" lon="14.986750824207695"><ele>566.0</ele><time>2026-04-15T12:19:21Z</time></trkpt><trkpt lat="36.94566633820761" lon="14.986857512738112"><ele>565.0</ele><time>2026-04-15T12:19:22Z</time></trkpt><trkpt lat="36.94566334386609" lon="14.986978519164005"><ele>564.0</ele><time>2026-04-15T12:19:23Z</time></trkpt><trkpt lat="36.94564599492333" lon="14.987098774013702"><ele>563.0</ele><time>2026-04-15T12:19:24Z</time></trkpt><trkpt lat="36.94562449306274" lon="14.987233030391948"><ele>562.0</ele><time>2026-04-15T12:19:25Z</time></trkpt><trkpt lat="36.945602206491394" lon="14.987367218001934"><ele>562.0</ele><time>2026-04-15T12:19:26Z</time></trkpt><trkpt lat="36.94558503552083" lon="14.987495907206691"><ele>562.0</ele><time>2026-04-15T12:19:27Z</time></trkpt><trkpt lat="36.945561524096426" lon="14.987612664861029"><ele>562.0</ele><time>2026-04-15T12:19:28Z</time></trkpt><trkpt lat="36.94553552426592" lon="14.987717045680693"><ele>562.0</ele><time>2026-04-15T12:19:29Z</time></trkpt><trkpt lat="36.945507307225114" lon="14.987813347656592"><ele>562.0</ele><time>2026-04-15T12:19:30Z</time></trkpt><trkpt lat="36.94547835165494" lon="14.987902518514083"><ele>562.0</ele><time>2026-04-15T12:19:31Z</time></trkpt><trkpt lat="36.94542744854813" lon="14.987991294624713"><ele>560.4</ele><time>2026-04-15T12:19:32Z</time></trkpt><trkpt lat="36.94536605364495" lon="14.988088764331982"><ele>558.8000000000001</ele><time>2026-04-15T12:19:33Z</time></trkpt><trkpt lat="36.94530136621524" lon="14.988192476221807"><ele>557.2</ele><time>2026-04-15T12:19:34Z</time></trkpt><trkpt lat="36.94523577943261" lon="14.988296024257762"><ele>555.6</ele><time>2026-04-15T12:19:35Z</time></trkpt><trkpt lat="36.945168507518225" lon="14.988393927762743"><ele>554.0</ele><time>2026-04-15T12:19:36Z</time></trkpt><trkpt lat="36.945100236336785" lon="14.988487506528328"><ele>552.2</ele><time>2026-04-15T12:19:37Z</time></trkpt><trkpt lat="36.94503421130292" lon="14.988587520715468"><ele>550.4</ele><time>2026-04-15T12:19:38Z</time></trkpt><trkpt lat="36.94497726088035" lon="14.988685252788056"><ele>548.6</ele><time>2026-04-15T12:19:39Z</time></trkpt><trkpt lat="36.94491855086121" lon="14.988792218278808"><ele>546.8</ele><time>2026-04-15T12:19:40Z</time></trkpt><trkpt lat="36.94487037414548" lon="14.988899476427907"><ele>545.0</ele><time>2026-04-15T12:19:41Z</time></trkpt><trkpt lat="36.94483618245472" lon="14.989000365114089"><ele>545.0</ele><time>2026-04-15T12:19:42Z</time></trkpt><trkpt lat="36.94480119736777" lon="14.989106074475005"><ele>545.0</ele><time>2026-04-15T12:19:43Z</time></trkpt><trkpt lat="36.94477074047269" lon="14.98921979529877"><ele>545.0</ele><time>2026-04-15T12:19:44Z</time></trkpt><trkpt lat="36.944753917948034" lon="14.989333149263981"><ele>545.0</ele><time>2026-04-15T12:19:45Z</time></trkpt><trkpt lat="36.944731432113876" lon="14.989460362800529"><ele>545.0</ele><time>2026-04-15T12:19:46Z</time></trkpt><trkpt lat="36.94472162279527" lon="14.989573308405236"><ele>543.6666666666666</ele><time>2026-04-15T12:19:47Z</time></trkpt><trkpt lat="36.944716955184795" lon="14.98967333455902"><ele>542.3333333333333</ele><time>2026-04-15T12:19:48Z</time></trkpt><trkpt lat="36.944697666263295" lon="14.989763463812132"><ele>541.0</ele><time>2026-04-15T12:19:49Z</time></trkpt><trkpt lat="36.94465556424247" lon="14.989831794998366"><ele>539.6666666666666</ele><time>2026-04-15T12:19:50Z</time></trkpt><trkpt lat="36.944587708774655" lon="14.98988197649539"><ele>538.3333333333334</ele><time>2026-04-15T12:19:51Z</time></trkpt><trkpt lat="36.94450661501346" lon="14.989892323845709"><ele>537.0</ele><time>2026-04-15T12:19:52Z</time></trkpt><trkpt lat="36.94442686083354" lon="14.98989892412676"><ele>537.0</ele><time>2026-04-15T12:19:53Z</time></trkpt><trkpt lat="36.94434878071337" lon="14.989913890611083"><ele>537.0</ele><time>2026-04-15T12:19:54Z</time></trkpt><trkpt lat="36.944260937227554" lon="14.989930136623563"><ele>537.0</ele><time>2026-04-15T12:19:55Z</time></trkpt><trkpt lat="36.944171792105365" lon="14.98994650826576"><ele>537.0</ele><time>2026-04-15T12:19:56Z</time></trkpt><trkpt lat="36.94408752087436" lon="14.989968075955154"><ele>537.0</ele><time>2026-04-15T12:19:57Z</time></trkpt><trkpt lat="36.94399881403357" lon="14.990000342313214"><ele>537.0</ele><time>2026-04-15T12:19:58Z</time></trkpt><trkpt lat="36.943912802831655" lon="14.990040090494972"><ele>534.4</ele><time>2026-04-15T12:19:59Z</time></trkpt><trkpt lat="36.9438243821609" lon="14.990082524712939"><ele>531.8000000000001</ele><time>2026-04-15T12:20:00Z</time></trkpt><trkpt lat="36.9437400012734" lon="14.990121603247834"><ele>529.2</ele><time>2026-04-15T12:20:01Z</time></trkpt><trkpt lat="36.94365652381286" lon="14.9901711552099"><ele>526.6</ele><time>2026-04-15T12:20:02Z</time></trkpt><trkpt lat="36.94358135508874" lon="14.990221952873101"><ele>524.0</ele><time>2026-04-15T12:20:03Z</time></trkpt><trkpt lat="36.94349978699427" lon="14.990285285483106"><ele>524.0</ele><time>2026-04-15T12:20:04Z</time></trkpt><trkpt lat="36.94341369415822" lon="14.990347844744877"><ele>524.0</ele><time>2026-04-15T12:20:05Z</time></trkpt><trkpt lat="36.943331800118244" lon="14.990411117388366"><ele>524.0</ele><time>2026-04-15T12:20:06Z</time></trkpt><trkpt lat="36.943257900161946" lon="14.990486107135801"><ele>524.0</ele><time>2026-04-15T12:20:06.999Z</time></trkpt><trkpt lat="36.94319387158618" lon="14.990566165982703"><ele>524.0</ele><time>2026-04-15T12:20:07.999Z</time></trkpt><trkpt lat="36.94313071954623" lon="14.99063284589059"><ele>524.1666666666666</ele><time>2026-04-15T12:20:08.999Z</time></trkpt><trkpt lat="36.94306458040569" lon="14.990674550340573"><ele>524.3333333333333</ele><time>2026-04-15T12:20:09.999Z</time></trkpt><trkpt lat="36.94299473802738" lon="14.990709267048093"><ele>524.5</ele><time>2026-04-15T12:20:10.999Z</time></trkpt><trkpt lat="36.94293022784418" lon="14.990757379238842"><ele>524.6666666666666</ele><time>2026-04-15T12:20:11.999Z</time></trkpt><trkpt lat="36.9428757240272" lon="14.990833818580155"><ele>524.8333333333334</ele><time>2026-04-15T12:20:12.999Z</time></trkpt><trkpt lat="36.9428317139582" lon="14.990921867988057"><ele>525.0</ele><time>2026-04-15T12:20:13.999Z</time></trkpt><trkpt lat="36.942785776731405" lon="14.991021664326665"><ele>523.8</ele><time>2026-04-15T12:20:14.999Z</time></trkpt><trkpt lat="36.94271775934962" lon="14.991120155330853"><ele>522.6</ele><time>2026-04-15T12:20:15.999Z</time></trkpt><trkpt lat="36.94263918129129" lon="14.991196181273276"><ele>521.4</ele><time>2026-04-15T12:20:16.999Z</time></trkpt><trkpt lat="36.9425455292529" lon="14.991253011464098"><ele>520.2</ele><time>2026-04-15T12:20:17.999Z</time></trkpt><trkpt lat="36.942449559941146" lon="14.991299368954383"><ele>519.0</ele><time>2026-04-15T12:20:18.999Z</time></trkpt><trkpt lat="36.94236774453759" lon="14.99135777136235"><ele>518.4</ele><time>2026-04-15T12:20:19.999Z</time></trkpt><trkpt lat="36.94230060246206" lon="14.991433340620617"><ele>517.8</ele><time>2026-04-15T12:20:20.999Z</time></trkpt><trkpt lat="36.94223892925355" lon="14.991526571360488"><ele>517.2</ele><time>2026-04-15T12:20:21.999Z</time></trkpt><trkpt lat="36.94218104676286" lon="14.991625695009619"><ele>516.6</ele><time>2026-04-15T12:20:22.999Z</time></trkpt><trkpt lat="36.9421209160455" lon="14.991718288010848"><ele>516.0</ele><time>2026-04-15T12:20:23.999Z</time></trkpt><trkpt lat="36.94205159787187" lon="14.991802549524552"><ele>515.0</ele><time>2026-04-15T12:20:24.999Z</time></trkpt><trkpt lat="36.94198240869598" lon="14.99187543950459"><ele>514.0</ele><time>2026-04-15T12:20:25.999Z</time></trkpt><trkpt lat="36.941918741784015" lon="14.991936539845296"><ele>513.0</ele><time>2026-04-15T12:20:26.999Z</time></trkpt><trkpt lat="36.94187112030964" lon="14.992007689634283"><ele>512.0</ele><time>2026-04-15T12:20:27.999Z</time></trkpt><trkpt lat="36.94182059354582" lon="14.992104041664804"><ele>511.0</ele><time>2026-04-15T12:20:28.999Z</time></trkpt><trkpt lat="36.9417684512193" lon="14.99219694055683"><ele>510.0</ele><time>2026-04-15T12:20:29.999Z</time></trkpt><trkpt lat="36.941708290236555" lon="14.992286321791271"><ele>510.0</ele><time>2026-04-15T12:20:30.999Z</time></trkpt><trkpt lat="36.941656436581454" lon="14.99235646240157"><ele>510.0</ele><time>2026-04-15T12:20:31.999Z</time></trkpt><trkpt lat="36.94161143528305" lon="14.992412164077683"><ele>510.0</ele><time>2026-04-15T12:20:32.999Z</time></trkpt><trkpt lat="36.94155725739362" lon="14.99249262073845"><ele>510.0</ele><time>2026-04-15T12:20:34.999Z</time></trkpt><trkpt lat="36.94151151418509" lon="14.992580130219002"><ele>510.0</ele><time>2026-04-15T12:20:37.999Z</time></trkpt><trkpt lat="36.94155163289729" lon="14.99247171799202"><ele>510.0</ele><time>2026-04-15T12:21:02.999Z</time></trkpt><trkpt lat="36.941672379420424" lon="14.992327460094327"><ele>509.0</ele><time>2026-04-15T12:21:04.999Z</time></trkpt><trkpt lat="36.9417418328818" lon="14.992228255275554"><ele>508.0</ele><time>2026-04-15T12:21:05.999Z</time></trkpt><trkpt lat="36.94180898711858" lon="14.9921214537446"><ele>507.0</ele><time>2026-04-15T12:21:06.999Z</time></trkpt><trkpt lat="36.941862315246" lon="14.992040115471513"><ele>506.0</ele><time>2026-04-15T12:21:07.999Z</time></trkpt><trkpt lat="36.94191443611855" lon="14.991952560284114"><ele>505.0</ele><time>2026-04-15T12:21:08.999Z</time></trkpt><trkpt lat="36.94196112206599" lon="14.991890081102342"><ele>505.00000000000006</ele><time>2026-04-15T12:21:09.999Z</time></trkpt><trkpt lat="36.942023209084255" lon="14.991833080116495"><ele>505.0</ele><time>2026-04-15T12:21:10.999Z</time></trkpt><trkpt lat="36.94209256576715" lon="14.991765494379072"><ele>505.0</ele><time>2026-04-15T12:21:11.999Z</time></trkpt><trkpt lat="36.94216051493358" lon="14.99168594209521"><ele>505.0</ele><time>2026-04-15T12:21:12.999Z</time></trkpt><trkpt lat="36.94222903685214" lon="14.99158748103055"><ele>505.00000000000006</ele><time>2026-04-15T12:21:13.999Z</time></trkpt><trkpt lat="36.94227681755586" lon="14.991497340186152"><ele>505.0</ele><time>2026-04-15T12:21:14.999Z</time></trkpt><trkpt lat="36.94233269259108" lon="14.991415119153546"><ele>507.2</ele><time>2026-04-15T12:21:16Z</time></trkpt><trkpt lat="36.94240499095958" lon="14.991348017895593"><ele>509.4</ele><time>2026-04-15T12:21:17Z</time></trkpt><trkpt lat="36.94249062891871" lon="14.991288279688252"><ele>511.6</ele><time>2026-04-15T12:21:18Z</time></trkpt><trkpt lat="36.94258463770723" lon="14.991228030979402"><ele>513.8</ele><time>2026-04-15T12:21:19Z</time></trkpt><trkpt lat="36.942673663899654" lon="14.991175952989387"><ele>516.0</ele><time>2026-04-15T12:21:20Z</time></trkpt><trkpt lat="36.94275872558088" lon="14.991095954168902"><ele>516.6</ele><time>2026-04-15T12:21:21Z</time></trkpt><trkpt lat="36.94281889336639" lon="14.990992721916628"><ele>517.2</ele><time>2026-04-15T12:21:22Z</time></trkpt><trkpt lat="36.94287070535697" lon="14.99086945510465"><ele>517.8</ele><time>2026-04-15T12:21:23Z</time></trkpt><trkpt lat="36.94293548664617" lon="14.990769346193733"><ele>518.4</ele><time>2026-04-15T12:21:24Z</time></trkpt><trkpt lat="36.94300602772134" lon="14.990704961182361"><ele>519.0</ele><time>2026-04-15T12:21:25Z</time></trkpt><trkpt lat="36.943079744419435" lon="14.99066981272975"><ele>520.0</ele><time>2026-04-15T12:21:26Z</time></trkpt><trkpt lat="36.94316446011235" lon="14.990625622179213"><ele>521.0</ele><time>2026-04-15T12:21:27Z</time></trkpt><trkpt lat="36.94324847385222" lon="14.99056015776472"><ele>522.0</ele><time>2026-04-15T12:21:28Z</time></trkpt><trkpt lat="36.943328972752106" lon="14.990465167544066"><ele>523.0</ele><time>2026-04-15T12:21:29Z</time></trkpt><trkpt lat="36.943402388747465" lon="14.990368734334268"><ele>524.0</ele><time>2026-04-15T12:21:30Z</time></trkpt><trkpt lat="36.943486608352615" lon="14.990310586577122"><ele>524.0</ele><time>2026-04-15T12:21:31Z</time></trkpt><trkpt lat="36.94357910977301" lon="14.990256802984813"><ele>524.0</ele><time>2026-04-15T12:21:32Z</time></trkpt><trkpt lat="36.94366884702031" lon="14.990197178114865"><ele>524.0</ele><time>2026-04-15T12:21:33Z</time></trkpt><trkpt lat="36.94376847847219" lon="14.990127566805016"><ele>524.0</ele><time>2026-04-15T12:21:34Z</time></trkpt><trkpt lat="36.94387933895983" lon="14.990060741343438"><ele>524.0</ele><time>2026-04-15T12:21:35Z</time></trkpt><trkpt lat="36.94399255006966" lon="14.990016605165376"><ele>527.25</ele><time>2026-04-15T12:21:36Z</time></trkpt><trkpt lat="36.944119013867514" lon="14.9899693877905"><ele>530.5</ele><time>2026-04-15T12:21:37Z</time></trkpt><trkpt lat="36.94424948603915" lon="14.989920748523291"><ele>533.75</ele><time>2026-04-15T12:21:38Z</time></trkpt><trkpt lat="36.944368174522985" lon="14.989883436484831"><ele>537.0</ele><time>2026-04-15T12:21:39Z</time></trkpt><trkpt lat="36.944474787006584" lon="14.989870583481373"><ele>537.0</ele><time>2026-04-15T12:21:40Z</time></trkpt><trkpt lat="36.944583023408235" lon="14.989862432747673"><ele>537.0</ele><time>2026-04-15T12:21:41Z</time></trkpt><trkpt lat="36.94467386512322" lon="14.989827387698858"><ele>537.0</ele><time>2026-04-15T12:21:42Z</time></trkpt><trkpt lat="36.944729876573575" lon="14.989759882942609"><ele>537.0</ele><time>2026-04-15T12:21:43Z</time></trkpt><trkpt lat="36.94475773812638" lon="14.989662951386423"><ele>537.0</ele><time>2026-04-15T12:21:44Z</time></trkpt><trkpt lat="36.94475200505693" lon="14.989565795032519"><ele>537.0</ele><time>2026-04-15T12:21:45Z</time></trkpt><trkpt lat="36.944739261370195" lon="14.989444826055086"><ele>537.0</ele><time>2026-04-15T12:21:46Z</time></trkpt><trkpt lat="36.94474127731989" lon="14.989342061820015"><ele>537.0</ele><time>2026-04-15T12:21:47Z</time></trkpt><trkpt lat="36.94476038755562" lon="14.989228732192714"><ele>537.0</ele><time>2026-04-15T12:21:48Z</time></trkpt><trkpt lat="36.94479599629194" lon="14.989109230668186"><ele>537.0</ele><time>2026-04-15T12:21:49Z</time></trkpt><trkpt lat="36.94483741487543" lon="14.988990639821436"><ele>537.0</ele><time>2026-04-15T12:21:50Z</time></trkpt><trkpt lat="36.94488442744119" lon="14.988871107141518"><ele>537.8000000000001</ele><time>2026-04-15T12:21:51Z</time></trkpt><trkpt lat="36.94493581401802" lon="14.988762068955255"><ele>538.6</ele><time>2026-04-15T12:21:52Z</time></trkpt><trkpt lat="36.944991984121444" lon="14.988653415871491"><ele>539.4000000000001</ele><time>2026-04-15T12:21:53Z</time></trkpt><trkpt lat="36.945055158007904" lon="14.988547510156987"><ele>540.2</ele><time>2026-04-15T12:21:54Z</time></trkpt><trkpt lat="36.945127297881115" lon="14.988444478387006"><ele>541.0</ele><time>2026-04-15T12:21:55Z</time></trkpt><trkpt lat="36.94520802151741" lon="14.98833330685202"><ele>544.25</ele><time>2026-04-15T12:21:56Z</time></trkpt><trkpt lat="36.94528550260909" lon="14.988214565859154"><ele>547.5</ele><time>2026-04-15T12:21:57Z</time></trkpt><trkpt lat="36.9453618379345" lon="14.98808941901622"><ele>550.75</ele><time>2026-04-15T12:21:58Z</time></trkpt><trkpt lat="36.94543311416823" lon="14.987960351401945"><ele>554.0</ele><time>2026-04-15T12:21:59Z</time></trkpt><trkpt lat="36.945496025843184" lon="14.987836836442215"><ele>554.0</ele><time>2026-04-15T12:22:00Z</time></trkpt><trkpt lat="36.94553950749246" lon="14.987710347520705"><ele>554.0</ele><time>2026-04-15T12:22:01Z</time></trkpt><trkpt lat="36.94556547812947" lon="14.987570981652652"><ele>554.0</ele><time>2026-04-15T12:22:02Z</time></trkpt><trkpt lat="36.94558333841219" lon="14.987431086768273"><ele>554.0</ele><time>2026-04-15T12:22:03Z</time></trkpt><trkpt lat="36.94560599178172" lon="14.987290857665226"><ele>555.6</ele><time>2026-04-15T12:22:04Z</time></trkpt><trkpt lat="36.94562881571005" lon="14.98714333859121"><ele>557.2</ele><time>2026-04-15T12:22:05Z</time></trkpt><trkpt lat="36.945648448304354" lon="14.987002442419183"><ele>558.8000000000001</ele><time>2026-04-15T12:22:06Z</time></trkpt><trkpt lat="36.94566080905813" lon="14.986886925816364"><ele>560.4</ele><time>2026-04-15T12:22:07Z</time></trkpt><trkpt lat="36.945662926996015" lon="14.986781894007112"><ele>562.0</ele><time>2026-04-15T12:22:08Z</time></trkpt><trkpt lat="36.9456481013344" lon="14.98666922328559"><ele>563.25</ele><time>2026-04-15T12:22:09Z</time></trkpt><trkpt lat="36.94563440827288" lon="14.98654339500342"><ele>564.5</ele><time>2026-04-15T12:22:10Z</time></trkpt><trkpt lat="36.945623129829364" lon="14.98639836356335"><ele>565.75</ele><time>2026-04-15T12:22:11Z</time></trkpt><trkpt lat="36.945605073502634" lon="14.986237494293606"><ele>567.0</ele><time>2026-04-15T12:22:11.999Z</time></trkpt><trkpt lat="36.94558022700112" lon="14.986069162859481"><ele>567.0</ele><time>2026-04-15T12:22:12.999Z</time></trkpt><trkpt lat="36.94555039977314" lon="14.985886575072032"><ele>567.0</ele><time>2026-04-15T12:22:13.999Z</time></trkpt><trkpt lat="36.94552707754031" lon="14.98570698610874"><ele>567.0</ele><time>2026-04-15T12:22:14.999Z</time></trkpt><trkpt lat="36.94550667703604" lon="14.98554191073945"><ele>567.0</ele><time>2026-04-15T12:22:15.999Z</time></trkpt><trkpt lat="36.94547853765073" lon="14.985377001774344"><ele>567.0</ele><time>2026-04-15T12:22:16.999Z</time></trkpt><trkpt lat="36.945455433369105" lon="14.985204320317646"><ele>567.0</ele><time>2026-04-15T12:22:17.999Z</time></trkpt><trkpt lat="36.945431958002345" lon="14.985046990737848"><ele>567.0</ele><time>2026-04-15T12:22:18.999Z</time></trkpt><trkpt lat="36.94540866878433" lon="14.984905096732575"><ele>567.0</ele><time>2026-04-15T12:22:19.999Z</time></trkpt><trkpt lat="36.94538711222833" lon="14.984774140296487"><ele>567.0</ele><time>2026-04-15T12:22:20.999Z</time></trkpt><trkpt lat="36.94536936690141" lon="14.984659893211942"><ele>567.0</ele><time>2026-04-15T12:22:21.999Z</time></trkpt><trkpt lat="36.94536196340109" lon="14.984547047933894"><ele>567.0</ele><time>2026-04-15T12:22:22.999Z</time></trkpt><trkpt lat="36.94537199281708" lon="14.984429139550755"><ele>567.0</ele><time>2026-04-15T12:22:23.999Z</time></trkpt><trkpt lat="36.94540253824598" lon="14.984310025660712"><ele>567.0</ele><time>2026-04-15T12:22:24.999Z</time></trkpt><trkpt lat="36.94545072853717" lon="14.984176967394111"><ele>567.0</ele><time>2026-04-15T12:22:25.999Z</time></trkpt><trkpt lat="36.945503374763476" lon="14.984046942464456"><ele>567.0</ele><time>2026-04-15T12:22:26.999Z</time></trkpt><trkpt lat="36.945547750196894" lon="14.983928275524704"><ele>567.0</ele><time>2026-04-15T12:22:27.999Z</time></trkpt><trkpt lat="36.94557811472438" lon="14.983816887702286"><ele>567.0</ele><time>2026-04-15T12:22:28.999Z</time></trkpt><trkpt lat="36.94560611699242" lon="14.983705753347127"><ele>567.0</ele><time>2026-04-15T12:22:29.999Z</time></trkpt><trkpt lat="36.94562248067175" lon="14.983593397900997"><ele>567.0</ele><time>2026-04-15T12:22:30.999Z</time></trkpt><trkpt lat="36.94561585927705" lon="14.983492284748376"><ele>567.0</ele><time>2026-04-15T12:22:31.999Z</time></trkpt><trkpt lat="36.94559272547184" lon="14.983387000283017"><ele>567.0</ele><time>2026-04-15T12:22:32.999Z</time></trkpt><trkpt lat="36.945550831543166" lon="14.98328538202431"><ele>567.0</ele><time>2026-04-15T12:22:33.999Z</time></trkpt><trkpt lat="36.94548211942771" lon="14.983170798424934"><ele>567.0</ele><time>2026-04-15T12:22:34.999Z</time></trkpt><trkpt lat="36.94538621404021" lon="14.983033956748075"><ele>565.8000000000001</ele><time>2026-04-15T12:22:35.999Z</time></trkpt><trkpt lat="36.945284948665176" lon="14.982893863967192"><ele>564.6</ele><time>2026-04-15T12:22:36.999Z</time></trkpt><trkpt lat="36.94521212475831" lon="14.982787010600724"><ele>563.4000000000001</ele><time>2026-04-15T12:22:37.999Z</time></trkpt><trkpt lat="36.94515050870761" lon="14.982709277198138"><ele>562.2</ele><time>2026-04-15T12:22:38.999Z</time></trkpt><trkpt lat="36.94509678341916" lon="14.982649942546741"><ele>561.0</ele><time>2026-04-15T12:22:39.999Z</time></trkpt><trkpt lat="36.94504616713322" lon="14.982586244802583"><ele>561.8</ele><time>2026-04-15T12:22:40.999Z</time></trkpt><trkpt lat="36.94497506930597" lon="14.982467122025259"><ele>562.6</ele><time>2026-04-15T12:22:42.999Z</time></trkpt><trkpt lat="36.94495988017516" lon="14.98236949805084"><ele>563.4</ele><time>2026-04-15T12:22:44.999Z</time></trkpt><trkpt lat="36.94502825494214" lon="14.982235914397574"><ele>564.2</ele><time>2026-04-15T12:22:46.999Z</time></trkpt><trkpt lat="36.945073392314484" lon="14.98216073323959"><ele>565.0</ele><time>2026-04-15T12:22:47.999Z</time></trkpt><trkpt lat="36.94512536686188" lon="14.98206279705554"><ele>565.0</ele><time>2026-04-15T12:22:48.999Z</time></trkpt><trkpt lat="36.945186748831624" lon="14.98194923417442"><ele>565.0</ele><time>2026-04-15T12:22:49.999Z</time></trkpt><trkpt lat="36.94525078683501" lon="14.981817159059236"><ele>565.0</ele><time>2026-04-15T12:22:50.999Z</time></trkpt><trkpt lat="36.945304377911036" lon="14.981705998582823"><ele>565.0</ele><time>2026-04-15T12:22:51.999Z</time></trkpt><trkpt lat="36.94535146945677" lon="14.981602460188665"><ele>565.0</ele><time>2026-04-15T12:22:52.999Z</time></trkpt><trkpt lat="36.94538056981234" lon="14.981496676269192"><ele>566.2</ele><time>2026-04-15T12:22:53.999Z</time></trkpt><trkpt lat="36.94535985152366" lon="14.981403233146077"><ele>567.4</ele><time>2026-04-15T12:22:54.999Z</time></trkpt><trkpt lat="36.9453174305623" lon="14.981299616613287"><ele>568.6</ele><time>2026-04-15T12:22:55.999Z</time></trkpt><trkpt lat="36.94528270018772" lon="14.98116731357877"><ele>569.8</ele><time>2026-04-15T12:22:56.999Z</time></trkpt><trkpt lat="36.94525820289783" lon="14.981020461933635"><ele>571.0</ele><time>2026-04-15T12:22:57.999Z</time></trkpt><trkpt lat="36.945236219576145" lon="14.980868683255917"><ele>571.5</ele><time>2026-04-15T12:22:58.999Z</time></trkpt><trkpt lat="36.94520704972368" lon="14.980713033520258"><ele>572.0</ele><time>2026-04-15T12:22:59.999Z</time></trkpt><trkpt lat="36.94517470137112" lon="14.980566695349298"><ele>572.5</ele><time>2026-04-15T12:23:00.999Z</time></trkpt><trkpt lat="36.94515142713699" lon="14.98042728894769"><ele>573.0</ele><time>2026-04-15T12:23:01.999Z</time></trkpt><trkpt lat="36.945129586116515" lon="14.980286419339725"><ele>573.0</ele><time>2026-04-15T12:23:02.999Z</time></trkpt><trkpt lat="36.94509928852654" lon="14.980144253513611"><ele>573.0</ele><time>2026-04-15T12:23:03.999Z</time></trkpt><trkpt lat="36.94506899324988" lon="14.97999855870275"><ele>573.0</ele><time>2026-04-15T12:23:04.999Z</time></trkpt><trkpt lat="36.945042625810686" lon="14.979853178920953"><ele>573.0</ele><time>2026-04-15T12:23:05.999Z</time></trkpt><trkpt lat="36.945016832967056" lon="14.979711464390988"><ele>572.75</ele><time>2026-04-15T12:23:06.999Z</time></trkpt><trkpt lat="36.94499431916027" lon="14.979566206862051"><ele>572.5</ele><time>2026-04-15T12:23:07.999Z</time></trkpt><trkpt lat="36.9449684715366" lon="14.979419893469661"><ele>572.25</ele><time>2026-04-15T12:23:08.999Z</time></trkpt><trkpt lat="36.94493801889852" lon="14.979263337209527"><ele>572.0</ele><time>2026-04-15T12:23:09.999Z</time></trkpt><trkpt lat="36.944911900818006" lon="14.979100363746806"><ele>572.0</ele><time>2026-04-15T12:23:10.999Z</time></trkpt><trkpt lat="36.94487785467861" lon="14.978935155974444"><ele>572.0</ele><time>2026-04-15T12:23:11.999Z</time></trkpt><trkpt lat="36.94484856560976" lon="14.97878853192331"><ele>572.0</ele><time>2026-04-15T12:23:12.999Z</time></trkpt><trkpt lat="36.94482830557853" lon="14.978658038991338"><ele>572.0</ele><time>2026-04-15T12:23:13.999Z</time></trkpt><trkpt lat="36.94480929349544" lon="14.978541112097744"><ele>572.0</ele><time>2026-04-15T12:23:14.999Z</time></trkpt><trkpt lat="36.94479076539975" lon="14.978444517486917"><ele>572.0</ele><time>2026-04-15T12:23:15.999Z</time></trkpt><trkpt lat="36.944772704700654" lon="14.978356331900128"><ele>572.0</ele><time>2026-04-15T12:23:16.999Z</time></trkpt><trkpt lat="36.944759379572965" lon="14.978228718080027"><ele>572.0</ele><time>2026-04-15T12:23:18.999Z</time></trkpt><trkpt lat="36.94479966306824" lon="14.97815852134267"><ele>572.0</ele><time>2026-04-15T12:23:22Z</time></trkpt><trkpt lat="36.94490390505814" lon="14.978221571430703"><ele>572.0</ele><time>2026-04-15T12:23:24Z</time></trkpt><trkpt lat="36.94499364989342" lon="14.978295898904891"><ele>572.75</ele><time>2026-04-15T12:23:25Z</time></trkpt><trkpt lat="36.94509729762161" lon="14.978367998317669"><ele>573.5</ele><time>2026-04-15T12:23:26Z</time></trkpt><trkpt lat="36.94519824988728" lon="14.97843690288772"><ele>574.25</ele><time>2026-04-15T12:23:27Z</time></trkpt><trkpt lat="36.94529757524775" lon="14.978511273988335"><ele>575.0</ele><time>2026-04-15T12:23:28Z</time></trkpt><trkpt lat="36.94541713587706" lon="14.978576807418753"><ele>575.0</ele><time>2026-04-15T12:23:29Z</time></trkpt><trkpt lat="36.945564533576494" lon="14.978631443631219"><ele>575.0</ele><time>2026-04-15T12:23:30Z</time></trkpt><trkpt lat="36.94572101806813" lon="14.978679923505958"><ele>575.0</ele><time>2026-04-15T12:23:31Z</time></trkpt><trkpt lat="36.9458976191663" lon="14.978708213358795"><ele>575.0</ele><time>2026-04-15T12:23:32Z</time></trkpt><trkpt lat="36.94608935796296" lon="14.978728738638532"><ele>575.0</ele><time>2026-04-15T12:23:33Z</time></trkpt><trkpt lat="36.94627605404165" lon="14.978741905133987"><ele>575.0</ele><time>2026-04-15T12:23:34Z</time></trkpt><trkpt lat="36.94647363174159" lon="14.97876513897198"><ele>575.0</ele><time>2026-04-15T12:23:35Z</time></trkpt><trkpt lat="36.94668476270279" lon="14.978829669997237"><ele>575.0</ele><time>2026-04-15T12:23:36Z</time></trkpt><trkpt lat="36.94689387678171" lon="14.978906280171461"><ele>575.0</ele><time>2026-04-15T12:23:37Z</time></trkpt><trkpt lat="36.94709034706722" lon="14.978964097079075"><ele>575.0</ele><time>2026-04-15T12:23:38Z</time></trkpt><trkpt lat="36.94727356154116" lon="14.979020017222386"><ele>575.0</ele><time>2026-04-15T12:23:39Z</time></trkpt><trkpt lat="36.94747683147434" lon="14.97905453959856"><ele>575.0</ele><time>2026-04-15T12:23:40Z</time></trkpt><trkpt lat="36.947703061921814" lon="14.979046064111747"><ele>576.0</ele><time>2026-04-15T12:23:41Z</time></trkpt><trkpt lat="36.94794355322144" lon="14.979010728765049"><ele>577.0</ele><time>2026-04-15T12:23:42Z</time></trkpt><trkpt lat="36.948194017907014" lon="14.97896440399306"><ele>578.0</ele><time>2026-04-15T12:23:43Z</time></trkpt><trkpt lat="36.94843899509314" lon="14.97891513055275"><ele>579.0</ele><time>2026-04-15T12:23:44Z</time></trkpt><trkpt lat="36.948678164920366" lon="14.978865555729293"><ele>579.0</ele><time>2026-04-15T12:23:45Z</time></trkpt><trkpt lat="36.94891404157742" lon="14.978822197210738"><ele>579.0</ele><time>2026-04-15T12:23:46Z</time></trkpt><trkpt lat="36.94913742804976" lon="14.978773711298011"><ele>580.5</ele><time>2026-04-15T12:23:47Z</time></trkpt><trkpt lat="36.94935985543812" lon="14.97869223504274"><ele>582.0</ele><time>2026-04-15T12:23:48Z</time></trkpt><trkpt lat="36.94958688520568" lon="14.978574670109447"><ele>582.0</ele><time>2026-04-15T12:23:49Z</time></trkpt><trkpt lat="36.94981415548417" lon="14.978442750210696"><ele>582.0</ele><time>2026-04-15T12:23:50Z</time></trkpt><trkpt lat="36.95003672638921" lon="14.978318902247857"><ele>583.0</ele><time>2026-04-15T12:23:51Z</time></trkpt><trkpt lat="36.95026502073966" lon="14.978199036786982"><ele>584.0</ele><time>2026-04-15T12:23:52Z</time></trkpt><trkpt lat="36.95049822297789" lon="14.97807783082175"><ele>584.0</ele><time>2026-04-15T12:23:53Z</time></trkpt><trkpt lat="36.95073275027851" lon="14.977972515386497"><ele>584.0</ele><time>2026-04-15T12:23:54Z</time></trkpt><trkpt lat="36.950969650572695" lon="14.977892551695543"><ele>585.0</ele><time>2026-04-15T12:23:55Z</time></trkpt><trkpt lat="36.951196845253975" lon="14.977798940542598"><ele>586.0</ele><time>2026-04-15T12:23:56Z</time></trkpt><trkpt lat="36.951411478081226" lon="14.97767599590754"><ele>586.0</ele><time>2026-04-15T12:23:57Z</time></trkpt><trkpt lat="36.951610101470415" lon="14.977539511441117"><ele>586.0</ele><time>2026-04-15T12:23:58Z</time></trkpt><trkpt lat="36.95178547302327" lon="14.977395178539505"><ele>586.0</ele><time>2026-04-15T12:23:59Z</time></trkpt><trkpt lat="36.95194631711529" lon="14.977226972626962"><ele>586.6666666666667</ele><time>2026-04-15T12:24:00Z</time></trkpt><trkpt lat="36.95208600257043" lon="14.977050419096216"><ele>587.3333333333334</ele><time>2026-04-15T12:24:01Z</time></trkpt><trkpt lat="36.95222594578618" lon="14.976890753181213"><ele>588.0</ele><time>2026-04-15T12:24:02Z</time></trkpt><trkpt lat="36.952385406585776" lon="14.976767270764435"><ele>588.6666666666666</ele><time>2026-04-15T12:24:03Z</time></trkpt><trkpt lat="36.9525621820772" lon="14.976676906133765"><ele>589.3333333333333</ele><time>2026-04-15T12:24:04Z</time></trkpt><trkpt lat="36.95274879908979" lon="14.976602322501646"><ele>590.0</ele><time>2026-04-15T12:24:05Z</time></trkpt><trkpt lat="36.95293731720949" lon="14.97653432264514"><ele>590.0</ele><time>2026-04-15T12:24:06Z</time></trkpt><trkpt lat="36.95312445629589" lon="14.976473144181297"><ele>590.0</ele><time>2026-04-15T12:24:07Z</time></trkpt><trkpt lat="36.9533139925533" lon="14.976425675784103"><ele>590.0</ele><time>2026-04-15T12:24:08Z</time></trkpt><trkpt lat="36.953510278201385" lon="14.976395217658192"><ele>590.6666666666666</ele><time>2026-04-15T12:24:09Z</time></trkpt><trkpt lat="36.953716103337335" lon="14.976380849165714"><ele>591.3333333333334</ele><time>2026-04-15T12:24:10Z</time></trkpt><trkpt lat="36.95392035104676" lon="14.976346584827102"><ele>592.0</ele><time>2026-04-15T12:24:11Z</time></trkpt><trkpt lat="36.954131058773584" lon="14.97628748357219"><ele>593.0</ele><time>2026-04-15T12:24:12Z</time></trkpt><trkpt lat="36.95434268434421" lon="14.976217515208107"><ele>594.0</ele><time>2026-04-15T12:24:13Z</time></trkpt><trkpt lat="36.95455080044517" lon="14.976153692520928"><ele>595.0</ele><time>2026-04-15T12:24:14Z</time></trkpt><trkpt lat="36.954759224113545" lon="14.976099298132379"><ele>595.0</ele><time>2026-04-15T12:24:15Z</time></trkpt><trkpt lat="36.95497158646062" lon="14.97604582225502"><ele>595.0</ele><time>2026-04-15T12:24:16Z</time></trkpt><trkpt lat="36.95518913594555" lon="14.975982207323684"><ele>595.0</ele><time>2026-04-15T12:24:17Z</time></trkpt><trkpt lat="36.955394445703504" lon="14.975891205670647"><ele>594.6666666666667</ele><time>2026-04-15T12:24:17.999Z</time></trkpt><trkpt lat="36.95559310211695" lon="14.9757636217735"><ele>594.3333333333334</ele><time>2026-04-15T12:24:18.999Z</time></trkpt><trkpt lat="36.95578650911324" lon="14.975620371915184"><ele>594.0</ele><time>2026-04-15T12:24:19.999Z</time></trkpt><trkpt lat="36.95598927094795" lon="14.975500617415761"><ele>592.5</ele><time>2026-04-15T12:24:20.999Z</time></trkpt><trkpt lat="36.956203011586574" lon="14.975410537975984"><ele>591.0</ele><time>2026-04-15T12:24:21.999Z</time></trkpt><trkpt lat="36.9564290512469" lon="14.975332785522696"><ele>591.0</ele><time>2026-04-15T12:24:22.999Z</time></trkpt><trkpt lat="36.956665614856696" lon="14.9752591971737"><ele>591.0</ele><time>2026-04-15T12:24:23.999Z</time></trkpt><trkpt lat="36.95691232504213" lon="14.975177583717192"><ele>590.5</ele><time>2026-04-15T12:24:24.999Z</time></trkpt><trkpt lat="36.95717201756086" lon="14.975093480578385"><ele>590.0</ele><time>2026-04-15T12:24:25.999Z</time></trkpt><trkpt lat="36.957423909502886" lon="14.975003777226105"><ele>589.0</ele><time>2026-04-15T12:24:26.999Z</time></trkpt><trkpt lat="36.9576645373746" lon="14.974918594232934"><ele>588.0</ele><time>2026-04-15T12:24:27.999Z</time></trkpt><trkpt lat="36.95788856112308" lon="14.974842703998078"><ele>588.0</ele><time>2026-04-15T12:24:28.999Z</time></trkpt><trkpt lat="36.9580931797365" lon="14.974776751583276"><ele>588.0</ele><time>2026-04-15T12:24:29.999Z</time></trkpt><trkpt lat="36.95829539537579" lon="14.97470665410155"><ele>588.0</ele><time>2026-04-15T12:24:30.999Z</time></trkpt><trkpt lat="36.9584911623889" lon="14.974644045382163"><ele>587.6666666666666</ele><time>2026-04-15T12:24:31.999Z</time></trkpt><trkpt lat="36.958680271513565" lon="14.974602753277216"><ele>587.3333333333333</ele><time>2026-04-15T12:24:32.999Z</time></trkpt><trkpt lat="36.95889203384116" lon="14.974603821797137"><ele>587.0</ele><time>2026-04-15T12:24:33.999Z</time></trkpt><trkpt lat="36.95911002810678" lon="14.974615014660822"><ele>587.6666666666666</ele><time>2026-04-15T12:24:34.999Z</time></trkpt><trkpt lat="36.95933045408819" lon="14.9746207301636"><ele>588.3333333333334</ele><time>2026-04-15T12:24:35.999Z</time></trkpt><trkpt lat="36.95955559801213" lon="14.974620534104156"><ele>589.0</ele><time>2026-04-15T12:24:36.999Z</time></trkpt><trkpt lat="36.95977486032744" lon="14.974627895342483"><ele>589.0</ele><time>2026-04-15T12:24:37.999Z</time></trkpt><trkpt lat="36.95997386534088" lon="14.974640351120545"><ele>589.0</ele><time>2026-04-15T12:24:38.999Z</time></trkpt><trkpt lat="36.96016559246163" lon="14.9746566733288"><ele>589.0</ele><time>2026-04-15T12:24:39.999Z</time></trkpt><trkpt lat="36.960337759349514" lon="14.974709074435944"><ele>589.0</ele><time>2026-04-15T12:24:40.999Z</time></trkpt><trkpt lat="36.960507766291315" lon="14.974752896643102"><ele>589.0</ele><time>2026-04-15T12:24:41.999Z</time></trkpt><trkpt lat="36.96067826012914" lon="14.974744042343275"><ele>589.0</ele><time>2026-04-15T12:24:42.999Z</time></trkpt><trkpt lat="36.96084182306841" lon="14.97469063572479"><ele>589.75</ele><time>2026-04-15T12:24:43.999Z</time></trkpt><trkpt lat="36.96100223366515" lon="14.97460356319388"><ele>590.5</ele><time>2026-04-15T12:24:44.999Z</time></trkpt><trkpt lat="36.961115464971364" lon="14.974527136365312"><ele>591.25</ele><time>2026-04-15T12:24:45.999Z</time></trkpt><trkpt lat="36.961235278436" lon="14.974457188214814"><ele>592.0</ele><time>2026-04-15T12:24:46.999Z</time></trkpt><trkpt lat="36.96135226581059" lon="14.974385638208396"><ele>592.0</ele><time>2026-04-15T12:24:47.999Z</time></trkpt><trkpt lat="36.9614716778448" lon="14.97431226864669"><ele>592.0</ele><time>2026-04-15T12:24:48.999Z</time></trkpt><trkpt lat="36.96158810224869" lon="14.97424812306299"><ele>592.0</ele><time>2026-04-15T12:24:49.999Z</time></trkpt><trkpt lat="36.961697819826206" lon="14.974192974675683"><ele>592.0</ele><time>2026-04-15T12:24:50.999Z</time></trkpt><trkpt lat="36.961802441770274" lon="14.974153286271433"><ele>592.4</ele><time>2026-04-15T12:24:51.999Z</time></trkpt><trkpt lat="36.96190890408834" lon="14.974142415672151"><ele>592.8000000000001</ele><time>2026-04-15T12:24:52.999Z</time></trkpt><trkpt lat="36.962010080998105" lon="14.974150584000402"><ele>593.2</ele><time>2026-04-15T12:24:53.999Z</time></trkpt><trkpt lat="36.962108168284466" lon="14.974161241213013"><ele>593.6</ele><time>2026-04-15T12:24:54.999Z</time></trkpt><trkpt lat="36.96220594251592" lon="14.974180653207846"><ele>594.0</ele><time>2026-04-15T12:24:55.999Z</time></trkpt><trkpt lat="36.96229943596103" lon="14.974189818766124"><ele>594.0</ele><time>2026-04-15T12:24:56.999Z</time></trkpt><trkpt lat="36.96238192186249" lon="14.9742049131934"><ele>594.0</ele><time>2026-04-15T12:24:57.999Z</time></trkpt><trkpt lat="36.96245715200743" lon="14.974215751803964"><ele>594.0</ele><time>2026-04-15T12:24:58.999Z</time></trkpt><trkpt lat="36.96253776326772" lon="14.9742947052167"><ele>594.0</ele><time>2026-04-15T12:25:00.999Z</time></trkpt><trkpt lat="36.96252164440724" lon="14.974454757435371"><ele>594.0</ele><time>2026-04-15T12:25:02.999Z</time></trkpt><trkpt lat="36.962512176511055" lon="14.974555641079608"><ele>594.0</ele><time>2026-04-15T12:25:03.999Z</time></trkpt><trkpt lat="36.962501080477416" lon="14.97465183197668"><ele>594.0</ele><time>2026-04-15T12:25:04.999Z</time></trkpt><trkpt lat="36.9624965947958" lon="14.974747984757897"><ele>594.0</ele><time>2026-04-15T12:25:05.999Z</time></trkpt><trkpt lat="36.962490161589024" lon="14.974851705981154"><ele>594.0</ele><time>2026-04-15T12:25:06.999Z</time></trkpt><trkpt lat="36.9624788302969" lon="14.974978354987048"><ele>594.0</ele><time>2026-04-15T12:25:07.999Z</time></trkpt><trkpt lat="36.96247134445649" lon="14.975110490390936"><ele>594.0</ele><time>2026-04-15T12:25:08.999Z</time></trkpt><trkpt lat="36.96246463276048" lon="14.975234630641149"><ele>593.5</ele><time>2026-04-15T12:25:09.999Z</time></trkpt><trkpt lat="36.962452741704226" lon="14.975335872477281"><ele>593.0</ele><time>2026-04-15T12:25:10.999Z</time></trkpt><trkpt lat="36.96244093843569" lon="14.975433300876979"><ele>592.5</ele><time>2026-04-15T12:25:11.999Z</time></trkpt><trkpt lat="36.9624251396994" lon="14.97553229507198"><ele>592.0</ele><time>2026-04-15T12:25:12.999Z</time></trkpt><trkpt lat="36.96240275260177" lon="14.975623994009679"><ele>591.5</ele><time>2026-04-15T12:25:13.999Z</time></trkpt><trkpt lat="36.962375642219776" lon="14.975709832666606"><ele>591.0</ele><time>2026-04-15T12:25:14.999Z</time></trkpt><trkpt lat="36.962348439192844" lon="14.97579435548748"><ele>591.0</ele><time>2026-04-15T12:25:15.999Z</time></trkpt><trkpt lat="36.96232390709794" lon="14.975873925971841"><ele>591.0</ele><time>2026-04-15T12:25:16.999Z</time></trkpt><trkpt lat="36.96230269945756" lon="14.97594910879828"><ele>591.0</ele><time>2026-04-15T12:25:17.999Z</time></trkpt><trkpt lat="36.962261290390835" lon="14.976079862051499"><ele>591.0</ele><time>2026-04-15T12:25:19.999Z</time></trkpt><trkpt lat="36.96222537279099" lon="14.976176182209137"><ele>591.0</ele><time>2026-04-15T12:25:21.999Z</time></trkpt><trkpt lat="36.96218503703392" lon="14.976269928565836"><ele>591.0</ele><time>2026-04-15T12:25:23.999Z</time></trkpt><trkpt lat="36.96213293451295" lon="14.976383096035477"><ele>591.0</ele><time>2026-04-15T12:25:25.999Z</time></trkpt><trkpt lat="36.962093472440216" lon="14.976472211225682"><ele>591.0</ele><time>2026-04-15T12:25:26.999Z</time></trkpt><trkpt lat="36.962047696132515" lon="14.976575106925084"><ele>591.0</ele><time>2026-04-15T12:25:28Z</time></trkpt><trkpt lat="36.96199845106623" lon="14.97669729173764"><ele>591.0</ele><time>2026-04-15T12:25:29Z</time></trkpt><trkpt lat="36.96193648440318" lon="14.97683718464615"><ele>591.0</ele><time>2026-04-15T12:25:30Z</time></trkpt><trkpt lat="36.96185604704822" lon="14.977002031103696"><ele>590.3333333333334</ele><time>2026-04-15T12:25:31Z</time></trkpt><trkpt lat="36.961776349392125" lon="14.977177629250045"><ele>589.6666666666667</ele><time>2026-04-15T12:25:32Z</time></trkpt><trkpt lat="36.961705830739575" lon="14.977346755561765"><ele>589.0</ele><time>2026-04-15T12:25:33Z</time></trkpt><trkpt lat="36.96162917244892" lon="14.977529541214114"><ele>589.0</ele><time>2026-04-15T12:25:34Z</time></trkpt><trkpt lat="36.96154930705411" lon="14.977723999865441"><ele>589.0</ele><time>2026-04-15T12:25:35Z</time></trkpt><trkpt lat="36.96147851175054" lon="14.977914171895055"><ele>589.0</ele><time>2026-04-15T12:25:36Z</time></trkpt><trkpt lat="36.96141757221426" lon="14.978122132824208"><ele>588.0</ele><time>2026-04-15T12:25:37Z</time></trkpt><trkpt lat="36.961375741059626" lon="14.978367013000845"><ele>587.0</ele><time>2026-04-15T12:25:38Z</time></trkpt><trkpt lat="36.96133538677729" lon="14.978619267084513"><ele>586.0</ele><time>2026-04-15T12:25:39Z</time></trkpt><trkpt lat="36.96128855100906" lon="14.978860702531563"><ele>586.0</ele><time>2026-04-15T12:25:40Z</time></trkpt><trkpt lat="36.96123758629671" lon="14.979107367189771"><ele>586.0</ele><time>2026-04-15T12:25:41Z</time></trkpt><trkpt lat="36.961190958314546" lon="14.979347723858409"><ele>586.0</ele><time>2026-04-15T12:25:42Z</time></trkpt><trkpt lat="36.9611477676112" lon="14.979565407014594"><ele>586.0</ele><time>2026-04-15T12:25:43Z</time></trkpt><trkpt lat="36.961100648198716" lon="14.979760331082742"><ele>586.0</ele><time>2026-04-15T12:25:44Z</time></trkpt><trkpt lat="36.96104867063316" lon="14.979936799153347"><ele>586.0</ele><time>2026-04-15T12:25:45Z</time></trkpt><trkpt lat="36.960985763436604" lon="14.980088919814602"><ele>586.0</ele><time>2026-04-15T12:25:46Z</time></trkpt><trkpt lat="36.96089845393901" lon="14.980239917304358"><ele>586.0</ele><time>2026-04-15T12:25:47Z</time></trkpt><trkpt lat="36.960794010533206" lon="14.980401164846072"><ele>586.0</ele><time>2026-04-15T12:25:48Z</time></trkpt><trkpt lat="36.96068493481088" lon="14.980569075964041"><ele>586.3333333333334</ele><time>2026-04-15T12:25:49Z</time></trkpt><trkpt lat="36.96057499933124" lon="14.980736909213068"><ele>586.6666666666666</ele><time>2026-04-15T12:25:50Z</time></trkpt><trkpt lat="36.96047738103475" lon="14.980887069281469"><ele>587.0</ele><time>2026-04-15T12:25:51Z</time></trkpt><trkpt lat="36.960393453782785" lon="14.981017319483847"><ele>586.25</ele><time>2026-04-15T12:25:52Z</time></trkpt><trkpt lat="36.96032043736076" lon="14.98114044160798"><ele>585.5</ele><time>2026-04-15T12:25:53Z</time></trkpt><trkpt lat="36.960272549262086" lon="14.981282594251338"><ele>584.75</ele><time>2026-04-15T12:25:54Z</time></trkpt><trkpt lat="36.960240852650216" lon="14.981442670264844"><ele>584.0</ele><time>2026-04-15T12:25:55Z</time></trkpt><trkpt lat="36.96018438175509" lon="14.98159516137706"><ele>582.0</ele><time>2026-04-15T12:25:56Z</time></trkpt><trkpt lat="36.96008348302181" lon="14.981763467452193"><ele>580.0</ele><time>2026-04-15T12:25:57Z</time></trkpt><trkpt lat="36.959973778140146" lon="14.981930172932106"><ele>578.0</ele><time>2026-04-15T12:25:58Z</time></trkpt><trkpt lat="36.95987483735049" lon="14.982101580966718"><ele>578.0</ele><time>2026-04-15T12:25:59Z</time></trkpt><trkpt lat="36.959778715494146" lon="14.982265647714732"><ele>578.0</ele><time>2026-04-15T12:26:00Z</time></trkpt><trkpt lat="36.95969084158233" lon="14.982437989709922"><ele>578.0</ele><time>2026-04-15T12:26:01Z</time></trkpt><trkpt lat="36.9596115347184" lon="14.982619969461991"><ele>577.6666666666666</ele><time>2026-04-15T12:26:02Z</time></trkpt><trkpt lat="36.95954197003098" lon="14.982809213658902"><ele>577.3333333333334</ele><time>2026-04-15T12:26:03Z</time></trkpt><trkpt lat="36.95947348504361" lon="14.983001578221227"><ele>577.0</ele><time>2026-04-15T12:26:04Z</time></trkpt><trkpt lat="36.959403280384315" lon="14.98319091272347"><ele>576.6666666666667</ele><time>2026-04-15T12:26:05Z</time></trkpt><trkpt lat="36.959328200183485" lon="14.98337411364738"><ele>576.3333333333334</ele><time>2026-04-15T12:26:06Z</time></trkpt><trkpt lat="36.95925355379185" lon="14.983558519651636"><ele>576.0</ele><time>2026-04-15T12:26:07Z</time></trkpt><trkpt lat="36.9591806957093" lon="14.983740195028766"><ele>575.25</ele><time>2026-04-15T12:26:08Z</time></trkpt><trkpt lat="36.95911576737638" lon="14.983913527104283"><ele>574.5</ele><time>2026-04-15T12:26:09Z</time></trkpt><trkpt lat="36.95907618365897" lon="14.984087613808244"><ele>573.75</ele><time>2026-04-15T12:26:10Z</time></trkpt><trkpt lat="36.95906674639601" lon="14.984257768589499"><ele>573.0</ele><time>2026-04-15T12:26:11Z</time></trkpt><trkpt lat="36.959085931904944" lon="14.984425945933785"><ele>573.0</ele><time>2026-04-15T12:26:12Z</time></trkpt><trkpt lat="36.959103035715614" lon="14.984593115586526"><ele>573.0</ele><time>2026-04-15T12:26:13Z</time></trkpt><trkpt lat="36.959088732969335" lon="14.984761283949696"><ele>573.0</ele><time>2026-04-15T12:26:14Z</time></trkpt><trkpt lat="36.95906071969094" lon="14.984948949750358"><ele>573.0</ele><time>2026-04-15T12:26:15Z</time></trkpt><trkpt lat="36.959028193135175" lon="14.985149395905712"><ele>572.6666666666666</ele><time>2026-04-15T12:26:16Z</time></trkpt><trkpt lat="36.95898980651218" lon="14.985353136257624"><ele>572.3333333333333</ele><time>2026-04-15T12:26:17Z</time></trkpt><trkpt lat="36.95894906482788" lon="14.985562122667284"><ele>572.0</ele><time>2026-04-15T12:26:18Z</time></trkpt><trkpt lat="36.95890519559335" lon="14.985771839013196"><ele>570.6666666666666</ele><time>2026-04-15T12:26:19Z</time></trkpt><trkpt lat="36.95886273666112" lon="14.985975724612898"><ele>569.3333333333334</ele><time>2026-04-15T12:26:20Z</time></trkpt><trkpt lat="36.95882994708333" lon="14.986167066140334"><ele>568.0</ele><time>2026-04-15T12:26:21Z</time></trkpt><trkpt lat="36.958817199386914" lon="14.986356705155918"><ele>568.0</ele><time>2026-04-15T12:26:22Z</time></trkpt><trkpt lat="36.9588274380944" lon="14.986551693323596"><ele>568.0</ele><time>2026-04-15T12:26:23Z</time></trkpt><trkpt lat="36.95886634680187" lon="14.986754548119919"><ele>568.0</ele><time>2026-04-15T12:26:24Z</time></trkpt><trkpt lat="36.958899666139125" lon="14.986957176765639"><ele>566.3333333333334</ele><time>2026-04-15T12:26:24.999Z</time></trkpt><trkpt lat="36.95891980035071" lon="14.987167225442127"><ele>564.6666666666666</ele><time>2026-04-15T12:26:25.999Z</time></trkpt><trkpt lat="36.95892409963192" lon="14.987387075802854"><ele>563.0</ele><time>2026-04-15T12:26:26.999Z</time></trkpt><trkpt lat="36.95892285356914" lon="14.987614003060008"><ele>563.0</ele><time>2026-04-15T12:26:27.999Z</time></trkpt><trkpt lat="36.95892746754361" lon="14.98784401770647"><ele>563.0</ele><time>2026-04-15T12:26:28.999Z</time></trkpt><trkpt lat="36.95893420659502" lon="14.988079078250124"><ele>563.0</ele><time>2026-04-15T12:26:29.999Z</time></trkpt><trkpt lat="36.958939779920776" lon="14.988319328938621"><ele>562.3333333333333</ele><time>2026-04-15T12:26:30.999Z</time></trkpt><trkpt lat="36.958941727492075" lon="14.98855163196798"><ele>561.6666666666666</ele><time>2026-04-15T12:26:31.999Z</time></trkpt><trkpt lat="36.95895558988686" lon="14.988805157410226"><ele>561.0</ele><time>2026-04-15T12:26:32.999Z</time></trkpt><trkpt lat="36.95899469477664" lon="14.989084569643499"><ele>559.6666666666666</ele><time>2026-04-15T12:26:33.999Z</time></trkpt><trkpt lat="36.95906245797906" lon="14.989367250021838"><ele>558.3333333333333</ele><time>2026-04-15T12:26:34.999Z</time></trkpt><trkpt lat="36.95914048560051" lon="14.989613952573118"><ele>557.0</ele><time>2026-04-15T12:26:35.999Z</time></trkpt><trkpt lat="36.95921153636588" lon="14.989851838318502"><ele>556.0</ele><time>2026-04-15T12:26:36.999Z</time></trkpt><trkpt lat="36.95926630761009" lon="14.990072565122354"><ele>555.0</ele><time>2026-04-15T12:26:37.999Z</time></trkpt><trkpt lat="36.95929660264467" lon="14.99027036308152"><ele>554.0</ele><time>2026-04-15T12:26:38.999Z</time></trkpt><trkpt lat="36.95931243284199" lon="14.990450719817506"><ele>554.0</ele><time>2026-04-15T12:26:39.999Z</time></trkpt><trkpt lat="36.959311079510755" lon="14.99061686303111"><ele>554.0</ele><time>2026-04-15T12:26:40.999Z</time></trkpt><trkpt lat="36.95928566102896" lon="14.990780623247433"><ele>554.0</ele><time>2026-04-15T12:26:41.999Z</time></trkpt><trkpt lat="36.95925082088066" lon="14.990944452106989"><ele>554.0</ele><time>2026-04-15T12:26:42.999Z</time></trkpt><trkpt lat="36.95919919204413" lon="14.991120992776128"><ele>553.3333333333333</ele><time>2026-04-15T12:26:43.999Z</time></trkpt><trkpt lat="36.95913631489261" lon="14.99131216489165"><ele>552.6666666666666</ele><time>2026-04-15T12:26:44.999Z</time></trkpt><trkpt lat="36.95908401361758" lon="14.991522346052104"><ele>552.0</ele><time>2026-04-15T12:26:45.999Z</time></trkpt><trkpt lat="36.959052964817644" lon="14.991740008082663"><ele>551.0</ele><time>2026-04-15T12:26:46.999Z</time></trkpt><trkpt lat="36.95904318420396" lon="14.991946512712849"><ele>550.0</ele><time>2026-04-15T12:26:47.999Z</time></trkpt><trkpt lat="36.959067795884955" lon="14.992129234388418"><ele>549.0</ele><time>2026-04-15T12:26:48.999Z</time></trkpt><trkpt lat="36.95912313505598" lon="14.992308228769964"><ele>550.0</ele><time>2026-04-15T12:26:49.999Z</time></trkpt><trkpt lat="36.9592114429377" lon="14.99248845898026"><ele>551.0</ele><time>2026-04-15T12:26:50.999Z</time></trkpt><trkpt lat="36.95931726919477" lon="14.99266761129687"><ele>552.0</ele><time>2026-04-15T12:26:51.999Z</time></trkpt><trkpt lat="36.95941557065082" lon="14.992819639949516"><ele>551.75</ele><time>2026-04-15T12:26:52.999Z</time></trkpt><trkpt lat="36.95947523401831" lon="14.992977172745023"><ele>551.5</ele><time>2026-04-15T12:26:53.999Z</time></trkpt><trkpt lat="36.959500323219096" lon="14.99315103605322"><ele>551.25</ele><time>2026-04-15T12:26:54.999Z</time></trkpt><trkpt lat="36.95950990579936" lon="14.99335168788217"><ele>551.0</ele><time>2026-04-15T12:26:55.999Z</time></trkpt><trkpt lat="36.95952419036752" lon="14.993580803071971"><ele>551.0</ele><time>2026-04-15T12:26:56.999Z</time></trkpt><trkpt lat="36.9595337274388" lon="14.993822981198546"><ele>551.0</ele><time>2026-04-15T12:26:57.999Z</time></trkpt><trkpt lat="36.959542034787496" lon="14.994055585139058"><ele>551.0</ele><time>2026-04-15T12:26:58.999Z</time></trkpt><trkpt lat="36.959556389776786" lon="14.994275646336948"><ele>550.0</ele><time>2026-04-15T12:26:59.999Z</time></trkpt><trkpt lat="36.95957658411018" lon="14.994484908521702"><ele>549.0</ele><time>2026-04-15T12:27:00.999Z</time></trkpt><trkpt lat="36.9595936742459" lon="14.994675775683865"><ele>548.0</ele><time>2026-04-15T12:27:01.999Z</time></trkpt><trkpt lat="36.95962194431407" lon="14.994855144164225"><ele>547.3333333333333</ele><time>2026-04-15T12:27:02.999Z</time></trkpt><trkpt lat="36.95966778256476" lon="14.995031075218606"><ele>546.6666666666666</ele><time>2026-04-15T12:27:03.999Z</time></trkpt><trkpt lat="36.959719321189944" lon="14.995230605334648"><ele>546.0</ele><time>2026-04-15T12:27:04.999Z</time></trkpt><trkpt lat="36.959764975299954" lon="14.995428147905347"><ele>546.0</ele><time>2026-04-15T12:27:05.999Z</time></trkpt><trkpt lat="36.95981164192254" lon="14.995615266082705"><ele>546.0</ele><time>2026-04-15T12:27:06.999Z</time></trkpt><trkpt lat="36.959869188270076" lon="14.99579500266146"><ele>546.0</ele><time>2026-04-15T12:27:07.999Z</time></trkpt><trkpt lat="36.959946701905345" lon="14.995975540877374"><ele>543.0</ele><time>2026-04-15T12:27:08.999Z</time></trkpt><trkpt lat="36.96005840654626" lon="14.996165792673807"><ele>540.0</ele><time>2026-04-15T12:27:09.999Z</time></trkpt><trkpt lat="36.960199147207554" lon="14.996365906417195"><ele>537.0</ele><time>2026-04-15T12:27:10.999Z</time></trkpt><trkpt lat="36.96034221316788" lon="14.996580175272602"><ele>536.5</ele><time>2026-04-15T12:27:11.999Z</time></trkpt><trkpt lat="36.96048542893957" lon="14.996806926506341"><ele>536.0</ele><time>2026-04-15T12:27:12.999Z</time></trkpt><trkpt lat="36.96063202852896" lon="14.997042850895353"><ele>536.0</ele><time>2026-04-15T12:27:13.999Z</time></trkpt><trkpt lat="36.96076839751257" lon="14.997270215390197"><ele>536.0</ele><time>2026-04-15T12:27:14.999Z</time></trkpt><trkpt lat="36.96089366181103" lon="14.997488047896125"><ele>536.0</ele><time>2026-04-15T12:27:15.999Z</time></trkpt><trkpt lat="36.96101468046918" lon="14.997697240501582"><ele>535.3333333333333</ele><time>2026-04-15T12:27:16.999Z</time></trkpt><trkpt lat="36.961127342145346" lon="14.99789159920348"><ele>534.6666666666666</ele><time>2026-04-15T12:27:17.999Z</time></trkpt><trkpt lat="36.96121960685117" lon="14.998056249667439"><ele>534.0</ele><time>2026-04-15T12:27:18.999Z</time></trkpt><trkpt lat="36.96129074959276" lon="14.998180830848966"><ele>534.0</ele><time>2026-04-15T12:27:19.999Z</time></trkpt><trkpt lat="36.961368501062886" lon="14.998262602296297"><ele>534.0</ele><time>2026-04-15T12:27:20.999Z</time></trkpt><trkpt lat="36.96146295723375" lon="14.99830315078909"><ele>534.0</ele><time>2026-04-15T12:27:21.999Z</time></trkpt><trkpt lat="36.96156753465234" lon="14.998294254875368"><ele>534.0</ele><time>2026-04-15T12:27:22.999Z</time></trkpt><trkpt lat="36.96166078196186" lon="14.998303166570867"><ele>534.0</ele><time>2026-04-15T12:27:23.999Z</time></trkpt><trkpt lat="36.96175291746211" lon="14.99835299853885"><ele>533.5</ele><time>2026-04-15T12:27:24.999Z</time></trkpt><trkpt lat="36.96184461280276" lon="14.99843600656017"><ele>533.0</ele><time>2026-04-15T12:27:25.999Z</time></trkpt><trkpt lat="36.96192741726284" lon="14.99853657454515"><ele>532.5</ele><time>2026-04-15T12:27:26.999Z</time></trkpt><trkpt lat="36.962016957835736" lon="14.998645651253389"><ele>532.0</ele><time>2026-04-15T12:27:27.999Z</time></trkpt><trkpt lat="36.962114552305636" lon="14.998760434564062"><ele>532.0</ele><time>2026-04-15T12:27:28.999Z</time></trkpt><trkpt lat="36.962220265740214" lon="14.99887721311968"><ele>532.0</ele><time>2026-04-15T12:27:29.999Z</time></trkpt><trkpt lat="36.962330659550446" lon="14.998995178100191"><ele>532.0</ele><time>2026-04-15T12:27:30.999Z</time></trkpt><trkpt lat="36.96243359174495" lon="14.999123017619155"><ele>532.0</ele><time>2026-04-15T12:27:31.999Z</time></trkpt><trkpt lat="36.96251676370996" lon="14.99926914116664"><ele>533.0</ele><time>2026-04-15T12:27:32.999Z</time></trkpt><trkpt lat="36.96257805239098" lon="14.999436252693048"><ele>534.0</ele><time>2026-04-15T12:27:34Z</time></trkpt><trkpt lat="36.9626465416968" lon="14.999613310228614"><ele>535.0</ele><time>2026-04-15T12:27:35Z</time></trkpt><trkpt lat="36.96272186579657" lon="14.999790164847868"><ele>535.0</ele><time>2026-04-15T12:27:36Z</time></trkpt><trkpt lat="36.962793013059645" lon="14.999968271957853"><ele>535.0</ele><time>2026-04-15T12:27:37Z</time></trkpt><trkpt lat="36.96286553607928" lon="15.000146656599425"><ele>535.0</ele><time>2026-04-15T12:27:38Z</time></trkpt><trkpt lat="36.96294532206523" lon="15.000319146491302"><ele>535.0</ele><time>2026-04-15T12:27:39Z</time></trkpt><trkpt lat="36.963043870251994" lon="15.000481894239753"><ele>535.0</ele><time>2026-04-15T12:27:40Z</time></trkpt><trkpt lat="36.96316753303974" lon="15.000632345633944"><ele>535.0</ele><time>2026-04-15T12:27:41Z</time></trkpt><trkpt lat="36.963298057287986" lon="15.00078545581203"><ele>534.6666666666667</ele><time>2026-04-15T12:27:42Z</time></trkpt><trkpt lat="36.963421742333765" lon="15.000950895348733"><ele>534.3333333333334</ele><time>2026-04-15T12:27:43Z</time></trkpt><trkpt lat="36.963531814614434" lon="15.001123537419872"><ele>534.0</ele><time>2026-04-15T12:27:44Z</time></trkpt><trkpt lat="36.96362945926745" lon="15.001290315357103"><ele>534.0</ele><time>2026-04-15T12:27:45Z</time></trkpt><trkpt lat="36.96370712450927" lon="15.001460309063683"><ele>534.0</ele><time>2026-04-15T12:27:46Z</time></trkpt><trkpt lat="36.96375977579428" lon="15.001635452388655"><ele>534.0</ele><time>2026-04-15T12:27:47Z</time></trkpt><trkpt lat="36.96379408263259" lon="15.001823179816416"><ele>533.0</ele><time>2026-04-15T12:27:48Z</time></trkpt><trkpt lat="36.96380917835336" lon="15.002003757521038"><ele>532.0</ele><time>2026-04-15T12:27:49Z</time></trkpt><trkpt lat="36.96383126051144" lon="15.002168293188285"><ele>531.0</ele><time>2026-04-15T12:27:50Z</time></trkpt><trkpt lat="36.96387745974372" lon="15.00231456854094"><ele>530.0</ele><time>2026-04-15T12:27:51Z</time></trkpt><trkpt lat="36.963947789365626" lon="15.002439747273803"><ele>529.25</ele><time>2026-04-15T12:27:52Z</time></trkpt><trkpt lat="36.9640229721728" lon="15.00257159419987"><ele>528.5</ele><time>2026-04-15T12:27:53Z</time></trkpt><trkpt lat="36.96409963519749" lon="15.002713774548393"><ele>527.75</ele><time>2026-04-15T12:27:54Z</time></trkpt><trkpt lat="36.96417854003569" lon="15.002864230296927"><ele>527.0</ele><time>2026-04-15T12:27:55Z</time></trkpt><trkpt lat="36.96425728641538" lon="15.003022332082992"><ele>527.0</ele><time>2026-04-15T12:27:56Z</time></trkpt><trkpt lat="36.964336428159925" lon="15.003180673973569"><ele>527.0</ele><time>2026-04-15T12:27:57Z</time></trkpt><trkpt lat="36.964417098930745" lon="15.003335529594652"><ele>527.0</ele><time>2026-04-15T12:27:58Z</time></trkpt><trkpt lat="36.9644946818392" lon="15.003478056146097"><ele>527.0</ele><time>2026-04-15T12:27:59Z</time></trkpt><trkpt lat="36.964556088182285" lon="15.003621759691748"><ele>526.75</ele><time>2026-04-15T12:28:00Z</time></trkpt><trkpt lat="36.9645933154969" lon="15.003781116998613"><ele>526.5</ele><time>2026-04-15T12:28:01Z</time></trkpt><trkpt lat="36.96459944690463" lon="15.003947009560953"><ele>526.25</ele><time>2026-04-15T12:28:02Z</time></trkpt><trkpt lat="36.964571734073395" lon="15.004090669215254"><ele>526.0</ele><time>2026-04-15T12:28:03Z</time></trkpt><trkpt lat="36.96450852298652" lon="15.004210081447493"><ele>525.5</ele><time>2026-04-15T12:28:04Z</time></trkpt><trkpt lat="36.964431263917675" lon="15.004319930970599"><ele>525.0</ele><time>2026-04-15T12:28:05Z</time></trkpt><trkpt lat="36.96437464681955" lon="15.004441765913636"><ele>524.5</ele><time>2026-04-15T12:28:06Z</time></trkpt><trkpt lat="36.96435904093884" lon="15.004591743227715"><ele>524.0</ele><time>2026-04-15T12:28:07Z</time></trkpt><trkpt lat="36.96436886363073" lon="15.00475562701082"><ele>524.0</ele><time>2026-04-15T12:28:08Z</time></trkpt><trkpt lat="36.96438172217137" lon="15.004929776022946"><ele>524.0</ele><time>2026-04-15T12:28:09Z</time></trkpt><trkpt lat="36.964358267833006" lon="15.005115025731328"><ele>524.0</ele><time>2026-04-15T12:28:10Z</time></trkpt><trkpt lat="36.96429181359857" lon="15.005296583138295"><ele>524.0</ele><time>2026-04-15T12:28:11Z</time></trkpt><trkpt lat="36.964202112349376" lon="15.005489643089511"><ele>521.3333333333333</ele><time>2026-04-15T12:28:12Z</time></trkpt><trkpt lat="36.964109890898115" lon="15.005671993452157"><ele>518.6666666666666</ele><time>2026-04-15T12:28:13Z</time></trkpt><trkpt lat="36.96402524142892" lon="15.005867481622541"><ele>516.0</ele><time>2026-04-15T12:28:14Z</time></trkpt><trkpt lat="36.963933599362676" lon="15.00607074877738"><ele>515.0</ele><time>2026-04-15T12:28:15Z</time></trkpt><trkpt lat="36.9638325060411" lon="15.006260114796572"><ele>514.0</ele><time>2026-04-15T12:28:16Z</time></trkpt><trkpt lat="36.963708188773566" lon="15.00644470488864"><ele>513.0</ele><time>2026-04-15T12:28:17Z</time></trkpt><trkpt lat="36.96356632726939" lon="15.006619513877844"><ele>512.3333333333334</ele><time>2026-04-15T12:28:18Z</time></trkpt><trkpt lat="36.96342779172763" lon="15.006793197992177"><ele>511.6666666666667</ele><time>2026-04-15T12:28:19Z</time></trkpt><trkpt lat="36.963309177304055" lon="15.006954293510246"><ele>511.0</ele><time>2026-04-15T12:28:20Z</time></trkpt><trkpt lat="36.96320583136034" lon="15.007108800528233"><ele>510.25</ele><time>2026-04-15T12:28:21Z</time></trkpt><trkpt lat="36.963135963833935" lon="15.007265386855384"><ele>509.5</ele><time>2026-04-15T12:28:22Z</time></trkpt><trkpt lat="36.96309777735984" lon="15.00744275323355"><ele>508.75</ele><time>2026-04-15T12:28:23Z</time></trkpt><trkpt lat="36.96306627496843" lon="15.007623078826388"><ele>508.0</ele><time>2026-04-15T12:28:24Z</time></trkpt><trkpt lat="36.963025616799726" lon="15.007813912480396"><ele>507.6666666666667</ele><time>2026-04-15T12:28:25Z</time></trkpt><trkpt lat="36.96297593084155" lon="15.008017611094889"><ele>507.33333333333337</ele><time>2026-04-15T12:28:26Z</time></trkpt><trkpt lat="36.962924187207136" lon="15.00820297302686"><ele>507.0</ele><time>2026-04-15T12:28:26.999Z</time></trkpt><trkpt lat="36.96285080159611" lon="15.008371757570272"><ele>505.33333333333337</ele><time>2026-04-15T12:28:27.999Z</time></trkpt><trkpt lat="36.96275527264214" lon="15.008530593442147"><ele>503.6666666666667</ele><time>2026-04-15T12:28:28.999Z</time></trkpt><trkpt lat="36.962653861601204" lon="15.00869975102906"><ele>502.0</ele><time>2026-04-15T12:28:29.999Z</time></trkpt><trkpt lat="36.962554020504506" lon="15.008879170295412"><ele>500.6666666666667</ele><time>2026-04-15T12:28:30.999Z</time></trkpt><trkpt lat="36.96245140858868" lon="15.009055350697045"><ele>499.33333333333337</ele><time>2026-04-15T12:28:31.999Z</time></trkpt><trkpt lat="36.962355851548324" lon="15.00922383737448"><ele>498.0</ele><time>2026-04-15T12:28:32.999Z</time></trkpt><trkpt lat="36.96226291404035" lon="15.009388879123136"><ele>497.25</ele><time>2026-04-15T12:28:33.999Z</time></trkpt><trkpt lat="36.96217798438882" lon="15.00954934303182"><ele>496.5</ele><time>2026-04-15T12:28:34.999Z</time></trkpt><trkpt lat="36.96210483335148" lon="15.009701980457715"><ele>495.75</ele><time>2026-04-15T12:28:35.999Z</time></trkpt><trkpt lat="36.962044298489616" lon="15.009847469526386"><ele>495.0</ele><time>2026-04-15T12:28:36.999Z</time></trkpt><trkpt lat="36.961995254176024" lon="15.009987226625952"><ele>493.75</ele><time>2026-04-15T12:28:37.999Z</time></trkpt><trkpt lat="36.96196575090634" lon="15.010127033312154"><ele>492.5</ele><time>2026-04-15T12:28:38.999Z</time></trkpt><trkpt lat="36.96196331973635" lon="15.010273735643278"><ele>491.25</ele><time>2026-04-15T12:28:39.999Z</time></trkpt><trkpt lat="36.961982684413776" lon="15.010411467823172"><ele>490.0</ele><time>2026-04-15T12:28:40.999Z</time></trkpt><trkpt lat="36.96201415194417" lon="15.010544301181785"><ele>490.00000000000006</ele><time>2026-04-15T12:28:41.999Z</time></trkpt><trkpt lat="36.96205535564944" lon="15.010660035123104"><ele>490.0</ele><time>2026-04-15T12:28:42.999Z</time></trkpt><trkpt lat="36.96210804780256" lon="15.010745146289137"><ele>490.0</ele><time>2026-04-15T12:28:43.999Z</time></trkpt><trkpt lat="36.962188554144824" lon="15.010777698567578"><ele>490.0</ele><time>2026-04-15T12:28:44.999Z</time></trkpt><trkpt lat="36.9622719309083" lon="15.010757756516595"><ele>490.00000000000006</ele><time>2026-04-15T12:28:45.999Z</time></trkpt><trkpt lat="36.96234743858903" lon="15.010708458429473"><ele>490.0</ele><time>2026-04-15T12:28:46.999Z</time></trkpt><trkpt lat="36.96243762293715" lon="15.010689604498493"><ele>491.0</ele><time>2026-04-15T12:28:47.999Z</time></trkpt><trkpt lat="36.96253479889795" lon="15.010717715169795"><ele>492.0</ele><time>2026-04-15T12:28:48.999Z</time></trkpt><trkpt lat="36.96263901239153" lon="15.010775371434788"><ele>493.0</ele><time>2026-04-15T12:28:49.999Z</time></trkpt><trkpt lat="36.96273691272264" lon="15.010864923258934"><ele>494.0</ele><time>2026-04-15T12:28:50.999Z</time></trkpt><trkpt lat="36.962813303923156" lon="15.01099403259345"><ele>494.66666666666663</ele><time>2026-04-15T12:28:51.999Z</time></trkpt><trkpt lat="36.96286818345474" lon="15.011165257870022"><ele>495.33333333333337</ele><time>2026-04-15T12:28:52.999Z</time></trkpt><trkpt lat="36.96293853432474" lon="15.011337045539474"><ele>496.0</ele><time>2026-04-15T12:28:53.999Z</time></trkpt><trkpt lat="36.96303345701076" lon="15.01148027288705"><ele>496.0</ele><time>2026-04-15T12:28:54.999Z</time></trkpt><trkpt lat="36.96311371972508" lon="15.011615789249282"><ele>496.0</ele><time>2026-04-15T12:28:55.999Z</time></trkpt><trkpt lat="36.963148624721285" lon="15.011767141003"><ele>496.0</ele><time>2026-04-15T12:28:56.999Z</time></trkpt><trkpt lat="36.96314216805501" lon="15.01192010790368"><ele>496.0</ele><time>2026-04-15T12:28:57.999Z</time></trkpt><trkpt lat="36.963136510456664" lon="15.012075477835648"><ele>495.0</ele><time>2026-04-15T12:28:58.999Z</time></trkpt><trkpt lat="36.96313692326612" lon="15.012241765578027"><ele>494.0</ele><time>2026-04-15T12:28:59.999Z</time></trkpt><trkpt lat="36.96313119915586" lon="15.012404961651384"><ele>493.0</ele><time>2026-04-15T12:29:00.999Z</time></trkpt><trkpt lat="36.9631321603223" lon="15.012551127982848"><ele>492.0</ele><time>2026-04-15T12:29:01.999Z</time></trkpt><trkpt lat="36.9631505272329" lon="15.01268681601922"><ele>492.0</ele><time>2026-04-15T12:29:02.999Z</time></trkpt><trkpt lat="36.963191364055206" lon="15.012795189125466"><ele>492.00000000000006</ele><time>2026-04-15T12:29:03.999Z</time></trkpt><trkpt lat="36.96326095317542" lon="15.012844480099393"><ele>492.00000000000006</ele><time>2026-04-15T12:29:04.999Z</time></trkpt><trkpt lat="36.963343520648266" lon="15.012846262435936"><ele>492.0</ele><time>2026-04-15T12:29:05.999Z</time></trkpt><trkpt lat="36.96343207920976" lon="15.012803488190285"><ele>492.0</ele><time>2026-04-15T12:29:06.999Z</time></trkpt><trkpt lat="36.96352237495173" lon="15.012731276783144"><ele>492.0</ele><time>2026-04-15T12:29:07.999Z</time></trkpt><trkpt lat="36.963627902691876" lon="15.012647978949134"><ele>492.0</ele><time>2026-04-15T12:29:08.999Z</time></trkpt><trkpt lat="36.963732681087166" lon="15.012549224860274"><ele>492.0</ele><time>2026-04-15T12:29:09.999Z</time></trkpt><trkpt lat="36.963837856569164" lon="15.012413025625298"><ele>492.0</ele><time>2026-04-15T12:29:10.999Z</time></trkpt><trkpt lat="36.96393240576408" lon="15.012253792824868"><ele>493.0</ele><time>2026-04-15T12:29:11.999Z</time></trkpt><trkpt lat="36.96402680270929" lon="15.012075337202369"><ele>494.0</ele><time>2026-04-15T12:29:12.999Z</time></trkpt><trkpt lat="36.964107346690845" lon="15.011884866823143"><ele>495.0</ele><time>2026-04-15T12:29:13.999Z</time></trkpt><trkpt lat="36.96418119942683" lon="15.011703852981658"><ele>496.0</ele><time>2026-04-15T12:29:14.999Z</time></trkpt><trkpt lat="36.96425422352644" lon="15.011546127563408"><ele>497.0</ele><time>2026-04-15T12:29:15.999Z</time></trkpt><trkpt lat="36.964322667309794" lon="15.011411312693538"><ele>498.0</ele><time>2026-04-15T12:29:16.999Z</time></trkpt><trkpt lat="36.964394125240126" lon="15.011320874313348"><ele>499.0</ele><time>2026-04-15T12:29:17.999Z</time></trkpt><trkpt lat="36.96447523705406" lon="15.011260071500262"><ele>499.0</ele><time>2026-04-15T12:29:18.999Z</time></trkpt><trkpt lat="36.96456480719062" lon="15.011245683567102"><ele>499.0</ele><time>2026-04-15T12:29:19.999Z</time></trkpt><trkpt lat="36.96466709410496" lon="15.01126172751955"><ele>499.0</ele><time>2026-04-15T12:29:20.999Z</time></trkpt><trkpt lat="36.96478687536518" lon="15.011287222575845"><ele>499.0</ele><time>2026-04-15T12:29:21.999Z</time></trkpt><trkpt lat="36.964919155999674" lon="15.011319492686429"><ele>498.2</ele><time>2026-04-15T12:29:22.999Z</time></trkpt><trkpt lat="36.96503454756021" lon="15.011344737172655"><ele>497.4</ele><time>2026-04-15T12:29:23.999Z</time></trkpt><trkpt lat="36.96514215208595" lon="15.01137080917065"><ele>496.6</ele><time>2026-04-15T12:29:24.999Z</time></trkpt><trkpt lat="36.965246060861084" lon="15.011378268722494"><ele>495.8</ele><time>2026-04-15T12:29:25.999Z</time></trkpt><trkpt lat="36.96534499121634" lon="15.011341283701695"><ele>495.0</ele><time>2026-04-15T12:29:26.999Z</time></trkpt><trkpt lat="36.96543124404415" lon="15.011249349495143"><ele>495.0</ele><time>2026-04-15T12:29:27.999Z</time></trkpt><trkpt lat="36.965519782971434" lon="15.011141662071447"><ele>495.0</ele><time>2026-04-15T12:29:28.999Z</time></trkpt><trkpt lat="36.965629982282984" lon="15.011026808182965"><ele>495.0</ele><time>2026-04-15T12:29:29.999Z</time></trkpt><trkpt lat="36.96576490316599" lon="15.010920774206694"><ele>495.0</ele><time>2026-04-15T12:29:30.999Z</time></trkpt><trkpt lat="36.9659031673879" lon="15.010817064466618"><ele>496.5</ele><time>2026-04-15T12:29:31.999Z</time></trkpt><trkpt lat="36.96602698460632" lon="15.010721032998868"><ele>498.0</ele><time>2026-04-15T12:29:32.999Z</time></trkpt><trkpt lat="36.966147473281346" lon="15.010636837844771"><ele>499.5</ele><time>2026-04-15T12:29:33.999Z</time></trkpt><trkpt lat="36.966272637677605" lon="15.010578317660093"><ele>501.0</ele><time>2026-04-15T12:29:34.999Z</time></trkpt><trkpt lat="36.9664042245832" lon="15.010546462472952"><ele>501.0</ele><time>2026-04-15T12:29:35.999Z</time></trkpt><trkpt lat="36.96654015229419" lon="15.010520351795037"><ele>501.0</ele><time>2026-04-15T12:29:36.999Z</time></trkpt><trkpt lat="36.966684689995546" lon="15.010497432731322"><ele>501.0</ele><time>2026-04-15T12:29:37.999Z</time></trkpt><trkpt lat="36.966821320324556" lon="15.01046509693632"><ele>501.0</ele><time>2026-04-15T12:29:38.999Z</time></trkpt><trkpt lat="36.96694937955925" lon="15.010439007034167"><ele>499.75</ele><time>2026-04-15T12:29:40Z</time></trkpt><trkpt lat="36.96707379845478" lon="15.010439190829041"><ele>498.5</ele><time>2026-04-15T12:29:41Z</time></trkpt><trkpt lat="36.96719445322654" lon="15.010486100947222"><ele>497.25</ele><time>2026-04-15T12:29:42Z</time></trkpt><trkpt lat="36.96731172405784" lon="15.010567140549384"><ele>496.0</ele><time>2026-04-15T12:29:43Z</time></trkpt><trkpt lat="36.96742547071438" lon="15.010676571921014"><ele>496.5</ele><time>2026-04-15T12:29:44Z</time></trkpt><trkpt lat="36.967530411340974" lon="15.010777569521693"><ele>497.0</ele><time>2026-04-15T12:29:45Z</time></trkpt><trkpt lat="36.96761737023548" lon="15.010891583947611"><ele>497.5</ele><time>2026-04-15T12:29:46Z</time></trkpt><trkpt lat="36.96767280162572" lon="15.011042329041489"><ele>498.0</ele><time>2026-04-15T12:29:47Z</time></trkpt><trkpt lat="36.967697272694814" lon="15.011228599788325"><ele>498.0</ele><time>2026-04-15T12:29:48Z</time></trkpt><trkpt lat="36.967711715035556" lon="15.011423041183992"><ele>498.0</ele><time>2026-04-15T12:29:49Z</time></trkpt><trkpt lat="36.96772485320796" lon="15.01159289322897"><ele>498.0</ele><time>2026-04-15T12:29:50Z</time></trkpt><trkpt lat="36.96775639975326" lon="15.011754121056603"><ele>498.0</ele><time>2026-04-15T12:29:51Z</time></trkpt><trkpt lat="36.96782108130565" lon="15.011922120665448"><ele>497.0</ele><time>2026-04-15T12:29:52Z</time></trkpt><trkpt lat="36.96790160297593" lon="15.012090176583428"><ele>496.0</ele><time>2026-04-15T12:29:53Z</time></trkpt><trkpt lat="36.96800188510546" lon="15.012248430149238"><ele>495.0</ele><time>2026-04-15T12:29:54Z</time></trkpt><trkpt lat="36.96812847770854" lon="15.012423216328504"><ele>494.0</ele><time>2026-04-15T12:29:55Z</time></trkpt><trkpt lat="36.96825977656448" lon="15.0126153469126"><ele>493.0</ele><time>2026-04-15T12:29:56Z</time></trkpt><trkpt lat="36.96837998485413" lon="15.01280403091838"><ele>492.0</ele><time>2026-04-15T12:29:57Z</time></trkpt><trkpt lat="36.968499343613175" lon="15.012987584563609"><ele>492.66666666666663</ele><time>2026-04-15T12:29:58Z</time></trkpt><trkpt lat="36.96861676164651" lon="15.013155535933246"><ele>493.3333333333333</ele><time>2026-04-15T12:29:59Z</time></trkpt><trkpt lat="36.96873357476198" lon="15.013297602490638"><ele>494.0</ele><time>2026-04-15T12:30:00Z</time></trkpt><trkpt lat="36.96885656676988" lon="15.013423452802561"><ele>494.0</ele><time>2026-04-15T12:30:01Z</time></trkpt><trkpt lat="36.96899857797324" lon="15.0135286711383"><ele>494.0</ele><time>2026-04-15T12:30:02Z</time></trkpt><trkpt lat="36.96914455400291" lon="15.013628800628766"><ele>494.0</ele><time>2026-04-15T12:30:03Z</time></trkpt><trkpt lat="36.969270796554184" lon="15.013753052565555"><ele>494.25</ele><time>2026-04-15T12:30:04Z</time></trkpt><trkpt lat="36.96936727989967" lon="15.013892406392836"><ele>494.5</ele><time>2026-04-15T12:30:05Z</time></trkpt><trkpt lat="36.96944139038162" lon="15.014038348020181"><ele>494.75</ele><time>2026-04-15T12:30:06Z</time></trkpt><trkpt lat="36.969497368853894" lon="15.014187085126775"><ele>495.0</ele><time>2026-04-15T12:30:07Z</time></trkpt><trkpt lat="36.96953986988141" lon="15.01434115065155"><ele>495.0</ele><time>2026-04-15T12:30:08Z</time></trkpt><trkpt lat="36.96959080374143" lon="15.014483461213416"><ele>495.0</ele><time>2026-04-15T12:30:09Z</time></trkpt><trkpt lat="36.969664191740925" lon="15.014593997655675"><ele>495.0</ele><time>2026-04-15T12:30:10Z</time></trkpt><trkpt lat="36.96974784112714" lon="15.014709186151704"><ele>495.0</ele><time>2026-04-15T12:30:11Z</time></trkpt><trkpt lat="36.96984251860169" lon="15.014809724027975"><ele>495.0</ele><time>2026-04-15T12:30:12Z</time></trkpt><trkpt lat="36.96994837331715" lon="15.014884780365287"><ele>495.0</ele><time>2026-04-15T12:30:13Z</time></trkpt><trkpt lat="36.97005726717642" lon="15.014918573380985"><ele>495.0</ele><time>2026-04-15T12:30:14Z</time></trkpt><trkpt lat="36.97017857547571" lon="15.014917749190571"><ele>495.0</ele><time>2026-04-15T12:30:15Z</time></trkpt><trkpt lat="36.97030093787826" lon="15.014897131988777"><ele>495.0</ele><time>2026-04-15T12:30:16Z</time></trkpt><trkpt lat="36.97041090827974" lon="15.014870018249535"><ele>495.0</ele><time>2026-04-15T12:30:17Z</time></trkpt><trkpt lat="36.970513858328715" lon="15.01481370716362"><ele>495.0</ele><time>2026-04-15T12:30:18Z</time></trkpt><trkpt lat="36.97060162345167" lon="15.014722958068983"><ele>495.0</ele><time>2026-04-15T12:30:19Z</time></trkpt><trkpt lat="36.970675810009645" lon="15.014635689292513"><ele>495.0</ele><time>2026-04-15T12:30:20Z</time></trkpt><trkpt lat="36.970744132530065" lon="15.014595939297305"><ele>495.0</ele><time>2026-04-15T12:30:21Z</time></trkpt><trkpt lat="36.970813588817336" lon="15.014652176534721"><ele>495.0</ele><time>2026-04-15T12:30:23Z</time></trkpt><trkpt lat="36.97077384937712" lon="15.014771531731292"><ele>495.0</ele><time>2026-04-15T12:30:25Z</time></trkpt><trkpt lat="36.97069515516119" lon="15.014835206489089"><ele>495.0</ele><time>2026-04-15T12:30:26Z</time></trkpt><trkpt lat="36.97063050374541" lon="15.014921565372243"><ele>495.0</ele><time>2026-04-15T12:30:27Z</time></trkpt><trkpt lat="36.97058159001899" lon="15.015062725943924"><ele>492.75</ele><time>2026-04-15T12:30:28Z</time></trkpt><trkpt lat="36.97055058408293" lon="15.015222242554142"><ele>490.5</ele><time>2026-04-15T12:30:29Z</time></trkpt><trkpt lat="36.97053834388471" lon="15.015380166023599"><ele>488.25</ele><time>2026-04-15T12:30:30Z</time></trkpt><trkpt lat="36.97051772939401" lon="15.015549989458135"><ele>486.0</ele><time>2026-04-15T12:30:31Z</time></trkpt><trkpt lat="36.97048104509875" lon="15.015725559269821"><ele>484.0</ele><time>2026-04-15T12:30:32Z</time></trkpt><trkpt lat="36.97043902115589" lon="15.015889610484283"><ele>482.0</ele><time>2026-04-15T12:30:33Z</time></trkpt><trkpt lat="36.970388483562125" lon="15.016045844879358"><ele>480.0</ele><time>2026-04-15T12:30:34Z</time></trkpt><trkpt lat="36.97030931726094" lon="15.016203826992923"><ele>478.0</ele><time>2026-04-15T12:30:35Z</time></trkpt><trkpt lat="36.970212613327604" lon="15.016377873228922"><ele>478.0</ele><time>2026-04-15T12:30:36Z</time></trkpt><trkpt lat="36.97012907622055" lon="15.016544669195198"><ele>478.0</ele><time>2026-04-15T12:30:37Z</time></trkpt><trkpt lat="36.97004496510683" lon="15.016702356379604"><ele>478.0</ele><time>2026-04-15T12:30:37.999Z</time></trkpt><trkpt lat="36.96996740063902" lon="15.016852357028073"><ele>477.5</ele><time>2026-04-15T12:30:38.999Z</time></trkpt><trkpt lat="36.96992973088916" lon="15.017018640421526"><ele>477.0</ele><time>2026-04-15T12:30:39.999Z</time></trkpt><trkpt lat="36.96992002961366" lon="15.017189117690748"><ele>476.5</ele><time>2026-04-15T12:30:40.999Z</time></trkpt><trkpt lat="36.96993047720043" lon="15.017357493225918"><ele>476.0</ele><time>2026-04-15T12:30:41.999Z</time></trkpt><trkpt lat="36.96994717501641" lon="15.017534652915192"><ele>476.0</ele><time>2026-04-15T12:30:42.999Z</time></trkpt><trkpt lat="36.969961729111056" lon="15.017716188418733"><ele>476.0</ele><time>2026-04-15T12:30:43.999Z</time></trkpt><trkpt lat="36.96998100686454" lon="15.01789821701709"><ele>476.0</ele><time>2026-04-15T12:30:44.999Z</time></trkpt><trkpt lat="36.970011397155844" lon="15.018070946153667"><ele>476.0</ele><time>2026-04-15T12:30:45.999Z</time></trkpt><trkpt lat="36.970049134193296" lon="15.018236855243616"><ele>474.0</ele><time>2026-04-15T12:30:46.999Z</time></trkpt><trkpt lat="36.970104053142805" lon="15.018387261235326"><ele>472.0</ele><time>2026-04-15T12:30:47.999Z</time></trkpt><trkpt lat="36.97016858438663" lon="15.018526730699465"><ele>470.0</ele><time>2026-04-15T12:30:48.999Z</time></trkpt><trkpt lat="36.970233603403386" lon="15.018653047185083"><ele>468.0</ele><time>2026-04-15T12:30:49.999Z</time></trkpt><trkpt lat="36.97029870729562" lon="15.018779655654386"><ele>468.0</ele><time>2026-04-15T12:30:50.999Z</time></trkpt><trkpt lat="36.97037492814926" lon="15.018887900729563"><ele>467.99999999999994</ele><time>2026-04-15T12:30:51.999Z</time></trkpt><trkpt lat="36.970459726959795" lon="15.018959300856737"><ele>467.99999999999994</ele><time>2026-04-15T12:30:52.999Z</time></trkpt><trkpt lat="36.970560479266446" lon="15.018990915952134"><ele>468.0</ele><time>2026-04-15T12:30:53.999Z</time></trkpt><trkpt lat="36.97067169408356" lon="15.018986805878662"><ele>468.0</ele><time>2026-04-15T12:30:54.999Z</time></trkpt><trkpt lat="36.97080052139431" lon="15.018972261615302"><ele>468.4</ele><time>2026-04-15T12:30:55.999Z</time></trkpt><trkpt lat="36.970918718577984" lon="15.018974309536917"><ele>468.79999999999995</ele><time>2026-04-15T12:30:56.999Z</time></trkpt><trkpt lat="36.97101456936144" lon="15.01900355552699"><ele>469.2</ele><time>2026-04-15T12:30:57.999Z</time></trkpt><trkpt lat="36.971097560208285" lon="15.019065682127538"><ele>469.6</ele><time>2026-04-15T12:30:58.999Z</time></trkpt><trkpt lat="36.971168995009904" lon="15.019152323387235"><ele>470.0</ele><time>2026-04-15T12:30:59.999Z</time></trkpt><trkpt lat="36.97123453778025" lon="15.019277949474445"><ele>470.0</ele><time>2026-04-15T12:31:00.999Z</time></trkpt><trkpt lat="36.97130736466151" lon="15.019420655984433"><ele>470.0</ele><time>2026-04-15T12:31:01.999Z</time></trkpt><trkpt lat="36.971373348573394" lon="15.019605625688355"><ele>470.0</ele><time>2026-04-15T12:31:02.999Z</time></trkpt><trkpt lat="36.971432574853395" lon="15.019805530983273"><ele>467.3333333333333</ele><time>2026-04-15T12:31:03.999Z</time></trkpt><trkpt lat="36.97148789759089" lon="15.020004729063109"><ele>464.66666666666663</ele><time>2026-04-15T12:31:04.999Z</time></trkpt><trkpt lat="36.971544468356186" lon="15.020195337439535"><ele>462.0</ele><time>2026-04-15T12:31:05.999Z</time></trkpt><trkpt lat="36.97161823669114" lon="15.020380338097745"><ele>461.33333333333337</ele><time>2026-04-15T12:31:06.999Z</time></trkpt><trkpt lat="36.971707239824944" lon="15.020564734309179"><ele>460.6666666666667</ele><time>2026-04-15T12:31:07.999Z</time></trkpt><trkpt lat="36.971811220654864" lon="15.020743717891978"><ele>460.0</ele><time>2026-04-15T12:31:08.999Z</time></trkpt><trkpt lat="36.97192810897881" lon="15.020914382865463"><ele>460.0</ele><time>2026-04-15T12:31:09.999Z</time></trkpt><trkpt lat="36.97204705259737" lon="15.021093290568176"><ele>460.0</ele><time>2026-04-15T12:31:10.999Z</time></trkpt><trkpt lat="36.972147861516554" lon="15.021284249934467"><ele>460.0</ele><time>2026-04-15T12:31:11.999Z</time></trkpt><trkpt lat="36.972222843078654" lon="15.021473456942854"><ele>460.0</ele><time>2026-04-15T12:31:12.999Z</time></trkpt><trkpt lat="36.97227460331376" lon="15.021648049604835"><ele>460.0</ele><time>2026-04-15T12:31:13.999Z</time></trkpt><trkpt lat="36.97229433332326" lon="15.021818024197064"><ele>460.0</ele><time>2026-04-15T12:31:14.999Z</time></trkpt><trkpt lat="36.97228067361828" lon="15.02198882713782"><ele>460.0</ele><time>2026-04-15T12:31:15.999Z</time></trkpt><trkpt lat="36.972239325728246" lon="15.022156356918794"><ele>459.33333333333337</ele><time>2026-04-15T12:31:16.999Z</time></trkpt><trkpt lat="36.97217017738524" lon="15.022342498770163"><ele>458.66666666666663</ele><time>2026-04-15T12:31:17.999Z</time></trkpt><trkpt lat="36.972081952246555" lon="15.022522545850425"><ele>458.0</ele><time>2026-04-15T12:31:18.999Z</time></trkpt><trkpt lat="36.97197904870072" lon="15.022692590586015"><ele>458.0</ele><time>2026-04-15T12:31:19.999Z</time></trkpt><trkpt lat="36.97186071237962" lon="15.022845149096204"><ele>458.0</ele><time>2026-04-15T12:31:20.999Z</time></trkpt><trkpt lat="36.97173764992074" lon="15.022966988372016"><ele>458.0</ele><time>2026-04-15T12:31:21.999Z</time></trkpt><trkpt lat="36.971634480967694" lon="15.023095566232652"><ele>457.0</ele><time>2026-04-15T12:31:22.999Z</time></trkpt><trkpt lat="36.9715490605147" lon="15.023238106255734"><ele>456.0</ele><time>2026-04-15T12:31:23.999Z</time></trkpt><trkpt lat="36.97149279426111" lon="15.02340586698848"><ele>455.0</ele><time>2026-04-15T12:31:24.999Z</time></trkpt><trkpt lat="36.97145502833884" lon="15.023612916967847"><ele>455.0</ele><time>2026-04-15T12:31:25.999Z</time></trkpt><trkpt lat="36.971424339285086" lon="15.023836065735333"><ele>455.0</ele><time>2026-04-15T12:31:26.999Z</time></trkpt><trkpt lat="36.97137556681832" lon="15.02404384365796"><ele>455.0</ele><time>2026-04-15T12:31:27.999Z</time></trkpt><trkpt lat="36.97130472974047" lon="15.024232058233865"><ele>456.3333333333333</ele><time>2026-04-15T12:31:28.999Z</time></trkpt><trkpt lat="36.97121188664781" lon="15.024413355521515"><ele>457.66666666666663</ele><time>2026-04-15T12:31:29.999Z</time></trkpt><trkpt lat="36.97109632572037" lon="15.024597520408086"><ele>459.0</ele><time>2026-04-15T12:31:30.999Z</time></trkpt><trkpt lat="36.97098040456005" lon="15.024758482677344"><ele>456.0</ele><time>2026-04-15T12:31:31.999Z</time></trkpt><trkpt lat="36.97085565854392" lon="15.024907826568008"><ele>453.0</ele><time>2026-04-15T12:31:32.999Z</time></trkpt><trkpt lat="36.97071737914282" lon="15.025051771632205"><ele>450.0</ele><time>2026-04-15T12:31:33.999Z</time></trkpt><trkpt lat="36.97058429777882" lon="15.025184071772168"><ele>450.0</ele><time>2026-04-15T12:31:34.999Z</time></trkpt><trkpt lat="36.970471182496155" lon="15.025306241506472"><ele>450.0</ele><time>2026-04-15T12:31:35.999Z</time></trkpt><trkpt lat="36.97038526406889" lon="15.025427782482963"><ele>450.0</ele><time>2026-04-15T12:31:36.999Z</time></trkpt><trkpt lat="36.97033892511665" lon="15.025564708356063"><ele>450.0</ele><time>2026-04-15T12:31:37.999Z</time></trkpt><trkpt lat="36.97033446828567" lon="15.025712562363871"><ele>452.0</ele><time>2026-04-15T12:31:38.999Z</time></trkpt><trkpt lat="36.970353097421786" lon="15.025865154976564"><ele>454.0</ele><time>2026-04-15T12:31:39.999Z</time></trkpt><trkpt lat="36.97036874033225" lon="15.026042727827122"><ele>456.0</ele><time>2026-04-15T12:31:40.999Z</time></trkpt><trkpt lat="36.97037231581855" lon="15.0262315695258"><ele>458.0</ele><time>2026-04-15T12:31:41.999Z</time></trkpt><trkpt lat="36.97035331074475" lon="15.026425332017205"><ele>458.0</ele><time>2026-04-15T12:31:42.999Z</time></trkpt><trkpt lat="36.970308443362164" lon="15.026631770716621"><ele>458.0</ele><time>2026-04-15T12:31:43.999Z</time></trkpt><trkpt lat="36.97023678820632" lon="15.026850717261695"><ele>458.0</ele><time>2026-04-15T12:31:44.999Z</time></trkpt><trkpt lat="36.97016265259606" lon="15.027092370383214"><ele>459.0</ele><time>2026-04-15T12:31:46Z</time></trkpt><trkpt lat="36.97008953913889" lon="15.027361740237263"><ele>460.0</ele><time>2026-04-15T12:31:47Z</time></trkpt><trkpt lat="36.970011684773596" lon="15.027638745040807"><ele>458.33333333333337</ele><time>2026-04-15T12:31:48Z</time></trkpt><trkpt lat="36.96993809333357" lon="15.027887961828585"><ele>456.66666666666663</ele><time>2026-04-15T12:31:49Z</time></trkpt><trkpt lat="36.96987438642836" lon="15.028110810979332"><ele>455.0</ele><time>2026-04-15T12:31:50Z</time></trkpt><trkpt lat="36.96980898182227" lon="15.028326384423899"><ele>455.0</ele><time>2026-04-15T12:31:51Z</time></trkpt><trkpt lat="36.96975743784079" lon="15.028525655721019"><ele>455.0</ele><time>2026-04-15T12:31:52Z</time></trkpt><trkpt lat="36.96973264256188" lon="15.028719842338628"><ele>455.0</ele><time>2026-04-15T12:31:53Z</time></trkpt><trkpt lat="36.96972464141436" lon="15.028902555596721"><ele>455.0</ele><time>2026-04-15T12:31:54Z</time></trkpt><trkpt lat="36.96972323178324" lon="15.029085814950573"><ele>455.0</ele><time>2026-04-15T12:31:55Z</time></trkpt><trkpt lat="36.96971986850979" lon="15.029288327214324"><ele>455.0</ele><time>2026-04-15T12:31:56Z</time></trkpt><trkpt lat="36.969704188141996" lon="15.029480003332667"><ele>454.5</ele><time>2026-04-15T12:31:57Z</time></trkpt><trkpt lat="36.96967429676594" lon="15.029664592054507"><ele>454.0</ele><time>2026-04-15T12:31:58Z</time></trkpt><trkpt lat="36.96963441189697" lon="15.029831089309972"><ele>453.5</ele><time>2026-04-15T12:31:59Z</time></trkpt><trkpt lat="36.96957933535795" lon="15.029984433650926"><ele>453.0</ele><time>2026-04-15T12:32:00Z</time></trkpt><trkpt lat="36.969499436550066" lon="15.030123306561128"><ele>450.79999999999995</ele><time>2026-04-15T12:32:01Z</time></trkpt><trkpt lat="36.969418764161304" lon="15.03023686466127"><ele>448.59999999999997</ele><time>2026-04-15T12:32:02Z</time></trkpt><trkpt lat="36.96935925425559" lon="15.030327189640769"><ele>446.40000000000003</ele><time>2026-04-15T12:32:03Z</time></trkpt><trkpt lat="36.96934297207485" lon="15.03041370722604"><ele>444.20000000000005</ele><time>2026-04-15T12:32:04Z</time></trkpt><trkpt lat="36.969431428323844" lon="15.030495950100581"><ele>442.0</ele><time>2026-04-15T12:32:06Z</time></trkpt><trkpt lat="36.96950183023176" lon="15.030467170341602"><ele>442.0</ele><time>2026-04-15T12:32:07Z</time></trkpt><trkpt lat="36.969583147668274" lon="15.030368700880144"><ele>442.00000000000006</ele><time>2026-04-15T12:32:08Z</time></trkpt><trkpt lat="36.96968144337085" lon="15.030279081694891"><ele>442.00000000000006</ele><time>2026-04-15T12:32:09Z</time></trkpt><trkpt lat="36.96977590682288" lon="15.030204550519773"><ele>442.0</ele><time>2026-04-15T12:32:10Z</time></trkpt><trkpt lat="36.96985954793728" lon="15.030160802713448"><ele>442.0</ele><time>2026-04-15T12:32:11Z</time></trkpt><trkpt lat="36.96994948109987" lon="15.030164520864771"><ele>441.0</ele><time>2026-04-15T12:32:12Z</time></trkpt><trkpt lat="36.970035152135694" lon="15.030214326978642"><ele>440.00000000000006</ele><time>2026-04-15T12:32:13Z</time></trkpt><trkpt lat="36.97009889488349" lon="15.030294848587776"><ele>439.00000000000006</ele><time>2026-04-15T12:32:14Z</time></trkpt><trkpt lat="36.970141482916006" lon="15.030415108188537"><ele>438.0</ele><time>2026-04-15T12:32:15Z</time></trkpt><trkpt lat="36.97018884542659" lon="15.030548460704244"><ele>437.0</ele><time>2026-04-15T12:32:16Z</time></trkpt><trkpt lat="36.97025033804851" lon="15.030696991574029"><ele>436.75</ele><time>2026-04-15T12:32:17Z</time></trkpt><trkpt lat="36.97029687085916" lon="15.0308398697613"><ele>436.5</ele><time>2026-04-15T12:32:18Z</time></trkpt><trkpt lat="36.970335310520326" lon="15.031010615088169"><ele>436.25</ele><time>2026-04-15T12:32:19Z</time></trkpt><trkpt lat="36.97036999525488" lon="15.031215547621414"><ele>436.0</ele><time>2026-04-15T12:32:20Z</time></trkpt><trkpt lat="36.97040588950494" lon="15.031437171435385"><ele>436.6666666666667</ele><time>2026-04-15T12:32:21Z</time></trkpt><trkpt lat="36.970447681196255" lon="15.031657952845295"><ele>437.33333333333337</ele><time>2026-04-15T12:32:22Z</time></trkpt><trkpt lat="36.97049291444469" lon="15.031873201245386"><ele>438.0</ele><time>2026-04-15T12:32:23Z</time></trkpt><trkpt lat="36.97052916670031" lon="15.032076744342149"><ele>438.0</ele><time>2026-04-15T12:32:24Z</time></trkpt><trkpt lat="36.97054788281954" lon="15.032273738701642"><ele>438.0</ele><time>2026-04-15T12:32:25Z</time></trkpt><trkpt lat="36.97054364372207" lon="15.032455809797042"><ele>438.0</ele><time>2026-04-15T12:32:26Z</time></trkpt><trkpt lat="36.97052769881971" lon="15.032581877035586"><ele>438.0</ele><time>2026-04-15T12:32:27Z</time></trkpt><trkpt lat="36.97049183271655" lon="15.032676787040204"><ele>439.2</ele><time>2026-04-15T12:32:28Z</time></trkpt><trkpt lat="36.97042292604513" lon="15.032736026498487"><ele>440.4</ele><time>2026-04-15T12:32:29Z</time></trkpt><trkpt lat="36.9703380087457" lon="15.032767106865041"><ele>441.59999999999997</ele><time>2026-04-15T12:32:30Z</time></trkpt><trkpt lat="36.9702392045592" lon="15.032808062455853"><ele>442.79999999999995</ele><time>2026-04-15T12:32:31Z</time></trkpt><trkpt lat="36.970134985345275" lon="15.032857850492631"><ele>444.0</ele><time>2026-04-15T12:32:32Z</time></trkpt><trkpt lat="36.97003192996783" lon="15.032914240507438"><ele>442.79999999999995</ele><time>2026-04-15T12:32:33Z</time></trkpt><trkpt lat="36.969923763272966" lon="15.03297618702191"><ele>441.59999999999997</ele><time>2026-04-15T12:32:34Z</time></trkpt><trkpt lat="36.96982329723632" lon="15.033046898135904"><ele>440.4</ele><time>2026-04-15T12:32:35Z</time></trkpt><trkpt lat="36.969747769334504" lon="15.03312026368107"><ele>439.2</ele><time>2026-04-15T12:32:36Z</time></trkpt><trkpt lat="36.969697775338304" lon="15.033188796880088"><ele>438.0</ele><time>2026-04-15T12:32:37Z</time></trkpt><trkpt lat="36.96964383516906" lon="15.033266402519256"><ele>438.79999999999995</ele><time>2026-04-15T12:32:40Z</time></trkpt><trkpt lat="36.969529422859225" lon="15.033318505370234"><ele>439.59999999999997</ele><time>2026-04-15T12:32:41.999Z</time></trkpt><trkpt lat="36.96944991886702" lon="15.033346354494777"><ele>440.40000000000003</ele><time>2026-04-15T12:32:42.999Z</time></trkpt><trkpt lat="36.96937242591535" lon="15.033372527226648"><ele>441.20000000000005</ele><time>2026-04-15T12:32:43.999Z</time></trkpt><trkpt lat="36.969275020885995" lon="15.033412801835762"><ele>442.0</ele><time>2026-04-15T12:32:44.999Z</time></trkpt><trkpt lat="36.969164099446054" lon="15.033457678627732"><ele>442.0</ele><time>2026-04-15T12:32:45.999Z</time></trkpt><trkpt lat="36.969039634720495" lon="15.033503277658966"><ele>442.0</ele><time>2026-04-15T12:32:46.999Z</time></trkpt><trkpt lat="36.96891645466104" lon="15.033546498923132"><ele>442.0</ele><time>2026-04-15T12:32:47.999Z</time></trkpt><trkpt lat="36.9687868203488" lon="15.033592698567636"><ele>442.0</ele><time>2026-04-15T12:32:48.999Z</time></trkpt><trkpt lat="36.96864777178351" lon="15.033641982152501"><ele>442.0</ele><time>2026-04-15T12:32:49.999Z</time></trkpt><trkpt lat="36.96850352131724" lon="15.0336924807883"><ele>442.0</ele><time>2026-04-15T12:32:50.999Z</time></trkpt><trkpt lat="36.96834977522787" lon="15.033738170008176"><ele>442.0</ele><time>2026-04-15T12:32:51.999Z</time></trkpt><trkpt lat="36.96817949714139" lon="15.033785266527923"><ele>441.6666666666667</ele><time>2026-04-15T12:32:52.999Z</time></trkpt><trkpt lat="36.967997998784625" lon="15.033835569269874"><ele>441.33333333333337</ele><time>2026-04-15T12:32:53.999Z</time></trkpt><trkpt lat="36.967803279439465" lon="15.033893474660465"><ele>441.0</ele><time>2026-04-15T12:32:54.999Z</time></trkpt><trkpt lat="36.96759739850044" lon="15.033954748177607"><ele>440.0</ele><time>2026-04-15T12:32:55.999Z</time></trkpt><trkpt lat="36.96738684579149" lon="15.034011281000462"><ele>439.0</ele><time>2026-04-15T12:32:56.999Z</time></trkpt><trkpt lat="36.967183956036905" lon="15.034062349728245"><ele>438.0</ele><time>2026-04-15T12:32:57.999Z</time></trkpt><trkpt lat="36.96698367025174" lon="15.0341042945041"><ele>438.0</ele><time>2026-04-15T12:32:58.999Z</time></trkpt><trkpt lat="36.966785474147045" lon="15.034146561883476"><ele>438.0</ele><time>2026-04-15T12:32:59.999Z</time></trkpt><trkpt lat="36.96660065203382" lon="15.034187095102482"><ele>438.0</ele><time>2026-04-15T12:33:00.999Z</time></trkpt><trkpt lat="36.96642517369197" lon="15.034224132898935"><ele>438.0</ele><time>2026-04-15T12:33:01.999Z</time></trkpt><trkpt lat="36.966256807316555" lon="15.034264609286224"><ele>438.0</ele><time>2026-04-15T12:33:02.999Z</time></trkpt><trkpt lat="36.96610482009803" lon="15.03429670299687"><ele>438.0</ele><time>2026-04-15T12:33:03.999Z</time></trkpt><trkpt lat="36.96595698821848" lon="15.0343217231284"><ele>438.0</ele><time>2026-04-15T12:33:04.999Z</time></trkpt><trkpt lat="36.965807684937595" lon="15.034322157528255"><ele>438.0</ele><time>2026-04-15T12:33:05.999Z</time></trkpt><trkpt lat="36.965658537498186" lon="15.034289958204596"><ele>438.0</ele><time>2026-04-15T12:33:06.999Z</time></trkpt><trkpt lat="36.96549759284007" lon="15.034216396436252"><ele>437.0</ele><time>2026-04-15T12:33:07.999Z</time></trkpt><trkpt lat="36.96532415801557" lon="15.034134846818748"><ele>436.0</ele><time>2026-04-15T12:33:08.999Z</time></trkpt><trkpt lat="36.965153201725165" lon="15.034059257547781"><ele>435.0</ele><time>2026-04-15T12:33:09.999Z</time></trkpt><trkpt lat="36.96499125523212" lon="15.033990794547218"><ele>435.0</ele><time>2026-04-15T12:33:10.999Z</time></trkpt><trkpt lat="36.964837550499105" lon="15.033931436738047"><ele>435.0</ele><time>2026-04-15T12:33:11.999Z</time></trkpt><trkpt lat="36.964689888683665" lon="15.03389503091935"><ele>435.0</ele><time>2026-04-15T12:33:12.999Z</time></trkpt><trkpt lat="36.964535990613825" lon="15.033913395512291"><ele>435.0</ele><time>2026-04-15T12:33:13.999Z</time></trkpt><trkpt lat="36.964399289577656" lon="15.033979017666736"><ele>435.0</ele><time>2026-04-15T12:33:14.999Z</time></trkpt><trkpt lat="36.964274662423364" lon="15.034104634231912"><ele>435.0</ele><time>2026-04-15T12:33:15.999Z</time></trkpt><trkpt lat="36.96415395382267" lon="15.034241439435917"><ele>433.66666666666663</ele><time>2026-04-15T12:33:16.999Z</time></trkpt><trkpt lat="36.964032270073496" lon="15.034389285045313"><ele>432.3333333333333</ele><time>2026-04-15T12:33:17.999Z</time></trkpt><trkpt lat="36.96391010015269" lon="15.034546552864118"><ele>431.0</ele><time>2026-04-15T12:33:18.999Z</time></trkpt><trkpt lat="36.96379434353224" lon="15.034727260911831"><ele>431.0</ele><time>2026-04-15T12:33:19.999Z</time></trkpt><trkpt lat="36.9636875486174" lon="15.034934943096728"><ele>431.0</ele><time>2026-04-15T12:33:20.999Z</time></trkpt><trkpt lat="36.96358341613998" lon="15.03515616686524"><ele>431.0</ele><time>2026-04-15T12:33:21.999Z</time></trkpt><trkpt lat="36.96347341070719" lon="15.035376535537008"><ele>428.3333333333333</ele><time>2026-04-15T12:33:22.999Z</time></trkpt><trkpt lat="36.96336056373014" lon="15.03560202119191"><ele>425.66666666666663</ele><time>2026-04-15T12:33:23.999Z</time></trkpt><trkpt lat="36.9632463213899" lon="15.035833821505856"><ele>423.0</ele><time>2026-04-15T12:33:24.999Z</time></trkpt><trkpt lat="36.96312768174571" lon="15.03606974946346"><ele>422.66666666666663</ele><time>2026-04-15T12:33:25.999Z</time></trkpt><trkpt lat="36.963014257979815" lon="15.036299954534725"><ele>422.3333333333333</ele><time>2026-04-15T12:33:26.999Z</time></trkpt><trkpt lat="36.96291124921458" lon="15.036523093377314"><ele>422.0</ele><time>2026-04-15T12:33:27.999Z</time></trkpt><trkpt lat="36.962812440140915" lon="15.036733007589133"><ele>421.66666666666663</ele><time>2026-04-15T12:33:28.999Z</time></trkpt><trkpt lat="36.96270868307106" lon="15.036928177933914"><ele>421.33333333333337</ele><time>2026-04-15T12:33:29.999Z</time></trkpt><trkpt lat="36.96258849390559" lon="15.037091051581545"><ele>421.0</ele><time>2026-04-15T12:33:30.999Z</time></trkpt><trkpt lat="36.96243827454772" lon="15.037206646386569"><ele>418.33333333333337</ele><time>2026-04-15T12:33:31.999Z</time></trkpt><trkpt lat="36.96225880988862" lon="15.03727780483488"><ele>415.66666666666663</ele><time>2026-04-15T12:33:32.999Z</time></trkpt><trkpt lat="36.9620781841251" lon="15.037348186575635"><ele>413.0</ele><time>2026-04-15T12:33:33.999Z</time></trkpt><trkpt lat="36.96188407906332" lon="15.03743255960825"><ele>412.0</ele><time>2026-04-15T12:33:34.999Z</time></trkpt><trkpt lat="36.961688928631276" lon="15.037518490886002"><ele>411.0</ele><time>2026-04-15T12:33:35.999Z</time></trkpt><trkpt lat="36.961488795578866" lon="15.037604054598138"><ele>410.0</ele><time>2026-04-15T12:33:36.999Z</time></trkpt><trkpt lat="36.96128325672576" lon="15.037692653929668"><ele>410.0</ele><time>2026-04-15T12:33:37.999Z</time></trkpt><trkpt lat="36.961078379911264" lon="15.037778927484368"><ele>410.0</ele><time>2026-04-15T12:33:38.999Z</time></trkpt><trkpt lat="36.9608809378949" lon="15.037861673089832"><ele>410.0</ele><time>2026-04-15T12:33:39.999Z</time></trkpt><trkpt lat="36.96069154510137" lon="15.037942312362814"><ele>408.0</ele><time>2026-04-15T12:33:40.999Z</time></trkpt><trkpt lat="36.960511568900856" lon="15.038015689538737"><ele>406.0</ele><time>2026-04-15T12:33:41.999Z</time></trkpt><trkpt lat="36.96033448970807" lon="15.038050200309826"><ele>404.0</ele><time>2026-04-15T12:33:42.999Z</time></trkpt><trkpt lat="36.96015316824506" lon="15.038035378984677"><ele>401.66666666666663</ele><time>2026-04-15T12:33:43.999Z</time></trkpt><trkpt lat="36.95997016777466" lon="15.038009014127447"><ele>399.33333333333337</ele><time>2026-04-15T12:33:44.999Z</time></trkpt><trkpt lat="36.95977745336681" lon="15.037977523427761"><ele>397.0</ele><time>2026-04-15T12:33:45.999Z</time></trkpt><trkpt lat="36.95957876156341" lon="15.03794253456826"><ele>397.0</ele><time>2026-04-15T12:33:46.999Z</time></trkpt><trkpt lat="36.95939368183814" lon="15.037905568634446"><ele>397.0</ele><time>2026-04-15T12:33:47.999Z</time></trkpt><trkpt lat="36.959219571813136" lon="15.037878606306833"><ele>397.0</ele><time>2026-04-15T12:33:48.999Z</time></trkpt><trkpt lat="36.95904577991484" lon="15.037879980768547"><ele>395.6666666666667</ele><time>2026-04-15T12:33:49.999Z</time></trkpt><trkpt lat="36.9588743108512" lon="15.037919091354734"><ele>394.33333333333337</ele><time>2026-04-15T12:33:50.999Z</time></trkpt><trkpt lat="36.9586958870808" lon="15.037989123097866"><ele>393.0</ele><time>2026-04-15T12:33:52Z</time></trkpt><trkpt lat="36.95851284195509" lon="15.038076459417727"><ele>393.0</ele><time>2026-04-15T12:33:53Z</time></trkpt><trkpt lat="36.958325116000275" lon="15.038193073961304"><ele>393.0</ele><time>2026-04-15T12:33:54Z</time></trkpt><trkpt lat="36.95812639630409" lon="15.03833503059794"><ele>393.0</ele><time>2026-04-15T12:33:55Z</time></trkpt><trkpt lat="36.95792768195569" lon="15.038477118431253"><ele>393.0</ele><time>2026-04-15T12:33:56Z</time></trkpt><trkpt lat="36.95772811484006" lon="15.038629435355764"><ele>393.0</ele><time>2026-04-15T12:33:57Z</time></trkpt><trkpt lat="36.957519276034056" lon="15.038799864074836"><ele>390.5</ele><time>2026-04-15T12:33:58Z</time></trkpt><trkpt lat="36.957303333895354" lon="15.038977124744227"><ele>388.0</ele><time>2026-04-15T12:33:59Z</time></trkpt><trkpt lat="36.95708638103068" lon="15.039154461629332"><ele>388.0</ele><time>2026-04-15T12:34:00Z</time></trkpt><trkpt lat="36.956875819740866" lon="15.039324852444205"><ele>388.0</ele><time>2026-04-15T12:34:01Z</time></trkpt><trkpt lat="36.95666997195093" lon="15.039490846851445"><ele>382.5</ele><time>2026-04-15T12:34:02Z</time></trkpt><trkpt lat="36.95646638705421" lon="15.039654928236299"><ele>377.0</ele><time>2026-04-15T12:34:03Z</time></trkpt><trkpt lat="36.956269194372204" lon="15.039818331242962"><ele>380.5</ele><time>2026-04-15T12:34:04Z</time></trkpt><trkpt lat="36.95607565786061" lon="15.039978208691979"><ele>384.0</ele><time>2026-04-15T12:34:05Z</time></trkpt><trkpt lat="36.95589048125427" lon="15.040128207804692"><ele>380.0</ele><time>2026-04-15T12:34:06Z</time></trkpt><trkpt lat="36.955714700724144" lon="15.040274889362639"><ele>376.0</ele><time>2026-04-15T12:34:07Z</time></trkpt><trkpt lat="36.95555212273384" lon="15.040409633614454"><ele>372.0</ele><time>2026-04-15T12:34:08Z</time></trkpt><trkpt lat="36.955414394348495" lon="15.040541843165238"><ele>372.0</ele><time>2026-04-15T12:34:09Z</time></trkpt><trkpt lat="36.9553061561809" lon="15.04070540523854"><ele>372.0</ele><time>2026-04-15T12:34:10Z</time></trkpt><trkpt lat="36.9552364922676" lon="15.040897673434634"><ele>372.0</ele><time>2026-04-15T12:34:11Z</time></trkpt><trkpt lat="36.9551794932412" lon="15.04110383723175"><ele>374.6666666666667</ele><time>2026-04-15T12:34:12Z</time></trkpt><trkpt lat="36.95512134694107" lon="15.041304274593267"><ele>377.33333333333337</ele><time>2026-04-15T12:34:13Z</time></trkpt><trkpt lat="36.955037721682054" lon="15.041485995679393"><ele>380.0</ele><time>2026-04-15T12:34:14Z</time></trkpt><trkpt lat="36.95491588125642" lon="15.041633209364614"><ele>374.6666666666667</ele><time>2026-04-15T12:34:15Z</time></trkpt><trkpt lat="36.954757101354964" lon="15.041753985471345"><ele>369.3333333333333</ele><time>2026-04-15T12:34:16Z</time></trkpt><trkpt lat="36.95458694445516" lon="15.041893834244068"><ele>364.0</ele><time>2026-04-15T12:34:17Z</time></trkpt><trkpt lat="36.95441316000973" lon="15.042052282674385"><ele>364.0</ele><time>2026-04-15T12:34:18Z</time></trkpt><trkpt lat="36.954232649555095" lon="15.04221504302203"><ele>364.0</ele><time>2026-04-15T12:34:19Z</time></trkpt><trkpt lat="36.954054241477465" lon="15.04237560100845"><ele>364.0</ele><time>2026-04-15T12:34:20Z</time></trkpt><trkpt lat="36.953886078379604" lon="15.042571615940377"><ele>362.5</ele><time>2026-04-15T12:34:21Z</time></trkpt><trkpt lat="36.953730675047666" lon="15.04282351554886"><ele>361.0</ele><time>2026-04-15T12:34:22Z</time></trkpt><trkpt lat="36.95357818587317" lon="15.043092106400692"><ele>360.5</ele><time>2026-04-15T12:34:23Z</time></trkpt><trkpt lat="36.95342402422151" lon="15.043345694167984"><ele>360.0</ele><time>2026-04-15T12:34:24Z</time></trkpt><trkpt lat="36.95326612441568" lon="15.0435938917862"><ele>361.0</ele><time>2026-04-15T12:34:25Z</time></trkpt><trkpt lat="36.95311124921628" lon="15.043842592647815"><ele>362.0</ele><time>2026-04-15T12:34:26Z</time></trkpt><trkpt lat="36.95296082001525" lon="15.044089823067889"><ele>361.0</ele><time>2026-04-15T12:34:27Z</time></trkpt><trkpt lat="36.95281322127416" lon="15.044334261033427"><ele>360.0</ele><time>2026-04-15T12:34:28Z</time></trkpt><trkpt lat="36.952662877832616" lon="15.044575470498886"><ele>362.0</ele><time>2026-04-15T12:34:29Z</time></trkpt><trkpt lat="36.952512672910196" lon="15.044819923899567"><ele>364.0</ele><time>2026-04-15T12:34:30Z</time></trkpt><trkpt lat="36.9523577768148" lon="15.045066206843588"><ele>364.0</ele><time>2026-04-15T12:34:31Z</time></trkpt><trkpt lat="36.95220362432903" lon="15.045313862347848"><ele>364.0</ele><time>2026-04-15T12:34:32Z</time></trkpt><trkpt lat="36.952051950828285" lon="15.045559549832726"><ele>364.0</ele><time>2026-04-15T12:34:33Z</time></trkpt><trkpt lat="36.951910826586506" lon="15.045791037725133"><ele>364.0</ele><time>2026-04-15T12:34:34Z</time></trkpt><trkpt lat="36.95178672031359" lon="15.046007019112235"><ele>364.0</ele><time>2026-04-15T12:34:35Z</time></trkpt><trkpt lat="36.951684681013255" lon="15.046178822642187"><ele>364.66666666666663</ele><time>2026-04-15T12:34:36Z</time></trkpt><trkpt lat="36.95158443026226" lon="15.04632973600777"><ele>365.3333333333333</ele><time>2026-04-15T12:34:37Z</time></trkpt><trkpt lat="36.951471682233816" lon="15.046465401799095"><ele>366.0</ele><time>2026-04-15T12:34:38Z</time></trkpt><trkpt lat="36.95133131852247" lon="15.0465725270678"><ele>365.6666666666667</ele><time>2026-04-15T12:34:39Z</time></trkpt><trkpt lat="36.951169807049034" lon="15.046663005677374"><ele>365.33333333333337</ele><time>2026-04-15T12:34:40Z</time></trkpt><trkpt lat="36.95099300146852" lon="15.046769373442949"><ele>365.0</ele><time>2026-04-15T12:34:41Z</time></trkpt><trkpt lat="36.95080893444465" lon="15.046887314473446"><ele>364.6666666666667</ele><time>2026-04-15T12:34:42Z</time></trkpt><trkpt lat="36.95061635250714" lon="15.047011974890468"><ele>364.3333333333333</ele><time>2026-04-15T12:34:43Z</time></trkpt><trkpt lat="36.95042329511661" lon="15.047138010062088"><ele>364.0</ele><time>2026-04-15T12:34:44Z</time></trkpt><trkpt lat="36.95022545668727" lon="15.047269413690055"><ele>362.0</ele><time>2026-04-15T12:34:45Z</time></trkpt><trkpt lat="36.950017446790355" lon="15.047402211054624"><ele>360.0</ele><time>2026-04-15T12:34:46Z</time></trkpt><trkpt lat="36.94980734026122" lon="15.047536383759658"><ele>360.0</ele><time>2026-04-15T12:34:47Z</time></trkpt><trkpt lat="36.94959259097064" lon="15.047671438386654"><ele>360.0</ele><time>2026-04-15T12:34:48Z</time></trkpt><trkpt lat="36.94936832981668" lon="15.04780815912153"><ele>357.5</ele><time>2026-04-15T12:34:49Z</time></trkpt><trkpt lat="36.94914269102901" lon="15.047948932169223"><ele>355.0</ele><time>2026-04-15T12:34:49.999Z</time></trkpt><trkpt lat="36.94891105622935" lon="15.048095860124354"><ele>355.0</ele><time>2026-04-15T12:34:50.999Z</time></trkpt><trkpt lat="36.9486754965161" lon="15.048248290976375"><ele>355.0</ele><time>2026-04-15T12:34:51.999Z</time></trkpt><trkpt lat="36.9484393779671" lon="15.048396065215647"><ele>353.0</ele><time>2026-04-15T12:34:52.999Z</time></trkpt><trkpt lat="36.94820250741191" lon="15.048545007893516"><ele>351.0</ele><time>2026-04-15T12:34:53.999Z</time></trkpt><trkpt lat="36.94796376854281" lon="15.048695398231528"><ele>351.0</ele><time>2026-04-15T12:34:54.999Z</time></trkpt><trkpt lat="36.94772267777985" lon="15.048847105136748"><ele>351.0</ele><time>2026-04-15T12:34:55.999Z</time></trkpt><trkpt lat="36.94748192266383" lon="15.04900079318605"><ele>347.0</ele><time>2026-04-15T12:34:56.999Z</time></trkpt><trkpt lat="36.94724054416855" lon="15.049153956083849"><ele>343.0</ele><time>2026-04-15T12:34:57.999Z</time></trkpt><trkpt lat="36.94700505236579" lon="15.049304026588096"><ele>343.0</ele><time>2026-04-15T12:34:58.999Z</time></trkpt><trkpt lat="36.94678122981825" lon="15.049445624717709"><ele>343.0</ele><time>2026-04-15T12:34:59.999Z</time></trkpt><trkpt lat="36.94656800963198" lon="15.04958218444964"><ele>341.0</ele><time>2026-04-15T12:35:00.999Z</time></trkpt><trkpt lat="36.94636444319882" lon="15.049713007613233"><ele>339.0</ele><time>2026-04-15T12:35:01.999Z</time></trkpt><trkpt lat="36.94617217942482" lon="15.049833964041067"><ele>337.0</ele><time>2026-04-15T12:35:02.999Z</time></trkpt><trkpt lat="36.94598696926253" lon="15.049953279759931"><ele>337.66666666666663</ele><time>2026-04-15T12:35:03.999Z</time></trkpt><trkpt lat="36.94580906862144" lon="15.050074596601325"><ele>338.3333333333333</ele><time>2026-04-15T12:35:04.999Z</time></trkpt><trkpt lat="36.94563998781264" lon="15.050205905476341"><ele>339.0</ele><time>2026-04-15T12:35:05.999Z</time></trkpt><trkpt lat="36.94549042612015" lon="15.050362112397409"><ele>339.0</ele><time>2026-04-15T12:35:06.999Z</time></trkpt><trkpt lat="36.9453579679885" lon="15.050530270505668"><ele>339.0</ele><time>2026-04-15T12:35:07.999Z</time></trkpt><trkpt lat="36.945238717133634" lon="15.05067194994161"><ele>339.0</ele><time>2026-04-15T12:35:08.999Z</time></trkpt><trkpt lat="36.945121720201286" lon="15.050788577405168"><ele>336.25</ele><time>2026-04-15T12:35:09.999Z</time></trkpt><trkpt lat="36.94500275217229" lon="15.0508953129116"><ele>333.5</ele><time>2026-04-15T12:35:10.999Z</time></trkpt><trkpt lat="36.944884249481454" lon="15.050978926612663"><ele>330.75</ele><time>2026-04-15T12:35:11.999Z</time></trkpt><trkpt lat="36.94476665355274" lon="15.051035772817281"><ele>328.0</ele><time>2026-04-15T12:35:12.999Z</time></trkpt><trkpt lat="36.944641535138864" lon="15.051058060971672"><ele>328.0</ele><time>2026-04-15T12:35:13.999Z</time></trkpt><trkpt lat="36.94451109455952" lon="15.051052096199612"><ele>328.0</ele><time>2026-04-15T12:35:14.999Z</time></trkpt><trkpt lat="36.944372593158114" lon="15.051045083897103"><ele>328.0</ele><time>2026-04-15T12:35:15.999Z</time></trkpt><trkpt lat="36.944208457312904" lon="15.051044125601273"><ele>328.0</ele><time>2026-04-15T12:35:16.999Z</time></trkpt><trkpt lat="36.9440217825203" lon="15.051046079931254"><ele>327.66666666666663</ele><time>2026-04-15T12:35:17.999Z</time></trkpt><trkpt lat="36.9438497359563" lon="15.051049258032835"><ele>327.3333333333333</ele><time>2026-04-15T12:35:18.999Z</time></trkpt><trkpt lat="36.94369406556417" lon="15.051044843672887"><ele>327.0</ele><time>2026-04-15T12:35:19.999Z</time></trkpt><trkpt lat="36.943571986664274" lon="15.051025291933385"><ele>327.0</ele><time>2026-04-15T12:35:20.999Z</time></trkpt><trkpt lat="36.94347105506076" lon="15.050990699629853"><ele>327.0</ele><time>2026-04-15T12:35:21.999Z</time></trkpt><trkpt lat="36.9434111391291" lon="15.050917558864267"><ele>327.0</ele><time>2026-04-15T12:35:22.999Z</time></trkpt><trkpt lat="36.94338605920313" lon="15.050816944355148"><ele>327.0</ele><time>2026-04-15T12:35:23.999Z</time></trkpt><trkpt lat="36.94340773663128" lon="15.050702781001867"><ele>327.0</ele><time>2026-04-15T12:35:24.999Z</time></trkpt><trkpt lat="36.94344233512138" lon="15.050590617972716"><ele>327.75</ele><time>2026-04-15T12:35:25.999Z</time></trkpt><trkpt lat="36.94349942233421" lon="15.050462084033127"><ele>328.5</ele><time>2026-04-15T12:35:26.999Z</time></trkpt><trkpt lat="36.943559740537786" lon="15.050326689186248"><ele>329.25</ele><time>2026-04-15T12:35:27.999Z</time></trkpt><trkpt lat="36.943604184041334" lon="15.050193655978706"><ele>330.0</ele><time>2026-04-15T12:35:28.999Z</time></trkpt><trkpt lat="36.94363446865783" lon="15.050069354683176"><ele>329.6666666666667</ele><time>2026-04-15T12:35:29.999Z</time></trkpt><trkpt lat="36.94364243476883" lon="15.049948970579534"><ele>329.3333333333333</ele><time>2026-04-15T12:35:30.999Z</time></trkpt><trkpt lat="36.94360459356939" lon="15.049842285051689"><ele>329.0</ele><time>2026-04-15T12:35:31.999Z</time></trkpt><trkpt lat="36.94353483020612" lon="15.049777333919883"><ele>328.66666666666663</ele><time>2026-04-15T12:35:32.999Z</time></trkpt><trkpt lat="36.94345020386129" lon="15.049790650703692"><ele>328.3333333333333</ele><time>2026-04-15T12:35:33.999Z</time></trkpt><trkpt lat="36.94338649757853" lon="15.049858177696512"><ele>328.0</ele><time>2026-04-15T12:35:34.999Z</time></trkpt><trkpt lat="36.94335068398346" lon="15.04996721125654"><ele>323.75</ele><time>2026-04-15T12:35:35.999Z</time></trkpt><trkpt lat="36.943327713084855" lon="15.050102661837853"><ele>319.5</ele><time>2026-04-15T12:35:36.999Z</time></trkpt><trkpt lat="36.94329279568579" lon="15.050254430111716"><ele>315.25</ele><time>2026-04-15T12:35:37.999Z</time></trkpt><trkpt lat="36.943244821578766" lon="15.050426019841227"><ele>311.0</ele><time>2026-04-15T12:35:38.999Z</time></trkpt><trkpt lat="36.943199797975666" lon="15.050593212167714"><ele>311.0</ele><time>2026-04-15T12:35:39.999Z</time></trkpt><trkpt lat="36.943156223857336" lon="15.050751603069287"><ele>311.0</ele><time>2026-04-15T12:35:40.999Z</time></trkpt><trkpt lat="36.94307928951779" lon="15.050886039684178"><ele>311.0</ele><time>2026-04-15T12:35:41.999Z</time></trkpt><trkpt lat="36.9429722379575" lon="15.050987164279853"><ele>311.0</ele><time>2026-04-15T12:35:42.999Z</time></trkpt><trkpt lat="36.94283395439701" lon="15.051049671356042"><ele>312.0</ele><time>2026-04-15T12:35:43.999Z</time></trkpt><trkpt lat="36.942689723852396" lon="15.051118837961326"><ele>313.0</ele><time>2026-04-15T12:35:44.999Z</time></trkpt><trkpt lat="36.94254622836893" lon="15.051196432400113"><ele>314.0</ele><time>2026-04-15T12:35:45.999Z</time></trkpt><trkpt lat="36.942405418341274" lon="15.051273446411257"><ele>309.75</ele><time>2026-04-15T12:35:46.999Z</time></trkpt><trkpt lat="36.94227651243443" lon="15.05134651872658"><ele>305.5</ele><time>2026-04-15T12:35:47.999Z</time></trkpt><trkpt lat="36.942164492632294" lon="15.051402835740072"><ele>301.25</ele><time>2026-04-15T12:35:48.999Z</time></trkpt><trkpt lat="36.94205835664775" lon="15.051414261866471"><ele>297.0</ele><time>2026-04-15T12:35:49.999Z</time></trkpt><trkpt lat="36.941963453406316" lon="15.051377857789808"><ele>297.0</ele><time>2026-04-15T12:35:50.999Z</time></trkpt><trkpt lat="36.94189366303703" lon="15.05130393037008"><ele>297.0</ele><time>2026-04-15T12:35:51.999Z</time></trkpt><trkpt lat="36.94188043384452" lon="15.051195550983527"><ele>297.0</ele><time>2026-04-15T12:35:52.999Z</time></trkpt><trkpt lat="36.941906939321186" lon="15.051090377925682"><ele>297.0</ele><time>2026-04-15T12:35:53.999Z</time></trkpt><trkpt lat="36.94195371739281" lon="15.050964392019429"><ele>297.0</ele><time>2026-04-15T12:35:54.999Z</time></trkpt><trkpt lat="36.941992492996036" lon="15.050814284636184"><ele>296.2</ele><time>2026-04-15T12:35:55.999Z</time></trkpt><trkpt lat="36.942011608657175" lon="15.050669248654808"><ele>295.4</ele><time>2026-04-15T12:35:56.999Z</time></trkpt><trkpt lat="36.942002914222705" lon="15.050536922648424"><ele>294.6</ele><time>2026-04-15T12:35:58Z</time></trkpt><trkpt lat="36.9419397603118" lon="15.050432850747217"><ele>293.8</ele><time>2026-04-15T12:35:59Z</time></trkpt><trkpt lat="36.94185077594078" lon="15.050376759102484"><ele>293.0</ele><time>2026-04-15T12:36:00Z</time></trkpt><trkpt lat="36.94174059094353" lon="15.050381824880436"><ele>297.33333333333337</ele><time>2026-04-15T12:36:01Z</time></trkpt><trkpt lat="36.94160132917802" lon="15.050383005937064"><ele>301.6666666666667</ele><time>2026-04-15T12:36:02Z</time></trkpt><trkpt lat="36.9414456728797" lon="15.050360229818873"><ele>306.0</ele><time>2026-04-15T12:36:03Z</time></trkpt><trkpt lat="36.941263093619" lon="15.050329260978305"><ele>306.0</ele><time>2026-04-15T12:36:04Z</time></trkpt><trkpt lat="36.941078233328454" lon="15.050301752131544"><ele>306.0</ele><time>2026-04-15T12:36:05Z</time></trkpt><trkpt lat="36.94089292330576" lon="15.050274360572752"><ele>306.0</ele><time>2026-04-15T12:36:06Z</time></trkpt><trkpt lat="36.94073196348547" lon="15.050251241047642"><ele>308.75</ele><time>2026-04-15T12:36:07Z</time></trkpt><trkpt lat="36.9405913074645" lon="15.050248740332751"><ele>311.5</ele><time>2026-04-15T12:36:08Z</time></trkpt><trkpt lat="36.94046869798381" lon="15.050295583351083"><ele>314.25</ele><time>2026-04-15T12:36:09Z</time></trkpt><trkpt lat="36.94037086320774" lon="15.050399671319456"><ele>317.0</ele><time>2026-04-15T12:36:10Z</time></trkpt><trkpt lat="36.940315061953655" lon="15.050548186245605"><ele>317.0</ele><time>2026-04-15T12:36:11Z</time></trkpt><trkpt lat="36.94030366892984" lon="15.050730680554217"><ele>317.0</ele><time>2026-04-15T12:36:12Z</time></trkpt><trkpt lat="36.94029429549517" lon="15.050946580749807"><ele>317.0</ele><time>2026-04-15T12:36:13Z</time></trkpt><trkpt lat="36.940290677005656" lon="15.051161578590063"><ele>320.33333333333337</ele><time>2026-04-15T12:36:14Z</time></trkpt><trkpt lat="36.94030562813437" lon="15.051360168226354"><ele>323.6666666666667</ele><time>2026-04-15T12:36:15Z</time></trkpt><trkpt lat="36.94035241128405" lon="15.05154556149857"><ele>327.0</ele><time>2026-04-15T12:36:16Z</time></trkpt><trkpt lat="36.940435264154395" lon="15.051708676907342"><ele>328.25</ele><time>2026-04-15T12:36:17Z</time></trkpt><trkpt lat="36.94052262495545" lon="15.051863365113167"><ele>329.5</ele><time>2026-04-15T12:36:18Z</time></trkpt><trkpt lat="36.94057439685539" lon="15.052008132563422"><ele>330.75</ele><time>2026-04-15T12:36:19Z</time></trkpt><trkpt lat="36.940566320105646" lon="15.05212548137171"><ele>332.0</ele><time>2026-04-15T12:36:20Z</time></trkpt><trkpt lat="36.94051644473151" lon="15.052201620254795"><ele>332.0</ele><time>2026-04-15T12:36:21Z</time></trkpt><trkpt lat="36.94044374662985" lon="15.052244836633225"><ele>332.0</ele><time>2026-04-15T12:36:22Z</time></trkpt><trkpt lat="36.940359410216544" lon="15.052301562161539"><ele>332.0</ele><time>2026-04-15T12:36:23Z</time></trkpt><trkpt lat="36.94025616138872" lon="15.0523834891743"><ele>332.0</ele><time>2026-04-15T12:36:24Z</time></trkpt><trkpt lat="36.940160165628804" lon="15.05248374286208"><ele>332.0</ele><time>2026-04-15T12:36:25Z</time></trkpt><trkpt lat="36.940066456227875" lon="15.05259550245065"><ele>330.33333333333337</ele><time>2026-04-15T12:36:26Z</time></trkpt><trkpt lat="36.93997017818297" lon="15.05272605360592"><ele>328.6666666666667</ele><time>2026-04-15T12:36:27Z</time></trkpt><trkpt lat="36.93985937928546" lon="15.05290246367548"><ele>327.0</ele><time>2026-04-15T12:36:28Z</time></trkpt><trkpt lat="36.93971521782374" lon="15.05311127235669"><ele>333.5</ele><time>2026-04-15T12:36:29Z</time></trkpt><trkpt lat="36.93953488147687" lon="15.053344876785722"><ele>340.0</ele><time>2026-04-15T12:36:30Z</time></trkpt><trkpt lat="36.93936196722855" lon="15.05357787618182"><ele>338.0</ele><time>2026-04-15T12:36:31Z</time></trkpt><trkpt lat="36.93917309920089" lon="15.053866842702583"><ele>336.0</ele><time>2026-04-15T12:36:32Z</time></trkpt><trkpt lat="36.93897844144098" lon="15.054165338712307"><ele>336.0</ele><time>2026-04-15T12:36:33Z</time></trkpt><trkpt lat="36.9387611824093" lon="15.05444275885312"><ele>336.0</ele><time>2026-04-15T12:36:34Z</time></trkpt><trkpt lat="36.93852321070357" lon="15.054694100736008"><ele>336.0</ele><time>2026-04-15T12:36:35Z</time></trkpt><trkpt lat="36.938441704639" lon="15.054699915740944"><ele>336.0</ele><time>2026-04-15T12:36:36Z</time></trkpt><trkpt lat="36.93823253442391" lon="15.054847291757351"><ele>336.0</ele><time>2026-04-15T12:36:37Z</time></trkpt><trkpt lat="36.93804158496239" lon="15.054986230445929"><ele>335.6666666666667</ele><time>2026-04-15T12:36:38Z</time></trkpt><trkpt lat="36.93787204962217" lon="15.05513580576073"><ele>335.33333333333337</ele><time>2026-04-15T12:36:39Z</time></trkpt><trkpt lat="36.93772069151978" lon="15.055308178037567"><ele>335.0</ele><time>2026-04-15T12:36:40Z</time></trkpt><trkpt lat="36.93758894696132" lon="15.055510703917768"><ele>333.0</ele><time>2026-04-15T12:36:41Z</time></trkpt><trkpt lat="36.937459475337135" lon="15.055748890272206"><ele>331.0</ele><time>2026-04-15T12:36:42Z</time></trkpt><trkpt lat="36.937335609291054" lon="15.055989908533066"><ele>331.0</ele><time>2026-04-15T12:36:43Z</time></trkpt><trkpt lat="36.93720456089447" lon="15.056229671187847"><ele>331.0</ele><time>2026-04-15T12:36:44Z</time></trkpt><trkpt lat="36.93706785441686" lon="15.05646405601184"><ele>332.5</ele><time>2026-04-15T12:36:45Z</time></trkpt><trkpt lat="36.93692963852848" lon="15.056703838454107"><ele>334.0</ele><time>2026-04-15T12:36:46Z</time></trkpt><trkpt lat="36.93678736260932" lon="15.056943689662617"><ele>330.5</ele><time>2026-04-15T12:36:47Z</time></trkpt><trkpt lat="36.93664683006137" lon="15.057191937774054"><ele>327.0</ele><time>2026-04-15T12:36:48Z</time></trkpt><trkpt lat="36.936515207370924" lon="15.057421840477675"><ele>327.0</ele><time>2026-04-15T12:36:49Z</time></trkpt><trkpt lat="36.936390703628504" lon="15.057628654494316"><ele>327.0</ele><time>2026-04-15T12:36:50Z</time></trkpt><trkpt lat="36.93627693637375" lon="15.057829370953787"><ele>327.0</ele><time>2026-04-15T12:36:51Z</time></trkpt><trkpt lat="36.9361693723693" lon="15.058015454730295"><ele>327.0</ele><time>2026-04-15T12:36:52Z</time></trkpt><trkpt lat="36.936068793401766" lon="15.058202007201855"><ele>327.0</ele><time>2026-04-15T12:36:53Z</time></trkpt><trkpt lat="36.935960499552245" lon="15.058394993006024"><ele>327.0</ele><time>2026-04-15T12:36:54Z</time></trkpt><trkpt lat="36.93583113107148" lon="15.058575739494964"><ele>326.6666666666667</ele><time>2026-04-15T12:36:55Z</time></trkpt><trkpt lat="36.93568488771315" lon="15.058752208381728"><ele>326.33333333333337</ele><time>2026-04-15T12:36:56Z</time></trkpt><trkpt lat="36.935521280738485" lon="15.058937383030791"><ele>326.0</ele><time>2026-04-15T12:36:57Z</time></trkpt><trkpt lat="36.935364205716304" lon="15.059136042266774"><ele>326.0</ele><time>2026-04-15T12:36:58Z</time></trkpt><trkpt lat="36.93521285262201" lon="15.059330512174869"><ele>326.0</ele><time>2026-04-15T12:36:58.999Z</time></trkpt><trkpt lat="36.9350762038076" lon="15.059518390014015"><ele>326.0</ele><time>2026-04-15T12:36:59.999Z</time></trkpt><trkpt lat="36.9349398278341" lon="15.059707190022726"><ele>324.33333333333337</ele><time>2026-04-15T12:37:00.999Z</time></trkpt><trkpt lat="36.93481046186508" lon="15.059883315799265"><ele>322.6666666666667</ele><time>2026-04-15T12:37:01.999Z</time></trkpt><trkpt lat="36.93469311291641" lon="15.060050819948064"><ele>321.0</ele><time>2026-04-15T12:37:02.999Z</time></trkpt><trkpt lat="36.934570589663565" lon="15.060218203075962"><ele>321.0</ele><time>2026-04-15T12:37:03.999Z</time></trkpt><trkpt lat="36.93445372503925" lon="15.060372412224083"><ele>321.0</ele><time>2026-04-15T12:37:04.999Z</time></trkpt><trkpt lat="36.93435381864034" lon="15.060520845996548"><ele>321.0</ele><time>2026-04-15T12:37:05.999Z</time></trkpt><trkpt lat="36.934276112835846" lon="15.060686449389634"><ele>322.0</ele><time>2026-04-15T12:37:06.999Z</time></trkpt><trkpt lat="36.934239317750134" lon="15.060870200068493"><ele>323.0</ele><time>2026-04-15T12:37:07.999Z</time></trkpt><trkpt lat="36.93423999845668" lon="15.061074296850999"><ele>324.0</ele><time>2026-04-15T12:37:08.999Z</time></trkpt><trkpt lat="36.93424125363109" lon="15.061305215131148"><ele>324.0</ele><time>2026-04-15T12:37:09.999Z</time></trkpt><trkpt lat="36.934225339342845" lon="15.061553245469975"><ele>324.0</ele><time>2026-04-15T12:37:10.999Z</time></trkpt><trkpt lat="36.93419027354233" lon="15.061785927157056"><ele>324.0</ele><time>2026-04-15T12:37:11.999Z</time></trkpt><trkpt lat="36.934130991119346" lon="15.061998704339649"><ele>320.6666666666667</ele><time>2026-04-15T12:37:12.999Z</time></trkpt><trkpt lat="36.93406782503376" lon="15.062198874011798"><ele>317.33333333333337</ele><time>2026-04-15T12:37:13.999Z</time></trkpt><trkpt lat="36.93402788568658" lon="15.062395811430559"><ele>314.0</ele><time>2026-04-15T12:37:14.999Z</time></trkpt><trkpt lat="36.934005907677246" lon="15.06257596984696"><ele>314.0</ele><time>2026-04-15T12:37:15.999Z</time></trkpt><trkpt lat="36.93397754048666" lon="15.062740474001668"><ele>314.0</ele><time>2026-04-15T12:37:16.999Z</time></trkpt><trkpt lat="36.93393047016123" lon="15.062879030420792"><ele>314.0</ele><time>2026-04-15T12:37:17.999Z</time></trkpt><trkpt lat="36.93386360056683" lon="15.062998021560018"><ele>314.0</ele><time>2026-04-15T12:37:18.999Z</time></trkpt><trkpt lat="36.93379663914787" lon="15.06309416540254"><ele>314.0</ele><time>2026-04-15T12:37:19.999Z</time></trkpt><trkpt lat="36.93372210820155" lon="15.063157889338289"><ele>314.0</ele><time>2026-04-15T12:37:20.999Z</time></trkpt><trkpt lat="36.933644861430075" lon="15.063164436891704"><ele>314.0</ele><time>2026-04-15T12:37:21.999Z</time></trkpt><trkpt lat="36.93356841677156" lon="15.06314707323964"><ele>314.0</ele><time>2026-04-15T12:37:22.999Z</time></trkpt><trkpt lat="36.93352150357721" lon="15.06308330790517"><ele>314.0</ele><time>2026-04-15T12:37:23.999Z</time></trkpt><trkpt lat="36.93349092819179" lon="15.063002247895156"><ele>314.0</ele><time>2026-04-15T12:37:24.999Z</time></trkpt><trkpt lat="36.93346389675362" lon="15.062894067267491"><ele>314.0</ele><time>2026-04-15T12:37:25.999Z</time></trkpt><trkpt lat="36.93346703523396" lon="15.062753488896066"><ele>314.0</ele><time>2026-04-15T12:37:26.999Z</time></trkpt><trkpt lat="36.93350425107627" lon="15.062610831160715"><ele>314.0</ele><time>2026-04-15T12:37:27.999Z</time></trkpt><trkpt lat="36.933524875043375" lon="15.062483341336197"><ele>314.0</ele><time>2026-04-15T12:37:28.999Z</time></trkpt><trkpt lat="36.93351131508752" lon="15.062351405141744"><ele>314.0</ele><time>2026-04-15T12:37:29.999Z</time></trkpt><trkpt lat="36.93349777076248" lon="15.062214757444101"><ele>313.1666666666667</ele><time>2026-04-15T12:37:30.999Z</time></trkpt><trkpt lat="36.93348953177939" lon="15.062099768023726"><ele>312.33333333333337</ele><time>2026-04-15T12:37:31.999Z</time></trkpt><trkpt lat="36.933481447568624" lon="15.061995917606735"><ele>311.5</ele><time>2026-04-15T12:37:32.999Z</time></trkpt><trkpt lat="36.93347259633018" lon="15.061891424340606"><ele>310.6666666666667</ele><time>2026-04-15T12:37:33.999Z</time></trkpt><trkpt lat="36.93345914043565" lon="15.061785276570548"><ele>309.8333333333333</ele><time>2026-04-15T12:37:34.999Z</time></trkpt><trkpt lat="36.933426006301495" lon="15.061682528421033"><ele>309.0</ele><time>2026-04-15T12:37:35.999Z</time></trkpt><trkpt lat="36.93337058876572" lon="15.061590295603908"><ele>306.8</ele><time>2026-04-15T12:37:36.999Z</time></trkpt><trkpt lat="36.93330049655425" lon="15.061512032610558"><ele>304.59999999999997</ele><time>2026-04-15T12:37:37.999Z</time></trkpt><trkpt lat="36.93322303067342" lon="15.06142817248669"><ele>302.4</ele><time>2026-04-15T12:37:38.999Z</time></trkpt><trkpt lat="36.93313451226626" lon="15.061370181230798"><ele>300.2</ele><time>2026-04-15T12:37:39.999Z</time></trkpt><trkpt lat="36.93303835935566" lon="15.061351126697202"><ele>298.0</ele><time>2026-04-15T12:37:40.999Z</time></trkpt><trkpt lat="36.93293935777556" lon="15.061380761623102"><ele>298.0</ele><time>2026-04-15T12:37:41.999Z</time></trkpt><trkpt lat="36.93285303822427" lon="15.061441240528293"><ele>298.0</ele><time>2026-04-15T12:37:42.999Z</time></trkpt><trkpt lat="36.93276678219485" lon="15.061519370954498"><ele>298.0</ele><time>2026-04-15T12:37:43.999Z</time></trkpt><trkpt lat="36.93267576227961" lon="15.061574005055114"><ele>298.0</ele><time>2026-04-15T12:37:44.999Z</time></trkpt><trkpt lat="36.932575688536495" lon="15.06161168508868"><ele>298.0</ele><time>2026-04-15T12:37:45.999Z</time></trkpt><trkpt lat="36.93246957632942" lon="15.06163516921103"><ele>301.2</ele><time>2026-04-15T12:37:46.999Z</time></trkpt><trkpt lat="36.932363266511366" lon="15.061655527501728"><ele>304.4</ele><time>2026-04-15T12:37:47.999Z</time></trkpt><trkpt lat="36.93225177016315" lon="15.061677611357293"><ele>307.59999999999997</ele><time>2026-04-15T12:37:48.999Z</time></trkpt><trkpt lat="36.932143123573866" lon="15.061712556736419"><ele>310.8</ele><time>2026-04-15T12:37:49.999Z</time></trkpt><trkpt lat="36.93203569728369" lon="15.061759234518648"><ele>314.0</ele><time>2026-04-15T12:37:50.999Z</time></trkpt><trkpt lat="36.93192545994507" lon="15.061807738721539"><ele>314.0</ele><time>2026-04-15T12:37:51.999Z</time></trkpt><trkpt lat="36.93181118165137" lon="15.061856575529273"><ele>314.0</ele><time>2026-04-15T12:37:52.999Z</time></trkpt><trkpt lat="36.93169881949007" lon="15.061906594992767"><ele>314.0</ele><time>2026-04-15T12:37:53.999Z</time></trkpt><trkpt lat="36.93158734350481" lon="15.061969003923272"><ele>314.0</ele><time>2026-04-15T12:37:54.999Z</time></trkpt><trkpt lat="36.93147821440598" lon="15.062054510479477"><ele>312.75</ele><time>2026-04-15T12:37:55.999Z</time></trkpt><trkpt lat="36.93136821118988" lon="15.062134685331255"><ele>311.5</ele><time>2026-04-15T12:37:56.999Z</time></trkpt><trkpt lat="36.93125980975104" lon="15.06222634605943"><ele>310.25</ele><time>2026-04-15T12:37:57.999Z</time></trkpt><trkpt lat="36.93114810211518" lon="15.062319714434905"><ele>309.0</ele><time>2026-04-15T12:37:58.999Z</time></trkpt><trkpt lat="36.93103923785806" lon="15.062432674153948"><ele>312.25</ele><time>2026-04-15T12:37:59.999Z</time></trkpt><trkpt lat="36.93092984318436" lon="15.062551794764554"><ele>315.5</ele><time>2026-04-15T12:38:00.999Z</time></trkpt><trkpt lat="36.930828408592205" lon="15.062680974384616"><ele>318.75</ele><time>2026-04-15T12:38:01.999Z</time></trkpt><trkpt lat="36.9307221607492" lon="15.062806155146847"><ele>322.0</ele><time>2026-04-15T12:38:02.999Z</time></trkpt><trkpt lat="36.93060832417415" lon="15.062922664845425"><ele>322.0</ele><time>2026-04-15T12:38:04Z</time></trkpt><trkpt lat="36.93050176178691" lon="15.063041547368853"><ele>322.0</ele><time>2026-04-15T12:38:05Z</time></trkpt><trkpt lat="36.930397577360075" lon="15.063164317959215"><ele>322.0</ele><time>2026-04-15T12:38:06Z</time></trkpt><trkpt lat="36.93029112031613" lon="15.063284252414366"><ele>322.0</ele><time>2026-04-15T12:38:07Z</time></trkpt><trkpt lat="36.93018870745312" lon="15.06339941086615"><ele>322.75</ele><time>2026-04-15T12:38:08Z</time></trkpt><trkpt lat="36.93008906695617" lon="15.063512712310944"><ele>323.5</ele><time>2026-04-15T12:38:09Z</time></trkpt><trkpt lat="36.929999149983644" lon="15.063619098298568"><ele>324.25</ele><time>2026-04-15T12:38:10Z</time></trkpt><trkpt lat="36.92991329275433" lon="15.06371718156291"><ele>325.0</ele><time>2026-04-15T12:38:11Z</time></trkpt><trkpt lat="36.92982417755097" lon="15.06381353874179"><ele>325.0</ele><time>2026-04-15T12:38:12Z</time></trkpt><trkpt lat="36.92974054815702" lon="15.063906466325353"><ele>325.0</ele><time>2026-04-15T12:38:13Z</time></trkpt><trkpt lat="36.929660412904" lon="15.063995129864926"><ele>325.0</ele><time>2026-04-15T12:38:14Z</time></trkpt><trkpt lat="36.92957701955557" lon="15.064081354224271"><ele>325.0</ele><time>2026-04-15T12:38:15Z</time></trkpt><trkpt lat="36.92949027435647" lon="15.064159226705625"><ele>325.0</ele><time>2026-04-15T12:38:16Z</time></trkpt><trkpt lat="36.929392204056306" lon="15.064216269293693"><ele>325.4</ele><time>2026-04-15T12:38:17Z</time></trkpt><trkpt lat="36.92928681582852" lon="15.064250282447311"><ele>325.8</ele><time>2026-04-15T12:38:18Z</time></trkpt><trkpt lat="36.929177009337266" lon="15.064257705873779"><ele>326.20000000000005</ele><time>2026-04-15T12:38:19Z</time></trkpt><trkpt lat="36.92906855908796" lon="15.064237664652476"><ele>326.6</ele><time>2026-04-15T12:38:20Z</time></trkpt><trkpt lat="36.92896180576502" lon="15.064216673896457"><ele>327.0</ele><time>2026-04-15T12:38:21Z</time></trkpt><trkpt lat="36.928867281991025" lon="15.064195135062562"><ele>327.20000000000005</ele><time>2026-04-15T12:38:22Z</time></trkpt><trkpt lat="36.92877612758872" lon="15.064205572306175"><ele>327.4</ele><time>2026-04-15T12:38:23Z</time></trkpt><trkpt lat="36.92869323532662" lon="15.064241036776242"><ele>327.6</ele><time>2026-04-15T12:38:24Z</time></trkpt><trkpt lat="36.92861558684554" lon="15.06429835045856"><ele>327.79999999999995</ele><time>2026-04-15T12:38:25Z</time></trkpt><trkpt lat="36.92854234804704" lon="15.064373897041744"><ele>328.0</ele><time>2026-04-15T12:38:26Z</time></trkpt><trkpt lat="36.92846887333319" lon="15.064462663478418"><ele>328.4</ele><time>2026-04-15T12:38:27Z</time></trkpt><trkpt lat="36.928387276686166" lon="15.064551198723503"><ele>328.79999999999995</ele><time>2026-04-15T12:38:28Z</time></trkpt><trkpt lat="36.9283004181384" lon="15.064639355274728"><ele>329.2</ele><time>2026-04-15T12:38:29Z</time></trkpt><trkpt lat="36.928213420782" lon="15.06472949945597"><ele>329.6</ele><time>2026-04-15T12:38:30Z</time></trkpt><trkpt lat="36.92812652989648" lon="15.064814999175375"><ele>330.0</ele><time>2026-04-15T12:38:31Z</time></trkpt><trkpt lat="36.92805029104749" lon="15.06489293195183"><ele>330.3333333333333</ele><time>2026-04-15T12:38:32Z</time></trkpt><trkpt lat="36.927975644452104" lon="15.064968128007319"><ele>330.6666666666667</ele><time>2026-04-15T12:38:33Z</time></trkpt><trkpt lat="36.927904472333125" lon="15.06503503037795"><ele>331.0</ele><time>2026-04-15T12:38:34Z</time></trkpt><trkpt lat="36.92784897301534" lon="15.065080934278361"><ele>331.33333333333337</ele><time>2026-04-15T12:38:35Z</time></trkpt><trkpt lat="36.92779248822111" lon="15.065118450038083"><ele>331.6666666666667</ele><time>2026-04-15T12:38:36Z</time></trkpt><trkpt lat="36.927683875653926" lon="15.065152130178685"><ele>332.0</ele><time>2026-04-15T12:38:38Z</time></trkpt><trkpt lat="36.92757622826301" lon="15.065101230359955"><ele>331.5</ele><time>2026-04-15T12:38:40Z</time></trkpt><trkpt lat="36.92752181539751" lon="15.065059485566298"><ele>331.0</ele><time>2026-04-15T12:38:41Z</time></trkpt><trkpt lat="36.9274597175452" lon="15.065001292185375"><ele>330.5</ele><time>2026-04-15T12:38:42Z</time></trkpt><trkpt lat="36.92739218980484" lon="15.064930553890695"><ele>330.0</ele><time>2026-04-15T12:38:43Z</time></trkpt><trkpt lat="36.92733239609011" lon="15.064848770309602"><ele>329.5</ele><time>2026-04-15T12:38:44Z</time></trkpt><trkpt lat="36.92727805594964" lon="15.064771902968147"><ele>329.0</ele><time>2026-04-15T12:38:45Z</time></trkpt><trkpt lat="36.92722304772065" lon="15.064705144910443"><ele>327.79999999999995</ele><time>2026-04-15T12:38:46Z</time></trkpt><trkpt lat="36.92715767366131" lon="15.06464168917372"><ele>326.59999999999997</ele><time>2026-04-15T12:38:47Z</time></trkpt><trkpt lat="36.92708678805412" lon="15.064594089182707"><ele>325.4</ele><time>2026-04-15T12:38:48Z</time></trkpt><trkpt lat="36.92699661717068" lon="15.064550892552003"><ele>324.2</ele><time>2026-04-15T12:38:49Z</time></trkpt><trkpt lat="36.926892029478" lon="15.064527858204439"><ele>323.0</ele><time>2026-04-15T12:38:50Z</time></trkpt><trkpt lat="36.926790032283485" lon="15.064515193188308"><ele>321.4</ele><time>2026-04-15T12:38:51Z</time></trkpt><trkpt lat="36.926698738461134" lon="15.064507178215418"><ele>319.79999999999995</ele><time>2026-04-15T12:38:52Z</time></trkpt><trkpt lat="36.926611583161794" lon="15.064499099084331"><ele>318.2</ele><time>2026-04-15T12:38:53Z</time></trkpt><trkpt lat="36.92652344983109" lon="15.064500704341862"><ele>316.6</ele><time>2026-04-15T12:38:54Z</time></trkpt><trkpt lat="36.9264302013171" lon="15.064524112684392"><ele>315.0</ele><time>2026-04-15T12:38:55Z</time></trkpt><trkpt lat="36.926297816267336" lon="15.064603504139553"><ele>315.0</ele><time>2026-04-15T12:38:56Z</time></trkpt><trkpt lat="36.92612426934688" lon="15.064711830884804"><ele>315.0</ele><time>2026-04-15T12:38:57Z</time></trkpt><trkpt lat="36.925943319785624" lon="15.064792306920438"><ele>315.0</ele><time>2026-04-15T12:38:58Z</time></trkpt><trkpt lat="36.92575181559941" lon="15.064814703817431"><ele>312.3333333333333</ele><time>2026-04-15T12:38:59Z</time></trkpt><trkpt lat="36.92555643669192" lon="15.064779441305648"><ele>309.66666666666663</ele><time>2026-04-15T12:39:00Z</time></trkpt><trkpt lat="36.9253513899586" lon="15.064716151944504"><ele>307.0</ele><time>2026-04-15T12:39:01Z</time></trkpt><trkpt lat="36.92514643248621" lon="15.064640177485034"><ele>305.66666666666663</ele><time>2026-04-15T12:39:02Z</time></trkpt><trkpt lat="36.92494844882591" lon="15.06452151877468"><ele>304.3333333333333</ele><time>2026-04-15T12:39:03Z</time></trkpt><trkpt lat="36.92475619443006" lon="15.064397304374996"><ele>303.0</ele><time>2026-04-15T12:39:04Z</time></trkpt><trkpt lat="36.92456572077105" lon="15.064306797561743"><ele>303.0</ele><time>2026-04-15T12:39:05Z</time></trkpt><trkpt lat="36.92437966543603" lon="15.064242239429387"><ele>303.0</ele><time>2026-04-15T12:39:05.999Z</time></trkpt><trkpt lat="36.92419763317072" lon="15.064182346994551"><ele>303.0</ele><time>2026-04-15T12:39:06.999Z</time></trkpt><trkpt lat="36.92401531176249" lon="15.064152822565246"><ele>302.6666666666667</ele><time>2026-04-15T12:39:07.999Z</time></trkpt><trkpt lat="36.923854121620856" lon="15.064160985835564"><ele>302.33333333333337</ele><time>2026-04-15T12:39:08.999Z</time></trkpt><trkpt lat="36.92369822445206" lon="15.06419063279017"><ele>302.0</ele><time>2026-04-15T12:39:09.999Z</time></trkpt><trkpt lat="36.9235559152789" lon="15.064267284899682"><ele>302.0</ele><time>2026-04-15T12:39:10.999Z</time></trkpt><trkpt lat="36.92342471570633" lon="15.064361207347726"><ele>302.0</ele><time>2026-04-15T12:39:11.999Z</time></trkpt><trkpt lat="36.923281045937266" lon="15.064461905418685"><ele>302.0</ele><time>2026-04-15T12:39:12.999Z</time></trkpt><trkpt lat="36.923128243856404" lon="15.064579808218804"><ele>297.6666666666667</ele><time>2026-04-15T12:39:13.999Z</time></trkpt><trkpt lat="36.92297359956962" lon="15.06469144474859"><ele>293.3333333333333</ele><time>2026-04-15T12:39:14.999Z</time></trkpt><trkpt lat="36.92281036870817" lon="15.06480785272985"><ele>289.0</ele><time>2026-04-15T12:39:15.999Z</time></trkpt><trkpt lat="36.92265421274018" lon="15.06492267791401"><ele>289.3333333333333</ele><time>2026-04-15T12:39:16.999Z</time></trkpt><trkpt lat="36.922506721494194" lon="15.065034875907202"><ele>289.6666666666667</ele><time>2026-04-15T12:39:17.999Z</time></trkpt><trkpt lat="36.922361718891004" lon="15.06514657575477"><ele>290.0</ele><time>2026-04-15T12:39:18.999Z</time></trkpt><trkpt lat="36.92221862544622" lon="15.065251175826674"><ele>290.0</ele><time>2026-04-15T12:39:19.999Z</time></trkpt><trkpt lat="36.92208168167014" lon="15.065350943397226"><ele>290.0</ele><time>2026-04-15T12:39:20.999Z</time></trkpt><trkpt lat="36.92196769129853" lon="15.065444790243735"><ele>290.0</ele><time>2026-04-15T12:39:21.999Z</time></trkpt><trkpt lat="36.92187699334883" lon="15.065566555755609"><ele>290.0</ele><time>2026-04-15T12:39:22.999Z</time></trkpt><trkpt lat="36.92182277467028" lon="15.065709409778838"><ele>289.8</ele><time>2026-04-15T12:39:23.999Z</time></trkpt><trkpt lat="36.92177215621567" lon="15.065816898366387"><ele>289.6</ele><time>2026-04-15T12:39:24.999Z</time></trkpt><trkpt lat="36.92169797078692" lon="15.065872626277802"><ele>289.4</ele><time>2026-04-15T12:39:25.999Z</time></trkpt><trkpt lat="36.92160779942166" lon="15.065875566527254"><ele>289.2</ele><time>2026-04-15T12:39:26.999Z</time></trkpt><trkpt lat="36.92152246553023" lon="15.065822652208345"><ele>289.0</ele><time>2026-04-15T12:39:27.999Z</time></trkpt><trkpt lat="36.921455052427994" lon="15.065751825264805"><ele>289.0</ele><time>2026-04-15T12:39:28.999Z</time></trkpt><trkpt lat="36.921361309165306" lon="15.065727463206455"><ele>289.0</ele><time>2026-04-15T12:39:29.999Z</time></trkpt><trkpt lat="36.92124512080172" lon="15.065762473994017"><ele>289.0</ele><time>2026-04-15T12:39:30.999Z</time></trkpt><trkpt lat="36.92111750411012" lon="15.0658382482057"><ele>289.0</ele><time>2026-04-15T12:39:31.999Z</time></trkpt><trkpt lat="36.92099304236258" lon="15.065895007293113"><ele>285.75</ele><time>2026-04-15T12:39:32.999Z</time></trkpt><trkpt lat="36.92085964025372" lon="15.065913868040163"><ele>282.5</ele><time>2026-04-15T12:39:33.999Z</time></trkpt><trkpt lat="36.920732781578565" lon="15.065880924438845"><ele>279.25</ele><time>2026-04-15T12:39:34.999Z</time></trkpt><trkpt lat="36.92062884129367" lon="15.065796617516275"><ele>276.0</ele><time>2026-04-15T12:39:35.999Z</time></trkpt><trkpt lat="36.92051454521933" lon="15.06574259037365"><ele>276.0</ele><time>2026-04-15T12:39:36.999Z</time></trkpt><trkpt lat="36.920371840214344" lon="15.06575748493718"><ele>276.0</ele><time>2026-04-15T12:39:37.999Z</time></trkpt><trkpt lat="36.92023046217701" lon="15.065789815696762"><ele>276.0</ele><time>2026-04-15T12:39:38.999Z</time></trkpt><trkpt lat="36.92007869626715" lon="15.065816194971875"><ele>276.0</ele><time>2026-04-15T12:39:39.999Z</time></trkpt><trkpt lat="36.91991635370337" lon="15.065847662522206"><ele>274.75</ele><time>2026-04-15T12:39:40.999Z</time></trkpt><trkpt lat="36.91976718234171" lon="15.065883857105831"><ele>273.5</ele><time>2026-04-15T12:39:41.999Z</time></trkpt><trkpt lat="36.919622829182316" lon="15.065913215227262"><ele>272.25</ele><time>2026-04-15T12:39:42.999Z</time></trkpt><trkpt lat="36.91948145017916" lon="15.065891156467309"><ele>271.0</ele><time>2026-04-15T12:39:43.999Z</time></trkpt><trkpt lat="36.919341244330624" lon="15.065816351659137"><ele>266.0</ele><time>2026-04-15T12:39:44.999Z</time></trkpt><trkpt lat="36.91920501135097" lon="15.06573978222425"><ele>261.0</ele><time>2026-04-15T12:39:45.999Z</time></trkpt><trkpt lat="36.91907973865827" lon="15.065663158120257"><ele>256.0</ele><time>2026-04-15T12:39:46.999Z</time></trkpt><trkpt lat="36.91896122691041" lon="15.065592034233427"><ele>251.0</ele><time>2026-04-15T12:39:47.999Z</time></trkpt><trkpt lat="36.91885012386761" lon="15.065525766821546"><ele>251.0</ele><time>2026-04-15T12:39:48.999Z</time></trkpt><trkpt lat="36.918743880395105" lon="15.065464113823593"><ele>251.0</ele><time>2026-04-15T12:39:49.999Z</time></trkpt><trkpt lat="36.9186304807114" lon="15.065415442098587"><ele>251.0</ele><time>2026-04-15T12:39:50.999Z</time></trkpt><trkpt lat="36.91851126473596" lon="15.065387476115548"><ele>251.0</ele><time>2026-04-15T12:39:51.999Z</time></trkpt><trkpt lat="36.9183794962009" lon="15.065382314866511"><ele>251.75</ele><time>2026-04-15T12:39:52.999Z</time></trkpt><trkpt lat="36.91824660247107" lon="15.065381499634254"><ele>252.5</ele><time>2026-04-15T12:39:53.999Z</time></trkpt><trkpt lat="36.91811448407524" lon="15.065386278834834"><ele>253.25</ele><time>2026-04-15T12:39:54.999Z</time></trkpt><trkpt lat="36.917995197358586" lon="15.06539022506715"><ele>254.0</ele><time>2026-04-15T12:39:55.999Z</time></trkpt><trkpt lat="36.9178734600462" lon="15.065397047958879"><ele>254.0</ele><time>2026-04-15T12:39:56.999Z</time></trkpt><trkpt lat="36.917753263959426" lon="15.065412171011001"><ele>254.0</ele><time>2026-04-15T12:39:57.999Z</time></trkpt><trkpt lat="36.91763243646429" lon="15.065420143290904"><ele>254.0</ele><time>2026-04-15T12:39:58.999Z</time></trkpt><trkpt lat="36.91750384754912" lon="15.065427541709514"><ele>254.0</ele><time>2026-04-15T12:39:59.999Z</time></trkpt><trkpt lat="36.91734299675989" lon="15.06543701270879"><ele>250.33333333333334</ele><time>2026-04-15T12:40:00.999Z</time></trkpt><trkpt lat="36.91715997275257" lon="15.065415088205544"><ele>246.66666666666669</ele><time>2026-04-15T12:40:01.999Z</time></trkpt><trkpt lat="36.916962334377246" lon="15.065333403709257"><ele>243.0</ele><time>2026-04-15T12:40:02.999Z</time></trkpt><trkpt lat="36.91676851729845" lon="15.065218973995163"><ele>241.0</ele><time>2026-04-15T12:40:03.999Z</time></trkpt><trkpt lat="36.916581666354965" lon="15.065116702225007"><ele>239.0</ele><time>2026-04-15T12:40:04.999Z</time></trkpt><trkpt lat="36.91638525450885" lon="15.065021042221057"><ele>237.0</ele><time>2026-04-15T12:40:05.999Z</time></trkpt><trkpt lat="36.916183050071375" lon="15.064933082320533"><ele>237.0</ele><time>2026-04-15T12:40:06.999Z</time></trkpt><trkpt lat="36.91594960708507" lon="15.064883089345372"><ele>237.0</ele><time>2026-04-15T12:40:07.999Z</time></trkpt><trkpt lat="36.91572706420679" lon="15.064864830794493"><ele>232.66666666666669</ele><time>2026-04-15T12:40:08.999Z</time></trkpt><trkpt lat="36.915522035858984" lon="15.064852945922164"><ele>228.33333333333334</ele><time>2026-04-15T12:40:10Z</time></trkpt><trkpt lat="36.9153299241853" lon="15.064874627987754"><ele>224.0</ele><time>2026-04-15T12:40:11Z</time></trkpt><trkpt lat="36.91514895530499" lon="15.064934074139682"><ele>229.66666666666669</ele><time>2026-04-15T12:40:12Z</time></trkpt><trkpt lat="36.914969694212765" lon="15.065006781356681"><ele>235.33333333333331</ele><time>2026-04-15T12:40:13Z</time></trkpt><trkpt lat="36.914797100515905" lon="15.065057547932017"><ele>241.0</ele><time>2026-04-15T12:40:14Z</time></trkpt><trkpt lat="36.91461998391539" lon="15.065076368800323"><ele>241.0</ele><time>2026-04-15T12:40:15Z</time></trkpt><trkpt lat="36.91444405443438" lon="15.0650664321173"><ele>241.0</ele><time>2026-04-15T12:40:16Z</time></trkpt><trkpt lat="36.91428428683607" lon="15.065065156319957"><ele>241.0</ele><time>2026-04-15T12:40:17Z</time></trkpt><trkpt lat="36.914131946443995" lon="15.06503925225878"><ele>239.66666666666666</ele><time>2026-04-15T12:40:18Z</time></trkpt><trkpt lat="36.91398705915231" lon="15.064964488962573"><ele>238.33333333333331</ele><time>2026-04-15T12:40:19Z</time></trkpt><trkpt lat="36.9138472499849" lon="15.064871771304986"><ele>237.0</ele><time>2026-04-15T12:40:20Z</time></trkpt><trkpt lat="36.91369845406182" lon="15.064788893560006"><ele>229.66666666666669</ele><time>2026-04-15T12:40:21Z</time></trkpt><trkpt lat="36.913533596940745" lon="15.064731924105706"><ele>222.33333333333334</ele><time>2026-04-15T12:40:22Z</time></trkpt><trkpt lat="36.91335193642307" lon="15.064716365034917"><ele>215.0</ele><time>2026-04-15T12:40:23Z</time></trkpt><trkpt lat="36.913165859652786" lon="15.064743216300672"><ele>215.0</ele><time>2026-04-15T12:40:24Z</time></trkpt><trkpt lat="36.91298329026923" lon="15.064811017736572"><ele>215.0</ele><time>2026-04-15T12:40:25Z</time></trkpt><trkpt lat="36.91281275064499" lon="15.06488191798552"><ele>215.0</ele><time>2026-04-15T12:40:26Z</time></trkpt><trkpt lat="36.91265749349392" lon="15.064962058022203"><ele>217.33333333333334</ele><time>2026-04-15T12:40:27Z</time></trkpt><trkpt lat="36.912525295344345" lon="15.065081777073011"><ele>219.66666666666669</ele><time>2026-04-15T12:40:28Z</time></trkpt><trkpt lat="36.91240097315148" lon="15.065226847501359"><ele>222.0</ele><time>2026-04-15T12:40:29Z</time></trkpt><trkpt lat="36.91227958198154" lon="15.065391771710424"><ele>222.0</ele><time>2026-04-15T12:40:30Z</time></trkpt><trkpt lat="36.91215865915244" lon="15.065576434791415"><ele>222.0</ele><time>2026-04-15T12:40:31Z</time></trkpt><trkpt lat="36.912045236183715" lon="15.06574685503561"><ele>222.0</ele><time>2026-04-15T12:40:32Z</time></trkpt><trkpt lat="36.9119202706033" lon="15.065896210501267"><ele>219.33333333333331</ele><time>2026-04-15T12:40:33Z</time></trkpt><trkpt lat="36.911777524225556" lon="15.066028406245406"><ele>216.66666666666666</ele><time>2026-04-15T12:40:34Z</time></trkpt><trkpt lat="36.9116153572256" lon="15.066144153921012"><ele>214.0</ele><time>2026-04-15T12:40:35Z</time></trkpt><trkpt lat="36.91143920933369" lon="15.066256514933542"><ele>214.0</ele><time>2026-04-15T12:40:36Z</time></trkpt><trkpt lat="36.911261211922884" lon="15.066372866295726"><ele>214.0</ele><time>2026-04-15T12:40:37Z</time></trkpt><trkpt lat="36.91108213533603" lon="15.066498660275416"><ele>214.0</ele><time>2026-04-15T12:40:38Z</time></trkpt><trkpt lat="36.9109105501223" lon="15.066616609549282"><ele>213.66666666666666</ele><time>2026-04-15T12:40:39Z</time></trkpt><trkpt lat="36.9107548077878" lon="15.066738479259095"><ele>213.33333333333331</ele><time>2026-04-15T12:40:40Z</time></trkpt><trkpt lat="36.91062352325976" lon="15.06690002376684"><ele>213.0</ele><time>2026-04-15T12:40:41Z</time></trkpt><trkpt lat="36.9105052666765" lon="15.067114178688104"><ele>213.0</ele><time>2026-04-15T12:40:42Z</time></trkpt><trkpt lat="36.910395159970825" lon="15.067324436322348"><ele>213.0</ele><time>2026-04-15T12:40:43Z</time></trkpt><trkpt lat="36.91028470370501" lon="15.067513206189542"><ele>213.0</ele><time>2026-04-15T12:40:44Z</time></trkpt><trkpt lat="36.91017017730957" lon="15.067683453861447"><ele>211.0</ele><time>2026-04-15T12:40:45Z</time></trkpt><trkpt lat="36.91006177950157" lon="15.067826642556161"><ele>209.0</ele><time>2026-04-15T12:40:46Z</time></trkpt><trkpt lat="36.90994940306091" lon="15.067936922772255"><ele>207.0</ele><time>2026-04-15T12:40:47Z</time></trkpt><trkpt lat="36.90981320640229" lon="15.068016736356775"><ele>207.0</ele><time>2026-04-15T12:40:48Z</time></trkpt><trkpt lat="36.90967349369431" lon="15.068094033372676"><ele>207.0</ele><time>2026-04-15T12:40:49Z</time></trkpt><trkpt lat="36.90951742478159" lon="15.068187233095347"><ele>207.0</ele><time>2026-04-15T12:40:50Z</time></trkpt><trkpt lat="36.909361985091" lon="15.068274815569554"><ele>206.33333333333331</ele><time>2026-04-15T12:40:51Z</time></trkpt><trkpt lat="36.90919991418303" lon="15.06836741998242"><ele>205.66666666666666</ele><time>2026-04-15T12:40:52Z</time></trkpt><trkpt lat="36.90904182809459" lon="15.068461788858258"><ele>205.0</ele><time>2026-04-15T12:40:53Z</time></trkpt><trkpt lat="36.90888792153046" lon="15.068547743258414"><ele>205.0</ele><time>2026-04-15T12:40:54Z</time></trkpt><trkpt lat="36.90873679843743" lon="15.06862876788143"><ele>205.0</ele><time>2026-04-15T12:40:55Z</time></trkpt><trkpt lat="36.90858948839586" lon="15.068701002921955"><ele>205.0</ele><time>2026-04-15T12:40:56Z</time></trkpt><trkpt lat="36.9084300216647" lon="15.06876449523797"><ele>202.0</ele><time>2026-04-15T12:40:57Z</time></trkpt><trkpt lat="36.90825194475475" lon="15.06880994735318"><ele>199.0</ele><time>2026-04-15T12:40:58Z</time></trkpt><trkpt lat="36.908082949444776" lon="15.068832594623291"><ele>196.0</ele><time>2026-04-15T12:40:59Z</time></trkpt><trkpt lat="36.90792515562372" lon="15.068866239755032"><ele>196.0</ele><time>2026-04-15T12:41:00Z</time></trkpt><trkpt lat="36.90777177181273" lon="15.068903556138633"><ele>196.0</ele><time>2026-04-15T12:41:01Z</time></trkpt><trkpt lat="36.90761279781113" lon="15.068937106633305"><ele>196.0</ele><time>2026-04-15T12:41:02Z</time></trkpt><trkpt lat="36.9074512861517" lon="15.068963030132279"><ele>192.66666666666666</ele><time>2026-04-15T12:41:03Z</time></trkpt><trkpt lat="36.90728888712173" lon="15.06898284305829"><ele>189.33333333333331</ele><time>2026-04-15T12:41:04Z</time></trkpt><trkpt lat="36.90712464208721" lon="15.06899502786191"><ele>186.0</ele><time>2026-04-15T12:41:05Z</time></trkpt><trkpt lat="36.906957963980354" lon="15.069001883423303"><ele>186.0</ele><time>2026-04-15T12:41:06Z</time></trkpt><trkpt lat="36.906781851787215" lon="15.069010140921938"><ele>186.0</ele><time>2026-04-15T12:41:07Z</time></trkpt><trkpt lat="36.9066116667023" lon="15.06902198846711"><ele>186.0</ele><time>2026-04-15T12:41:08Z</time></trkpt><trkpt lat="36.90644147109708" lon="15.069035120109692"><ele>185.0</ele><time>2026-04-15T12:41:09Z</time></trkpt><trkpt lat="36.90626305623775" lon="15.069036877962862"><ele>184.0</ele><time>2026-04-15T12:41:09.999Z</time></trkpt><trkpt lat="36.90609471194102" lon="15.06904502715849"><ele>183.0</ele><time>2026-04-15T12:41:10.999Z</time></trkpt><trkpt lat="36.90593602078843" lon="15.0690362222851"><ele>183.33333333333334</ele><time>2026-04-15T12:41:11.999Z</time></trkpt><trkpt lat="36.905772289405" lon="15.06901473580092"><ele>183.66666666666669</ele><time>2026-04-15T12:41:12.999Z</time></trkpt><trkpt lat="36.90560744166795" lon="15.06900453066086"><ele>184.0</ele><time>2026-04-15T12:41:13.999Z</time></trkpt><trkpt lat="36.9054412669801" lon="15.068996324364923"><ele>184.0</ele><time>2026-04-15T12:41:14.999Z</time></trkpt><trkpt lat="36.905272476340315" lon="15.068992943496639"><ele>184.0</ele><time>2026-04-15T12:41:15.999Z</time></trkpt><trkpt lat="36.90509990720324" lon="15.068978941303795"><ele>184.0</ele><time>2026-04-15T12:41:16.999Z</time></trkpt><trkpt lat="36.90493902894016" lon="15.068967361502917"><ele>182.33333333333334</ele><time>2026-04-15T12:41:17.999Z</time></trkpt><trkpt lat="36.90477928740961" lon="15.06895855677006"><ele>180.66666666666666</ele><time>2026-04-15T12:41:18.999Z</time></trkpt><trkpt lat="36.904626448783695" lon="15.068943586206128"><ele>179.0</ele><time>2026-04-15T12:41:19.999Z</time></trkpt><trkpt lat="36.90448473035431" lon="15.068909169336338"><ele>179.0</ele><time>2026-04-15T12:41:20.999Z</time></trkpt><trkpt lat="36.904349018755" lon="15.068850691911496"><ele>179.0</ele><time>2026-04-15T12:41:21.999Z</time></trkpt><trkpt lat="36.90421706682623" lon="15.068783259009578"><ele>179.0</ele><time>2026-04-15T12:41:22.999Z</time></trkpt><trkpt lat="36.904077104240905" lon="15.068706959342641"><ele>179.0</ele><time>2026-04-15T12:41:23.999Z</time></trkpt><trkpt lat="36.90393245613245" lon="15.068639417279014"><ele>178.33333333333331</ele><time>2026-04-15T12:41:24.999Z</time></trkpt><trkpt lat="36.90379118549184" lon="15.068570069266363"><ele>177.66666666666666</ele><time>2026-04-15T12:41:25.999Z</time></trkpt><trkpt lat="36.903644464588055" lon="15.068500350971352"><ele>177.0</ele><time>2026-04-15T12:41:26.999Z</time></trkpt><trkpt lat="36.90349531210563" lon="15.068431807667807"><ele>177.33333333333334</ele><time>2026-04-15T12:41:27.999Z</time></trkpt><trkpt lat="36.90334727340762" lon="15.068360302332366"><ele>177.66666666666669</ele><time>2026-04-15T12:41:28.999Z</time></trkpt><trkpt lat="36.90319716411945" lon="15.06828981500267"><ele>178.0</ele><time>2026-04-15T12:41:29.999Z</time></trkpt><trkpt lat="36.90304456812401" lon="15.068223885297568"><ele>178.0</ele><time>2026-04-15T12:41:30.999Z</time></trkpt><trkpt lat="36.90289580167687" lon="15.068158228041185"><ele>178.0</ele><time>2026-04-15T12:41:31.999Z</time></trkpt><trkpt lat="36.902754084967" lon="15.068084736047073"><ele>178.0</ele><time>2026-04-15T12:41:32.999Z</time></trkpt><trkpt lat="36.90261616176471" lon="15.06801815193762"><ele>178.25</ele><time>2026-04-15T12:41:33.999Z</time></trkpt><trkpt lat="36.90248535745139" lon="15.067960527106496"><ele>178.5</ele><time>2026-04-15T12:41:34.999Z</time></trkpt><trkpt lat="36.9023584205222" lon="15.067919085087382"><ele>178.75</ele><time>2026-04-15T12:41:35.999Z</time></trkpt><trkpt lat="36.90222879854694" lon="15.067909969957203"><ele>179.0</ele><time>2026-04-15T12:41:36.999Z</time></trkpt><trkpt lat="36.90209320803304" lon="15.0679278878973"><ele>179.0</ele><time>2026-04-15T12:41:37.999Z</time></trkpt><trkpt lat="36.90193354027608" lon="15.067969197466462"><ele>179.0</ele><time>2026-04-15T12:41:38.999Z</time></trkpt><trkpt lat="36.901793710001776" lon="15.067998413422446"><ele>179.0</ele><time>2026-04-15T12:41:39.999Z</time></trkpt><trkpt lat="36.90165758070764" lon="15.06803136770209"><ele>179.0</ele><time>2026-04-15T12:41:40.999Z</time></trkpt><trkpt lat="36.90152868900198" lon="15.068061024570357"><ele>178.79999999999998</ele><time>2026-04-15T12:41:41.999Z</time></trkpt><trkpt lat="36.90140635778863" lon="15.0680859735176"><ele>178.6</ele><time>2026-04-15T12:41:42.999Z</time></trkpt><trkpt lat="36.90129131781547" lon="15.068110379245402"><ele>178.4</ele><time>2026-04-15T12:41:43.999Z</time></trkpt><trkpt lat="36.90118145462146" lon="15.068133563768795"><ele>178.2</ele><time>2026-04-15T12:41:44.999Z</time></trkpt><trkpt lat="36.901085950252465" lon="15.068154581786121"><ele>178.0</ele><time>2026-04-15T12:41:45.999Z</time></trkpt><trkpt lat="36.90101962619917" lon="15.06814927870037"><ele>178.0</ele><time>2026-04-15T12:41:46.999Z</time></trkpt><trkpt lat="36.90095263635031" lon="15.068175433539272"><ele>178.0</ele><time>2026-04-15T12:41:47.999Z</time></trkpt><trkpt lat="36.900899761613815" lon="15.068236921674979"><ele>178.0</ele><time>2026-04-15T12:41:48.999Z</time></trkpt><trkpt lat="36.90083646382584" lon="15.068303329198795"><ele>178.0</ele><time>2026-04-15T12:41:49.999Z</time></trkpt><trkpt lat="36.900747254466154" lon="15.068368424841966"><ele>178.0</ele><time>2026-04-15T12:41:50.999Z</time></trkpt><trkpt lat="36.900646761363284" lon="15.068439814391148"><ele>178.0</ele><time>2026-04-15T12:41:51.999Z</time></trkpt><trkpt lat="36.900525858959426" lon="15.068531532989896"><ele>177.66666666666669</ele><time>2026-04-15T12:41:52.999Z</time></trkpt><trkpt lat="36.900395388406096" lon="15.068644630227487"><ele>177.33333333333334</ele><time>2026-04-15T12:41:53.999Z</time></trkpt><trkpt lat="36.900266332998974" lon="15.068784607810489"><ele>177.0</ele><time>2026-04-15T12:41:54.999Z</time></trkpt><trkpt lat="36.900139288485896" lon="15.068939715044285"><ele>177.0</ele><time>2026-04-15T12:41:55.999Z</time></trkpt><trkpt lat="36.90001256228274" lon="15.06908559169754"><ele>177.0</ele><time>2026-04-15T12:41:56.999Z</time></trkpt><trkpt lat="36.89988724394646" lon="15.06922946193712"><ele>177.0</ele><time>2026-04-15T12:41:57.999Z</time></trkpt><trkpt lat="36.89977265119268" lon="15.069372911621723"><ele>177.66666666666666</ele><time>2026-04-15T12:41:58.999Z</time></trkpt><trkpt lat="36.8996556781645" lon="15.069512202636691"><ele>178.33333333333331</ele><time>2026-04-15T12:41:59.999Z</time></trkpt><trkpt lat="36.89953352095214" lon="15.069642978658779"><ele>179.0</ele><time>2026-04-15T12:42:00.999Z</time></trkpt><trkpt lat="36.89941270305867" lon="15.069781411690645"><ele>179.0</ele><time>2026-04-15T12:42:01.999Z</time></trkpt><trkpt lat="36.89930497849422" lon="15.069905761136766"><ele>179.0</ele><time>2026-04-15T12:42:02.999Z</time></trkpt><trkpt lat="36.8992006028341" lon="15.070025516668972"><ele>179.0</ele><time>2026-04-15T12:42:03.999Z</time></trkpt><trkpt lat="36.8990988227008" lon="15.070140702353978"><ele>179.0</ele><time>2026-04-15T12:42:04.999Z</time></trkpt><trkpt lat="36.899009368560385" lon="15.070255033837684"><ele>178.75</ele><time>2026-04-15T12:42:05.999Z</time></trkpt><trkpt lat="36.8989125516366" lon="15.07037827785025"><ele>178.5</ele><time>2026-04-15T12:42:06.999Z</time></trkpt><trkpt lat="36.8988027366482" lon="15.070501710801715"><ele>178.25</ele><time>2026-04-15T12:42:07.999Z</time></trkpt><trkpt lat="36.89868582290364" lon="15.070632242476131"><ele>178.0</ele><time>2026-04-15T12:42:08.999Z</time></trkpt><trkpt lat="36.89858158566205" lon="15.070752702443109"><ele>177.75</ele><time>2026-04-15T12:42:09.999Z</time></trkpt><trkpt lat="36.89847743690181" lon="15.070866038101311"><ele>177.5</ele><time>2026-04-15T12:42:10.999Z</time></trkpt><trkpt lat="36.89837014512136" lon="15.070981807261733"><ele>177.25</ele><time>2026-04-15T12:42:11.999Z</time></trkpt><trkpt lat="36.89827520755212" lon="15.071096225815406"><ele>177.0</ele><time>2026-04-15T12:42:12.999Z</time></trkpt><trkpt lat="36.89818172577662" lon="15.07119759946966"><ele>177.0</ele><time>2026-04-15T12:42:13.999Z</time></trkpt><trkpt lat="36.898098589003006" lon="15.071294067707901"><ele>177.0</ele><time>2026-04-15T12:42:14.999Z</time></trkpt><trkpt lat="36.89802180016512" lon="15.071394147409801"><ele>177.0</ele><time>2026-04-15T12:42:16Z</time></trkpt><trkpt lat="36.89793993783792" lon="15.071482059679319"><ele>177.0</ele><time>2026-04-15T12:42:17Z</time></trkpt><trkpt lat="36.8978536816852" lon="15.071573318675291"><ele>177.0</ele><time>2026-04-15T12:42:18Z</time></trkpt><trkpt lat="36.897758333674666" lon="15.071678998426597"><ele>177.0</ele><time>2026-04-15T12:42:19Z</time></trkpt><trkpt lat="36.89765545372165" lon="15.071795423709073"><ele>177.0</ele><time>2026-04-15T12:42:20Z</time></trkpt><trkpt lat="36.897561025327676" lon="15.071907361764852"><ele>177.0</ele><time>2026-04-15T12:42:21Z</time></trkpt><trkpt lat="36.897466214849196" lon="15.072008125275232"><ele>177.0</ele><time>2026-04-15T12:42:22Z</time></trkpt><trkpt lat="36.89738406512202" lon="15.07210451332764"><ele>176.39999999999998</ele><time>2026-04-15T12:42:23Z</time></trkpt><trkpt lat="36.89730345921635" lon="15.07219669823023"><ele>175.79999999999998</ele><time>2026-04-15T12:42:24Z</time></trkpt><trkpt lat="36.89722247551733" lon="15.072290329497084"><ele>175.2</ele><time>2026-04-15T12:42:25Z</time></trkpt><trkpt lat="36.89715255268976" lon="15.072372088278446"><ele>174.6</ele><time>2026-04-15T12:42:26Z</time></trkpt><trkpt lat="36.89709691233775" lon="15.072447773619958"><ele>174.0</ele><time>2026-04-15T12:42:27Z</time></trkpt><trkpt lat="36.897057379508084" lon="15.072529635000704"><ele>173.39999999999998</ele><time>2026-04-15T12:42:28Z</time></trkpt><trkpt lat="36.89702601093696" lon="15.072615813210856"><ele>172.8</ele><time>2026-04-15T12:42:29Z</time></trkpt><trkpt lat="36.89699472549185" lon="15.072721913377391"><ele>172.2</ele><time>2026-04-15T12:42:30Z</time></trkpt><trkpt lat="36.89695764758347" lon="15.072836285268417"><ele>171.60000000000002</ele><time>2026-04-15T12:42:31Z</time></trkpt><trkpt lat="36.89691372570555" lon="15.072965247671114"><ele>171.0</ele><time>2026-04-15T12:42:32Z</time></trkpt><trkpt lat="36.89686938534597" lon="15.073099495318356"><ele>171.0</ele><time>2026-04-15T12:42:33Z</time></trkpt><trkpt lat="36.896818733521805" lon="15.073235431893846"><ele>171.0</ele><time>2026-04-15T12:42:34Z</time></trkpt><trkpt lat="36.89677014774446" lon="15.07338797676894"><ele>171.0</ele><time>2026-04-15T12:42:35Z</time></trkpt><trkpt lat="36.896725406322766" lon="15.073535352906186"><ele>171.0</ele><time>2026-04-15T12:42:36Z</time></trkpt><trkpt lat="36.89665558576697" lon="15.07367020820325"><ele>171.5</ele><time>2026-04-15T12:42:37Z</time></trkpt><trkpt lat="36.89659756871919" lon="15.073793536613989"><ele>172.0</ele><time>2026-04-15T12:42:38Z</time></trkpt><trkpt lat="36.896535617519234" lon="15.073905358208117"><ele>172.5</ele><time>2026-04-15T12:42:39Z</time></trkpt><trkpt lat="36.89647117281522" lon="15.07402191459114"><ele>173.0</ele><time>2026-04-15T12:42:40Z</time></trkpt><trkpt lat="36.896400205917246" lon="15.07414047154339"><ele>171.25</ele><time>2026-04-15T12:42:41Z</time></trkpt><trkpt lat="36.89632725247729" lon="15.07425953292336"><ele>169.5</ele><time>2026-04-15T12:42:42Z</time></trkpt><trkpt lat="36.89625393250505" lon="15.074380639986844"><ele>167.75</ele><time>2026-04-15T12:42:43Z</time></trkpt><trkpt lat="36.89618812369357" lon="15.074496498193136"><ele>166.0</ele><time>2026-04-15T12:42:44Z</time></trkpt><trkpt lat="36.8961294154241" lon="15.074608879818982"><ele>166.0</ele><time>2026-04-15T12:42:45Z</time></trkpt><trkpt lat="36.896081443509175" lon="15.074722130910773"><ele>166.0</ele><time>2026-04-15T12:42:46Z</time></trkpt><trkpt lat="36.896039591410954" lon="15.07482469041786"><ele>166.0</ele><time>2026-04-15T12:42:47Z</time></trkpt><trkpt lat="36.89600933045389" lon="15.074911739914409"><ele>166.0</ele><time>2026-04-15T12:42:48Z</time></trkpt><trkpt lat="36.8959512060852" lon="15.07501186418655"><ele>166.0</ele><time>2026-04-15T12:42:50Z</time></trkpt><trkpt lat="36.8958465216501" lon="15.075013538313572"><ele>166.60000000000002</ele><time>2026-04-15T12:42:52Z</time></trkpt><trkpt lat="36.89573613395062" lon="15.074961031616128"><ele>167.2</ele><time>2026-04-15T12:42:54Z</time></trkpt><trkpt lat="36.895631089601814" lon="15.074909350280299"><ele>167.8</ele><time>2026-04-15T12:42:56Z</time></trkpt><trkpt lat="36.895529632410266" lon="15.074885013646947"><ele>168.39999999999998</ele><time>2026-04-15T12:42:58Z</time></trkpt><trkpt lat="36.89542470393413" lon="15.074853924728323"><ele>169.0</ele><time>2026-04-15T12:43:00Z</time></trkpt><trkpt lat="36.89535460628286" lon="15.074838371445988"><ele>169.0</ele><time>2026-04-15T12:43:01Z</time></trkpt><trkpt lat="36.895287993242626" lon="15.074815429346582"><ele>169.0</ele><time>2026-04-15T12:43:02Z</time></trkpt><trkpt lat="36.89517970200024" lon="15.07477867838177"><ele>169.0</ele><time>2026-04-15T12:43:04Z</time></trkpt><trkpt lat="36.89508918084498" lon="15.074754530564489"><ele>169.0</ele><time>2026-04-15T12:43:06Z</time></trkpt><trkpt lat="36.89499955307454" lon="15.074740271234708"><ele>169.0</ele><time>2026-04-15T12:43:11.999Z</time></trkpt><trkpt lat="36.894915022728085" lon="15.074720146675958"><ele>169.0</ele><time>2026-04-15T12:43:13.999Z</time></trkpt><trkpt lat="36.89479156095175" lon="15.074713434287208"><ele>169.0</ele><time>2026-04-15T12:43:15.999Z</time></trkpt><trkpt lat="36.89467672535246" lon="15.07469844715666"><ele>169.0</ele><time>2026-04-15T12:43:17.999Z</time></trkpt><trkpt lat="36.89457943048594" lon="15.074687032832975"><ele>169.0</ele><time>2026-04-15T12:43:19.999Z</time></trkpt><trkpt lat="36.8945015061976" lon="15.07467975369436"><ele>169.0</ele><time>2026-04-15T12:43:22.999Z</time></trkpt><trkpt lat="36.89444916227029" lon="15.074801869003506"><ele>169.0</ele><time>2026-04-15T12:43:25.999Z</time></trkpt><trkpt lat="36.89442927274117" lon="15.074890214439652"><ele>169.0</ele><time>2026-04-15T12:43:32.999Z</time></trkpt><trkpt lat="36.89434209516407" lon="15.074859703710887"><ele>169.0</ele><time>2026-04-15T12:43:34.999Z</time></trkpt><trkpt lat="36.89422406719795" lon="15.07479809459995"><ele>169.0</ele><time>2026-04-15T12:43:36.999Z</time></trkpt><trkpt lat="36.894149796170154" lon="15.074766868591231"><ele>169.0</ele><time>2026-04-15T12:43:37.999Z</time></trkpt><trkpt lat="36.894070248670566" lon="15.074736969599464"><ele>168.0</ele><time>2026-04-15T12:43:38.999Z</time></trkpt><trkpt lat="36.893977117618675" lon="15.074702468752871"><ele>167.0</ele><time>2026-04-15T12:43:39.999Z</time></trkpt><trkpt lat="36.893879068255515" lon="15.07467799027304"><ele>166.0</ele><time>2026-04-15T12:43:40.999Z</time></trkpt><trkpt lat="36.89377716929212" lon="15.07465946803095"><ele>165.0</ele><time>2026-04-15T12:43:41.999Z</time></trkpt><trkpt lat="36.893683719780995" lon="15.07463676224911"><ele>164.0</ele><time>2026-04-15T12:43:42.999Z</time></trkpt><trkpt lat="36.89360096273452" lon="15.074610449561272"><ele>164.0</ele><time>2026-04-15T12:43:43.999Z</time></trkpt><trkpt lat="36.89352332142197" lon="15.074589361130442"><ele>164.0</ele><time>2026-04-15T12:43:44.999Z</time></trkpt><trkpt lat="36.89345161956057" lon="15.074570516905437"><ele>164.0</ele><time>2026-04-15T12:43:45.999Z</time></trkpt><trkpt lat="36.89334071362236" lon="15.07456539437652"><ele>164.0</ele><time>2026-04-15T12:43:47.999Z</time></trkpt><trkpt lat="36.893285577688815" lon="15.074606180196385"><ele>164.0</ele><time>2026-04-15T12:43:49.999Z</time></trkpt><trkpt lat="36.89326094817135" lon="15.074707776987175"><ele>164.0</ele><time>2026-04-15T12:43:52.999Z</time></trkpt><trkpt lat="36.89330983601868" lon="15.074819497331765"><ele>164.0</ele><time>2026-04-15T12:43:54.999Z</time></trkpt><trkpt lat="36.8933726838403" lon="15.074864729418055"><ele>164.0</ele><time>2026-04-15T12:43:55.999Z</time></trkpt><trkpt lat="36.893440238958" lon="15.074914282356955"><ele>164.0</ele><time>2026-04-15T12:43:56.999Z</time></trkpt><trkpt lat="36.89350459536871" lon="15.074970809289308"><ele>164.0</ele><time>2026-04-15T12:43:57.999Z</time></trkpt><trkpt lat="36.893569488944024" lon="15.075030680111647"><ele>164.0</ele><time>2026-04-15T12:43:58.999Z</time></trkpt><trkpt lat="36.89363786108695" lon="15.075094845035014"><ele>164.0</ele><time>2026-04-15T12:43:59.999Z</time></trkpt><trkpt lat="36.893715355109954" lon="15.07514842638337"><ele>162.0</ele><time>2026-04-15T12:44:00.999Z</time></trkpt><trkpt lat="36.89379620505993" lon="15.075162938464848"><ele>160.0</ele><time>2026-04-15T12:44:01.999Z</time></trkpt><trkpt lat="36.893867287648476" lon="15.075157583339703"><ele>158.0</ele><time>2026-04-15T12:44:02.999Z</time></trkpt><trkpt lat="36.89393399355424" lon="15.07515978599027"><ele>156.0</ele><time>2026-04-15T12:44:03.999Z</time></trkpt><trkpt lat="36.893997217764465" lon="15.07516984855562"><ele>154.0</ele><time>2026-04-15T12:44:04.999Z</time></trkpt><trkpt lat="36.89411125617089" lon="15.07517155690287"><ele>152.0</ele><time>2026-04-15T12:44:06.999Z</time></trkpt><trkpt lat="36.89424046544082" lon="15.075199902346911"><ele>152.0</ele><time>2026-04-15T12:44:08.999Z</time></trkpt><trkpt lat="36.8943052223678" lon="15.075226919235387"><ele>152.0</ele><time>2026-04-15T12:44:09.999Z</time></trkpt><trkpt lat="36.894359271697546" lon="15.07527033238551"><ele>152.0</ele><time>2026-04-15T12:44:10.999Z</time></trkpt><trkpt lat="36.894393543234955" lon="15.075399052745718"><ele>152.0</ele><time>2026-04-15T12:44:12.999Z</time></trkpt><trkpt lat="36.89431606934246" lon="15.075473974838353"><ele>152.0</ele><time>2026-04-15T12:44:14.999Z</time></trkpt><trkpt lat="36.89421059107773" lon="15.075418159303563"><ele>152.0</ele><time>2026-04-15T12:44:16.999Z</time></trkpt><trkpt lat="36.8941499346641" lon="15.075373196755223"><ele>152.0</ele><time>2026-04-15T12:44:17.999Z</time></trkpt><trkpt lat="36.89407229870202" lon="15.075351487469757"><ele>152.0</ele><time>2026-04-15T12:44:18.999Z</time></trkpt><trkpt lat="36.893988133962665" lon="15.075346835982764"><ele>152.0</ele><time>2026-04-15T12:44:19.999Z</time></trkpt><trkpt lat="36.893902817920434" lon="15.075354819651228"><ele>152.0</ele><time>2026-04-15T12:44:20.999Z</time></trkpt><trkpt lat="36.89382097102256" lon="15.075358189720797"><ele>152.0</ele><time>2026-04-15T12:44:22Z</time></trkpt><trkpt lat="36.893743436993766" lon="15.075357986374918"><ele>152.0</ele><time>2026-04-15T12:44:23Z</time></trkpt><trkpt lat="36.893666545854465" lon="15.075357120031532"><ele>152.0</ele><time>2026-04-15T12:44:24Z</time></trkpt><trkpt lat="36.89358774365989" lon="15.075348875533308"><ele>152.0</ele><time>2026-04-15T12:44:25Z</time></trkpt><trkpt lat="36.89351203141976" lon="15.075345265642822"><ele>152.0</ele><time>2026-04-15T12:44:26Z</time></trkpt><trkpt lat="36.89343872196215" lon="15.0753426911847"><ele>152.0</ele><time>2026-04-15T12:44:27Z</time></trkpt><trkpt lat="36.893365571839624" lon="15.07534803159008"><ele>152.0</ele><time>2026-04-15T12:44:28Z</time></trkpt><trkpt lat="36.89329564112626" lon="15.07536126714148"><ele>152.0</ele><time>2026-04-15T12:44:29Z</time></trkpt><trkpt lat="36.89322710929197" lon="15.075374218542855"><ele>150.66666666666666</ele><time>2026-04-15T12:44:30Z</time></trkpt><trkpt lat="36.89311660230885" lon="15.07540207658878"><ele>149.33333333333331</ele><time>2026-04-15T12:44:32Z</time></trkpt><trkpt lat="36.8930380920903" lon="15.075424420715674"><ele>148.0</ele><time>2026-04-15T12:44:34Z</time></trkpt><trkpt lat="36.89294953136492" lon="15.075450991471346"><ele>146.66666666666666</ele><time>2026-04-15T12:44:36Z</time></trkpt><trkpt lat="36.89285570438641" lon="15.075473833748642"><ele>145.33333333333334</ele><time>2026-04-15T12:44:38Z</time></trkpt><trkpt lat="36.892789186532646" lon="15.075489403660066"><ele>144.0</ele><time>2026-04-15T12:44:39Z</time></trkpt><trkpt lat="36.89271310579936" lon="15.075502919117215"><ele>144.00000000000003</ele><time>2026-04-15T12:44:40Z</time></trkpt><trkpt lat="36.89263363349536" lon="15.075506539536297"><ele>144.0</ele><time>2026-04-15T12:44:41Z</time></trkpt><trkpt lat="36.89255712938688" lon="15.075486888168381"><ele>144.0</ele><time>2026-04-15T12:44:42Z</time></trkpt><trkpt lat="36.89248909049683" lon="15.07545248870051"><ele>144.0</ele><time>2026-04-15T12:44:43Z</time></trkpt><trkpt lat="36.8924225708636" lon="15.075406949420001"><ele>144.0</ele><time>2026-04-15T12:44:44Z</time></trkpt><trkpt lat="36.89236367662025" lon="15.075361759992386"><ele>144.00000000000003</ele><time>2026-04-15T12:44:45Z</time></trkpt><trkpt lat="36.89230904251768" lon="15.07530941376058"><ele>144.0</ele><time>2026-04-15T12:44:46Z</time></trkpt><trkpt lat="36.892254734158136" lon="15.075259253145173"><ele>142.33333333333334</ele><time>2026-04-15T12:44:47Z</time></trkpt><trkpt lat="36.89220094468134" lon="15.075206441265479"><ele>140.66666666666666</ele><time>2026-04-15T12:44:48Z</time></trkpt><trkpt lat="36.89215071225755" lon="15.075157114049215"><ele>139.0</ele><time>2026-04-15T12:44:49Z</time></trkpt><trkpt lat="36.89206763969955" lon="15.0750796982198"><ele>137.33333333333331</ele><time>2026-04-15T12:44:51Z</time></trkpt><trkpt lat="36.8920051981616" lon="15.075100166988804"><ele>135.66666666666666</ele><time>2026-04-15T12:44:53Z</time></trkpt><trkpt lat="36.8919523722457" lon="15.075201918475406"><ele>134.0</ele><time>2026-04-15T12:44:55Z</time></trkpt><trkpt lat="36.89191116118845" lon="15.075290822740007"><ele>134.0</ele><time>2026-04-15T12:44:56Z</time></trkpt><trkpt lat="36.8918618792403" lon="15.07540271117259"><ele>134.0</ele><time>2026-04-15T12:44:57Z</time></trkpt><trkpt lat="36.89180934588394" lon="15.07550434367008"><ele>134.0</ele><time>2026-04-15T12:44:58Z</time></trkpt><trkpt lat="36.891781941155365" lon="15.075595159045259"><ele>134.0</ele><time>2026-04-15T12:44:59Z</time></trkpt><trkpt lat="36.891732634156284" lon="15.075722170505722"><ele>134.0</ele><time>2026-04-15T12:45:01Z</time></trkpt><trkpt lat="36.89170001302505" lon="15.075805826965782"><ele>131.4</ele><time>2026-04-15T12:45:04Z</time></trkpt><trkpt lat="36.89176996479028" lon="15.075876640933172"><ele>128.8</ele><time>2026-04-15T12:45:06Z</time></trkpt><trkpt lat="36.89186839971366" lon="15.075892820689857"><ele>126.19999999999999</ele><time>2026-04-15T12:45:07Z</time></trkpt><trkpt lat="36.89194442385085" lon="15.075937750300612"><ele>123.6</ele><time>2026-04-15T12:45:08Z</time></trkpt><trkpt lat="36.89200859545638" lon="15.076005778754169"><ele>121.0</ele><time>2026-04-15T12:45:09Z</time></trkpt><trkpt lat="36.89207565470763" lon="15.07611086102214"><ele>121.0</ele><time>2026-04-15T12:45:10Z</time></trkpt><trkpt lat="36.892146450300736" lon="15.076236766163435"><ele>121.0</ele><time>2026-04-15T12:45:11Z</time></trkpt><trkpt lat="36.892220884712884" lon="15.076347553498206"><ele>121.0</ele><time>2026-04-15T12:45:12Z</time></trkpt><trkpt lat="36.89230710451995" lon="15.076426437244749"><ele>121.0</ele><time>2026-04-15T12:45:13Z</time></trkpt><trkpt lat="36.89241349836365" lon="15.076466098769949"><ele>121.0</ele><time>2026-04-15T12:45:14Z</time></trkpt><trkpt lat="36.89254097154079" lon="15.076482776249657"><ele>121.0</ele><time>2026-04-15T12:45:15Z</time></trkpt><trkpt lat="36.89267738999165" lon="15.07649485480649"><ele>121.0</ele><time>2026-04-15T12:45:16Z</time></trkpt><trkpt lat="36.89283838758335" lon="15.07652016597541"><ele>121.0</ele><time>2026-04-15T12:45:17Z</time></trkpt><trkpt lat="36.893000061553316" lon="15.076550874264303"><ele>122.33333333333334</ele><time>2026-04-15T12:45:18Z</time></trkpt><trkpt lat="36.89315025782415" lon="15.076598721498291"><ele>123.66666666666666</ele><time>2026-04-15T12:45:19Z</time></trkpt><trkpt lat="36.893300111513945" lon="15.076680667076165"><ele>125.0</ele><time>2026-04-15T12:45:20Z</time></trkpt><trkpt lat="36.89344155075853" lon="15.076780447318344"><ele>120.25</ele><time>2026-04-15T12:45:21Z</time></trkpt><trkpt lat="36.89355794541543" lon="15.076886298286071"><ele>115.5</ele><time>2026-04-15T12:45:22Z</time></trkpt><trkpt lat="36.89366642553469" lon="15.076998107097431"><ele>110.75</ele><time>2026-04-15T12:45:22.999Z</time></trkpt><trkpt lat="36.89376636842669" lon="15.077102928537718"><ele>106.0</ele><time>2026-04-15T12:45:23.999Z</time></trkpt><trkpt lat="36.89385737349917" lon="15.077207757550626"><ele>106.0</ele><time>2026-04-15T12:45:24.999Z</time></trkpt><trkpt lat="36.89396377394005" lon="15.077280991555815"><ele>106.0</ele><time>2026-04-15T12:45:25.999Z</time></trkpt><trkpt lat="36.89408041143644" lon="15.077319666931364"><ele>106.0</ele><time>2026-04-15T12:45:26.999Z</time></trkpt><trkpt lat="36.89420930031539" lon="15.077327263726072"><ele>106.0</ele><time>2026-04-15T12:45:27.999Z</time></trkpt><trkpt lat="36.8943385080417" lon="15.07732121870262"><ele>108.5</ele><time>2026-04-15T12:45:28.999Z</time></trkpt><trkpt lat="36.89445505067615" lon="15.077325650538036"><ele>111.0</ele><time>2026-04-15T12:45:29.999Z</time></trkpt><trkpt lat="36.89456196301945" lon="15.07735902270855"><ele>113.5</ele><time>2026-04-15T12:45:30.999Z</time></trkpt><trkpt lat="36.894654354817625" lon="15.077435837108311"><ele>116.0</ele><time>2026-04-15T12:45:31.999Z</time></trkpt><trkpt lat="36.8947421078055" lon="15.07754859765052"><ele>109.0</ele><time>2026-04-15T12:45:32.999Z</time></trkpt><trkpt lat="36.89484490847538" lon="15.077674782918857"><ele>102.0</ele><time>2026-04-15T12:45:33.999Z</time></trkpt><trkpt lat="36.89495798932542" lon="15.077809409770751"><ele>95.0</ele><time>2026-04-15T12:45:34.999Z</time></trkpt><trkpt lat="36.89506915643165" lon="15.07793673080049"><ele>93.0</ele><time>2026-04-15T12:45:35.999Z</time></trkpt><trkpt lat="36.89518915463643" lon="15.078071665887757"><ele>91.0</ele><time>2026-04-15T12:45:36.999Z</time></trkpt><trkpt lat="36.89531576724649" lon="15.078208476004754"><ele>89.0</ele><time>2026-04-15T12:45:37.999Z</time></trkpt><trkpt lat="36.8954387151714" lon="15.078351877159337"><ele>89.0</ele><time>2026-04-15T12:45:38.999Z</time></trkpt><trkpt lat="36.89556122030353" lon="15.078500966576007"><ele>89.0</ele><time>2026-04-15T12:45:39.999Z</time></trkpt><trkpt lat="36.895690169183474" lon="15.078645196739812"><ele>89.0</ele><time>2026-04-15T12:45:40.999Z</time></trkpt><trkpt lat="36.895824107816054" lon="15.078784611832164"><ele>89.66666666666667</ele><time>2026-04-15T12:45:41.999Z</time></trkpt><trkpt lat="36.89596498557587" lon="15.078905422418035"><ele>90.33333333333333</ele><time>2026-04-15T12:45:42.999Z</time></trkpt><trkpt lat="36.89611636606309" lon="15.078991388415043"><ele>91.0</ele><time>2026-04-15T12:45:43.999Z</time></trkpt><trkpt lat="36.89626831715515" lon="15.079067176331927"><ele>91.25</ele><time>2026-04-15T12:45:44.999Z</time></trkpt><trkpt lat="36.8964078330093" lon="15.079144262282291"><ele>91.5</ele><time>2026-04-15T12:45:45.999Z</time></trkpt><trkpt lat="36.896538791757465" lon="15.079214538094268"><ele>91.75</ele><time>2026-04-15T12:45:46.999Z</time></trkpt><trkpt lat="36.89665336034203" lon="15.079279089489289"><ele>92.0</ele><time>2026-04-15T12:45:47.999Z</time></trkpt><trkpt lat="36.89676209045775" lon="15.079357912235787"><ele>92.0</ele><time>2026-04-15T12:45:48.999Z</time></trkpt><trkpt lat="36.896860964330166" lon="15.079436640449174"><ele>92.0</ele><time>2026-04-15T12:45:49.999Z</time></trkpt><trkpt lat="36.89694837141965" lon="15.079534124116346"><ele>92.0</ele><time>2026-04-15T12:45:50.999Z</time></trkpt><trkpt lat="36.897006309339204" lon="15.079654067552609"><ele>92.0</ele><time>2026-04-15T12:45:51.999Z</time></trkpt><trkpt lat="36.89703792499421" lon="15.07977320808526"><ele>92.0</ele><time>2026-04-15T12:45:52.999Z</time></trkpt><trkpt lat="36.897068423636384" lon="15.079910248454462"><ele>93.5</ele><time>2026-04-15T12:45:53.999Z</time></trkpt><trkpt lat="36.897082637799514" lon="15.080060173939316"><ele>95.0</ele><time>2026-04-15T12:45:54.999Z</time></trkpt><trkpt lat="36.897082519100714" lon="15.080206754958352"><ele>96.5</ele><time>2026-04-15T12:45:55.999Z</time></trkpt><trkpt lat="36.897058652638606" lon="15.080349095114393"><ele>98.0</ele><time>2026-04-15T12:45:56.999Z</time></trkpt><trkpt lat="36.89701293711419" lon="15.080481816937477"><ele>98.0</ele><time>2026-04-15T12:45:57.999Z</time></trkpt><trkpt lat="36.896953253821366" lon="15.080594708079824"><ele>98.0</ele><time>2026-04-15T12:45:58.999Z</time></trkpt><trkpt lat="36.89688799258594" lon="15.080671778911904"><ele>98.0</ele><time>2026-04-15T12:45:59.999Z</time></trkpt><trkpt lat="36.89685052719634" lon="15.08076136937139"><ele>98.0</ele><time>2026-04-15T12:46:00.999Z</time></trkpt><trkpt lat="36.89685844039626" lon="15.080844747921505"><ele>98.0</ele><time>2026-04-15T12:46:01.999Z</time></trkpt><trkpt lat="36.89697226865789" lon="15.080929540482407"><ele>99.4</ele><time>2026-04-15T12:46:03.999Z</time></trkpt><trkpt lat="36.897051047248375" lon="15.080950644242613"><ele>100.80000000000001</ele><time>2026-04-15T12:46:04.999Z</time></trkpt><trkpt lat="36.897129183618915" lon="15.080990978328636"><ele>102.2</ele><time>2026-04-15T12:46:05.999Z</time></trkpt><trkpt lat="36.89722484390742" lon="15.081080118929052"><ele>103.6</ele><time>2026-04-15T12:46:06.999Z</time></trkpt><trkpt lat="36.897331809266916" lon="15.081207791336972"><ele>105.0</ele><time>2026-04-15T12:46:07.999Z</time></trkpt><trkpt lat="36.89743156526587" lon="15.081334639248952"><ele>105.0</ele><time>2026-04-15T12:46:08.999Z</time></trkpt><trkpt lat="36.89753624535821" lon="15.081446216985428"><ele>105.0</ele><time>2026-04-15T12:46:09.999Z</time></trkpt><trkpt lat="36.897664256208785" lon="15.081535811728099"><ele>105.0</ele><time>2026-04-15T12:46:10.999Z</time></trkpt><trkpt lat="36.897806433691436" lon="15.081605020887126"><ele>105.0</ele><time>2026-04-15T12:46:11.999Z</time></trkpt><trkpt lat="36.897951684294" lon="15.081658119736865"><ele>106.75</ele><time>2026-04-15T12:46:12.999Z</time></trkpt><trkpt lat="36.89808603547985" lon="15.08171370682728"><ele>108.5</ele><time>2026-04-15T12:46:13.999Z</time></trkpt><trkpt lat="36.89822034537548" lon="15.08177474832093"><ele>110.25</ele><time>2026-04-15T12:46:14.999Z</time></trkpt><trkpt lat="36.8983358455186" lon="15.081844056367677"><ele>112.0</ele><time>2026-04-15T12:46:15.999Z</time></trkpt><trkpt lat="36.898432767522344" lon="15.081922477625733"><ele>112.0</ele><time>2026-04-15T12:46:16.999Z</time></trkpt><trkpt lat="36.89851585760255" lon="15.082018033469911"><ele>112.0</ele><time>2026-04-15T12:46:17.999Z</time></trkpt><trkpt lat="36.89858842371167" lon="15.082147237841454"><ele>112.0</ele><time>2026-04-15T12:46:18.999Z</time></trkpt><trkpt lat="36.89865831915842" lon="15.082284250015162"><ele>112.0</ele><time>2026-04-15T12:46:19.999Z</time></trkpt><trkpt lat="36.8987333843095" lon="15.08242449430121"><ele>113.5</ele><time>2026-04-15T12:46:20.999Z</time></trkpt><trkpt lat="36.898805616010776" lon="15.082569791555823"><ele>115.0</ele><time>2026-04-15T12:46:21.999Z</time></trkpt><trkpt lat="36.898872299081546" lon="15.082718333946213"><ele>116.5</ele><time>2026-04-15T12:46:22.999Z</time></trkpt><trkpt lat="36.898941623711295" lon="15.082874769192923"><ele>118.0</ele><time>2026-04-15T12:46:23.999Z</time></trkpt><trkpt lat="36.8990101476328" lon="15.083031109210259"><ele>118.0</ele><time>2026-04-15T12:46:24.999Z</time></trkpt><trkpt lat="36.899079551667626" lon="15.083185236948257"><ele>118.0</ele><time>2026-04-15T12:46:25.999Z</time></trkpt><trkpt lat="36.899132186740076" lon="15.083355687623209"><ele>118.0</ele><time>2026-04-15T12:46:26.999Z</time></trkpt><trkpt lat="36.899169387238835" lon="15.083538657251783"><ele>118.0</ele><time>2026-04-15T12:46:28Z</time></trkpt><trkpt lat="36.89920751980255" lon="15.083716382946587"><ele>123.66666666666667</ele><time>2026-04-15T12:46:29Z</time></trkpt><trkpt lat="36.89927275292499" lon="15.083886767500601"><ele>129.33333333333334</ele><time>2026-04-15T12:46:30Z</time></trkpt><trkpt lat="36.89936254836804" lon="15.084049777134217"><ele>135.0</ele><time>2026-04-15T12:46:31Z</time></trkpt><trkpt lat="36.89947849387764" lon="15.084195609461247"><ele>136.0</ele><time>2026-04-15T12:46:32Z</time></trkpt><trkpt lat="36.89960526710537" lon="15.084325006669165"><ele>137.0</ele><time>2026-04-15T12:46:33Z</time></trkpt><trkpt lat="36.89973880475988" lon="15.08442780431357"><ele>138.0</ele><time>2026-04-15T12:46:34Z</time></trkpt><trkpt lat="36.899862726359274" lon="15.0845251294052"><ele>138.0</ele><time>2026-04-15T12:46:35Z</time></trkpt><trkpt lat="36.89997136627569" lon="15.08465043116433"><ele>138.0</ele><time>2026-04-15T12:46:36Z</time></trkpt><trkpt lat="36.90007680619306" lon="15.084793632247107"><ele>138.0</ele><time>2026-04-15T12:46:37Z</time></trkpt><trkpt lat="36.900184969101794" lon="15.084942222189488"><ele>139.33333333333334</ele><time>2026-04-15T12:46:38Z</time></trkpt><trkpt lat="36.900282297021995" lon="15.085084536385336"><ele>140.66666666666669</ele><time>2026-04-15T12:46:39Z</time></trkpt><trkpt lat="36.900375778970314" lon="15.085224869887504"><ele>142.0</ele><time>2026-04-15T12:46:40Z</time></trkpt><trkpt lat="36.90048830298538" lon="15.085360091729877"><ele>142.0</ele><time>2026-04-15T12:46:41Z</time></trkpt><trkpt lat="36.900602370098426" lon="15.08548711948799"><ele>142.0</ele><time>2026-04-15T12:46:42Z</time></trkpt><trkpt lat="36.90072231170932" lon="15.085614639842946"><ele>142.0</ele><time>2026-04-15T12:46:43Z</time></trkpt><trkpt lat="36.900831192767825" lon="15.085733654084098"><ele>139.5</ele><time>2026-04-15T12:46:44Z</time></trkpt><trkpt lat="36.900941275984295" lon="15.085844037921895"><ele>137.0</ele><time>2026-04-15T12:46:45Z</time></trkpt><trkpt lat="36.901054453258425" lon="15.085939839026274"><ele>134.5</ele><time>2026-04-15T12:46:46Z</time></trkpt><trkpt lat="36.901169441011845" lon="15.086010242713222"><ele>132.0</ele><time>2026-04-15T12:46:47Z</time></trkpt><trkpt lat="36.90129109155193" lon="15.086054777927956"><ele>132.0</ele><time>2026-04-15T12:46:48Z</time></trkpt><trkpt lat="36.90141005013114" lon="15.086085578582802"><ele>132.0</ele><time>2026-04-15T12:46:49Z</time></trkpt><trkpt lat="36.901527740210064" lon="15.086117841535996"><ele>132.0</ele><time>2026-04-15T12:46:50Z</time></trkpt><trkpt lat="36.90164418154968" lon="15.086157314568217"><ele>132.0</ele><time>2026-04-15T12:46:51Z</time></trkpt><trkpt lat="36.90176378527904" lon="15.086204032601964"><ele>132.0</ele><time>2026-04-15T12:46:52Z</time></trkpt><trkpt lat="36.90188092598356" lon="15.086271430883022"><ele>132.0</ele><time>2026-04-15T12:46:53Z</time></trkpt><trkpt lat="36.90201186925521" lon="15.08634884337207"><ele>132.0</ele><time>2026-04-15T12:46:54Z</time></trkpt><trkpt lat="36.90214549619504" lon="15.086432148929651"><ele>132.0</ele><time>2026-04-15T12:46:55Z</time></trkpt><trkpt lat="36.90229310237186" lon="15.086507943153379"><ele>132.0</ele><time>2026-04-15T12:46:56Z</time></trkpt><trkpt lat="36.90244741011497" lon="15.08658821612544"><ele>132.0</ele><time>2026-04-15T12:46:57Z</time></trkpt><trkpt lat="36.90260544419181" lon="15.08666258249261"><ele>132.0</ele><time>2026-04-15T12:46:58Z</time></trkpt><trkpt lat="36.902768937425826" lon="15.086733261346186"><ele>129.66666666666666</ele><time>2026-04-15T12:46:59Z</time></trkpt><trkpt lat="36.90293571670378" lon="15.086802958657476"><ele>127.33333333333333</ele><time>2026-04-15T12:47:00Z</time></trkpt><trkpt lat="36.90310893580427" lon="15.086867717013815"><ele>125.0</ele><time>2026-04-15T12:47:01Z</time></trkpt><trkpt lat="36.90327892475633" lon="15.086918615054053"><ele>126.66666666666666</ele><time>2026-04-15T12:47:02Z</time></trkpt><trkpt lat="36.90345024383568" lon="15.08695677471904"><ele>128.33333333333334</ele><time>2026-04-15T12:47:03Z</time></trkpt><trkpt lat="36.90361504615692" lon="15.086998334320882"><ele>130.0</ele><time>2026-04-15T12:47:04Z</time></trkpt><trkpt lat="36.90376538548141" lon="15.087046576742106"><ele>130.0</ele><time>2026-04-15T12:47:05Z</time></trkpt><trkpt lat="36.90392629526137" lon="15.087121425283565"><ele>130.0</ele><time>2026-04-15T12:47:06Z</time></trkpt><trkpt lat="36.90407032556819" lon="15.087223439994823"><ele>130.0</ele><time>2026-04-15T12:47:07Z</time></trkpt><trkpt lat="36.904216119403365" lon="15.087338405950435"><ele>130.33333333333334</ele><time>2026-04-15T12:47:08Z</time></trkpt><trkpt lat="36.904357754302644" lon="15.087445017102247"><ele>130.66666666666666</ele><time>2026-04-15T12:47:09Z</time></trkpt><trkpt lat="36.904492858660404" lon="15.08754984869692"><ele>131.0</ele><time>2026-04-15T12:47:10Z</time></trkpt><trkpt lat="36.90463438449771" lon="15.087666480741369"><ele>131.0</ele><time>2026-04-15T12:47:11Z</time></trkpt><trkpt lat="36.9047734658024" lon="15.087787227346363"><ele>131.0</ele><time>2026-04-15T12:47:12Z</time></trkpt><trkpt lat="36.904918537338425" lon="15.087894080970452"><ele>131.0</ele><time>2026-04-15T12:47:13Z</time></trkpt><trkpt lat="36.905063995642585" lon="15.08800302378409"><ele>131.66666666666666</ele><time>2026-04-15T12:47:14Z</time></trkpt><trkpt lat="36.905201082589336" lon="15.088118364464341"><ele>132.33333333333334</ele><time>2026-04-15T12:47:15Z</time></trkpt><trkpt lat="36.90534155638459" lon="15.088243950582186"><ele>133.0</ele><time>2026-04-15T12:47:16Z</time></trkpt><trkpt lat="36.90548003369874" lon="15.088373662466257"><ele>131.0</ele><time>2026-04-15T12:47:17Z</time></trkpt><trkpt lat="36.90561946304986" lon="15.088502493416122"><ele>129.0</ele><time>2026-04-15T12:47:18Z</time></trkpt><trkpt lat="36.90575549600282" lon="15.08861965801447"><ele>127.0</ele><time>2026-04-15T12:47:19Z</time></trkpt><trkpt lat="36.90589872809686" lon="15.088717343596835"><ele>126.66666666666667</ele><time>2026-04-15T12:47:20Z</time></trkpt><trkpt lat="36.90604687476332" lon="15.088804381651714"><ele>126.33333333333334</ele><time>2026-04-15T12:47:21Z</time></trkpt><trkpt lat="36.90618904231949" lon="15.088878424587064"><ele>126.0</ele><time>2026-04-15T12:47:22Z</time></trkpt><trkpt lat="36.90633169688915" lon="15.088923864784034"><ele>126.0</ele><time>2026-04-15T12:47:23Z</time></trkpt><trkpt lat="36.906479276279036" lon="15.088939842969088"><ele>126.0</ele><time>2026-04-15T12:47:24Z</time></trkpt><trkpt lat="36.90661913022842" lon="15.088961360980788"><ele>126.0</ele><time>2026-04-15T12:47:25Z</time></trkpt><trkpt lat="36.906743761097104" lon="15.089013649889331"><ele>126.0</ele><time>2026-04-15T12:47:26Z</time></trkpt><trkpt lat="36.906848182930005" lon="15.089097838677917"><ele>127.0</ele><time>2026-04-15T12:47:26.999Z</time></trkpt><trkpt lat="36.906955378586574" lon="15.089182231898342"><ele>128.0</ele><time>2026-04-15T12:47:27.999Z</time></trkpt><trkpt lat="36.90707562592325" lon="15.089259348794965"><ele>129.0</ele><time>2026-04-15T12:47:28.999Z</time></trkpt><trkpt lat="36.90719343354308" lon="15.089313218574132"><ele>130.0</ele><time>2026-04-15T12:47:29.999Z</time></trkpt><trkpt lat="36.90732254804037" lon="15.089366818487306"><ele>130.0</ele><time>2026-04-15T12:47:30.999Z</time></trkpt><trkpt lat="36.90746204118395" lon="15.089432894093543"><ele>130.0</ele><time>2026-04-15T12:47:31.999Z</time></trkpt><trkpt lat="36.90760468413206" lon="15.089503064966891"><ele>130.0</ele><time>2026-04-15T12:47:32.999Z</time></trkpt><trkpt lat="36.907753000545" lon="15.089566694210896"><ele>131.0</ele><time>2026-04-15T12:47:33.999Z</time></trkpt><trkpt lat="36.907907636774354" lon="15.089618597108936"><ele>132.0</ele><time>2026-04-15T12:47:34.999Z</time></trkpt><trkpt lat="36.90806539209887" lon="15.089663192571827"><ele>133.0</ele><time>2026-04-15T12:47:35.999Z</time></trkpt><trkpt lat="36.908229333603444" lon="15.08970442633964"><ele>133.0</ele><time>2026-04-15T12:47:36.999Z</time></trkpt><trkpt lat="36.90840036067579" lon="15.089736652670362"><ele>133.0</ele><time>2026-04-15T12:47:37.999Z</time></trkpt><trkpt lat="36.90858864765701" lon="15.089761042225387"><ele>133.0</ele><time>2026-04-15T12:47:38.999Z</time></trkpt><trkpt lat="36.90877113725192" lon="15.089767529478634"><ele>135.33333333333334</ele><time>2026-04-15T12:47:39.999Z</time></trkpt><trkpt lat="36.908960114414" lon="15.089785517025831"><ele>137.66666666666666</ele><time>2026-04-15T12:47:40.999Z</time></trkpt><trkpt lat="36.90914773265535" lon="15.089824575955939"><ele>140.0</ele><time>2026-04-15T12:47:41.999Z</time></trkpt><trkpt lat="36.909334812130005" lon="15.089878147959366"><ele>141.66666666666666</ele><time>2026-04-15T12:47:42.999Z</time></trkpt><trkpt lat="36.90951188634686" lon="15.0899345950346"><ele>143.33333333333334</ele><time>2026-04-15T12:47:43.999Z</time></trkpt><trkpt lat="36.909682528038324" lon="15.089998711060089"><ele>145.0</ele><time>2026-04-15T12:47:44.999Z</time></trkpt><trkpt lat="36.90984077052369" lon="15.090080275468742"><ele>145.0</ele><time>2026-04-15T12:47:45.999Z</time></trkpt><trkpt lat="36.90999870877929" lon="15.090191939108626"><ele>145.0</ele><time>2026-04-15T12:47:46.999Z</time></trkpt><trkpt lat="36.91016932837849" lon="15.090340837384936"><ele>145.0</ele><time>2026-04-15T12:47:47.999Z</time></trkpt><trkpt lat="36.910337580464834" lon="15.090517962232182"><ele>147.0</ele><time>2026-04-15T12:47:48.999Z</time></trkpt><trkpt lat="36.910498786115994" lon="15.090703176446153"><ele>149.0</ele><time>2026-04-15T12:47:49.999Z</time></trkpt><trkpt lat="36.910662639769754" lon="15.090875027012595"><ele>151.0</ele><time>2026-04-15T12:47:50.999Z</time></trkpt><trkpt lat="36.91081505448618" lon="15.091042141148392"><ele>150.66666666666669</ele><time>2026-04-15T12:47:51.999Z</time></trkpt><trkpt lat="36.910944209027974" lon="15.091208224538263"><ele>150.33333333333334</ele><time>2026-04-15T12:47:52.999Z</time></trkpt><trkpt lat="36.91106786241455" lon="15.09139806876315"><ele>150.0</ele><time>2026-04-15T12:47:53.999Z</time></trkpt><trkpt lat="36.911187033473006" lon="15.091612345873159"><ele>150.0</ele><time>2026-04-15T12:47:54.999Z</time></trkpt><trkpt lat="36.91131717739498" lon="15.091857146042946"><ele>150.0</ele><time>2026-04-15T12:47:55.999Z</time></trkpt><trkpt lat="36.9114530185198" lon="15.092132662144932"><ele>150.0</ele><time>2026-04-15T12:47:56.999Z</time></trkpt><trkpt lat="36.911590222654" lon="15.092418968605884"><ele>150.0</ele><time>2026-04-15T12:47:57.999Z</time></trkpt><trkpt lat="36.911739799245645" lon="15.092699436507722"><ele>149.0</ele><time>2026-04-15T12:47:58.999Z</time></trkpt><trkpt lat="36.91191281808497" lon="15.092972158195241"><ele>148.0</ele><time>2026-04-15T12:47:59.999Z</time></trkpt><trkpt lat="36.912084310379825" lon="15.093243661047893"><ele>146.5</ele><time>2026-04-15T12:48:00.999Z</time></trkpt><trkpt lat="36.91223208999712" lon="15.093530339730819"><ele>145.0</ele><time>2026-04-15T12:48:01.999Z</time></trkpt><trkpt lat="36.91236307277389" lon="15.093819890504323"><ele>145.0</ele><time>2026-04-15T12:48:02.999Z</time></trkpt><trkpt lat="36.91248188707804" lon="15.094085129136399"><ele>145.0</ele><time>2026-04-15T12:48:03.999Z</time></trkpt><trkpt lat="36.912606440812084" lon="15.094319211962734"><ele>145.66666666666669</ele><time>2026-04-15T12:48:04.999Z</time></trkpt><trkpt lat="36.91274795691097" lon="15.094527075747088"><ele>146.33333333333334</ele><time>2026-04-15T12:48:05.999Z</time></trkpt><trkpt lat="36.912888150104756" lon="15.094718226952105"><ele>147.0</ele><time>2026-04-15T12:48:06.999Z</time></trkpt><trkpt lat="36.913029705435946" lon="15.094907261866467"><ele>145.0</ele><time>2026-04-15T12:48:07.999Z</time></trkpt><trkpt lat="36.91317517202167" lon="15.095115515329406"><ele>143.0</ele><time>2026-04-15T12:48:08.999Z</time></trkpt><trkpt lat="36.91332466700088" lon="15.095337419870287"><ele>143.0</ele><time>2026-04-15T12:48:09.999Z</time></trkpt><trkpt lat="36.91345680258388" lon="15.095564897340058"><ele>143.0</ele><time>2026-04-15T12:48:10.999Z</time></trkpt><trkpt lat="36.913573469540054" lon="15.095782885332996"><ele>143.0</ele><time>2026-04-15T12:48:11.999Z</time></trkpt><trkpt lat="36.91369345462988" lon="15.095960447715434"><ele>143.0</ele><time>2026-04-15T12:48:12.999Z</time></trkpt><trkpt lat="36.913833557754536" lon="15.09611791785173"><ele>143.0</ele><time>2026-04-15T12:48:13.999Z</time></trkpt><trkpt lat="36.91397566444764" lon="15.096246716759557"><ele>143.0</ele><time>2026-04-15T12:48:14.999Z</time></trkpt><trkpt lat="36.914155938443905" lon="15.096367196529963"><ele>144.0</ele><time>2026-04-15T12:48:15.999Z</time></trkpt><trkpt lat="36.91434811385081" lon="15.096484098480868"><ele>145.0</ele><time>2026-04-15T12:48:16.999Z</time></trkpt><trkpt lat="36.91454661794804" lon="15.096610312739424"><ele>146.0</ele><time>2026-04-15T12:48:17.999Z</time></trkpt><trkpt lat="36.91473908798601" lon="15.096718419012703"><ele>144.66666666666666</ele><time>2026-04-15T12:48:18.999Z</time></trkpt><trkpt lat="36.914914836693704" lon="15.096818455021994"><ele>143.33333333333334</ele><time>2026-04-15T12:48:19.999Z</time></trkpt><trkpt lat="36.91506738616687" lon="15.09691245972889"><ele>142.0</ele><time>2026-04-15T12:48:20.999Z</time></trkpt><trkpt lat="36.915175612043726" lon="15.097005882951954"><ele>142.0</ele><time>2026-04-15T12:48:21.999Z</time></trkpt><trkpt lat="36.91525702949168" lon="15.097115372611269"><ele>142.0</ele><time>2026-04-15T12:48:22.999Z</time></trkpt><trkpt lat="36.915315508791906" lon="15.097260949107113"><ele>142.0</ele><time>2026-04-15T12:48:23.999Z</time></trkpt><trkpt lat="36.915360698159915" lon="15.097419091053139"><ele>142.0</ele><time>2026-04-15T12:48:24.999Z</time></trkpt><trkpt lat="36.915424842472305" lon="15.09759355016018"><ele>142.33333333333334</ele><time>2026-04-15T12:48:25.999Z</time></trkpt><trkpt lat="36.91550671663208" lon="15.097785366430855"><ele>142.66666666666666</ele><time>2026-04-15T12:48:26.999Z</time></trkpt><trkpt lat="36.915602619643046" lon="15.097995114524075"><ele>143.0</ele><time>2026-04-15T12:48:27.999Z</time></trkpt><trkpt lat="36.91570441438953" lon="15.098223031901236"><ele>143.0</ele><time>2026-04-15T12:48:28.999Z</time></trkpt><trkpt lat="36.91580353108045" lon="15.09844912918638"><ele>143.0</ele><time>2026-04-15T12:48:29.999Z</time></trkpt><trkpt lat="36.91589116624636" lon="15.09866352755903"><ele>143.0</ele><time>2026-04-15T12:48:30.999Z</time></trkpt><trkpt lat="36.915980827522134" lon="15.098860358545114"><ele>143.66666666666666</ele><time>2026-04-15T12:48:31.999Z</time></trkpt><trkpt lat="36.91609188922456" lon="15.099043406242464"><ele>144.33333333333334</ele><time>2026-04-15T12:48:32.999Z</time></trkpt><trkpt lat="36.91622302233872" lon="15.099214596180069"><ele>145.0</ele><time>2026-04-15T12:48:34Z</time></trkpt><trkpt lat="36.916370315821496" lon="15.099368267606467"><ele>145.0</ele><time>2026-04-15T12:48:35Z</time></trkpt><trkpt lat="36.91653326662818" lon="15.099503063655243"><ele>145.0</ele><time>2026-04-15T12:48:36Z</time></trkpt><trkpt lat="36.91670283686464" lon="15.099628116387203"><ele>145.0</ele><time>2026-04-15T12:48:37Z</time></trkpt><trkpt lat="36.91686507940015" lon="15.09976680873257"><ele>144.66666666666669</ele><time>2026-04-15T12:48:38Z</time></trkpt><trkpt lat="36.917017206872984" lon="15.099901666093137"><ele>144.33333333333334</ele><time>2026-04-15T12:48:39Z</time></trkpt><trkpt lat="36.917170876553804" lon="15.10003904361683"><ele>144.0</ele><time>2026-04-15T12:48:40Z</time></trkpt><trkpt lat="36.9173161510127" lon="15.100179945220528"><ele>144.0</ele><time>2026-04-15T12:48:41Z</time></trkpt><trkpt lat="36.91746268603767" lon="15.100320648685907"><ele>144.0</ele><time>2026-04-15T12:48:42Z</time></trkpt><trkpt lat="36.91759696256175" lon="15.100450909028199"><ele>144.0</ele><time>2026-04-15T12:48:43Z</time></trkpt><trkpt lat="36.91771849744595" lon="15.100587275198393"><ele>144.33333333333334</ele><time>2026-04-15T12:48:44Z</time></trkpt><trkpt lat="36.91782693386635" lon="15.100731084247549"><ele>144.66666666666669</ele><time>2026-04-15T12:48:45Z</time></trkpt><trkpt lat="36.917912823578405" lon="15.100878921710272"><ele>145.0</ele><time>2026-04-15T12:48:46Z</time></trkpt><trkpt lat="36.91798706828754" lon="15.101035461717244"><ele>144.0</ele><time>2026-04-15T12:48:47Z</time></trkpt><trkpt lat="36.91803718320815" lon="15.101196978016779"><ele>143.0</ele><time>2026-04-15T12:48:48Z</time></trkpt><trkpt lat="36.91805582694632" lon="15.101374042806539"><ele>142.0</ele><time>2026-04-15T12:48:49Z</time></trkpt><trkpt lat="36.918053362695865" lon="15.101552632678501"><ele>141.0</ele><time>2026-04-15T12:48:50Z</time></trkpt><trkpt lat="36.9180286772965" lon="15.101707538735324"><ele>140.0</ele><time>2026-04-15T12:48:51Z</time></trkpt><trkpt lat="36.91797763165287" lon="15.101841421699362"><ele>139.0</ele><time>2026-04-15T12:48:52Z</time></trkpt><trkpt lat="36.91790859501351" lon="15.101979410856933"><ele>138.0</ele><time>2026-04-15T12:48:53Z</time></trkpt><trkpt lat="36.917834580612805" lon="15.1021229357944"><ele>137.0</ele><time>2026-04-15T12:48:54Z</time></trkpt><trkpt lat="36.917760187696906" lon="15.102282887861046"><ele>137.0</ele><time>2026-04-15T12:48:55Z</time></trkpt><trkpt lat="36.917685752296926" lon="15.102450576845271"><ele>137.0</ele><time>2026-04-15T12:48:56Z</time></trkpt><trkpt lat="36.91761921787805" lon="15.102609940941983"><ele>137.0</ele><time>2026-04-15T12:48:57Z</time></trkpt><trkpt lat="36.91757273113761" lon="15.102764201915846"><ele>137.0</ele><time>2026-04-15T12:48:58Z</time></trkpt><trkpt lat="36.91756397376084" lon="15.102933536420235"><ele>135.75</ele><time>2026-04-15T12:48:59Z</time></trkpt><trkpt lat="36.91757839661982" lon="15.103109954650881"><ele>134.5</ele><time>2026-04-15T12:49:00Z</time></trkpt><trkpt lat="36.91758108282204" lon="15.103278727111194"><ele>133.25</ele><time>2026-04-15T12:49:01Z</time></trkpt><trkpt lat="36.91755643679348" lon="15.103458628900922"><ele>132.0</ele><time>2026-04-15T12:49:02Z</time></trkpt><trkpt lat="36.917492943927215" lon="15.10365659222284"><ele>131.33333333333334</ele><time>2026-04-15T12:49:03Z</time></trkpt><trkpt lat="36.91742670061167" lon="15.103842742022431"><ele>130.66666666666669</ele><time>2026-04-15T12:49:04Z</time></trkpt><trkpt lat="36.91736769816539" lon="15.104020263663296"><ele>130.0</ele><time>2026-04-15T12:49:05Z</time></trkpt><trkpt lat="36.91730097996298" lon="15.104180189837438"><ele>129.0</ele><time>2026-04-15T12:49:06Z</time></trkpt><trkpt lat="36.91720960949271" lon="15.104321917565054"><ele>128.0</ele><time>2026-04-15T12:49:07Z</time></trkpt><trkpt lat="36.917116455715394" lon="15.104470909864883"><ele>127.0</ele><time>2026-04-15T12:49:08Z</time></trkpt><trkpt lat="36.91704729395329" lon="15.104637859660988"><ele>126.0</ele><time>2026-04-15T12:49:09Z</time></trkpt><trkpt lat="36.91700870137183" lon="15.104802244230193"><ele>124.5</ele><time>2026-04-15T12:49:10Z</time></trkpt><trkpt lat="36.91696957083745" lon="15.104952687496379"><ele>123.0</ele><time>2026-04-15T12:49:11Z</time></trkpt><trkpt lat="36.91691837549905" lon="15.105090403736474"><ele>121.5</ele><time>2026-04-15T12:49:12Z</time></trkpt><trkpt lat="36.91684037837165" lon="15.105201803136243"><ele>120.0</ele><time>2026-04-15T12:49:13Z</time></trkpt><trkpt lat="36.91674883420265" lon="15.105283287837391"><ele>120.4</ele><time>2026-04-15T12:49:14Z</time></trkpt><trkpt lat="36.916666686788496" lon="15.105366149593015"><ele>120.8</ele><time>2026-04-15T12:49:15Z</time></trkpt><trkpt lat="36.916597257458236" lon="15.105449792763075"><ele>121.19999999999999</ele><time>2026-04-15T12:49:16Z</time></trkpt><trkpt lat="36.91652825902423" lon="15.105557773138583"><ele>121.6</ele><time>2026-04-15T12:49:17Z</time></trkpt><trkpt lat="36.91646589683833" lon="15.10568941227861"><ele>122.0</ele><time>2026-04-15T12:49:18Z</time></trkpt><trkpt lat="36.9164153172164" lon="15.105827894547215"><ele>122.0</ele><time>2026-04-15T12:49:19Z</time></trkpt><trkpt lat="36.916377802549526" lon="15.105965174414523"><ele>121.99999999999999</ele><time>2026-04-15T12:49:20Z</time></trkpt><trkpt lat="36.91633744748732" lon="15.106086674810328"><ele>121.99999999999999</ele><time>2026-04-15T12:49:21Z</time></trkpt><trkpt lat="36.916300026791816" lon="15.106206338383105"><ele>122.0</ele><time>2026-04-15T12:49:22Z</time></trkpt><trkpt lat="36.91626545374268" lon="15.106329148589197"><ele>122.0</ele><time>2026-04-15T12:49:23Z</time></trkpt><trkpt lat="36.916231481874924" lon="15.106457677391873"><ele>120.83333333333333</ele><time>2026-04-15T12:49:24Z</time></trkpt><trkpt lat="36.91619227148556" lon="15.106578593945704"><ele>119.66666666666666</ele><time>2026-04-15T12:49:25Z</time></trkpt><trkpt lat="36.91615958485089" lon="15.106684554857479"><ele>118.5</ele><time>2026-04-15T12:49:25.999Z</time></trkpt><trkpt lat="36.91613195490013" lon="15.106766494910163"><ele>117.33333333333334</ele><time>2026-04-15T12:49:26.999Z</time></trkpt><trkpt lat="36.91609549329521" lon="15.106842337479588"><ele>116.16666666666667</ele><time>2026-04-15T12:49:27.999Z</time></trkpt><trkpt lat="36.91606532248824" lon="15.106926812721717"><ele>115.0</ele><time>2026-04-15T12:49:28.999Z</time></trkpt><trkpt lat="36.91603132641576" lon="15.107008761694294"><ele>115.0</ele><time>2026-04-15T12:49:29.999Z</time></trkpt><trkpt lat="36.91598369235958" lon="15.107092047807281"><ele>115.0</ele><time>2026-04-15T12:49:30.999Z</time></trkpt><trkpt lat="36.91592374541352" lon="15.107180165763546"><ele>115.0</ele><time>2026-04-15T12:49:31.999Z</time></trkpt><trkpt lat="36.915863992409314" lon="15.107272336405883"><ele>115.0</ele><time>2026-04-15T12:49:32.999Z</time></trkpt><trkpt lat="36.915798891616745" lon="15.107375735829084"><ele>115.0</ele><time>2026-04-15T12:49:33.999Z</time></trkpt><trkpt lat="36.91573817931722" lon="15.107476522978832"><ele>115.2</ele><time>2026-04-15T12:49:34.999Z</time></trkpt><trkpt lat="36.915678760377155" lon="15.107576971377247"><ele>115.4</ele><time>2026-04-15T12:49:35.999Z</time></trkpt><trkpt lat="36.91562114154167" lon="15.107678907225194"><ele>115.6</ele><time>2026-04-15T12:49:36.999Z</time></trkpt><trkpt lat="36.915566558573154" lon="15.107780296240586"><ele>115.8</ele><time>2026-04-15T12:49:37.999Z</time></trkpt><trkpt lat="36.91551651491401" lon="15.107884824633777"><ele>116.0</ele><time>2026-04-15T12:49:38.999Z</time></trkpt><trkpt lat="36.91546996887868" lon="15.107989115167056"><ele>116.0</ele><time>2026-04-15T12:49:39.999Z</time></trkpt><trkpt lat="36.91542742429609" lon="15.108094127740017"><ele>116.0</ele><time>2026-04-15T12:49:40.999Z</time></trkpt><trkpt lat="36.91539132707177" lon="15.108203240826116"><ele>116.0</ele><time>2026-04-15T12:49:41.999Z</time></trkpt><trkpt lat="36.915360734594" lon="15.108318967529843"><ele>116.0</ele><time>2026-04-15T12:49:42.999Z</time></trkpt><trkpt lat="36.915340212511374" lon="15.108438739625688"><ele>116.0</ele><time>2026-04-15T12:49:43.999Z</time></trkpt><trkpt lat="36.91532345839584" lon="15.108557975575156"><ele>114.8</ele><time>2026-04-15T12:49:44.999Z</time></trkpt><trkpt lat="36.91531143500185" lon="15.108683751451828"><ele>113.6</ele><time>2026-04-15T12:49:45.999Z</time></trkpt><trkpt lat="36.91530076028319" lon="15.108806771780527"><ele>112.4</ele><time>2026-04-15T12:49:46.999Z</time></trkpt><trkpt lat="36.91528856650453" lon="15.108928024811732"><ele>111.2</ele><time>2026-04-15T12:49:47.999Z</time></trkpt><trkpt lat="36.91527542455983" lon="15.109051335099643"><ele>110.0</ele><time>2026-04-15T12:49:48.999Z</time></trkpt><trkpt lat="36.91526352231316" lon="15.10917515458288"><ele>109.8</ele><time>2026-04-15T12:49:49.999Z</time></trkpt><trkpt lat="36.91525375703497" lon="15.10930295364678"><ele>109.6</ele><time>2026-04-15T12:49:50.999Z</time></trkpt><trkpt lat="36.915245562233565" lon="15.10943162737264"><ele>109.4</ele><time>2026-04-15T12:49:51.999Z</time></trkpt><trkpt lat="36.91523486842999" lon="15.109562811458577"><ele>109.2</ele><time>2026-04-15T12:49:52.999Z</time></trkpt><trkpt lat="36.91522863875008" lon="15.109692816622463"><ele>109.0</ele><time>2026-04-15T12:49:53.999Z</time></trkpt><trkpt lat="36.91520572243213" lon="15.10982751534617"><ele>108.4</ele><time>2026-04-15T12:49:54.999Z</time></trkpt><trkpt lat="36.915193260909845" lon="15.109957565423652"><ele>107.80000000000001</ele><time>2026-04-15T12:49:55.999Z</time></trkpt><trkpt lat="36.91518846605508" lon="15.11008388248041"><ele>107.19999999999999</ele><time>2026-04-15T12:49:56.999Z</time></trkpt><trkpt lat="36.91519651436275" lon="15.110196820152535"><ele>106.6</ele><time>2026-04-15T12:49:57.999Z</time></trkpt><trkpt lat="36.91521378914206" lon="15.11030506259112"><ele>106.0</ele><time>2026-04-15T12:49:58.999Z</time></trkpt><trkpt lat="36.91524804180635" lon="15.110400836267663"><ele>106.0</ele><time>2026-04-15T12:49:59.999Z</time></trkpt><trkpt lat="36.91529785177415" lon="15.110491438494307"><ele>106.0</ele><time>2026-04-15T12:50:00.999Z</time></trkpt><trkpt lat="36.91535831880954" lon="15.11057770892941"><ele>106.0</ele><time>2026-04-15T12:50:01.999Z</time></trkpt><trkpt lat="36.91542767883165" lon="15.11067330892556"><ele>106.0</ele><time>2026-04-15T12:50:02.999Z</time></trkpt><trkpt lat="36.91549468561014" lon="15.110777784251894"><ele>106.0</ele><time>2026-04-15T12:50:03.999Z</time></trkpt><trkpt lat="36.91555025273323" lon="15.110889379022534"><ele>104.25</ele><time>2026-04-15T12:50:04.999Z</time></trkpt><trkpt lat="36.91560103489837" lon="15.111013664527093"><ele>102.5</ele><time>2026-04-15T12:50:05.999Z</time></trkpt><trkpt lat="36.915639907810785" lon="15.111147472999738"><ele>100.75</ele><time>2026-04-15T12:50:06.999Z</time></trkpt><trkpt lat="36.91566481203806" lon="15.111294004574319"><ele>99.0</ele><time>2026-04-15T12:50:07.999Z</time></trkpt><trkpt lat="36.91569283537583" lon="15.111442941348296"><ele>99.0</ele><time>2026-04-15T12:50:08.999Z</time></trkpt><trkpt lat="36.915720832866455" lon="15.111596821994205"><ele>99.0</ele><time>2026-04-15T12:50:09.999Z</time></trkpt><trkpt lat="36.915748223105666" lon="15.111750911212727"><ele>99.0</ele><time>2026-04-15T12:50:10.999Z</time></trkpt><trkpt lat="36.91577609969159" lon="15.111900906696164"><ele>99.0</ele><time>2026-04-15T12:50:11.999Z</time></trkpt><trkpt lat="36.915805869468564" lon="15.112045624183336"><ele>99.0</ele><time>2026-04-15T12:50:12.999Z</time></trkpt><trkpt lat="36.915832603281274" lon="15.11218861368388"><ele>99.0</ele><time>2026-04-15T12:50:13.999Z</time></trkpt><trkpt lat="36.915859446031476" lon="15.112325903468554"><ele>99.0</ele><time>2026-04-15T12:50:14.999Z</time></trkpt><trkpt lat="36.9158881383973" lon="15.112461195624366"><ele>99.0</ele><time>2026-04-15T12:50:15.999Z</time></trkpt><trkpt lat="36.91591802579219" lon="15.112596233769974"><ele>100.4</ele><time>2026-04-15T12:50:16.999Z</time></trkpt><trkpt lat="36.91594764206608" lon="15.112730462457693"><ele>101.80000000000001</ele><time>2026-04-15T12:50:17.999Z</time></trkpt><trkpt lat="36.91598279002616" lon="15.112853105426616"><ele>103.19999999999999</ele><time>2026-04-15T12:50:18.999Z</time></trkpt><trkpt lat="36.91600649055776" lon="15.11296033371895"><ele>104.6</ele><time>2026-04-15T12:50:19.999Z</time></trkpt><trkpt lat="36.91602214165277" lon="15.113054546415192"><ele>106.0</ele><time>2026-04-15T12:50:20.999Z</time></trkpt><trkpt lat="36.91602399691088" lon="15.113192305587836"><ele>106.33333333333334</ele><time>2026-04-15T12:50:22.999Z</time></trkpt><trkpt lat="36.91598468215" lon="15.11327767714487"><ele>106.66666666666667</ele><time>2026-04-15T12:50:24.999Z</time></trkpt><trkpt lat="36.915916460316424" lon="15.11334861174797"><ele>107.0</ele><time>2026-04-15T12:50:26.999Z</time></trkpt><trkpt lat="36.91585019734515" lon="15.113369198519656"><ele>107.33333333333334</ele><time>2026-04-15T12:50:27.999Z</time></trkpt><trkpt lat="36.91575894265781" lon="15.113373411469468"><ele>107.66666666666667</ele><time>2026-04-15T12:50:28.999Z</time></trkpt><trkpt lat="36.915675481246105" lon="15.113405550816298"><ele>108.0</ele><time>2026-04-15T12:50:29.999Z</time></trkpt><trkpt lat="36.91558679694741" lon="15.113457096807972"><ele>106.60000000000001</ele><time>2026-04-15T12:50:30.999Z</time></trkpt><trkpt lat="36.91551800964281" lon="15.11353856706116"><ele>105.20000000000002</ele><time>2026-04-15T12:50:31.999Z</time></trkpt><trkpt lat="36.9154741925277" lon="15.113639272555613"><ele>103.8</ele><time>2026-04-15T12:50:32.999Z</time></trkpt><trkpt lat="36.91544574300465" lon="15.113747021847576"><ele>102.4</ele><time>2026-04-15T12:50:33.999Z</time></trkpt><trkpt lat="36.91541119332752" lon="15.11384839302988"><ele>101.0</ele><time>2026-04-15T12:50:34.999Z</time></trkpt><trkpt lat="36.91538051627137" lon="15.113949206860807"><ele>101.0</ele><time>2026-04-15T12:50:35.999Z</time></trkpt><trkpt lat="36.915347312881735" lon="15.114055510259583"><ele>101.0</ele><time>2026-04-15T12:50:36.999Z</time></trkpt><trkpt lat="36.9153129490342" lon="15.11416511294041"><ele>101.0</ele><time>2026-04-15T12:50:37.999Z</time></trkpt><trkpt lat="36.91527674506356" lon="15.114283183675795"><ele>101.0</ele><time>2026-04-15T12:50:38.999Z</time></trkpt><trkpt lat="36.91523813728099" lon="15.114403778303913"><ele>101.0</ele><time>2026-04-15T12:50:40Z</time></trkpt><trkpt lat="36.915195503057376" lon="15.114535785125707"><ele>101.19999999999999</ele><time>2026-04-15T12:50:41Z</time></trkpt><trkpt lat="36.91515532926793" lon="15.114660546719255"><ele>101.39999999999999</ele><time>2026-04-15T12:50:42Z</time></trkpt><trkpt lat="36.91511872951896" lon="15.114783180747029"><ele>101.6</ele><time>2026-04-15T12:50:43Z</time></trkpt><trkpt lat="36.91508576986324" lon="15.114904256648114"><ele>101.8</ele><time>2026-04-15T12:50:44Z</time></trkpt><trkpt lat="36.915050775428185" lon="15.115025135591678"><ele>102.0</ele><time>2026-04-15T12:50:45Z</time></trkpt><trkpt lat="36.9150133690711" lon="15.115148294954999"><ele>100.25</ele><time>2026-04-15T12:50:46Z</time></trkpt><trkpt lat="36.91497341031312" lon="15.11527624302998"><ele>98.5</ele><time>2026-04-15T12:50:47Z</time></trkpt><trkpt lat="36.9149337850593" lon="15.115408396712349"><ele>96.75</ele><time>2026-04-15T12:50:48Z</time></trkpt><trkpt lat="36.914893873898635" lon="15.115541434505785"><ele>95.0</ele><time>2026-04-15T12:50:49Z</time></trkpt><trkpt lat="36.91485178075012" lon="15.11567721342846"><ele>94.75</ele><time>2026-04-15T12:50:50Z</time></trkpt><trkpt lat="36.914807718006564" lon="15.11581265226442"><ele>94.5</ele><time>2026-04-15T12:50:51Z</time></trkpt><trkpt lat="36.914763977082295" lon="15.115948897315757"><ele>94.25</ele><time>2026-04-15T12:50:52Z</time></trkpt><trkpt lat="36.914721830070015" lon="15.116087128563029"><ele>94.0</ele><time>2026-04-15T12:50:53Z</time></trkpt><trkpt lat="36.91468637323593" lon="15.116229942951277"><ele>94.0</ele><time>2026-04-15T12:50:54Z</time></trkpt><trkpt lat="36.91465697093107" lon="15.116375495063885"><ele>94.0</ele><time>2026-04-15T12:50:55Z</time></trkpt><trkpt lat="36.91462701881938" lon="15.116523406279464"><ele>94.0</ele><time>2026-04-15T12:50:56Z</time></trkpt><trkpt lat="36.91459208710013" lon="15.116663412028851"><ele>94.0</ele><time>2026-04-15T12:50:57Z</time></trkpt><trkpt lat="36.91454112243846" lon="15.116788310435597"><ele>92.75</ele><time>2026-04-15T12:50:58Z</time></trkpt><trkpt lat="36.914481454334194" lon="15.11690282030271"><ele>91.5</ele><time>2026-04-15T12:50:59Z</time></trkpt><trkpt lat="36.91440524264846" lon="15.117007030742077"><ele>90.25</ele><time>2026-04-15T12:51:00Z</time></trkpt><trkpt lat="36.914323932806155" lon="15.117117402865382"><ele>89.0</ele><time>2026-04-15T12:51:01Z</time></trkpt><trkpt lat="36.91424648360487" lon="15.117243090744967"><ele>89.25</ele><time>2026-04-15T12:51:02Z</time></trkpt><trkpt lat="36.91416623158892" lon="15.117378113615818"><ele>89.5</ele><time>2026-04-15T12:51:03Z</time></trkpt><trkpt lat="36.91408135659485" lon="15.117513920123946"><ele>89.75</ele><time>2026-04-15T12:51:04Z</time></trkpt><trkpt lat="36.91400013701213" lon="15.117653392437312"><ele>90.0</ele><time>2026-04-15T12:51:05Z</time></trkpt><trkpt lat="36.91392304710078" lon="15.117798352323613"><ele>89.0</ele><time>2026-04-15T12:51:06Z</time></trkpt><trkpt lat="36.91385095753761" lon="15.117947460843137"><ele>88.0</ele><time>2026-04-15T12:51:07Z</time></trkpt><trkpt lat="36.91378870365399" lon="15.118094322195033"><ele>87.0</ele><time>2026-04-15T12:51:08Z</time></trkpt><trkpt lat="36.913730865053594" lon="15.118236127543463"><ele>86.0</ele><time>2026-04-15T12:51:09Z</time></trkpt><trkpt lat="36.913668384556125" lon="15.118376525584521"><ele>85.0</ele><time>2026-04-15T12:51:10Z</time></trkpt><trkpt lat="36.913605085449994" lon="15.118515991673185"><ele>84.0</ele><time>2026-04-15T12:51:11Z</time></trkpt><trkpt lat="36.91354247808748" lon="15.118657971510375"><ele>83.0</ele><time>2026-04-15T12:51:12Z</time></trkpt><trkpt lat="36.913480162287996" lon="15.118806266382812"><ele>82.0</ele><time>2026-04-15T12:51:13Z</time></trkpt><trkpt lat="36.91341829418255" lon="15.118954299635275"><ele>81.0</ele><time>2026-04-15T12:51:14Z</time></trkpt><trkpt lat="36.913358051141664" lon="15.119095404049974"><ele>80.0</ele><time>2026-04-15T12:51:15Z</time></trkpt><trkpt lat="36.91330421150732" lon="15.119231519039115"><ele>79.0</ele><time>2026-04-15T12:51:16Z</time></trkpt><trkpt lat="36.9132491139188" lon="15.119364823164206"><ele>78.0</ele><time>2026-04-15T12:51:17Z</time></trkpt><trkpt lat="36.91319275814019" lon="15.11949417905314"><ele>78.0</ele><time>2026-04-15T12:51:18Z</time></trkpt><trkpt lat="36.91314192104579" lon="15.11962796670499"><ele>78.0</ele><time>2026-04-15T12:51:19Z</time></trkpt><trkpt lat="36.91309354775422" lon="15.119770088825337"><ele>78.0</ele><time>2026-04-15T12:51:20Z</time></trkpt><trkpt lat="36.913038894615724" lon="15.11990480867462"><ele>78.0</ele><time>2026-04-15T12:51:21Z</time></trkpt><trkpt lat="36.9129551803397" lon="15.120031928865371"><ele>78.0</ele><time>2026-04-15T12:51:22Z</time></trkpt><trkpt lat="36.912854410474864" lon="15.120133640937357"><ele>78.0</ele><time>2026-04-15T12:51:23Z</time></trkpt><trkpt lat="36.91275091765267" lon="15.12023815964238"><ele>78.0</ele><time>2026-04-15T12:51:24Z</time></trkpt><trkpt lat="36.91264943003004" lon="15.12036680907564"><ele>78.0</ele><time>2026-04-15T12:51:25Z</time></trkpt><trkpt lat="36.91254379214406" lon="15.120520232701981"><ele>78.0</ele><time>2026-04-15T12:51:26Z</time></trkpt><trkpt lat="36.91242079260247" lon="15.120703928429245"><ele>78.0</ele><time>2026-04-15T12:51:26.999Z</time></trkpt><trkpt lat="36.91227915208186" lon="15.120906778112197"><ele>78.0</ele><time>2026-04-15T12:51:27.999Z</time></trkpt><trkpt lat="36.91214010160873" lon="15.121108011679794"><ele>76.66666666666667</ele><time>2026-04-15T12:51:28.999Z</time></trkpt><trkpt lat="36.91199958071766" lon="15.121311981454763"><ele>75.33333333333334</ele><time>2026-04-15T12:51:29.999Z</time></trkpt><trkpt lat="36.91186763687187" lon="15.121495350277806"><ele>74.0</ele><time>2026-04-15T12:51:30.999Z</time></trkpt><trkpt lat="36.911757504646765" lon="15.121673038182964"><ele>73.0</ele><time>2026-04-15T12:51:31.999Z</time></trkpt><trkpt lat="36.91164906548332" lon="15.121845091743669"><ele>72.0</ele><time>2026-04-15T12:51:32.999Z</time></trkpt><trkpt lat="36.911532280673846" lon="15.12201500964972"><ele>71.0</ele><time>2026-04-15T12:51:33.999Z</time></trkpt><trkpt lat="36.91142982669213" lon="15.122170372098694"><ele>71.0</ele><time>2026-04-15T12:51:34.999Z</time></trkpt><trkpt lat="36.91134363286429" lon="15.122303146025317"><ele>71.0</ele><time>2026-04-15T12:51:35.999Z</time></trkpt><trkpt lat="36.91127497928257" lon="15.122417583040866"><ele>71.0</ele><time>2026-04-15T12:51:36.999Z</time></trkpt><trkpt lat="36.91122272834293" lon="15.122501806157914"><ele>71.0</ele><time>2026-04-15T12:51:37.999Z</time></trkpt><trkpt lat="36.911180666249415" lon="15.12257793141097"><ele>71.0</ele><time>2026-04-15T12:51:38.999Z</time></trkpt><trkpt lat="36.91115113188879" lon="15.122648850828186"><ele>70.5</ele><time>2026-04-15T12:51:39.999Z</time></trkpt><trkpt lat="36.91113834199856" lon="15.122732300581964"><ele>70.0</ele><time>2026-04-15T12:51:40.999Z</time></trkpt><trkpt lat="36.911150757761234" lon="15.12286108895377"><ele>69.5</ele><time>2026-04-15T12:51:41.999Z</time></trkpt><trkpt lat="36.91114647531657" lon="15.123031851957725"><ele>69.0</ele><time>2026-04-15T12:51:42.999Z</time></trkpt><trkpt lat="36.91114465394805" lon="15.123254311385036"><ele>68.33333333333333</ele><time>2026-04-15T12:51:43.999Z</time></trkpt><trkpt lat="36.91114482698308" lon="15.123471403295175"><ele>67.66666666666666</ele><time>2026-04-15T12:51:44.999Z</time></trkpt><trkpt lat="36.91114543028795" lon="15.12372331558994"><ele>67.0</ele><time>2026-04-15T12:51:45.999Z</time></trkpt><trkpt lat="36.91114396524839" lon="15.123997880874674"><ele>66.0</ele><time>2026-04-15T12:51:46.999Z</time></trkpt><trkpt lat="36.91114392400315" lon="15.12425116521819"><ele>65.0</ele><time>2026-04-15T12:51:47.999Z</time></trkpt><trkpt lat="36.911147644248636" lon="15.124487772051417"><ele>64.0</ele><time>2026-04-15T12:51:48.999Z</time></trkpt><trkpt lat="36.91114780467421" lon="15.124710228906594"><ele>63.33333333333333</ele><time>2026-04-15T12:51:49.999Z</time></trkpt><trkpt lat="36.9111510695284" lon="15.124926558016838"><ele>62.66666666666667</ele><time>2026-04-15T12:51:50.999Z</time></trkpt><trkpt lat="36.91115283302175" lon="15.125126571859377"><ele>62.0</ele><time>2026-04-15T12:51:51.999Z</time></trkpt><trkpt lat="36.91115496435848" lon="15.125322164622888"><ele>62.0</ele><time>2026-04-15T12:51:52.999Z</time></trkpt><trkpt lat="36.91115764009001" lon="15.125492905497868"><ele>62.0</ele><time>2026-04-15T12:51:53.999Z</time></trkpt><trkpt lat="36.91116412624681" lon="15.125638982971187"><ele>62.0</ele><time>2026-04-15T12:51:54.999Z</time></trkpt><trkpt lat="36.91117243457324" lon="15.125791147757724"><ele>62.0</ele><time>2026-04-15T12:51:55.999Z</time></trkpt><trkpt lat="36.91117153952668" lon="15.125934616086331"><ele>61.400000000000006</ele><time>2026-04-15T12:51:56.999Z</time></trkpt><trkpt lat="36.911165845420484" lon="15.126060684252137"><ele>60.800000000000004</ele><time>2026-04-15T12:51:57.999Z</time></trkpt><trkpt lat="36.91117148328749" lon="15.126169523161925"><ele>60.2</ele><time>2026-04-15T12:51:58.999Z</time></trkpt><trkpt lat="36.91118093068154" lon="15.12628439788592"><ele>59.6</ele><time>2026-04-15T12:51:59.999Z</time></trkpt><trkpt lat="36.9111867746632" lon="15.126410055058725"><ele>59.0</ele><time>2026-04-15T12:52:00.999Z</time></trkpt><trkpt lat="36.911180363843236" lon="15.126504697756044"><ele>58.800000000000004</ele><time>2026-04-15T12:52:01.999Z</time></trkpt><trkpt lat="36.911160966314476" lon="15.12660691510197"><ele>58.60000000000001</ele><time>2026-04-15T12:52:03.999Z</time></trkpt><trkpt lat="36.91115691456377" lon="15.126687989781395"><ele>58.4</ele><time>2026-04-15T12:52:04.999Z</time></trkpt><trkpt lat="36.91115730724793" lon="15.126829032675825"><ele>58.2</ele><time>2026-04-15T12:52:05.999Z</time></trkpt><trkpt lat="36.91115835290956" lon="15.12696410561374"><ele>58.0</ele><time>2026-04-15T12:52:06.999Z</time></trkpt><trkpt lat="36.911159198340414" lon="15.127096987901343"><ele>58.0</ele><time>2026-04-15T12:52:07.999Z</time></trkpt><trkpt lat="36.91116175147054" lon="15.127250383714806"><ele>58.0</ele><time>2026-04-15T12:52:08.999Z</time></trkpt><trkpt lat="36.91116247598567" lon="15.127418018396087"><ele>58.0</ele><time>2026-04-15T12:52:09.999Z</time></trkpt><trkpt lat="36.91115739140353" lon="15.12762051219749"><ele>58.0</ele><time>2026-04-15T12:52:10.999Z</time></trkpt><trkpt lat="36.911157623788" lon="15.127827154936917"><ele>57.5</ele><time>2026-04-15T12:52:11.999Z</time></trkpt><trkpt lat="36.911152331057764" lon="15.128037731616816"><ele>57.0</ele><time>2026-04-15T12:52:12.999Z</time></trkpt><trkpt lat="36.91115168624728" lon="15.128213778811075"><ele>56.5</ele><time>2026-04-15T12:52:13.999Z</time></trkpt><trkpt lat="36.91115153131665" lon="15.128378400741587"><ele>56.0</ele><time>2026-04-15T12:52:14.999Z</time></trkpt><trkpt lat="36.91115056366432" lon="15.128532882985215"><ele>56.0</ele><time>2026-04-15T12:52:15.999Z</time></trkpt><trkpt lat="36.9111578967763" lon="15.12867485591601"><ele>55.99999999999999</ele><time>2026-04-15T12:52:16.999Z</time></trkpt><trkpt lat="36.91116266249132" lon="15.128817707590377"><ele>55.99999999999999</ele><time>2026-04-15T12:52:17.999Z</time></trkpt><trkpt lat="36.91116546236072" lon="15.128961749058467"><ele>56.0</ele><time>2026-04-15T12:52:18.999Z</time></trkpt><trkpt lat="36.911160662028884" lon="15.129092118367229"><ele>56.0</ele><time>2026-04-15T12:52:19.999Z</time></trkpt><trkpt lat="36.91115436532434" lon="15.129206120099523"><ele>56.00000000000001</ele><time>2026-04-15T12:52:20.999Z</time></trkpt><trkpt lat="36.911137856401716" lon="15.129301257114088"><ele>56.0</ele><time>2026-04-15T12:52:21.999Z</time></trkpt><trkpt lat="36.91109998856745" lon="15.12943558769943"><ele>56.0</ele><time>2026-04-15T12:52:23.999Z</time></trkpt><trkpt lat="36.911047668649324" lon="15.129490527279168"><ele>56.0</ele><time>2026-04-15T12:52:25.999Z</time></trkpt><trkpt lat="36.91096924253944" lon="15.129453255311992"><ele>56.00000000000001</ele><time>2026-04-15T12:52:27.999Z</time></trkpt><trkpt lat="36.910887791094915" lon="15.12942721425701"><ele>56.0</ele><time>2026-04-15T12:52:29.999Z</time></trkpt><trkpt lat="36.910807996068314" lon="15.129388410017153"><ele>55.8</ele><time>2026-04-15T12:52:31.999Z</time></trkpt><trkpt lat="36.91072958708835" lon="15.129332812114221"><ele>55.599999999999994</ele><time>2026-04-15T12:52:33.999Z</time></trkpt><trkpt lat="36.91065465753492" lon="15.129304813962449"><ele>55.4</ele><time>2026-04-15T12:52:37.999Z</time></trkpt><trkpt lat="36.91059262451605" lon="15.129259752748625"><ele>55.2</ele><time>2026-04-15T12:52:38.999Z</time></trkpt><trkpt lat="36.91048847238145" lon="15.12921839257511"><ele>55.0</ele><time>2026-04-15T12:52:39.999Z</time></trkpt><trkpt lat="36.91036506199992" lon="15.129134063245447"><ele>55.0</ele><time>2026-04-15T12:52:40.999Z</time></trkpt><trkpt lat="36.91021930419549" lon="15.129051999769116"><ele>55.0</ele><time>2026-04-15T12:52:41.999Z</time></trkpt><trkpt lat="36.91001754064831" lon="15.12895731379312"><ele>55.0</ele><time>2026-04-15T12:52:42.999Z</time></trkpt><trkpt lat="36.90982441388195" lon="15.1288627537926"><ele>55.0</ele><time>2026-04-15T12:52:43.999Z</time></trkpt><trkpt lat="36.90965255977982" lon="15.128765880918863"><ele>55.0</ele><time>2026-04-15T12:52:44.999Z</time></trkpt><trkpt lat="36.9094862851128" lon="15.128680877813052"><ele>55.0</ele><time>2026-04-15T12:52:46Z</time></trkpt><trkpt lat="36.909328365545704" lon="15.128602697694996"><ele>55.666666666666664</ele><time>2026-04-15T12:52:47Z</time></trkpt><trkpt lat="36.90919340663426" lon="15.12851759325616"><ele>56.33333333333333</ele><time>2026-04-15T12:52:48Z</time></trkpt><trkpt lat="36.909066176426194" lon="15.128419968720593"><ele>57.0</ele><time>2026-04-15T12:52:49Z</time></trkpt><trkpt lat="36.908923090151895" lon="15.12834217609966"><ele>57.0</ele><time>2026-04-15T12:52:50Z</time></trkpt><trkpt lat="36.90880604372765" lon="15.128273372961905"><ele>57.0</ele><time>2026-04-15T12:52:51Z</time></trkpt><trkpt lat="36.90869734333723" lon="15.128209255359975"><ele>57.0</ele><time>2026-04-15T12:52:52Z</time></trkpt><trkpt lat="36.90859588621233" lon="15.128146061672773"><ele>57.0</ele><time>2026-04-15T12:52:53Z</time></trkpt><trkpt lat="36.90850180946451" lon="15.128096037284838"><ele>57.166666666666664</ele><time>2026-04-15T12:52:54Z</time></trkpt><trkpt lat="36.90841963197901" lon="15.128036085330432"><ele>57.33333333333333</ele><time>2026-04-15T12:52:55Z</time></trkpt><trkpt lat="36.90834990935659" lon="15.128006495095034"><ele>57.5</ele><time>2026-04-15T12:52:56Z</time></trkpt><trkpt lat="36.90828753556787" lon="15.127964061856064"><ele>57.666666666666664</ele><time>2026-04-15T12:52:57Z</time></trkpt><trkpt lat="36.90823080310616" lon="15.127928668228419"><ele>57.83333333333333</ele><time>2026-04-15T12:52:58Z</time></trkpt><trkpt lat="36.90813403066174" lon="15.127865420056995"><ele>58.0</ele><time>2026-04-15T12:53:00Z</time></trkpt><trkpt lat="36.90806441636221" lon="15.127809669994235"><ele>58.0</ele><time>2026-04-15T12:53:02Z</time></trkpt><trkpt lat="36.90799144010567" lon="15.127774379443222"><ele>58.0</ele><time>2026-04-15T12:53:07Z</time></trkpt><trkpt lat="36.90791983700041" lon="15.127828683475343"><ele>58.0</ele><time>2026-04-15T12:53:12Z</time></trkpt><trkpt lat="36.90795431435138" lon="15.128005239945844"><ele>58.0</ele><time>2026-04-15T12:53:14Z</time></trkpt><trkpt lat="36.90797068270942" lon="15.128085073173793"><ele>58.0</ele><time>2026-04-15T12:53:15Z</time></trkpt><trkpt lat="36.90801513842433" lon="15.128237352955804"><ele>57.4</ele><time>2026-04-15T12:53:17Z</time></trkpt><trkpt lat="36.90802880431006" lon="15.128327964075847"><ele>56.8</ele><time>2026-04-15T12:53:18Z</time></trkpt><trkpt lat="36.90803980963757" lon="15.12842314128587"><ele>56.2</ele><time>2026-04-15T12:53:19Z</time></trkpt><trkpt lat="36.90805705596904" lon="15.128540305498737"><ele>55.6</ele><time>2026-04-15T12:53:20Z</time></trkpt><trkpt lat="36.908083059506104" lon="15.128699279202632"><ele>55.0</ele><time>2026-04-15T12:53:21Z</time></trkpt><trkpt lat="36.90812285021956" lon="15.128873216147275"><ele>54.33333333333333</ele><time>2026-04-15T12:53:22Z</time></trkpt><trkpt lat="36.90817406289624" lon="15.129066907661365"><ele>53.66666666666667</ele><time>2026-04-15T12:53:23Z</time></trkpt><trkpt lat="36.90823148382948" lon="15.129272475212503"><ele>53.0</ele><time>2026-04-15T12:53:24Z</time></trkpt><trkpt lat="36.9082667218809" lon="15.129485509233728"><ele>53.0</ele><time>2026-04-15T12:53:25Z</time></trkpt><trkpt lat="36.908318329619135" lon="15.129678556014298"><ele>53.0</ele><time>2026-04-15T12:53:26Z</time></trkpt><trkpt lat="36.90835831144192" lon="15.129867423777773"><ele>53.0</ele><time>2026-04-15T12:53:27Z</time></trkpt><trkpt lat="36.90839755759928" lon="15.130054966893614"><ele>53.0</ele><time>2026-04-15T12:53:28Z</time></trkpt><trkpt lat="36.90843515941575" lon="15.130228284350235"><ele>53.0</ele><time>2026-04-15T12:53:28.999Z</time></trkpt><trkpt lat="36.908470878087705" lon="15.13039476402406"><ele>53.0</ele><time>2026-04-15T12:53:29.999Z</time></trkpt><trkpt lat="36.908501645595706" lon="15.130552241321903"><ele>53.0</ele><time>2026-04-15T12:53:30.999Z</time></trkpt><trkpt lat="36.90852852608386" lon="15.130707330937296"><ele>52.25</ele><time>2026-04-15T12:53:31.999Z</time></trkpt><trkpt lat="36.90857063054254" lon="15.1308647309505"><ele>51.5</ele><time>2026-04-15T12:53:32.999Z</time></trkpt><trkpt lat="36.90860550067678" lon="15.131026498287714"><ele>50.75</ele><time>2026-04-15T12:53:33.999Z</time></trkpt><trkpt lat="36.90864154716386" lon="15.131193348454243"><ele>50.0</ele><time>2026-04-15T12:53:34.999Z</time></trkpt><trkpt lat="36.90868144452928" lon="15.13134879851702"><ele>50.0</ele><time>2026-04-15T12:53:35.999Z</time></trkpt><trkpt lat="36.90871999597791" lon="15.131492277049645"><ele>50.0</ele><time>2026-04-15T12:53:36.999Z</time></trkpt><trkpt lat="36.908750650261936" lon="15.13162773655013"><ele>50.0</ele><time>2026-04-15T12:53:37.999Z</time></trkpt><trkpt lat="36.90878076466862" lon="15.13175364663462"><ele>50.0</ele><time>2026-04-15T12:53:38.999Z</time></trkpt><trkpt lat="36.90880188782959" lon="15.131870206692632"><ele>50.0</ele><time>2026-04-15T12:53:39.999Z</time></trkpt><trkpt lat="36.90883519079601" lon="15.13198235613806"><ele>50.0</ele><time>2026-04-15T12:53:40.999Z</time></trkpt><trkpt lat="36.90886979922747" lon="15.132106489290127"><ele>50.0</ele><time>2026-04-15T12:53:41.999Z</time></trkpt><trkpt lat="36.90890822173525" lon="15.132252075827836"><ele>50.0</ele><time>2026-04-15T12:53:42.999Z</time></trkpt><trkpt lat="36.908933533432794" lon="15.132389306906902"><ele>50.0</ele><time>2026-04-15T12:53:43.999Z</time></trkpt><trkpt lat="36.90894831092606" lon="15.132514105931362"><ele>50.0</ele><time>2026-04-15T12:53:44.999Z</time></trkpt><trkpt lat="36.90897354830573" lon="15.132630877303551"><ele>49.833333333333336</ele><time>2026-04-15T12:53:45.999Z</time></trkpt><trkpt lat="36.90900060824179" lon="15.132745418934764"><ele>49.66666666666667</ele><time>2026-04-15T12:53:46.999Z</time></trkpt><trkpt lat="36.90902743358375" lon="15.13285397727655"><ele>49.5</ele><time>2026-04-15T12:53:47.999Z</time></trkpt><trkpt lat="36.90905501148145" lon="15.132958895451521"><ele>49.33333333333333</ele><time>2026-04-15T12:53:48.999Z</time></trkpt><trkpt lat="36.9090812517348" lon="15.133062342733872"><ele>49.166666666666664</ele><time>2026-04-15T12:53:49.999Z</time></trkpt><trkpt lat="36.90909783122113" lon="15.133149335381052"><ele>49.0</ele><time>2026-04-15T12:53:50.999Z</time></trkpt><trkpt lat="36.909122501293744" lon="15.133304658955069"><ele>48.6</ele><time>2026-04-15T12:53:52.999Z</time></trkpt><trkpt lat="36.909155744700705" lon="15.13341434269437"><ele>48.2</ele><time>2026-04-15T12:53:53.999Z</time></trkpt><trkpt lat="36.909187763566116" lon="15.133568198940788"><ele>47.800000000000004</ele><time>2026-04-15T12:53:54.999Z</time></trkpt><trkpt lat="36.90922460024187" lon="15.133710057464473"><ele>47.400000000000006</ele><time>2026-04-15T12:53:55.999Z</time></trkpt><trkpt lat="36.9092518178756" lon="15.133828236233748"><ele>47.0</ele><time>2026-04-15T12:53:56.999Z</time></trkpt><trkpt lat="36.909282233751775" lon="15.133936830358829"><ele>47.0</ele><time>2026-04-15T12:53:57.999Z</time></trkpt><trkpt lat="36.90929234238832" lon="15.134038457858603"><ele>47.0</ele><time>2026-04-15T12:53:58.999Z</time></trkpt><trkpt lat="36.909316883584864" lon="15.13414974426664"><ele>47.0</ele><time>2026-04-15T12:53:59.999Z</time></trkpt><trkpt lat="36.90933658004785" lon="15.134275778942264"><ele>47.0</ele><time>2026-04-15T12:54:00.999Z</time></trkpt><trkpt lat="36.90936194650295" lon="15.134387100592999"><ele>47.0</ele><time>2026-04-15T12:54:01.999Z</time></trkpt><trkpt lat="36.90938294628554" lon="15.134495430988721"><ele>47.0</ele><time>2026-04-15T12:54:02.999Z</time></trkpt><trkpt lat="36.909391204425454" lon="15.134590264117355"><ele>47.0</ele><time>2026-04-15T12:54:03.999Z</time></trkpt><trkpt lat="36.90942386803489" lon="15.134673347531473"><ele>47.0</ele><time>2026-04-15T12:54:04.999Z</time></trkpt><trkpt lat="36.909442619243926" lon="15.134751397019794"><ele>47.0</ele><time>2026-04-15T12:54:05.999Z</time></trkpt><trkpt lat="36.90947014102155" lon="15.134896918086232"><ele>47.0</ele><time>2026-04-15T12:54:07.999Z</time></trkpt><trkpt lat="36.909462092970934" lon="15.135007765876727"><ele>47.0</ele><time>2026-04-15T12:54:09.999Z</time></trkpt><trkpt lat="36.90930611332773" lon="15.135052936915969"><ele>46.666666666666664</ele><time>2026-04-15T12:54:12.999Z</time></trkpt><trkpt lat="36.90922500660957" lon="15.13507638688316"><ele>46.33333333333333</ele><time>2026-04-15T12:54:13.999Z</time></trkpt><trkpt lat="36.90916517655715" lon="15.135107962753022"><ele>46.0</ele><time>2026-04-15T12:54:14.999Z</time></trkpt><trkpt lat="36.90909621567772" lon="15.135147076856978"><ele>45.666666666666664</ele><time>2026-04-15T12:54:16.999Z</time></trkpt><trkpt lat="36.909010900223805" lon="15.135181983406989"><ele>45.333333333333336</ele><time>2026-04-15T12:54:19.999Z</time></trkpt><trkpt lat="36.908930353312066" lon="15.135217590863547"><ele>45.0</ele><time>2026-04-15T12:54:22.999Z</time></trkpt><trkpt lat="36.90885712549192" lon="15.135240145863325"><ele>45.0</ele><time>2026-04-15T12:54:25.999Z</time></trkpt><trkpt lat="36.90874169320515" lon="15.135277384370703"><ele>45.0</ele><time>2026-04-15T12:54:27.999Z</time></trkpt><trkpt lat="36.908646557831" lon="15.13532275869543"><ele>45.0</ele><time>2026-04-15T12:54:29.999Z</time></trkpt><trkpt lat="36.90856984048077" lon="15.135352157266563"><ele>45.0</ele><time>2026-04-15T12:54:31.999Z</time></trkpt><trkpt lat="36.908500997722754" lon="15.13537174158579"><ele>45.0</ele><time>2026-04-15T12:54:33.999Z</time></trkpt><trkpt lat="36.90841792887145" lon="15.135395692881271"><ele>44.833333333333336</ele><time>2026-04-15T12:54:35.999Z</time></trkpt><trkpt lat="36.908348072534785" lon="15.135422815917936"><ele>44.666666666666664</ele><time>2026-04-15T12:54:37.999Z</time></trkpt><trkpt lat="36.90828032508278" lon="15.135455089055855"><ele>44.5</ele><time>2026-04-15T12:54:39.999Z</time></trkpt><trkpt lat="36.90820139682885" lon="15.135462058663576"><ele>44.33333333333333</ele><time>2026-04-15T12:54:43.999Z</time></trkpt><trkpt lat="36.90813691449397" lon="15.135494586720739"><ele>44.166666666666664</ele><time>2026-04-15T12:54:45.999Z</time></trkpt><trkpt lat="36.90806094953661" lon="15.135525367601153"><ele>44.0</ele><time>2026-04-15T12:54:47.999Z</time></trkpt><trkpt lat="36.90797440767132" lon="15.13553148580507"><ele>44.0</ele><time>2026-04-15T12:54:48.999Z</time></trkpt><trkpt lat="36.90786230166344" lon="15.13556602723702"><ele>44.0</ele><time>2026-04-15T12:54:49.999Z</time></trkpt><trkpt lat="36.90774512788538" lon="15.135608808976082"><ele>44.0</ele><time>2026-04-15T12:54:50.999Z</time></trkpt><trkpt lat="36.907646915910505" lon="15.13564318337497"><ele>44.0</ele><time>2026-04-15T12:54:52Z</time></trkpt><trkpt lat="36.90757695935179" lon="15.135689230820716"><ele>44.0</ele><time>2026-04-15T12:54:53Z</time></trkpt><trkpt lat="36.90750210021237" lon="15.13569434436128"><ele>43.2</ele><time>2026-04-15T12:54:54Z</time></trkpt><trkpt lat="36.90743723528624" lon="15.13573592354732"><ele>42.400000000000006</ele><time>2026-04-15T12:54:55Z</time></trkpt><trkpt lat="36.90735089611887" lon="15.135760414413326"><ele>41.6</ele><time>2026-04-15T12:54:56Z</time></trkpt><trkpt lat="36.90725178214064" lon="15.135787564129549"><ele>40.8</ele><time>2026-04-15T12:54:57Z</time></trkpt><trkpt lat="36.907153561656024" lon="15.135826205835263"><ele>40.0</ele><time>2026-04-15T12:54:58Z</time></trkpt><trkpt lat="36.90706923781125" lon="15.135850141552938"><ele>40.0</ele><time>2026-04-15T12:54:59Z</time></trkpt><trkpt lat="36.90699278233579" lon="15.135879635922333"><ele>40.0</ele><time>2026-04-15T12:55:00Z</time></trkpt><trkpt lat="36.90691057448646" lon="15.135931539573772"><ele>40.0</ele><time>2026-04-15T12:55:01Z</time></trkpt><trkpt lat="36.90679790300708" lon="15.135956534195476"><ele>40.0</ele><time>2026-04-15T12:55:03Z</time></trkpt><trkpt lat="36.90673773136303" lon="15.135982436395127"><ele>40.0</ele><time>2026-04-15T12:55:04Z</time></trkpt><trkpt lat="36.90666986586537" lon="15.136005799014919"><ele>40.0</ele><time>2026-04-15T12:55:05Z</time></trkpt><trkpt lat="36.9065903527885" lon="15.1360299548892"><ele>39.8</ele><time>2026-04-15T12:55:06Z</time></trkpt><trkpt lat="36.90650212594998" lon="15.136056905872676"><ele>39.6</ele><time>2026-04-15T12:55:07Z</time></trkpt><trkpt lat="36.90641510706417" lon="15.13608428109809"><ele>39.4</ele><time>2026-04-15T12:55:08Z</time></trkpt><trkpt lat="36.906324421050115" lon="15.136107048496555"><ele>39.2</ele><time>2026-04-15T12:55:09Z</time></trkpt><trkpt lat="36.90620853610922" lon="15.136142694500483"><ele>39.0</ele><time>2026-04-15T12:55:10Z</time></trkpt><trkpt lat="36.9061054216515" lon="15.136165054218718"><ele>39.0</ele><time>2026-04-15T12:55:11Z</time></trkpt><trkpt lat="36.90601782818483" lon="15.136234601113872"><ele>39.0</ele><time>2026-04-15T12:55:12Z</time></trkpt><trkpt lat="36.905915122925315" lon="15.136275255305156"><ele>39.0</ele><time>2026-04-15T12:55:13Z</time></trkpt><trkpt lat="36.90581305760347" lon="15.136306262441696"><ele>39.0</ele><time>2026-04-15T12:55:14Z</time></trkpt><trkpt lat="36.90570800248412" lon="15.13632935936991"><ele>39.0</ele><time>2026-04-15T12:55:15Z</time></trkpt><trkpt lat="36.90561730169689" lon="15.1363565410495"><ele>38.8</ele><time>2026-04-15T12:55:16Z</time></trkpt><trkpt lat="36.90554215432532" lon="15.13638550007129"><ele>38.599999999999994</ele><time>2026-04-15T12:55:17Z</time></trkpt><trkpt lat="36.905474544361944" lon="15.136411921940478"><ele>38.4</ele><time>2026-04-15T12:55:18Z</time></trkpt><trkpt lat="36.90540998426855" lon="15.136431852749343"><ele>38.199999999999996</ele><time>2026-04-15T12:55:19Z</time></trkpt><trkpt lat="36.90529649648306" lon="15.136466998679175"><ele>38.0</ele><time>2026-04-15T12:55:21Z</time></trkpt><trkpt lat="36.905181789372" lon="15.13650562554882"><ele>38.0</ele><time>2026-04-15T12:55:23Z</time></trkpt><trkpt lat="36.905117648382415" lon="15.136525108252378"><ele>38.0</ele><time>2026-04-15T12:55:24Z</time></trkpt><trkpt lat="36.90499497132586" lon="15.136557770374006"><ele>38.0</ele><time>2026-04-15T12:55:26Z</time></trkpt><trkpt lat="36.90488514639278" lon="15.136600296208954"><ele>38.0</ele><time>2026-04-15T12:55:28Z</time></trkpt><trkpt lat="36.904785323498125" lon="15.136628197486006"><ele>38.0</ele><time>2026-04-15T12:55:30Z</time></trkpt><trkpt lat="36.904696534557935" lon="15.136678915492011"><ele>37.75</ele><time>2026-04-15T12:55:32Z</time></trkpt><trkpt lat="36.904668788717196" lon="15.136893136529338"><ele>37.5</ele><time>2026-04-15T12:55:33.999Z</time></trkpt><trkpt lat="36.90466625670461" lon="15.137027568303813"><ele>37.25</ele><time>2026-04-15T12:55:34.999Z</time></trkpt><trkpt lat="36.904619896312255" lon="15.137173012758694"><ele>37.0</ele><time>2026-04-15T12:55:35.999Z</time></trkpt><trkpt lat="36.90459668167963" lon="15.137355747356965"><ele>36.2</ele><time>2026-04-15T12:55:36.999Z</time></trkpt><trkpt lat="36.9045634692235" lon="15.13750707066925"><ele>35.400000000000006</ele><time>2026-04-15T12:55:37.999Z</time></trkpt><trkpt lat="36.904529622108306" lon="15.137641493123125"><ele>34.599999999999994</ele><time>2026-04-15T12:55:38.999Z</time></trkpt><trkpt lat="36.90450277895237" lon="15.13775274848161"><ele>33.8</ele><time>2026-04-15T12:55:39.999Z</time></trkpt><trkpt lat="36.90448448417079" lon="15.13783162205858"><ele>33.0</ele><time>2026-04-15T12:55:40.999Z</time></trkpt><trkpt lat="36.90445180861365" lon="15.137941237393122"><ele>33.0</ele><time>2026-04-15T12:55:42.999Z</time></trkpt><trkpt lat="36.90442122963199" lon="15.138055558326837"><ele>33.0</ele><time>2026-04-15T12:55:44.999Z</time></trkpt><trkpt lat="36.90438566208153" lon="15.138186006879037"><ele>33.0</ele><time>2026-04-15T12:55:46.999Z</time></trkpt><trkpt lat="36.904369903123744" lon="15.138318559424238"><ele>33.0</ele><time>2026-04-15T12:55:48.999Z</time></trkpt><trkpt lat="36.904339727526" lon="15.138423841472687"><ele>33.0</ele><time>2026-04-15T12:55:50.999Z</time></trkpt><trkpt lat="36.90431890097959" lon="15.138522201647763"><ele>32.5</ele><time>2026-04-15T12:55:52.999Z</time></trkpt><trkpt lat="36.90431104504552" lon="15.138613766548845"><ele>32.0</ele><time>2026-04-15T12:55:54.999Z</time></trkpt><trkpt lat="36.9042774279732" lon="15.138715153037237"><ele>31.5</ele><time>2026-04-15T12:55:56.999Z</time></trkpt><trkpt lat="36.904257873197146" lon="15.138812719324607"><ele>31.0</ele><time>2026-04-15T12:55:58.999Z</time></trkpt><trkpt lat="36.90426683453939" lon="15.138895489964437"><ele>30.5</ele><time>2026-04-15T12:56:00.999Z</time></trkpt><trkpt lat="36.90424738913288" lon="15.138989640978016"><ele>30.0</ele><time>2026-04-15T12:56:02.999Z</time></trkpt><trkpt lat="36.90415366742001" lon="15.13915795660713"><ele>29.6</ele><time>2026-04-15T12:56:04.999Z</time></trkpt><trkpt lat="36.904074639734894" lon="15.139275957815086"><ele>29.2</ele><time>2026-04-15T12:56:05.999Z</time></trkpt><trkpt lat="36.903985514957355" lon="15.139364152330934"><ele>28.799999999999997</ele><time>2026-04-15T12:56:06.999Z</time></trkpt><trkpt lat="36.90391869448505" lon="15.139444167581946"><ele>28.4</ele><time>2026-04-15T12:56:07.999Z</time></trkpt><trkpt lat="36.90385270629831" lon="15.139512804191439"><ele>28.0</ele><time>2026-04-15T12:56:08.999Z</time></trkpt><trkpt lat="36.903816256017684" lon="15.13958116112475"><ele>28.0</ele><time>2026-04-15T12:56:09.999Z</time></trkpt><trkpt lat="36.90387253780681" lon="15.139748970288878"><ele>27.999999999999996</ele><time>2026-04-15T12:56:12.999Z</time></trkpt><trkpt lat="36.90393028136595" lon="15.139798314277767"><ele>27.999999999999996</ele><time>2026-04-15T12:56:13.999Z</time></trkpt><trkpt lat="36.90399576798712" lon="15.139852537981485"><ele>28.0</ele><time>2026-04-15T12:56:14.999Z</time></trkpt><trkpt lat="36.904064383068054" lon="15.139909352086214"><ele>28.0</ele><time>2026-04-15T12:56:15.999Z</time></trkpt><trkpt lat="36.904133159428" lon="15.139966194445403"><ele>27.75</ele><time>2026-04-15T12:56:16.999Z</time></trkpt><trkpt lat="36.904231685634606" lon="15.140045703906367"><ele>27.5</ele><time>2026-04-15T12:56:17.999Z</time></trkpt><trkpt lat="36.90434351307275" lon="15.140135947316157"><ele>27.25</ele><time>2026-04-15T12:56:18.999Z</time></trkpt><trkpt lat="36.904452010586176" lon="15.14022350351887"><ele>27.0</ele><time>2026-04-15T12:56:19.999Z</time></trkpt><trkpt lat="36.90455710575331" lon="15.140308314059205"><ele>26.6</ele><time>2026-04-15T12:56:20.999Z</time></trkpt><trkpt lat="36.90465203202051" lon="15.140384918422717"><ele>26.200000000000003</ele><time>2026-04-15T12:56:21.999Z</time></trkpt><trkpt lat="36.904745529326625" lon="15.140435298510258"><ele>25.8</ele><time>2026-04-15T12:56:22.999Z</time></trkpt><trkpt lat="36.90482808901512" lon="15.140490485942726"><ele>25.4</ele><time>2026-04-15T12:56:23.999Z</time></trkpt><trkpt lat="36.90491614353711" lon="15.140514078287982"><ele>25.0</ele><time>2026-04-15T12:56:24.999Z</time></trkpt><trkpt lat="36.90501094181922" lon="15.14052892068332"><ele>25.0</ele><time>2026-04-15T12:56:25.999Z</time></trkpt><trkpt lat="36.90509792952479" lon="15.140611761492016"><ele>25.0</ele><time>2026-04-15T12:56:26.999Z</time></trkpt><trkpt lat="36.90521404908856" lon="15.140695169380486"><ele>25.0</ele><time>2026-04-15T12:56:27.999Z</time></trkpt><trkpt lat="36.90533700713684" lon="15.140761174124348"><ele>25.0</ele><time>2026-04-15T12:56:28.999Z</time></trkpt><trkpt lat="36.905452535446244" lon="15.140867178146912"><ele>25.0</ele><time>2026-04-15T12:56:29.999Z</time></trkpt><trkpt lat="36.90557137303931" lon="15.140932369001343"><ele>25.0</ele><time>2026-04-15T12:56:30.999Z</time></trkpt><trkpt lat="36.905643101837" lon="15.140995495386376"><ele>25.0</ele><time>2026-04-15T12:56:31.999Z</time></trkpt><trkpt lat="36.905688706985806" lon="15.141059361584105"><ele>25.0</ele><time>2026-04-15T12:56:33.999Z</time></trkpt><trkpt lat="36.905772641776224" lon="15.141119163570417"><ele>25.0</ele><time>2026-04-15T12:56:35.999Z</time></trkpt><trkpt lat="36.90584153061217" lon="15.14116824558656"><ele>25.0</ele><time>2026-04-15T12:56:36.999Z</time></trkpt><trkpt lat="36.90590023518383" lon="15.141210071505228"><ele>25.0</ele><time>2026-04-15T12:56:37.999Z</time></trkpt><trkpt lat="36.90596959202797" lon="15.141609885848125"><ele>25.0</ele><time>2026-04-15T12:56:39.999Z</time></trkpt><trkpt lat="36.9059393597054" lon="15.141680257836578"><ele>23.0</ele><time>2026-04-15T12:56:40.999Z</time></trkpt><trkpt lat="36.905891412419415" lon="15.141791713801588"><ele>23.0</ele><time>2026-04-15T12:56:42.999Z</time></trkpt></trkseg></trk></gpx>